<?xml version="1.0" encoding="UTF-8" standalone="no" ?>
<gpx xmlns="http://www.topografix.com/GPX/1/1" xmlns:xsi="http://www.w3.org/2001/XMLSchema-instance" xsi:schemaLocation="http://www.topografix.com/GPX/1/1 http://www.topografix.com/GPX/1/1/gpx.xsd" version="1.1" creator="VisuGPX - https://www.visugpx.com">
  <metadata>
    <name>Rando vtt Cabrières 2015 avec petits bonus</name>
    <desc><![CDATA[Rando Cabrières 2015 avec petits bonus]]></desc>
  </metadata>
  <trk>
    <name><![CDATA[Rando vtt Cabrières 2015 avec petits bonus_1]]></name>
    <trkseg>
      <trkpt lat="43.57334" lon="3.36328">
        <ele>163.5</ele>
        <time>2015-11-22T06:55:45Z</time>
      </trkpt>
      <trkpt lat="43.57333" lon="3.36328">
        <ele>164</ele>
        <time>2015-11-22T06:55:46Z</time>
      </trkpt>
      <trkpt lat="43.57333" lon="3.36329">
        <ele>164.5</ele>
        <time>2015-11-22T06:55:56Z</time>
      </trkpt>
      <trkpt lat="43.57333" lon="3.36328">
        <ele>165</ele>
        <time>2015-11-22T06:55:57Z</time>
      </trkpt>
      <trkpt lat="43.57333" lon="3.36328">
        <ele>165</ele>
        <time>2015-11-22T06:55:58Z</time>
      </trkpt>
      <trkpt lat="43.57333" lon="3.36329">
        <ele>165</ele>
        <time>2015-11-22T06:56:00Z</time>
      </trkpt>
      <trkpt lat="43.57332" lon="3.36328">
        <ele>165</ele>
        <time>2015-11-22T06:56:00Z</time>
      </trkpt>
      <trkpt lat="43.57332" lon="3.36328">
        <ele>164.5</ele>
        <time>2015-11-22T06:56:01Z</time>
      </trkpt>
      <trkpt lat="43.57332" lon="3.36327">
        <ele>164.5</ele>
        <time>2015-11-22T06:56:02Z</time>
      </trkpt>
      <trkpt lat="43.57332" lon="3.3633">
        <ele>164</ele>
        <time>2015-11-22T06:56:06Z</time>
      </trkpt>
      <trkpt lat="43.57332" lon="3.3633">
        <ele>164</ele>
        <time>2015-11-22T06:56:09Z</time>
      </trkpt>
      <trkpt lat="43.57333" lon="3.3633">
        <ele>164</ele>
        <time>2015-11-22T06:56:10Z</time>
      </trkpt>
      <trkpt lat="43.57332" lon="3.36331">
        <ele>164</ele>
        <time>2015-11-22T06:56:11Z</time>
      </trkpt>
      <trkpt lat="43.57332" lon="3.36331">
        <ele>164</ele>
        <time>2015-11-22T06:56:12Z</time>
      </trkpt>
      <trkpt lat="43.57331" lon="3.36332">
        <ele>164</ele>
        <time>2015-11-22T06:56:16Z</time>
      </trkpt>
      <trkpt lat="43.57331" lon="3.36335">
        <ele>164.5</ele>
        <time>2015-11-22T06:56:22Z</time>
      </trkpt>
      <trkpt lat="43.57331" lon="3.36334">
        <ele>164.5</ele>
        <time>2015-11-22T06:56:23Z</time>
      </trkpt>
      <trkpt lat="43.57331" lon="3.36335">
        <ele>164.5</ele>
        <time>2015-11-22T06:56:25Z</time>
      </trkpt>
      <trkpt lat="43.57332" lon="3.36336">
        <ele>164.5</ele>
        <time>2015-11-22T06:56:27Z</time>
      </trkpt>
      <trkpt lat="43.57333" lon="3.3634">
        <ele>167</ele>
        <time>2015-11-22T06:56:37Z</time>
      </trkpt>
      <trkpt lat="43.57334" lon="3.36341">
        <ele>171.5</ele>
        <time>2015-11-22T06:57:01Z</time>
      </trkpt>
      <trkpt lat="43.57334" lon="3.36342">
        <ele>173</ele>
        <time>2015-11-22T06:57:02Z</time>
      </trkpt>
      <trkpt lat="43.57335" lon="3.36342">
        <ele>174.5</ele>
        <time>2015-11-22T06:57:05Z</time>
      </trkpt>
      <trkpt lat="43.57337" lon="3.36339">
        <ele>177.5</ele>
        <time>2015-11-22T06:57:23Z</time>
      </trkpt>
      <trkpt lat="43.57336" lon="3.36339">
        <ele>177</ele>
        <time>2015-11-22T06:57:49Z</time>
      </trkpt>
      <trkpt lat="43.57336" lon="3.3634">
        <ele>177</ele>
        <time>2015-11-22T06:57:50Z</time>
      </trkpt>
      <trkpt lat="43.57335" lon="3.3634">
        <ele>178</ele>
        <time>2015-11-22T06:57:51Z</time>
      </trkpt>
      <trkpt lat="43.57335" lon="3.3634">
        <ele>177.5</ele>
        <time>2015-11-22T06:57:52Z</time>
      </trkpt>
      <trkpt lat="43.57334" lon="3.36341">
        <ele>177</ele>
        <time>2015-11-22T06:57:53Z</time>
      </trkpt>
      <trkpt lat="43.57334" lon="3.36341">
        <ele>176</ele>
        <time>2015-11-22T06:57:54Z</time>
      </trkpt>
      <trkpt lat="43.57333" lon="3.36341">
        <ele>175.5</ele>
        <time>2015-11-22T06:57:55Z</time>
      </trkpt>
      <trkpt lat="43.57333" lon="3.36342">
        <ele>176</ele>
        <time>2015-11-22T06:57:56Z</time>
      </trkpt>
      <trkpt lat="43.57332" lon="3.36342">
        <ele>175.5</ele>
        <time>2015-11-22T06:57:57Z</time>
      </trkpt>
      <trkpt lat="43.57332" lon="3.36341">
        <ele>174.5</ele>
        <time>2015-11-22T06:57:58Z</time>
      </trkpt>
      <trkpt lat="43.57332" lon="3.36341">
        <ele>173.5</ele>
        <time>2015-11-22T06:57:59Z</time>
      </trkpt>
      <trkpt lat="43.57331" lon="3.36341">
        <ele>173.5</ele>
        <time>2015-11-22T06:58:00Z</time>
      </trkpt>
      <trkpt lat="43.57331" lon="3.3634">
        <ele>173.5</ele>
        <time>2015-11-22T06:58:01Z</time>
      </trkpt>
      <trkpt lat="43.5733" lon="3.3634">
        <ele>174</ele>
        <time>2015-11-22T06:58:02Z</time>
      </trkpt>
      <trkpt lat="43.5733" lon="3.36339">
        <ele>173.5</ele>
        <time>2015-11-22T06:58:03Z</time>
      </trkpt>
      <trkpt lat="43.57329" lon="3.36339">
        <ele>172.5</ele>
        <time>2015-11-22T06:58:04Z</time>
      </trkpt>
      <trkpt lat="43.57329" lon="3.36339">
        <ele>171</ele>
        <time>2015-11-22T06:58:05Z</time>
      </trkpt>
      <trkpt lat="43.57328" lon="3.36339">
        <ele>170.5</ele>
        <time>2015-11-22T06:58:06Z</time>
      </trkpt>
      <trkpt lat="43.57327" lon="3.36339">
        <ele>171</ele>
        <time>2015-11-22T06:58:07Z</time>
      </trkpt>
      <trkpt lat="43.57326" lon="3.3634">
        <ele>173</ele>
        <time>2015-11-22T06:58:08Z</time>
      </trkpt>
      <trkpt lat="43.57325" lon="3.3634">
        <ele>173</ele>
        <time>2015-11-22T06:58:09Z</time>
      </trkpt>
      <trkpt lat="43.57325" lon="3.3634">
        <ele>172</ele>
        <time>2015-11-22T06:58:10Z</time>
      </trkpt>
      <trkpt lat="43.57325" lon="3.3634">
        <ele>171</ele>
        <time>2015-11-22T06:58:11Z</time>
      </trkpt>
      <trkpt lat="43.57324" lon="3.36339">
        <ele>170.5</ele>
        <time>2015-11-22T06:58:12Z</time>
      </trkpt>
      <trkpt lat="43.57323" lon="3.36338">
        <ele>166.5</ele>
        <time>2015-11-22T06:58:16Z</time>
      </trkpt>
      <trkpt lat="43.57323" lon="3.36338">
        <ele>166</ele>
        <time>2015-11-22T06:58:18Z</time>
      </trkpt>
      <trkpt lat="43.57322" lon="3.36336">
        <ele>165</ele>
        <time>2015-11-22T06:58:21Z</time>
      </trkpt>
      <trkpt lat="43.57319" lon="3.36333">
        <ele>166</ele>
        <time>2015-11-22T06:58:27Z</time>
      </trkpt>
      <trkpt lat="43.57319" lon="3.36333">
        <ele>165.5</ele>
        <time>2015-11-22T06:58:28Z</time>
      </trkpt>
      <trkpt lat="43.57318" lon="3.36332">
        <ele>165.5</ele>
        <time>2015-11-22T06:58:29Z</time>
      </trkpt>
      <trkpt lat="43.57318" lon="3.36331">
        <ele>164</ele>
        <time>2015-11-22T06:58:34Z</time>
      </trkpt>
      <trkpt lat="43.57318" lon="3.3633">
        <ele>164</ele>
        <time>2015-11-22T06:58:35Z</time>
      </trkpt>
      <trkpt lat="43.57319" lon="3.36329">
        <ele>163</ele>
        <time>2015-11-22T06:58:38Z</time>
      </trkpt>
      <trkpt lat="43.57319" lon="3.3633">
        <ele>163</ele>
        <time>2015-11-22T06:58:39Z</time>
      </trkpt>
      <trkpt lat="43.57318" lon="3.36329">
        <ele>163</ele>
        <time>2015-11-22T06:58:40Z</time>
      </trkpt>
      <trkpt lat="43.57318" lon="3.36329">
        <ele>163</ele>
        <time>2015-11-22T06:58:41Z</time>
      </trkpt>
      <trkpt lat="43.5732" lon="3.36329">
        <ele>162</ele>
        <time>2015-11-22T06:58:45Z</time>
      </trkpt>
      <trkpt lat="43.5732" lon="3.36328">
        <ele>162</ele>
        <time>2015-11-22T06:58:46Z</time>
      </trkpt>
      <trkpt lat="43.5732" lon="3.36329">
        <ele>162</ele>
        <time>2015-11-22T06:58:47Z</time>
      </trkpt>
      <trkpt lat="43.57319" lon="3.36327">
        <ele>162</ele>
        <time>2015-11-22T06:58:50Z</time>
      </trkpt>
      <trkpt lat="43.5732" lon="3.36328">
        <ele>162</ele>
        <time>2015-11-22T06:58:51Z</time>
      </trkpt>
      <trkpt lat="43.5732" lon="3.36327">
        <ele>162</ele>
        <time>2015-11-22T06:58:52Z</time>
      </trkpt>
      <trkpt lat="43.57319" lon="3.36326">
        <ele>162</ele>
        <time>2015-11-22T06:58:54Z</time>
      </trkpt>
      <trkpt lat="43.57318" lon="3.36326">
        <ele>162</ele>
        <time>2015-11-22T06:58:55Z</time>
      </trkpt>
      <trkpt lat="43.57318" lon="3.36326">
        <ele>161.5</ele>
        <time>2015-11-22T06:58:56Z</time>
      </trkpt>
      <trkpt lat="43.57317" lon="3.36326">
        <ele>161.5</ele>
        <time>2015-11-22T06:58:57Z</time>
      </trkpt>
      <trkpt lat="43.57317" lon="3.36325">
        <ele>161</ele>
        <time>2015-11-22T06:58:58Z</time>
      </trkpt>
      <trkpt lat="43.57316" lon="3.36323">
        <ele>161</ele>
        <time>2015-11-22T06:58:59Z</time>
      </trkpt>
      <trkpt lat="43.57315" lon="3.36323">
        <ele>161</ele>
        <time>2015-11-22T06:59:00Z</time>
      </trkpt>
      <trkpt lat="43.57314" lon="3.36323">
        <ele>161</ele>
        <time>2015-11-22T06:59:01Z</time>
      </trkpt>
      <trkpt lat="43.57314" lon="3.36323">
        <ele>161</ele>
        <time>2015-11-22T06:59:02Z</time>
      </trkpt>
      <trkpt lat="43.57313" lon="3.36322">
        <ele>161</ele>
        <time>2015-11-22T06:59:03Z</time>
      </trkpt>
      <trkpt lat="43.57313" lon="3.36322">
        <ele>160.5</ele>
        <time>2015-11-22T06:59:04Z</time>
      </trkpt>
      <trkpt lat="43.57311" lon="3.36323">
        <ele>160.5</ele>
        <time>2015-11-22T06:59:05Z</time>
      </trkpt>
      <trkpt lat="43.57312" lon="3.36323">
        <ele>160.5</ele>
        <time>2015-11-22T06:59:06Z</time>
      </trkpt>
      <trkpt lat="43.57312" lon="3.36322">
        <ele>160.5</ele>
        <time>2015-11-22T06:59:07Z</time>
      </trkpt>
      <trkpt lat="43.57313" lon="3.36322">
        <ele>160.5</ele>
        <time>2015-11-22T06:59:08Z</time>
      </trkpt>
      <trkpt lat="43.57313" lon="3.36322">
        <ele>160.5</ele>
        <time>2015-11-22T06:59:09Z</time>
      </trkpt>
      <trkpt lat="43.57315" lon="3.36322">
        <ele>161</ele>
        <time>2015-11-22T06:59:10Z</time>
      </trkpt>
      <trkpt lat="43.57316" lon="3.36323">
        <ele>161</ele>
        <time>2015-11-22T06:59:11Z</time>
      </trkpt>
      <trkpt lat="43.57317" lon="3.36324">
        <ele>160.5</ele>
        <time>2015-11-22T06:59:12Z</time>
      </trkpt>
      <trkpt lat="43.57317" lon="3.36324">
        <ele>160.5</ele>
        <time>2015-11-22T06:59:13Z</time>
      </trkpt>
      <trkpt lat="43.57318" lon="3.36323">
        <ele>159.5</ele>
        <time>2015-11-22T06:59:14Z</time>
      </trkpt>
      <trkpt lat="43.57319" lon="3.36323">
        <ele>158.5</ele>
        <time>2015-11-22T06:59:15Z</time>
      </trkpt>
      <trkpt lat="43.5732" lon="3.36323">
        <ele>158</ele>
        <time>2015-11-22T06:59:16Z</time>
      </trkpt>
      <trkpt lat="43.5732" lon="3.36325">
        <ele>159</ele>
        <time>2015-11-22T06:59:18Z</time>
      </trkpt>
      <trkpt lat="43.5732" lon="3.36326">
        <ele>159.5</ele>
        <time>2015-11-22T06:59:19Z</time>
      </trkpt>
      <trkpt lat="43.5732" lon="3.36324">
        <ele>159</ele>
        <time>2015-11-22T06:59:20Z</time>
      </trkpt>
      <trkpt lat="43.57319" lon="3.36324">
        <ele>159</ele>
        <time>2015-11-22T06:59:21Z</time>
      </trkpt>
      <trkpt lat="43.5732" lon="3.36323">
        <ele>159</ele>
        <time>2015-11-22T06:59:22Z</time>
      </trkpt>
      <trkpt lat="43.57322" lon="3.36325">
        <ele>157</ele>
        <time>2015-11-22T06:59:24Z</time>
      </trkpt>
      <trkpt lat="43.57323" lon="3.36325">
        <ele>157</ele>
        <time>2015-11-22T06:59:25Z</time>
      </trkpt>
      <trkpt lat="43.57324" lon="3.36325">
        <ele>157</ele>
        <time>2015-11-22T06:59:27Z</time>
      </trkpt>
      <trkpt lat="43.57324" lon="3.36325">
        <ele>157</ele>
        <time>2015-11-22T06:59:28Z</time>
      </trkpt>
      <trkpt lat="43.57324" lon="3.36327">
        <ele>157</ele>
        <time>2015-11-22T06:59:29Z</time>
      </trkpt>
      <trkpt lat="43.57326" lon="3.36329">
        <ele>157.5</ele>
        <time>2015-11-22T06:59:37Z</time>
      </trkpt>
      <trkpt lat="43.57326" lon="3.3633">
        <ele>157.5</ele>
        <time>2015-11-22T06:59:40Z</time>
      </trkpt>
      <trkpt lat="43.57326" lon="3.36331">
        <ele>157.5</ele>
        <time>2015-11-22T06:59:41Z</time>
      </trkpt>
      <trkpt lat="43.57326" lon="3.36331">
        <ele>157.5</ele>
        <time>2015-11-22T06:59:42Z</time>
      </trkpt>
      <trkpt lat="43.57325" lon="3.36332">
        <ele>157.5</ele>
        <time>2015-11-22T06:59:43Z</time>
      </trkpt>
      <trkpt lat="43.57325" lon="3.36332">
        <ele>157.5</ele>
        <time>2015-11-22T06:59:44Z</time>
      </trkpt>
      <trkpt lat="43.57324" lon="3.36333">
        <ele>157.5</ele>
        <time>2015-11-22T06:59:45Z</time>
      </trkpt>
      <trkpt lat="43.57323" lon="3.36333">
        <ele>157.5</ele>
        <time>2015-11-22T06:59:46Z</time>
      </trkpt>
      <trkpt lat="43.57323" lon="3.36334">
        <ele>157</ele>
        <time>2015-11-22T06:59:47Z</time>
      </trkpt>
      <trkpt lat="43.57322" lon="3.36334">
        <ele>157</ele>
        <time>2015-11-22T06:59:48Z</time>
      </trkpt>
      <trkpt lat="43.57322" lon="3.36334">
        <ele>157</ele>
        <time>2015-11-22T06:59:49Z</time>
      </trkpt>
      <trkpt lat="43.57321" lon="3.36335">
        <ele>157</ele>
        <time>2015-11-22T06:59:50Z</time>
      </trkpt>
      <trkpt lat="43.57321" lon="3.36336">
        <ele>157</ele>
        <time>2015-11-22T06:59:51Z</time>
      </trkpt>
      <trkpt lat="43.57321" lon="3.36336">
        <ele>157</ele>
        <time>2015-11-22T06:59:52Z</time>
      </trkpt>
      <trkpt lat="43.5732" lon="3.36336">
        <ele>157</ele>
        <time>2015-11-22T06:59:56Z</time>
      </trkpt>
      <trkpt lat="43.57322" lon="3.36333">
        <ele>158</ele>
        <time>2015-11-22T07:00:04Z</time>
      </trkpt>
      <trkpt lat="43.57327" lon="3.36331">
        <ele>169.5</ele>
        <time>2015-11-22T07:00:21Z</time>
      </trkpt>
      <trkpt lat="43.57329" lon="3.36328">
        <ele>169</ele>
        <time>2015-11-22T07:00:29Z</time>
      </trkpt>
      <trkpt lat="43.5733" lon="3.36327">
        <ele>168.5</ele>
        <time>2015-11-22T07:00:32Z</time>
      </trkpt>
      <trkpt lat="43.57331" lon="3.36326">
        <ele>167.5</ele>
        <time>2015-11-22T07:00:33Z</time>
      </trkpt>
      <trkpt lat="43.57331" lon="3.36325">
        <ele>166.5</ele>
        <time>2015-11-22T07:00:34Z</time>
      </trkpt>
      <trkpt lat="43.5733" lon="3.36324">
        <ele>164</ele>
        <time>2015-11-22T07:00:41Z</time>
      </trkpt>
      <trkpt lat="43.57331" lon="3.36324">
        <ele>163.5</ele>
        <time>2015-11-22T07:00:42Z</time>
      </trkpt>
      <trkpt lat="43.57332" lon="3.36323">
        <ele>164</ele>
        <time>2015-11-22T07:00:43Z</time>
      </trkpt>
      <trkpt lat="43.57332" lon="3.36325">
        <ele>164</ele>
        <time>2015-11-22T07:00:44Z</time>
      </trkpt>
      <trkpt lat="43.5733" lon="3.36326">
        <ele>164.5</ele>
        <time>2015-11-22T07:00:45Z</time>
      </trkpt>
      <trkpt lat="43.5733" lon="3.36328">
        <ele>164.5</ele>
        <time>2015-11-22T07:00:46Z</time>
      </trkpt>
      <trkpt lat="43.57331" lon="3.3633">
        <ele>164.5</ele>
        <time>2015-11-22T07:00:47Z</time>
      </trkpt>
      <trkpt lat="43.57331" lon="3.36332">
        <ele>164.5</ele>
        <time>2015-11-22T07:00:48Z</time>
      </trkpt>
      <trkpt lat="43.57331" lon="3.36334">
        <ele>164.5</ele>
        <time>2015-11-22T07:00:49Z</time>
      </trkpt>
      <trkpt lat="43.57331" lon="3.36336">
        <ele>166.5</ele>
        <time>2015-11-22T07:00:50Z</time>
      </trkpt>
      <trkpt lat="43.57332" lon="3.36336">
        <ele>167</ele>
        <time>2015-11-22T07:00:51Z</time>
      </trkpt>
      <trkpt lat="43.57331" lon="3.36337">
        <ele>167</ele>
        <time>2015-11-22T07:00:52Z</time>
      </trkpt>
      <trkpt lat="43.57331" lon="3.36337">
        <ele>163</ele>
        <time>2015-11-22T07:01:00Z</time>
      </trkpt>
      <trkpt lat="43.5733" lon="3.36341">
        <ele>161</ele>
        <time>2015-11-22T07:01:08Z</time>
      </trkpt>
      <trkpt lat="43.57329" lon="3.36341">
        <ele>161</ele>
        <time>2015-11-22T07:01:09Z</time>
      </trkpt>
      <trkpt lat="43.57329" lon="3.3634">
        <ele>160.5</ele>
        <time>2015-11-22T07:01:10Z</time>
      </trkpt>
      <trkpt lat="43.57329" lon="3.36339">
        <ele>159.5</ele>
        <time>2015-11-22T07:01:12Z</time>
      </trkpt>
      <trkpt lat="43.57328" lon="3.36339">
        <ele>164</ele>
        <time>2015-11-22T07:01:18Z</time>
      </trkpt>
      <trkpt lat="43.57328" lon="3.36341">
        <ele>168</ele>
        <time>2015-11-22T07:01:20Z</time>
      </trkpt>
      <trkpt lat="43.57329" lon="3.36344">
        <ele>172.5</ele>
        <time>2015-11-22T07:01:24Z</time>
      </trkpt>
      <trkpt lat="43.57328" lon="3.36345">
        <ele>174</ele>
        <time>2015-11-22T07:01:27Z</time>
      </trkpt>
      <trkpt lat="43.57328" lon="3.36346">
        <ele>176.5</ele>
        <time>2015-11-22T07:01:32Z</time>
      </trkpt>
      <trkpt lat="43.57327" lon="3.36344">
        <ele>176</ele>
        <time>2015-11-22T07:01:36Z</time>
      </trkpt>
      <trkpt lat="43.57327" lon="3.36343">
        <ele>176</ele>
        <time>2015-11-22T07:01:37Z</time>
      </trkpt>
      <trkpt lat="43.57327" lon="3.36343">
        <ele>175.5</ele>
        <time>2015-11-22T07:01:38Z</time>
      </trkpt>
      <trkpt lat="43.57325" lon="3.3634">
        <ele>172</ele>
        <time>2015-11-22T07:01:43Z</time>
      </trkpt>
      <trkpt lat="43.57325" lon="3.3634">
        <ele>171.5</ele>
        <time>2015-11-22T07:01:44Z</time>
      </trkpt>
      <trkpt lat="43.57325" lon="3.36339">
        <ele>171</ele>
        <time>2015-11-22T07:01:45Z</time>
      </trkpt>
      <trkpt lat="43.57325" lon="3.36339">
        <ele>171</ele>
        <time>2015-11-22T07:01:46Z</time>
      </trkpt>
      <trkpt lat="43.57325" lon="3.36338">
        <ele>169</ele>
        <time>2015-11-22T07:01:48Z</time>
      </trkpt>
      <trkpt lat="43.57325" lon="3.36338">
        <ele>168.5</ele>
        <time>2015-11-22T07:01:51Z</time>
      </trkpt>
      <trkpt lat="43.57325" lon="3.36338">
        <ele>167.5</ele>
        <time>2015-11-22T07:01:52Z</time>
      </trkpt>
      <trkpt lat="43.57325" lon="3.36337">
        <ele>167.5</ele>
        <time>2015-11-22T07:01:54Z</time>
      </trkpt>
      <trkpt lat="43.57325" lon="3.36338">
        <ele>166.5</ele>
        <time>2015-11-22T07:01:55Z</time>
      </trkpt>
      <trkpt lat="43.57325" lon="3.36338">
        <ele>168.5</ele>
        <time>2015-11-22T07:01:58Z</time>
      </trkpt>
      <trkpt lat="43.57325" lon="3.36338">
        <ele>170</ele>
        <time>2015-11-22T07:01:59Z</time>
      </trkpt>
      <trkpt lat="43.57326" lon="3.36338">
        <ele>172</ele>
        <time>2015-11-22T07:02:00Z</time>
      </trkpt>
      <trkpt lat="43.57325" lon="3.36339">
        <ele>181</ele>
        <time>2015-11-22T07:02:07Z</time>
      </trkpt>
      <trkpt lat="43.57326" lon="3.36341">
        <ele>182</ele>
        <time>2015-11-22T07:02:08Z</time>
      </trkpt>
      <trkpt lat="43.57325" lon="3.3634">
        <ele>182</ele>
        <time>2015-11-22T07:02:11Z</time>
      </trkpt>
      <trkpt lat="43.57326" lon="3.3634">
        <ele>182</ele>
        <time>2015-11-22T07:02:15Z</time>
      </trkpt>
      <trkpt lat="43.57325" lon="3.36335">
        <ele>180</ele>
        <time>2015-11-22T07:02:30Z</time>
      </trkpt>
      <trkpt lat="43.57324" lon="3.36335">
        <ele>183</ele>
        <time>2015-11-22T07:02:35Z</time>
      </trkpt>
      <trkpt lat="43.57325" lon="3.36336">
        <ele>184</ele>
        <time>2015-11-22T07:02:37Z</time>
      </trkpt>
      <trkpt lat="43.57328" lon="3.36341">
        <ele>180.5</ele>
        <time>2015-11-22T07:03:00Z</time>
      </trkpt>
      <trkpt lat="43.57328" lon="3.36339">
        <ele>180.5</ele>
        <time>2015-11-22T07:03:01Z</time>
      </trkpt>
      <trkpt lat="43.57328" lon="3.3634">
        <ele>181</ele>
        <time>2015-11-22T07:03:02Z</time>
      </trkpt>
      <trkpt lat="43.57327" lon="3.3634">
        <ele>181</ele>
        <time>2015-11-22T07:03:03Z</time>
      </trkpt>
      <trkpt lat="43.57327" lon="3.36339">
        <ele>181</ele>
        <time>2015-11-22T07:03:04Z</time>
      </trkpt>
      <trkpt lat="43.57326" lon="3.36339">
        <ele>181.5</ele>
        <time>2015-11-22T07:03:05Z</time>
      </trkpt>
      <trkpt lat="43.57327" lon="3.36338">
        <ele>182.5</ele>
        <time>2015-11-22T07:03:06Z</time>
      </trkpt>
      <trkpt lat="43.57327" lon="3.36337">
        <ele>182.5</ele>
        <time>2015-11-22T07:03:07Z</time>
      </trkpt>
      <trkpt lat="43.57327" lon="3.36337">
        <ele>182.5</ele>
        <time>2015-11-22T07:03:08Z</time>
      </trkpt>
      <trkpt lat="43.57327" lon="3.36337">
        <ele>182.5</ele>
        <time>2015-11-22T07:03:09Z</time>
      </trkpt>
      <trkpt lat="43.57329" lon="3.36339">
        <ele>180</ele>
        <time>2015-11-22T07:03:13Z</time>
      </trkpt>
      <trkpt lat="43.57328" lon="3.3634">
        <ele>179</ele>
        <time>2015-11-22T07:03:15Z</time>
      </trkpt>
      <trkpt lat="43.57326" lon="3.36341">
        <ele>176.5</ele>
        <time>2015-11-22T07:03:18Z</time>
      </trkpt>
      <trkpt lat="43.57326" lon="3.36342">
        <ele>175.5</ele>
        <time>2015-11-22T07:03:19Z</time>
      </trkpt>
      <trkpt lat="43.57328" lon="3.36341">
        <ele>175</ele>
        <time>2015-11-22T07:03:21Z</time>
      </trkpt>
      <trkpt lat="43.57328" lon="3.36341">
        <ele>175</ele>
        <time>2015-11-22T07:03:22Z</time>
      </trkpt>
      <trkpt lat="43.57329" lon="3.36343">
        <ele>174.5</ele>
        <time>2015-11-22T07:03:28Z</time>
      </trkpt>
      <trkpt lat="43.57331" lon="3.36343">
        <ele>174.5</ele>
        <time>2015-11-22T07:03:30Z</time>
      </trkpt>
      <trkpt lat="43.5733" lon="3.36343">
        <ele>173</ele>
        <time>2015-11-22T07:03:32Z</time>
      </trkpt>
      <trkpt lat="43.57329" lon="3.36341">
        <ele>168</ele>
        <time>2015-11-22T07:03:39Z</time>
      </trkpt>
      <trkpt lat="43.57329" lon="3.36342">
        <ele>167.5</ele>
        <time>2015-11-22T07:03:41Z</time>
      </trkpt>
      <trkpt lat="43.57329" lon="3.36343">
        <ele>167.5</ele>
        <time>2015-11-22T07:03:42Z</time>
      </trkpt>
      <trkpt lat="43.5733" lon="3.36344">
        <ele>166.5</ele>
        <time>2015-11-22T07:03:55Z</time>
      </trkpt>
      <trkpt lat="43.57328" lon="3.36338">
        <ele>157.5</ele>
        <time>2015-11-22T07:04:22Z</time>
      </trkpt>
      <trkpt lat="43.57327" lon="3.36337">
        <ele>160.5</ele>
        <time>2015-11-22T07:04:41Z</time>
      </trkpt>
      <trkpt lat="43.57327" lon="3.36334">
        <ele>161</ele>
        <time>2015-11-22T07:04:51Z</time>
      </trkpt>
      <trkpt lat="43.57329" lon="3.36339">
        <ele>165</ele>
        <time>2015-11-22T07:05:15Z</time>
      </trkpt>
      <trkpt lat="43.57328" lon="3.36338">
        <ele>165</ele>
        <time>2015-11-22T07:05:19Z</time>
      </trkpt>
      <trkpt lat="43.57328" lon="3.36338">
        <ele>165</ele>
        <time>2015-11-22T07:05:20Z</time>
      </trkpt>
      <trkpt lat="43.57327" lon="3.36343">
        <ele>163</ele>
        <time>2015-11-22T07:05:26Z</time>
      </trkpt>
      <trkpt lat="43.57327" lon="3.36343">
        <ele>162.5</ele>
        <time>2015-11-22T07:05:28Z</time>
      </trkpt>
      <trkpt lat="43.57326" lon="3.36343">
        <ele>161.5</ele>
        <time>2015-11-22T07:05:33Z</time>
      </trkpt>
      <trkpt lat="43.57326" lon="3.36344">
        <ele>161.5</ele>
        <time>2015-11-22T07:05:34Z</time>
      </trkpt>
      <trkpt lat="43.57326" lon="3.36343">
        <ele>161</ele>
        <time>2015-11-22T07:05:35Z</time>
      </trkpt>
      <trkpt lat="43.57326" lon="3.36341">
        <ele>161</ele>
        <time>2015-11-22T07:05:48Z</time>
      </trkpt>
      <trkpt lat="43.57326" lon="3.3634">
        <ele>159.5</ele>
        <time>2015-11-22T07:05:50Z</time>
      </trkpt>
      <trkpt lat="43.57329" lon="3.3634">
        <ele>162</ele>
        <time>2015-11-22T07:05:55Z</time>
      </trkpt>
      <trkpt lat="43.57329" lon="3.36339">
        <ele>162</ele>
        <time>2015-11-22T07:05:58Z</time>
      </trkpt>
      <trkpt lat="43.57329" lon="3.36339">
        <ele>163</ele>
        <time>2015-11-22T07:06:00Z</time>
      </trkpt>
      <trkpt lat="43.5733" lon="3.36337">
        <ele>161</ele>
        <time>2015-11-22T07:06:05Z</time>
      </trkpt>
      <trkpt lat="43.5733" lon="3.36336">
        <ele>161.5</ele>
        <time>2015-11-22T07:06:11Z</time>
      </trkpt>
      <trkpt lat="43.57332" lon="3.36331">
        <ele>164</ele>
        <time>2015-11-22T07:06:20Z</time>
      </trkpt>
      <trkpt lat="43.57332" lon="3.36331">
        <ele>166.5</ele>
        <time>2015-11-22T07:06:22Z</time>
      </trkpt>
      <trkpt lat="43.57332" lon="3.36332">
        <ele>170</ele>
        <time>2015-11-22T07:06:29Z</time>
      </trkpt>
      <trkpt lat="43.57334" lon="3.36336">
        <ele>181.5</ele>
        <time>2015-11-22T07:06:36Z</time>
      </trkpt>
      <trkpt lat="43.57333" lon="3.36338">
        <ele>184</ele>
        <time>2015-11-22T07:06:38Z</time>
      </trkpt>
      <trkpt lat="43.57333" lon="3.36338">
        <ele>184.5</ele>
        <time>2015-11-22T07:06:39Z</time>
      </trkpt>
      <trkpt lat="43.57333" lon="3.36338">
        <ele>184</ele>
        <time>2015-11-22T07:06:41Z</time>
      </trkpt>
      <trkpt lat="43.57331" lon="3.36338">
        <ele>178.5</ele>
        <time>2015-11-22T07:06:57Z</time>
      </trkpt>
      <trkpt lat="43.57331" lon="3.36338">
        <ele>178.5</ele>
        <time>2015-11-22T07:07:01Z</time>
      </trkpt>
      <trkpt lat="43.57331" lon="3.36339">
        <ele>180</ele>
        <time>2015-11-22T07:07:02Z</time>
      </trkpt>
      <trkpt lat="43.5733" lon="3.3634">
        <ele>179.5</ele>
        <time>2015-11-22T07:07:04Z</time>
      </trkpt>
      <trkpt lat="43.57331" lon="3.36341">
        <ele>179</ele>
        <time>2015-11-22T07:07:07Z</time>
      </trkpt>
      <trkpt lat="43.5733" lon="3.36341">
        <ele>175</ele>
        <time>2015-11-22T07:07:11Z</time>
      </trkpt>
      <trkpt lat="43.57328" lon="3.36342">
        <ele>171</ele>
        <time>2015-11-22T07:07:20Z</time>
      </trkpt>
      <trkpt lat="43.57328" lon="3.36342">
        <ele>170.5</ele>
        <time>2015-11-22T07:07:40Z</time>
      </trkpt>
      <trkpt lat="43.57328" lon="3.36342">
        <ele>169</ele>
        <time>2015-11-22T07:07:41Z</time>
      </trkpt>
      <trkpt lat="43.57328" lon="3.36342">
        <ele>168</ele>
        <time>2015-11-22T07:07:48Z</time>
      </trkpt>
      <trkpt lat="43.57327" lon="3.36341">
        <ele>165</ele>
        <time>2015-11-22T07:08:08Z</time>
      </trkpt>
      <trkpt lat="43.57327" lon="3.36339">
        <ele>158.5</ele>
        <time>2015-11-22T07:08:32Z</time>
      </trkpt>
      <trkpt lat="43.57329" lon="3.36338">
        <ele>159</ele>
        <time>2015-11-22T07:08:58Z</time>
      </trkpt>
      <trkpt lat="43.57329" lon="3.36337">
        <ele>155.5</ele>
        <time>2015-11-22T07:09:09Z</time>
      </trkpt>
      <trkpt lat="43.57329" lon="3.36337">
        <ele>153.5</ele>
        <time>2015-11-22T07:09:15Z</time>
      </trkpt>
      <trkpt lat="43.57329" lon="3.36339">
        <ele>158</ele>
        <time>2015-11-22T07:09:20Z</time>
      </trkpt>
      <trkpt lat="43.57328" lon="3.36339">
        <ele>161</ele>
        <time>2015-11-22T07:09:40Z</time>
      </trkpt>
      <trkpt lat="43.57328" lon="3.3634">
        <ele>159</ele>
        <time>2015-11-22T07:09:45Z</time>
      </trkpt>
      <trkpt lat="43.57327" lon="3.3634">
        <ele>159.5</ele>
        <time>2015-11-22T07:09:46Z</time>
      </trkpt>
      <trkpt lat="43.57325" lon="3.36339">
        <ele>155.5</ele>
        <time>2015-11-22T07:09:49Z</time>
      </trkpt>
      <trkpt lat="43.57326" lon="3.36338">
        <ele>155.5</ele>
        <time>2015-11-22T07:09:50Z</time>
      </trkpt>
      <trkpt lat="43.57325" lon="3.36339">
        <ele>155.5</ele>
        <time>2015-11-22T07:09:51Z</time>
      </trkpt>
      <trkpt lat="43.57328" lon="3.36339">
        <ele>159.5</ele>
        <time>2015-11-22T07:10:01Z</time>
      </trkpt>
      <trkpt lat="43.57329" lon="3.3634">
        <ele>161</ele>
        <time>2015-11-22T07:10:04Z</time>
      </trkpt>
      <trkpt lat="43.57332" lon="3.36341">
        <ele>163</ele>
        <time>2015-11-22T07:10:09Z</time>
      </trkpt>
      <trkpt lat="43.57332" lon="3.36341">
        <ele>162.5</ele>
        <time>2015-11-22T07:10:17Z</time>
      </trkpt>
      <trkpt lat="43.57331" lon="3.36341">
        <ele>164.5</ele>
        <time>2015-11-22T07:10:27Z</time>
      </trkpt>
      <trkpt lat="43.57331" lon="3.36343">
        <ele>165</ele>
        <time>2015-11-22T07:10:28Z</time>
      </trkpt>
      <trkpt lat="43.57329" lon="3.36341">
        <ele>165</ele>
        <time>2015-11-22T07:10:54Z</time>
      </trkpt>
      <trkpt lat="43.57327" lon="3.3634">
        <ele>161.5</ele>
        <time>2015-11-22T07:10:21Z</time>
      </trkpt>
      <trkpt lat="43.57327" lon="3.3634">
        <ele>160.5</ele>
        <time>2015-11-22T07:10:23Z</time>
      </trkpt>
      <trkpt lat="43.57327" lon="3.3634">
        <ele>160.5</ele>
        <time>2015-11-22T07:10:24Z</time>
      </trkpt>
      <trkpt lat="43.57326" lon="3.36339">
        <ele>161</ele>
        <time>2015-11-22T07:10:25Z</time>
      </trkpt>
      <trkpt lat="43.57326" lon="3.36339">
        <ele>161</ele>
        <time>2015-11-22T07:10:26Z</time>
      </trkpt>
      <trkpt lat="43.57326" lon="3.36338">
        <ele>161.5</ele>
        <time>2015-11-22T07:10:27Z</time>
      </trkpt>
      <trkpt lat="43.57325" lon="3.36338">
        <ele>162</ele>
        <time>2015-11-22T07:10:28Z</time>
      </trkpt>
      <trkpt lat="43.57326" lon="3.36338">
        <ele>161</ele>
        <time>2015-11-22T07:10:34Z</time>
      </trkpt>
      <trkpt lat="43.57326" lon="3.36337">
        <ele>160</ele>
        <time>2015-11-22T07:10:39Z</time>
      </trkpt>
      <trkpt lat="43.57327" lon="3.36336">
        <ele>159.5</ele>
        <time>2015-11-22T07:10:40Z</time>
      </trkpt>
      <trkpt lat="43.57326" lon="3.36335">
        <ele>158.5</ele>
        <time>2015-11-22T07:10:41Z</time>
      </trkpt>
      <trkpt lat="43.57326" lon="3.36333">
        <ele>157</ele>
        <time>2015-11-22T07:10:43Z</time>
      </trkpt>
      <trkpt lat="43.57325" lon="3.36331">
        <ele>158</ele>
        <time>2015-11-22T07:10:55Z</time>
      </trkpt>
      <trkpt lat="43.57326" lon="3.3633">
        <ele>158.5</ele>
        <time>2015-11-22T07:10:56Z</time>
      </trkpt>
      <trkpt lat="43.57326" lon="3.3633">
        <ele>159</ele>
        <time>2015-11-22T07:10:57Z</time>
      </trkpt>
      <trkpt lat="43.57326" lon="3.36329">
        <ele>159</ele>
        <time>2015-11-22T07:10:58Z</time>
      </trkpt>
      <trkpt lat="43.57325" lon="3.36328">
        <ele>158</ele>
        <time>2015-11-22T07:10:59Z</time>
      </trkpt>
      <trkpt lat="43.57325" lon="3.36328">
        <ele>157.5</ele>
        <time>2015-11-22T07:11:00Z</time>
      </trkpt>
      <trkpt lat="43.57324" lon="3.36327">
        <ele>158</ele>
        <time>2015-11-22T07:11:01Z</time>
      </trkpt>
      <trkpt lat="43.57324" lon="3.36328">
        <ele>158.5</ele>
        <time>2015-11-22T07:11:02Z</time>
      </trkpt>
      <trkpt lat="43.57324" lon="3.36328">
        <ele>159</ele>
        <time>2015-11-22T07:11:03Z</time>
      </trkpt>
      <trkpt lat="43.57324" lon="3.36327">
        <ele>157.5</ele>
        <time>2015-11-22T07:11:04Z</time>
      </trkpt>
      <trkpt lat="43.57323" lon="3.36327">
        <ele>159</ele>
        <time>2015-11-22T07:11:16Z</time>
      </trkpt>
      <trkpt lat="43.57324" lon="3.36328">
        <ele>159</ele>
        <time>2015-11-22T07:11:18Z</time>
      </trkpt>
      <trkpt lat="43.57323" lon="3.36329">
        <ele>159</ele>
        <time>2015-11-22T07:11:19Z</time>
      </trkpt>
      <trkpt lat="43.57323" lon="3.36329">
        <ele>161</ele>
        <time>2015-11-22T07:11:20Z</time>
      </trkpt>
      <trkpt lat="43.57323" lon="3.3633">
        <ele>160</ele>
        <time>2015-11-22T07:11:21Z</time>
      </trkpt>
      <trkpt lat="43.57323" lon="3.3633">
        <ele>159.5</ele>
        <time>2015-11-22T07:11:22Z</time>
      </trkpt>
      <trkpt lat="43.57322" lon="3.3633">
        <ele>157</ele>
        <time>2015-11-22T07:11:23Z</time>
      </trkpt>
      <trkpt lat="43.57321" lon="3.36331">
        <ele>158.5</ele>
        <time>2015-11-22T07:11:24Z</time>
      </trkpt>
      <trkpt lat="43.57321" lon="3.36332">
        <ele>157.5</ele>
        <time>2015-11-22T07:11:25Z</time>
      </trkpt>
      <trkpt lat="43.5732" lon="3.36333">
        <ele>158</ele>
        <time>2015-11-22T07:11:26Z</time>
      </trkpt>
      <trkpt lat="43.57319" lon="3.36333">
        <ele>160</ele>
        <time>2015-11-22T07:11:38Z</time>
      </trkpt>
      <trkpt lat="43.57319" lon="3.36334">
        <ele>158.5</ele>
        <time>2015-11-22T07:11:58Z</time>
      </trkpt>
      <trkpt lat="43.57318" lon="3.36336">
        <ele>157.5</ele>
        <time>2015-11-22T07:11:59Z</time>
      </trkpt>
      <trkpt lat="43.57318" lon="3.36337">
        <ele>156</ele>
        <time>2015-11-22T07:12:00Z</time>
      </trkpt>
      <trkpt lat="43.57316" lon="3.36337">
        <ele>155</ele>
        <time>2015-11-22T07:12:01Z</time>
      </trkpt>
      <trkpt lat="43.57315" lon="3.36337">
        <ele>155.5</ele>
        <time>2015-11-22T07:12:02Z</time>
      </trkpt>
      <trkpt lat="43.57314" lon="3.36337">
        <ele>155</ele>
        <time>2015-11-22T07:12:03Z</time>
      </trkpt>
      <trkpt lat="43.57313" lon="3.36337">
        <ele>155</ele>
        <time>2015-11-22T07:12:04Z</time>
      </trkpt>
      <trkpt lat="43.57312" lon="3.36338">
        <ele>155.5</ele>
        <time>2015-11-22T07:12:05Z</time>
      </trkpt>
      <trkpt lat="43.57311" lon="3.36337">
        <ele>155</ele>
        <time>2015-11-22T07:12:06Z</time>
      </trkpt>
      <trkpt lat="43.57309" lon="3.36337">
        <ele>153.5</ele>
        <time>2015-11-22T07:12:07Z</time>
      </trkpt>
      <trkpt lat="43.57309" lon="3.36337">
        <ele>153.5</ele>
        <time>2015-11-22T07:12:08Z</time>
      </trkpt>
      <trkpt lat="43.57308" lon="3.36337">
        <ele>153.5</ele>
        <time>2015-11-22T07:12:09Z</time>
      </trkpt>
      <trkpt lat="43.57306" lon="3.36337">
        <ele>153.5</ele>
        <time>2015-11-22T07:12:10Z</time>
      </trkpt>
      <trkpt lat="43.57305" lon="3.36337">
        <ele>153.5</ele>
        <time>2015-11-22T07:12:11Z</time>
      </trkpt>
      <trkpt lat="43.57304" lon="3.36337">
        <ele>154.5</ele>
        <time>2015-11-22T07:12:12Z</time>
      </trkpt>
      <trkpt lat="43.57302" lon="3.36337">
        <ele>154</ele>
        <time>2015-11-22T07:12:13Z</time>
      </trkpt>
      <trkpt lat="43.57301" lon="3.36337">
        <ele>154</ele>
        <time>2015-11-22T07:12:14Z</time>
      </trkpt>
      <trkpt lat="43.57301" lon="3.36337">
        <ele>154</ele>
        <time>2015-11-22T07:12:15Z</time>
      </trkpt>
      <trkpt lat="43.573" lon="3.36338">
        <ele>152</ele>
        <time>2015-11-22T07:12:16Z</time>
      </trkpt>
      <trkpt lat="43.573" lon="3.3634">
        <ele>151.5</ele>
        <time>2015-11-22T07:12:17Z</time>
      </trkpt>
      <trkpt lat="43.573" lon="3.36341">
        <ele>150.5</ele>
        <time>2015-11-22T07:12:18Z</time>
      </trkpt>
      <trkpt lat="43.573" lon="3.36342">
        <ele>150.5</ele>
        <time>2015-11-22T07:12:19Z</time>
      </trkpt>
      <trkpt lat="43.573" lon="3.36344">
        <ele>151.5</ele>
        <time>2015-11-22T07:12:20Z</time>
      </trkpt>
      <trkpt lat="43.57301" lon="3.36345">
        <ele>152.5</ele>
        <time>2015-11-22T07:12:21Z</time>
      </trkpt>
      <trkpt lat="43.57302" lon="3.36346">
        <ele>153</ele>
        <time>2015-11-22T07:12:22Z</time>
      </trkpt>
      <trkpt lat="43.57303" lon="3.36347">
        <ele>153</ele>
        <time>2015-11-22T07:12:23Z</time>
      </trkpt>
      <trkpt lat="43.57304" lon="3.36348">
        <ele>153</ele>
        <time>2015-11-22T07:12:24Z</time>
      </trkpt>
      <trkpt lat="43.57306" lon="3.36348">
        <ele>154</ele>
        <time>2015-11-22T07:12:25Z</time>
      </trkpt>
      <trkpt lat="43.57307" lon="3.36349">
        <ele>154.5</ele>
        <time>2015-11-22T07:12:26Z</time>
      </trkpt>
      <trkpt lat="43.57308" lon="3.36349">
        <ele>155.5</ele>
        <time>2015-11-22T07:12:27Z</time>
      </trkpt>
      <trkpt lat="43.5731" lon="3.3635">
        <ele>155.5</ele>
        <time>2015-11-22T07:12:28Z</time>
      </trkpt>
      <trkpt lat="43.57311" lon="3.3635">
        <ele>156</ele>
        <time>2015-11-22T07:12:29Z</time>
      </trkpt>
      <trkpt lat="43.57313" lon="3.36351">
        <ele>155.5</ele>
        <time>2015-11-22T07:12:30Z</time>
      </trkpt>
      <trkpt lat="43.57314" lon="3.36351">
        <ele>156</ele>
        <time>2015-11-22T07:12:31Z</time>
      </trkpt>
      <trkpt lat="43.57315" lon="3.36351">
        <ele>156.5</ele>
        <time>2015-11-22T07:12:32Z</time>
      </trkpt>
      <trkpt lat="43.57316" lon="3.36351">
        <ele>156.5</ele>
        <time>2015-11-22T07:12:33Z</time>
      </trkpt>
      <trkpt lat="43.57318" lon="3.36352">
        <ele>157</ele>
        <time>2015-11-22T07:12:34Z</time>
      </trkpt>
      <trkpt lat="43.5732" lon="3.36352">
        <ele>157</ele>
        <time>2015-11-22T07:12:35Z</time>
      </trkpt>
      <trkpt lat="43.57321" lon="3.36353">
        <ele>157.5</ele>
        <time>2015-11-22T07:12:36Z</time>
      </trkpt>
      <trkpt lat="43.57323" lon="3.36353">
        <ele>158</ele>
        <time>2015-11-22T07:12:37Z</time>
      </trkpt>
      <trkpt lat="43.57325" lon="3.36353">
        <ele>158.5</ele>
        <time>2015-11-22T07:12:38Z</time>
      </trkpt>
      <trkpt lat="43.57326" lon="3.36353">
        <ele>158.5</ele>
        <time>2015-11-22T07:12:39Z</time>
      </trkpt>
      <trkpt lat="43.57327" lon="3.36353">
        <ele>157.5</ele>
        <time>2015-11-22T07:12:40Z</time>
      </trkpt>
      <trkpt lat="43.57328" lon="3.36353">
        <ele>157</ele>
        <time>2015-11-22T07:12:41Z</time>
      </trkpt>
      <trkpt lat="43.57329" lon="3.36353">
        <ele>156.5</ele>
        <time>2015-11-22T07:12:42Z</time>
      </trkpt>
      <trkpt lat="43.5733" lon="3.36354">
        <ele>156</ele>
        <time>2015-11-22T07:12:43Z</time>
      </trkpt>
      <trkpt lat="43.57332" lon="3.36354">
        <ele>156.5</ele>
        <time>2015-11-22T07:12:44Z</time>
      </trkpt>
      <trkpt lat="43.57334" lon="3.36354">
        <ele>156</ele>
        <time>2015-11-22T07:12:45Z</time>
      </trkpt>
      <trkpt lat="43.57335" lon="3.36354">
        <ele>156.5</ele>
        <time>2015-11-22T07:12:46Z</time>
      </trkpt>
      <trkpt lat="43.57336" lon="3.36353">
        <ele>157.5</ele>
        <time>2015-11-22T07:12:47Z</time>
      </trkpt>
      <trkpt lat="43.57338" lon="3.36353">
        <ele>158.5</ele>
        <time>2015-11-22T07:12:48Z</time>
      </trkpt>
      <trkpt lat="43.5734" lon="3.36353">
        <ele>159.5</ele>
        <time>2015-11-22T07:12:49Z</time>
      </trkpt>
      <trkpt lat="43.57342" lon="3.36353">
        <ele>160</ele>
        <time>2015-11-22T07:12:50Z</time>
      </trkpt>
      <trkpt lat="43.57344" lon="3.36353">
        <ele>160.5</ele>
        <time>2015-11-22T07:12:51Z</time>
      </trkpt>
      <trkpt lat="43.57346" lon="3.36353">
        <ele>161.5</ele>
        <time>2015-11-22T07:12:52Z</time>
      </trkpt>
      <trkpt lat="43.57348" lon="3.36353">
        <ele>161.5</ele>
        <time>2015-11-22T07:12:53Z</time>
      </trkpt>
      <trkpt lat="43.5735" lon="3.36354">
        <ele>161.5</ele>
        <time>2015-11-22T07:12:54Z</time>
      </trkpt>
      <trkpt lat="43.57352" lon="3.36354">
        <ele>161.5</ele>
        <time>2015-11-22T07:12:55Z</time>
      </trkpt>
      <trkpt lat="43.57355" lon="3.36354">
        <ele>162</ele>
        <time>2015-11-22T07:12:56Z</time>
      </trkpt>
      <trkpt lat="43.57358" lon="3.36353">
        <ele>162</ele>
        <time>2015-11-22T07:12:57Z</time>
      </trkpt>
      <trkpt lat="43.5736" lon="3.36353">
        <ele>162.5</ele>
        <time>2015-11-22T07:12:58Z</time>
      </trkpt>
      <trkpt lat="43.57363" lon="3.36352">
        <ele>162.5</ele>
        <time>2015-11-22T07:12:59Z</time>
      </trkpt>
      <trkpt lat="43.57366" lon="3.36352">
        <ele>162.5</ele>
        <time>2015-11-22T07:13:00Z</time>
      </trkpt>
      <trkpt lat="43.57369" lon="3.36351">
        <ele>162</ele>
        <time>2015-11-22T07:13:01Z</time>
      </trkpt>
      <trkpt lat="43.57372" lon="3.36351">
        <ele>162</ele>
        <time>2015-11-22T07:13:02Z</time>
      </trkpt>
      <trkpt lat="43.57375" lon="3.3635">
        <ele>162</ele>
        <time>2015-11-22T07:13:03Z</time>
      </trkpt>
      <trkpt lat="43.57377" lon="3.36348">
        <ele>162</ele>
        <time>2015-11-22T07:13:04Z</time>
      </trkpt>
      <trkpt lat="43.5738" lon="3.36348">
        <ele>162</ele>
        <time>2015-11-22T07:13:05Z</time>
      </trkpt>
      <trkpt lat="43.57383" lon="3.36347">
        <ele>162.5</ele>
        <time>2015-11-22T07:13:06Z</time>
      </trkpt>
      <trkpt lat="43.57386" lon="3.36347">
        <ele>163.5</ele>
        <time>2015-11-22T07:13:07Z</time>
      </trkpt>
      <trkpt lat="43.57388" lon="3.36346">
        <ele>164</ele>
        <time>2015-11-22T07:13:08Z</time>
      </trkpt>
      <trkpt lat="43.57391" lon="3.36345">
        <ele>164</ele>
        <time>2015-11-22T07:13:09Z</time>
      </trkpt>
      <trkpt lat="43.57393" lon="3.36344">
        <ele>164.5</ele>
        <time>2015-11-22T07:13:10Z</time>
      </trkpt>
      <trkpt lat="43.57395" lon="3.36342">
        <ele>164.5</ele>
        <time>2015-11-22T07:13:11Z</time>
      </trkpt>
      <trkpt lat="43.57396" lon="3.36342">
        <ele>162.5</ele>
        <time>2015-11-22T07:13:12Z</time>
      </trkpt>
      <trkpt lat="43.57402" lon="3.36342">
        <ele>162.5</ele>
        <time>2015-11-22T07:13:14Z</time>
      </trkpt>
      <trkpt lat="43.57405" lon="3.36341">
        <ele>162</ele>
        <time>2015-11-22T07:13:15Z</time>
      </trkpt>
      <trkpt lat="43.57407" lon="3.3634">
        <ele>161.5</ele>
        <time>2015-11-22T07:13:16Z</time>
      </trkpt>
      <trkpt lat="43.57409" lon="3.36339">
        <ele>161</ele>
        <time>2015-11-22T07:13:17Z</time>
      </trkpt>
      <trkpt lat="43.57412" lon="3.36339">
        <ele>160.5</ele>
        <time>2015-11-22T07:13:18Z</time>
      </trkpt>
      <trkpt lat="43.57414" lon="3.36339">
        <ele>160.5</ele>
        <time>2015-11-22T07:13:19Z</time>
      </trkpt>
      <trkpt lat="43.57416" lon="3.36339">
        <ele>159</ele>
        <time>2015-11-22T07:13:20Z</time>
      </trkpt>
      <trkpt lat="43.57422" lon="3.36339">
        <ele>159.5</ele>
        <time>2015-11-22T07:13:22Z</time>
      </trkpt>
      <trkpt lat="43.57423" lon="3.36339">
        <ele>160</ele>
        <time>2015-11-22T07:13:23Z</time>
      </trkpt>
      <trkpt lat="43.57425" lon="3.36339">
        <ele>160</ele>
        <time>2015-11-22T07:13:24Z</time>
      </trkpt>
      <trkpt lat="43.57428" lon="3.3634">
        <ele>160.5</ele>
        <time>2015-11-22T07:13:25Z</time>
      </trkpt>
      <trkpt lat="43.57431" lon="3.3634">
        <ele>160</ele>
        <time>2015-11-22T07:13:26Z</time>
      </trkpt>
      <trkpt lat="43.57434" lon="3.36341">
        <ele>159.5</ele>
        <time>2015-11-22T07:13:27Z</time>
      </trkpt>
      <trkpt lat="43.57437" lon="3.36341">
        <ele>159.5</ele>
        <time>2015-11-22T07:13:28Z</time>
      </trkpt>
      <trkpt lat="43.5744" lon="3.36341">
        <ele>159</ele>
        <time>2015-11-22T07:13:29Z</time>
      </trkpt>
      <trkpt lat="43.57442" lon="3.36342">
        <ele>159.5</ele>
        <time>2015-11-22T07:13:30Z</time>
      </trkpt>
      <trkpt lat="43.57445" lon="3.36342">
        <ele>159</ele>
        <time>2015-11-22T07:13:31Z</time>
      </trkpt>
      <trkpt lat="43.57448" lon="3.36343">
        <ele>159.5</ele>
        <time>2015-11-22T07:13:32Z</time>
      </trkpt>
      <trkpt lat="43.57451" lon="3.36343">
        <ele>159.5</ele>
        <time>2015-11-22T07:13:33Z</time>
      </trkpt>
      <trkpt lat="43.57454" lon="3.36344">
        <ele>159.5</ele>
        <time>2015-11-22T07:13:34Z</time>
      </trkpt>
      <trkpt lat="43.57457" lon="3.36344">
        <ele>159.5</ele>
        <time>2015-11-22T07:13:35Z</time>
      </trkpt>
      <trkpt lat="43.5746" lon="3.36345">
        <ele>160.5</ele>
        <time>2015-11-22T07:13:36Z</time>
      </trkpt>
      <trkpt lat="43.57463" lon="3.36346">
        <ele>161</ele>
        <time>2015-11-22T07:13:37Z</time>
      </trkpt>
      <trkpt lat="43.57466" lon="3.36347">
        <ele>160.5</ele>
        <time>2015-11-22T07:13:38Z</time>
      </trkpt>
      <trkpt lat="43.5747" lon="3.36347">
        <ele>161.5</ele>
        <time>2015-11-22T07:13:39Z</time>
      </trkpt>
      <trkpt lat="43.57472" lon="3.36348">
        <ele>162.5</ele>
        <time>2015-11-22T07:13:40Z</time>
      </trkpt>
      <trkpt lat="43.57476" lon="3.36348">
        <ele>162.5</ele>
        <time>2015-11-22T07:13:41Z</time>
      </trkpt>
      <trkpt lat="43.57479" lon="3.36349">
        <ele>162.5</ele>
        <time>2015-11-22T07:13:42Z</time>
      </trkpt>
      <trkpt lat="43.57482" lon="3.36349">
        <ele>162</ele>
        <time>2015-11-22T07:13:43Z</time>
      </trkpt>
      <trkpt lat="43.57485" lon="3.3635">
        <ele>161.5</ele>
        <time>2015-11-22T07:13:44Z</time>
      </trkpt>
      <trkpt lat="43.57488" lon="3.36351">
        <ele>161</ele>
        <time>2015-11-22T07:13:45Z</time>
      </trkpt>
      <trkpt lat="43.57491" lon="3.36352">
        <ele>160</ele>
        <time>2015-11-22T07:13:46Z</time>
      </trkpt>
      <trkpt lat="43.57494" lon="3.36352">
        <ele>160.5</ele>
        <time>2015-11-22T07:13:47Z</time>
      </trkpt>
      <trkpt lat="43.57497" lon="3.36353">
        <ele>160.5</ele>
        <time>2015-11-22T07:13:48Z</time>
      </trkpt>
      <trkpt lat="43.575" lon="3.36353">
        <ele>160</ele>
        <time>2015-11-22T07:13:49Z</time>
      </trkpt>
      <trkpt lat="43.57503" lon="3.36354">
        <ele>160</ele>
        <time>2015-11-22T07:13:50Z</time>
      </trkpt>
      <trkpt lat="43.57506" lon="3.36355">
        <ele>160.5</ele>
        <time>2015-11-22T07:13:51Z</time>
      </trkpt>
      <trkpt lat="43.57509" lon="3.36355">
        <ele>160.5</ele>
        <time>2015-11-22T07:13:52Z</time>
      </trkpt>
      <trkpt lat="43.57512" lon="3.36356">
        <ele>160.5</ele>
        <time>2015-11-22T07:13:53Z</time>
      </trkpt>
      <trkpt lat="43.57514" lon="3.36356">
        <ele>161</ele>
        <time>2015-11-22T07:13:54Z</time>
      </trkpt>
      <trkpt lat="43.57517" lon="3.36357">
        <ele>161.5</ele>
        <time>2015-11-22T07:13:55Z</time>
      </trkpt>
      <trkpt lat="43.5752" lon="3.36358">
        <ele>162.5</ele>
        <time>2015-11-22T07:13:56Z</time>
      </trkpt>
      <trkpt lat="43.57523" lon="3.36359">
        <ele>162</ele>
        <time>2015-11-22T07:13:57Z</time>
      </trkpt>
      <trkpt lat="43.57526" lon="3.3636">
        <ele>161</ele>
        <time>2015-11-22T07:13:58Z</time>
      </trkpt>
      <trkpt lat="43.57528" lon="3.3636">
        <ele>160.5</ele>
        <time>2015-11-22T07:13:59Z</time>
      </trkpt>
      <trkpt lat="43.57531" lon="3.3636">
        <ele>160</ele>
        <time>2015-11-22T07:14:00Z</time>
      </trkpt>
      <trkpt lat="43.57533" lon="3.36361">
        <ele>159.5</ele>
        <time>2015-11-22T07:14:01Z</time>
      </trkpt>
      <trkpt lat="43.57535" lon="3.36362">
        <ele>159.5</ele>
        <time>2015-11-22T07:14:02Z</time>
      </trkpt>
      <trkpt lat="43.57538" lon="3.36362">
        <ele>159</ele>
        <time>2015-11-22T07:14:03Z</time>
      </trkpt>
      <trkpt lat="43.57541" lon="3.36363">
        <ele>159</ele>
        <time>2015-11-22T07:14:04Z</time>
      </trkpt>
      <trkpt lat="43.57544" lon="3.36364">
        <ele>158.5</ele>
        <time>2015-11-22T07:14:05Z</time>
      </trkpt>
      <trkpt lat="43.57547" lon="3.36364">
        <ele>159</ele>
        <time>2015-11-22T07:14:06Z</time>
      </trkpt>
      <trkpt lat="43.5755" lon="3.36365">
        <ele>160</ele>
        <time>2015-11-22T07:14:07Z</time>
      </trkpt>
      <trkpt lat="43.57553" lon="3.36366">
        <ele>160.5</ele>
        <time>2015-11-22T07:14:08Z</time>
      </trkpt>
      <trkpt lat="43.57556" lon="3.36366">
        <ele>160</ele>
        <time>2015-11-22T07:14:09Z</time>
      </trkpt>
      <trkpt lat="43.57559" lon="3.36364">
        <ele>159.5</ele>
        <time>2015-11-22T07:14:10Z</time>
      </trkpt>
      <trkpt lat="43.57562" lon="3.36363">
        <ele>162.5</ele>
        <time>2015-11-22T07:14:11Z</time>
      </trkpt>
      <trkpt lat="43.57564" lon="3.36359">
        <ele>161.5</ele>
        <time>2015-11-22T07:14:12Z</time>
      </trkpt>
      <trkpt lat="43.57565" lon="3.36356">
        <ele>162</ele>
        <time>2015-11-22T07:14:13Z</time>
      </trkpt>
      <trkpt lat="43.57567" lon="3.36352">
        <ele>162.5</ele>
        <time>2015-11-22T07:14:14Z</time>
      </trkpt>
      <trkpt lat="43.57567" lon="3.36349">
        <ele>163</ele>
        <time>2015-11-22T07:14:15Z</time>
      </trkpt>
      <trkpt lat="43.57568" lon="3.36347">
        <ele>163</ele>
        <time>2015-11-22T07:14:16Z</time>
      </trkpt>
      <trkpt lat="43.57568" lon="3.36344">
        <ele>163</ele>
        <time>2015-11-22T07:14:17Z</time>
      </trkpt>
      <trkpt lat="43.57568" lon="3.36341">
        <ele>163</ele>
        <time>2015-11-22T07:14:18Z</time>
      </trkpt>
      <trkpt lat="43.57568" lon="3.36338">
        <ele>164</ele>
        <time>2015-11-22T07:14:19Z</time>
      </trkpt>
      <trkpt lat="43.57569" lon="3.36334">
        <ele>164</ele>
        <time>2015-11-22T07:14:20Z</time>
      </trkpt>
      <trkpt lat="43.57569" lon="3.36331">
        <ele>164</ele>
        <time>2015-11-22T07:14:21Z</time>
      </trkpt>
      <trkpt lat="43.57569" lon="3.36328">
        <ele>164</ele>
        <time>2015-11-22T07:14:22Z</time>
      </trkpt>
      <trkpt lat="43.57569" lon="3.36324">
        <ele>164</ele>
        <time>2015-11-22T07:14:23Z</time>
      </trkpt>
      <trkpt lat="43.57569" lon="3.3632">
        <ele>164</ele>
        <time>2015-11-22T07:14:24Z</time>
      </trkpt>
      <trkpt lat="43.57569" lon="3.36317">
        <ele>164.5</ele>
        <time>2015-11-22T07:14:25Z</time>
      </trkpt>
      <trkpt lat="43.57569" lon="3.36313">
        <ele>164.5</ele>
        <time>2015-11-22T07:14:26Z</time>
      </trkpt>
      <trkpt lat="43.5757" lon="3.3631">
        <ele>164.5</ele>
        <time>2015-11-22T07:14:27Z</time>
      </trkpt>
      <trkpt lat="43.57569" lon="3.36309">
        <ele>165.5</ele>
        <time>2015-11-22T07:14:28Z</time>
      </trkpt>
      <trkpt lat="43.57569" lon="3.36307">
        <ele>166.5</ele>
        <time>2015-11-22T07:14:29Z</time>
      </trkpt>
      <trkpt lat="43.57569" lon="3.36303">
        <ele>166.5</ele>
        <time>2015-11-22T07:14:30Z</time>
      </trkpt>
      <trkpt lat="43.5757" lon="3.36301">
        <ele>167</ele>
        <time>2015-11-22T07:14:31Z</time>
      </trkpt>
      <trkpt lat="43.5757" lon="3.36299">
        <ele>167.5</ele>
        <time>2015-11-22T07:14:32Z</time>
      </trkpt>
      <trkpt lat="43.5757" lon="3.36295">
        <ele>167.5</ele>
        <time>2015-11-22T07:14:33Z</time>
      </trkpt>
      <trkpt lat="43.57571" lon="3.36293">
        <ele>167</ele>
        <time>2015-11-22T07:14:34Z</time>
      </trkpt>
      <trkpt lat="43.57571" lon="3.3629">
        <ele>168</ele>
        <time>2015-11-22T07:14:35Z</time>
      </trkpt>
      <trkpt lat="43.57571" lon="3.36287">
        <ele>168.5</ele>
        <time>2015-11-22T07:14:36Z</time>
      </trkpt>
      <trkpt lat="43.57572" lon="3.36284">
        <ele>169</ele>
        <time>2015-11-22T07:14:36Z</time>
      </trkpt>
      <trkpt lat="43.57573" lon="3.36282">
        <ele>169.5</ele>
        <time>2015-11-22T07:14:37Z</time>
      </trkpt>
      <trkpt lat="43.57574" lon="3.36279">
        <ele>169.5</ele>
        <time>2015-11-22T07:14:38Z</time>
      </trkpt>
      <trkpt lat="43.57575" lon="3.36277">
        <ele>168.5</ele>
        <time>2015-11-22T07:14:39Z</time>
      </trkpt>
      <trkpt lat="43.57577" lon="3.36275">
        <ele>167.5</ele>
        <time>2015-11-22T07:14:40Z</time>
      </trkpt>
      <trkpt lat="43.57579" lon="3.36273">
        <ele>167</ele>
        <time>2015-11-22T07:14:41Z</time>
      </trkpt>
      <trkpt lat="43.57581" lon="3.36271">
        <ele>167</ele>
        <time>2015-11-22T07:14:42Z</time>
      </trkpt>
      <trkpt lat="43.57583" lon="3.36268">
        <ele>166.5</ele>
        <time>2015-11-22T07:14:43Z</time>
      </trkpt>
      <trkpt lat="43.57584" lon="3.36266">
        <ele>166.5</ele>
        <time>2015-11-22T07:14:44Z</time>
      </trkpt>
      <trkpt lat="43.57585" lon="3.36263">
        <ele>166</ele>
        <time>2015-11-22T07:14:45Z</time>
      </trkpt>
      <trkpt lat="43.57586" lon="3.3626">
        <ele>166</ele>
        <time>2015-11-22T07:14:46Z</time>
      </trkpt>
      <trkpt lat="43.57588" lon="3.36258">
        <ele>166</ele>
        <time>2015-11-22T07:14:47Z</time>
      </trkpt>
      <trkpt lat="43.57591" lon="3.36256">
        <ele>166.5</ele>
        <time>2015-11-22T07:14:48Z</time>
      </trkpt>
      <trkpt lat="43.57593" lon="3.36255">
        <ele>166.5</ele>
        <time>2015-11-22T07:14:49Z</time>
      </trkpt>
      <trkpt lat="43.57594" lon="3.36255">
        <ele>166.5</ele>
        <time>2015-11-22T07:14:50Z</time>
      </trkpt>
      <trkpt lat="43.57598" lon="3.36248">
        <ele>166.5</ele>
        <time>2015-11-22T07:14:52Z</time>
      </trkpt>
      <trkpt lat="43.576" lon="3.36247">
        <ele>166.5</ele>
        <time>2015-11-22T07:14:53Z</time>
      </trkpt>
      <trkpt lat="43.57602" lon="3.36245">
        <ele>167</ele>
        <time>2015-11-22T07:14:54Z</time>
      </trkpt>
      <trkpt lat="43.57603" lon="3.36243">
        <ele>167</ele>
        <time>2015-11-22T07:14:55Z</time>
      </trkpt>
      <trkpt lat="43.57602" lon="3.36243">
        <ele>167.5</ele>
        <time>2015-11-22T07:14:56Z</time>
      </trkpt>
      <trkpt lat="43.57604" lon="3.36237">
        <ele>168</ele>
        <time>2015-11-22T07:14:58Z</time>
      </trkpt>
      <trkpt lat="43.57606" lon="3.36236">
        <ele>167</ele>
        <time>2015-11-22T07:14:59Z</time>
      </trkpt>
      <trkpt lat="43.57609" lon="3.36236">
        <ele>167.5</ele>
        <time>2015-11-22T07:15:00Z</time>
      </trkpt>
      <trkpt lat="43.57611" lon="3.36234">
        <ele>168</ele>
        <time>2015-11-22T07:15:01Z</time>
      </trkpt>
      <trkpt lat="43.57613" lon="3.36232">
        <ele>169</ele>
        <time>2015-11-22T07:15:02Z</time>
      </trkpt>
      <trkpt lat="43.57615" lon="3.36231">
        <ele>170.5</ele>
        <time>2015-11-22T07:15:03Z</time>
      </trkpt>
      <trkpt lat="43.57617" lon="3.36229">
        <ele>172.5</ele>
        <time>2015-11-22T07:15:04Z</time>
      </trkpt>
      <trkpt lat="43.57619" lon="3.36228">
        <ele>173.5</ele>
        <time>2015-11-22T07:15:05Z</time>
      </trkpt>
      <trkpt lat="43.5762" lon="3.36228">
        <ele>174</ele>
        <time>2015-11-22T07:15:06Z</time>
      </trkpt>
      <trkpt lat="43.57623" lon="3.36226">
        <ele>174.5</ele>
        <time>2015-11-22T07:15:07Z</time>
      </trkpt>
      <trkpt lat="43.57625" lon="3.36224">
        <ele>175</ele>
        <time>2015-11-22T07:15:08Z</time>
      </trkpt>
      <trkpt lat="43.57626" lon="3.36222">
        <ele>175</ele>
        <time>2015-11-22T07:15:09Z</time>
      </trkpt>
      <trkpt lat="43.57628" lon="3.36219">
        <ele>174.5</ele>
        <time>2015-11-22T07:15:10Z</time>
      </trkpt>
      <trkpt lat="43.5763" lon="3.36217">
        <ele>174</ele>
        <time>2015-11-22T07:15:11Z</time>
      </trkpt>
      <trkpt lat="43.57632" lon="3.36214">
        <ele>173</ele>
        <time>2015-11-22T07:15:12Z</time>
      </trkpt>
      <trkpt lat="43.57635" lon="3.3621">
        <ele>171</ele>
        <time>2015-11-22T07:15:13Z</time>
      </trkpt>
      <trkpt lat="43.57638" lon="3.36209">
        <ele>171.5</ele>
        <time>2015-11-22T07:15:14Z</time>
      </trkpt>
      <trkpt lat="43.5764" lon="3.36206">
        <ele>171</ele>
        <time>2015-11-22T07:15:15Z</time>
      </trkpt>
      <trkpt lat="43.57642" lon="3.36204">
        <ele>171.5</ele>
        <time>2015-11-22T07:15:16Z</time>
      </trkpt>
      <trkpt lat="43.57644" lon="3.36202">
        <ele>172</ele>
        <time>2015-11-22T07:15:17Z</time>
      </trkpt>
      <trkpt lat="43.57644" lon="3.36199">
        <ele>172</ele>
        <time>2015-11-22T07:15:18Z</time>
      </trkpt>
      <trkpt lat="43.57647" lon="3.36196">
        <ele>172</ele>
        <time>2015-11-22T07:15:19Z</time>
      </trkpt>
      <trkpt lat="43.57649" lon="3.36196">
        <ele>174</ele>
        <time>2015-11-22T07:15:20Z</time>
      </trkpt>
      <trkpt lat="43.57651" lon="3.36194">
        <ele>174</ele>
        <time>2015-11-22T07:15:21Z</time>
      </trkpt>
      <trkpt lat="43.57654" lon="3.36192">
        <ele>174.5</ele>
        <time>2015-11-22T07:15:22Z</time>
      </trkpt>
      <trkpt lat="43.57657" lon="3.36189">
        <ele>174.5</ele>
        <time>2015-11-22T07:15:23Z</time>
      </trkpt>
      <trkpt lat="43.5766" lon="3.36189">
        <ele>176.5</ele>
        <time>2015-11-22T07:15:24Z</time>
      </trkpt>
      <trkpt lat="43.57663" lon="3.36187">
        <ele>176.5</ele>
        <time>2015-11-22T07:15:25Z</time>
      </trkpt>
      <trkpt lat="43.57665" lon="3.36186">
        <ele>176.5</ele>
        <time>2015-11-22T07:15:26Z</time>
      </trkpt>
      <trkpt lat="43.57664" lon="3.36178">
        <ele>177.5</ele>
        <time>2015-11-22T07:15:28Z</time>
      </trkpt>
      <trkpt lat="43.57667" lon="3.36177">
        <ele>178</ele>
        <time>2015-11-22T07:15:29Z</time>
      </trkpt>
      <trkpt lat="43.57669" lon="3.36173">
        <ele>178</ele>
        <time>2015-11-22T07:15:30Z</time>
      </trkpt>
      <trkpt lat="43.57672" lon="3.36171">
        <ele>178.5</ele>
        <time>2015-11-22T07:15:31Z</time>
      </trkpt>
      <trkpt lat="43.57676" lon="3.36171">
        <ele>179</ele>
        <time>2015-11-22T07:15:32Z</time>
      </trkpt>
      <trkpt lat="43.57677" lon="3.3617">
        <ele>181</ele>
        <time>2015-11-22T07:15:33Z</time>
      </trkpt>
      <trkpt lat="43.5768" lon="3.36168">
        <ele>181.5</ele>
        <time>2015-11-22T07:15:34Z</time>
      </trkpt>
      <trkpt lat="43.57682" lon="3.36167">
        <ele>182</ele>
        <time>2015-11-22T07:15:35Z</time>
      </trkpt>
      <trkpt lat="43.57684" lon="3.36165">
        <ele>183.5</ele>
        <time>2015-11-22T07:15:36Z</time>
      </trkpt>
      <trkpt lat="43.57686" lon="3.36163">
        <ele>183.5</ele>
        <time>2015-11-22T07:15:37Z</time>
      </trkpt>
      <trkpt lat="43.57688" lon="3.36161">
        <ele>183.5</ele>
        <time>2015-11-22T07:15:38Z</time>
      </trkpt>
      <trkpt lat="43.5769" lon="3.36159">
        <ele>184</ele>
        <time>2015-11-22T07:15:39Z</time>
      </trkpt>
      <trkpt lat="43.57693" lon="3.36157">
        <ele>183.5</ele>
        <time>2015-11-22T07:15:40Z</time>
      </trkpt>
      <trkpt lat="43.57695" lon="3.36155">
        <ele>183</ele>
        <time>2015-11-22T07:15:41Z</time>
      </trkpt>
      <trkpt lat="43.57697" lon="3.36153">
        <ele>183</ele>
        <time>2015-11-22T07:15:42Z</time>
      </trkpt>
      <trkpt lat="43.57699" lon="3.36151">
        <ele>183.5</ele>
        <time>2015-11-22T07:15:43Z</time>
      </trkpt>
      <trkpt lat="43.57701" lon="3.36149">
        <ele>183.5</ele>
        <time>2015-11-22T07:15:44Z</time>
      </trkpt>
      <trkpt lat="43.57703" lon="3.36147">
        <ele>183.5</ele>
        <time>2015-11-22T07:15:45Z</time>
      </trkpt>
      <trkpt lat="43.57706" lon="3.36144">
        <ele>185</ele>
        <time>2015-11-22T07:15:46Z</time>
      </trkpt>
      <trkpt lat="43.57708" lon="3.36142">
        <ele>186.5</ele>
        <time>2015-11-22T07:15:47Z</time>
      </trkpt>
      <trkpt lat="43.5771" lon="3.36139">
        <ele>187.5</ele>
        <time>2015-11-22T07:15:48Z</time>
      </trkpt>
      <trkpt lat="43.57712" lon="3.36137">
        <ele>188.5</ele>
        <time>2015-11-22T07:15:49Z</time>
      </trkpt>
      <trkpt lat="43.57713" lon="3.36135">
        <ele>189</ele>
        <time>2015-11-22T07:15:50Z</time>
      </trkpt>
      <trkpt lat="43.57715" lon="3.36133">
        <ele>190</ele>
        <time>2015-11-22T07:15:51Z</time>
      </trkpt>
      <trkpt lat="43.57717" lon="3.36131">
        <ele>190.5</ele>
        <time>2015-11-22T07:15:52Z</time>
      </trkpt>
      <trkpt lat="43.57718" lon="3.36129">
        <ele>191.5</ele>
        <time>2015-11-22T07:15:53Z</time>
      </trkpt>
      <trkpt lat="43.5772" lon="3.36127">
        <ele>192.5</ele>
        <time>2015-11-22T07:15:54Z</time>
      </trkpt>
      <trkpt lat="43.57721" lon="3.36124">
        <ele>193</ele>
        <time>2015-11-22T07:15:55Z</time>
      </trkpt>
      <trkpt lat="43.57722" lon="3.36122">
        <ele>193</ele>
        <time>2015-11-22T07:15:56Z</time>
      </trkpt>
      <trkpt lat="43.57724" lon="3.36119">
        <ele>193</ele>
        <time>2015-11-22T07:15:57Z</time>
      </trkpt>
      <trkpt lat="43.57725" lon="3.36116">
        <ele>193</ele>
        <time>2015-11-22T07:15:58Z</time>
      </trkpt>
      <trkpt lat="43.57727" lon="3.36114">
        <ele>193</ele>
        <time>2015-11-22T07:15:59Z</time>
      </trkpt>
      <trkpt lat="43.57729" lon="3.36112">
        <ele>192.5</ele>
        <time>2015-11-22T07:16:00Z</time>
      </trkpt>
      <trkpt lat="43.5773" lon="3.3611">
        <ele>192.5</ele>
        <time>2015-11-22T07:16:01Z</time>
      </trkpt>
      <trkpt lat="43.57732" lon="3.36108">
        <ele>192.5</ele>
        <time>2015-11-22T07:16:02Z</time>
      </trkpt>
      <trkpt lat="43.57734" lon="3.36106">
        <ele>192.5</ele>
        <time>2015-11-22T07:16:03Z</time>
      </trkpt>
      <trkpt lat="43.57735" lon="3.36105">
        <ele>193</ele>
        <time>2015-11-22T07:16:04Z</time>
      </trkpt>
      <trkpt lat="43.57736" lon="3.36103">
        <ele>194</ele>
        <time>2015-11-22T07:16:05Z</time>
      </trkpt>
      <trkpt lat="43.57738" lon="3.36101">
        <ele>194</ele>
        <time>2015-11-22T07:16:06Z</time>
      </trkpt>
      <trkpt lat="43.57739" lon="3.361">
        <ele>194.5</ele>
        <time>2015-11-22T07:16:07Z</time>
      </trkpt>
      <trkpt lat="43.57741" lon="3.36099">
        <ele>193.5</ele>
        <time>2015-11-22T07:16:08Z</time>
      </trkpt>
      <trkpt lat="43.57742" lon="3.36098">
        <ele>192.5</ele>
        <time>2015-11-22T07:16:09Z</time>
      </trkpt>
      <trkpt lat="43.57744" lon="3.36097">
        <ele>192.5</ele>
        <time>2015-11-22T07:16:10Z</time>
      </trkpt>
      <trkpt lat="43.57743" lon="3.36094">
        <ele>194</ele>
        <time>2015-11-22T07:16:11Z</time>
      </trkpt>
      <trkpt lat="43.57745" lon="3.36095">
        <ele>194</ele>
        <time>2015-11-22T07:16:12Z</time>
      </trkpt>
      <trkpt lat="43.57748" lon="3.36096">
        <ele>194</ele>
        <time>2015-11-22T07:16:13Z</time>
      </trkpt>
      <trkpt lat="43.57753" lon="3.36097">
        <ele>193</ele>
        <time>2015-11-22T07:16:14Z</time>
      </trkpt>
      <trkpt lat="43.57757" lon="3.36098">
        <ele>193</ele>
        <time>2015-11-22T07:16:15Z</time>
      </trkpt>
      <trkpt lat="43.57761" lon="3.361">
        <ele>193</ele>
        <time>2015-11-22T07:16:16Z</time>
      </trkpt>
      <trkpt lat="43.57766" lon="3.361">
        <ele>192.5</ele>
        <time>2015-11-22T07:16:17Z</time>
      </trkpt>
      <trkpt lat="43.5777" lon="3.361">
        <ele>190.5</ele>
        <time>2015-11-22T07:16:18Z</time>
      </trkpt>
      <trkpt lat="43.57774" lon="3.36101">
        <ele>189</ele>
        <time>2015-11-22T07:16:19Z</time>
      </trkpt>
      <trkpt lat="43.57778" lon="3.36104">
        <ele>187</ele>
        <time>2015-11-22T07:16:20Z</time>
      </trkpt>
      <trkpt lat="43.57783" lon="3.36107">
        <ele>183.5</ele>
        <time>2015-11-22T07:16:22Z</time>
      </trkpt>
      <trkpt lat="43.57785" lon="3.36109">
        <ele>182.5</ele>
        <time>2015-11-22T07:16:23Z</time>
      </trkpt>
      <trkpt lat="43.57787" lon="3.36111">
        <ele>181</ele>
        <time>2015-11-22T07:16:24Z</time>
      </trkpt>
      <trkpt lat="43.57789" lon="3.36113">
        <ele>180</ele>
        <time>2015-11-22T07:16:25Z</time>
      </trkpt>
      <trkpt lat="43.57791" lon="3.36116">
        <ele>179</ele>
        <time>2015-11-22T07:16:26Z</time>
      </trkpt>
      <trkpt lat="43.57793" lon="3.36118">
        <ele>177.5</ele>
        <time>2015-11-22T07:16:27Z</time>
      </trkpt>
      <trkpt lat="43.57795" lon="3.3612">
        <ele>177.5</ele>
        <time>2015-11-22T07:16:28Z</time>
      </trkpt>
      <trkpt lat="43.57796" lon="3.36123">
        <ele>177</ele>
        <time>2015-11-22T07:16:29Z</time>
      </trkpt>
      <trkpt lat="43.57797" lon="3.36125">
        <ele>176</ele>
        <time>2015-11-22T07:16:30Z</time>
      </trkpt>
      <trkpt lat="43.57799" lon="3.36127">
        <ele>175</ele>
        <time>2015-11-22T07:16:31Z</time>
      </trkpt>
      <trkpt lat="43.57801" lon="3.36129">
        <ele>174.5</ele>
        <time>2015-11-22T07:16:32Z</time>
      </trkpt>
      <trkpt lat="43.57802" lon="3.36131">
        <ele>174.5</ele>
        <time>2015-11-22T07:16:33Z</time>
      </trkpt>
      <trkpt lat="43.57804" lon="3.36134">
        <ele>174.5</ele>
        <time>2015-11-22T07:16:34Z</time>
      </trkpt>
      <trkpt lat="43.57806" lon="3.36136">
        <ele>173</ele>
        <time>2015-11-22T07:16:35Z</time>
      </trkpt>
      <trkpt lat="43.57808" lon="3.36137">
        <ele>173.5</ele>
        <time>2015-11-22T07:16:36Z</time>
      </trkpt>
      <trkpt lat="43.57814" lon="3.36147">
        <ele>173.5</ele>
        <time>2015-11-22T07:16:38Z</time>
      </trkpt>
      <trkpt lat="43.57816" lon="3.3615">
        <ele>174</ele>
        <time>2015-11-22T07:16:39Z</time>
      </trkpt>
      <trkpt lat="43.57818" lon="3.36152">
        <ele>172.5</ele>
        <time>2015-11-22T07:16:40Z</time>
      </trkpt>
      <trkpt lat="43.5782" lon="3.36153">
        <ele>171</ele>
        <time>2015-11-22T07:16:41Z</time>
      </trkpt>
      <trkpt lat="43.57823" lon="3.36154">
        <ele>171</ele>
        <time>2015-11-22T07:16:42Z</time>
      </trkpt>
      <trkpt lat="43.57824" lon="3.36157">
        <ele>171.5</ele>
        <time>2015-11-22T07:16:43Z</time>
      </trkpt>
      <trkpt lat="43.57826" lon="3.3616">
        <ele>172</ele>
        <time>2015-11-22T07:16:44Z</time>
      </trkpt>
      <trkpt lat="43.57828" lon="3.36162">
        <ele>172</ele>
        <time>2015-11-22T07:16:45Z</time>
      </trkpt>
      <trkpt lat="43.5783" lon="3.36166">
        <ele>172.5</ele>
        <time>2015-11-22T07:16:46Z</time>
      </trkpt>
      <trkpt lat="43.57832" lon="3.36168">
        <ele>172.5</ele>
        <time>2015-11-22T07:16:47Z</time>
      </trkpt>
      <trkpt lat="43.57836" lon="3.36172">
        <ele>171.5</ele>
        <time>2015-11-22T07:16:49Z</time>
      </trkpt>
      <trkpt lat="43.57839" lon="3.36175">
        <ele>171</ele>
        <time>2015-11-22T07:16:50Z</time>
      </trkpt>
      <trkpt lat="43.57842" lon="3.36174">
        <ele>170.5</ele>
        <time>2015-11-22T07:16:51Z</time>
      </trkpt>
      <trkpt lat="43.57845" lon="3.36173">
        <ele>170.5</ele>
        <time>2015-11-22T07:16:52Z</time>
      </trkpt>
      <trkpt lat="43.57848" lon="3.36173">
        <ele>172</ele>
        <time>2015-11-22T07:16:53Z</time>
      </trkpt>
      <trkpt lat="43.5785" lon="3.36172">
        <ele>172.5</ele>
        <time>2015-11-22T07:16:54Z</time>
      </trkpt>
      <trkpt lat="43.57852" lon="3.36171">
        <ele>172.5</ele>
        <time>2015-11-22T07:16:55Z</time>
      </trkpt>
      <trkpt lat="43.57854" lon="3.36171">
        <ele>173</ele>
        <time>2015-11-22T07:16:56Z</time>
      </trkpt>
      <trkpt lat="43.57856" lon="3.36169">
        <ele>173.5</ele>
        <time>2015-11-22T07:16:57Z</time>
      </trkpt>
      <trkpt lat="43.57858" lon="3.36167">
        <ele>173</ele>
        <time>2015-11-22T07:16:58Z</time>
      </trkpt>
      <trkpt lat="43.57859" lon="3.36166">
        <ele>175</ele>
        <time>2015-11-22T07:16:59Z</time>
      </trkpt>
      <trkpt lat="43.57861" lon="3.36164">
        <ele>175.5</ele>
        <time>2015-11-22T07:17:00Z</time>
      </trkpt>
      <trkpt lat="43.57862" lon="3.36162">
        <ele>177</ele>
        <time>2015-11-22T07:17:01Z</time>
      </trkpt>
      <trkpt lat="43.57864" lon="3.3616">
        <ele>178</ele>
        <time>2015-11-22T07:17:02Z</time>
      </trkpt>
      <trkpt lat="43.57865" lon="3.36158">
        <ele>178</ele>
        <time>2015-11-22T07:17:03Z</time>
      </trkpt>
      <trkpt lat="43.57867" lon="3.36156">
        <ele>178.5</ele>
        <time>2015-11-22T07:17:04Z</time>
      </trkpt>
      <trkpt lat="43.57868" lon="3.36154">
        <ele>180</ele>
        <time>2015-11-22T07:17:05Z</time>
      </trkpt>
      <trkpt lat="43.5787" lon="3.36152">
        <ele>180</ele>
        <time>2015-11-22T07:17:06Z</time>
      </trkpt>
      <trkpt lat="43.57872" lon="3.36151">
        <ele>180.5</ele>
        <time>2015-11-22T07:17:07Z</time>
      </trkpt>
      <trkpt lat="43.57874" lon="3.3615">
        <ele>182</ele>
        <time>2015-11-22T07:17:08Z</time>
      </trkpt>
      <trkpt lat="43.57876" lon="3.3615">
        <ele>184</ele>
        <time>2015-11-22T07:17:09Z</time>
      </trkpt>
      <trkpt lat="43.57878" lon="3.3615">
        <ele>186</ele>
        <time>2015-11-22T07:17:10Z</time>
      </trkpt>
      <trkpt lat="43.57881" lon="3.36149">
        <ele>187</ele>
        <time>2015-11-22T07:17:11Z</time>
      </trkpt>
      <trkpt lat="43.57882" lon="3.36149">
        <ele>188</ele>
        <time>2015-11-22T07:17:12Z</time>
      </trkpt>
      <trkpt lat="43.57885" lon="3.36149">
        <ele>187.5</ele>
        <time>2015-11-22T07:17:13Z</time>
      </trkpt>
      <trkpt lat="43.57887" lon="3.36149">
        <ele>188</ele>
        <time>2015-11-22T07:17:14Z</time>
      </trkpt>
      <trkpt lat="43.57889" lon="3.36149">
        <ele>189</ele>
        <time>2015-11-22T07:17:15Z</time>
      </trkpt>
      <trkpt lat="43.57892" lon="3.36149">
        <ele>189.5</ele>
        <time>2015-11-22T07:17:16Z</time>
      </trkpt>
      <trkpt lat="43.57894" lon="3.36149">
        <ele>191</ele>
        <time>2015-11-22T07:17:17Z</time>
      </trkpt>
      <trkpt lat="43.57896" lon="3.36149">
        <ele>192</ele>
        <time>2015-11-22T07:17:18Z</time>
      </trkpt>
      <trkpt lat="43.57898" lon="3.36148">
        <ele>193</ele>
        <time>2015-11-22T07:17:19Z</time>
      </trkpt>
      <trkpt lat="43.57902" lon="3.36147">
        <ele>194</ele>
        <time>2015-11-22T07:17:21Z</time>
      </trkpt>
      <trkpt lat="43.57904" lon="3.36146">
        <ele>194</ele>
        <time>2015-11-22T07:17:22Z</time>
      </trkpt>
      <trkpt lat="43.57906" lon="3.36146">
        <ele>195.5</ele>
        <time>2015-11-22T07:17:23Z</time>
      </trkpt>
      <trkpt lat="43.57908" lon="3.36146">
        <ele>196</ele>
        <time>2015-11-22T07:17:24Z</time>
      </trkpt>
      <trkpt lat="43.5791" lon="3.36145">
        <ele>197</ele>
        <time>2015-11-22T07:17:25Z</time>
      </trkpt>
      <trkpt lat="43.57912" lon="3.36145">
        <ele>197.5</ele>
        <time>2015-11-22T07:17:26Z</time>
      </trkpt>
      <trkpt lat="43.57914" lon="3.36144">
        <ele>197.5</ele>
        <time>2015-11-22T07:17:27Z</time>
      </trkpt>
      <trkpt lat="43.57916" lon="3.36143">
        <ele>197</ele>
        <time>2015-11-22T07:17:28Z</time>
      </trkpt>
      <trkpt lat="43.57918" lon="3.36142">
        <ele>197</ele>
        <time>2015-11-22T07:17:29Z</time>
      </trkpt>
      <trkpt lat="43.57919" lon="3.3614">
        <ele>196.5</ele>
        <time>2015-11-22T07:17:30Z</time>
      </trkpt>
      <trkpt lat="43.57921" lon="3.36139">
        <ele>197.5</ele>
        <time>2015-11-22T07:17:31Z</time>
      </trkpt>
      <trkpt lat="43.57923" lon="3.36138">
        <ele>197.5</ele>
        <time>2015-11-22T07:17:32Z</time>
      </trkpt>
      <trkpt lat="43.57924" lon="3.36136">
        <ele>197.5</ele>
        <time>2015-11-22T07:17:33Z</time>
      </trkpt>
      <trkpt lat="43.57926" lon="3.36134">
        <ele>197.5</ele>
        <time>2015-11-22T07:17:34Z</time>
      </trkpt>
      <trkpt lat="43.57927" lon="3.36133">
        <ele>196.5</ele>
        <time>2015-11-22T07:17:35Z</time>
      </trkpt>
      <trkpt lat="43.57929" lon="3.3613">
        <ele>196</ele>
        <time>2015-11-22T07:17:36Z</time>
      </trkpt>
      <trkpt lat="43.57931" lon="3.36128">
        <ele>195</ele>
        <time>2015-11-22T07:17:37Z</time>
      </trkpt>
      <trkpt lat="43.57932" lon="3.36125">
        <ele>194</ele>
        <time>2015-11-22T07:17:38Z</time>
      </trkpt>
      <trkpt lat="43.57934" lon="3.36122">
        <ele>194</ele>
        <time>2015-11-22T07:17:39Z</time>
      </trkpt>
      <trkpt lat="43.57935" lon="3.3612">
        <ele>194</ele>
        <time>2015-11-22T07:17:40Z</time>
      </trkpt>
      <trkpt lat="43.57937" lon="3.36117">
        <ele>193</ele>
        <time>2015-11-22T07:17:41Z</time>
      </trkpt>
      <trkpt lat="43.57939" lon="3.36114">
        <ele>191.5</ele>
        <time>2015-11-22T07:17:42Z</time>
      </trkpt>
      <trkpt lat="43.5794" lon="3.36111">
        <ele>191</ele>
        <time>2015-11-22T07:17:43Z</time>
      </trkpt>
      <trkpt lat="43.57942" lon="3.36108">
        <ele>191</ele>
        <time>2015-11-22T07:17:44Z</time>
      </trkpt>
      <trkpt lat="43.57944" lon="3.36105">
        <ele>190.5</ele>
        <time>2015-11-22T07:17:45Z</time>
      </trkpt>
      <trkpt lat="43.57946" lon="3.36102">
        <ele>190.5</ele>
        <time>2015-11-22T07:17:46Z</time>
      </trkpt>
      <trkpt lat="43.57947" lon="3.36099">
        <ele>189.5</ele>
        <time>2015-11-22T07:17:47Z</time>
      </trkpt>
      <trkpt lat="43.57949" lon="3.36097">
        <ele>189.5</ele>
        <time>2015-11-22T07:17:48Z</time>
      </trkpt>
      <trkpt lat="43.57951" lon="3.36094">
        <ele>189</ele>
        <time>2015-11-22T07:17:49Z</time>
      </trkpt>
      <trkpt lat="43.57953" lon="3.36092">
        <ele>188.5</ele>
        <time>2015-11-22T07:17:50Z</time>
      </trkpt>
      <trkpt lat="43.57955" lon="3.36089">
        <ele>187.5</ele>
        <time>2015-11-22T07:17:51Z</time>
      </trkpt>
      <trkpt lat="43.57957" lon="3.36086">
        <ele>187</ele>
        <time>2015-11-22T07:17:52Z</time>
      </trkpt>
      <trkpt lat="43.57959" lon="3.36084">
        <ele>186</ele>
        <time>2015-11-22T07:17:53Z</time>
      </trkpt>
      <trkpt lat="43.57961" lon="3.36081">
        <ele>185.5</ele>
        <time>2015-11-22T07:17:54Z</time>
      </trkpt>
      <trkpt lat="43.57963" lon="3.36078">
        <ele>185</ele>
        <time>2015-11-22T07:17:55Z</time>
      </trkpt>
      <trkpt lat="43.57965" lon="3.36075">
        <ele>184.5</ele>
        <time>2015-11-22T07:17:56Z</time>
      </trkpt>
      <trkpt lat="43.57967" lon="3.36072">
        <ele>184</ele>
        <time>2015-11-22T07:17:57Z</time>
      </trkpt>
      <trkpt lat="43.57969" lon="3.36069">
        <ele>184.5</ele>
        <time>2015-11-22T07:17:58Z</time>
      </trkpt>
      <trkpt lat="43.57971" lon="3.36067">
        <ele>184</ele>
        <time>2015-11-22T07:17:59Z</time>
      </trkpt>
      <trkpt lat="43.57973" lon="3.36064">
        <ele>183.5</ele>
        <time>2015-11-22T07:18:00Z</time>
      </trkpt>
      <trkpt lat="43.57975" lon="3.36061">
        <ele>183.5</ele>
        <time>2015-11-22T07:18:01Z</time>
      </trkpt>
      <trkpt lat="43.57976" lon="3.36058">
        <ele>184</ele>
        <time>2015-11-22T07:18:02Z</time>
      </trkpt>
      <trkpt lat="43.57978" lon="3.36055">
        <ele>184.5</ele>
        <time>2015-11-22T07:18:03Z</time>
      </trkpt>
      <trkpt lat="43.5798" lon="3.36052">
        <ele>184</ele>
        <time>2015-11-22T07:18:04Z</time>
      </trkpt>
      <trkpt lat="43.57982" lon="3.36049">
        <ele>184</ele>
        <time>2015-11-22T07:18:05Z</time>
      </trkpt>
      <trkpt lat="43.57983" lon="3.36046">
        <ele>183.5</ele>
        <time>2015-11-22T07:18:06Z</time>
      </trkpt>
      <trkpt lat="43.57985" lon="3.36044">
        <ele>183.5</ele>
        <time>2015-11-22T07:18:07Z</time>
      </trkpt>
      <trkpt lat="43.57987" lon="3.36041">
        <ele>183.5</ele>
        <time>2015-11-22T07:18:07Z</time>
      </trkpt>
      <trkpt lat="43.57988" lon="3.36038">
        <ele>183.5</ele>
        <time>2015-11-22T07:18:08Z</time>
      </trkpt>
      <trkpt lat="43.5799" lon="3.36035">
        <ele>183</ele>
        <time>2015-11-22T07:18:09Z</time>
      </trkpt>
      <trkpt lat="43.57992" lon="3.36033">
        <ele>183.5</ele>
        <time>2015-11-22T07:18:10Z</time>
      </trkpt>
      <trkpt lat="43.57994" lon="3.3603">
        <ele>183</ele>
        <time>2015-11-22T07:18:12Z</time>
      </trkpt>
      <trkpt lat="43.57995" lon="3.36027">
        <ele>183.5</ele>
        <time>2015-11-22T07:18:12Z</time>
      </trkpt>
      <trkpt lat="43.57997" lon="3.36025">
        <ele>184</ele>
        <time>2015-11-22T07:18:14Z</time>
      </trkpt>
      <trkpt lat="43.57998" lon="3.36022">
        <ele>184</ele>
        <time>2015-11-22T07:18:14Z</time>
      </trkpt>
      <trkpt lat="43.58" lon="3.36019">
        <ele>184.5</ele>
        <time>2015-11-22T07:18:15Z</time>
      </trkpt>
      <trkpt lat="43.58001" lon="3.36016">
        <ele>185</ele>
        <time>2015-11-22T07:18:16Z</time>
      </trkpt>
      <trkpt lat="43.58003" lon="3.36013">
        <ele>186</ele>
        <time>2015-11-22T07:18:17Z</time>
      </trkpt>
      <trkpt lat="43.58005" lon="3.36011">
        <ele>186.5</ele>
        <time>2015-11-22T07:18:19Z</time>
      </trkpt>
      <trkpt lat="43.58006" lon="3.36009">
        <ele>188.5</ele>
        <time>2015-11-22T07:18:19Z</time>
      </trkpt>
      <trkpt lat="43.58007" lon="3.36006">
        <ele>189.5</ele>
        <time>2015-11-22T07:18:20Z</time>
      </trkpt>
      <trkpt lat="43.58008" lon="3.36003">
        <ele>190.5</ele>
        <time>2015-11-22T07:18:21Z</time>
      </trkpt>
      <trkpt lat="43.58009" lon="3.36001">
        <ele>190.5</ele>
        <time>2015-11-22T07:18:22Z</time>
      </trkpt>
      <trkpt lat="43.58011" lon="3.35999">
        <ele>191</ele>
        <time>2015-11-22T07:18:23Z</time>
      </trkpt>
      <trkpt lat="43.58012" lon="3.35996">
        <ele>191.5</ele>
        <time>2015-11-22T07:18:24Z</time>
      </trkpt>
      <trkpt lat="43.58014" lon="3.35993">
        <ele>192</ele>
        <time>2015-11-22T07:18:25Z</time>
      </trkpt>
      <trkpt lat="43.58016" lon="3.35991">
        <ele>192.5</ele>
        <time>2015-11-22T07:18:26Z</time>
      </trkpt>
      <trkpt lat="43.58017" lon="3.35988">
        <ele>193</ele>
        <time>2015-11-22T07:18:27Z</time>
      </trkpt>
      <trkpt lat="43.58019" lon="3.35986">
        <ele>193.5</ele>
        <time>2015-11-22T07:18:28Z</time>
      </trkpt>
      <trkpt lat="43.5802" lon="3.35984">
        <ele>195</ele>
        <time>2015-11-22T07:18:29Z</time>
      </trkpt>
      <trkpt lat="43.58021" lon="3.35982">
        <ele>195.5</ele>
        <time>2015-11-22T07:18:30Z</time>
      </trkpt>
      <trkpt lat="43.58022" lon="3.3598">
        <ele>196</ele>
        <time>2015-11-22T07:18:31Z</time>
      </trkpt>
      <trkpt lat="43.58023" lon="3.35977">
        <ele>197</ele>
        <time>2015-11-22T07:18:32Z</time>
      </trkpt>
      <trkpt lat="43.58025" lon="3.35975">
        <ele>197.5</ele>
        <time>2015-11-22T07:18:33Z</time>
      </trkpt>
      <trkpt lat="43.58026" lon="3.35973">
        <ele>198</ele>
        <time>2015-11-22T07:18:34Z</time>
      </trkpt>
      <trkpt lat="43.58027" lon="3.35971">
        <ele>199</ele>
        <time>2015-11-22T07:18:35Z</time>
      </trkpt>
      <trkpt lat="43.58028" lon="3.35969">
        <ele>200</ele>
        <time>2015-11-22T07:18:36Z</time>
      </trkpt>
      <trkpt lat="43.58029" lon="3.35967">
        <ele>202</ele>
        <time>2015-11-22T07:18:37Z</time>
      </trkpt>
      <trkpt lat="43.5803" lon="3.35965">
        <ele>201.5</ele>
        <time>2015-11-22T07:18:38Z</time>
      </trkpt>
      <trkpt lat="43.58031" lon="3.35963">
        <ele>201.5</ele>
        <time>2015-11-22T07:18:39Z</time>
      </trkpt>
      <trkpt lat="43.58033" lon="3.3596">
        <ele>201.5</ele>
        <time>2015-11-22T07:18:40Z</time>
      </trkpt>
      <trkpt lat="43.58034" lon="3.35958">
        <ele>202.5</ele>
        <time>2015-11-22T07:18:41Z</time>
      </trkpt>
      <trkpt lat="43.58035" lon="3.35956">
        <ele>202</ele>
        <time>2015-11-22T07:18:42Z</time>
      </trkpt>
      <trkpt lat="43.58037" lon="3.35953">
        <ele>201</ele>
        <time>2015-11-22T07:18:43Z</time>
      </trkpt>
      <trkpt lat="43.58038" lon="3.3595">
        <ele>201.5</ele>
        <time>2015-11-22T07:18:44Z</time>
      </trkpt>
      <trkpt lat="43.58039" lon="3.35948">
        <ele>201.5</ele>
        <time>2015-11-22T07:18:46Z</time>
      </trkpt>
      <trkpt lat="43.58041" lon="3.35946">
        <ele>202</ele>
        <time>2015-11-22T07:18:46Z</time>
      </trkpt>
      <trkpt lat="43.58042" lon="3.35943">
        <ele>202.5</ele>
        <time>2015-11-22T07:18:47Z</time>
      </trkpt>
      <trkpt lat="43.58043" lon="3.35941">
        <ele>203.5</ele>
        <time>2015-11-22T07:18:48Z</time>
      </trkpt>
      <trkpt lat="43.58044" lon="3.35939">
        <ele>204</ele>
        <time>2015-11-22T07:18:49Z</time>
      </trkpt>
      <trkpt lat="43.58045" lon="3.35936">
        <ele>205</ele>
        <time>2015-11-22T07:18:50Z</time>
      </trkpt>
      <trkpt lat="43.58045" lon="3.35934">
        <ele>206</ele>
        <time>2015-11-22T07:18:51Z</time>
      </trkpt>
      <trkpt lat="43.58047" lon="3.35931">
        <ele>204.5</ele>
        <time>2015-11-22T07:18:53Z</time>
      </trkpt>
      <trkpt lat="43.58048" lon="3.35929">
        <ele>205</ele>
        <time>2015-11-22T07:18:53Z</time>
      </trkpt>
      <trkpt lat="43.58049" lon="3.35927">
        <ele>205.5</ele>
        <time>2015-11-22T07:18:54Z</time>
      </trkpt>
      <trkpt lat="43.5805" lon="3.35924">
        <ele>206</ele>
        <time>2015-11-22T07:18:55Z</time>
      </trkpt>
      <trkpt lat="43.58051" lon="3.35922">
        <ele>206</ele>
        <time>2015-11-22T07:18:56Z</time>
      </trkpt>
      <trkpt lat="43.58052" lon="3.35919">
        <ele>206.5</ele>
        <time>2015-11-22T07:18:57Z</time>
      </trkpt>
      <trkpt lat="43.58053" lon="3.35917">
        <ele>207</ele>
        <time>2015-11-22T07:18:58Z</time>
      </trkpt>
      <trkpt lat="43.58054" lon="3.35915">
        <ele>206.5</ele>
        <time>2015-11-22T07:18:59Z</time>
      </trkpt>
      <trkpt lat="43.58055" lon="3.35912">
        <ele>207.5</ele>
        <time>2015-11-22T07:19:00Z</time>
      </trkpt>
      <trkpt lat="43.58056" lon="3.3591">
        <ele>208</ele>
        <time>2015-11-22T07:19:01Z</time>
      </trkpt>
      <trkpt lat="43.58057" lon="3.35908">
        <ele>208.5</ele>
        <time>2015-11-22T07:19:02Z</time>
      </trkpt>
      <trkpt lat="43.58058" lon="3.35906">
        <ele>209</ele>
        <time>2015-11-22T07:19:03Z</time>
      </trkpt>
      <trkpt lat="43.58059" lon="3.35904">
        <ele>209</ele>
        <time>2015-11-22T07:19:04Z</time>
      </trkpt>
      <trkpt lat="43.5806" lon="3.35901">
        <ele>209</ele>
        <time>2015-11-22T07:19:05Z</time>
      </trkpt>
      <trkpt lat="43.58061" lon="3.35899">
        <ele>209</ele>
        <time>2015-11-22T07:19:06Z</time>
      </trkpt>
      <trkpt lat="43.58062" lon="3.35898">
        <ele>209.5</ele>
        <time>2015-11-22T07:19:07Z</time>
      </trkpt>
      <trkpt lat="43.58063" lon="3.35896">
        <ele>209.5</ele>
        <time>2015-11-22T07:19:08Z</time>
      </trkpt>
      <trkpt lat="43.58064" lon="3.35893">
        <ele>210</ele>
        <time>2015-11-22T07:19:09Z</time>
      </trkpt>
      <trkpt lat="43.58065" lon="3.35891">
        <ele>211</ele>
        <time>2015-11-22T07:19:10Z</time>
      </trkpt>
      <trkpt lat="43.58066" lon="3.35889">
        <ele>210.5</ele>
        <time>2015-11-22T07:19:11Z</time>
      </trkpt>
      <trkpt lat="43.58067" lon="3.35887">
        <ele>210.5</ele>
        <time>2015-11-22T07:19:12Z</time>
      </trkpt>
      <trkpt lat="43.58068" lon="3.35885">
        <ele>210.5</ele>
        <time>2015-11-22T07:19:13Z</time>
      </trkpt>
      <trkpt lat="43.58069" lon="3.35883">
        <ele>210.5</ele>
        <time>2015-11-22T07:19:14Z</time>
      </trkpt>
      <trkpt lat="43.5807" lon="3.35879">
        <ele>208</ele>
        <time>2015-11-22T07:19:15Z</time>
      </trkpt>
      <trkpt lat="43.58071" lon="3.35877">
        <ele>208</ele>
        <time>2015-11-22T07:19:16Z</time>
      </trkpt>
      <trkpt lat="43.58072" lon="3.35873">
        <ele>204.5</ele>
        <time>2015-11-22T07:19:17Z</time>
      </trkpt>
      <trkpt lat="43.58073" lon="3.35871">
        <ele>205</ele>
        <time>2015-11-22T07:19:18Z</time>
      </trkpt>
      <trkpt lat="43.58074" lon="3.35867">
        <ele>203.5</ele>
        <time>2015-11-22T07:19:19Z</time>
      </trkpt>
      <trkpt lat="43.58075" lon="3.35864">
        <ele>202.5</ele>
        <time>2015-11-22T07:19:20Z</time>
      </trkpt>
      <trkpt lat="43.58077" lon="3.35862">
        <ele>201.5</ele>
        <time>2015-11-22T07:19:21Z</time>
      </trkpt>
      <trkpt lat="43.58078" lon="3.35859">
        <ele>200</ele>
        <time>2015-11-22T07:19:22Z</time>
      </trkpt>
      <trkpt lat="43.58079" lon="3.35857">
        <ele>199.5</ele>
        <time>2015-11-22T07:19:23Z</time>
      </trkpt>
      <trkpt lat="43.5808" lon="3.35854">
        <ele>199.5</ele>
        <time>2015-11-22T07:19:24Z</time>
      </trkpt>
      <trkpt lat="43.58081" lon="3.35852">
        <ele>199</ele>
        <time>2015-11-22T07:19:25Z</time>
      </trkpt>
      <trkpt lat="43.58082" lon="3.3585">
        <ele>200</ele>
        <time>2015-11-22T07:19:26Z</time>
      </trkpt>
      <trkpt lat="43.58082" lon="3.35847">
        <ele>201</ele>
        <time>2015-11-22T07:19:27Z</time>
      </trkpt>
      <trkpt lat="43.58083" lon="3.35845">
        <ele>201</ele>
        <time>2015-11-22T07:19:28Z</time>
      </trkpt>
      <trkpt lat="43.58084" lon="3.35843">
        <ele>200.5</ele>
        <time>2015-11-22T07:19:29Z</time>
      </trkpt>
      <trkpt lat="43.58085" lon="3.3584">
        <ele>200.5</ele>
        <time>2015-11-22T07:19:30Z</time>
      </trkpt>
      <trkpt lat="43.58085" lon="3.35839">
        <ele>201</ele>
        <time>2015-11-22T07:19:31Z</time>
      </trkpt>
      <trkpt lat="43.58088" lon="3.35833">
        <ele>202</ele>
        <time>2015-11-22T07:19:33Z</time>
      </trkpt>
      <trkpt lat="43.58089" lon="3.35831">
        <ele>203</ele>
        <time>2015-11-22T07:19:34Z</time>
      </trkpt>
      <trkpt lat="43.5809" lon="3.35829">
        <ele>203</ele>
        <time>2015-11-22T07:19:35Z</time>
      </trkpt>
      <trkpt lat="43.58092" lon="3.35827">
        <ele>203.5</ele>
        <time>2015-11-22T07:19:36Z</time>
      </trkpt>
      <trkpt lat="43.58093" lon="3.35825">
        <ele>204</ele>
        <time>2015-11-22T07:19:37Z</time>
      </trkpt>
      <trkpt lat="43.58094" lon="3.35823">
        <ele>204.5</ele>
        <time>2015-11-22T07:19:38Z</time>
      </trkpt>
      <trkpt lat="43.58095" lon="3.35821">
        <ele>206</ele>
        <time>2015-11-22T07:19:39Z</time>
      </trkpt>
      <trkpt lat="43.58096" lon="3.35818">
        <ele>205</ele>
        <time>2015-11-22T07:19:40Z</time>
      </trkpt>
      <trkpt lat="43.58097" lon="3.35815">
        <ele>204</ele>
        <time>2015-11-22T07:19:41Z</time>
      </trkpt>
      <trkpt lat="43.58098" lon="3.35812">
        <ele>202.5</ele>
        <time>2015-11-22T07:19:42Z</time>
      </trkpt>
      <trkpt lat="43.58099" lon="3.35809">
        <ele>201</ele>
        <time>2015-11-22T07:19:43Z</time>
      </trkpt>
      <trkpt lat="43.581" lon="3.35807">
        <ele>201</ele>
        <time>2015-11-22T07:19:44Z</time>
      </trkpt>
      <trkpt lat="43.58101" lon="3.35805">
        <ele>203</ele>
        <time>2015-11-22T07:19:45Z</time>
      </trkpt>
      <trkpt lat="43.58102" lon="3.35802">
        <ele>204</ele>
        <time>2015-11-22T07:19:46Z</time>
      </trkpt>
      <trkpt lat="43.58103" lon="3.358">
        <ele>204</ele>
        <time>2015-11-22T07:19:47Z</time>
      </trkpt>
      <trkpt lat="43.58104" lon="3.35797">
        <ele>205</ele>
        <time>2015-11-22T07:19:48Z</time>
      </trkpt>
      <trkpt lat="43.58105" lon="3.35795">
        <ele>205.5</ele>
        <time>2015-11-22T07:19:49Z</time>
      </trkpt>
      <trkpt lat="43.58106" lon="3.35792">
        <ele>206</ele>
        <time>2015-11-22T07:19:50Z</time>
      </trkpt>
      <trkpt lat="43.58107" lon="3.3579">
        <ele>208</ele>
        <time>2015-11-22T07:19:51Z</time>
      </trkpt>
      <trkpt lat="43.58108" lon="3.35787">
        <ele>208.5</ele>
        <time>2015-11-22T07:19:52Z</time>
      </trkpt>
      <trkpt lat="43.58108" lon="3.35784">
        <ele>209</ele>
        <time>2015-11-22T07:19:53Z</time>
      </trkpt>
      <trkpt lat="43.58109" lon="3.35782">
        <ele>210</ele>
        <time>2015-11-22T07:19:54Z</time>
      </trkpt>
      <trkpt lat="43.5811" lon="3.3578">
        <ele>211.5</ele>
        <time>2015-11-22T07:19:55Z</time>
      </trkpt>
      <trkpt lat="43.5811" lon="3.35777">
        <ele>212</ele>
        <time>2015-11-22T07:19:56Z</time>
      </trkpt>
      <trkpt lat="43.58112" lon="3.35775">
        <ele>212.5</ele>
        <time>2015-11-22T07:19:57Z</time>
      </trkpt>
      <trkpt lat="43.58113" lon="3.35773">
        <ele>212.5</ele>
        <time>2015-11-22T07:19:58Z</time>
      </trkpt>
      <trkpt lat="43.58112" lon="3.35772">
        <ele>213</ele>
        <time>2015-11-22T07:19:59Z</time>
      </trkpt>
      <trkpt lat="43.58112" lon="3.3577">
        <ele>213</ele>
        <time>2015-11-22T07:20:00Z</time>
      </trkpt>
      <trkpt lat="43.58113" lon="3.35767">
        <ele>215</ele>
        <time>2015-11-22T07:20:01Z</time>
      </trkpt>
      <trkpt lat="43.58113" lon="3.35766">
        <ele>215.5</ele>
        <time>2015-11-22T07:20:02Z</time>
      </trkpt>
      <trkpt lat="43.58114" lon="3.35763">
        <ele>216</ele>
        <time>2015-11-22T07:20:03Z</time>
      </trkpt>
      <trkpt lat="43.58114" lon="3.35761">
        <ele>217</ele>
        <time>2015-11-22T07:20:04Z</time>
      </trkpt>
      <trkpt lat="43.58115" lon="3.35758">
        <ele>217</ele>
        <time>2015-11-22T07:20:05Z</time>
      </trkpt>
      <trkpt lat="43.58116" lon="3.35756">
        <ele>218</ele>
        <time>2015-11-22T07:20:06Z</time>
      </trkpt>
      <trkpt lat="43.58116" lon="3.35754">
        <ele>219</ele>
        <time>2015-11-22T07:20:07Z</time>
      </trkpt>
      <trkpt lat="43.58119" lon="3.35745">
        <ele>213</ele>
        <time>2015-11-22T07:20:09Z</time>
      </trkpt>
      <trkpt lat="43.5812" lon="3.3574">
        <ele>215.5</ele>
        <time>2015-11-22T07:20:11Z</time>
      </trkpt>
      <trkpt lat="43.58121" lon="3.35737">
        <ele>216.5</ele>
        <time>2015-11-22T07:20:12Z</time>
      </trkpt>
      <trkpt lat="43.58121" lon="3.35734">
        <ele>217.5</ele>
        <time>2015-11-22T07:20:13Z</time>
      </trkpt>
      <trkpt lat="43.58122" lon="3.35732">
        <ele>218</ele>
        <time>2015-11-22T07:20:14Z</time>
      </trkpt>
      <trkpt lat="43.58124" lon="3.35723">
        <ele>216</ele>
        <time>2015-11-22T07:20:16Z</time>
      </trkpt>
      <trkpt lat="43.58126" lon="3.35719">
        <ele>217</ele>
        <time>2015-11-22T07:20:17Z</time>
      </trkpt>
      <trkpt lat="43.58127" lon="3.35716">
        <ele>217.5</ele>
        <time>2015-11-22T07:20:18Z</time>
      </trkpt>
      <trkpt lat="43.58128" lon="3.35712">
        <ele>218</ele>
        <time>2015-11-22T07:20:19Z</time>
      </trkpt>
      <trkpt lat="43.5813" lon="3.3571">
        <ele>218</ele>
        <time>2015-11-22T07:20:20Z</time>
      </trkpt>
      <trkpt lat="43.58132" lon="3.35707">
        <ele>218.5</ele>
        <time>2015-11-22T07:20:21Z</time>
      </trkpt>
      <trkpt lat="43.58134" lon="3.35704">
        <ele>219.5</ele>
        <time>2015-11-22T07:20:22Z</time>
      </trkpt>
      <trkpt lat="43.58135" lon="3.35701">
        <ele>219</ele>
        <time>2015-11-22T07:20:23Z</time>
      </trkpt>
      <trkpt lat="43.58137" lon="3.35697">
        <ele>219.5</ele>
        <time>2015-11-22T07:20:24Z</time>
      </trkpt>
      <trkpt lat="43.58139" lon="3.35693">
        <ele>219.5</ele>
        <time>2015-11-22T07:20:25Z</time>
      </trkpt>
      <trkpt lat="43.58141" lon="3.35688">
        <ele>215</ele>
        <time>2015-11-22T07:20:26Z</time>
      </trkpt>
      <trkpt lat="43.58144" lon="3.35683">
        <ele>211</ele>
        <time>2015-11-22T07:20:27Z</time>
      </trkpt>
      <trkpt lat="43.58145" lon="3.35678">
        <ele>207</ele>
        <time>2015-11-22T07:20:28Z</time>
      </trkpt>
      <trkpt lat="43.58147" lon="3.35674">
        <ele>205.5</ele>
        <time>2015-11-22T07:20:29Z</time>
      </trkpt>
      <trkpt lat="43.58149" lon="3.3567">
        <ele>204.5</ele>
        <time>2015-11-22T07:20:30Z</time>
      </trkpt>
      <trkpt lat="43.5815" lon="3.35667">
        <ele>205</ele>
        <time>2015-11-22T07:20:31Z</time>
      </trkpt>
      <trkpt lat="43.58153" lon="3.3566">
        <ele>203.5</ele>
        <time>2015-11-22T07:20:33Z</time>
      </trkpt>
      <trkpt lat="43.58155" lon="3.35657">
        <ele>204.5</ele>
        <time>2015-11-22T07:20:34Z</time>
      </trkpt>
      <trkpt lat="43.58156" lon="3.35654">
        <ele>204</ele>
        <time>2015-11-22T07:20:35Z</time>
      </trkpt>
      <trkpt lat="43.58158" lon="3.3565">
        <ele>205</ele>
        <time>2015-11-22T07:20:36Z</time>
      </trkpt>
      <trkpt lat="43.58159" lon="3.35646">
        <ele>205.5</ele>
        <time>2015-11-22T07:20:37Z</time>
      </trkpt>
      <trkpt lat="43.5816" lon="3.35641">
        <ele>205.5</ele>
        <time>2015-11-22T07:20:38Z</time>
      </trkpt>
      <trkpt lat="43.58162" lon="3.35637">
        <ele>206</ele>
        <time>2015-11-22T07:20:39Z</time>
      </trkpt>
      <trkpt lat="43.58163" lon="3.35632">
        <ele>206</ele>
        <time>2015-11-22T07:20:40Z</time>
      </trkpt>
      <trkpt lat="43.58164" lon="3.35628">
        <ele>206</ele>
        <time>2015-11-22T07:20:41Z</time>
      </trkpt>
      <trkpt lat="43.58166" lon="3.35619">
        <ele>206.5</ele>
        <time>2015-11-22T07:20:43Z</time>
      </trkpt>
      <trkpt lat="43.58168" lon="3.35615">
        <ele>206.5</ele>
        <time>2015-11-22T07:20:44Z</time>
      </trkpt>
      <trkpt lat="43.58169" lon="3.35612">
        <ele>206</ele>
        <time>2015-11-22T07:20:45Z</time>
      </trkpt>
      <trkpt lat="43.5817" lon="3.35607">
        <ele>206.5</ele>
        <time>2015-11-22T07:20:46Z</time>
      </trkpt>
      <trkpt lat="43.58171" lon="3.35603">
        <ele>205.5</ele>
        <time>2015-11-22T07:20:47Z</time>
      </trkpt>
      <trkpt lat="43.58171" lon="3.35598">
        <ele>205.5</ele>
        <time>2015-11-22T07:20:48Z</time>
      </trkpt>
      <trkpt lat="43.58171" lon="3.35593">
        <ele>204.5</ele>
        <time>2015-11-22T07:20:49Z</time>
      </trkpt>
      <trkpt lat="43.58172" lon="3.35588">
        <ele>204.5</ele>
        <time>2015-11-22T07:20:50Z</time>
      </trkpt>
      <trkpt lat="43.58171" lon="3.35584">
        <ele>204.5</ele>
        <time>2015-11-22T07:20:51Z</time>
      </trkpt>
      <trkpt lat="43.58171" lon="3.35578">
        <ele>204.5</ele>
        <time>2015-11-22T07:20:52Z</time>
      </trkpt>
      <trkpt lat="43.58172" lon="3.35572">
        <ele>204.5</ele>
        <time>2015-11-22T07:20:53Z</time>
      </trkpt>
      <trkpt lat="43.58173" lon="3.35567">
        <ele>206</ele>
        <time>2015-11-22T07:20:54Z</time>
      </trkpt>
      <trkpt lat="43.58174" lon="3.35561">
        <ele>207</ele>
        <time>2015-11-22T07:20:55Z</time>
      </trkpt>
      <trkpt lat="43.58174" lon="3.35555">
        <ele>209</ele>
        <time>2015-11-22T07:20:56Z</time>
      </trkpt>
      <trkpt lat="43.58175" lon="3.35549">
        <ele>209.5</ele>
        <time>2015-11-22T07:20:57Z</time>
      </trkpt>
      <trkpt lat="43.58177" lon="3.35542">
        <ele>210</ele>
        <time>2015-11-22T07:20:58Z</time>
      </trkpt>
      <trkpt lat="43.58177" lon="3.35535">
        <ele>210.5</ele>
        <time>2015-11-22T07:20:59Z</time>
      </trkpt>
      <trkpt lat="43.58178" lon="3.35528">
        <ele>212.5</ele>
        <time>2015-11-22T07:21:00Z</time>
      </trkpt>
      <trkpt lat="43.58179" lon="3.35521">
        <ele>213.5</ele>
        <time>2015-11-22T07:21:01Z</time>
      </trkpt>
      <trkpt lat="43.58179" lon="3.35514">
        <ele>215</ele>
        <time>2015-11-22T07:21:02Z</time>
      </trkpt>
      <trkpt lat="43.58181" lon="3.35508">
        <ele>215</ele>
        <time>2015-11-22T07:21:03Z</time>
      </trkpt>
      <trkpt lat="43.58182" lon="3.35503">
        <ele>214.5</ele>
        <time>2015-11-22T07:21:04Z</time>
      </trkpt>
      <trkpt lat="43.58184" lon="3.35499">
        <ele>214.5</ele>
        <time>2015-11-22T07:21:05Z</time>
      </trkpt>
      <trkpt lat="43.58186" lon="3.35495">
        <ele>214.5</ele>
        <time>2015-11-22T07:21:06Z</time>
      </trkpt>
      <trkpt lat="43.58189" lon="3.3549">
        <ele>214</ele>
        <time>2015-11-22T07:21:07Z</time>
      </trkpt>
      <trkpt lat="43.58191" lon="3.35487">
        <ele>215</ele>
        <time>2015-11-22T07:21:08Z</time>
      </trkpt>
      <trkpt lat="43.58192" lon="3.35482">
        <ele>214</ele>
        <time>2015-11-22T07:21:09Z</time>
      </trkpt>
      <trkpt lat="43.58194" lon="3.35477">
        <ele>212</ele>
        <time>2015-11-22T07:21:10Z</time>
      </trkpt>
      <trkpt lat="43.58195" lon="3.35471">
        <ele>213.5</ele>
        <time>2015-11-22T07:21:11Z</time>
      </trkpt>
      <trkpt lat="43.58195" lon="3.35466">
        <ele>214.5</ele>
        <time>2015-11-22T07:21:12Z</time>
      </trkpt>
      <trkpt lat="43.58195" lon="3.35461">
        <ele>215</ele>
        <time>2015-11-22T07:21:13Z</time>
      </trkpt>
      <trkpt lat="43.58195" lon="3.35457">
        <ele>215.5</ele>
        <time>2015-11-22T07:21:14Z</time>
      </trkpt>
      <trkpt lat="43.58195" lon="3.35452">
        <ele>216</ele>
        <time>2015-11-22T07:21:15Z</time>
      </trkpt>
      <trkpt lat="43.58194" lon="3.35448">
        <ele>217</ele>
        <time>2015-11-22T07:21:16Z</time>
      </trkpt>
      <trkpt lat="43.58193" lon="3.35444">
        <ele>217.5</ele>
        <time>2015-11-22T07:21:17Z</time>
      </trkpt>
      <trkpt lat="43.58192" lon="3.35439">
        <ele>217.5</ele>
        <time>2015-11-22T07:21:18Z</time>
      </trkpt>
      <trkpt lat="43.5819" lon="3.35434">
        <ele>218</ele>
        <time>2015-11-22T07:21:19Z</time>
      </trkpt>
      <trkpt lat="43.58189" lon="3.3543">
        <ele>218.5</ele>
        <time>2015-11-22T07:21:20Z</time>
      </trkpt>
      <trkpt lat="43.58187" lon="3.35427">
        <ele>219.5</ele>
        <time>2015-11-22T07:21:21Z</time>
      </trkpt>
      <trkpt lat="43.58185" lon="3.35423">
        <ele>220</ele>
        <time>2015-11-22T07:21:22Z</time>
      </trkpt>
      <trkpt lat="43.58184" lon="3.3542">
        <ele>221</ele>
        <time>2015-11-22T07:21:23Z</time>
      </trkpt>
      <trkpt lat="43.58182" lon="3.35417">
        <ele>222</ele>
        <time>2015-11-22T07:21:24Z</time>
      </trkpt>
      <trkpt lat="43.5818" lon="3.35414">
        <ele>224</ele>
        <time>2015-11-22T07:21:25Z</time>
      </trkpt>
      <trkpt lat="43.58179" lon="3.35411">
        <ele>225</ele>
        <time>2015-11-22T07:21:26Z</time>
      </trkpt>
      <trkpt lat="43.58178" lon="3.35408">
        <ele>225</ele>
        <time>2015-11-22T07:21:27Z</time>
      </trkpt>
      <trkpt lat="43.58177" lon="3.35405">
        <ele>226.5</ele>
        <time>2015-11-22T07:21:28Z</time>
      </trkpt>
      <trkpt lat="43.58176" lon="3.35401">
        <ele>226.5</ele>
        <time>2015-11-22T07:21:29Z</time>
      </trkpt>
      <trkpt lat="43.58175" lon="3.354">
        <ele>228.5</ele>
        <time>2015-11-22T07:21:30Z</time>
      </trkpt>
      <trkpt lat="43.58173" lon="3.35398">
        <ele>229.5</ele>
        <time>2015-11-22T07:21:31Z</time>
      </trkpt>
      <trkpt lat="43.58172" lon="3.35394">
        <ele>227.5</ele>
        <time>2015-11-22T07:21:32Z</time>
      </trkpt>
      <trkpt lat="43.58171" lon="3.35392">
        <ele>228.5</ele>
        <time>2015-11-22T07:21:33Z</time>
      </trkpt>
      <trkpt lat="43.58171" lon="3.35389">
        <ele>229</ele>
        <time>2015-11-22T07:21:34Z</time>
      </trkpt>
      <trkpt lat="43.5817" lon="3.35386">
        <ele>228.5</ele>
        <time>2015-11-22T07:21:35Z</time>
      </trkpt>
      <trkpt lat="43.5817" lon="3.35383">
        <ele>229</ele>
        <time>2015-11-22T07:21:36Z</time>
      </trkpt>
      <trkpt lat="43.5817" lon="3.3538">
        <ele>229</ele>
        <time>2015-11-22T07:21:37Z</time>
      </trkpt>
      <trkpt lat="43.58169" lon="3.35377">
        <ele>229</ele>
        <time>2015-11-22T07:21:38Z</time>
      </trkpt>
      <trkpt lat="43.58169" lon="3.35373">
        <ele>229</ele>
        <time>2015-11-22T07:21:39Z</time>
      </trkpt>
      <trkpt lat="43.58168" lon="3.35371">
        <ele>229</ele>
        <time>2015-11-22T07:21:40Z</time>
      </trkpt>
      <trkpt lat="43.58168" lon="3.35367">
        <ele>229.5</ele>
        <time>2015-11-22T07:21:41Z</time>
      </trkpt>
      <trkpt lat="43.58167" lon="3.35364">
        <ele>229.5</ele>
        <time>2015-11-22T07:21:42Z</time>
      </trkpt>
      <trkpt lat="43.58167" lon="3.35361">
        <ele>229</ele>
        <time>2015-11-22T07:21:43Z</time>
      </trkpt>
      <trkpt lat="43.58166" lon="3.35359">
        <ele>230</ele>
        <time>2015-11-22T07:21:44Z</time>
      </trkpt>
      <trkpt lat="43.58166" lon="3.35355">
        <ele>229.5</ele>
        <time>2015-11-22T07:21:45Z</time>
      </trkpt>
      <trkpt lat="43.58165" lon="3.35352">
        <ele>229.5</ele>
        <time>2015-11-22T07:21:46Z</time>
      </trkpt>
      <trkpt lat="43.58164" lon="3.35349">
        <ele>229.5</ele>
        <time>2015-11-22T07:21:47Z</time>
      </trkpt>
      <trkpt lat="43.58164" lon="3.35346">
        <ele>229.5</ele>
        <time>2015-11-22T07:21:48Z</time>
      </trkpt>
      <trkpt lat="43.58163" lon="3.35342">
        <ele>229.5</ele>
        <time>2015-11-22T07:21:49Z</time>
      </trkpt>
      <trkpt lat="43.58163" lon="3.35339">
        <ele>229.5</ele>
        <time>2015-11-22T07:21:50Z</time>
      </trkpt>
      <trkpt lat="43.58163" lon="3.35336">
        <ele>230</ele>
        <time>2015-11-22T07:21:51Z</time>
      </trkpt>
      <trkpt lat="43.58163" lon="3.35333">
        <ele>230.5</ele>
        <time>2015-11-22T07:21:52Z</time>
      </trkpt>
      <trkpt lat="43.58162" lon="3.35329">
        <ele>230.5</ele>
        <time>2015-11-22T07:21:53Z</time>
      </trkpt>
      <trkpt lat="43.58162" lon="3.35326">
        <ele>231</ele>
        <time>2015-11-22T07:21:53Z</time>
      </trkpt>
      <trkpt lat="43.58162" lon="3.35323">
        <ele>230.5</ele>
        <time>2015-11-22T07:21:55Z</time>
      </trkpt>
      <trkpt lat="43.58161" lon="3.35319">
        <ele>230.5</ele>
        <time>2015-11-22T07:21:55Z</time>
      </trkpt>
      <trkpt lat="43.58161" lon="3.35316">
        <ele>230.5</ele>
        <time>2015-11-22T07:21:56Z</time>
      </trkpt>
      <trkpt lat="43.5816" lon="3.35312">
        <ele>230.5</ele>
        <time>2015-11-22T07:21:57Z</time>
      </trkpt>
      <trkpt lat="43.5816" lon="3.35309">
        <ele>230.5</ele>
        <time>2015-11-22T07:21:58Z</time>
      </trkpt>
      <trkpt lat="43.58161" lon="3.35306">
        <ele>230.5</ele>
        <time>2015-11-22T07:21:59Z</time>
      </trkpt>
      <trkpt lat="43.58161" lon="3.35304">
        <ele>230.5</ele>
        <time>2015-11-22T07:22:00Z</time>
      </trkpt>
      <trkpt lat="43.5816" lon="3.35301">
        <ele>231</ele>
        <time>2015-11-22T07:22:01Z</time>
      </trkpt>
      <trkpt lat="43.5816" lon="3.35298">
        <ele>231.5</ele>
        <time>2015-11-22T07:22:02Z</time>
      </trkpt>
      <trkpt lat="43.58159" lon="3.35295">
        <ele>232</ele>
        <time>2015-11-22T07:22:03Z</time>
      </trkpt>
      <trkpt lat="43.58159" lon="3.35291">
        <ele>232</ele>
        <time>2015-11-22T07:22:04Z</time>
      </trkpt>
      <trkpt lat="43.58159" lon="3.35288">
        <ele>232</ele>
        <time>2015-11-22T07:22:05Z</time>
      </trkpt>
      <trkpt lat="43.58158" lon="3.35286">
        <ele>232.5</ele>
        <time>2015-11-22T07:22:06Z</time>
      </trkpt>
      <trkpt lat="43.58158" lon="3.35283">
        <ele>233</ele>
        <time>2015-11-22T07:22:07Z</time>
      </trkpt>
      <trkpt lat="43.58158" lon="3.35281">
        <ele>234</ele>
        <time>2015-11-22T07:22:08Z</time>
      </trkpt>
      <trkpt lat="43.58157" lon="3.35278">
        <ele>235</ele>
        <time>2015-11-22T07:22:09Z</time>
      </trkpt>
      <trkpt lat="43.58156" lon="3.35274">
        <ele>235.5</ele>
        <time>2015-11-22T07:22:10Z</time>
      </trkpt>
      <trkpt lat="43.58156" lon="3.35271">
        <ele>236.5</ele>
        <time>2015-11-22T07:22:11Z</time>
      </trkpt>
      <trkpt lat="43.58155" lon="3.35267">
        <ele>236</ele>
        <time>2015-11-22T07:22:12Z</time>
      </trkpt>
      <trkpt lat="43.58154" lon="3.35265">
        <ele>236.5</ele>
        <time>2015-11-22T07:22:13Z</time>
      </trkpt>
      <trkpt lat="43.58154" lon="3.35262">
        <ele>237</ele>
        <time>2015-11-22T07:22:14Z</time>
      </trkpt>
      <trkpt lat="43.58153" lon="3.35259">
        <ele>238</ele>
        <time>2015-11-22T07:22:15Z</time>
      </trkpt>
      <trkpt lat="43.58154" lon="3.35256">
        <ele>236</ele>
        <time>2015-11-22T07:22:16Z</time>
      </trkpt>
      <trkpt lat="43.58153" lon="3.35253">
        <ele>236</ele>
        <time>2015-11-22T07:22:17Z</time>
      </trkpt>
      <trkpt lat="43.58152" lon="3.35251">
        <ele>236.5</ele>
        <time>2015-11-22T07:22:18Z</time>
      </trkpt>
      <trkpt lat="43.58152" lon="3.35248">
        <ele>237</ele>
        <time>2015-11-22T07:22:19Z</time>
      </trkpt>
      <trkpt lat="43.58151" lon="3.35246">
        <ele>237</ele>
        <time>2015-11-22T07:22:20Z</time>
      </trkpt>
      <trkpt lat="43.58151" lon="3.35243">
        <ele>237</ele>
        <time>2015-11-22T07:22:21Z</time>
      </trkpt>
      <trkpt lat="43.5815" lon="3.3524">
        <ele>237.5</ele>
        <time>2015-11-22T07:22:22Z</time>
      </trkpt>
      <trkpt lat="43.5815" lon="3.35237">
        <ele>237.5</ele>
        <time>2015-11-22T07:22:23Z</time>
      </trkpt>
      <trkpt lat="43.58149" lon="3.35234">
        <ele>237.5</ele>
        <time>2015-11-22T07:22:24Z</time>
      </trkpt>
      <trkpt lat="43.58148" lon="3.35232">
        <ele>237.5</ele>
        <time>2015-11-22T07:22:25Z</time>
      </trkpt>
      <trkpt lat="43.58148" lon="3.35229">
        <ele>238</ele>
        <time>2015-11-22T07:22:26Z</time>
      </trkpt>
      <trkpt lat="43.58148" lon="3.35226">
        <ele>238.5</ele>
        <time>2015-11-22T07:22:27Z</time>
      </trkpt>
      <trkpt lat="43.58147" lon="3.35222">
        <ele>237.5</ele>
        <time>2015-11-22T07:22:28Z</time>
      </trkpt>
      <trkpt lat="43.58147" lon="3.35219">
        <ele>237</ele>
        <time>2015-11-22T07:22:29Z</time>
      </trkpt>
      <trkpt lat="43.58147" lon="3.35216">
        <ele>237</ele>
        <time>2015-11-22T07:22:30Z</time>
      </trkpt>
      <trkpt lat="43.58147" lon="3.35213">
        <ele>236</ele>
        <time>2015-11-22T07:22:31Z</time>
      </trkpt>
      <trkpt lat="43.58146" lon="3.3521">
        <ele>236.5</ele>
        <time>2015-11-22T07:22:32Z</time>
      </trkpt>
      <trkpt lat="43.58146" lon="3.35207">
        <ele>236</ele>
        <time>2015-11-22T07:22:33Z</time>
      </trkpt>
      <trkpt lat="43.58145" lon="3.35204">
        <ele>235.5</ele>
        <time>2015-11-22T07:22:34Z</time>
      </trkpt>
      <trkpt lat="43.58145" lon="3.35201">
        <ele>235.5</ele>
        <time>2015-11-22T07:22:35Z</time>
      </trkpt>
      <trkpt lat="43.58144" lon="3.35198">
        <ele>236</ele>
        <time>2015-11-22T07:22:36Z</time>
      </trkpt>
      <trkpt lat="43.58144" lon="3.35195">
        <ele>236.5</ele>
        <time>2015-11-22T07:22:37Z</time>
      </trkpt>
      <trkpt lat="43.58143" lon="3.35192">
        <ele>237</ele>
        <time>2015-11-22T07:22:38Z</time>
      </trkpt>
      <trkpt lat="43.58143" lon="3.35189">
        <ele>237.5</ele>
        <time>2015-11-22T07:22:39Z</time>
      </trkpt>
      <trkpt lat="43.58142" lon="3.35187">
        <ele>237.5</ele>
        <time>2015-11-22T07:22:40Z</time>
      </trkpt>
      <trkpt lat="43.58141" lon="3.35184">
        <ele>238.5</ele>
        <time>2015-11-22T07:22:41Z</time>
      </trkpt>
      <trkpt lat="43.58141" lon="3.35181">
        <ele>239</ele>
        <time>2015-11-22T07:22:42Z</time>
      </trkpt>
      <trkpt lat="43.5814" lon="3.35178">
        <ele>239.5</ele>
        <time>2015-11-22T07:22:43Z</time>
      </trkpt>
      <trkpt lat="43.58139" lon="3.35176">
        <ele>239.5</ele>
        <time>2015-11-22T07:22:44Z</time>
      </trkpt>
      <trkpt lat="43.58139" lon="3.35173">
        <ele>238.5</ele>
        <time>2015-11-22T07:22:45Z</time>
      </trkpt>
      <trkpt lat="43.58139" lon="3.3517">
        <ele>239.5</ele>
        <time>2015-11-22T07:22:46Z</time>
      </trkpt>
      <trkpt lat="43.58138" lon="3.35166">
        <ele>240</ele>
        <time>2015-11-22T07:22:47Z</time>
      </trkpt>
      <trkpt lat="43.58138" lon="3.35163">
        <ele>240.5</ele>
        <time>2015-11-22T07:22:48Z</time>
      </trkpt>
      <trkpt lat="43.58137" lon="3.3516">
        <ele>241</ele>
        <time>2015-11-22T07:22:49Z</time>
      </trkpt>
      <trkpt lat="43.58137" lon="3.35157">
        <ele>242</ele>
        <time>2015-11-22T07:22:50Z</time>
      </trkpt>
      <trkpt lat="43.58136" lon="3.35154">
        <ele>243</ele>
        <time>2015-11-22T07:22:51Z</time>
      </trkpt>
      <trkpt lat="43.58135" lon="3.3515">
        <ele>243.5</ele>
        <time>2015-11-22T07:22:52Z</time>
      </trkpt>
      <trkpt lat="43.58136" lon="3.35145">
        <ele>244</ele>
        <time>2015-11-22T07:22:53Z</time>
      </trkpt>
      <trkpt lat="43.58135" lon="3.35141">
        <ele>244</ele>
        <time>2015-11-22T07:22:54Z</time>
      </trkpt>
      <trkpt lat="43.58135" lon="3.35137">
        <ele>243.5</ele>
        <time>2015-11-22T07:22:55Z</time>
      </trkpt>
      <trkpt lat="43.58135" lon="3.35135">
        <ele>244</ele>
        <time>2015-11-22T07:22:56Z</time>
      </trkpt>
      <trkpt lat="43.58134" lon="3.35132">
        <ele>243.5</ele>
        <time>2015-11-22T07:22:57Z</time>
      </trkpt>
      <trkpt lat="43.58134" lon="3.35129">
        <ele>243</ele>
        <time>2015-11-22T07:22:58Z</time>
      </trkpt>
      <trkpt lat="43.58134" lon="3.35126">
        <ele>243</ele>
        <time>2015-11-22T07:22:59Z</time>
      </trkpt>
      <trkpt lat="43.58133" lon="3.35124">
        <ele>243</ele>
        <time>2015-11-22T07:23:00Z</time>
      </trkpt>
      <trkpt lat="43.58133" lon="3.35122">
        <ele>243</ele>
        <time>2015-11-22T07:23:01Z</time>
      </trkpt>
      <trkpt lat="43.58132" lon="3.35119">
        <ele>243</ele>
        <time>2015-11-22T07:23:02Z</time>
      </trkpt>
      <trkpt lat="43.58131" lon="3.35116">
        <ele>243</ele>
        <time>2015-11-22T07:23:03Z</time>
      </trkpt>
      <trkpt lat="43.58131" lon="3.35113">
        <ele>243.5</ele>
        <time>2015-11-22T07:23:04Z</time>
      </trkpt>
      <trkpt lat="43.58131" lon="3.35111">
        <ele>243</ele>
        <time>2015-11-22T07:23:05Z</time>
      </trkpt>
      <trkpt lat="43.5813" lon="3.35108">
        <ele>243.5</ele>
        <time>2015-11-22T07:23:06Z</time>
      </trkpt>
      <trkpt lat="43.5813" lon="3.35106">
        <ele>243</ele>
        <time>2015-11-22T07:23:07Z</time>
      </trkpt>
      <trkpt lat="43.5813" lon="3.35103">
        <ele>243</ele>
        <time>2015-11-22T07:23:08Z</time>
      </trkpt>
      <trkpt lat="43.58129" lon="3.351">
        <ele>243</ele>
        <time>2015-11-22T07:23:09Z</time>
      </trkpt>
      <trkpt lat="43.58129" lon="3.35096">
        <ele>244</ele>
        <time>2015-11-22T07:23:10Z</time>
      </trkpt>
      <trkpt lat="43.58129" lon="3.35093">
        <ele>244</ele>
        <time>2015-11-22T07:23:11Z</time>
      </trkpt>
      <trkpt lat="43.58128" lon="3.3509">
        <ele>244.5</ele>
        <time>2015-11-22T07:23:12Z</time>
      </trkpt>
      <trkpt lat="43.58128" lon="3.35087">
        <ele>244</ele>
        <time>2015-11-22T07:23:13Z</time>
      </trkpt>
      <trkpt lat="43.58128" lon="3.35084">
        <ele>243</ele>
        <time>2015-11-22T07:23:14Z</time>
      </trkpt>
      <trkpt lat="43.58127" lon="3.35082">
        <ele>242.5</ele>
        <time>2015-11-22T07:23:15Z</time>
      </trkpt>
      <trkpt lat="43.58127" lon="3.35079">
        <ele>242.5</ele>
        <time>2015-11-22T07:23:16Z</time>
      </trkpt>
      <trkpt lat="43.58127" lon="3.35076">
        <ele>242</ele>
        <time>2015-11-22T07:23:17Z</time>
      </trkpt>
      <trkpt lat="43.58127" lon="3.35073">
        <ele>242</ele>
        <time>2015-11-22T07:23:18Z</time>
      </trkpt>
      <trkpt lat="43.58127" lon="3.35071">
        <ele>242</ele>
        <time>2015-11-22T07:23:19Z</time>
      </trkpt>
      <trkpt lat="43.58126" lon="3.35068">
        <ele>242</ele>
        <time>2015-11-22T07:23:20Z</time>
      </trkpt>
      <trkpt lat="43.58126" lon="3.35065">
        <ele>242</ele>
        <time>2015-11-22T07:23:21Z</time>
      </trkpt>
      <trkpt lat="43.58126" lon="3.35062">
        <ele>242</ele>
        <time>2015-11-22T07:23:22Z</time>
      </trkpt>
      <trkpt lat="43.58126" lon="3.3506">
        <ele>242.5</ele>
        <time>2015-11-22T07:23:23Z</time>
      </trkpt>
      <trkpt lat="43.58126" lon="3.35056">
        <ele>242</ele>
        <time>2015-11-22T07:23:24Z</time>
      </trkpt>
      <trkpt lat="43.58126" lon="3.35053">
        <ele>241.5</ele>
        <time>2015-11-22T07:23:25Z</time>
      </trkpt>
      <trkpt lat="43.58126" lon="3.3505">
        <ele>240</ele>
        <time>2015-11-22T07:23:26Z</time>
      </trkpt>
      <trkpt lat="43.58127" lon="3.35047">
        <ele>238</ele>
        <time>2015-11-22T07:23:27Z</time>
      </trkpt>
      <trkpt lat="43.58126" lon="3.35044">
        <ele>238.5</ele>
        <time>2015-11-22T07:23:28Z</time>
      </trkpt>
      <trkpt lat="43.58127" lon="3.35041">
        <ele>237.5</ele>
        <time>2015-11-22T07:23:29Z</time>
      </trkpt>
      <trkpt lat="43.58127" lon="3.35039">
        <ele>238</ele>
        <time>2015-11-22T07:23:30Z</time>
      </trkpt>
      <trkpt lat="43.58126" lon="3.35036">
        <ele>238</ele>
        <time>2015-11-22T07:23:31Z</time>
      </trkpt>
      <trkpt lat="43.58126" lon="3.35034">
        <ele>238</ele>
        <time>2015-11-22T07:23:32Z</time>
      </trkpt>
      <trkpt lat="43.58126" lon="3.35033">
        <ele>238.5</ele>
        <time>2015-11-22T07:23:33Z</time>
      </trkpt>
      <trkpt lat="43.58126" lon="3.3503">
        <ele>238</ele>
        <time>2015-11-22T07:23:34Z</time>
      </trkpt>
      <trkpt lat="43.58126" lon="3.35028">
        <ele>238.5</ele>
        <time>2015-11-22T07:23:35Z</time>
      </trkpt>
      <trkpt lat="43.58125" lon="3.35028">
        <ele>240</ele>
        <time>2015-11-22T07:23:36Z</time>
      </trkpt>
      <trkpt lat="43.58125" lon="3.35026">
        <ele>241.5</ele>
        <time>2015-11-22T07:23:37Z</time>
      </trkpt>
      <trkpt lat="43.58125" lon="3.35024">
        <ele>241.5</ele>
        <time>2015-11-22T07:23:38Z</time>
      </trkpt>
      <trkpt lat="43.58124" lon="3.35021">
        <ele>242</ele>
        <time>2015-11-22T07:23:39Z</time>
      </trkpt>
      <trkpt lat="43.58124" lon="3.35019">
        <ele>242</ele>
        <time>2015-11-22T07:23:40Z</time>
      </trkpt>
      <trkpt lat="43.58124" lon="3.35017">
        <ele>241.5</ele>
        <time>2015-11-22T07:23:41Z</time>
      </trkpt>
      <trkpt lat="43.58124" lon="3.35015">
        <ele>241.5</ele>
        <time>2015-11-22T07:23:42Z</time>
      </trkpt>
      <trkpt lat="43.58124" lon="3.35013">
        <ele>241.5</ele>
        <time>2015-11-22T07:23:43Z</time>
      </trkpt>
      <trkpt lat="43.58124" lon="3.3501">
        <ele>241.5</ele>
        <time>2015-11-22T07:23:44Z</time>
      </trkpt>
      <trkpt lat="43.58124" lon="3.35008">
        <ele>241.5</ele>
        <time>2015-11-22T07:23:45Z</time>
      </trkpt>
      <trkpt lat="43.58123" lon="3.35006">
        <ele>241.5</ele>
        <time>2015-11-22T07:23:46Z</time>
      </trkpt>
      <trkpt lat="43.58123" lon="3.35003">
        <ele>242</ele>
        <time>2015-11-22T07:23:47Z</time>
      </trkpt>
      <trkpt lat="43.58123" lon="3.35001">
        <ele>242.5</ele>
        <time>2015-11-22T07:23:48Z</time>
      </trkpt>
      <trkpt lat="43.58123" lon="3.34998">
        <ele>242.5</ele>
        <time>2015-11-22T07:23:49Z</time>
      </trkpt>
      <trkpt lat="43.58123" lon="3.34996">
        <ele>242.5</ele>
        <time>2015-11-22T07:23:50Z</time>
      </trkpt>
      <trkpt lat="43.58123" lon="3.34993">
        <ele>243</ele>
        <time>2015-11-22T07:23:51Z</time>
      </trkpt>
      <trkpt lat="43.58123" lon="3.34991">
        <ele>244</ele>
        <time>2015-11-22T07:23:52Z</time>
      </trkpt>
      <trkpt lat="43.58123" lon="3.34983">
        <ele>242</ele>
        <time>2015-11-22T07:23:54Z</time>
      </trkpt>
      <trkpt lat="43.58123" lon="3.3498">
        <ele>243.5</ele>
        <time>2015-11-22T07:23:55Z</time>
      </trkpt>
      <trkpt lat="43.58123" lon="3.34977">
        <ele>243.5</ele>
        <time>2015-11-22T07:23:56Z</time>
      </trkpt>
      <trkpt lat="43.58123" lon="3.34975">
        <ele>244</ele>
        <time>2015-11-22T07:23:57Z</time>
      </trkpt>
      <trkpt lat="43.58124" lon="3.34972">
        <ele>243</ele>
        <time>2015-11-22T07:23:58Z</time>
      </trkpt>
      <trkpt lat="43.58124" lon="3.3497">
        <ele>243</ele>
        <time>2015-11-22T07:23:59Z</time>
      </trkpt>
      <trkpt lat="43.58123" lon="3.34968">
        <ele>244</ele>
        <time>2015-11-22T07:24:00Z</time>
      </trkpt>
      <trkpt lat="43.58123" lon="3.34966">
        <ele>244.5</ele>
        <time>2015-11-22T07:24:01Z</time>
      </trkpt>
      <trkpt lat="43.58124" lon="3.34965">
        <ele>245</ele>
        <time>2015-11-22T07:24:02Z</time>
      </trkpt>
      <trkpt lat="43.58123" lon="3.34963">
        <ele>245</ele>
        <time>2015-11-22T07:24:03Z</time>
      </trkpt>
      <trkpt lat="43.58123" lon="3.3496">
        <ele>245</ele>
        <time>2015-11-22T07:24:04Z</time>
      </trkpt>
      <trkpt lat="43.58123" lon="3.34957">
        <ele>243.5</ele>
        <time>2015-11-22T07:24:05Z</time>
      </trkpt>
      <trkpt lat="43.58122" lon="3.34955">
        <ele>244.5</ele>
        <time>2015-11-22T07:24:06Z</time>
      </trkpt>
      <trkpt lat="43.58122" lon="3.34953">
        <ele>245</ele>
        <time>2015-11-22T07:24:07Z</time>
      </trkpt>
      <trkpt lat="43.58121" lon="3.34951">
        <ele>246.5</ele>
        <time>2015-11-22T07:24:08Z</time>
      </trkpt>
      <trkpt lat="43.58121" lon="3.3495">
        <ele>246</ele>
        <time>2015-11-22T07:24:09Z</time>
      </trkpt>
      <trkpt lat="43.58121" lon="3.34947">
        <ele>246</ele>
        <time>2015-11-22T07:24:10Z</time>
      </trkpt>
      <trkpt lat="43.58121" lon="3.34946">
        <ele>246.5</ele>
        <time>2015-11-22T07:24:11Z</time>
      </trkpt>
      <trkpt lat="43.5812" lon="3.34944">
        <ele>246.5</ele>
        <time>2015-11-22T07:24:12Z</time>
      </trkpt>
      <trkpt lat="43.58119" lon="3.34942">
        <ele>249</ele>
        <time>2015-11-22T07:24:13Z</time>
      </trkpt>
      <trkpt lat="43.58118" lon="3.34938">
        <ele>251</ele>
        <time>2015-11-22T07:24:14Z</time>
      </trkpt>
      <trkpt lat="43.58118" lon="3.34936">
        <ele>252</ele>
        <time>2015-11-22T07:24:15Z</time>
      </trkpt>
      <trkpt lat="43.58118" lon="3.34934">
        <ele>252.5</ele>
        <time>2015-11-22T07:24:16Z</time>
      </trkpt>
      <trkpt lat="43.58118" lon="3.34932">
        <ele>253</ele>
        <time>2015-11-22T07:24:17Z</time>
      </trkpt>
      <trkpt lat="43.58117" lon="3.3493">
        <ele>254.5</ele>
        <time>2015-11-22T07:24:18Z</time>
      </trkpt>
      <trkpt lat="43.58116" lon="3.34928">
        <ele>255.5</ele>
        <time>2015-11-22T07:24:19Z</time>
      </trkpt>
      <trkpt lat="43.58116" lon="3.34926">
        <ele>255.5</ele>
        <time>2015-11-22T07:24:20Z</time>
      </trkpt>
      <trkpt lat="43.58115" lon="3.34924">
        <ele>256.5</ele>
        <time>2015-11-22T07:24:21Z</time>
      </trkpt>
      <trkpt lat="43.58115" lon="3.34922">
        <ele>257</ele>
        <time>2015-11-22T07:24:22Z</time>
      </trkpt>
      <trkpt lat="43.58115" lon="3.34919">
        <ele>256</ele>
        <time>2015-11-22T07:24:23Z</time>
      </trkpt>
      <trkpt lat="43.58115" lon="3.34916">
        <ele>256.5</ele>
        <time>2015-11-22T07:24:24Z</time>
      </trkpt>
      <trkpt lat="43.58114" lon="3.34913">
        <ele>257.5</ele>
        <time>2015-11-22T07:24:25Z</time>
      </trkpt>
      <trkpt lat="43.58114" lon="3.34911">
        <ele>258</ele>
        <time>2015-11-22T07:24:26Z</time>
      </trkpt>
      <trkpt lat="43.58114" lon="3.34909">
        <ele>258.5</ele>
        <time>2015-11-22T07:24:27Z</time>
      </trkpt>
      <trkpt lat="43.58114" lon="3.34906">
        <ele>259</ele>
        <time>2015-11-22T07:24:28Z</time>
      </trkpt>
      <trkpt lat="43.58114" lon="3.34903">
        <ele>259.5</ele>
        <time>2015-11-22T07:24:29Z</time>
      </trkpt>
      <trkpt lat="43.58113" lon="3.34901">
        <ele>259.5</ele>
        <time>2015-11-22T07:24:30Z</time>
      </trkpt>
      <trkpt lat="43.58113" lon="3.34898">
        <ele>260.5</ele>
        <time>2015-11-22T07:24:31Z</time>
      </trkpt>
      <trkpt lat="43.58112" lon="3.34896">
        <ele>261.5</ele>
        <time>2015-11-22T07:24:32Z</time>
      </trkpt>
      <trkpt lat="43.58112" lon="3.34894">
        <ele>263</ele>
        <time>2015-11-22T07:24:33Z</time>
      </trkpt>
      <trkpt lat="43.58111" lon="3.34892">
        <ele>263.5</ele>
        <time>2015-11-22T07:24:34Z</time>
      </trkpt>
      <trkpt lat="43.58111" lon="3.3489">
        <ele>263.5</ele>
        <time>2015-11-22T07:24:35Z</time>
      </trkpt>
      <trkpt lat="43.58111" lon="3.34887">
        <ele>263</ele>
        <time>2015-11-22T07:24:36Z</time>
      </trkpt>
      <trkpt lat="43.58112" lon="3.34884">
        <ele>262.5</ele>
        <time>2015-11-22T07:24:37Z</time>
      </trkpt>
      <trkpt lat="43.58111" lon="3.34881">
        <ele>263</ele>
        <time>2015-11-22T07:24:38Z</time>
      </trkpt>
      <trkpt lat="43.58111" lon="3.34878">
        <ele>263.5</ele>
        <time>2015-11-22T07:24:39Z</time>
      </trkpt>
      <trkpt lat="43.58111" lon="3.34875">
        <ele>263</ele>
        <time>2015-11-22T07:24:40Z</time>
      </trkpt>
      <trkpt lat="43.5811" lon="3.34872">
        <ele>263</ele>
        <time>2015-11-22T07:24:41Z</time>
      </trkpt>
      <trkpt lat="43.58111" lon="3.34868">
        <ele>263.5</ele>
        <time>2015-11-22T07:24:42Z</time>
      </trkpt>
      <trkpt lat="43.58111" lon="3.34865">
        <ele>264</ele>
        <time>2015-11-22T07:24:43Z</time>
      </trkpt>
      <trkpt lat="43.58111" lon="3.34863">
        <ele>264</ele>
        <time>2015-11-22T07:24:44Z</time>
      </trkpt>
      <trkpt lat="43.58111" lon="3.3486">
        <ele>263.5</ele>
        <time>2015-11-22T07:24:45Z</time>
      </trkpt>
      <trkpt lat="43.58111" lon="3.34858">
        <ele>264.5</ele>
        <time>2015-11-22T07:24:46Z</time>
      </trkpt>
      <trkpt lat="43.5811" lon="3.34856">
        <ele>265.5</ele>
        <time>2015-11-22T07:24:47Z</time>
      </trkpt>
      <trkpt lat="43.5811" lon="3.34854">
        <ele>266</ele>
        <time>2015-11-22T07:24:48Z</time>
      </trkpt>
      <trkpt lat="43.58109" lon="3.34852">
        <ele>267.5</ele>
        <time>2015-11-22T07:24:49Z</time>
      </trkpt>
      <trkpt lat="43.58108" lon="3.34849">
        <ele>267.5</ele>
        <time>2015-11-22T07:24:50Z</time>
      </trkpt>
      <trkpt lat="43.58107" lon="3.34846">
        <ele>267.5</ele>
        <time>2015-11-22T07:24:51Z</time>
      </trkpt>
      <trkpt lat="43.58107" lon="3.34844">
        <ele>268.5</ele>
        <time>2015-11-22T07:24:52Z</time>
      </trkpt>
      <trkpt lat="43.58106" lon="3.34842">
        <ele>268.5</ele>
        <time>2015-11-22T07:24:53Z</time>
      </trkpt>
      <trkpt lat="43.58105" lon="3.3484">
        <ele>269</ele>
        <time>2015-11-22T07:24:54Z</time>
      </trkpt>
      <trkpt lat="43.58104" lon="3.34838">
        <ele>270</ele>
        <time>2015-11-22T07:24:55Z</time>
      </trkpt>
      <trkpt lat="43.58103" lon="3.34836">
        <ele>271</ele>
        <time>2015-11-22T07:24:56Z</time>
      </trkpt>
      <trkpt lat="43.58102" lon="3.34834">
        <ele>272.5</ele>
        <time>2015-11-22T07:24:57Z</time>
      </trkpt>
      <trkpt lat="43.58101" lon="3.34832">
        <ele>272.5</ele>
        <time>2015-11-22T07:24:58Z</time>
      </trkpt>
      <trkpt lat="43.581" lon="3.34831">
        <ele>273</ele>
        <time>2015-11-22T07:24:59Z</time>
      </trkpt>
      <trkpt lat="43.58099" lon="3.34829">
        <ele>274</ele>
        <time>2015-11-22T07:25:00Z</time>
      </trkpt>
      <trkpt lat="43.58098" lon="3.34828">
        <ele>274</ele>
        <time>2015-11-22T07:25:01Z</time>
      </trkpt>
      <trkpt lat="43.58097" lon="3.34826">
        <ele>274.5</ele>
        <time>2015-11-22T07:25:02Z</time>
      </trkpt>
      <trkpt lat="43.58096" lon="3.34824">
        <ele>274.5</ele>
        <time>2015-11-22T07:25:03Z</time>
      </trkpt>
      <trkpt lat="43.58096" lon="3.34822">
        <ele>274.5</ele>
        <time>2015-11-22T07:25:04Z</time>
      </trkpt>
      <trkpt lat="43.58094" lon="3.3482">
        <ele>274.5</ele>
        <time>2015-11-22T07:25:05Z</time>
      </trkpt>
      <trkpt lat="43.58093" lon="3.34818">
        <ele>274.5</ele>
        <time>2015-11-22T07:25:06Z</time>
      </trkpt>
      <trkpt lat="43.58092" lon="3.34817">
        <ele>275.5</ele>
        <time>2015-11-22T07:25:07Z</time>
      </trkpt>
      <trkpt lat="43.58091" lon="3.34816">
        <ele>276.5</ele>
        <time>2015-11-22T07:25:07Z</time>
      </trkpt>
      <trkpt lat="43.58091" lon="3.34815">
        <ele>277</ele>
        <time>2015-11-22T07:25:08Z</time>
      </trkpt>
      <trkpt lat="43.5809" lon="3.34812">
        <ele>276.5</ele>
        <time>2015-11-22T07:25:09Z</time>
      </trkpt>
      <trkpt lat="43.58089" lon="3.3481">
        <ele>276.5</ele>
        <time>2015-11-22T07:25:10Z</time>
      </trkpt>
      <trkpt lat="43.58088" lon="3.34808">
        <ele>277</ele>
        <time>2015-11-22T07:25:11Z</time>
      </trkpt>
      <trkpt lat="43.58086" lon="3.34807">
        <ele>275.5</ele>
        <time>2015-11-22T07:25:12Z</time>
      </trkpt>
      <trkpt lat="43.58084" lon="3.34806">
        <ele>274.5</ele>
        <time>2015-11-22T07:25:13Z</time>
      </trkpt>
      <trkpt lat="43.58083" lon="3.34804">
        <ele>274.5</ele>
        <time>2015-11-22T07:25:14Z</time>
      </trkpt>
      <trkpt lat="43.58082" lon="3.34802">
        <ele>274.5</ele>
        <time>2015-11-22T07:25:15Z</time>
      </trkpt>
      <trkpt lat="43.58081" lon="3.348">
        <ele>274</ele>
        <time>2015-11-22T07:25:16Z</time>
      </trkpt>
      <trkpt lat="43.58079" lon="3.34797">
        <ele>273.5</ele>
        <time>2015-11-22T07:25:17Z</time>
      </trkpt>
      <trkpt lat="43.58078" lon="3.34796">
        <ele>273</ele>
        <time>2015-11-22T07:25:18Z</time>
      </trkpt>
      <trkpt lat="43.58077" lon="3.34794">
        <ele>272</ele>
        <time>2015-11-22T07:25:19Z</time>
      </trkpt>
      <trkpt lat="43.58076" lon="3.34792">
        <ele>272.5</ele>
        <time>2015-11-22T07:25:20Z</time>
      </trkpt>
      <trkpt lat="43.58075" lon="3.34791">
        <ele>272</ele>
        <time>2015-11-22T07:25:21Z</time>
      </trkpt>
      <trkpt lat="43.58074" lon="3.3479">
        <ele>272</ele>
        <time>2015-11-22T07:25:22Z</time>
      </trkpt>
      <trkpt lat="43.58073" lon="3.3479">
        <ele>273</ele>
        <time>2015-11-22T07:25:23Z</time>
      </trkpt>
      <trkpt lat="43.58071" lon="3.34792">
        <ele>273.5</ele>
        <time>2015-11-22T07:25:24Z</time>
      </trkpt>
      <trkpt lat="43.5807" lon="3.34793">
        <ele>274.5</ele>
        <time>2015-11-22T07:25:25Z</time>
      </trkpt>
      <trkpt lat="43.58069" lon="3.34794">
        <ele>274.5</ele>
        <time>2015-11-22T07:25:26Z</time>
      </trkpt>
      <trkpt lat="43.58069" lon="3.34796">
        <ele>274.5</ele>
        <time>2015-11-22T07:25:27Z</time>
      </trkpt>
      <trkpt lat="43.5807" lon="3.34797">
        <ele>274</ele>
        <time>2015-11-22T07:25:28Z</time>
      </trkpt>
      <trkpt lat="43.5807" lon="3.34798">
        <ele>273</ele>
        <time>2015-11-22T07:25:29Z</time>
      </trkpt>
      <trkpt lat="43.58071" lon="3.348">
        <ele>274</ele>
        <time>2015-11-22T07:25:30Z</time>
      </trkpt>
      <trkpt lat="43.58072" lon="3.34801">
        <ele>274</ele>
        <time>2015-11-22T07:25:31Z</time>
      </trkpt>
      <trkpt lat="43.58072" lon="3.34803">
        <ele>273.5</ele>
        <time>2015-11-22T07:25:32Z</time>
      </trkpt>
      <trkpt lat="43.58073" lon="3.34804">
        <ele>272.5</ele>
        <time>2015-11-22T07:25:33Z</time>
      </trkpt>
      <trkpt lat="43.58074" lon="3.34805">
        <ele>271.5</ele>
        <time>2015-11-22T07:25:34Z</time>
      </trkpt>
      <trkpt lat="43.58073" lon="3.34805">
        <ele>271</ele>
        <time>2015-11-22T07:25:35Z</time>
      </trkpt>
      <trkpt lat="43.58074" lon="3.34806">
        <ele>270</ele>
        <time>2015-11-22T07:25:36Z</time>
      </trkpt>
      <trkpt lat="43.58075" lon="3.34807">
        <ele>270.5</ele>
        <time>2015-11-22T07:25:37Z</time>
      </trkpt>
      <trkpt lat="43.58076" lon="3.34809">
        <ele>269.5</ele>
        <time>2015-11-22T07:25:38Z</time>
      </trkpt>
      <trkpt lat="43.58076" lon="3.34811">
        <ele>269.5</ele>
        <time>2015-11-22T07:25:39Z</time>
      </trkpt>
      <trkpt lat="43.58076" lon="3.34813">
        <ele>269</ele>
        <time>2015-11-22T07:25:40Z</time>
      </trkpt>
      <trkpt lat="43.58076" lon="3.34814">
        <ele>268.5</ele>
        <time>2015-11-22T07:25:41Z</time>
      </trkpt>
      <trkpt lat="43.58077" lon="3.34816">
        <ele>269</ele>
        <time>2015-11-22T07:25:42Z</time>
      </trkpt>
      <trkpt lat="43.58077" lon="3.34818">
        <ele>270</ele>
        <time>2015-11-22T07:25:43Z</time>
      </trkpt>
      <trkpt lat="43.58078" lon="3.3482">
        <ele>270</ele>
        <time>2015-11-22T07:25:44Z</time>
      </trkpt>
      <trkpt lat="43.58079" lon="3.34822">
        <ele>269.5</ele>
        <time>2015-11-22T07:25:45Z</time>
      </trkpt>
      <trkpt lat="43.58079" lon="3.34824">
        <ele>269</ele>
        <time>2015-11-22T07:25:46Z</time>
      </trkpt>
      <trkpt lat="43.5808" lon="3.34826">
        <ele>269</ele>
        <time>2015-11-22T07:25:47Z</time>
      </trkpt>
      <trkpt lat="43.58079" lon="3.34828">
        <ele>270</ele>
        <time>2015-11-22T07:25:48Z</time>
      </trkpt>
      <trkpt lat="43.5808" lon="3.3483">
        <ele>270.5</ele>
        <time>2015-11-22T07:25:49Z</time>
      </trkpt>
      <trkpt lat="43.5808" lon="3.34833">
        <ele>271</ele>
        <time>2015-11-22T07:25:50Z</time>
      </trkpt>
      <trkpt lat="43.5808" lon="3.34835">
        <ele>271.5</ele>
        <time>2015-11-22T07:25:51Z</time>
      </trkpt>
      <trkpt lat="43.5808" lon="3.34837">
        <ele>273</ele>
        <time>2015-11-22T07:25:52Z</time>
      </trkpt>
      <trkpt lat="43.5808" lon="3.34839">
        <ele>273.5</ele>
        <time>2015-11-22T07:25:53Z</time>
      </trkpt>
      <trkpt lat="43.5808" lon="3.34842">
        <ele>274.5</ele>
        <time>2015-11-22T07:25:54Z</time>
      </trkpt>
      <trkpt lat="43.58078" lon="3.34844">
        <ele>274.5</ele>
        <time>2015-11-22T07:25:55Z</time>
      </trkpt>
      <trkpt lat="43.58079" lon="3.34847">
        <ele>275</ele>
        <time>2015-11-22T07:25:56Z</time>
      </trkpt>
      <trkpt lat="43.58079" lon="3.3485">
        <ele>275</ele>
        <time>2015-11-22T07:25:57Z</time>
      </trkpt>
      <trkpt lat="43.5808" lon="3.34853">
        <ele>275</ele>
        <time>2015-11-22T07:25:58Z</time>
      </trkpt>
      <trkpt lat="43.5808" lon="3.34856">
        <ele>275</ele>
        <time>2015-11-22T07:25:59Z</time>
      </trkpt>
      <trkpt lat="43.58081" lon="3.3486">
        <ele>275</ele>
        <time>2015-11-22T07:26:00Z</time>
      </trkpt>
      <trkpt lat="43.58081" lon="3.34863">
        <ele>275</ele>
        <time>2015-11-22T07:26:01Z</time>
      </trkpt>
      <trkpt lat="43.58081" lon="3.34867">
        <ele>275.5</ele>
        <time>2015-11-22T07:26:02Z</time>
      </trkpt>
      <trkpt lat="43.58081" lon="3.3487">
        <ele>275.5</ele>
        <time>2015-11-22T07:26:03Z</time>
      </trkpt>
      <trkpt lat="43.58081" lon="3.34873">
        <ele>276</ele>
        <time>2015-11-22T07:26:04Z</time>
      </trkpt>
      <trkpt lat="43.58081" lon="3.34876">
        <ele>277.5</ele>
        <time>2015-11-22T07:26:05Z</time>
      </trkpt>
      <trkpt lat="43.5808" lon="3.34879">
        <ele>279</ele>
        <time>2015-11-22T07:26:06Z</time>
      </trkpt>
      <trkpt lat="43.58081" lon="3.34882">
        <ele>280</ele>
        <time>2015-11-22T07:26:07Z</time>
      </trkpt>
      <trkpt lat="43.58081" lon="3.34885">
        <ele>280.5</ele>
        <time>2015-11-22T07:26:08Z</time>
      </trkpt>
      <trkpt lat="43.58081" lon="3.34889">
        <ele>281</ele>
        <time>2015-11-22T07:26:09Z</time>
      </trkpt>
      <trkpt lat="43.58081" lon="3.34892">
        <ele>281</ele>
        <time>2015-11-22T07:26:10Z</time>
      </trkpt>
      <trkpt lat="43.58081" lon="3.34895">
        <ele>281.5</ele>
        <time>2015-11-22T07:26:11Z</time>
      </trkpt>
      <trkpt lat="43.58081" lon="3.34898">
        <ele>282</ele>
        <time>2015-11-22T07:26:12Z</time>
      </trkpt>
      <trkpt lat="43.58081" lon="3.34901">
        <ele>282.5</ele>
        <time>2015-11-22T07:26:13Z</time>
      </trkpt>
      <trkpt lat="43.5808" lon="3.34904">
        <ele>283</ele>
        <time>2015-11-22T07:26:14Z</time>
      </trkpt>
      <trkpt lat="43.5808" lon="3.34906">
        <ele>284</ele>
        <time>2015-11-22T07:26:15Z</time>
      </trkpt>
      <trkpt lat="43.58079" lon="3.34909">
        <ele>284</ele>
        <time>2015-11-22T07:26:16Z</time>
      </trkpt>
      <trkpt lat="43.58079" lon="3.34911">
        <ele>284.5</ele>
        <time>2015-11-22T07:26:17Z</time>
      </trkpt>
      <trkpt lat="43.58078" lon="3.34914">
        <ele>285</ele>
        <time>2015-11-22T07:26:18Z</time>
      </trkpt>
      <trkpt lat="43.58077" lon="3.34917">
        <ele>285</ele>
        <time>2015-11-22T07:26:19Z</time>
      </trkpt>
      <trkpt lat="43.58077" lon="3.3492">
        <ele>285.5</ele>
        <time>2015-11-22T07:26:20Z</time>
      </trkpt>
      <trkpt lat="43.58076" lon="3.34923">
        <ele>286</ele>
        <time>2015-11-22T07:26:21Z</time>
      </trkpt>
      <trkpt lat="43.58076" lon="3.34926">
        <ele>286</ele>
        <time>2015-11-22T07:26:22Z</time>
      </trkpt>
      <trkpt lat="43.58076" lon="3.34929">
        <ele>286.5</ele>
        <time>2015-11-22T07:26:23Z</time>
      </trkpt>
      <trkpt lat="43.58075" lon="3.34932">
        <ele>287</ele>
        <time>2015-11-22T07:26:24Z</time>
      </trkpt>
      <trkpt lat="43.58075" lon="3.34935">
        <ele>287.5</ele>
        <time>2015-11-22T07:26:25Z</time>
      </trkpt>
      <trkpt lat="43.58074" lon="3.34937">
        <ele>287</ele>
        <time>2015-11-22T07:26:26Z</time>
      </trkpt>
      <trkpt lat="43.58073" lon="3.3494">
        <ele>287.5</ele>
        <time>2015-11-22T07:26:27Z</time>
      </trkpt>
      <trkpt lat="43.58073" lon="3.34942">
        <ele>287.5</ele>
        <time>2015-11-22T07:26:28Z</time>
      </trkpt>
      <trkpt lat="43.58072" lon="3.34945">
        <ele>287.5</ele>
        <time>2015-11-22T07:26:29Z</time>
      </trkpt>
      <trkpt lat="43.58071" lon="3.34947">
        <ele>287.5</ele>
        <time>2015-11-22T07:26:30Z</time>
      </trkpt>
      <trkpt lat="43.5807" lon="3.3495">
        <ele>287.5</ele>
        <time>2015-11-22T07:26:31Z</time>
      </trkpt>
      <trkpt lat="43.58069" lon="3.34953">
        <ele>287.5</ele>
        <time>2015-11-22T07:26:32Z</time>
      </trkpt>
      <trkpt lat="43.5807" lon="3.34956">
        <ele>288.5</ele>
        <time>2015-11-22T07:26:33Z</time>
      </trkpt>
      <trkpt lat="43.58068" lon="3.34959">
        <ele>288</ele>
        <time>2015-11-22T07:26:34Z</time>
      </trkpt>
      <trkpt lat="43.58068" lon="3.34962">
        <ele>288.5</ele>
        <time>2015-11-22T07:26:35Z</time>
      </trkpt>
      <trkpt lat="43.58067" lon="3.34965">
        <ele>288.5</ele>
        <time>2015-11-22T07:26:36Z</time>
      </trkpt>
      <trkpt lat="43.58066" lon="3.34968">
        <ele>288.5</ele>
        <time>2015-11-22T07:26:37Z</time>
      </trkpt>
      <trkpt lat="43.58067" lon="3.3497">
        <ele>289.5</ele>
        <time>2015-11-22T07:26:38Z</time>
      </trkpt>
      <trkpt lat="43.58067" lon="3.34974">
        <ele>290</ele>
        <time>2015-11-22T07:26:39Z</time>
      </trkpt>
      <trkpt lat="43.58067" lon="3.34977">
        <ele>290.5</ele>
        <time>2015-11-22T07:26:40Z</time>
      </trkpt>
      <trkpt lat="43.58066" lon="3.3498">
        <ele>291.5</ele>
        <time>2015-11-22T07:26:41Z</time>
      </trkpt>
      <trkpt lat="43.58065" lon="3.34983">
        <ele>292</ele>
        <time>2015-11-22T07:26:42Z</time>
      </trkpt>
      <trkpt lat="43.58064" lon="3.34985">
        <ele>292.5</ele>
        <time>2015-11-22T07:26:43Z</time>
      </trkpt>
      <trkpt lat="43.58064" lon="3.34989">
        <ele>292</ele>
        <time>2015-11-22T07:26:44Z</time>
      </trkpt>
      <trkpt lat="43.58063" lon="3.34991">
        <ele>292.5</ele>
        <time>2015-11-22T07:26:45Z</time>
      </trkpt>
      <trkpt lat="43.58062" lon="3.34994">
        <ele>292.5</ele>
        <time>2015-11-22T07:26:46Z</time>
      </trkpt>
      <trkpt lat="43.58061" lon="3.34997">
        <ele>293</ele>
        <time>2015-11-22T07:26:47Z</time>
      </trkpt>
      <trkpt lat="43.5806" lon="3.35">
        <ele>293</ele>
        <time>2015-11-22T07:26:48Z</time>
      </trkpt>
      <trkpt lat="43.58059" lon="3.35003">
        <ele>293.5</ele>
        <time>2015-11-22T07:26:49Z</time>
      </trkpt>
      <trkpt lat="43.58059" lon="3.35005">
        <ele>294</ele>
        <time>2015-11-22T07:26:50Z</time>
      </trkpt>
      <trkpt lat="43.58058" lon="3.35008">
        <ele>294</ele>
        <time>2015-11-22T07:26:51Z</time>
      </trkpt>
      <trkpt lat="43.58057" lon="3.35011">
        <ele>295</ele>
        <time>2015-11-22T07:26:52Z</time>
      </trkpt>
      <trkpt lat="43.58056" lon="3.35013">
        <ele>295</ele>
        <time>2015-11-22T07:26:53Z</time>
      </trkpt>
      <trkpt lat="43.58055" lon="3.35016">
        <ele>295.5</ele>
        <time>2015-11-22T07:26:54Z</time>
      </trkpt>
      <trkpt lat="43.58054" lon="3.35018">
        <ele>295.5</ele>
        <time>2015-11-22T07:26:55Z</time>
      </trkpt>
      <trkpt lat="43.58053" lon="3.35021">
        <ele>296</ele>
        <time>2015-11-22T07:26:56Z</time>
      </trkpt>
      <trkpt lat="43.58052" lon="3.35023">
        <ele>296</ele>
        <time>2015-11-22T07:26:57Z</time>
      </trkpt>
      <trkpt lat="43.58051" lon="3.35026">
        <ele>295.5</ele>
        <time>2015-11-22T07:26:58Z</time>
      </trkpt>
      <trkpt lat="43.5805" lon="3.35028">
        <ele>296</ele>
        <time>2015-11-22T07:26:59Z</time>
      </trkpt>
      <trkpt lat="43.58049" lon="3.35031">
        <ele>295.5</ele>
        <time>2015-11-22T07:27:00Z</time>
      </trkpt>
      <trkpt lat="43.58048" lon="3.35033">
        <ele>295.5</ele>
        <time>2015-11-22T07:27:01Z</time>
      </trkpt>
      <trkpt lat="43.58047" lon="3.35037">
        <ele>296</ele>
        <time>2015-11-22T07:27:02Z</time>
      </trkpt>
      <trkpt lat="43.58045" lon="3.3504">
        <ele>296.5</ele>
        <time>2015-11-22T07:27:03Z</time>
      </trkpt>
      <trkpt lat="43.58044" lon="3.35042">
        <ele>297</ele>
        <time>2015-11-22T07:27:04Z</time>
      </trkpt>
      <trkpt lat="43.58042" lon="3.35045">
        <ele>297.5</ele>
        <time>2015-11-22T07:27:05Z</time>
      </trkpt>
      <trkpt lat="43.58041" lon="3.35048">
        <ele>298</ele>
        <time>2015-11-22T07:27:06Z</time>
      </trkpt>
      <trkpt lat="43.5804" lon="3.3505">
        <ele>298.5</ele>
        <time>2015-11-22T07:27:07Z</time>
      </trkpt>
      <trkpt lat="43.58038" lon="3.35052">
        <ele>298.5</ele>
        <time>2015-11-22T07:27:08Z</time>
      </trkpt>
      <trkpt lat="43.58037" lon="3.35054">
        <ele>298.5</ele>
        <time>2015-11-22T07:27:09Z</time>
      </trkpt>
      <trkpt lat="43.58035" lon="3.35055">
        <ele>298.5</ele>
        <time>2015-11-22T07:27:10Z</time>
      </trkpt>
      <trkpt lat="43.58033" lon="3.35056">
        <ele>298.5</ele>
        <time>2015-11-22T07:27:11Z</time>
      </trkpt>
      <trkpt lat="43.5803" lon="3.35056">
        <ele>298.5</ele>
        <time>2015-11-22T07:27:12Z</time>
      </trkpt>
      <trkpt lat="43.58028" lon="3.35056">
        <ele>298</ele>
        <time>2015-11-22T07:27:13Z</time>
      </trkpt>
      <trkpt lat="43.58025" lon="3.35054">
        <ele>297.5</ele>
        <time>2015-11-22T07:27:14Z</time>
      </trkpt>
      <trkpt lat="43.58024" lon="3.35052">
        <ele>298</ele>
        <time>2015-11-22T07:27:15Z</time>
      </trkpt>
      <trkpt lat="43.58022" lon="3.3505">
        <ele>298</ele>
        <time>2015-11-22T07:27:16Z</time>
      </trkpt>
      <trkpt lat="43.58021" lon="3.35047">
        <ele>298</ele>
        <time>2015-11-22T07:27:17Z</time>
      </trkpt>
      <trkpt lat="43.58021" lon="3.35044">
        <ele>298.5</ele>
        <time>2015-11-22T07:27:18Z</time>
      </trkpt>
      <trkpt lat="43.5802" lon="3.35042">
        <ele>299</ele>
        <time>2015-11-22T07:27:19Z</time>
      </trkpt>
      <trkpt lat="43.58019" lon="3.35039">
        <ele>299</ele>
        <time>2015-11-22T07:27:20Z</time>
      </trkpt>
      <trkpt lat="43.58019" lon="3.35036">
        <ele>298</ele>
        <time>2015-11-22T07:27:21Z</time>
      </trkpt>
      <trkpt lat="43.58018" lon="3.35034">
        <ele>298</ele>
        <time>2015-11-22T07:27:22Z</time>
      </trkpt>
      <trkpt lat="43.58018" lon="3.35031">
        <ele>296.5</ele>
        <time>2015-11-22T07:27:23Z</time>
      </trkpt>
      <trkpt lat="43.58018" lon="3.35028">
        <ele>295.5</ele>
        <time>2015-11-22T07:27:24Z</time>
      </trkpt>
      <trkpt lat="43.58018" lon="3.35026">
        <ele>295.5</ele>
        <time>2015-11-22T07:27:25Z</time>
      </trkpt>
      <trkpt lat="43.58018" lon="3.35023">
        <ele>294.5</ele>
        <time>2015-11-22T07:27:26Z</time>
      </trkpt>
      <trkpt lat="43.58018" lon="3.3502">
        <ele>294</ele>
        <time>2015-11-22T07:27:27Z</time>
      </trkpt>
      <trkpt lat="43.58018" lon="3.35018">
        <ele>293.5</ele>
        <time>2015-11-22T07:27:28Z</time>
      </trkpt>
      <trkpt lat="43.58017" lon="3.35015">
        <ele>292.5</ele>
        <time>2015-11-22T07:27:29Z</time>
      </trkpt>
      <trkpt lat="43.58017" lon="3.35013">
        <ele>292</ele>
        <time>2015-11-22T07:27:30Z</time>
      </trkpt>
      <trkpt lat="43.58017" lon="3.3501">
        <ele>291.5</ele>
        <time>2015-11-22T07:27:31Z</time>
      </trkpt>
      <trkpt lat="43.58017" lon="3.35007">
        <ele>291</ele>
        <time>2015-11-22T07:27:32Z</time>
      </trkpt>
      <trkpt lat="43.58016" lon="3.35005">
        <ele>290.5</ele>
        <time>2015-11-22T07:27:33Z</time>
      </trkpt>
      <trkpt lat="43.58016" lon="3.35003">
        <ele>289.5</ele>
        <time>2015-11-22T07:27:34Z</time>
      </trkpt>
      <trkpt lat="43.58016" lon="3.35">
        <ele>289</ele>
        <time>2015-11-22T07:27:35Z</time>
      </trkpt>
      <trkpt lat="43.58015" lon="3.34997">
        <ele>288.5</ele>
        <time>2015-11-22T07:27:36Z</time>
      </trkpt>
      <trkpt lat="43.58015" lon="3.34995">
        <ele>288.5</ele>
        <time>2015-11-22T07:27:37Z</time>
      </trkpt>
      <trkpt lat="43.58014" lon="3.34993">
        <ele>288.5</ele>
        <time>2015-11-22T07:27:38Z</time>
      </trkpt>
      <trkpt lat="43.58015" lon="3.34988">
        <ele>288.5</ele>
        <time>2015-11-22T07:27:39Z</time>
      </trkpt>
      <trkpt lat="43.58014" lon="3.34986">
        <ele>287.5</ele>
        <time>2015-11-22T07:27:40Z</time>
      </trkpt>
      <trkpt lat="43.58014" lon="3.34984">
        <ele>287.5</ele>
        <time>2015-11-22T07:27:41Z</time>
      </trkpt>
      <trkpt lat="43.58013" lon="3.34981">
        <ele>287</ele>
        <time>2015-11-22T07:27:42Z</time>
      </trkpt>
      <trkpt lat="43.58013" lon="3.34979">
        <ele>287</ele>
        <time>2015-11-22T07:27:43Z</time>
      </trkpt>
      <trkpt lat="43.58012" lon="3.34976">
        <ele>287.5</ele>
        <time>2015-11-22T07:27:44Z</time>
      </trkpt>
      <trkpt lat="43.58012" lon="3.34973">
        <ele>287.5</ele>
        <time>2015-11-22T07:27:45Z</time>
      </trkpt>
      <trkpt lat="43.58012" lon="3.34971">
        <ele>287.5</ele>
        <time>2015-11-22T07:27:46Z</time>
      </trkpt>
      <trkpt lat="43.58011" lon="3.34969">
        <ele>288</ele>
        <time>2015-11-22T07:27:47Z</time>
      </trkpt>
      <trkpt lat="43.5801" lon="3.34967">
        <ele>287.5</ele>
        <time>2015-11-22T07:27:48Z</time>
      </trkpt>
      <trkpt lat="43.5801" lon="3.34965">
        <ele>287.5</ele>
        <time>2015-11-22T07:27:49Z</time>
      </trkpt>
      <trkpt lat="43.58009" lon="3.34963">
        <ele>287</ele>
        <time>2015-11-22T07:27:50Z</time>
      </trkpt>
      <trkpt lat="43.58008" lon="3.34961">
        <ele>287</ele>
        <time>2015-11-22T07:27:51Z</time>
      </trkpt>
      <trkpt lat="43.58007" lon="3.34959">
        <ele>286.5</ele>
        <time>2015-11-22T07:27:52Z</time>
      </trkpt>
      <trkpt lat="43.58006" lon="3.34957">
        <ele>287</ele>
        <time>2015-11-22T07:27:53Z</time>
      </trkpt>
      <trkpt lat="43.58005" lon="3.34955">
        <ele>287.5</ele>
        <time>2015-11-22T07:27:54Z</time>
      </trkpt>
      <trkpt lat="43.58004" lon="3.34953">
        <ele>287</ele>
        <time>2015-11-22T07:27:55Z</time>
      </trkpt>
      <trkpt lat="43.58003" lon="3.34951">
        <ele>287.5</ele>
        <time>2015-11-22T07:27:56Z</time>
      </trkpt>
      <trkpt lat="43.58002" lon="3.3495">
        <ele>288.5</ele>
        <time>2015-11-22T07:27:57Z</time>
      </trkpt>
      <trkpt lat="43.58" lon="3.34949">
        <ele>289</ele>
        <time>2015-11-22T07:27:58Z</time>
      </trkpt>
      <trkpt lat="43.57999" lon="3.34947">
        <ele>290</ele>
        <time>2015-11-22T07:27:59Z</time>
      </trkpt>
      <trkpt lat="43.57997" lon="3.34946">
        <ele>290.5</ele>
        <time>2015-11-22T07:28:00Z</time>
      </trkpt>
      <trkpt lat="43.57997" lon="3.34943">
        <ele>291.5</ele>
        <time>2015-11-22T07:28:01Z</time>
      </trkpt>
      <trkpt lat="43.57995" lon="3.34942">
        <ele>292</ele>
        <time>2015-11-22T07:28:02Z</time>
      </trkpt>
      <trkpt lat="43.57994" lon="3.3494">
        <ele>293</ele>
        <time>2015-11-22T07:28:03Z</time>
      </trkpt>
      <trkpt lat="43.57993" lon="3.34938">
        <ele>294</ele>
        <time>2015-11-22T07:28:04Z</time>
      </trkpt>
      <trkpt lat="43.57992" lon="3.34936">
        <ele>294.5</ele>
        <time>2015-11-22T07:28:05Z</time>
      </trkpt>
      <trkpt lat="43.57991" lon="3.34933">
        <ele>294.5</ele>
        <time>2015-11-22T07:28:06Z</time>
      </trkpt>
      <trkpt lat="43.57991" lon="3.34929">
        <ele>294.5</ele>
        <time>2015-11-22T07:28:07Z</time>
      </trkpt>
      <trkpt lat="43.57991" lon="3.34925">
        <ele>293.5</ele>
        <time>2015-11-22T07:28:08Z</time>
      </trkpt>
      <trkpt lat="43.57991" lon="3.34921">
        <ele>293.5</ele>
        <time>2015-11-22T07:28:09Z</time>
      </trkpt>
      <trkpt lat="43.5799" lon="3.34918">
        <ele>293</ele>
        <time>2015-11-22T07:28:10Z</time>
      </trkpt>
      <trkpt lat="43.5799" lon="3.34915">
        <ele>292.5</ele>
        <time>2015-11-22T07:28:11Z</time>
      </trkpt>
      <trkpt lat="43.5799" lon="3.34912">
        <ele>292.5</ele>
        <time>2015-11-22T07:28:12Z</time>
      </trkpt>
      <trkpt lat="43.5799" lon="3.34909">
        <ele>292.5</ele>
        <time>2015-11-22T07:28:13Z</time>
      </trkpt>
      <trkpt lat="43.5799" lon="3.34907">
        <ele>292.5</ele>
        <time>2015-11-22T07:28:14Z</time>
      </trkpt>
      <trkpt lat="43.5799" lon="3.34904">
        <ele>293</ele>
        <time>2015-11-22T07:28:15Z</time>
      </trkpt>
      <trkpt lat="43.5799" lon="3.34901">
        <ele>293</ele>
        <time>2015-11-22T07:28:16Z</time>
      </trkpt>
      <trkpt lat="43.5799" lon="3.34898">
        <ele>292</ele>
        <time>2015-11-22T07:28:17Z</time>
      </trkpt>
      <trkpt lat="43.5799" lon="3.34895">
        <ele>292</ele>
        <time>2015-11-22T07:28:18Z</time>
      </trkpt>
      <trkpt lat="43.5799" lon="3.34892">
        <ele>292</ele>
        <time>2015-11-22T07:28:19Z</time>
      </trkpt>
      <trkpt lat="43.5799" lon="3.34889">
        <ele>292</ele>
        <time>2015-11-22T07:28:20Z</time>
      </trkpt>
      <trkpt lat="43.57991" lon="3.34887">
        <ele>292</ele>
        <time>2015-11-22T07:28:21Z</time>
      </trkpt>
      <trkpt lat="43.57991" lon="3.34884">
        <ele>292.5</ele>
        <time>2015-11-22T07:28:22Z</time>
      </trkpt>
      <trkpt lat="43.57992" lon="3.34881">
        <ele>292</ele>
        <time>2015-11-22T07:28:23Z</time>
      </trkpt>
      <trkpt lat="43.57992" lon="3.34878">
        <ele>291.5</ele>
        <time>2015-11-22T07:28:24Z</time>
      </trkpt>
      <trkpt lat="43.57993" lon="3.34876">
        <ele>291</ele>
        <time>2015-11-22T07:28:25Z</time>
      </trkpt>
      <trkpt lat="43.57994" lon="3.34872">
        <ele>290.5</ele>
        <time>2015-11-22T07:28:26Z</time>
      </trkpt>
      <trkpt lat="43.57995" lon="3.34869">
        <ele>290.5</ele>
        <time>2015-11-22T07:28:27Z</time>
      </trkpt>
      <trkpt lat="43.57995" lon="3.34865">
        <ele>290</ele>
        <time>2015-11-22T07:28:28Z</time>
      </trkpt>
      <trkpt lat="43.57996" lon="3.34862">
        <ele>290</ele>
        <time>2015-11-22T07:28:29Z</time>
      </trkpt>
      <trkpt lat="43.57997" lon="3.34858">
        <ele>290</ele>
        <time>2015-11-22T07:28:30Z</time>
      </trkpt>
      <trkpt lat="43.57997" lon="3.34854">
        <ele>289</ele>
        <time>2015-11-22T07:28:31Z</time>
      </trkpt>
      <trkpt lat="43.57998" lon="3.34851">
        <ele>289.5</ele>
        <time>2015-11-22T07:28:32Z</time>
      </trkpt>
      <trkpt lat="43.57998" lon="3.34847">
        <ele>289.5</ele>
        <time>2015-11-22T07:28:33Z</time>
      </trkpt>
      <trkpt lat="43.57998" lon="3.34844">
        <ele>289</ele>
        <time>2015-11-22T07:28:34Z</time>
      </trkpt>
      <trkpt lat="43.57998" lon="3.34841">
        <ele>289</ele>
        <time>2015-11-22T07:28:34Z</time>
      </trkpt>
      <trkpt lat="43.57998" lon="3.34838">
        <ele>289</ele>
        <time>2015-11-22T07:28:35Z</time>
      </trkpt>
      <trkpt lat="43.57998" lon="3.34836">
        <ele>289.5</ele>
        <time>2015-11-22T07:28:36Z</time>
      </trkpt>
      <trkpt lat="43.57998" lon="3.34833">
        <ele>290.5</ele>
        <time>2015-11-22T07:28:37Z</time>
      </trkpt>
      <trkpt lat="43.57997" lon="3.34831">
        <ele>291</ele>
        <time>2015-11-22T07:28:38Z</time>
      </trkpt>
      <trkpt lat="43.57997" lon="3.34828">
        <ele>292</ele>
        <time>2015-11-22T07:28:39Z</time>
      </trkpt>
      <trkpt lat="43.57997" lon="3.34824">
        <ele>292</ele>
        <time>2015-11-22T07:28:41Z</time>
      </trkpt>
      <trkpt lat="43.57997" lon="3.34821">
        <ele>292.5</ele>
        <time>2015-11-22T07:28:41Z</time>
      </trkpt>
      <trkpt lat="43.57997" lon="3.34817">
        <ele>293</ele>
        <time>2015-11-22T07:28:42Z</time>
      </trkpt>
      <trkpt lat="43.57996" lon="3.34814">
        <ele>292.5</ele>
        <time>2015-11-22T07:28:43Z</time>
      </trkpt>
      <trkpt lat="43.57996" lon="3.34811">
        <ele>292.5</ele>
        <time>2015-11-22T07:28:44Z</time>
      </trkpt>
      <trkpt lat="43.57996" lon="3.34807">
        <ele>292.5</ele>
        <time>2015-11-22T07:28:45Z</time>
      </trkpt>
      <trkpt lat="43.57995" lon="3.34804">
        <ele>292.5</ele>
        <time>2015-11-22T07:28:46Z</time>
      </trkpt>
      <trkpt lat="43.57995" lon="3.34801">
        <ele>292.5</ele>
        <time>2015-11-22T07:28:47Z</time>
      </trkpt>
      <trkpt lat="43.57994" lon="3.34797">
        <ele>293</ele>
        <time>2015-11-22T07:28:48Z</time>
      </trkpt>
      <trkpt lat="43.57994" lon="3.34794">
        <ele>294.5</ele>
        <time>2015-11-22T07:28:50Z</time>
      </trkpt>
      <trkpt lat="43.57993" lon="3.3479">
        <ele>295</ele>
        <time>2015-11-22T07:28:50Z</time>
      </trkpt>
      <trkpt lat="43.57992" lon="3.34789">
        <ele>296</ele>
        <time>2015-11-22T07:28:51Z</time>
      </trkpt>
      <trkpt lat="43.57992" lon="3.34785">
        <ele>296.5</ele>
        <time>2015-11-22T07:28:52Z</time>
      </trkpt>
      <trkpt lat="43.57992" lon="3.34782">
        <ele>297</ele>
        <time>2015-11-22T07:28:54Z</time>
      </trkpt>
      <trkpt lat="43.57992" lon="3.34778">
        <ele>297</ele>
        <time>2015-11-22T07:28:54Z</time>
      </trkpt>
      <trkpt lat="43.57993" lon="3.34775">
        <ele>296.5</ele>
        <time>2015-11-22T07:28:55Z</time>
      </trkpt>
      <trkpt lat="43.57993" lon="3.34772">
        <ele>296.5</ele>
        <time>2015-11-22T07:28:56Z</time>
      </trkpt>
      <trkpt lat="43.57993" lon="3.34769">
        <ele>295.5</ele>
        <time>2015-11-22T07:28:57Z</time>
      </trkpt>
      <trkpt lat="43.57994" lon="3.34766">
        <ele>295.5</ele>
        <time>2015-11-22T07:28:58Z</time>
      </trkpt>
      <trkpt lat="43.57994" lon="3.34764">
        <ele>295.5</ele>
        <time>2015-11-22T07:28:59Z</time>
      </trkpt>
      <trkpt lat="43.57995" lon="3.34761">
        <ele>296</ele>
        <time>2015-11-22T07:29:00Z</time>
      </trkpt>
      <trkpt lat="43.57995" lon="3.34757">
        <ele>296</ele>
        <time>2015-11-22T07:29:01Z</time>
      </trkpt>
      <trkpt lat="43.57996" lon="3.34754">
        <ele>296</ele>
        <time>2015-11-22T07:29:02Z</time>
      </trkpt>
      <trkpt lat="43.57996" lon="3.34751">
        <ele>296.5</ele>
        <time>2015-11-22T07:29:04Z</time>
      </trkpt>
      <trkpt lat="43.57996" lon="3.34748">
        <ele>296.5</ele>
        <time>2015-11-22T07:29:04Z</time>
      </trkpt>
      <trkpt lat="43.57997" lon="3.34745">
        <ele>296.5</ele>
        <time>2015-11-22T07:29:05Z</time>
      </trkpt>
      <trkpt lat="43.57997" lon="3.34742">
        <ele>297.5</ele>
        <time>2015-11-22T07:29:06Z</time>
      </trkpt>
      <trkpt lat="43.57997" lon="3.34739">
        <ele>297</ele>
        <time>2015-11-22T07:29:07Z</time>
      </trkpt>
      <trkpt lat="43.57997" lon="3.34736">
        <ele>298</ele>
        <time>2015-11-22T07:29:08Z</time>
      </trkpt>
      <trkpt lat="43.57997" lon="3.34732">
        <ele>298</ele>
        <time>2015-11-22T07:29:09Z</time>
      </trkpt>
      <trkpt lat="43.57997" lon="3.34729">
        <ele>298</ele>
        <time>2015-11-22T07:29:10Z</time>
      </trkpt>
      <trkpt lat="43.57997" lon="3.34727">
        <ele>299</ele>
        <time>2015-11-22T07:29:11Z</time>
      </trkpt>
      <trkpt lat="43.57997" lon="3.34724">
        <ele>299.5</ele>
        <time>2015-11-22T07:29:12Z</time>
      </trkpt>
      <trkpt lat="43.57997" lon="3.34721">
        <ele>300</ele>
        <time>2015-11-22T07:29:13Z</time>
      </trkpt>
      <trkpt lat="43.57997" lon="3.34719">
        <ele>301</ele>
        <time>2015-11-22T07:29:15Z</time>
      </trkpt>
      <trkpt lat="43.57996" lon="3.34716">
        <ele>301</ele>
        <time>2015-11-22T07:29:15Z</time>
      </trkpt>
      <trkpt lat="43.57996" lon="3.34714">
        <ele>302</ele>
        <time>2015-11-22T07:29:16Z</time>
      </trkpt>
      <trkpt lat="43.57996" lon="3.34711">
        <ele>302.5</ele>
        <time>2015-11-22T07:29:17Z</time>
      </trkpt>
      <trkpt lat="43.57996" lon="3.34709">
        <ele>303</ele>
        <time>2015-11-22T07:29:18Z</time>
      </trkpt>
      <trkpt lat="43.57995" lon="3.34706">
        <ele>303.5</ele>
        <time>2015-11-22T07:29:19Z</time>
      </trkpt>
      <trkpt lat="43.57995" lon="3.34704">
        <ele>304.5</ele>
        <time>2015-11-22T07:29:20Z</time>
      </trkpt>
      <trkpt lat="43.57995" lon="3.34702">
        <ele>306</ele>
        <time>2015-11-22T07:29:21Z</time>
      </trkpt>
      <trkpt lat="43.57994" lon="3.34699">
        <ele>306</ele>
        <time>2015-11-22T07:29:22Z</time>
      </trkpt>
      <trkpt lat="43.57993" lon="3.34695">
        <ele>305</ele>
        <time>2015-11-22T07:29:24Z</time>
      </trkpt>
      <trkpt lat="43.57993" lon="3.34692">
        <ele>304.5</ele>
        <time>2015-11-22T07:29:24Z</time>
      </trkpt>
      <trkpt lat="43.57993" lon="3.34689">
        <ele>304.5</ele>
        <time>2015-11-22T07:29:25Z</time>
      </trkpt>
      <trkpt lat="43.57993" lon="3.34686">
        <ele>304</ele>
        <time>2015-11-22T07:29:26Z</time>
      </trkpt>
      <trkpt lat="43.57992" lon="3.34683">
        <ele>304.5</ele>
        <time>2015-11-22T07:29:27Z</time>
      </trkpt>
      <trkpt lat="43.57992" lon="3.34681">
        <ele>304.5</ele>
        <time>2015-11-22T07:29:28Z</time>
      </trkpt>
      <trkpt lat="43.57992" lon="3.34677">
        <ele>304</ele>
        <time>2015-11-22T07:29:29Z</time>
      </trkpt>
      <trkpt lat="43.57991" lon="3.34675">
        <ele>304.5</ele>
        <time>2015-11-22T07:29:30Z</time>
      </trkpt>
      <trkpt lat="43.57991" lon="3.34671">
        <ele>305.5</ele>
        <time>2015-11-22T07:29:31Z</time>
      </trkpt>
      <trkpt lat="43.5799" lon="3.34669">
        <ele>305.5</ele>
        <time>2015-11-22T07:29:32Z</time>
      </trkpt>
      <trkpt lat="43.5799" lon="3.34666">
        <ele>305.5</ele>
        <time>2015-11-22T07:29:34Z</time>
      </trkpt>
      <trkpt lat="43.57989" lon="3.34661">
        <ele>305.5</ele>
        <time>2015-11-22T07:29:35Z</time>
      </trkpt>
      <trkpt lat="43.57988" lon="3.34658">
        <ele>305</ele>
        <time>2015-11-22T07:29:36Z</time>
      </trkpt>
      <trkpt lat="43.57988" lon="3.34655">
        <ele>305</ele>
        <time>2015-11-22T07:29:37Z</time>
      </trkpt>
      <trkpt lat="43.57987" lon="3.34652">
        <ele>305</ele>
        <time>2015-11-22T07:29:38Z</time>
      </trkpt>
      <trkpt lat="43.57987" lon="3.34649">
        <ele>304.5</ele>
        <time>2015-11-22T07:29:39Z</time>
      </trkpt>
      <trkpt lat="43.57986" lon="3.34646">
        <ele>304</ele>
        <time>2015-11-22T07:29:40Z</time>
      </trkpt>
      <trkpt lat="43.57986" lon="3.34644">
        <ele>304</ele>
        <time>2015-11-22T07:29:41Z</time>
      </trkpt>
      <trkpt lat="43.57986" lon="3.34641">
        <ele>304</ele>
        <time>2015-11-22T07:29:42Z</time>
      </trkpt>
      <trkpt lat="43.57985" lon="3.34639">
        <ele>305</ele>
        <time>2015-11-22T07:29:43Z</time>
      </trkpt>
      <trkpt lat="43.57985" lon="3.34635">
        <ele>305.5</ele>
        <time>2015-11-22T07:29:44Z</time>
      </trkpt>
      <trkpt lat="43.57985" lon="3.34632">
        <ele>305</ele>
        <time>2015-11-22T07:29:45Z</time>
      </trkpt>
      <trkpt lat="43.57985" lon="3.34629">
        <ele>305</ele>
        <time>2015-11-22T07:29:46Z</time>
      </trkpt>
      <trkpt lat="43.57984" lon="3.34626">
        <ele>305.5</ele>
        <time>2015-11-22T07:29:47Z</time>
      </trkpt>
      <trkpt lat="43.57984" lon="3.34623">
        <ele>305.5</ele>
        <time>2015-11-22T07:29:48Z</time>
      </trkpt>
      <trkpt lat="43.57983" lon="3.34621">
        <ele>306</ele>
        <time>2015-11-22T07:29:49Z</time>
      </trkpt>
      <trkpt lat="43.57983" lon="3.34618">
        <ele>306.5</ele>
        <time>2015-11-22T07:29:50Z</time>
      </trkpt>
      <trkpt lat="43.57983" lon="3.34615">
        <ele>307.5</ele>
        <time>2015-11-22T07:29:51Z</time>
      </trkpt>
      <trkpt lat="43.57982" lon="3.34613">
        <ele>307.5</ele>
        <time>2015-11-22T07:29:52Z</time>
      </trkpt>
      <trkpt lat="43.57982" lon="3.3461">
        <ele>307.5</ele>
        <time>2015-11-22T07:29:53Z</time>
      </trkpt>
      <trkpt lat="43.57982" lon="3.34607">
        <ele>307.5</ele>
        <time>2015-11-22T07:29:54Z</time>
      </trkpt>
      <trkpt lat="43.57981" lon="3.34604">
        <ele>306</ele>
        <time>2015-11-22T07:29:55Z</time>
      </trkpt>
      <trkpt lat="43.57981" lon="3.34601">
        <ele>305.5</ele>
        <time>2015-11-22T07:29:56Z</time>
      </trkpt>
      <trkpt lat="43.57981" lon="3.34599">
        <ele>306</ele>
        <time>2015-11-22T07:29:57Z</time>
      </trkpt>
      <trkpt lat="43.57981" lon="3.34596">
        <ele>306</ele>
        <time>2015-11-22T07:29:58Z</time>
      </trkpt>
      <trkpt lat="43.5798" lon="3.34594">
        <ele>306.5</ele>
        <time>2015-11-22T07:29:59Z</time>
      </trkpt>
      <trkpt lat="43.5798" lon="3.34591">
        <ele>306</ele>
        <time>2015-11-22T07:30:00Z</time>
      </trkpt>
      <trkpt lat="43.5798" lon="3.34588">
        <ele>306.5</ele>
        <time>2015-11-22T07:30:01Z</time>
      </trkpt>
      <trkpt lat="43.57979" lon="3.34586">
        <ele>307</ele>
        <time>2015-11-22T07:30:02Z</time>
      </trkpt>
      <trkpt lat="43.57979" lon="3.34583">
        <ele>307</ele>
        <time>2015-11-22T07:30:03Z</time>
      </trkpt>
      <trkpt lat="43.57979" lon="3.34581">
        <ele>307.5</ele>
        <time>2015-11-22T07:30:04Z</time>
      </trkpt>
      <trkpt lat="43.57978" lon="3.34578">
        <ele>307.5</ele>
        <time>2015-11-22T07:30:05Z</time>
      </trkpt>
      <trkpt lat="43.57978" lon="3.34576">
        <ele>307</ele>
        <time>2015-11-22T07:30:06Z</time>
      </trkpt>
      <trkpt lat="43.57978" lon="3.34572">
        <ele>306</ele>
        <time>2015-11-22T07:30:07Z</time>
      </trkpt>
      <trkpt lat="43.57977" lon="3.34569">
        <ele>305</ele>
        <time>2015-11-22T07:30:08Z</time>
      </trkpt>
      <trkpt lat="43.57977" lon="3.34565">
        <ele>303</ele>
        <time>2015-11-22T07:30:09Z</time>
      </trkpt>
      <trkpt lat="43.57977" lon="3.34562">
        <ele>300.5</ele>
        <time>2015-11-22T07:30:10Z</time>
      </trkpt>
      <trkpt lat="43.57976" lon="3.34558">
        <ele>298.5</ele>
        <time>2015-11-22T07:30:11Z</time>
      </trkpt>
      <trkpt lat="43.57976" lon="3.34555">
        <ele>297</ele>
        <time>2015-11-22T07:30:12Z</time>
      </trkpt>
      <trkpt lat="43.57975" lon="3.34552">
        <ele>297</ele>
        <time>2015-11-22T07:30:13Z</time>
      </trkpt>
      <trkpt lat="43.57975" lon="3.3455">
        <ele>298.5</ele>
        <time>2015-11-22T07:30:14Z</time>
      </trkpt>
      <trkpt lat="43.57974" lon="3.34548">
        <ele>299.5</ele>
        <time>2015-11-22T07:30:15Z</time>
      </trkpt>
      <trkpt lat="43.57973" lon="3.34545">
        <ele>299.5</ele>
        <time>2015-11-22T07:30:16Z</time>
      </trkpt>
      <trkpt lat="43.57972" lon="3.34544">
        <ele>299.5</ele>
        <time>2015-11-22T07:30:17Z</time>
      </trkpt>
      <trkpt lat="43.57971" lon="3.34541">
        <ele>300</ele>
        <time>2015-11-22T07:30:18Z</time>
      </trkpt>
      <trkpt lat="43.57971" lon="3.34538">
        <ele>299</ele>
        <time>2015-11-22T07:30:19Z</time>
      </trkpt>
      <trkpt lat="43.5797" lon="3.34536">
        <ele>298.5</ele>
        <time>2015-11-22T07:30:20Z</time>
      </trkpt>
      <trkpt lat="43.57969" lon="3.34533">
        <ele>298.5</ele>
        <time>2015-11-22T07:30:21Z</time>
      </trkpt>
      <trkpt lat="43.57969" lon="3.34531">
        <ele>298.5</ele>
        <time>2015-11-22T07:30:22Z</time>
      </trkpt>
      <trkpt lat="43.57968" lon="3.34529">
        <ele>299.5</ele>
        <time>2015-11-22T07:30:23Z</time>
      </trkpt>
      <trkpt lat="43.57967" lon="3.34526">
        <ele>299.5</ele>
        <time>2015-11-22T07:30:24Z</time>
      </trkpt>
      <trkpt lat="43.57966" lon="3.34524">
        <ele>299.5</ele>
        <time>2015-11-22T07:30:25Z</time>
      </trkpt>
      <trkpt lat="43.57965" lon="3.34521">
        <ele>301</ele>
        <time>2015-11-22T07:30:26Z</time>
      </trkpt>
      <trkpt lat="43.57965" lon="3.34519">
        <ele>301.5</ele>
        <time>2015-11-22T07:30:27Z</time>
      </trkpt>
      <trkpt lat="43.57964" lon="3.34516">
        <ele>302</ele>
        <time>2015-11-22T07:30:28Z</time>
      </trkpt>
      <trkpt lat="43.57963" lon="3.34514">
        <ele>303</ele>
        <time>2015-11-22T07:30:29Z</time>
      </trkpt>
      <trkpt lat="43.57962" lon="3.34513">
        <ele>303.5</ele>
        <time>2015-11-22T07:30:30Z</time>
      </trkpt>
      <trkpt lat="43.57961" lon="3.34511">
        <ele>303.5</ele>
        <time>2015-11-22T07:30:31Z</time>
      </trkpt>
      <trkpt lat="43.57961" lon="3.34508">
        <ele>304</ele>
        <time>2015-11-22T07:30:32Z</time>
      </trkpt>
      <trkpt lat="43.5796" lon="3.34506">
        <ele>304.5</ele>
        <time>2015-11-22T07:30:33Z</time>
      </trkpt>
      <trkpt lat="43.57962" lon="3.34497">
        <ele>305</ele>
        <time>2015-11-22T07:30:35Z</time>
      </trkpt>
      <trkpt lat="43.57962" lon="3.34494">
        <ele>305.5</ele>
        <time>2015-11-22T07:30:36Z</time>
      </trkpt>
      <trkpt lat="43.57962" lon="3.34492">
        <ele>306.5</ele>
        <time>2015-11-22T07:30:37Z</time>
      </trkpt>
      <trkpt lat="43.57962" lon="3.34489">
        <ele>307.5</ele>
        <time>2015-11-22T07:30:38Z</time>
      </trkpt>
      <trkpt lat="43.57962" lon="3.34487">
        <ele>308</ele>
        <time>2015-11-22T07:30:39Z</time>
      </trkpt>
      <trkpt lat="43.57962" lon="3.34484">
        <ele>309</ele>
        <time>2015-11-22T07:30:40Z</time>
      </trkpt>
      <trkpt lat="43.57962" lon="3.34481">
        <ele>310</ele>
        <time>2015-11-22T07:30:41Z</time>
      </trkpt>
      <trkpt lat="43.57962" lon="3.34479">
        <ele>310.5</ele>
        <time>2015-11-22T07:30:42Z</time>
      </trkpt>
      <trkpt lat="43.57962" lon="3.34477">
        <ele>311</ele>
        <time>2015-11-22T07:30:43Z</time>
      </trkpt>
      <trkpt lat="43.57961" lon="3.34475">
        <ele>311.5</ele>
        <time>2015-11-22T07:30:44Z</time>
      </trkpt>
      <trkpt lat="43.57961" lon="3.34473">
        <ele>312</ele>
        <time>2015-11-22T07:30:45Z</time>
      </trkpt>
      <trkpt lat="43.57961" lon="3.3447">
        <ele>311.5</ele>
        <time>2015-11-22T07:30:46Z</time>
      </trkpt>
      <trkpt lat="43.57961" lon="3.34467">
        <ele>311.5</ele>
        <time>2015-11-22T07:30:47Z</time>
      </trkpt>
      <trkpt lat="43.5796" lon="3.34464">
        <ele>311.5</ele>
        <time>2015-11-22T07:30:48Z</time>
      </trkpt>
      <trkpt lat="43.5796" lon="3.34461">
        <ele>312.5</ele>
        <time>2015-11-22T07:30:49Z</time>
      </trkpt>
      <trkpt lat="43.57959" lon="3.34459">
        <ele>313</ele>
        <time>2015-11-22T07:30:50Z</time>
      </trkpt>
      <trkpt lat="43.57959" lon="3.34456">
        <ele>313</ele>
        <time>2015-11-22T07:30:51Z</time>
      </trkpt>
      <trkpt lat="43.57959" lon="3.34454">
        <ele>313.5</ele>
        <time>2015-11-22T07:30:52Z</time>
      </trkpt>
      <trkpt lat="43.57958" lon="3.34452">
        <ele>314.5</ele>
        <time>2015-11-22T07:30:53Z</time>
      </trkpt>
      <trkpt lat="43.57958" lon="3.3445">
        <ele>315</ele>
        <time>2015-11-22T07:30:54Z</time>
      </trkpt>
      <trkpt lat="43.57958" lon="3.34447">
        <ele>315</ele>
        <time>2015-11-22T07:30:55Z</time>
      </trkpt>
      <trkpt lat="43.57958" lon="3.34445">
        <ele>315.5</ele>
        <time>2015-11-22T07:30:56Z</time>
      </trkpt>
      <trkpt lat="43.57958" lon="3.34442">
        <ele>315.5</ele>
        <time>2015-11-22T07:30:57Z</time>
      </trkpt>
      <trkpt lat="43.57957" lon="3.34439">
        <ele>315.5</ele>
        <time>2015-11-22T07:30:58Z</time>
      </trkpt>
      <trkpt lat="43.57957" lon="3.34436">
        <ele>316</ele>
        <time>2015-11-22T07:30:59Z</time>
      </trkpt>
      <trkpt lat="43.57957" lon="3.34433">
        <ele>316.5</ele>
        <time>2015-11-22T07:31:00Z</time>
      </trkpt>
      <trkpt lat="43.57957" lon="3.34431">
        <ele>317</ele>
        <time>2015-11-22T07:31:01Z</time>
      </trkpt>
      <trkpt lat="43.57958" lon="3.34428">
        <ele>317</ele>
        <time>2015-11-22T07:31:02Z</time>
      </trkpt>
      <trkpt lat="43.57958" lon="3.34425">
        <ele>317</ele>
        <time>2015-11-22T07:31:03Z</time>
      </trkpt>
      <trkpt lat="43.57958" lon="3.34423">
        <ele>317</ele>
        <time>2015-11-22T07:31:04Z</time>
      </trkpt>
      <trkpt lat="43.57958" lon="3.3442">
        <ele>317.5</ele>
        <time>2015-11-22T07:31:05Z</time>
      </trkpt>
      <trkpt lat="43.57959" lon="3.34418">
        <ele>318</ele>
        <time>2015-11-22T07:31:06Z</time>
      </trkpt>
      <trkpt lat="43.57959" lon="3.34415">
        <ele>318</ele>
        <time>2015-11-22T07:31:07Z</time>
      </trkpt>
      <trkpt lat="43.57959" lon="3.34412">
        <ele>318</ele>
        <time>2015-11-22T07:31:08Z</time>
      </trkpt>
      <trkpt lat="43.5796" lon="3.3441">
        <ele>318</ele>
        <time>2015-11-22T07:31:09Z</time>
      </trkpt>
      <trkpt lat="43.5796" lon="3.34407">
        <ele>318</ele>
        <time>2015-11-22T07:31:10Z</time>
      </trkpt>
      <trkpt lat="43.5796" lon="3.34405">
        <ele>318.5</ele>
        <time>2015-11-22T07:31:11Z</time>
      </trkpt>
      <trkpt lat="43.57961" lon="3.34402">
        <ele>318.5</ele>
        <time>2015-11-22T07:31:12Z</time>
      </trkpt>
      <trkpt lat="43.57961" lon="3.344">
        <ele>318.5</ele>
        <time>2015-11-22T07:31:13Z</time>
      </trkpt>
      <trkpt lat="43.57961" lon="3.34397">
        <ele>318.5</ele>
        <time>2015-11-22T07:31:14Z</time>
      </trkpt>
      <trkpt lat="43.57962" lon="3.34394">
        <ele>318</ele>
        <time>2015-11-22T07:31:15Z</time>
      </trkpt>
      <trkpt lat="43.57962" lon="3.34392">
        <ele>318</ele>
        <time>2015-11-22T07:31:16Z</time>
      </trkpt>
      <trkpt lat="43.57963" lon="3.34388">
        <ele>317.5</ele>
        <time>2015-11-22T07:31:17Z</time>
      </trkpt>
      <trkpt lat="43.57964" lon="3.34385">
        <ele>316.5</ele>
        <time>2015-11-22T07:31:18Z</time>
      </trkpt>
      <trkpt lat="43.57965" lon="3.34381">
        <ele>316.5</ele>
        <time>2015-11-22T07:31:19Z</time>
      </trkpt>
      <trkpt lat="43.57965" lon="3.34379">
        <ele>317</ele>
        <time>2015-11-22T07:31:20Z</time>
      </trkpt>
      <trkpt lat="43.57966" lon="3.34376">
        <ele>317.5</ele>
        <time>2015-11-22T07:31:21Z</time>
      </trkpt>
      <trkpt lat="43.57966" lon="3.34374">
        <ele>318</ele>
        <time>2015-11-22T07:31:22Z</time>
      </trkpt>
      <trkpt lat="43.57966" lon="3.34372">
        <ele>318.5</ele>
        <time>2015-11-22T07:31:23Z</time>
      </trkpt>
      <trkpt lat="43.57967" lon="3.34369">
        <ele>319</ele>
        <time>2015-11-22T07:31:24Z</time>
      </trkpt>
      <trkpt lat="43.57967" lon="3.34367">
        <ele>318.5</ele>
        <time>2015-11-22T07:31:25Z</time>
      </trkpt>
      <trkpt lat="43.57968" lon="3.34364">
        <ele>317</ele>
        <time>2015-11-22T07:31:26Z</time>
      </trkpt>
      <trkpt lat="43.57968" lon="3.34362">
        <ele>317.5</ele>
        <time>2015-11-22T07:31:27Z</time>
      </trkpt>
      <trkpt lat="43.57969" lon="3.34359">
        <ele>318</ele>
        <time>2015-11-22T07:31:28Z</time>
      </trkpt>
      <trkpt lat="43.57969" lon="3.34357">
        <ele>317.5</ele>
        <time>2015-11-22T07:31:29Z</time>
      </trkpt>
      <trkpt lat="43.5797" lon="3.34355">
        <ele>318</ele>
        <time>2015-11-22T07:31:30Z</time>
      </trkpt>
      <trkpt lat="43.57971" lon="3.34353">
        <ele>318</ele>
        <time>2015-11-22T07:31:31Z</time>
      </trkpt>
      <trkpt lat="43.57971" lon="3.3435">
        <ele>318.5</ele>
        <time>2015-11-22T07:31:32Z</time>
      </trkpt>
      <trkpt lat="43.57972" lon="3.34348">
        <ele>318.5</ele>
        <time>2015-11-22T07:31:33Z</time>
      </trkpt>
      <trkpt lat="43.57972" lon="3.34345">
        <ele>318.5</ele>
        <time>2015-11-22T07:31:34Z</time>
      </trkpt>
      <trkpt lat="43.57973" lon="3.34342">
        <ele>318.5</ele>
        <time>2015-11-22T07:31:35Z</time>
      </trkpt>
      <trkpt lat="43.57974" lon="3.3434">
        <ele>318.5</ele>
        <time>2015-11-22T07:31:36Z</time>
      </trkpt>
      <trkpt lat="43.57975" lon="3.34338">
        <ele>318.5</ele>
        <time>2015-11-22T07:31:37Z</time>
      </trkpt>
      <trkpt lat="43.57976" lon="3.34335">
        <ele>319.5</ele>
        <time>2015-11-22T07:31:38Z</time>
      </trkpt>
      <trkpt lat="43.57976" lon="3.34333">
        <ele>320</ele>
        <time>2015-11-22T07:31:39Z</time>
      </trkpt>
      <trkpt lat="43.57977" lon="3.34331">
        <ele>320.5</ele>
        <time>2015-11-22T07:31:40Z</time>
      </trkpt>
      <trkpt lat="43.57978" lon="3.34329">
        <ele>321.5</ele>
        <time>2015-11-22T07:31:41Z</time>
      </trkpt>
      <trkpt lat="43.57978" lon="3.34327">
        <ele>320.5</ele>
        <time>2015-11-22T07:31:42Z</time>
      </trkpt>
      <trkpt lat="43.57979" lon="3.34324">
        <ele>320.5</ele>
        <time>2015-11-22T07:31:43Z</time>
      </trkpt>
      <trkpt lat="43.5798" lon="3.34322">
        <ele>321</ele>
        <time>2015-11-22T07:31:44Z</time>
      </trkpt>
      <trkpt lat="43.5798" lon="3.3432">
        <ele>321</ele>
        <time>2015-11-22T07:31:45Z</time>
      </trkpt>
      <trkpt lat="43.57981" lon="3.34318">
        <ele>322.5</ele>
        <time>2015-11-22T07:31:46Z</time>
      </trkpt>
      <trkpt lat="43.57981" lon="3.34316">
        <ele>323</ele>
        <time>2015-11-22T07:31:47Z</time>
      </trkpt>
      <trkpt lat="43.57982" lon="3.34313">
        <ele>323</ele>
        <time>2015-11-22T07:31:48Z</time>
      </trkpt>
      <trkpt lat="43.57983" lon="3.3431">
        <ele>322</ele>
        <time>2015-11-22T07:31:49Z</time>
      </trkpt>
      <trkpt lat="43.57984" lon="3.34308">
        <ele>321.5</ele>
        <time>2015-11-22T07:31:50Z</time>
      </trkpt>
      <trkpt lat="43.57985" lon="3.34305">
        <ele>322.5</ele>
        <time>2015-11-22T07:31:51Z</time>
      </trkpt>
      <trkpt lat="43.57986" lon="3.34303">
        <ele>323.5</ele>
        <time>2015-11-22T07:31:52Z</time>
      </trkpt>
      <trkpt lat="43.57987" lon="3.34301">
        <ele>324.5</ele>
        <time>2015-11-22T07:31:53Z</time>
      </trkpt>
      <trkpt lat="43.57989" lon="3.34299">
        <ele>325</ele>
        <time>2015-11-22T07:31:54Z</time>
      </trkpt>
      <trkpt lat="43.57989" lon="3.34297">
        <ele>325.5</ele>
        <time>2015-11-22T07:31:55Z</time>
      </trkpt>
      <trkpt lat="43.57991" lon="3.34294">
        <ele>324.5</ele>
        <time>2015-11-22T07:31:56Z</time>
      </trkpt>
      <trkpt lat="43.57992" lon="3.34291">
        <ele>324</ele>
        <time>2015-11-22T07:31:57Z</time>
      </trkpt>
      <trkpt lat="43.57993" lon="3.34289">
        <ele>323.5</ele>
        <time>2015-11-22T07:31:58Z</time>
      </trkpt>
      <trkpt lat="43.57995" lon="3.34287">
        <ele>323.5</ele>
        <time>2015-11-22T07:31:59Z</time>
      </trkpt>
      <trkpt lat="43.57996" lon="3.34285">
        <ele>321</ele>
        <time>2015-11-22T07:32:00Z</time>
      </trkpt>
      <trkpt lat="43.57998" lon="3.34283">
        <ele>322</ele>
        <time>2015-11-22T07:32:01Z</time>
      </trkpt>
      <trkpt lat="43.57999" lon="3.34281">
        <ele>323.5</ele>
        <time>2015-11-22T07:32:02Z</time>
      </trkpt>
      <trkpt lat="43.58" lon="3.3428">
        <ele>324</ele>
        <time>2015-11-22T07:32:03Z</time>
      </trkpt>
      <trkpt lat="43.58002" lon="3.34279">
        <ele>324.5</ele>
        <time>2015-11-22T07:32:04Z</time>
      </trkpt>
      <trkpt lat="43.58003" lon="3.34278">
        <ele>326</ele>
        <time>2015-11-22T07:32:05Z</time>
      </trkpt>
      <trkpt lat="43.58003" lon="3.34276">
        <ele>327</ele>
        <time>2015-11-22T07:32:06Z</time>
      </trkpt>
      <trkpt lat="43.58004" lon="3.34275">
        <ele>327.5</ele>
        <time>2015-11-22T07:32:07Z</time>
      </trkpt>
      <trkpt lat="43.58006" lon="3.34274">
        <ele>327.5</ele>
        <time>2015-11-22T07:32:08Z</time>
      </trkpt>
      <trkpt lat="43.58007" lon="3.34272">
        <ele>328.5</ele>
        <time>2015-11-22T07:32:09Z</time>
      </trkpt>
      <trkpt lat="43.58008" lon="3.3427">
        <ele>329</ele>
        <time>2015-11-22T07:32:10Z</time>
      </trkpt>
      <trkpt lat="43.58009" lon="3.34268">
        <ele>330</ele>
        <time>2015-11-22T07:32:11Z</time>
      </trkpt>
      <trkpt lat="43.5801" lon="3.34267">
        <ele>330.5</ele>
        <time>2015-11-22T07:32:12Z</time>
      </trkpt>
      <trkpt lat="43.58011" lon="3.34265">
        <ele>331</ele>
        <time>2015-11-22T07:32:13Z</time>
      </trkpt>
      <trkpt lat="43.58013" lon="3.34264">
        <ele>331.5</ele>
        <time>2015-11-22T07:32:14Z</time>
      </trkpt>
      <trkpt lat="43.58014" lon="3.34262">
        <ele>332.5</ele>
        <time>2015-11-22T07:32:15Z</time>
      </trkpt>
      <trkpt lat="43.58015" lon="3.34261">
        <ele>333</ele>
        <time>2015-11-22T07:32:15Z</time>
      </trkpt>
      <trkpt lat="43.58017" lon="3.34259">
        <ele>333.5</ele>
        <time>2015-11-22T07:32:17Z</time>
      </trkpt>
      <trkpt lat="43.58018" lon="3.34258">
        <ele>334.5</ele>
        <time>2015-11-22T07:32:17Z</time>
      </trkpt>
      <trkpt lat="43.58019" lon="3.34257">
        <ele>334.5</ele>
        <time>2015-11-22T07:32:18Z</time>
      </trkpt>
      <trkpt lat="43.5802" lon="3.34257">
        <ele>335.5</ele>
        <time>2015-11-22T07:32:20Z</time>
      </trkpt>
      <trkpt lat="43.58021" lon="3.34255">
        <ele>336</ele>
        <time>2015-11-22T07:32:21Z</time>
      </trkpt>
      <trkpt lat="43.58023" lon="3.34253">
        <ele>336.5</ele>
        <time>2015-11-22T07:32:21Z</time>
      </trkpt>
      <trkpt lat="43.58024" lon="3.34252">
        <ele>337.5</ele>
        <time>2015-11-22T07:32:22Z</time>
      </trkpt>
      <trkpt lat="43.58025" lon="3.34251">
        <ele>338</ele>
        <time>2015-11-22T07:32:23Z</time>
      </trkpt>
      <trkpt lat="43.58026" lon="3.34249">
        <ele>338</ele>
        <time>2015-11-22T07:32:24Z</time>
      </trkpt>
      <trkpt lat="43.58028" lon="3.34248">
        <ele>338.5</ele>
        <time>2015-11-22T07:32:25Z</time>
      </trkpt>
      <trkpt lat="43.58029" lon="3.34247">
        <ele>339</ele>
        <time>2015-11-22T07:32:26Z</time>
      </trkpt>
      <trkpt lat="43.58031" lon="3.34246">
        <ele>339</ele>
        <time>2015-11-22T07:32:27Z</time>
      </trkpt>
      <trkpt lat="43.58033" lon="3.34245">
        <ele>339.5</ele>
        <time>2015-11-22T07:32:29Z</time>
      </trkpt>
      <trkpt lat="43.58035" lon="3.34244">
        <ele>339</ele>
        <time>2015-11-22T07:32:29Z</time>
      </trkpt>
      <trkpt lat="43.58036" lon="3.34244">
        <ele>340</ele>
        <time>2015-11-22T07:32:30Z</time>
      </trkpt>
      <trkpt lat="43.58038" lon="3.34243">
        <ele>340</ele>
        <time>2015-11-22T07:32:31Z</time>
      </trkpt>
      <trkpt lat="43.5804" lon="3.34243">
        <ele>339.5</ele>
        <time>2015-11-22T07:32:32Z</time>
      </trkpt>
      <trkpt lat="43.58041" lon="3.34242">
        <ele>340</ele>
        <time>2015-11-22T07:32:33Z</time>
      </trkpt>
      <trkpt lat="43.58043" lon="3.34241">
        <ele>339</ele>
        <time>2015-11-22T07:32:34Z</time>
      </trkpt>
      <trkpt lat="43.58045" lon="3.3424">
        <ele>339.5</ele>
        <time>2015-11-22T07:32:35Z</time>
      </trkpt>
      <trkpt lat="43.58046" lon="3.34239">
        <ele>339.5</ele>
        <time>2015-11-22T07:33:52Z</time>
      </trkpt>
      <trkpt lat="43.58051" lon="3.34239">
        <ele>339.5</ele>
        <time>2015-11-22T07:33:53Z</time>
      </trkpt>
      <trkpt lat="43.58052" lon="3.34238">
        <ele>341.5</ele>
        <time>2015-11-22T07:33:54Z</time>
      </trkpt>
      <trkpt lat="43.58054" lon="3.34236">
        <ele>341.5</ele>
        <time>2015-11-22T07:33:55Z</time>
      </trkpt>
      <trkpt lat="43.58055" lon="3.34235">
        <ele>342.5</ele>
        <time>2015-11-22T07:33:56Z</time>
      </trkpt>
      <trkpt lat="43.58057" lon="3.34235">
        <ele>343</ele>
        <time>2015-11-22T07:33:57Z</time>
      </trkpt>
      <trkpt lat="43.58059" lon="3.34234">
        <ele>345</ele>
        <time>2015-11-22T07:33:58Z</time>
      </trkpt>
      <trkpt lat="43.5806" lon="3.34233">
        <ele>345.5</ele>
        <time>2015-11-22T07:33:59Z</time>
      </trkpt>
      <trkpt lat="43.58062" lon="3.34233">
        <ele>347.5</ele>
        <time>2015-11-22T07:34:00Z</time>
      </trkpt>
      <trkpt lat="43.58063" lon="3.34233">
        <ele>347.5</ele>
        <time>2015-11-22T07:34:01Z</time>
      </trkpt>
      <trkpt lat="43.58064" lon="3.34232">
        <ele>347</ele>
        <time>2015-11-22T07:34:02Z</time>
      </trkpt>
      <trkpt lat="43.58066" lon="3.34231">
        <ele>347.5</ele>
        <time>2015-11-22T07:34:03Z</time>
      </trkpt>
      <trkpt lat="43.58067" lon="3.34229">
        <ele>348.5</ele>
        <time>2015-11-22T07:34:04Z</time>
      </trkpt>
      <trkpt lat="43.5807" lon="3.34229">
        <ele>348</ele>
        <time>2015-11-22T07:34:05Z</time>
      </trkpt>
      <trkpt lat="43.58072" lon="3.34228">
        <ele>347.5</ele>
        <time>2015-11-22T07:34:06Z</time>
      </trkpt>
      <trkpt lat="43.58074" lon="3.34229">
        <ele>348</ele>
        <time>2015-11-22T07:34:07Z</time>
      </trkpt>
      <trkpt lat="43.58077" lon="3.34229">
        <ele>348.5</ele>
        <time>2015-11-22T07:34:08Z</time>
      </trkpt>
      <trkpt lat="43.58078" lon="3.34229">
        <ele>348</ele>
        <time>2015-11-22T07:34:09Z</time>
      </trkpt>
      <trkpt lat="43.5808" lon="3.34229">
        <ele>348.5</ele>
        <time>2015-11-22T07:34:10Z</time>
      </trkpt>
      <trkpt lat="43.58082" lon="3.34229">
        <ele>348.5</ele>
        <time>2015-11-22T07:34:11Z</time>
      </trkpt>
      <trkpt lat="43.58084" lon="3.34228">
        <ele>348.5</ele>
        <time>2015-11-22T07:34:12Z</time>
      </trkpt>
      <trkpt lat="43.58086" lon="3.34229">
        <ele>348.5</ele>
        <time>2015-11-22T07:34:13Z</time>
      </trkpt>
      <trkpt lat="43.58088" lon="3.3423">
        <ele>348.5</ele>
        <time>2015-11-22T07:34:14Z</time>
      </trkpt>
      <trkpt lat="43.5809" lon="3.3423">
        <ele>349</ele>
        <time>2015-11-22T07:34:15Z</time>
      </trkpt>
      <trkpt lat="43.58091" lon="3.34229">
        <ele>348.5</ele>
        <time>2015-11-22T07:34:16Z</time>
      </trkpt>
      <trkpt lat="43.58092" lon="3.34228">
        <ele>349.5</ele>
        <time>2015-11-22T07:34:17Z</time>
      </trkpt>
      <trkpt lat="43.58094" lon="3.34229">
        <ele>350.5</ele>
        <time>2015-11-22T07:34:18Z</time>
      </trkpt>
      <trkpt lat="43.58095" lon="3.3423">
        <ele>351</ele>
        <time>2015-11-22T07:34:19Z</time>
      </trkpt>
      <trkpt lat="43.58096" lon="3.34231">
        <ele>352</ele>
        <time>2015-11-22T07:34:20Z</time>
      </trkpt>
      <trkpt lat="43.58098" lon="3.34232">
        <ele>353</ele>
        <time>2015-11-22T07:34:21Z</time>
      </trkpt>
      <trkpt lat="43.58099" lon="3.34233">
        <ele>352.5</ele>
        <time>2015-11-22T07:34:22Z</time>
      </trkpt>
      <trkpt lat="43.58099" lon="3.34234">
        <ele>352</ele>
        <time>2015-11-22T07:34:23Z</time>
      </trkpt>
      <trkpt lat="43.581" lon="3.34236">
        <ele>352</ele>
        <time>2015-11-22T07:34:24Z</time>
      </trkpt>
      <trkpt lat="43.58101" lon="3.34238">
        <ele>351.5</ele>
        <time>2015-11-22T07:34:25Z</time>
      </trkpt>
      <trkpt lat="43.58102" lon="3.3424">
        <ele>351.5</ele>
        <time>2015-11-22T07:34:26Z</time>
      </trkpt>
      <trkpt lat="43.58102" lon="3.34243">
        <ele>351.5</ele>
        <time>2015-11-22T07:34:27Z</time>
      </trkpt>
      <trkpt lat="43.58102" lon="3.34245">
        <ele>351.5</ele>
        <time>2015-11-22T07:34:28Z</time>
      </trkpt>
      <trkpt lat="43.58103" lon="3.34248">
        <ele>351.5</ele>
        <time>2015-11-22T07:34:29Z</time>
      </trkpt>
      <trkpt lat="43.58103" lon="3.3425">
        <ele>351.5</ele>
        <time>2015-11-22T07:34:30Z</time>
      </trkpt>
      <trkpt lat="43.58104" lon="3.34253">
        <ele>351.5</ele>
        <time>2015-11-22T07:34:31Z</time>
      </trkpt>
      <trkpt lat="43.58104" lon="3.34255">
        <ele>353</ele>
        <time>2015-11-22T07:34:32Z</time>
      </trkpt>
      <trkpt lat="43.58104" lon="3.34259">
        <ele>353.5</ele>
        <time>2015-11-22T07:34:33Z</time>
      </trkpt>
      <trkpt lat="43.58105" lon="3.34262">
        <ele>353.5</ele>
        <time>2015-11-22T07:34:34Z</time>
      </trkpt>
      <trkpt lat="43.58106" lon="3.34264">
        <ele>353.5</ele>
        <time>2015-11-22T07:34:35Z</time>
      </trkpt>
      <trkpt lat="43.58109" lon="3.34271">
        <ele>353.5</ele>
        <time>2015-11-22T07:34:37Z</time>
      </trkpt>
      <trkpt lat="43.5811" lon="3.34273">
        <ele>354</ele>
        <time>2015-11-22T07:34:38Z</time>
      </trkpt>
      <trkpt lat="43.5811" lon="3.34275">
        <ele>354</ele>
        <time>2015-11-22T07:34:39Z</time>
      </trkpt>
      <trkpt lat="43.58111" lon="3.34278">
        <ele>354.5</ele>
        <time>2015-11-22T07:34:40Z</time>
      </trkpt>
      <trkpt lat="43.58111" lon="3.3428">
        <ele>354</ele>
        <time>2015-11-22T07:34:41Z</time>
      </trkpt>
      <trkpt lat="43.58112" lon="3.34283">
        <ele>354</ele>
        <time>2015-11-22T07:34:42Z</time>
      </trkpt>
      <trkpt lat="43.58113" lon="3.34286">
        <ele>354</ele>
        <time>2015-11-22T07:34:43Z</time>
      </trkpt>
      <trkpt lat="43.58114" lon="3.34288">
        <ele>353.5</ele>
        <time>2015-11-22T07:34:44Z</time>
      </trkpt>
      <trkpt lat="43.58115" lon="3.34291">
        <ele>353.5</ele>
        <time>2015-11-22T07:34:45Z</time>
      </trkpt>
      <trkpt lat="43.58116" lon="3.34294">
        <ele>353.5</ele>
        <time>2015-11-22T07:34:46Z</time>
      </trkpt>
      <trkpt lat="43.58117" lon="3.34297">
        <ele>354</ele>
        <time>2015-11-22T07:34:47Z</time>
      </trkpt>
      <trkpt lat="43.58118" lon="3.34299">
        <ele>354</ele>
        <time>2015-11-22T07:34:48Z</time>
      </trkpt>
      <trkpt lat="43.58119" lon="3.34301">
        <ele>354.5</ele>
        <time>2015-11-22T07:34:49Z</time>
      </trkpt>
      <trkpt lat="43.58119" lon="3.34303">
        <ele>354</ele>
        <time>2015-11-22T07:34:50Z</time>
      </trkpt>
      <trkpt lat="43.5812" lon="3.34305">
        <ele>354</ele>
        <time>2015-11-22T07:34:51Z</time>
      </trkpt>
      <trkpt lat="43.58121" lon="3.34307">
        <ele>353.5</ele>
        <time>2015-11-22T07:34:52Z</time>
      </trkpt>
      <trkpt lat="43.58122" lon="3.34309">
        <ele>353.5</ele>
        <time>2015-11-22T07:34:53Z</time>
      </trkpt>
      <trkpt lat="43.58123" lon="3.34311">
        <ele>352</ele>
        <time>2015-11-22T07:34:54Z</time>
      </trkpt>
      <trkpt lat="43.58124" lon="3.34314">
        <ele>352.5</ele>
        <time>2015-11-22T07:34:55Z</time>
      </trkpt>
      <trkpt lat="43.58125" lon="3.34315">
        <ele>351.5</ele>
        <time>2015-11-22T07:34:56Z</time>
      </trkpt>
      <trkpt lat="43.58126" lon="3.34317">
        <ele>350.5</ele>
        <time>2015-11-22T07:34:57Z</time>
      </trkpt>
      <trkpt lat="43.58127" lon="3.34318">
        <ele>349</ele>
        <time>2015-11-22T07:34:58Z</time>
      </trkpt>
      <trkpt lat="43.58128" lon="3.34321">
        <ele>350</ele>
        <time>2015-11-22T07:34:59Z</time>
      </trkpt>
      <trkpt lat="43.58129" lon="3.34324">
        <ele>351.5</ele>
        <time>2015-11-22T07:35:00Z</time>
      </trkpt>
      <trkpt lat="43.58129" lon="3.34327">
        <ele>353.5</ele>
        <time>2015-11-22T07:35:01Z</time>
      </trkpt>
      <trkpt lat="43.5813" lon="3.3433">
        <ele>355</ele>
        <time>2015-11-22T07:35:02Z</time>
      </trkpt>
      <trkpt lat="43.58131" lon="3.34332">
        <ele>356</ele>
        <time>2015-11-22T07:35:03Z</time>
      </trkpt>
      <trkpt lat="43.58132" lon="3.34334">
        <ele>357</ele>
        <time>2015-11-22T07:35:04Z</time>
      </trkpt>
      <trkpt lat="43.58133" lon="3.34336">
        <ele>357.5</ele>
        <time>2015-11-22T07:35:05Z</time>
      </trkpt>
      <trkpt lat="43.58133" lon="3.34338">
        <ele>358</ele>
        <time>2015-11-22T07:35:06Z</time>
      </trkpt>
      <trkpt lat="43.58134" lon="3.3434">
        <ele>358.5</ele>
        <time>2015-11-22T07:35:07Z</time>
      </trkpt>
      <trkpt lat="43.58135" lon="3.34342">
        <ele>358</ele>
        <time>2015-11-22T07:35:08Z</time>
      </trkpt>
      <trkpt lat="43.58135" lon="3.34344">
        <ele>357.5</ele>
        <time>2015-11-22T07:35:09Z</time>
      </trkpt>
      <trkpt lat="43.58136" lon="3.34346">
        <ele>357</ele>
        <time>2015-11-22T07:35:10Z</time>
      </trkpt>
      <trkpt lat="43.58137" lon="3.34348">
        <ele>357</ele>
        <time>2015-11-22T07:35:11Z</time>
      </trkpt>
      <trkpt lat="43.58138" lon="3.3435">
        <ele>357.5</ele>
        <time>2015-11-22T07:35:12Z</time>
      </trkpt>
      <trkpt lat="43.58139" lon="3.34352">
        <ele>358</ele>
        <time>2015-11-22T07:35:13Z</time>
      </trkpt>
      <trkpt lat="43.58139" lon="3.34354">
        <ele>358</ele>
        <time>2015-11-22T07:35:14Z</time>
      </trkpt>
      <trkpt lat="43.5814" lon="3.34356">
        <ele>358</ele>
        <time>2015-11-22T07:35:15Z</time>
      </trkpt>
      <trkpt lat="43.58141" lon="3.34358">
        <ele>358</ele>
        <time>2015-11-22T07:35:16Z</time>
      </trkpt>
      <trkpt lat="43.58142" lon="3.3436">
        <ele>358.5</ele>
        <time>2015-11-22T07:35:17Z</time>
      </trkpt>
      <trkpt lat="43.58143" lon="3.34363">
        <ele>359</ele>
        <time>2015-11-22T07:35:18Z</time>
      </trkpt>
      <trkpt lat="43.58144" lon="3.34365">
        <ele>359</ele>
        <time>2015-11-22T07:35:19Z</time>
      </trkpt>
      <trkpt lat="43.58144" lon="3.34367">
        <ele>359</ele>
        <time>2015-11-22T07:35:20Z</time>
      </trkpt>
      <trkpt lat="43.58145" lon="3.34369">
        <ele>358.5</ele>
        <time>2015-11-22T07:35:21Z</time>
      </trkpt>
      <trkpt lat="43.58146" lon="3.3437">
        <ele>358</ele>
        <time>2015-11-22T07:35:22Z</time>
      </trkpt>
      <trkpt lat="43.58148" lon="3.34372">
        <ele>357.5</ele>
        <time>2015-11-22T07:35:23Z</time>
      </trkpt>
      <trkpt lat="43.58149" lon="3.34373">
        <ele>357.5</ele>
        <time>2015-11-22T07:35:24Z</time>
      </trkpt>
      <trkpt lat="43.5815" lon="3.34375">
        <ele>357</ele>
        <time>2015-11-22T07:35:25Z</time>
      </trkpt>
      <trkpt lat="43.58151" lon="3.34377">
        <ele>357.5</ele>
        <time>2015-11-22T07:35:26Z</time>
      </trkpt>
      <trkpt lat="43.58152" lon="3.34379">
        <ele>358.5</ele>
        <time>2015-11-22T07:35:27Z</time>
      </trkpt>
      <trkpt lat="43.58153" lon="3.34379">
        <ele>358</ele>
        <time>2015-11-22T07:35:28Z</time>
      </trkpt>
      <trkpt lat="43.58154" lon="3.34381">
        <ele>358</ele>
        <time>2015-11-22T07:35:29Z</time>
      </trkpt>
      <trkpt lat="43.58155" lon="3.34383">
        <ele>358</ele>
        <time>2015-11-22T07:35:30Z</time>
      </trkpt>
      <trkpt lat="43.58156" lon="3.34385">
        <ele>358</ele>
        <time>2015-11-22T07:35:31Z</time>
      </trkpt>
      <trkpt lat="43.58157" lon="3.34386">
        <ele>358.5</ele>
        <time>2015-11-22T07:35:32Z</time>
      </trkpt>
      <trkpt lat="43.58158" lon="3.34388">
        <ele>359</ele>
        <time>2015-11-22T07:35:33Z</time>
      </trkpt>
      <trkpt lat="43.58159" lon="3.34389">
        <ele>360</ele>
        <time>2015-11-22T07:35:34Z</time>
      </trkpt>
      <trkpt lat="43.5816" lon="3.34391">
        <ele>359.5</ele>
        <time>2015-11-22T07:35:35Z</time>
      </trkpt>
      <trkpt lat="43.58161" lon="3.34392">
        <ele>359.5</ele>
        <time>2015-11-22T07:35:36Z</time>
      </trkpt>
      <trkpt lat="43.58162" lon="3.34393">
        <ele>359.5</ele>
        <time>2015-11-22T07:35:37Z</time>
      </trkpt>
      <trkpt lat="43.58163" lon="3.34395">
        <ele>359</ele>
        <time>2015-11-22T07:35:38Z</time>
      </trkpt>
      <trkpt lat="43.58164" lon="3.34396">
        <ele>359.5</ele>
        <time>2015-11-22T07:35:39Z</time>
      </trkpt>
      <trkpt lat="43.58165" lon="3.34398">
        <ele>359.5</ele>
        <time>2015-11-22T07:35:40Z</time>
      </trkpt>
      <trkpt lat="43.58166" lon="3.34399">
        <ele>360</ele>
        <time>2015-11-22T07:35:41Z</time>
      </trkpt>
      <trkpt lat="43.58166" lon="3.344">
        <ele>360.5</ele>
        <time>2015-11-22T07:35:42Z</time>
      </trkpt>
      <trkpt lat="43.58167" lon="3.34401">
        <ele>360.5</ele>
        <time>2015-11-22T07:35:43Z</time>
      </trkpt>
      <trkpt lat="43.58168" lon="3.34402">
        <ele>361</ele>
        <time>2015-11-22T07:35:44Z</time>
      </trkpt>
      <trkpt lat="43.58169" lon="3.34403">
        <ele>362.5</ele>
        <time>2015-11-22T07:35:45Z</time>
      </trkpt>
      <trkpt lat="43.58169" lon="3.34404">
        <ele>363.5</ele>
        <time>2015-11-22T07:35:46Z</time>
      </trkpt>
      <trkpt lat="43.5817" lon="3.34405">
        <ele>364.5</ele>
        <time>2015-11-22T07:35:47Z</time>
      </trkpt>
      <trkpt lat="43.58171" lon="3.34406">
        <ele>365</ele>
        <time>2015-11-22T07:35:48Z</time>
      </trkpt>
      <trkpt lat="43.58172" lon="3.34407">
        <ele>365.5</ele>
        <time>2015-11-22T07:35:49Z</time>
      </trkpt>
      <trkpt lat="43.58173" lon="3.34408">
        <ele>366.5</ele>
        <time>2015-11-22T07:35:50Z</time>
      </trkpt>
      <trkpt lat="43.58174" lon="3.3441">
        <ele>367.5</ele>
        <time>2015-11-22T07:35:51Z</time>
      </trkpt>
      <trkpt lat="43.58175" lon="3.34411">
        <ele>367.5</ele>
        <time>2015-11-22T07:35:52Z</time>
      </trkpt>
      <trkpt lat="43.58176" lon="3.34413">
        <ele>368</ele>
        <time>2015-11-22T07:35:53Z</time>
      </trkpt>
      <trkpt lat="43.58177" lon="3.34415">
        <ele>367.5</ele>
        <time>2015-11-22T07:35:54Z</time>
      </trkpt>
      <trkpt lat="43.58179" lon="3.34416">
        <ele>369.5</ele>
        <time>2015-11-22T07:35:55Z</time>
      </trkpt>
      <trkpt lat="43.5818" lon="3.34418">
        <ele>370.5</ele>
        <time>2015-11-22T07:35:55Z</time>
      </trkpt>
      <trkpt lat="43.58181" lon="3.34419">
        <ele>370.5</ele>
        <time>2015-11-22T07:35:57Z</time>
      </trkpt>
      <trkpt lat="43.58182" lon="3.3442">
        <ele>370.5</ele>
        <time>2015-11-22T07:35:57Z</time>
      </trkpt>
      <trkpt lat="43.58183" lon="3.34422">
        <ele>371</ele>
        <time>2015-11-22T07:35:59Z</time>
      </trkpt>
      <trkpt lat="43.58184" lon="3.34424">
        <ele>371.5</ele>
        <time>2015-11-22T07:35:59Z</time>
      </trkpt>
      <trkpt lat="43.58186" lon="3.34425">
        <ele>371.5</ele>
        <time>2015-11-22T07:36:01Z</time>
      </trkpt>
      <trkpt lat="43.58187" lon="3.34427">
        <ele>371.5</ele>
        <time>2015-11-22T07:36:01Z</time>
      </trkpt>
      <trkpt lat="43.58189" lon="3.34428">
        <ele>372</ele>
        <time>2015-11-22T07:36:02Z</time>
      </trkpt>
      <trkpt lat="43.5819" lon="3.3443">
        <ele>373</ele>
        <time>2015-11-22T07:36:03Z</time>
      </trkpt>
      <trkpt lat="43.58191" lon="3.34431">
        <ele>373</ele>
        <time>2015-11-22T07:36:04Z</time>
      </trkpt>
      <trkpt lat="43.58192" lon="3.34432">
        <ele>373.5</ele>
        <time>2015-11-22T07:36:05Z</time>
      </trkpt>
      <trkpt lat="43.58193" lon="3.34433">
        <ele>374</ele>
        <time>2015-11-22T07:36:06Z</time>
      </trkpt>
      <trkpt lat="43.58195" lon="3.34435">
        <ele>373</ele>
        <time>2015-11-22T07:36:07Z</time>
      </trkpt>
      <trkpt lat="43.58197" lon="3.34436">
        <ele>373</ele>
        <time>2015-11-22T07:36:08Z</time>
      </trkpt>
      <trkpt lat="43.58198" lon="3.34437">
        <ele>373.5</ele>
        <time>2015-11-22T07:36:09Z</time>
      </trkpt>
      <trkpt lat="43.582" lon="3.34438">
        <ele>374</ele>
        <time>2015-11-22T07:36:10Z</time>
      </trkpt>
      <trkpt lat="43.58201" lon="3.34439">
        <ele>374.5</ele>
        <time>2015-11-22T07:36:11Z</time>
      </trkpt>
      <trkpt lat="43.58203" lon="3.3444">
        <ele>374.5</ele>
        <time>2015-11-22T07:36:12Z</time>
      </trkpt>
      <trkpt lat="43.58204" lon="3.3444">
        <ele>374</ele>
        <time>2015-11-22T07:36:13Z</time>
      </trkpt>
      <trkpt lat="43.58206" lon="3.34441">
        <ele>374.5</ele>
        <time>2015-11-22T07:36:14Z</time>
      </trkpt>
      <trkpt lat="43.58208" lon="3.34442">
        <ele>375</ele>
        <time>2015-11-22T07:36:15Z</time>
      </trkpt>
      <trkpt lat="43.5821" lon="3.34442">
        <ele>375</ele>
        <time>2015-11-22T07:36:16Z</time>
      </trkpt>
      <trkpt lat="43.58211" lon="3.34442">
        <ele>375.5</ele>
        <time>2015-11-22T07:36:17Z</time>
      </trkpt>
      <trkpt lat="43.58213" lon="3.34443">
        <ele>375.5</ele>
        <time>2015-11-22T07:36:18Z</time>
      </trkpt>
      <trkpt lat="43.58214" lon="3.34443">
        <ele>376</ele>
        <time>2015-11-22T07:36:19Z</time>
      </trkpt>
      <trkpt lat="43.58216" lon="3.34444">
        <ele>375.5</ele>
        <time>2015-11-22T07:36:20Z</time>
      </trkpt>
      <trkpt lat="43.58218" lon="3.34444">
        <ele>375</ele>
        <time>2015-11-22T07:36:21Z</time>
      </trkpt>
      <trkpt lat="43.58219" lon="3.34445">
        <ele>375.5</ele>
        <time>2015-11-22T07:36:22Z</time>
      </trkpt>
      <trkpt lat="43.58221" lon="3.34446">
        <ele>375.5</ele>
        <time>2015-11-22T07:36:24Z</time>
      </trkpt>
      <trkpt lat="43.58223" lon="3.34446">
        <ele>375.5</ele>
        <time>2015-11-22T07:36:25Z</time>
      </trkpt>
      <trkpt lat="43.58224" lon="3.34446">
        <ele>375.5</ele>
        <time>2015-11-22T07:36:25Z</time>
      </trkpt>
      <trkpt lat="43.58226" lon="3.34447">
        <ele>375</ele>
        <time>2015-11-22T07:36:26Z</time>
      </trkpt>
      <trkpt lat="43.58228" lon="3.34448">
        <ele>374.5</ele>
        <time>2015-11-22T07:36:27Z</time>
      </trkpt>
      <trkpt lat="43.58229" lon="3.34448">
        <ele>375</ele>
        <time>2015-11-22T07:36:28Z</time>
      </trkpt>
      <trkpt lat="43.58231" lon="3.34449">
        <ele>375</ele>
        <time>2015-11-22T07:36:29Z</time>
      </trkpt>
      <trkpt lat="43.58233" lon="3.3445">
        <ele>375</ele>
        <time>2015-11-22T07:36:30Z</time>
      </trkpt>
      <trkpt lat="43.58234" lon="3.34451">
        <ele>375.5</ele>
        <time>2015-11-22T07:36:31Z</time>
      </trkpt>
      <trkpt lat="43.58236" lon="3.34451">
        <ele>375.5</ele>
        <time>2015-11-22T07:36:32Z</time>
      </trkpt>
      <trkpt lat="43.58238" lon="3.34449">
        <ele>374</ele>
        <time>2015-11-22T07:36:33Z</time>
      </trkpt>
      <trkpt lat="43.5824" lon="3.3445">
        <ele>373.5</ele>
        <time>2015-11-22T07:36:34Z</time>
      </trkpt>
      <trkpt lat="43.58242" lon="3.3445">
        <ele>373</ele>
        <time>2015-11-22T07:36:35Z</time>
      </trkpt>
      <trkpt lat="43.58244" lon="3.34449">
        <ele>373</ele>
        <time>2015-11-22T07:36:36Z</time>
      </trkpt>
      <trkpt lat="43.58245" lon="3.34449">
        <ele>373.5</ele>
        <time>2015-11-22T07:36:37Z</time>
      </trkpt>
      <trkpt lat="43.58248" lon="3.3445">
        <ele>372.5</ele>
        <time>2015-11-22T07:36:38Z</time>
      </trkpt>
      <trkpt lat="43.5825" lon="3.34451">
        <ele>372</ele>
        <time>2015-11-22T07:36:39Z</time>
      </trkpt>
      <trkpt lat="43.58252" lon="3.34451">
        <ele>371.5</ele>
        <time>2015-11-22T07:36:40Z</time>
      </trkpt>
      <trkpt lat="43.58254" lon="3.34451">
        <ele>371</ele>
        <time>2015-11-22T07:36:41Z</time>
      </trkpt>
      <trkpt lat="43.58255" lon="3.3445">
        <ele>370.5</ele>
        <time>2015-11-22T07:36:42Z</time>
      </trkpt>
      <trkpt lat="43.58257" lon="3.3445">
        <ele>370.5</ele>
        <time>2015-11-22T07:36:43Z</time>
      </trkpt>
      <trkpt lat="43.58259" lon="3.34449">
        <ele>371</ele>
        <time>2015-11-22T07:36:44Z</time>
      </trkpt>
      <trkpt lat="43.5826" lon="3.34448">
        <ele>370.5</ele>
        <time>2015-11-22T07:36:45Z</time>
      </trkpt>
      <trkpt lat="43.58262" lon="3.34447">
        <ele>370.5</ele>
        <time>2015-11-22T07:36:46Z</time>
      </trkpt>
      <trkpt lat="43.58263" lon="3.34446">
        <ele>371</ele>
        <time>2015-11-22T07:36:47Z</time>
      </trkpt>
      <trkpt lat="43.58265" lon="3.34445">
        <ele>371</ele>
        <time>2015-11-22T07:36:48Z</time>
      </trkpt>
      <trkpt lat="43.58267" lon="3.34444">
        <ele>371</ele>
        <time>2015-11-22T07:36:49Z</time>
      </trkpt>
      <trkpt lat="43.58268" lon="3.34443">
        <ele>371.5</ele>
        <time>2015-11-22T07:36:50Z</time>
      </trkpt>
      <trkpt lat="43.58269" lon="3.34442">
        <ele>371.5</ele>
        <time>2015-11-22T07:36:51Z</time>
      </trkpt>
      <trkpt lat="43.58271" lon="3.34442">
        <ele>371</ele>
        <time>2015-11-22T07:36:52Z</time>
      </trkpt>
      <trkpt lat="43.58273" lon="3.34441">
        <ele>370.5</ele>
        <time>2015-11-22T07:36:53Z</time>
      </trkpt>
      <trkpt lat="43.58274" lon="3.3444">
        <ele>370.5</ele>
        <time>2015-11-22T07:36:54Z</time>
      </trkpt>
      <trkpt lat="43.58275" lon="3.34438">
        <ele>370</ele>
        <time>2015-11-22T07:36:55Z</time>
      </trkpt>
      <trkpt lat="43.58276" lon="3.34436">
        <ele>370.5</ele>
        <time>2015-11-22T07:36:56Z</time>
      </trkpt>
      <trkpt lat="43.58277" lon="3.34434">
        <ele>370.5</ele>
        <time>2015-11-22T07:36:57Z</time>
      </trkpt>
      <trkpt lat="43.58277" lon="3.34432">
        <ele>370</ele>
        <time>2015-11-22T07:36:58Z</time>
      </trkpt>
      <trkpt lat="43.58276" lon="3.34431">
        <ele>370.5</ele>
        <time>2015-11-22T07:36:59Z</time>
      </trkpt>
      <trkpt lat="43.58276" lon="3.3443">
        <ele>370</ele>
        <time>2015-11-22T07:37:00Z</time>
      </trkpt>
      <trkpt lat="43.58275" lon="3.3443">
        <ele>370</ele>
        <time>2015-11-22T07:37:02Z</time>
      </trkpt>
      <trkpt lat="43.58272" lon="3.34432">
        <ele>369.5</ele>
        <time>2015-11-22T07:37:03Z</time>
      </trkpt>
      <trkpt lat="43.58271" lon="3.34431">
        <ele>369</ele>
        <time>2015-11-22T07:37:04Z</time>
      </trkpt>
      <trkpt lat="43.5827" lon="3.34431">
        <ele>369</ele>
        <time>2015-11-22T07:37:05Z</time>
      </trkpt>
      <trkpt lat="43.58269" lon="3.34431">
        <ele>369.5</ele>
        <time>2015-11-22T07:37:06Z</time>
      </trkpt>
      <trkpt lat="43.58267" lon="3.3443">
        <ele>369.5</ele>
        <time>2015-11-22T07:37:07Z</time>
      </trkpt>
      <trkpt lat="43.58266" lon="3.3443">
        <ele>369.5</ele>
        <time>2015-11-22T07:37:08Z</time>
      </trkpt>
      <trkpt lat="43.58265" lon="3.34429">
        <ele>369.5</ele>
        <time>2015-11-22T07:37:09Z</time>
      </trkpt>
      <trkpt lat="43.58264" lon="3.34429">
        <ele>369.5</ele>
        <time>2015-11-22T07:37:10Z</time>
      </trkpt>
      <trkpt lat="43.58263" lon="3.34428">
        <ele>370</ele>
        <time>2015-11-22T07:37:11Z</time>
      </trkpt>
      <trkpt lat="43.58262" lon="3.34428">
        <ele>370</ele>
        <time>2015-11-22T07:37:12Z</time>
      </trkpt>
      <trkpt lat="43.58261" lon="3.34427">
        <ele>370.5</ele>
        <time>2015-11-22T07:37:13Z</time>
      </trkpt>
      <trkpt lat="43.5826" lon="3.34426">
        <ele>370.5</ele>
        <time>2015-11-22T07:37:14Z</time>
      </trkpt>
      <trkpt lat="43.58259" lon="3.34425">
        <ele>370.5</ele>
        <time>2015-11-22T07:37:15Z</time>
      </trkpt>
      <trkpt lat="43.58258" lon="3.34424">
        <ele>370.5</ele>
        <time>2015-11-22T07:37:16Z</time>
      </trkpt>
      <trkpt lat="43.58256" lon="3.34423">
        <ele>371</ele>
        <time>2015-11-22T07:37:17Z</time>
      </trkpt>
      <trkpt lat="43.58255" lon="3.34422">
        <ele>371.5</ele>
        <time>2015-11-22T07:37:18Z</time>
      </trkpt>
      <trkpt lat="43.58254" lon="3.34421">
        <ele>372</ele>
        <time>2015-11-22T07:37:19Z</time>
      </trkpt>
      <trkpt lat="43.58253" lon="3.3442">
        <ele>372</ele>
        <time>2015-11-22T07:37:20Z</time>
      </trkpt>
      <trkpt lat="43.58252" lon="3.34418">
        <ele>372.5</ele>
        <time>2015-11-22T07:37:21Z</time>
      </trkpt>
      <trkpt lat="43.58251" lon="3.34417">
        <ele>372.5</ele>
        <time>2015-11-22T07:37:22Z</time>
      </trkpt>
      <trkpt lat="43.5825" lon="3.34415">
        <ele>373</ele>
        <time>2015-11-22T07:37:23Z</time>
      </trkpt>
      <trkpt lat="43.58249" lon="3.34414">
        <ele>373</ele>
        <time>2015-11-22T07:37:24Z</time>
      </trkpt>
      <trkpt lat="43.58248" lon="3.34412">
        <ele>373.5</ele>
        <time>2015-11-22T07:37:25Z</time>
      </trkpt>
      <trkpt lat="43.58248" lon="3.3441">
        <ele>373.5</ele>
        <time>2015-11-22T07:37:26Z</time>
      </trkpt>
      <trkpt lat="43.58247" lon="3.34408">
        <ele>373.5</ele>
        <time>2015-11-22T07:37:27Z</time>
      </trkpt>
      <trkpt lat="43.58246" lon="3.34406">
        <ele>374</ele>
        <time>2015-11-22T07:37:28Z</time>
      </trkpt>
      <trkpt lat="43.58245" lon="3.34404">
        <ele>374</ele>
        <time>2015-11-22T07:37:29Z</time>
      </trkpt>
      <trkpt lat="43.58244" lon="3.34402">
        <ele>374</ele>
        <time>2015-11-22T07:37:30Z</time>
      </trkpt>
      <trkpt lat="43.58243" lon="3.344">
        <ele>374.5</ele>
        <time>2015-11-22T07:37:31Z</time>
      </trkpt>
      <trkpt lat="43.58243" lon="3.34398">
        <ele>374.5</ele>
        <time>2015-11-22T07:37:32Z</time>
      </trkpt>
      <trkpt lat="43.58242" lon="3.34396">
        <ele>375</ele>
        <time>2015-11-22T07:37:33Z</time>
      </trkpt>
      <trkpt lat="43.58241" lon="3.34394">
        <ele>375</ele>
        <time>2015-11-22T07:37:34Z</time>
      </trkpt>
      <trkpt lat="43.5824" lon="3.34391">
        <ele>375.5</ele>
        <time>2015-11-22T07:37:35Z</time>
      </trkpt>
      <trkpt lat="43.58239" lon="3.34389">
        <ele>375.5</ele>
        <time>2015-11-22T07:37:36Z</time>
      </trkpt>
      <trkpt lat="43.58239" lon="3.34387">
        <ele>376</ele>
        <time>2015-11-22T07:37:37Z</time>
      </trkpt>
      <trkpt lat="43.58238" lon="3.34385">
        <ele>376</ele>
        <time>2015-11-22T07:37:38Z</time>
      </trkpt>
      <trkpt lat="43.58238" lon="3.34383">
        <ele>376.5</ele>
        <time>2015-11-22T07:37:39Z</time>
      </trkpt>
      <trkpt lat="43.58237" lon="3.34382">
        <ele>376.5</ele>
        <time>2015-11-22T07:37:40Z</time>
      </trkpt>
      <trkpt lat="43.58236" lon="3.3438">
        <ele>377</ele>
        <time>2015-11-22T07:37:41Z</time>
      </trkpt>
      <trkpt lat="43.58235" lon="3.34377">
        <ele>377</ele>
        <time>2015-11-22T07:37:42Z</time>
      </trkpt>
      <trkpt lat="43.58234" lon="3.34377">
        <ele>377</ele>
        <time>2015-11-22T07:37:43Z</time>
      </trkpt>
      <trkpt lat="43.58233" lon="3.34376">
        <ele>377.5</ele>
        <time>2015-11-22T07:37:44Z</time>
      </trkpt>
      <trkpt lat="43.58232" lon="3.34373">
        <ele>378</ele>
        <time>2015-11-22T07:37:45Z</time>
      </trkpt>
      <trkpt lat="43.58231" lon="3.34371">
        <ele>378</ele>
        <time>2015-11-22T07:37:46Z</time>
      </trkpt>
      <trkpt lat="43.5823" lon="3.34369">
        <ele>378.5</ele>
        <time>2015-11-22T07:37:47Z</time>
      </trkpt>
      <trkpt lat="43.58229" lon="3.34367">
        <ele>378.5</ele>
        <time>2015-11-22T07:37:48Z</time>
      </trkpt>
      <trkpt lat="43.58228" lon="3.34364">
        <ele>378.5</ele>
        <time>2015-11-22T07:37:49Z</time>
      </trkpt>
      <trkpt lat="43.58227" lon="3.34361">
        <ele>378.5</ele>
        <time>2015-11-22T07:37:50Z</time>
      </trkpt>
      <trkpt lat="43.58227" lon="3.34359">
        <ele>378.5</ele>
        <time>2015-11-22T07:37:51Z</time>
      </trkpt>
      <trkpt lat="43.58226" lon="3.34356">
        <ele>378.5</ele>
        <time>2015-11-22T07:37:52Z</time>
      </trkpt>
      <trkpt lat="43.58225" lon="3.34353">
        <ele>379</ele>
        <time>2015-11-22T07:37:53Z</time>
      </trkpt>
      <trkpt lat="43.58225" lon="3.3435">
        <ele>379</ele>
        <time>2015-11-22T07:37:54Z</time>
      </trkpt>
      <trkpt lat="43.58225" lon="3.34347">
        <ele>379</ele>
        <time>2015-11-22T07:37:55Z</time>
      </trkpt>
      <trkpt lat="43.58224" lon="3.34344">
        <ele>379</ele>
        <time>2015-11-22T07:37:56Z</time>
      </trkpt>
      <trkpt lat="43.58224" lon="3.34341">
        <ele>379</ele>
        <time>2015-11-22T07:37:57Z</time>
      </trkpt>
      <trkpt lat="43.58223" lon="3.34338">
        <ele>379</ele>
        <time>2015-11-22T07:37:58Z</time>
      </trkpt>
      <trkpt lat="43.58223" lon="3.34336">
        <ele>379</ele>
        <time>2015-11-22T07:37:59Z</time>
      </trkpt>
      <trkpt lat="43.58223" lon="3.34332">
        <ele>379</ele>
        <time>2015-11-22T07:38:00Z</time>
      </trkpt>
      <trkpt lat="43.58222" lon="3.34329">
        <ele>379</ele>
        <time>2015-11-22T07:38:01Z</time>
      </trkpt>
      <trkpt lat="43.58222" lon="3.34326">
        <ele>379</ele>
        <time>2015-11-22T07:38:02Z</time>
      </trkpt>
      <trkpt lat="43.58222" lon="3.34323">
        <ele>379</ele>
        <time>2015-11-22T07:38:03Z</time>
      </trkpt>
      <trkpt lat="43.58222" lon="3.3432">
        <ele>378.5</ele>
        <time>2015-11-22T07:38:04Z</time>
      </trkpt>
      <trkpt lat="43.58222" lon="3.34318">
        <ele>378</ele>
        <time>2015-11-22T07:38:05Z</time>
      </trkpt>
      <trkpt lat="43.58221" lon="3.34315">
        <ele>378</ele>
        <time>2015-11-22T07:38:06Z</time>
      </trkpt>
      <trkpt lat="43.58221" lon="3.34312">
        <ele>378.5</ele>
        <time>2015-11-22T07:38:07Z</time>
      </trkpt>
      <trkpt lat="43.58221" lon="3.34309">
        <ele>378.5</ele>
        <time>2015-11-22T07:38:08Z</time>
      </trkpt>
      <trkpt lat="43.58221" lon="3.34307">
        <ele>378.5</ele>
        <time>2015-11-22T07:38:09Z</time>
      </trkpt>
      <trkpt lat="43.58221" lon="3.34304">
        <ele>378.5</ele>
        <time>2015-11-22T07:38:10Z</time>
      </trkpt>
      <trkpt lat="43.58221" lon="3.34301">
        <ele>378</ele>
        <time>2015-11-22T07:38:11Z</time>
      </trkpt>
      <trkpt lat="43.58221" lon="3.34299">
        <ele>378</ele>
        <time>2015-11-22T07:38:12Z</time>
      </trkpt>
      <trkpt lat="43.58221" lon="3.34296">
        <ele>378</ele>
        <time>2015-11-22T07:38:13Z</time>
      </trkpt>
      <trkpt lat="43.58221" lon="3.34293">
        <ele>378</ele>
        <time>2015-11-22T07:38:14Z</time>
      </trkpt>
      <trkpt lat="43.58221" lon="3.34291">
        <ele>378</ele>
        <time>2015-11-22T07:38:15Z</time>
      </trkpt>
      <trkpt lat="43.58221" lon="3.34289">
        <ele>378</ele>
        <time>2015-11-22T07:38:16Z</time>
      </trkpt>
      <trkpt lat="43.5822" lon="3.34287">
        <ele>378.5</ele>
        <time>2015-11-22T07:38:17Z</time>
      </trkpt>
      <trkpt lat="43.5822" lon="3.34285">
        <ele>378.5</ele>
        <time>2015-11-22T07:38:18Z</time>
      </trkpt>
      <trkpt lat="43.58219" lon="3.34283">
        <ele>379.5</ele>
        <time>2015-11-22T07:38:19Z</time>
      </trkpt>
      <trkpt lat="43.58219" lon="3.3428">
        <ele>379.5</ele>
        <time>2015-11-22T07:38:20Z</time>
      </trkpt>
      <trkpt lat="43.58219" lon="3.34278">
        <ele>380</ele>
        <time>2015-11-22T07:38:21Z</time>
      </trkpt>
      <trkpt lat="43.58219" lon="3.34275">
        <ele>380</ele>
        <time>2015-11-22T07:38:22Z</time>
      </trkpt>
      <trkpt lat="43.58219" lon="3.34273">
        <ele>380</ele>
        <time>2015-11-22T07:38:23Z</time>
      </trkpt>
      <trkpt lat="43.58219" lon="3.3427">
        <ele>380.5</ele>
        <time>2015-11-22T07:38:23Z</time>
      </trkpt>
      <trkpt lat="43.58219" lon="3.34267">
        <ele>380.5</ele>
        <time>2015-11-22T07:38:24Z</time>
      </trkpt>
      <trkpt lat="43.58219" lon="3.34265">
        <ele>381</ele>
        <time>2015-11-22T07:38:25Z</time>
      </trkpt>
      <trkpt lat="43.58219" lon="3.34263">
        <ele>381</ele>
        <time>2015-11-22T07:38:26Z</time>
      </trkpt>
      <trkpt lat="43.58219" lon="3.3426">
        <ele>381</ele>
        <time>2015-11-22T07:38:27Z</time>
      </trkpt>
      <trkpt lat="43.58219" lon="3.34257">
        <ele>381.5</ele>
        <time>2015-11-22T07:38:28Z</time>
      </trkpt>
      <trkpt lat="43.58219" lon="3.34252">
        <ele>381</ele>
        <time>2015-11-22T07:38:30Z</time>
      </trkpt>
      <trkpt lat="43.58219" lon="3.34249">
        <ele>381</ele>
        <time>2015-11-22T07:38:31Z</time>
      </trkpt>
      <trkpt lat="43.58219" lon="3.34247">
        <ele>381</ele>
        <time>2015-11-22T07:38:32Z</time>
      </trkpt>
      <trkpt lat="43.58219" lon="3.34244">
        <ele>381.5</ele>
        <time>2015-11-22T07:38:33Z</time>
      </trkpt>
      <trkpt lat="43.58219" lon="3.34241">
        <ele>381.5</ele>
        <time>2015-11-22T07:38:34Z</time>
      </trkpt>
      <trkpt lat="43.58219" lon="3.34238">
        <ele>381.5</ele>
        <time>2015-11-22T07:38:35Z</time>
      </trkpt>
      <trkpt lat="43.58219" lon="3.34236">
        <ele>381.5</ele>
        <time>2015-11-22T07:38:36Z</time>
      </trkpt>
      <trkpt lat="43.58219" lon="3.34233">
        <ele>381.5</ele>
        <time>2015-11-22T07:38:37Z</time>
      </trkpt>
      <trkpt lat="43.5822" lon="3.3423">
        <ele>381.5</ele>
        <time>2015-11-22T07:38:38Z</time>
      </trkpt>
      <trkpt lat="43.5822" lon="3.34228">
        <ele>382</ele>
        <time>2015-11-22T07:38:39Z</time>
      </trkpt>
      <trkpt lat="43.5822" lon="3.34226">
        <ele>382</ele>
        <time>2015-11-22T07:38:40Z</time>
      </trkpt>
      <trkpt lat="43.58221" lon="3.34223">
        <ele>382</ele>
        <time>2015-11-22T07:38:41Z</time>
      </trkpt>
      <trkpt lat="43.58221" lon="3.34221">
        <ele>382.5</ele>
        <time>2015-11-22T07:38:42Z</time>
      </trkpt>
      <trkpt lat="43.58221" lon="3.34219">
        <ele>382.5</ele>
        <time>2015-11-22T07:38:43Z</time>
      </trkpt>
      <trkpt lat="43.58221" lon="3.34218">
        <ele>383.5</ele>
        <time>2015-11-22T07:38:44Z</time>
      </trkpt>
      <trkpt lat="43.58222" lon="3.34216">
        <ele>383.5</ele>
        <time>2015-11-22T07:38:45Z</time>
      </trkpt>
      <trkpt lat="43.58223" lon="3.34214">
        <ele>384</ele>
        <time>2015-11-22T07:38:46Z</time>
      </trkpt>
      <trkpt lat="43.58223" lon="3.34212">
        <ele>384.5</ele>
        <time>2015-11-22T07:38:47Z</time>
      </trkpt>
      <trkpt lat="43.58223" lon="3.3421">
        <ele>385</ele>
        <time>2015-11-22T07:38:48Z</time>
      </trkpt>
      <trkpt lat="43.58223" lon="3.34209">
        <ele>386</ele>
        <time>2015-11-22T07:38:49Z</time>
      </trkpt>
      <trkpt lat="43.58224" lon="3.34207">
        <ele>386.5</ele>
        <time>2015-11-22T07:38:50Z</time>
      </trkpt>
      <trkpt lat="43.58225" lon="3.34205">
        <ele>387</ele>
        <time>2015-11-22T07:38:51Z</time>
      </trkpt>
      <trkpt lat="43.58225" lon="3.34203">
        <ele>387</ele>
        <time>2015-11-22T07:38:52Z</time>
      </trkpt>
      <trkpt lat="43.58226" lon="3.34201">
        <ele>387</ele>
        <time>2015-11-22T07:38:53Z</time>
      </trkpt>
      <trkpt lat="43.58228" lon="3.34199">
        <ele>387</ele>
        <time>2015-11-22T07:38:54Z</time>
      </trkpt>
      <trkpt lat="43.58229" lon="3.34196">
        <ele>386.5</ele>
        <time>2015-11-22T07:38:55Z</time>
      </trkpt>
      <trkpt lat="43.58229" lon="3.34194">
        <ele>386.5</ele>
        <time>2015-11-22T07:38:56Z</time>
      </trkpt>
      <trkpt lat="43.5823" lon="3.34192">
        <ele>387</ele>
        <time>2015-11-22T07:38:57Z</time>
      </trkpt>
      <trkpt lat="43.58231" lon="3.3419">
        <ele>387</ele>
        <time>2015-11-22T07:38:58Z</time>
      </trkpt>
      <trkpt lat="43.58232" lon="3.34188">
        <ele>387</ele>
        <time>2015-11-22T07:38:59Z</time>
      </trkpt>
      <trkpt lat="43.58233" lon="3.34186">
        <ele>387.5</ele>
        <time>2015-11-22T07:39:00Z</time>
      </trkpt>
      <trkpt lat="43.58233" lon="3.34184">
        <ele>388</ele>
        <time>2015-11-22T07:39:01Z</time>
      </trkpt>
      <trkpt lat="43.58234" lon="3.34182">
        <ele>388.5</ele>
        <time>2015-11-22T07:39:02Z</time>
      </trkpt>
      <trkpt lat="43.58234" lon="3.3418">
        <ele>389.5</ele>
        <time>2015-11-22T07:39:03Z</time>
      </trkpt>
      <trkpt lat="43.58235" lon="3.34178">
        <ele>390</ele>
        <time>2015-11-22T07:39:04Z</time>
      </trkpt>
      <trkpt lat="43.58236" lon="3.34176">
        <ele>390</ele>
        <time>2015-11-22T07:39:05Z</time>
      </trkpt>
      <trkpt lat="43.58236" lon="3.34174">
        <ele>390</ele>
        <time>2015-11-22T07:39:06Z</time>
      </trkpt>
      <trkpt lat="43.58237" lon="3.34171">
        <ele>390</ele>
        <time>2015-11-22T07:39:07Z</time>
      </trkpt>
      <trkpt lat="43.58238" lon="3.34169">
        <ele>390.5</ele>
        <time>2015-11-22T07:39:08Z</time>
      </trkpt>
      <trkpt lat="43.58239" lon="3.34167">
        <ele>391</ele>
        <time>2015-11-22T07:39:09Z</time>
      </trkpt>
      <trkpt lat="43.5824" lon="3.34164">
        <ele>391.5</ele>
        <time>2015-11-22T07:39:10Z</time>
      </trkpt>
      <trkpt lat="43.58241" lon="3.34163">
        <ele>392.5</ele>
        <time>2015-11-22T07:39:11Z</time>
      </trkpt>
      <trkpt lat="43.58241" lon="3.34161">
        <ele>393</ele>
        <time>2015-11-22T07:39:12Z</time>
      </trkpt>
      <trkpt lat="43.58242" lon="3.34159">
        <ele>394</ele>
        <time>2015-11-22T07:39:13Z</time>
      </trkpt>
      <trkpt lat="43.58244" lon="3.34157">
        <ele>393.5</ele>
        <time>2015-11-22T07:39:14Z</time>
      </trkpt>
      <trkpt lat="43.58245" lon="3.34155">
        <ele>393.5</ele>
        <time>2015-11-22T07:39:15Z</time>
      </trkpt>
      <trkpt lat="43.58245" lon="3.34152">
        <ele>394</ele>
        <time>2015-11-22T07:39:16Z</time>
      </trkpt>
      <trkpt lat="43.58246" lon="3.3415">
        <ele>394.5</ele>
        <time>2015-11-22T07:39:17Z</time>
      </trkpt>
      <trkpt lat="43.58247" lon="3.34149">
        <ele>395</ele>
        <time>2015-11-22T07:39:18Z</time>
      </trkpt>
      <trkpt lat="43.58248" lon="3.34147">
        <ele>395.5</ele>
        <time>2015-11-22T07:39:19Z</time>
      </trkpt>
      <trkpt lat="43.58248" lon="3.34145">
        <ele>396</ele>
        <time>2015-11-22T07:39:20Z</time>
      </trkpt>
      <trkpt lat="43.58249" lon="3.34143">
        <ele>396.5</ele>
        <time>2015-11-22T07:39:21Z</time>
      </trkpt>
      <trkpt lat="43.5825" lon="3.34141">
        <ele>397</ele>
        <time>2015-11-22T07:39:22Z</time>
      </trkpt>
      <trkpt lat="43.58251" lon="3.34139">
        <ele>397.5</ele>
        <time>2015-11-22T07:39:23Z</time>
      </trkpt>
      <trkpt lat="43.58252" lon="3.34136">
        <ele>397.5</ele>
        <time>2015-11-22T07:39:24Z</time>
      </trkpt>
      <trkpt lat="43.58253" lon="3.34134">
        <ele>397.5</ele>
        <time>2015-11-22T07:39:25Z</time>
      </trkpt>
      <trkpt lat="43.58254" lon="3.34132">
        <ele>398</ele>
        <time>2015-11-22T07:39:26Z</time>
      </trkpt>
      <trkpt lat="43.58255" lon="3.3413">
        <ele>398</ele>
        <time>2015-11-22T07:39:27Z</time>
      </trkpt>
      <trkpt lat="43.58256" lon="3.34128">
        <ele>399</ele>
        <time>2015-11-22T07:39:28Z</time>
      </trkpt>
      <trkpt lat="43.58257" lon="3.34126">
        <ele>399</ele>
        <time>2015-11-22T07:39:29Z</time>
      </trkpt>
      <trkpt lat="43.58258" lon="3.34124">
        <ele>399</ele>
        <time>2015-11-22T07:39:30Z</time>
      </trkpt>
      <trkpt lat="43.5826" lon="3.34121">
        <ele>399</ele>
        <time>2015-11-22T07:39:31Z</time>
      </trkpt>
      <trkpt lat="43.58261" lon="3.34118">
        <ele>398.5</ele>
        <time>2015-11-22T07:39:32Z</time>
      </trkpt>
      <trkpt lat="43.58262" lon="3.34116">
        <ele>399</ele>
        <time>2015-11-22T07:39:33Z</time>
      </trkpt>
      <trkpt lat="43.58263" lon="3.34114">
        <ele>399</ele>
        <time>2015-11-22T07:39:34Z</time>
      </trkpt>
      <trkpt lat="43.58265" lon="3.34111">
        <ele>397.5</ele>
        <time>2015-11-22T07:39:35Z</time>
      </trkpt>
      <trkpt lat="43.58267" lon="3.34108">
        <ele>397.5</ele>
        <time>2015-11-22T07:39:36Z</time>
      </trkpt>
      <trkpt lat="43.58268" lon="3.34106">
        <ele>397.5</ele>
        <time>2015-11-22T07:39:37Z</time>
      </trkpt>
      <trkpt lat="43.58269" lon="3.34104">
        <ele>398</ele>
        <time>2015-11-22T07:39:38Z</time>
      </trkpt>
      <trkpt lat="43.58269" lon="3.34102">
        <ele>398.5</ele>
        <time>2015-11-22T07:39:39Z</time>
      </trkpt>
      <trkpt lat="43.5827" lon="3.341">
        <ele>399</ele>
        <time>2015-11-22T07:39:40Z</time>
      </trkpt>
      <trkpt lat="43.58271" lon="3.34097">
        <ele>399</ele>
        <time>2015-11-22T07:39:41Z</time>
      </trkpt>
      <trkpt lat="43.58272" lon="3.34095">
        <ele>399.5</ele>
        <time>2015-11-22T07:39:42Z</time>
      </trkpt>
      <trkpt lat="43.58273" lon="3.34092">
        <ele>400.5</ele>
        <time>2015-11-22T07:39:43Z</time>
      </trkpt>
      <trkpt lat="43.58273" lon="3.3409">
        <ele>401</ele>
        <time>2015-11-22T07:39:44Z</time>
      </trkpt>
      <trkpt lat="43.58274" lon="3.34087">
        <ele>401</ele>
        <time>2015-11-22T07:39:45Z</time>
      </trkpt>
      <trkpt lat="43.58274" lon="3.34085">
        <ele>401.5</ele>
        <time>2015-11-22T07:39:46Z</time>
      </trkpt>
      <trkpt lat="43.58274" lon="3.34082">
        <ele>401.5</ele>
        <time>2015-11-22T07:39:47Z</time>
      </trkpt>
      <trkpt lat="43.58274" lon="3.3408">
        <ele>402.5</ele>
        <time>2015-11-22T07:39:48Z</time>
      </trkpt>
      <trkpt lat="43.58274" lon="3.34078">
        <ele>402.5</ele>
        <time>2015-11-22T07:39:49Z</time>
      </trkpt>
      <trkpt lat="43.58273" lon="3.34075">
        <ele>402.5</ele>
        <time>2015-11-22T07:39:50Z</time>
      </trkpt>
      <trkpt lat="43.58272" lon="3.34073">
        <ele>403</ele>
        <time>2015-11-22T07:39:51Z</time>
      </trkpt>
      <trkpt lat="43.58271" lon="3.34071">
        <ele>403</ele>
        <time>2015-11-22T07:39:52Z</time>
      </trkpt>
      <trkpt lat="43.5827" lon="3.34069">
        <ele>403</ele>
        <time>2015-11-22T07:39:53Z</time>
      </trkpt>
      <trkpt lat="43.58268" lon="3.34067">
        <ele>403</ele>
        <time>2015-11-22T07:39:54Z</time>
      </trkpt>
      <trkpt lat="43.58267" lon="3.34066">
        <ele>403</ele>
        <time>2015-11-22T07:39:55Z</time>
      </trkpt>
      <trkpt lat="43.58265" lon="3.34065">
        <ele>403</ele>
        <time>2015-11-22T07:39:56Z</time>
      </trkpt>
      <trkpt lat="43.58263" lon="3.34063">
        <ele>402.5</ele>
        <time>2015-11-22T07:39:57Z</time>
      </trkpt>
      <trkpt lat="43.58261" lon="3.34061">
        <ele>402.5</ele>
        <time>2015-11-22T07:39:58Z</time>
      </trkpt>
      <trkpt lat="43.5826" lon="3.3406">
        <ele>402.5</ele>
        <time>2015-11-22T07:39:59Z</time>
      </trkpt>
      <trkpt lat="43.58258" lon="3.34058">
        <ele>403</ele>
        <time>2015-11-22T07:40:00Z</time>
      </trkpt>
      <trkpt lat="43.58257" lon="3.34057">
        <ele>403.5</ele>
        <time>2015-11-22T07:40:01Z</time>
      </trkpt>
      <trkpt lat="43.58255" lon="3.34056">
        <ele>403.5</ele>
        <time>2015-11-22T07:40:02Z</time>
      </trkpt>
      <trkpt lat="43.58254" lon="3.34054">
        <ele>403</ele>
        <time>2015-11-22T07:40:03Z</time>
      </trkpt>
      <trkpt lat="43.58253" lon="3.34052">
        <ele>403</ele>
        <time>2015-11-22T07:40:04Z</time>
      </trkpt>
      <trkpt lat="43.58251" lon="3.34051">
        <ele>402.5</ele>
        <time>2015-11-22T07:40:05Z</time>
      </trkpt>
      <trkpt lat="43.5825" lon="3.34049">
        <ele>403</ele>
        <time>2015-11-22T07:40:06Z</time>
      </trkpt>
      <trkpt lat="43.58249" lon="3.34047">
        <ele>403</ele>
        <time>2015-11-22T07:40:07Z</time>
      </trkpt>
      <trkpt lat="43.58247" lon="3.34045">
        <ele>404</ele>
        <time>2015-11-22T07:40:08Z</time>
      </trkpt>
      <trkpt lat="43.58246" lon="3.34043">
        <ele>404</ele>
        <time>2015-11-22T07:40:09Z</time>
      </trkpt>
      <trkpt lat="43.58245" lon="3.3404">
        <ele>404</ele>
        <time>2015-11-22T07:40:10Z</time>
      </trkpt>
      <trkpt lat="43.58244" lon="3.34038">
        <ele>404</ele>
        <time>2015-11-22T07:40:11Z</time>
      </trkpt>
      <trkpt lat="43.58243" lon="3.34036">
        <ele>404</ele>
        <time>2015-11-22T07:40:12Z</time>
      </trkpt>
      <trkpt lat="43.58242" lon="3.34034">
        <ele>404</ele>
        <time>2015-11-22T07:40:13Z</time>
      </trkpt>
      <trkpt lat="43.5824" lon="3.34032">
        <ele>404.5</ele>
        <time>2015-11-22T07:40:14Z</time>
      </trkpt>
      <trkpt lat="43.58239" lon="3.34029">
        <ele>404.5</ele>
        <time>2015-11-22T07:40:15Z</time>
      </trkpt>
      <trkpt lat="43.58237" lon="3.34027">
        <ele>404.5</ele>
        <time>2015-11-22T07:40:16Z</time>
      </trkpt>
      <trkpt lat="43.58236" lon="3.34024">
        <ele>405</ele>
        <time>2015-11-22T07:40:17Z</time>
      </trkpt>
      <trkpt lat="43.58235" lon="3.34022">
        <ele>405</ele>
        <time>2015-11-22T07:40:18Z</time>
      </trkpt>
      <trkpt lat="43.58233" lon="3.34019">
        <ele>405</ele>
        <time>2015-11-22T07:40:19Z</time>
      </trkpt>
      <trkpt lat="43.58232" lon="3.34017">
        <ele>406</ele>
        <time>2015-11-22T07:40:20Z</time>
      </trkpt>
      <trkpt lat="43.58231" lon="3.34014">
        <ele>406.5</ele>
        <time>2015-11-22T07:40:21Z</time>
      </trkpt>
      <trkpt lat="43.5823" lon="3.34012">
        <ele>407</ele>
        <time>2015-11-22T07:40:22Z</time>
      </trkpt>
      <trkpt lat="43.58228" lon="3.3401">
        <ele>407.5</ele>
        <time>2015-11-22T07:40:23Z</time>
      </trkpt>
      <trkpt lat="43.58227" lon="3.34008">
        <ele>407.5</ele>
        <time>2015-11-22T07:40:24Z</time>
      </trkpt>
      <trkpt lat="43.58226" lon="3.34005">
        <ele>407.5</ele>
        <time>2015-11-22T07:40:25Z</time>
      </trkpt>
      <trkpt lat="43.58224" lon="3.34003">
        <ele>408</ele>
        <time>2015-11-22T07:40:26Z</time>
      </trkpt>
      <trkpt lat="43.58222" lon="3.34001">
        <ele>408</ele>
        <time>2015-11-22T07:40:27Z</time>
      </trkpt>
      <trkpt lat="43.58221" lon="3.33999">
        <ele>408.5</ele>
        <time>2015-11-22T07:40:28Z</time>
      </trkpt>
      <trkpt lat="43.5822" lon="3.33997">
        <ele>409</ele>
        <time>2015-11-22T07:40:29Z</time>
      </trkpt>
      <trkpt lat="43.58218" lon="3.33995">
        <ele>409</ele>
        <time>2015-11-22T07:40:30Z</time>
      </trkpt>
      <trkpt lat="43.58217" lon="3.33992">
        <ele>410</ele>
        <time>2015-11-22T07:40:31Z</time>
      </trkpt>
      <trkpt lat="43.58216" lon="3.3399">
        <ele>409.5</ele>
        <time>2015-11-22T07:40:32Z</time>
      </trkpt>
      <trkpt lat="43.58215" lon="3.33987">
        <ele>409</ele>
        <time>2015-11-22T07:40:33Z</time>
      </trkpt>
      <trkpt lat="43.58214" lon="3.33984">
        <ele>408.5</ele>
        <time>2015-11-22T07:40:34Z</time>
      </trkpt>
      <trkpt lat="43.58212" lon="3.33981">
        <ele>408.5</ele>
        <time>2015-11-22T07:40:35Z</time>
      </trkpt>
      <trkpt lat="43.58211" lon="3.33979">
        <ele>408.5</ele>
        <time>2015-11-22T07:40:36Z</time>
      </trkpt>
      <trkpt lat="43.5821" lon="3.33976">
        <ele>409</ele>
        <time>2015-11-22T07:40:37Z</time>
      </trkpt>
      <trkpt lat="43.58209" lon="3.33974">
        <ele>408.5</ele>
        <time>2015-11-22T07:40:38Z</time>
      </trkpt>
      <trkpt lat="43.58208" lon="3.33971">
        <ele>408.5</ele>
        <time>2015-11-22T07:40:39Z</time>
      </trkpt>
      <trkpt lat="43.58207" lon="3.33968">
        <ele>408.5</ele>
        <time>2015-11-22T07:40:40Z</time>
      </trkpt>
      <trkpt lat="43.58206" lon="3.33965">
        <ele>408.5</ele>
        <time>2015-11-22T07:40:40Z</time>
      </trkpt>
      <trkpt lat="43.58205" lon="3.33962">
        <ele>408.5</ele>
        <time>2015-11-22T07:40:42Z</time>
      </trkpt>
      <trkpt lat="43.58205" lon="3.33959">
        <ele>408.5</ele>
        <time>2015-11-22T07:40:42Z</time>
      </trkpt>
      <trkpt lat="43.58204" lon="3.33956">
        <ele>408</ele>
        <time>2015-11-22T07:40:43Z</time>
      </trkpt>
      <trkpt lat="43.58204" lon="3.33952">
        <ele>408</ele>
        <time>2015-11-22T07:40:44Z</time>
      </trkpt>
      <trkpt lat="43.58203" lon="3.33949">
        <ele>408.5</ele>
        <time>2015-11-22T07:40:46Z</time>
      </trkpt>
      <trkpt lat="43.58203" lon="3.33946">
        <ele>408.5</ele>
        <time>2015-11-22T07:40:46Z</time>
      </trkpt>
      <trkpt lat="43.58202" lon="3.33944">
        <ele>409</ele>
        <time>2015-11-22T07:40:47Z</time>
      </trkpt>
      <trkpt lat="43.58202" lon="3.33941">
        <ele>408.5</ele>
        <time>2015-11-22T07:40:49Z</time>
      </trkpt>
      <trkpt lat="43.58203" lon="3.33938">
        <ele>408.5</ele>
        <time>2015-11-22T07:40:49Z</time>
      </trkpt>
      <trkpt lat="43.58203" lon="3.33936">
        <ele>408.5</ele>
        <time>2015-11-22T07:40:50Z</time>
      </trkpt>
      <trkpt lat="43.58203" lon="3.33934">
        <ele>408.5</ele>
        <time>2015-11-22T07:40:51Z</time>
      </trkpt>
      <trkpt lat="43.58203" lon="3.33932">
        <ele>408.5</ele>
        <time>2015-11-22T07:40:52Z</time>
      </trkpt>
      <trkpt lat="43.58203" lon="3.33929">
        <ele>408.5</ele>
        <time>2015-11-22T07:40:53Z</time>
      </trkpt>
      <trkpt lat="43.58204" lon="3.33927">
        <ele>408.5</ele>
        <time>2015-11-22T07:40:54Z</time>
      </trkpt>
      <trkpt lat="43.58204" lon="3.33924">
        <ele>408</ele>
        <time>2015-11-22T07:40:55Z</time>
      </trkpt>
      <trkpt lat="43.58204" lon="3.33921">
        <ele>408</ele>
        <time>2015-11-22T07:40:56Z</time>
      </trkpt>
      <trkpt lat="43.58204" lon="3.33918">
        <ele>408.5</ele>
        <time>2015-11-22T07:40:57Z</time>
      </trkpt>
      <trkpt lat="43.58204" lon="3.33915">
        <ele>408</ele>
        <time>2015-11-22T07:40:58Z</time>
      </trkpt>
      <trkpt lat="43.58204" lon="3.33912">
        <ele>408.5</ele>
        <time>2015-11-22T07:40:59Z</time>
      </trkpt>
      <trkpt lat="43.58205" lon="3.33909">
        <ele>408.5</ele>
        <time>2015-11-22T07:41:01Z</time>
      </trkpt>
      <trkpt lat="43.58205" lon="3.33906">
        <ele>409</ele>
        <time>2015-11-22T07:41:01Z</time>
      </trkpt>
      <trkpt lat="43.58205" lon="3.33905">
        <ele>409</ele>
        <time>2015-11-22T07:41:02Z</time>
      </trkpt>
      <trkpt lat="43.58206" lon="3.33902">
        <ele>409</ele>
        <time>2015-11-22T07:41:03Z</time>
      </trkpt>
      <trkpt lat="43.58206" lon="3.33899">
        <ele>410.5</ele>
        <time>2015-11-22T07:41:04Z</time>
      </trkpt>
      <trkpt lat="43.58207" lon="3.33897">
        <ele>411</ele>
        <time>2015-11-22T07:41:05Z</time>
      </trkpt>
      <trkpt lat="43.58208" lon="3.33894">
        <ele>411</ele>
        <time>2015-11-22T07:41:06Z</time>
      </trkpt>
      <trkpt lat="43.58208" lon="3.33892">
        <ele>411</ele>
        <time>2015-11-22T07:41:07Z</time>
      </trkpt>
      <trkpt lat="43.58209" lon="3.33889">
        <ele>410.5</ele>
        <time>2015-11-22T07:41:08Z</time>
      </trkpt>
      <trkpt lat="43.5821" lon="3.33886">
        <ele>410</ele>
        <time>2015-11-22T07:41:09Z</time>
      </trkpt>
      <trkpt lat="43.58211" lon="3.33883">
        <ele>410</ele>
        <time>2015-11-22T07:41:10Z</time>
      </trkpt>
      <trkpt lat="43.58211" lon="3.3388">
        <ele>410</ele>
        <time>2015-11-22T07:41:11Z</time>
      </trkpt>
      <trkpt lat="43.58212" lon="3.33877">
        <ele>410</ele>
        <time>2015-11-22T07:41:12Z</time>
      </trkpt>
      <trkpt lat="43.58213" lon="3.33875">
        <ele>410.5</ele>
        <time>2015-11-22T07:41:13Z</time>
      </trkpt>
      <trkpt lat="43.58214" lon="3.33873">
        <ele>410.5</ele>
        <time>2015-11-22T07:41:14Z</time>
      </trkpt>
      <trkpt lat="43.58215" lon="3.3387">
        <ele>411</ele>
        <time>2015-11-22T07:41:15Z</time>
      </trkpt>
      <trkpt lat="43.58215" lon="3.33868">
        <ele>412</ele>
        <time>2015-11-22T07:41:16Z</time>
      </trkpt>
      <trkpt lat="43.58216" lon="3.33865">
        <ele>412.5</ele>
        <time>2015-11-22T07:41:17Z</time>
      </trkpt>
      <trkpt lat="43.58218" lon="3.33862">
        <ele>413</ele>
        <time>2015-11-22T07:41:18Z</time>
      </trkpt>
      <trkpt lat="43.58219" lon="3.3386">
        <ele>413</ele>
        <time>2015-11-22T07:41:19Z</time>
      </trkpt>
      <trkpt lat="43.58219" lon="3.33858">
        <ele>414.5</ele>
        <time>2015-11-22T07:41:20Z</time>
      </trkpt>
      <trkpt lat="43.58219" lon="3.33856">
        <ele>415.5</ele>
        <time>2015-11-22T07:41:21Z</time>
      </trkpt>
      <trkpt lat="43.5822" lon="3.33854">
        <ele>416</ele>
        <time>2015-11-22T07:41:22Z</time>
      </trkpt>
      <trkpt lat="43.58221" lon="3.33851">
        <ele>416</ele>
        <time>2015-11-22T07:41:23Z</time>
      </trkpt>
      <trkpt lat="43.58222" lon="3.33848">
        <ele>416.5</ele>
        <time>2015-11-22T07:41:25Z</time>
      </trkpt>
      <trkpt lat="43.58223" lon="3.33845">
        <ele>416.5</ele>
        <time>2015-11-22T07:41:25Z</time>
      </trkpt>
      <trkpt lat="43.58223" lon="3.33843">
        <ele>417</ele>
        <time>2015-11-22T07:41:27Z</time>
      </trkpt>
      <trkpt lat="43.58225" lon="3.33837">
        <ele>417.5</ele>
        <time>2015-11-22T07:41:28Z</time>
      </trkpt>
      <trkpt lat="43.58225" lon="3.33835">
        <ele>417.5</ele>
        <time>2015-11-22T07:41:29Z</time>
      </trkpt>
      <trkpt lat="43.58225" lon="3.33832">
        <ele>418</ele>
        <time>2015-11-22T07:41:30Z</time>
      </trkpt>
      <trkpt lat="43.58225" lon="3.33831">
        <ele>418.5</ele>
        <time>2015-11-22T07:41:31Z</time>
      </trkpt>
      <trkpt lat="43.58226" lon="3.33824">
        <ele>418.5</ele>
        <time>2015-11-22T07:41:33Z</time>
      </trkpt>
      <trkpt lat="43.58226" lon="3.33821">
        <ele>420</ele>
        <time>2015-11-22T07:41:34Z</time>
      </trkpt>
      <trkpt lat="43.58226" lon="3.33818">
        <ele>421</ele>
        <time>2015-11-22T07:41:35Z</time>
      </trkpt>
      <trkpt lat="43.58227" lon="3.33815">
        <ele>421.5</ele>
        <time>2015-11-22T07:41:36Z</time>
      </trkpt>
      <trkpt lat="43.58227" lon="3.33812">
        <ele>422.5</ele>
        <time>2015-11-22T07:41:37Z</time>
      </trkpt>
      <trkpt lat="43.58227" lon="3.3381">
        <ele>423</ele>
        <time>2015-11-22T07:41:38Z</time>
      </trkpt>
      <trkpt lat="43.58227" lon="3.33807">
        <ele>423.5</ele>
        <time>2015-11-22T07:41:39Z</time>
      </trkpt>
      <trkpt lat="43.58227" lon="3.33805">
        <ele>424.5</ele>
        <time>2015-11-22T07:41:40Z</time>
      </trkpt>
      <trkpt lat="43.58227" lon="3.33802">
        <ele>424.5</ele>
        <time>2015-11-22T07:41:41Z</time>
      </trkpt>
      <trkpt lat="43.58227" lon="3.33801">
        <ele>425.5</ele>
        <time>2015-11-22T07:41:42Z</time>
      </trkpt>
      <trkpt lat="43.58228" lon="3.33798">
        <ele>425.5</ele>
        <time>2015-11-22T07:41:43Z</time>
      </trkpt>
      <trkpt lat="43.58228" lon="3.33795">
        <ele>425</ele>
        <time>2015-11-22T07:41:44Z</time>
      </trkpt>
      <trkpt lat="43.58228" lon="3.33793">
        <ele>425.5</ele>
        <time>2015-11-22T07:41:45Z</time>
      </trkpt>
      <trkpt lat="43.58228" lon="3.3379">
        <ele>426</ele>
        <time>2015-11-22T07:41:46Z</time>
      </trkpt>
      <trkpt lat="43.58228" lon="3.33788">
        <ele>426.5</ele>
        <time>2015-11-22T07:41:47Z</time>
      </trkpt>
      <trkpt lat="43.58228" lon="3.33785">
        <ele>427</ele>
        <time>2015-11-22T07:41:48Z</time>
      </trkpt>
      <trkpt lat="43.58228" lon="3.33782">
        <ele>427.5</ele>
        <time>2015-11-22T07:41:49Z</time>
      </trkpt>
      <trkpt lat="43.58228" lon="3.33778">
        <ele>427.5</ele>
        <time>2015-11-22T07:41:50Z</time>
      </trkpt>
      <trkpt lat="43.58228" lon="3.33776">
        <ele>428</ele>
        <time>2015-11-22T07:41:51Z</time>
      </trkpt>
      <trkpt lat="43.58227" lon="3.33774">
        <ele>430</ele>
        <time>2015-11-22T07:41:52Z</time>
      </trkpt>
      <trkpt lat="43.58227" lon="3.33771">
        <ele>430</ele>
        <time>2015-11-22T07:41:53Z</time>
      </trkpt>
      <trkpt lat="43.58227" lon="3.33768">
        <ele>430</ele>
        <time>2015-11-22T07:41:54Z</time>
      </trkpt>
      <trkpt lat="43.58227" lon="3.33765">
        <ele>430.5</ele>
        <time>2015-11-22T07:41:55Z</time>
      </trkpt>
      <trkpt lat="43.58226" lon="3.33762">
        <ele>430.5</ele>
        <time>2015-11-22T07:41:56Z</time>
      </trkpt>
      <trkpt lat="43.58226" lon="3.33759">
        <ele>430.5</ele>
        <time>2015-11-22T07:41:57Z</time>
      </trkpt>
      <trkpt lat="43.58226" lon="3.33756">
        <ele>431.5</ele>
        <time>2015-11-22T07:41:58Z</time>
      </trkpt>
      <trkpt lat="43.58226" lon="3.33753">
        <ele>432</ele>
        <time>2015-11-22T07:41:59Z</time>
      </trkpt>
      <trkpt lat="43.58226" lon="3.33751">
        <ele>432</ele>
        <time>2015-11-22T07:42:00Z</time>
      </trkpt>
      <trkpt lat="43.58225" lon="3.33748">
        <ele>432.5</ele>
        <time>2015-11-22T07:42:01Z</time>
      </trkpt>
      <trkpt lat="43.58226" lon="3.33743">
        <ele>433</ele>
        <time>2015-11-22T07:42:02Z</time>
      </trkpt>
      <trkpt lat="43.58225" lon="3.3374">
        <ele>434</ele>
        <time>2015-11-22T07:42:03Z</time>
      </trkpt>
      <trkpt lat="43.58225" lon="3.33736">
        <ele>433.5</ele>
        <time>2015-11-22T07:42:04Z</time>
      </trkpt>
      <trkpt lat="43.58225" lon="3.33732">
        <ele>432.5</ele>
        <time>2015-11-22T07:42:05Z</time>
      </trkpt>
      <trkpt lat="43.58225" lon="3.33728">
        <ele>432</ele>
        <time>2015-11-22T07:42:06Z</time>
      </trkpt>
      <trkpt lat="43.58225" lon="3.33724">
        <ele>431.5</ele>
        <time>2015-11-22T07:42:07Z</time>
      </trkpt>
      <trkpt lat="43.58224" lon="3.33721">
        <ele>432</ele>
        <time>2015-11-22T07:42:08Z</time>
      </trkpt>
      <trkpt lat="43.58224" lon="3.33719">
        <ele>431.5</ele>
        <time>2015-11-22T07:42:09Z</time>
      </trkpt>
      <trkpt lat="43.58224" lon="3.33716">
        <ele>432</ele>
        <time>2015-11-22T07:42:10Z</time>
      </trkpt>
      <trkpt lat="43.58225" lon="3.33713">
        <ele>432</ele>
        <time>2015-11-22T07:42:11Z</time>
      </trkpt>
      <trkpt lat="43.58225" lon="3.33709">
        <ele>432</ele>
        <time>2015-11-22T07:42:12Z</time>
      </trkpt>
      <trkpt lat="43.58226" lon="3.33706">
        <ele>431.5</ele>
        <time>2015-11-22T07:42:13Z</time>
      </trkpt>
      <trkpt lat="43.58227" lon="3.33702">
        <ele>432</ele>
        <time>2015-11-22T07:42:14Z</time>
      </trkpt>
      <trkpt lat="43.58227" lon="3.33699">
        <ele>432</ele>
        <time>2015-11-22T07:42:15Z</time>
      </trkpt>
      <trkpt lat="43.58228" lon="3.33695">
        <ele>432</ele>
        <time>2015-11-22T07:42:16Z</time>
      </trkpt>
      <trkpt lat="43.58228" lon="3.33693">
        <ele>432</ele>
        <time>2015-11-22T07:42:17Z</time>
      </trkpt>
      <trkpt lat="43.58229" lon="3.33689">
        <ele>432</ele>
        <time>2015-11-22T07:42:18Z</time>
      </trkpt>
      <trkpt lat="43.58229" lon="3.33686">
        <ele>432</ele>
        <time>2015-11-22T07:42:19Z</time>
      </trkpt>
      <trkpt lat="43.5823" lon="3.33683">
        <ele>432</ele>
        <time>2015-11-22T07:42:20Z</time>
      </trkpt>
      <trkpt lat="43.5823" lon="3.3368">
        <ele>432</ele>
        <time>2015-11-22T07:42:21Z</time>
      </trkpt>
      <trkpt lat="43.5823" lon="3.33677">
        <ele>432</ele>
        <time>2015-11-22T07:42:22Z</time>
      </trkpt>
      <trkpt lat="43.58231" lon="3.33675">
        <ele>432</ele>
        <time>2015-11-22T07:42:23Z</time>
      </trkpt>
      <trkpt lat="43.58231" lon="3.33672">
        <ele>433</ele>
        <time>2015-11-22T07:42:24Z</time>
      </trkpt>
      <trkpt lat="43.58232" lon="3.3367">
        <ele>433</ele>
        <time>2015-11-22T07:42:25Z</time>
      </trkpt>
      <trkpt lat="43.58232" lon="3.33667">
        <ele>434</ele>
        <time>2015-11-22T07:42:26Z</time>
      </trkpt>
      <trkpt lat="43.58232" lon="3.33664">
        <ele>434</ele>
        <time>2015-11-22T07:42:27Z</time>
      </trkpt>
      <trkpt lat="43.58233" lon="3.33662">
        <ele>433.5</ele>
        <time>2015-11-22T07:42:28Z</time>
      </trkpt>
      <trkpt lat="43.58234" lon="3.33658">
        <ele>433.5</ele>
        <time>2015-11-22T07:42:29Z</time>
      </trkpt>
      <trkpt lat="43.58235" lon="3.33654">
        <ele>433</ele>
        <time>2015-11-22T07:42:30Z</time>
      </trkpt>
      <trkpt lat="43.58236" lon="3.3365">
        <ele>432.5</ele>
        <time>2015-11-22T07:42:31Z</time>
      </trkpt>
      <trkpt lat="43.58237" lon="3.33647">
        <ele>432.5</ele>
        <time>2015-11-22T07:42:32Z</time>
      </trkpt>
      <trkpt lat="43.58238" lon="3.33644">
        <ele>432</ele>
        <time>2015-11-22T07:42:33Z</time>
      </trkpt>
      <trkpt lat="43.58239" lon="3.33641">
        <ele>432.5</ele>
        <time>2015-11-22T07:42:34Z</time>
      </trkpt>
      <trkpt lat="43.5824" lon="3.33639">
        <ele>432.5</ele>
        <time>2015-11-22T07:42:35Z</time>
      </trkpt>
      <trkpt lat="43.5824" lon="3.33637">
        <ele>433</ele>
        <time>2015-11-22T07:42:36Z</time>
      </trkpt>
      <trkpt lat="43.58243" lon="3.3363">
        <ele>433</ele>
        <time>2015-11-22T07:42:38Z</time>
      </trkpt>
      <trkpt lat="43.58244" lon="3.33627">
        <ele>433</ele>
        <time>2015-11-22T07:42:39Z</time>
      </trkpt>
      <trkpt lat="43.58246" lon="3.33624">
        <ele>432.5</ele>
        <time>2015-11-22T07:42:40Z</time>
      </trkpt>
      <trkpt lat="43.58247" lon="3.33621">
        <ele>431.5</ele>
        <time>2015-11-22T07:42:41Z</time>
      </trkpt>
      <trkpt lat="43.58249" lon="3.33618">
        <ele>431</ele>
        <time>2015-11-22T07:42:42Z</time>
      </trkpt>
      <trkpt lat="43.58251" lon="3.33615">
        <ele>430.5</ele>
        <time>2015-11-22T07:42:43Z</time>
      </trkpt>
      <trkpt lat="43.58252" lon="3.33612">
        <ele>430.5</ele>
        <time>2015-11-22T07:42:44Z</time>
      </trkpt>
      <trkpt lat="43.58253" lon="3.3361">
        <ele>430.5</ele>
        <time>2015-11-22T07:42:45Z</time>
      </trkpt>
      <trkpt lat="43.58254" lon="3.33608">
        <ele>430.5</ele>
        <time>2015-11-22T07:42:46Z</time>
      </trkpt>
      <trkpt lat="43.58256" lon="3.33605">
        <ele>430.5</ele>
        <time>2015-11-22T07:42:47Z</time>
      </trkpt>
      <trkpt lat="43.58257" lon="3.33602">
        <ele>430.5</ele>
        <time>2015-11-22T07:42:48Z</time>
      </trkpt>
      <trkpt lat="43.5826" lon="3.33597">
        <ele>429.5</ele>
        <time>2015-11-22T07:42:50Z</time>
      </trkpt>
      <trkpt lat="43.58262" lon="3.33594">
        <ele>428.5</ele>
        <time>2015-11-22T07:42:51Z</time>
      </trkpt>
      <trkpt lat="43.58263" lon="3.3359">
        <ele>428</ele>
        <time>2015-11-22T07:42:52Z</time>
      </trkpt>
      <trkpt lat="43.58265" lon="3.33586">
        <ele>429</ele>
        <time>2015-11-22T07:42:53Z</time>
      </trkpt>
      <trkpt lat="43.58265" lon="3.3358">
        <ele>431</ele>
        <time>2015-11-22T07:42:55Z</time>
      </trkpt>
      <trkpt lat="43.58266" lon="3.33576">
        <ele>431.5</ele>
        <time>2015-11-22T07:42:56Z</time>
      </trkpt>
      <trkpt lat="43.58266" lon="3.33565">
        <ele>432.5</ele>
        <time>2015-11-22T07:42:58Z</time>
      </trkpt>
      <trkpt lat="43.58267" lon="3.33561">
        <ele>432.5</ele>
        <time>2015-11-22T07:42:59Z</time>
      </trkpt>
      <trkpt lat="43.58268" lon="3.33556">
        <ele>433</ele>
        <time>2015-11-22T07:43:00Z</time>
      </trkpt>
      <trkpt lat="43.58268" lon="3.33552">
        <ele>433</ele>
        <time>2015-11-22T07:43:01Z</time>
      </trkpt>
      <trkpt lat="43.58269" lon="3.33548">
        <ele>433</ele>
        <time>2015-11-22T07:43:02Z</time>
      </trkpt>
      <trkpt lat="43.58269" lon="3.33544">
        <ele>433</ele>
        <time>2015-11-22T07:43:03Z</time>
      </trkpt>
      <trkpt lat="43.5827" lon="3.3354">
        <ele>432.5</ele>
        <time>2015-11-22T07:43:04Z</time>
      </trkpt>
      <trkpt lat="43.5827" lon="3.33536">
        <ele>432.5</ele>
        <time>2015-11-22T07:43:05Z</time>
      </trkpt>
      <trkpt lat="43.58271" lon="3.33533">
        <ele>432</ele>
        <time>2015-11-22T07:43:06Z</time>
      </trkpt>
      <trkpt lat="43.58272" lon="3.33529">
        <ele>432</ele>
        <time>2015-11-22T07:43:07Z</time>
      </trkpt>
      <trkpt lat="43.58272" lon="3.33524">
        <ele>431.5</ele>
        <time>2015-11-22T07:43:08Z</time>
      </trkpt>
      <trkpt lat="43.58273" lon="3.33521">
        <ele>432</ele>
        <time>2015-11-22T07:43:09Z</time>
      </trkpt>
      <trkpt lat="43.58273" lon="3.33516">
        <ele>431.5</ele>
        <time>2015-11-22T07:43:10Z</time>
      </trkpt>
      <trkpt lat="43.58273" lon="3.33513">
        <ele>432</ele>
        <time>2015-11-22T07:43:11Z</time>
      </trkpt>
      <trkpt lat="43.58273" lon="3.3351">
        <ele>432</ele>
        <time>2015-11-22T07:43:12Z</time>
      </trkpt>
      <trkpt lat="43.58273" lon="3.33507">
        <ele>432</ele>
        <time>2015-11-22T07:43:13Z</time>
      </trkpt>
      <trkpt lat="43.58274" lon="3.33502">
        <ele>432</ele>
        <time>2015-11-22T07:43:14Z</time>
      </trkpt>
      <trkpt lat="43.58274" lon="3.33498">
        <ele>432</ele>
        <time>2015-11-22T07:43:15Z</time>
      </trkpt>
      <trkpt lat="43.58274" lon="3.33494">
        <ele>431</ele>
        <time>2015-11-22T07:43:16Z</time>
      </trkpt>
      <trkpt lat="43.58275" lon="3.33486">
        <ele>431</ele>
        <time>2015-11-22T07:43:18Z</time>
      </trkpt>
      <trkpt lat="43.58276" lon="3.33482">
        <ele>431</ele>
        <time>2015-11-22T07:43:19Z</time>
      </trkpt>
      <trkpt lat="43.58276" lon="3.33479">
        <ele>431</ele>
        <time>2015-11-22T07:43:20Z</time>
      </trkpt>
      <trkpt lat="43.58277" lon="3.33475">
        <ele>431</ele>
        <time>2015-11-22T07:43:21Z</time>
      </trkpt>
      <trkpt lat="43.58277" lon="3.33472">
        <ele>431.5</ele>
        <time>2015-11-22T07:43:22Z</time>
      </trkpt>
      <trkpt lat="43.58277" lon="3.33468">
        <ele>432</ele>
        <time>2015-11-22T07:43:23Z</time>
      </trkpt>
      <trkpt lat="43.58278" lon="3.33465">
        <ele>432.5</ele>
        <time>2015-11-22T07:43:24Z</time>
      </trkpt>
      <trkpt lat="43.58279" lon="3.33461">
        <ele>432.5</ele>
        <time>2015-11-22T07:43:25Z</time>
      </trkpt>
      <trkpt lat="43.58279" lon="3.33458">
        <ele>433</ele>
        <time>2015-11-22T07:43:26Z</time>
      </trkpt>
      <trkpt lat="43.5828" lon="3.33454">
        <ele>433</ele>
        <time>2015-11-22T07:43:27Z</time>
      </trkpt>
      <trkpt lat="43.58281" lon="3.3345">
        <ele>432</ele>
        <time>2015-11-22T07:43:28Z</time>
      </trkpt>
      <trkpt lat="43.58282" lon="3.33446">
        <ele>432</ele>
        <time>2015-11-22T07:43:29Z</time>
      </trkpt>
      <trkpt lat="43.58283" lon="3.33441">
        <ele>432</ele>
        <time>2015-11-22T07:43:30Z</time>
      </trkpt>
      <trkpt lat="43.58283" lon="3.33438">
        <ele>431.5</ele>
        <time>2015-11-22T07:43:31Z</time>
      </trkpt>
      <trkpt lat="43.58285" lon="3.33432">
        <ele>430.5</ele>
        <time>2015-11-22T07:43:32Z</time>
      </trkpt>
      <trkpt lat="43.58286" lon="3.33428">
        <ele>430</ele>
        <time>2015-11-22T07:43:33Z</time>
      </trkpt>
      <trkpt lat="43.58288" lon="3.33423">
        <ele>428.5</ele>
        <time>2015-11-22T07:43:34Z</time>
      </trkpt>
      <trkpt lat="43.58288" lon="3.33419">
        <ele>427.5</ele>
        <time>2015-11-22T07:43:35Z</time>
      </trkpt>
      <trkpt lat="43.58289" lon="3.33414">
        <ele>426.5</ele>
        <time>2015-11-22T07:43:36Z</time>
      </trkpt>
      <trkpt lat="43.5829" lon="3.33409">
        <ele>426</ele>
        <time>2015-11-22T07:43:37Z</time>
      </trkpt>
      <trkpt lat="43.58291" lon="3.33405">
        <ele>425.5</ele>
        <time>2015-11-22T07:43:38Z</time>
      </trkpt>
      <trkpt lat="43.58292" lon="3.334">
        <ele>425</ele>
        <time>2015-11-22T07:43:39Z</time>
      </trkpt>
      <trkpt lat="43.58294" lon="3.33394">
        <ele>424</ele>
        <time>2015-11-22T07:43:40Z</time>
      </trkpt>
      <trkpt lat="43.58294" lon="3.33388">
        <ele>422.5</ele>
        <time>2015-11-22T07:43:41Z</time>
      </trkpt>
      <trkpt lat="43.58295" lon="3.33383">
        <ele>422</ele>
        <time>2015-11-22T07:43:42Z</time>
      </trkpt>
      <trkpt lat="43.58296" lon="3.33377">
        <ele>421</ele>
        <time>2015-11-22T07:43:43Z</time>
      </trkpt>
      <trkpt lat="43.58296" lon="3.33371">
        <ele>421</ele>
        <time>2015-11-22T07:43:44Z</time>
      </trkpt>
      <trkpt lat="43.58296" lon="3.33366">
        <ele>421</ele>
        <time>2015-11-22T07:43:45Z</time>
      </trkpt>
      <trkpt lat="43.58296" lon="3.3336">
        <ele>420.5</ele>
        <time>2015-11-22T07:43:46Z</time>
      </trkpt>
      <trkpt lat="43.58297" lon="3.33354">
        <ele>420.5</ele>
        <time>2015-11-22T07:43:47Z</time>
      </trkpt>
      <trkpt lat="43.58297" lon="3.33348">
        <ele>420</ele>
        <time>2015-11-22T07:43:48Z</time>
      </trkpt>
      <trkpt lat="43.58297" lon="3.33341">
        <ele>420</ele>
        <time>2015-11-22T07:43:49Z</time>
      </trkpt>
      <trkpt lat="43.58296" lon="3.33334">
        <ele>420</ele>
        <time>2015-11-22T07:43:50Z</time>
      </trkpt>
      <trkpt lat="43.58296" lon="3.33326">
        <ele>419.5</ele>
        <time>2015-11-22T07:43:51Z</time>
      </trkpt>
      <trkpt lat="43.58296" lon="3.33318">
        <ele>419</ele>
        <time>2015-11-22T07:43:52Z</time>
      </trkpt>
      <trkpt lat="43.58296" lon="3.33311">
        <ele>418.5</ele>
        <time>2015-11-22T07:43:53Z</time>
      </trkpt>
      <trkpt lat="43.58296" lon="3.33295">
        <ele>417.5</ele>
        <time>2015-11-22T07:43:55Z</time>
      </trkpt>
      <trkpt lat="43.58296" lon="3.33288">
        <ele>418.5</ele>
        <time>2015-11-22T07:43:56Z</time>
      </trkpt>
      <trkpt lat="43.58296" lon="3.33282">
        <ele>418.5</ele>
        <time>2015-11-22T07:43:57Z</time>
      </trkpt>
      <trkpt lat="43.58296" lon="3.33274">
        <ele>417.5</ele>
        <time>2015-11-22T07:43:58Z</time>
      </trkpt>
      <trkpt lat="43.58295" lon="3.33266">
        <ele>417</ele>
        <time>2015-11-22T07:43:59Z</time>
      </trkpt>
      <trkpt lat="43.58295" lon="3.3326">
        <ele>417</ele>
        <time>2015-11-22T07:44:00Z</time>
      </trkpt>
      <trkpt lat="43.58296" lon="3.33253">
        <ele>416.5</ele>
        <time>2015-11-22T07:44:01Z</time>
      </trkpt>
      <trkpt lat="43.58296" lon="3.33246">
        <ele>416</ele>
        <time>2015-11-22T07:44:02Z</time>
      </trkpt>
      <trkpt lat="43.58298" lon="3.33239">
        <ele>416.5</ele>
        <time>2015-11-22T07:44:03Z</time>
      </trkpt>
      <trkpt lat="43.58299" lon="3.33233">
        <ele>415</ele>
        <time>2015-11-22T07:44:04Z</time>
      </trkpt>
      <trkpt lat="43.58301" lon="3.33227">
        <ele>414</ele>
        <time>2015-11-22T07:44:05Z</time>
      </trkpt>
      <trkpt lat="43.58302" lon="3.33221">
        <ele>413</ele>
        <time>2015-11-22T07:44:06Z</time>
      </trkpt>
      <trkpt lat="43.58304" lon="3.33215">
        <ele>413</ele>
        <time>2015-11-22T07:44:07Z</time>
      </trkpt>
      <trkpt lat="43.58305" lon="3.3321">
        <ele>412.5</ele>
        <time>2015-11-22T07:44:08Z</time>
      </trkpt>
      <trkpt lat="43.58307" lon="3.33205">
        <ele>412.5</ele>
        <time>2015-11-22T07:44:09Z</time>
      </trkpt>
      <trkpt lat="43.58308" lon="3.332">
        <ele>412.5</ele>
        <time>2015-11-22T07:44:10Z</time>
      </trkpt>
      <trkpt lat="43.5831" lon="3.33195">
        <ele>412</ele>
        <time>2015-11-22T07:44:11Z</time>
      </trkpt>
      <trkpt lat="43.58311" lon="3.33191">
        <ele>412</ele>
        <time>2015-11-22T07:44:12Z</time>
      </trkpt>
      <trkpt lat="43.58312" lon="3.33187">
        <ele>412.5</ele>
        <time>2015-11-22T07:44:13Z</time>
      </trkpt>
      <trkpt lat="43.58314" lon="3.33182">
        <ele>412.5</ele>
        <time>2015-11-22T07:44:14Z</time>
      </trkpt>
      <trkpt lat="43.58315" lon="3.33178">
        <ele>413</ele>
        <time>2015-11-22T07:44:15Z</time>
      </trkpt>
      <trkpt lat="43.58317" lon="3.33172">
        <ele>413</ele>
        <time>2015-11-22T07:44:16Z</time>
      </trkpt>
      <trkpt lat="43.58317" lon="3.33167">
        <ele>413.5</ele>
        <time>2015-11-22T07:44:17Z</time>
      </trkpt>
      <trkpt lat="43.58317" lon="3.33162">
        <ele>413.5</ele>
        <time>2015-11-22T07:44:18Z</time>
      </trkpt>
      <trkpt lat="43.58317" lon="3.33155">
        <ele>413.5</ele>
        <time>2015-11-22T07:44:19Z</time>
      </trkpt>
      <trkpt lat="43.58317" lon="3.33148">
        <ele>413.5</ele>
        <time>2015-11-22T07:44:20Z</time>
      </trkpt>
      <trkpt lat="43.58316" lon="3.33143">
        <ele>413.5</ele>
        <time>2015-11-22T07:44:21Z</time>
      </trkpt>
      <trkpt lat="43.58315" lon="3.33137">
        <ele>413.5</ele>
        <time>2015-11-22T07:44:21Z</time>
      </trkpt>
      <trkpt lat="43.58314" lon="3.3313">
        <ele>413</ele>
        <time>2015-11-22T07:44:22Z</time>
      </trkpt>
      <trkpt lat="43.58314" lon="3.33124">
        <ele>413</ele>
        <time>2015-11-22T07:44:23Z</time>
      </trkpt>
      <trkpt lat="43.58313" lon="3.33117">
        <ele>413.5</ele>
        <time>2015-11-22T07:44:24Z</time>
      </trkpt>
      <trkpt lat="43.58313" lon="3.33111">
        <ele>413.5</ele>
        <time>2015-11-22T07:44:25Z</time>
      </trkpt>
      <trkpt lat="43.58313" lon="3.33105">
        <ele>414</ele>
        <time>2015-11-22T07:44:26Z</time>
      </trkpt>
      <trkpt lat="43.58313" lon="3.33098">
        <ele>413.5</ele>
        <time>2015-11-22T07:44:28Z</time>
      </trkpt>
      <trkpt lat="43.58313" lon="3.33091">
        <ele>413</ele>
        <time>2015-11-22T07:44:28Z</time>
      </trkpt>
      <trkpt lat="43.58314" lon="3.33084">
        <ele>413</ele>
        <time>2015-11-22T07:44:29Z</time>
      </trkpt>
      <trkpt lat="43.58316" lon="3.3307">
        <ele>411.5</ele>
        <time>2015-11-22T07:44:31Z</time>
      </trkpt>
      <trkpt lat="43.58318" lon="3.33064">
        <ele>411</ele>
        <time>2015-11-22T07:44:33Z</time>
      </trkpt>
      <trkpt lat="43.58319" lon="3.33058">
        <ele>411</ele>
        <time>2015-11-22T07:44:33Z</time>
      </trkpt>
      <trkpt lat="43.5832" lon="3.33051">
        <ele>411.5</ele>
        <time>2015-11-22T07:44:34Z</time>
      </trkpt>
      <trkpt lat="43.58323" lon="3.33045">
        <ele>409.5</ele>
        <time>2015-11-22T07:44:35Z</time>
      </trkpt>
      <trkpt lat="43.58325" lon="3.3304">
        <ele>409.5</ele>
        <time>2015-11-22T07:44:36Z</time>
      </trkpt>
      <trkpt lat="43.58327" lon="3.33033">
        <ele>410</ele>
        <time>2015-11-22T07:44:37Z</time>
      </trkpt>
      <trkpt lat="43.58328" lon="3.33027">
        <ele>410</ele>
        <time>2015-11-22T07:44:38Z</time>
      </trkpt>
      <trkpt lat="43.5833" lon="3.3302">
        <ele>409</ele>
        <time>2015-11-22T07:44:40Z</time>
      </trkpt>
      <trkpt lat="43.58332" lon="3.33014">
        <ele>409</ele>
        <time>2015-11-22T07:44:41Z</time>
      </trkpt>
      <trkpt lat="43.58334" lon="3.33007">
        <ele>408</ele>
        <time>2015-11-22T07:44:42Z</time>
      </trkpt>
      <trkpt lat="43.58337" lon="3.32993">
        <ele>407</ele>
        <time>2015-11-22T07:44:43Z</time>
      </trkpt>
      <trkpt lat="43.58337" lon="3.32986">
        <ele>409</ele>
        <time>2015-11-22T07:44:46Z</time>
      </trkpt>
      <trkpt lat="43.58339" lon="3.32972">
        <ele>407.5</ele>
        <time>2015-11-22T07:44:47Z</time>
      </trkpt>
      <trkpt lat="43.58339" lon="3.32965">
        <ele>407</ele>
        <time>2015-11-22T07:44:48Z</time>
      </trkpt>
      <trkpt lat="43.5834" lon="3.32959">
        <ele>406.5</ele>
        <time>2015-11-22T07:44:50Z</time>
      </trkpt>
      <trkpt lat="43.58341" lon="3.32952">
        <ele>406.5</ele>
        <time>2015-11-22T07:44:50Z</time>
      </trkpt>
      <trkpt lat="43.58342" lon="3.32945">
        <ele>405.5</ele>
        <time>2015-11-22T07:44:51Z</time>
      </trkpt>
      <trkpt lat="43.58342" lon="3.32937">
        <ele>405</ele>
        <time>2015-11-22T07:44:52Z</time>
      </trkpt>
      <trkpt lat="43.58342" lon="3.3293">
        <ele>404.5</ele>
        <time>2015-11-22T07:44:53Z</time>
      </trkpt>
      <trkpt lat="43.58341" lon="3.32924">
        <ele>404.5</ele>
        <time>2015-11-22T07:44:54Z</time>
      </trkpt>
      <trkpt lat="43.58341" lon="3.32917">
        <ele>404</ele>
        <time>2015-11-22T07:44:55Z</time>
      </trkpt>
      <trkpt lat="43.58341" lon="3.32911">
        <ele>403.5</ele>
        <time>2015-11-22T07:44:56Z</time>
      </trkpt>
      <trkpt lat="43.58341" lon="3.32904">
        <ele>403</ele>
        <time>2015-11-22T07:44:58Z</time>
      </trkpt>
      <trkpt lat="43.58341" lon="3.32898">
        <ele>403</ele>
        <time>2015-11-22T07:44:58Z</time>
      </trkpt>
      <trkpt lat="43.5834" lon="3.32892">
        <ele>403</ele>
        <time>2015-11-22T07:44:59Z</time>
      </trkpt>
      <trkpt lat="43.5834" lon="3.32886">
        <ele>401.5</ele>
        <time>2015-11-22T07:45:00Z</time>
      </trkpt>
      <trkpt lat="43.5834" lon="3.3288">
        <ele>401</ele>
        <time>2015-11-22T07:45:02Z</time>
      </trkpt>
      <trkpt lat="43.58338" lon="3.32869">
        <ele>401</ele>
        <time>2015-11-22T07:45:03Z</time>
      </trkpt>
      <trkpt lat="43.58336" lon="3.32866">
        <ele>401</ele>
        <time>2015-11-22T07:45:04Z</time>
      </trkpt>
      <trkpt lat="43.58334" lon="3.32862">
        <ele>401.5</ele>
        <time>2015-11-22T07:45:05Z</time>
      </trkpt>
      <trkpt lat="43.58333" lon="3.32857">
        <ele>401.5</ele>
        <time>2015-11-22T07:45:06Z</time>
      </trkpt>
      <trkpt lat="43.58331" lon="3.32852">
        <ele>401.5</ele>
        <time>2015-11-22T07:45:07Z</time>
      </trkpt>
      <trkpt lat="43.58328" lon="3.32847">
        <ele>401</ele>
        <time>2015-11-22T07:45:08Z</time>
      </trkpt>
      <trkpt lat="43.58325" lon="3.32842">
        <ele>401</ele>
        <time>2015-11-22T07:45:10Z</time>
      </trkpt>
      <trkpt lat="43.58321" lon="3.32839">
        <ele>401</ele>
        <time>2015-11-22T07:45:11Z</time>
      </trkpt>
      <trkpt lat="43.58318" lon="3.32837">
        <ele>401</ele>
        <time>2015-11-22T07:45:11Z</time>
      </trkpt>
      <trkpt lat="43.58315" lon="3.32834">
        <ele>401</ele>
        <time>2015-11-22T07:45:12Z</time>
      </trkpt>
      <trkpt lat="43.58312" lon="3.32832">
        <ele>401</ele>
        <time>2015-11-22T07:45:13Z</time>
      </trkpt>
      <trkpt lat="43.5831" lon="3.3283">
        <ele>400.5</ele>
        <time>2015-11-22T07:45:14Z</time>
      </trkpt>
      <trkpt lat="43.58307" lon="3.32828">
        <ele>400.5</ele>
        <time>2015-11-22T07:45:15Z</time>
      </trkpt>
      <trkpt lat="43.58304" lon="3.32826">
        <ele>400</ele>
        <time>2015-11-22T07:45:16Z</time>
      </trkpt>
      <trkpt lat="43.58302" lon="3.32824">
        <ele>400.5</ele>
        <time>2015-11-22T07:45:17Z</time>
      </trkpt>
      <trkpt lat="43.58299" lon="3.32821">
        <ele>400</ele>
        <time>2015-11-22T07:45:18Z</time>
      </trkpt>
      <trkpt lat="43.58296" lon="3.32818">
        <ele>399.5</ele>
        <time>2015-11-22T07:45:19Z</time>
      </trkpt>
      <trkpt lat="43.58293" lon="3.32818">
        <ele>400</ele>
        <time>2015-11-22T07:45:20Z</time>
      </trkpt>
      <trkpt lat="43.5829" lon="3.32815">
        <ele>399.5</ele>
        <time>2015-11-22T07:45:21Z</time>
      </trkpt>
      <trkpt lat="43.58286" lon="3.32813">
        <ele>400</ele>
        <time>2015-11-22T07:45:22Z</time>
      </trkpt>
      <trkpt lat="43.58283" lon="3.3281">
        <ele>400</ele>
        <time>2015-11-22T07:45:23Z</time>
      </trkpt>
      <trkpt lat="43.5828" lon="3.32808">
        <ele>400</ele>
        <time>2015-11-22T07:45:24Z</time>
      </trkpt>
      <trkpt lat="43.58276" lon="3.32806">
        <ele>399.5</ele>
        <time>2015-11-22T07:45:25Z</time>
      </trkpt>
      <trkpt lat="43.58273" lon="3.32804">
        <ele>399.5</ele>
        <time>2015-11-22T07:45:26Z</time>
      </trkpt>
      <trkpt lat="43.5827" lon="3.32801">
        <ele>399.5</ele>
        <time>2015-11-22T07:45:27Z</time>
      </trkpt>
      <trkpt lat="43.58267" lon="3.32799">
        <ele>400</ele>
        <time>2015-11-22T07:45:28Z</time>
      </trkpt>
      <trkpt lat="43.58263" lon="3.32797">
        <ele>400.5</ele>
        <time>2015-11-22T07:45:29Z</time>
      </trkpt>
      <trkpt lat="43.5826" lon="3.32795">
        <ele>400.5</ele>
        <time>2015-11-22T07:45:31Z</time>
      </trkpt>
      <trkpt lat="43.58254" lon="3.32791">
        <ele>401.5</ele>
        <time>2015-11-22T07:45:32Z</time>
      </trkpt>
      <trkpt lat="43.5825" lon="3.32789">
        <ele>402</ele>
        <time>2015-11-22T07:45:34Z</time>
      </trkpt>
      <trkpt lat="43.58244" lon="3.32784">
        <ele>402.5</ele>
        <time>2015-11-22T07:45:35Z</time>
      </trkpt>
      <trkpt lat="43.58241" lon="3.32781">
        <ele>402.5</ele>
        <time>2015-11-22T07:45:36Z</time>
      </trkpt>
      <trkpt lat="43.58238" lon="3.32777">
        <ele>402</ele>
        <time>2015-11-22T07:45:37Z</time>
      </trkpt>
      <trkpt lat="43.58236" lon="3.32774">
        <ele>402</ele>
        <time>2015-11-22T07:45:38Z</time>
      </trkpt>
      <trkpt lat="43.58234" lon="3.3277">
        <ele>402.5</ele>
        <time>2015-11-22T07:45:39Z</time>
      </trkpt>
      <trkpt lat="43.58232" lon="3.32767">
        <ele>402.5</ele>
        <time>2015-11-22T07:45:40Z</time>
      </trkpt>
      <trkpt lat="43.5823" lon="3.32763">
        <ele>403</ele>
        <time>2015-11-22T07:45:41Z</time>
      </trkpt>
      <trkpt lat="43.58228" lon="3.32755">
        <ele>404</ele>
        <time>2015-11-22T07:45:43Z</time>
      </trkpt>
      <trkpt lat="43.58227" lon="3.3275">
        <ele>404</ele>
        <time>2015-11-22T07:45:44Z</time>
      </trkpt>
      <trkpt lat="43.58226" lon="3.32746">
        <ele>404</ele>
        <time>2015-11-22T07:45:45Z</time>
      </trkpt>
      <trkpt lat="43.58226" lon="3.32742">
        <ele>404.5</ele>
        <time>2015-11-22T07:45:46Z</time>
      </trkpt>
      <trkpt lat="43.58225" lon="3.32738">
        <ele>404.5</ele>
        <time>2015-11-22T07:45:47Z</time>
      </trkpt>
      <trkpt lat="43.58225" lon="3.32734">
        <ele>404.5</ele>
        <time>2015-11-22T07:45:48Z</time>
      </trkpt>
      <trkpt lat="43.58224" lon="3.3273">
        <ele>405</ele>
        <time>2015-11-22T07:45:49Z</time>
      </trkpt>
      <trkpt lat="43.58224" lon="3.32725">
        <ele>405.5</ele>
        <time>2015-11-22T07:45:50Z</time>
      </trkpt>
      <trkpt lat="43.58224" lon="3.32721">
        <ele>406</ele>
        <time>2015-11-22T07:45:51Z</time>
      </trkpt>
      <trkpt lat="43.58223" lon="3.32717">
        <ele>406.5</ele>
        <time>2015-11-22T07:45:52Z</time>
      </trkpt>
      <trkpt lat="43.58223" lon="3.32712">
        <ele>406.5</ele>
        <time>2015-11-22T07:45:53Z</time>
      </trkpt>
      <trkpt lat="43.58223" lon="3.32708">
        <ele>406.5</ele>
        <time>2015-11-22T07:45:54Z</time>
      </trkpt>
      <trkpt lat="43.58223" lon="3.32704">
        <ele>407</ele>
        <time>2015-11-22T07:45:55Z</time>
      </trkpt>
      <trkpt lat="43.58222" lon="3.327">
        <ele>407.5</ele>
        <time>2015-11-22T07:45:56Z</time>
      </trkpt>
      <trkpt lat="43.58222" lon="3.32696">
        <ele>407.5</ele>
        <time>2015-11-22T07:45:57Z</time>
      </trkpt>
      <trkpt lat="43.58222" lon="3.32691">
        <ele>408</ele>
        <time>2015-11-22T07:45:58Z</time>
      </trkpt>
      <trkpt lat="43.58222" lon="3.32687">
        <ele>409</ele>
        <time>2015-11-22T07:45:59Z</time>
      </trkpt>
      <trkpt lat="43.58222" lon="3.32683">
        <ele>409</ele>
        <time>2015-11-22T07:46:00Z</time>
      </trkpt>
      <trkpt lat="43.58222" lon="3.32679">
        <ele>409.5</ele>
        <time>2015-11-22T07:46:01Z</time>
      </trkpt>
      <trkpt lat="43.58222" lon="3.32675">
        <ele>410</ele>
        <time>2015-11-22T07:46:02Z</time>
      </trkpt>
      <trkpt lat="43.58223" lon="3.32671">
        <ele>410.5</ele>
        <time>2015-11-22T07:46:03Z</time>
      </trkpt>
      <trkpt lat="43.58223" lon="3.32667">
        <ele>410.5</ele>
        <time>2015-11-22T07:46:04Z</time>
      </trkpt>
      <trkpt lat="43.58223" lon="3.32663">
        <ele>410.5</ele>
        <time>2015-11-22T07:46:05Z</time>
      </trkpt>
      <trkpt lat="43.58224" lon="3.32659">
        <ele>410.5</ele>
        <time>2015-11-22T07:46:06Z</time>
      </trkpt>
      <trkpt lat="43.58224" lon="3.32655">
        <ele>410.5</ele>
        <time>2015-11-22T07:46:07Z</time>
      </trkpt>
      <trkpt lat="43.58224" lon="3.32651">
        <ele>410.5</ele>
        <time>2015-11-22T07:46:08Z</time>
      </trkpt>
      <trkpt lat="43.58225" lon="3.32647">
        <ele>411</ele>
        <time>2015-11-22T07:46:09Z</time>
      </trkpt>
      <trkpt lat="43.58225" lon="3.32644">
        <ele>411</ele>
        <time>2015-11-22T07:46:10Z</time>
      </trkpt>
      <trkpt lat="43.58226" lon="3.3264">
        <ele>411.5</ele>
        <time>2015-11-22T07:46:11Z</time>
      </trkpt>
      <trkpt lat="43.58226" lon="3.32637">
        <ele>411.5</ele>
        <time>2015-11-22T07:46:12Z</time>
      </trkpt>
      <trkpt lat="43.58226" lon="3.32633">
        <ele>411.5</ele>
        <time>2015-11-22T07:46:13Z</time>
      </trkpt>
      <trkpt lat="43.58227" lon="3.3263">
        <ele>412</ele>
        <time>2015-11-22T07:46:14Z</time>
      </trkpt>
      <trkpt lat="43.58227" lon="3.32627">
        <ele>412</ele>
        <time>2015-11-22T07:46:15Z</time>
      </trkpt>
      <trkpt lat="43.58228" lon="3.32623">
        <ele>412.5</ele>
        <time>2015-11-22T07:46:16Z</time>
      </trkpt>
      <trkpt lat="43.58228" lon="3.32619">
        <ele>412</ele>
        <time>2015-11-22T07:46:17Z</time>
      </trkpt>
      <trkpt lat="43.58228" lon="3.32615">
        <ele>411.5</ele>
        <time>2015-11-22T07:46:18Z</time>
      </trkpt>
      <trkpt lat="43.58229" lon="3.32611">
        <ele>411.5</ele>
        <time>2015-11-22T07:46:19Z</time>
      </trkpt>
      <trkpt lat="43.58229" lon="3.32608">
        <ele>411.5</ele>
        <time>2015-11-22T07:46:20Z</time>
      </trkpt>
      <trkpt lat="43.5823" lon="3.32604">
        <ele>412</ele>
        <time>2015-11-22T07:46:21Z</time>
      </trkpt>
      <trkpt lat="43.5823" lon="3.32601">
        <ele>412</ele>
        <time>2015-11-22T07:46:22Z</time>
      </trkpt>
      <trkpt lat="43.58231" lon="3.32598">
        <ele>413</ele>
        <time>2015-11-22T07:46:23Z</time>
      </trkpt>
      <trkpt lat="43.58231" lon="3.32596">
        <ele>414</ele>
        <time>2015-11-22T07:46:24Z</time>
      </trkpt>
      <trkpt lat="43.58234" lon="3.32589">
        <ele>413.5</ele>
        <time>2015-11-22T07:46:26Z</time>
      </trkpt>
      <trkpt lat="43.58235" lon="3.32586">
        <ele>414</ele>
        <time>2015-11-22T07:46:27Z</time>
      </trkpt>
      <trkpt lat="43.58235" lon="3.32583">
        <ele>414</ele>
        <time>2015-11-22T07:46:28Z</time>
      </trkpt>
      <trkpt lat="43.58236" lon="3.3258">
        <ele>414.5</ele>
        <time>2015-11-22T07:46:29Z</time>
      </trkpt>
      <trkpt lat="43.58238" lon="3.32573">
        <ele>415</ele>
        <time>2015-11-22T07:46:31Z</time>
      </trkpt>
      <trkpt lat="43.58239" lon="3.3257">
        <ele>415</ele>
        <time>2015-11-22T07:46:32Z</time>
      </trkpt>
      <trkpt lat="43.58239" lon="3.32566">
        <ele>415</ele>
        <time>2015-11-22T07:46:33Z</time>
      </trkpt>
      <trkpt lat="43.58239" lon="3.32563">
        <ele>415</ele>
        <time>2015-11-22T07:46:34Z</time>
      </trkpt>
      <trkpt lat="43.58239" lon="3.3256">
        <ele>415.5</ele>
        <time>2015-11-22T07:46:35Z</time>
      </trkpt>
      <trkpt lat="43.58239" lon="3.32557">
        <ele>416</ele>
        <time>2015-11-22T07:46:36Z</time>
      </trkpt>
      <trkpt lat="43.58238" lon="3.3255">
        <ele>416</ele>
        <time>2015-11-22T07:46:38Z</time>
      </trkpt>
      <trkpt lat="43.58238" lon="3.32546">
        <ele>416.5</ele>
        <time>2015-11-22T07:46:39Z</time>
      </trkpt>
      <trkpt lat="43.58237" lon="3.32543">
        <ele>417</ele>
        <time>2015-11-22T07:46:40Z</time>
      </trkpt>
      <trkpt lat="43.58236" lon="3.32539">
        <ele>417.5</ele>
        <time>2015-11-22T07:46:41Z</time>
      </trkpt>
      <trkpt lat="43.58235" lon="3.32536">
        <ele>418</ele>
        <time>2015-11-22T07:46:42Z</time>
      </trkpt>
      <trkpt lat="43.58233" lon="3.32533">
        <ele>419</ele>
        <time>2015-11-22T07:46:43Z</time>
      </trkpt>
      <trkpt lat="43.58232" lon="3.32529">
        <ele>419.5</ele>
        <time>2015-11-22T07:46:44Z</time>
      </trkpt>
      <trkpt lat="43.58231" lon="3.32525">
        <ele>420</ele>
        <time>2015-11-22T07:46:45Z</time>
      </trkpt>
      <trkpt lat="43.5823" lon="3.3252">
        <ele>420.5</ele>
        <time>2015-11-22T07:46:46Z</time>
      </trkpt>
      <trkpt lat="43.5823" lon="3.32516">
        <ele>421</ele>
        <time>2015-11-22T07:46:47Z</time>
      </trkpt>
      <trkpt lat="43.58229" lon="3.32513">
        <ele>420</ele>
        <time>2015-11-22T07:46:48Z</time>
      </trkpt>
      <trkpt lat="43.58229" lon="3.32505">
        <ele>420</ele>
        <time>2015-11-22T07:46:50Z</time>
      </trkpt>
      <trkpt lat="43.58229" lon="3.32502">
        <ele>420.5</ele>
        <time>2015-11-22T07:46:51Z</time>
      </trkpt>
      <trkpt lat="43.58229" lon="3.32498">
        <ele>420.5</ele>
        <time>2015-11-22T07:46:52Z</time>
      </trkpt>
      <trkpt lat="43.5823" lon="3.32495">
        <ele>421</ele>
        <time>2015-11-22T07:46:53Z</time>
      </trkpt>
      <trkpt lat="43.5823" lon="3.32492">
        <ele>421</ele>
        <time>2015-11-22T07:46:54Z</time>
      </trkpt>
      <trkpt lat="43.58231" lon="3.32489">
        <ele>422</ele>
        <time>2015-11-22T07:46:55Z</time>
      </trkpt>
      <trkpt lat="43.58233" lon="3.32481">
        <ele>422.5</ele>
        <time>2015-11-22T07:46:57Z</time>
      </trkpt>
      <trkpt lat="43.58234" lon="3.32478">
        <ele>423</ele>
        <time>2015-11-22T07:46:58Z</time>
      </trkpt>
      <trkpt lat="43.58236" lon="3.32475">
        <ele>423.5</ele>
        <time>2015-11-22T07:46:59Z</time>
      </trkpt>
      <trkpt lat="43.58238" lon="3.32472">
        <ele>423</ele>
        <time>2015-11-22T07:47:00Z</time>
      </trkpt>
      <trkpt lat="43.58239" lon="3.32469">
        <ele>422.5</ele>
        <time>2015-11-22T07:47:01Z</time>
      </trkpt>
      <trkpt lat="43.5824" lon="3.32468">
        <ele>424</ele>
        <time>2015-11-22T07:47:02Z</time>
      </trkpt>
      <trkpt lat="43.58244" lon="3.32462">
        <ele>424</ele>
        <time>2015-11-22T07:47:04Z</time>
      </trkpt>
      <trkpt lat="43.58248" lon="3.32457">
        <ele>424.5</ele>
        <time>2015-11-22T07:47:06Z</time>
      </trkpt>
      <trkpt lat="43.5825" lon="3.32454">
        <ele>425</ele>
        <time>2015-11-22T07:47:07Z</time>
      </trkpt>
      <trkpt lat="43.58252" lon="3.32452">
        <ele>425</ele>
        <time>2015-11-22T07:47:08Z</time>
      </trkpt>
      <trkpt lat="43.58253" lon="3.32451">
        <ele>426</ele>
        <time>2015-11-22T07:47:09Z</time>
      </trkpt>
      <trkpt lat="43.58255" lon="3.32449">
        <ele>428</ele>
        <time>2015-11-22T07:47:10Z</time>
      </trkpt>
      <trkpt lat="43.58256" lon="3.32448">
        <ele>429</ele>
        <time>2015-11-22T07:47:11Z</time>
      </trkpt>
      <trkpt lat="43.58258" lon="3.32446">
        <ele>429</ele>
        <time>2015-11-22T07:47:12Z</time>
      </trkpt>
      <trkpt lat="43.5826" lon="3.32444">
        <ele>429</ele>
        <time>2015-11-22T07:47:13Z</time>
      </trkpt>
      <trkpt lat="43.58262" lon="3.32442">
        <ele>429</ele>
        <time>2015-11-22T07:47:14Z</time>
      </trkpt>
      <trkpt lat="43.58266" lon="3.32437">
        <ele>429.5</ele>
        <time>2015-11-22T07:47:16Z</time>
      </trkpt>
      <trkpt lat="43.58268" lon="3.32435">
        <ele>430.5</ele>
        <time>2015-11-22T07:47:17Z</time>
      </trkpt>
      <trkpt lat="43.58269" lon="3.32432">
        <ele>432</ele>
        <time>2015-11-22T07:47:18Z</time>
      </trkpt>
      <trkpt lat="43.58271" lon="3.3243">
        <ele>433</ele>
        <time>2015-11-22T07:47:19Z</time>
      </trkpt>
      <trkpt lat="43.58273" lon="3.32428">
        <ele>433.5</ele>
        <time>2015-11-22T07:47:20Z</time>
      </trkpt>
      <trkpt lat="43.58275" lon="3.32426">
        <ele>433.5</ele>
        <time>2015-11-22T07:47:21Z</time>
      </trkpt>
      <trkpt lat="43.58278" lon="3.32423">
        <ele>433.5</ele>
        <time>2015-11-22T07:47:22Z</time>
      </trkpt>
      <trkpt lat="43.5828" lon="3.3242">
        <ele>433.5</ele>
        <time>2015-11-22T07:47:23Z</time>
      </trkpt>
      <trkpt lat="43.58283" lon="3.32418">
        <ele>433.5</ele>
        <time>2015-11-22T07:47:24Z</time>
      </trkpt>
      <trkpt lat="43.58285" lon="3.32416">
        <ele>433</ele>
        <time>2015-11-22T07:47:25Z</time>
      </trkpt>
      <trkpt lat="43.58288" lon="3.32415">
        <ele>433.5</ele>
        <time>2015-11-22T07:47:26Z</time>
      </trkpt>
      <trkpt lat="43.58291" lon="3.32413">
        <ele>433</ele>
        <time>2015-11-22T07:47:27Z</time>
      </trkpt>
      <trkpt lat="43.58293" lon="3.32412">
        <ele>433</ele>
        <time>2015-11-22T07:47:28Z</time>
      </trkpt>
      <trkpt lat="43.58296" lon="3.32411">
        <ele>433</ele>
        <time>2015-11-22T07:47:29Z</time>
      </trkpt>
      <trkpt lat="43.58299" lon="3.32411">
        <ele>433.5</ele>
        <time>2015-11-22T07:47:30Z</time>
      </trkpt>
      <trkpt lat="43.58302" lon="3.32409">
        <ele>432</ele>
        <time>2015-11-22T07:47:31Z</time>
      </trkpt>
      <trkpt lat="43.58306" lon="3.32407">
        <ele>430.5</ele>
        <time>2015-11-22T07:47:32Z</time>
      </trkpt>
      <trkpt lat="43.58309" lon="3.32405">
        <ele>430</ele>
        <time>2015-11-22T07:47:33Z</time>
      </trkpt>
      <trkpt lat="43.58313" lon="3.32404">
        <ele>428.5</ele>
        <time>2015-11-22T07:47:34Z</time>
      </trkpt>
      <trkpt lat="43.58316" lon="3.32403">
        <ele>427</ele>
        <time>2015-11-22T07:47:35Z</time>
      </trkpt>
      <trkpt lat="43.5832" lon="3.32401">
        <ele>426</ele>
        <time>2015-11-22T07:47:36Z</time>
      </trkpt>
      <trkpt lat="43.58322" lon="3.324">
        <ele>426.5</ele>
        <time>2015-11-22T07:47:37Z</time>
      </trkpt>
      <trkpt lat="43.58325" lon="3.32399">
        <ele>426.5</ele>
        <time>2015-11-22T07:47:38Z</time>
      </trkpt>
      <trkpt lat="43.58328" lon="3.32399">
        <ele>425</ele>
        <time>2015-11-22T07:47:39Z</time>
      </trkpt>
      <trkpt lat="43.58331" lon="3.32398">
        <ele>424.5</ele>
        <time>2015-11-22T07:47:40Z</time>
      </trkpt>
      <trkpt lat="43.58334" lon="3.32398">
        <ele>424</ele>
        <time>2015-11-22T07:47:41Z</time>
      </trkpt>
      <trkpt lat="43.58337" lon="3.32396">
        <ele>425</ele>
        <time>2015-11-22T07:47:42Z</time>
      </trkpt>
      <trkpt lat="43.58339" lon="3.32396">
        <ele>424.5</ele>
        <time>2015-11-22T07:47:43Z</time>
      </trkpt>
      <trkpt lat="43.58342" lon="3.32397">
        <ele>424.5</ele>
        <time>2015-11-22T07:47:44Z</time>
      </trkpt>
      <trkpt lat="43.58345" lon="3.32397">
        <ele>424</ele>
        <time>2015-11-22T07:47:45Z</time>
      </trkpt>
      <trkpt lat="43.58348" lon="3.32397">
        <ele>424</ele>
        <time>2015-11-22T07:47:46Z</time>
      </trkpt>
      <trkpt lat="43.5835" lon="3.32397">
        <ele>424.5</ele>
        <time>2015-11-22T07:47:47Z</time>
      </trkpt>
      <trkpt lat="43.58353" lon="3.32397">
        <ele>424</ele>
        <time>2015-11-22T07:47:48Z</time>
      </trkpt>
      <trkpt lat="43.58355" lon="3.32397">
        <ele>424</ele>
        <time>2015-11-22T07:47:49Z</time>
      </trkpt>
      <trkpt lat="43.58357" lon="3.32397">
        <ele>425.5</ele>
        <time>2015-11-22T07:47:50Z</time>
      </trkpt>
      <trkpt lat="43.5836" lon="3.32397">
        <ele>425</ele>
        <time>2015-11-22T07:47:51Z</time>
      </trkpt>
      <trkpt lat="43.58362" lon="3.32396">
        <ele>425</ele>
        <time>2015-11-22T07:47:52Z</time>
      </trkpt>
      <trkpt lat="43.58365" lon="3.32395">
        <ele>427</ele>
        <time>2015-11-22T07:47:53Z</time>
      </trkpt>
      <trkpt lat="43.58368" lon="3.32395">
        <ele>426.5</ele>
        <time>2015-11-22T07:47:54Z</time>
      </trkpt>
      <trkpt lat="43.5837" lon="3.32394">
        <ele>426</ele>
        <time>2015-11-22T07:47:55Z</time>
      </trkpt>
      <trkpt lat="43.58375" lon="3.32393">
        <ele>426.5</ele>
        <time>2015-11-22T07:47:57Z</time>
      </trkpt>
      <trkpt lat="43.58377" lon="3.32392">
        <ele>427</ele>
        <time>2015-11-22T07:47:58Z</time>
      </trkpt>
      <trkpt lat="43.58379" lon="3.32391">
        <ele>427.5</ele>
        <time>2015-11-22T07:47:59Z</time>
      </trkpt>
      <trkpt lat="43.58382" lon="3.32389">
        <ele>428</ele>
        <time>2015-11-22T07:48:00Z</time>
      </trkpt>
      <trkpt lat="43.58384" lon="3.32387">
        <ele>428.5</ele>
        <time>2015-11-22T07:48:01Z</time>
      </trkpt>
      <trkpt lat="43.58387" lon="3.32385">
        <ele>429</ele>
        <time>2015-11-22T07:48:02Z</time>
      </trkpt>
      <trkpt lat="43.58389" lon="3.32383">
        <ele>429.5</ele>
        <time>2015-11-22T07:48:03Z</time>
      </trkpt>
      <trkpt lat="43.58391" lon="3.32381">
        <ele>430</ele>
        <time>2015-11-22T07:48:04Z</time>
      </trkpt>
      <trkpt lat="43.58393" lon="3.3238">
        <ele>430.5</ele>
        <time>2015-11-22T07:48:05Z</time>
      </trkpt>
      <trkpt lat="43.58395" lon="3.32378">
        <ele>431</ele>
        <time>2015-11-22T07:48:06Z</time>
      </trkpt>
      <trkpt lat="43.58397" lon="3.32376">
        <ele>431</ele>
        <time>2015-11-22T07:48:07Z</time>
      </trkpt>
      <trkpt lat="43.58399" lon="3.32374">
        <ele>431.5</ele>
        <time>2015-11-22T07:48:08Z</time>
      </trkpt>
      <trkpt lat="43.58401" lon="3.32373">
        <ele>431.5</ele>
        <time>2015-11-22T07:48:09Z</time>
      </trkpt>
      <trkpt lat="43.58403" lon="3.32371">
        <ele>431.5</ele>
        <time>2015-11-22T07:48:10Z</time>
      </trkpt>
      <trkpt lat="43.58405" lon="3.32369">
        <ele>431.5</ele>
        <time>2015-11-22T07:48:11Z</time>
      </trkpt>
      <trkpt lat="43.58407" lon="3.32367">
        <ele>431.5</ele>
        <time>2015-11-22T07:48:12Z</time>
      </trkpt>
      <trkpt lat="43.58409" lon="3.32365">
        <ele>432</ele>
        <time>2015-11-22T07:48:13Z</time>
      </trkpt>
      <trkpt lat="43.58411" lon="3.32364">
        <ele>432</ele>
        <time>2015-11-22T07:48:14Z</time>
      </trkpt>
      <trkpt lat="43.58412" lon="3.32362">
        <ele>432.5</ele>
        <time>2015-11-22T07:48:15Z</time>
      </trkpt>
      <trkpt lat="43.58414" lon="3.3236">
        <ele>432.5</ele>
        <time>2015-11-22T07:48:15Z</time>
      </trkpt>
      <trkpt lat="43.58416" lon="3.32358">
        <ele>432.5</ele>
        <time>2015-11-22T07:48:17Z</time>
      </trkpt>
      <trkpt lat="43.58418" lon="3.32357">
        <ele>432.5</ele>
        <time>2015-11-22T07:48:18Z</time>
      </trkpt>
      <trkpt lat="43.58422" lon="3.32353">
        <ele>433</ele>
        <time>2015-11-22T07:48:20Z</time>
      </trkpt>
      <trkpt lat="43.58424" lon="3.32352">
        <ele>433</ele>
        <time>2015-11-22T07:48:20Z</time>
      </trkpt>
      <trkpt lat="43.58425" lon="3.32351">
        <ele>433</ele>
        <time>2015-11-22T07:48:22Z</time>
      </trkpt>
      <trkpt lat="43.58427" lon="3.32349">
        <ele>433</ele>
        <time>2015-11-22T07:48:22Z</time>
      </trkpt>
      <trkpt lat="43.58429" lon="3.32347">
        <ele>433</ele>
        <time>2015-11-22T07:48:23Z</time>
      </trkpt>
      <trkpt lat="43.58431" lon="3.32346">
        <ele>433</ele>
        <time>2015-11-22T07:48:25Z</time>
      </trkpt>
      <trkpt lat="43.58432" lon="3.32344">
        <ele>433.5</ele>
        <time>2015-11-22T07:48:25Z</time>
      </trkpt>
      <trkpt lat="43.58434" lon="3.32342">
        <ele>433.5</ele>
        <time>2015-11-22T07:48:26Z</time>
      </trkpt>
      <trkpt lat="43.58437" lon="3.32339">
        <ele>433.5</ele>
        <time>2015-11-22T07:48:28Z</time>
      </trkpt>
      <trkpt lat="43.58441" lon="3.32335">
        <ele>434</ele>
        <time>2015-11-22T07:48:30Z</time>
      </trkpt>
      <trkpt lat="43.58445" lon="3.32332">
        <ele>434.5</ele>
        <time>2015-11-22T07:48:33Z</time>
      </trkpt>
      <trkpt lat="43.58447" lon="3.32331">
        <ele>434.5</ele>
        <time>2015-11-22T07:48:33Z</time>
      </trkpt>
      <trkpt lat="43.58449" lon="3.32329">
        <ele>435</ele>
        <time>2015-11-22T07:48:34Z</time>
      </trkpt>
      <trkpt lat="43.58452" lon="3.32327">
        <ele>435</ele>
        <time>2015-11-22T07:48:35Z</time>
      </trkpt>
      <trkpt lat="43.58454" lon="3.32326">
        <ele>435.5</ele>
        <time>2015-11-22T07:48:37Z</time>
      </trkpt>
      <trkpt lat="43.58457" lon="3.32324">
        <ele>436</ele>
        <time>2015-11-22T07:48:38Z</time>
      </trkpt>
      <trkpt lat="43.5846" lon="3.32321">
        <ele>434.5</ele>
        <time>2015-11-22T07:48:39Z</time>
      </trkpt>
      <trkpt lat="43.58464" lon="3.32315">
        <ele>435.5</ele>
        <time>2015-11-22T07:48:40Z</time>
      </trkpt>
      <trkpt lat="43.58466" lon="3.32312">
        <ele>435</ele>
        <time>2015-11-22T07:48:42Z</time>
      </trkpt>
      <trkpt lat="43.58467" lon="3.3231">
        <ele>435.5</ele>
        <time>2015-11-22T07:48:42Z</time>
      </trkpt>
      <trkpt lat="43.58469" lon="3.32308">
        <ele>435.5</ele>
        <time>2015-11-22T07:48:43Z</time>
      </trkpt>
      <trkpt lat="43.58469" lon="3.32306">
        <ele>435.5</ele>
        <time>2015-11-22T07:48:44Z</time>
      </trkpt>
      <trkpt lat="43.58471" lon="3.32304">
        <ele>435.5</ele>
        <time>2015-11-22T07:48:45Z</time>
      </trkpt>
      <trkpt lat="43.58472" lon="3.32302">
        <ele>435</ele>
        <time>2015-11-22T07:48:47Z</time>
      </trkpt>
      <trkpt lat="43.58473" lon="3.323">
        <ele>435</ele>
        <time>2015-11-22T07:48:47Z</time>
      </trkpt>
      <trkpt lat="43.58475" lon="3.32298">
        <ele>435.5</ele>
        <time>2015-11-22T07:48:48Z</time>
      </trkpt>
      <trkpt lat="43.58476" lon="3.32295">
        <ele>436</ele>
        <time>2015-11-22T07:48:50Z</time>
      </trkpt>
      <trkpt lat="43.5848" lon="3.32291">
        <ele>436.5</ele>
        <time>2015-11-22T07:48:51Z</time>
      </trkpt>
      <trkpt lat="43.58481" lon="3.32289">
        <ele>437</ele>
        <time>2015-11-22T07:48:52Z</time>
      </trkpt>
      <trkpt lat="43.58483" lon="3.32287">
        <ele>437.5</ele>
        <time>2015-11-22T07:48:53Z</time>
      </trkpt>
      <trkpt lat="43.58486" lon="3.32286">
        <ele>437</ele>
        <time>2015-11-22T07:48:55Z</time>
      </trkpt>
      <trkpt lat="43.58487" lon="3.32283">
        <ele>438</ele>
        <time>2015-11-22T07:48:55Z</time>
      </trkpt>
      <trkpt lat="43.58489" lon="3.32281">
        <ele>438.5</ele>
        <time>2015-11-22T07:48:56Z</time>
      </trkpt>
      <trkpt lat="43.58491" lon="3.32278">
        <ele>439.5</ele>
        <time>2015-11-22T07:48:58Z</time>
      </trkpt>
      <trkpt lat="43.58492" lon="3.32276">
        <ele>439.5</ele>
        <time>2015-11-22T07:48:58Z</time>
      </trkpt>
      <trkpt lat="43.58494" lon="3.32274">
        <ele>438.5</ele>
        <time>2015-11-22T07:48:59Z</time>
      </trkpt>
      <trkpt lat="43.58495" lon="3.32272">
        <ele>438.5</ele>
        <time>2015-11-22T07:49:01Z</time>
      </trkpt>
      <trkpt lat="43.58496" lon="3.32269">
        <ele>437</ele>
        <time>2015-11-22T07:49:02Z</time>
      </trkpt>
      <trkpt lat="43.58498" lon="3.32267">
        <ele>435.5</ele>
        <time>2015-11-22T07:49:03Z</time>
      </trkpt>
      <trkpt lat="43.585" lon="3.32262">
        <ele>434.5</ele>
        <time>2015-11-22T07:49:04Z</time>
      </trkpt>
      <trkpt lat="43.58502" lon="3.3226">
        <ele>434</ele>
        <time>2015-11-22T07:49:05Z</time>
      </trkpt>
      <trkpt lat="43.58503" lon="3.32258">
        <ele>433.5</ele>
        <time>2015-11-22T07:49:06Z</time>
      </trkpt>
      <trkpt lat="43.58504" lon="3.32253">
        <ele>433.5</ele>
        <time>2015-11-22T07:49:08Z</time>
      </trkpt>
      <trkpt lat="43.58505" lon="3.3225">
        <ele>433.5</ele>
        <time>2015-11-22T07:49:09Z</time>
      </trkpt>
      <trkpt lat="43.58505" lon="3.32249">
        <ele>435.5</ele>
        <time>2015-11-22T07:49:11Z</time>
      </trkpt>
      <trkpt lat="43.58506" lon="3.32246">
        <ele>436</ele>
        <time>2015-11-22T07:49:11Z</time>
      </trkpt>
      <trkpt lat="43.58507" lon="3.32243">
        <ele>435</ele>
        <time>2015-11-22T07:49:12Z</time>
      </trkpt>
      <trkpt lat="43.58507" lon="3.3224">
        <ele>434</ele>
        <time>2015-11-22T07:49:13Z</time>
      </trkpt>
      <trkpt lat="43.58507" lon="3.32238">
        <ele>434</ele>
        <time>2015-11-22T07:49:14Z</time>
      </trkpt>
      <trkpt lat="43.58508" lon="3.32235">
        <ele>434</ele>
        <time>2015-11-22T07:49:16Z</time>
      </trkpt>
      <trkpt lat="43.58508" lon="3.32233">
        <ele>434.5</ele>
        <time>2015-11-22T07:49:16Z</time>
      </trkpt>
      <trkpt lat="43.58507" lon="3.3223">
        <ele>435</ele>
        <time>2015-11-22T07:49:17Z</time>
      </trkpt>
      <trkpt lat="43.58507" lon="3.32226">
        <ele>436</ele>
        <time>2015-11-22T07:49:18Z</time>
      </trkpt>
      <trkpt lat="43.58506" lon="3.32223">
        <ele>437</ele>
        <time>2015-11-22T07:49:19Z</time>
      </trkpt>
      <trkpt lat="43.58506" lon="3.3222">
        <ele>439.5</ele>
        <time>2015-11-22T07:49:20Z</time>
      </trkpt>
      <trkpt lat="43.58505" lon="3.32218">
        <ele>440</ele>
        <time>2015-11-22T07:49:21Z</time>
      </trkpt>
      <trkpt lat="43.58504" lon="3.32216">
        <ele>441.5</ele>
        <time>2015-11-22T07:49:22Z</time>
      </trkpt>
      <trkpt lat="43.58503" lon="3.32215">
        <ele>443</ele>
        <time>2015-11-22T07:49:24Z</time>
      </trkpt>
      <trkpt lat="43.585" lon="3.3221">
        <ele>443</ele>
        <time>2015-11-22T07:49:25Z</time>
      </trkpt>
      <trkpt lat="43.58499" lon="3.32208">
        <ele>444</ele>
        <time>2015-11-22T07:49:26Z</time>
      </trkpt>
      <trkpt lat="43.58497" lon="3.32206">
        <ele>443.5</ele>
        <time>2015-11-22T07:49:27Z</time>
      </trkpt>
      <trkpt lat="43.58495" lon="3.32203">
        <ele>443.5</ele>
        <time>2015-11-22T07:49:29Z</time>
      </trkpt>
      <trkpt lat="43.5849" lon="3.32198">
        <ele>444</ele>
        <time>2015-11-22T07:49:30Z</time>
      </trkpt>
      <trkpt lat="43.58488" lon="3.32193">
        <ele>444</ele>
        <time>2015-11-22T07:49:31Z</time>
      </trkpt>
      <trkpt lat="43.58486" lon="3.3219">
        <ele>444</ele>
        <time>2015-11-22T07:49:32Z</time>
      </trkpt>
      <trkpt lat="43.58485" lon="3.32185">
        <ele>444</ele>
        <time>2015-11-22T07:49:33Z</time>
      </trkpt>
      <trkpt lat="43.58483" lon="3.3218">
        <ele>444</ele>
        <time>2015-11-22T07:49:34Z</time>
      </trkpt>
      <trkpt lat="43.58482" lon="3.32176">
        <ele>444</ele>
        <time>2015-11-22T07:49:35Z</time>
      </trkpt>
      <trkpt lat="43.58481" lon="3.32172">
        <ele>443.5</ele>
        <time>2015-11-22T07:49:36Z</time>
      </trkpt>
      <trkpt lat="43.58481" lon="3.32167">
        <ele>443.5</ele>
        <time>2015-11-22T07:49:37Z</time>
      </trkpt>
      <trkpt lat="43.58482" lon="3.32162">
        <ele>442</ele>
        <time>2015-11-22T07:49:38Z</time>
      </trkpt>
      <trkpt lat="43.58482" lon="3.32157">
        <ele>442</ele>
        <time>2015-11-22T07:49:39Z</time>
      </trkpt>
      <trkpt lat="43.58482" lon="3.32152">
        <ele>441.5</ele>
        <time>2015-11-22T07:49:40Z</time>
      </trkpt>
      <trkpt lat="43.58481" lon="3.32148">
        <ele>442</ele>
        <time>2015-11-22T07:49:41Z</time>
      </trkpt>
      <trkpt lat="43.5848" lon="3.32144">
        <ele>442.5</ele>
        <time>2015-11-22T07:49:42Z</time>
      </trkpt>
      <trkpt lat="43.58479" lon="3.3214">
        <ele>442.5</ele>
        <time>2015-11-22T07:49:43Z</time>
      </trkpt>
      <trkpt lat="43.58478" lon="3.32136">
        <ele>443.5</ele>
        <time>2015-11-22T07:49:44Z</time>
      </trkpt>
      <trkpt lat="43.58476" lon="3.32134">
        <ele>441.5</ele>
        <time>2015-11-22T07:49:45Z</time>
      </trkpt>
      <trkpt lat="43.58472" lon="3.32128">
        <ele>444</ele>
        <time>2015-11-22T07:49:47Z</time>
      </trkpt>
      <trkpt lat="43.5847" lon="3.32126">
        <ele>444</ele>
        <time>2015-11-22T07:49:48Z</time>
      </trkpt>
      <trkpt lat="43.58467" lon="3.32124">
        <ele>444.5</ele>
        <time>2015-11-22T07:49:49Z</time>
      </trkpt>
      <trkpt lat="43.58465" lon="3.32121">
        <ele>444.5</ele>
        <time>2015-11-22T07:49:50Z</time>
      </trkpt>
      <trkpt lat="43.58463" lon="3.32119">
        <ele>446</ele>
        <time>2015-11-22T07:49:51Z</time>
      </trkpt>
      <trkpt lat="43.58459" lon="3.32115">
        <ele>445</ele>
        <time>2015-11-22T07:49:53Z</time>
      </trkpt>
      <trkpt lat="43.58457" lon="3.32115">
        <ele>445</ele>
        <time>2015-11-22T07:49:54Z</time>
      </trkpt>
      <trkpt lat="43.58456" lon="3.32112">
        <ele>442.5</ele>
        <time>2015-11-22T07:49:55Z</time>
      </trkpt>
      <trkpt lat="43.58455" lon="3.32111">
        <ele>442.5</ele>
        <time>2015-11-22T07:49:56Z</time>
      </trkpt>
      <trkpt lat="43.58453" lon="3.32109">
        <ele>444</ele>
        <time>2015-11-22T07:49:57Z</time>
      </trkpt>
      <trkpt lat="43.58451" lon="3.32108">
        <ele>445.5</ele>
        <time>2015-11-22T07:49:58Z</time>
      </trkpt>
      <trkpt lat="43.58449" lon="3.32107">
        <ele>446</ele>
        <time>2015-11-22T07:49:59Z</time>
      </trkpt>
      <trkpt lat="43.58448" lon="3.32108">
        <ele>448</ele>
        <time>2015-11-22T07:50:00Z</time>
      </trkpt>
      <trkpt lat="43.58448" lon="3.32108">
        <ele>447.5</ele>
        <time>2015-11-22T07:50:01Z</time>
      </trkpt>
      <trkpt lat="43.58446" lon="3.32108">
        <ele>448</ele>
        <time>2015-11-22T07:50:02Z</time>
      </trkpt>
      <trkpt lat="43.58445" lon="3.32108">
        <ele>447.5</ele>
        <time>2015-11-22T07:50:03Z</time>
      </trkpt>
      <trkpt lat="43.58445" lon="3.32107">
        <ele>447.5</ele>
        <time>2015-11-22T07:50:04Z</time>
      </trkpt>
      <trkpt lat="43.58444" lon="3.32106">
        <ele>448.5</ele>
        <time>2015-11-22T07:50:05Z</time>
      </trkpt>
      <trkpt lat="43.58443" lon="3.32105">
        <ele>447.5</ele>
        <time>2015-11-22T07:50:06Z</time>
      </trkpt>
      <trkpt lat="43.58442" lon="3.32104">
        <ele>447.5</ele>
        <time>2015-11-22T07:50:07Z</time>
      </trkpt>
      <trkpt lat="43.58442" lon="3.32101">
        <ele>447.5</ele>
        <time>2015-11-22T07:50:08Z</time>
      </trkpt>
      <trkpt lat="43.58442" lon="3.32099">
        <ele>448</ele>
        <time>2015-11-22T07:50:09Z</time>
      </trkpt>
      <trkpt lat="43.58442" lon="3.32097">
        <ele>447.5</ele>
        <time>2015-11-22T07:50:10Z</time>
      </trkpt>
      <trkpt lat="43.58443" lon="3.32096">
        <ele>447.5</ele>
        <time>2015-11-22T07:50:11Z</time>
      </trkpt>
      <trkpt lat="43.58443" lon="3.32095">
        <ele>447</ele>
        <time>2015-11-22T07:50:12Z</time>
      </trkpt>
      <trkpt lat="43.58444" lon="3.32094">
        <ele>446.5</ele>
        <time>2015-11-22T07:50:13Z</time>
      </trkpt>
      <trkpt lat="43.58445" lon="3.32093">
        <ele>446.5</ele>
        <time>2015-11-22T07:50:14Z</time>
      </trkpt>
      <trkpt lat="43.58446" lon="3.32092">
        <ele>446</ele>
        <time>2015-11-22T07:50:15Z</time>
      </trkpt>
      <trkpt lat="43.58447" lon="3.3209">
        <ele>445.5</ele>
        <time>2015-11-22T07:50:16Z</time>
      </trkpt>
      <trkpt lat="43.58448" lon="3.32088">
        <ele>445.5</ele>
        <time>2015-11-22T07:50:17Z</time>
      </trkpt>
      <trkpt lat="43.5845" lon="3.32086">
        <ele>443.5</ele>
        <time>2015-11-22T07:50:18Z</time>
      </trkpt>
      <trkpt lat="43.58452" lon="3.32082">
        <ele>441</ele>
        <time>2015-11-22T07:50:19Z</time>
      </trkpt>
      <trkpt lat="43.58454" lon="3.32079">
        <ele>439.5</ele>
        <time>2015-11-22T07:50:20Z</time>
      </trkpt>
      <trkpt lat="43.58457" lon="3.32076">
        <ele>438.5</ele>
        <time>2015-11-22T07:50:21Z</time>
      </trkpt>
      <trkpt lat="43.58458" lon="3.32075">
        <ele>438</ele>
        <time>2015-11-22T07:50:22Z</time>
      </trkpt>
      <trkpt lat="43.58459" lon="3.32074">
        <ele>438</ele>
        <time>2015-11-22T07:50:23Z</time>
      </trkpt>
      <trkpt lat="43.58461" lon="3.32072">
        <ele>438</ele>
        <time>2015-11-22T07:50:24Z</time>
      </trkpt>
      <trkpt lat="43.58462" lon="3.3207">
        <ele>438</ele>
        <time>2015-11-22T07:50:25Z</time>
      </trkpt>
      <trkpt lat="43.58464" lon="3.32068">
        <ele>437.5</ele>
        <time>2015-11-22T07:50:26Z</time>
      </trkpt>
      <trkpt lat="43.58465" lon="3.32066">
        <ele>437.5</ele>
        <time>2015-11-22T07:50:27Z</time>
      </trkpt>
      <trkpt lat="43.58467" lon="3.32064">
        <ele>437</ele>
        <time>2015-11-22T07:50:28Z</time>
      </trkpt>
      <trkpt lat="43.58469" lon="3.32062">
        <ele>436</ele>
        <time>2015-11-22T07:50:29Z</time>
      </trkpt>
      <trkpt lat="43.5847" lon="3.32059">
        <ele>435.5</ele>
        <time>2015-11-22T07:50:30Z</time>
      </trkpt>
      <trkpt lat="43.58471" lon="3.32057">
        <ele>435.5</ele>
        <time>2015-11-22T07:50:31Z</time>
      </trkpt>
      <trkpt lat="43.58472" lon="3.32054">
        <ele>435.5</ele>
        <time>2015-11-22T07:50:32Z</time>
      </trkpt>
      <trkpt lat="43.58474" lon="3.32052">
        <ele>435.5</ele>
        <time>2015-11-22T07:50:33Z</time>
      </trkpt>
      <trkpt lat="43.58475" lon="3.3205">
        <ele>435.5</ele>
        <time>2015-11-22T07:50:34Z</time>
      </trkpt>
      <trkpt lat="43.58477" lon="3.32047">
        <ele>435</ele>
        <time>2015-11-22T07:50:35Z</time>
      </trkpt>
      <trkpt lat="43.58478" lon="3.32046">
        <ele>435</ele>
        <time>2015-11-22T07:50:36Z</time>
      </trkpt>
      <trkpt lat="43.58479" lon="3.32044">
        <ele>435</ele>
        <time>2015-11-22T07:50:37Z</time>
      </trkpt>
      <trkpt lat="43.5848" lon="3.32042">
        <ele>435</ele>
        <time>2015-11-22T07:50:38Z</time>
      </trkpt>
      <trkpt lat="43.58482" lon="3.32039">
        <ele>435</ele>
        <time>2015-11-22T07:50:40Z</time>
      </trkpt>
      <trkpt lat="43.58483" lon="3.32037">
        <ele>435</ele>
        <time>2015-11-22T07:50:41Z</time>
      </trkpt>
      <trkpt lat="43.58484" lon="3.32035">
        <ele>435</ele>
        <time>2015-11-22T07:50:42Z</time>
      </trkpt>
      <trkpt lat="43.58485" lon="3.32033">
        <ele>435</ele>
        <time>2015-11-22T07:50:43Z</time>
      </trkpt>
      <trkpt lat="43.58486" lon="3.32032">
        <ele>436</ele>
        <time>2015-11-22T07:50:44Z</time>
      </trkpt>
      <trkpt lat="43.58488" lon="3.32029">
        <ele>439.5</ele>
        <time>2015-11-22T07:50:46Z</time>
      </trkpt>
      <trkpt lat="43.58489" lon="3.32027">
        <ele>440</ele>
        <time>2015-11-22T07:50:47Z</time>
      </trkpt>
      <trkpt lat="43.58489" lon="3.32026">
        <ele>440</ele>
        <time>2015-11-22T07:50:48Z</time>
      </trkpt>
      <trkpt lat="43.58491" lon="3.32018">
        <ele>444</ele>
        <time>2015-11-22T07:51:09Z</time>
      </trkpt>
      <trkpt lat="43.58492" lon="3.32015">
        <ele>444</ele>
        <time>2015-11-22T07:51:16Z</time>
      </trkpt>
      <trkpt lat="43.58492" lon="3.32013">
        <ele>444.5</ele>
        <time>2015-11-22T07:51:18Z</time>
      </trkpt>
      <trkpt lat="43.58492" lon="3.32011">
        <ele>445</ele>
        <time>2015-11-22T07:51:19Z</time>
      </trkpt>
      <trkpt lat="43.58492" lon="3.32009">
        <ele>445</ele>
        <time>2015-11-22T07:51:20Z</time>
      </trkpt>
      <trkpt lat="43.58492" lon="3.32007">
        <ele>445.5</ele>
        <time>2015-11-22T07:51:21Z</time>
      </trkpt>
      <trkpt lat="43.58493" lon="3.32006">
        <ele>445.5</ele>
        <time>2015-11-22T07:51:22Z</time>
      </trkpt>
      <trkpt lat="43.58493" lon="3.32004">
        <ele>445</ele>
        <time>2015-11-22T07:51:23Z</time>
      </trkpt>
      <trkpt lat="43.58493" lon="3.32002">
        <ele>445.5</ele>
        <time>2015-11-22T07:51:24Z</time>
      </trkpt>
      <trkpt lat="43.58493" lon="3.31999">
        <ele>445.5</ele>
        <time>2015-11-22T07:51:26Z</time>
      </trkpt>
      <trkpt lat="43.58493" lon="3.31997">
        <ele>445.5</ele>
        <time>2015-11-22T07:51:27Z</time>
      </trkpt>
      <trkpt lat="43.58492" lon="3.31994">
        <ele>445.5</ele>
        <time>2015-11-22T07:51:28Z</time>
      </trkpt>
      <trkpt lat="43.58492" lon="3.31992">
        <ele>445</ele>
        <time>2015-11-22T07:51:29Z</time>
      </trkpt>
      <trkpt lat="43.58491" lon="3.31991">
        <ele>444.5</ele>
        <time>2015-11-22T07:51:30Z</time>
      </trkpt>
      <trkpt lat="43.5849" lon="3.31988">
        <ele>445</ele>
        <time>2015-11-22T07:51:31Z</time>
      </trkpt>
      <trkpt lat="43.58489" lon="3.31986">
        <ele>447</ele>
        <time>2015-11-22T07:51:32Z</time>
      </trkpt>
      <trkpt lat="43.58488" lon="3.31985">
        <ele>447</ele>
        <time>2015-11-22T07:51:33Z</time>
      </trkpt>
      <trkpt lat="43.58487" lon="3.31983">
        <ele>446.5</ele>
        <time>2015-11-22T07:51:35Z</time>
      </trkpt>
      <trkpt lat="43.58486" lon="3.31981">
        <ele>446.5</ele>
        <time>2015-11-22T07:51:36Z</time>
      </trkpt>
      <trkpt lat="43.58485" lon="3.3198">
        <ele>447.5</ele>
        <time>2015-11-22T07:51:37Z</time>
      </trkpt>
      <trkpt lat="43.58485" lon="3.31976">
        <ele>446</ele>
        <time>2015-11-22T07:51:38Z</time>
      </trkpt>
      <trkpt lat="43.58484" lon="3.31973">
        <ele>446</ele>
        <time>2015-11-22T07:51:39Z</time>
      </trkpt>
      <trkpt lat="43.58483" lon="3.31969">
        <ele>445.5</ele>
        <time>2015-11-22T07:51:40Z</time>
      </trkpt>
      <trkpt lat="43.5848" lon="3.3196">
        <ele>443.5</ele>
        <time>2015-11-22T07:51:42Z</time>
      </trkpt>
      <trkpt lat="43.58481" lon="3.31953">
        <ele>443.5</ele>
        <time>2015-11-22T07:51:43Z</time>
      </trkpt>
      <trkpt lat="43.58483" lon="3.31947">
        <ele>443.5</ele>
        <time>2015-11-22T07:51:44Z</time>
      </trkpt>
      <trkpt lat="43.58484" lon="3.31942">
        <ele>443.5</ele>
        <time>2015-11-22T07:51:45Z</time>
      </trkpt>
      <trkpt lat="43.58489" lon="3.31927">
        <ele>443</ele>
        <time>2015-11-22T07:51:47Z</time>
      </trkpt>
      <trkpt lat="43.58492" lon="3.31917">
        <ele>442.5</ele>
        <time>2015-11-22T07:51:48Z</time>
      </trkpt>
      <trkpt lat="43.58493" lon="3.3191">
        <ele>443</ele>
        <time>2015-11-22T07:51:49Z</time>
      </trkpt>
      <trkpt lat="43.58495" lon="3.31903">
        <ele>443</ele>
        <time>2015-11-22T07:51:50Z</time>
      </trkpt>
      <trkpt lat="43.58493" lon="3.31891">
        <ele>443</ele>
        <time>2015-11-22T07:51:52Z</time>
      </trkpt>
      <trkpt lat="43.58491" lon="3.31884">
        <ele>443.5</ele>
        <time>2015-11-22T07:51:53Z</time>
      </trkpt>
      <trkpt lat="43.5849" lon="3.31876">
        <ele>444</ele>
        <time>2015-11-22T07:51:54Z</time>
      </trkpt>
      <trkpt lat="43.58488" lon="3.31867">
        <ele>444</ele>
        <time>2015-11-22T07:51:55Z</time>
      </trkpt>
      <trkpt lat="43.58486" lon="3.31857">
        <ele>443</ele>
        <time>2015-11-22T07:51:56Z</time>
      </trkpt>
      <trkpt lat="43.58485" lon="3.31848">
        <ele>443</ele>
        <time>2015-11-22T07:51:57Z</time>
      </trkpt>
      <trkpt lat="43.58486" lon="3.31832">
        <ele>442</ele>
        <time>2015-11-22T07:51:59Z</time>
      </trkpt>
      <trkpt lat="43.58485" lon="3.31812">
        <ele>441</ele>
        <time>2015-11-22T07:52:01Z</time>
      </trkpt>
      <trkpt lat="43.58487" lon="3.31793">
        <ele>441</ele>
        <time>2015-11-22T07:52:03Z</time>
      </trkpt>
      <trkpt lat="43.58489" lon="3.31784">
        <ele>441</ele>
        <time>2015-11-22T07:52:04Z</time>
      </trkpt>
      <trkpt lat="43.58491" lon="3.31776">
        <ele>441</ele>
        <time>2015-11-22T07:52:05Z</time>
      </trkpt>
      <trkpt lat="43.58493" lon="3.3177">
        <ele>440</ele>
        <time>2015-11-22T07:52:06Z</time>
      </trkpt>
      <trkpt lat="43.58494" lon="3.31764">
        <ele>440</ele>
        <time>2015-11-22T07:52:07Z</time>
      </trkpt>
      <trkpt lat="43.5849" lon="3.31757">
        <ele>440</ele>
        <time>2015-11-22T07:52:09Z</time>
      </trkpt>
      <trkpt lat="43.58488" lon="3.31752">
        <ele>441</ele>
        <time>2015-11-22T07:52:10Z</time>
      </trkpt>
      <trkpt lat="43.58483" lon="3.31739">
        <ele>441</ele>
        <time>2015-11-22T07:52:12Z</time>
      </trkpt>
      <trkpt lat="43.58476" lon="3.31735">
        <ele>441.5</ele>
        <time>2015-11-22T07:52:14Z</time>
      </trkpt>
      <trkpt lat="43.58472" lon="3.31737">
        <ele>440.5</ele>
        <time>2015-11-22T07:52:15Z</time>
      </trkpt>
      <trkpt lat="43.58467" lon="3.31738">
        <ele>441.5</ele>
        <time>2015-11-22T07:52:16Z</time>
      </trkpt>
      <trkpt lat="43.58462" lon="3.31735">
        <ele>442.5</ele>
        <time>2015-11-22T07:52:17Z</time>
      </trkpt>
      <trkpt lat="43.58458" lon="3.31733">
        <ele>444.5</ele>
        <time>2015-11-22T07:52:18Z</time>
      </trkpt>
      <trkpt lat="43.58454" lon="3.31731">
        <ele>445</ele>
        <time>2015-11-22T07:52:19Z</time>
      </trkpt>
      <trkpt lat="43.5845" lon="3.31732">
        <ele>445</ele>
        <time>2015-11-22T07:52:20Z</time>
      </trkpt>
      <trkpt lat="43.58447" lon="3.31729">
        <ele>444</ele>
        <time>2015-11-22T07:52:21Z</time>
      </trkpt>
      <trkpt lat="43.58444" lon="3.31724">
        <ele>444.5</ele>
        <time>2015-11-22T07:52:22Z</time>
      </trkpt>
      <trkpt lat="43.5844" lon="3.31721">
        <ele>445</ele>
        <time>2015-11-22T07:52:23Z</time>
      </trkpt>
      <trkpt lat="43.58435" lon="3.31719">
        <ele>445</ele>
        <time>2015-11-22T07:52:24Z</time>
      </trkpt>
      <trkpt lat="43.58432" lon="3.31715">
        <ele>445</ele>
        <time>2015-11-22T07:52:25Z</time>
      </trkpt>
      <trkpt lat="43.58434" lon="3.31701">
        <ele>443.5</ele>
        <time>2015-11-22T07:52:27Z</time>
      </trkpt>
      <trkpt lat="43.58433" lon="3.31696">
        <ele>443</ele>
        <time>2015-11-22T07:52:28Z</time>
      </trkpt>
      <trkpt lat="43.5843" lon="3.31693">
        <ele>443.5</ele>
        <time>2015-11-22T07:52:29Z</time>
      </trkpt>
      <trkpt lat="43.58426" lon="3.31689">
        <ele>442</ele>
        <time>2015-11-22T07:52:30Z</time>
      </trkpt>
      <trkpt lat="43.58421" lon="3.31686">
        <ele>441</ele>
        <time>2015-11-22T07:52:31Z</time>
      </trkpt>
      <trkpt lat="43.58415" lon="3.31681">
        <ele>441.5</ele>
        <time>2015-11-22T07:52:32Z</time>
      </trkpt>
      <trkpt lat="43.58411" lon="3.31675">
        <ele>440.5</ele>
        <time>2015-11-22T07:52:33Z</time>
      </trkpt>
      <trkpt lat="43.58408" lon="3.31669">
        <ele>440</ele>
        <time>2015-11-22T07:52:34Z</time>
      </trkpt>
      <trkpt lat="43.58408" lon="3.31661">
        <ele>439</ele>
        <time>2015-11-22T07:52:35Z</time>
      </trkpt>
      <trkpt lat="43.5841" lon="3.31657">
        <ele>439</ele>
        <time>2015-11-22T07:52:36Z</time>
      </trkpt>
      <trkpt lat="43.58413" lon="3.31651">
        <ele>439</ele>
        <time>2015-11-22T07:52:37Z</time>
      </trkpt>
      <trkpt lat="43.58416" lon="3.31647">
        <ele>438.5</ele>
        <time>2015-11-22T07:52:38Z</time>
      </trkpt>
      <trkpt lat="43.58418" lon="3.31642">
        <ele>438.5</ele>
        <time>2015-11-22T07:52:39Z</time>
      </trkpt>
      <trkpt lat="43.58419" lon="3.31632">
        <ele>437.5</ele>
        <time>2015-11-22T07:52:41Z</time>
      </trkpt>
      <trkpt lat="43.58421" lon="3.31607">
        <ele>436</ele>
        <time>2015-11-22T07:52:47Z</time>
      </trkpt>
      <trkpt lat="43.58424" lon="3.31602">
        <ele>436</ele>
        <time>2015-11-22T07:52:48Z</time>
      </trkpt>
      <trkpt lat="43.58432" lon="3.31588">
        <ele>435.5</ele>
        <time>2015-11-22T07:52:50Z</time>
      </trkpt>
      <trkpt lat="43.58435" lon="3.3158">
        <ele>435.5</ele>
        <time>2015-11-22T07:52:51Z</time>
      </trkpt>
      <trkpt lat="43.58438" lon="3.31574">
        <ele>435.5</ele>
        <time>2015-11-22T07:52:52Z</time>
      </trkpt>
      <trkpt lat="43.58447" lon="3.31555">
        <ele>434.5</ele>
        <time>2015-11-22T07:52:54Z</time>
      </trkpt>
      <trkpt lat="43.58449" lon="3.31545">
        <ele>433.5</ele>
        <time>2015-11-22T07:52:55Z</time>
      </trkpt>
      <trkpt lat="43.58454" lon="3.31522">
        <ele>430.5</ele>
        <time>2015-11-22T07:52:57Z</time>
      </trkpt>
      <trkpt lat="43.58455" lon="3.31512">
        <ele>429.5</ele>
        <time>2015-11-22T07:52:58Z</time>
      </trkpt>
      <trkpt lat="43.58456" lon="3.31505">
        <ele>429</ele>
        <time>2015-11-22T07:52:59Z</time>
      </trkpt>
      <trkpt lat="43.58465" lon="3.3148">
        <ele>426.5</ele>
        <time>2015-11-22T07:53:01Z</time>
      </trkpt>
      <trkpt lat="43.58468" lon="3.31469">
        <ele>426.5</ele>
        <time>2015-11-22T07:53:02Z</time>
      </trkpt>
      <trkpt lat="43.58473" lon="3.3144">
        <ele>426</ele>
        <time>2015-11-22T07:53:04Z</time>
      </trkpt>
      <trkpt lat="43.58472" lon="3.31413">
        <ele>424</ele>
        <time>2015-11-22T07:53:06Z</time>
      </trkpt>
      <trkpt lat="43.58474" lon="3.31401">
        <ele>424</ele>
        <time>2015-11-22T07:53:07Z</time>
      </trkpt>
      <trkpt lat="43.58476" lon="3.31391">
        <ele>425.5</ele>
        <time>2015-11-22T07:53:08Z</time>
      </trkpt>
      <trkpt lat="43.58481" lon="3.31379">
        <ele>424.5</ele>
        <time>2015-11-22T07:53:10Z</time>
      </trkpt>
      <trkpt lat="43.58481" lon="3.31374">
        <ele>425</ele>
        <time>2015-11-22T07:53:11Z</time>
      </trkpt>
      <trkpt lat="43.58481" lon="3.31365">
        <ele>426</ele>
        <time>2015-11-22T07:53:13Z</time>
      </trkpt>
      <trkpt lat="43.5848" lon="3.31361">
        <ele>426</ele>
        <time>2015-11-22T07:53:14Z</time>
      </trkpt>
      <trkpt lat="43.58481" lon="3.31356">
        <ele>426.5</ele>
        <time>2015-11-22T07:53:15Z</time>
      </trkpt>
      <trkpt lat="43.58485" lon="3.31348">
        <ele>426</ele>
        <time>2015-11-22T07:53:17Z</time>
      </trkpt>
      <trkpt lat="43.58487" lon="3.31346">
        <ele>425.5</ele>
        <time>2015-11-22T07:53:18Z</time>
      </trkpt>
      <trkpt lat="43.58491" lon="3.31341">
        <ele>423.5</ele>
        <time>2015-11-22T07:53:20Z</time>
      </trkpt>
      <trkpt lat="43.58492" lon="3.31338">
        <ele>423.5</ele>
        <time>2015-11-22T07:53:21Z</time>
      </trkpt>
      <trkpt lat="43.58491" lon="3.31338">
        <ele>423.5</ele>
        <time>2015-11-22T07:53:22Z</time>
      </trkpt>
      <trkpt lat="43.58493" lon="3.3133">
        <ele>423</ele>
        <time>2015-11-22T07:53:24Z</time>
      </trkpt>
      <trkpt lat="43.58494" lon="3.31326">
        <ele>423.5</ele>
        <time>2015-11-22T07:53:25Z</time>
      </trkpt>
      <trkpt lat="43.58494" lon="3.31323">
        <ele>423</ele>
        <time>2015-11-22T07:53:26Z</time>
      </trkpt>
      <trkpt lat="43.58495" lon="3.31322">
        <ele>425</ele>
        <time>2015-11-22T07:53:27Z</time>
      </trkpt>
      <trkpt lat="43.58495" lon="3.31319">
        <ele>426</ele>
        <time>2015-11-22T07:53:29Z</time>
      </trkpt>
      <trkpt lat="43.58496" lon="3.31316">
        <ele>426</ele>
        <time>2015-11-22T07:53:30Z</time>
      </trkpt>
      <trkpt lat="43.58496" lon="3.31314">
        <ele>426</ele>
        <time>2015-11-22T07:53:31Z</time>
      </trkpt>
      <trkpt lat="43.58497" lon="3.31313">
        <ele>426</ele>
        <time>2015-11-22T07:53:32Z</time>
      </trkpt>
      <trkpt lat="43.58498" lon="3.31311">
        <ele>426.5</ele>
        <time>2015-11-22T07:53:33Z</time>
      </trkpt>
      <trkpt lat="43.58499" lon="3.31308">
        <ele>426.5</ele>
        <time>2015-11-22T07:53:34Z</time>
      </trkpt>
      <trkpt lat="43.58501" lon="3.31302">
        <ele>426.5</ele>
        <time>2015-11-22T07:53:36Z</time>
      </trkpt>
      <trkpt lat="43.58502" lon="3.31299">
        <ele>426.5</ele>
        <time>2015-11-22T07:53:37Z</time>
      </trkpt>
      <trkpt lat="43.58503" lon="3.31297">
        <ele>427</ele>
        <time>2015-11-22T07:53:38Z</time>
      </trkpt>
      <trkpt lat="43.58504" lon="3.31294">
        <ele>427</ele>
        <time>2015-11-22T07:53:39Z</time>
      </trkpt>
      <trkpt lat="43.58506" lon="3.31291">
        <ele>426.5</ele>
        <time>2015-11-22T07:53:40Z</time>
      </trkpt>
      <trkpt lat="43.58508" lon="3.31288">
        <ele>425.5</ele>
        <time>2015-11-22T07:53:42Z</time>
      </trkpt>
      <trkpt lat="43.5851" lon="3.31286">
        <ele>426</ele>
        <time>2015-11-22T07:53:43Z</time>
      </trkpt>
      <trkpt lat="43.58511" lon="3.31284">
        <ele>426.5</ele>
        <time>2015-11-22T07:53:44Z</time>
      </trkpt>
      <trkpt lat="43.58513" lon="3.31275">
        <ele>424</ele>
        <time>2015-11-22T07:53:46Z</time>
      </trkpt>
      <trkpt lat="43.58513" lon="3.31272">
        <ele>424.5</ele>
        <time>2015-11-22T07:53:47Z</time>
      </trkpt>
      <trkpt lat="43.58512" lon="3.31269">
        <ele>426.5</ele>
        <time>2015-11-22T07:53:48Z</time>
      </trkpt>
      <trkpt lat="43.58512" lon="3.31265">
        <ele>427</ele>
        <time>2015-11-22T07:53:49Z</time>
      </trkpt>
      <trkpt lat="43.58513" lon="3.31256">
        <ele>426.5</ele>
        <time>2015-11-22T07:53:51Z</time>
      </trkpt>
      <trkpt lat="43.58514" lon="3.31253">
        <ele>427</ele>
        <time>2015-11-22T07:53:52Z</time>
      </trkpt>
      <trkpt lat="43.58515" lon="3.3125">
        <ele>426</ele>
        <time>2015-11-22T07:53:53Z</time>
      </trkpt>
      <trkpt lat="43.58519" lon="3.31241">
        <ele>425</ele>
        <time>2015-11-22T07:53:55Z</time>
      </trkpt>
      <trkpt lat="43.5852" lon="3.31239">
        <ele>424</ele>
        <time>2015-11-22T07:53:56Z</time>
      </trkpt>
      <trkpt lat="43.58521" lon="3.31236">
        <ele>424.5</ele>
        <time>2015-11-22T07:53:57Z</time>
      </trkpt>
      <trkpt lat="43.58522" lon="3.31233">
        <ele>425</ele>
        <time>2015-11-22T07:53:58Z</time>
      </trkpt>
      <trkpt lat="43.58522" lon="3.3123">
        <ele>425.5</ele>
        <time>2015-11-22T07:53:59Z</time>
      </trkpt>
      <trkpt lat="43.58522" lon="3.31229">
        <ele>426</ele>
        <time>2015-11-22T07:54:00Z</time>
      </trkpt>
      <trkpt lat="43.58523" lon="3.31226">
        <ele>426</ele>
        <time>2015-11-22T07:54:01Z</time>
      </trkpt>
      <trkpt lat="43.58523" lon="3.31224">
        <ele>426</ele>
        <time>2015-11-22T07:54:02Z</time>
      </trkpt>
      <trkpt lat="43.58524" lon="3.31217">
        <ele>426.5</ele>
        <time>2015-11-22T07:54:04Z</time>
      </trkpt>
      <trkpt lat="43.58525" lon="3.31213">
        <ele>426</ele>
        <time>2015-11-22T07:54:05Z</time>
      </trkpt>
      <trkpt lat="43.58526" lon="3.31205">
        <ele>423.5</ele>
        <time>2015-11-22T07:54:07Z</time>
      </trkpt>
      <trkpt lat="43.58527" lon="3.31201">
        <ele>422.5</ele>
        <time>2015-11-22T07:54:08Z</time>
      </trkpt>
      <trkpt lat="43.58529" lon="3.31191">
        <ele>420.5</ele>
        <time>2015-11-22T07:54:10Z</time>
      </trkpt>
      <trkpt lat="43.5853" lon="3.31187">
        <ele>419</ele>
        <time>2015-11-22T07:54:11Z</time>
      </trkpt>
      <trkpt lat="43.58531" lon="3.31183">
        <ele>418</ele>
        <time>2015-11-22T07:54:12Z</time>
      </trkpt>
      <trkpt lat="43.58532" lon="3.31178">
        <ele>417</ele>
        <time>2015-11-22T07:54:13Z</time>
      </trkpt>
      <trkpt lat="43.58533" lon="3.31173">
        <ele>415.5</ele>
        <time>2015-11-22T07:54:14Z</time>
      </trkpt>
      <trkpt lat="43.58533" lon="3.31166">
        <ele>414.5</ele>
        <time>2015-11-22T07:54:16Z</time>
      </trkpt>
      <trkpt lat="43.58533" lon="3.31162">
        <ele>415</ele>
        <time>2015-11-22T07:54:17Z</time>
      </trkpt>
      <trkpt lat="43.58531" lon="3.31158">
        <ele>415.5</ele>
        <time>2015-11-22T07:54:18Z</time>
      </trkpt>
      <trkpt lat="43.58529" lon="3.31149">
        <ele>414.5</ele>
        <time>2015-11-22T07:54:20Z</time>
      </trkpt>
      <trkpt lat="43.58527" lon="3.31145">
        <ele>414</ele>
        <time>2015-11-22T07:54:21Z</time>
      </trkpt>
      <trkpt lat="43.58525" lon="3.31142">
        <ele>414</ele>
        <time>2015-11-22T07:54:22Z</time>
      </trkpt>
      <trkpt lat="43.58523" lon="3.31139">
        <ele>414</ele>
        <time>2015-11-22T07:54:23Z</time>
      </trkpt>
      <trkpt lat="43.58518" lon="3.31133">
        <ele>414</ele>
        <time>2015-11-22T07:54:25Z</time>
      </trkpt>
      <trkpt lat="43.58516" lon="3.3113">
        <ele>413.5</ele>
        <time>2015-11-22T07:54:26Z</time>
      </trkpt>
      <trkpt lat="43.58513" lon="3.31127">
        <ele>413.5</ele>
        <time>2015-11-22T07:54:27Z</time>
      </trkpt>
      <trkpt lat="43.58507" lon="3.31122">
        <ele>414</ele>
        <time>2015-11-22T07:54:29Z</time>
      </trkpt>
      <trkpt lat="43.58504" lon="3.31119">
        <ele>414.5</ele>
        <time>2015-11-22T07:54:30Z</time>
      </trkpt>
      <trkpt lat="43.58501" lon="3.31115">
        <ele>414.5</ele>
        <time>2015-11-22T07:54:31Z</time>
      </trkpt>
      <trkpt lat="43.58498" lon="3.31109">
        <ele>416</ele>
        <time>2015-11-22T07:54:33Z</time>
      </trkpt>
      <trkpt lat="43.58497" lon="3.31105">
        <ele>416</ele>
        <time>2015-11-22T07:54:34Z</time>
      </trkpt>
      <trkpt lat="43.58496" lon="3.31102">
        <ele>416.5</ele>
        <time>2015-11-22T07:54:35Z</time>
      </trkpt>
      <trkpt lat="43.58495" lon="3.311">
        <ele>417</ele>
        <time>2015-11-22T07:54:36Z</time>
      </trkpt>
      <trkpt lat="43.58493" lon="3.31092">
        <ele>417.5</ele>
        <time>2015-11-22T07:54:38Z</time>
      </trkpt>
      <trkpt lat="43.58493" lon="3.31089">
        <ele>417.5</ele>
        <time>2015-11-22T07:54:39Z</time>
      </trkpt>
      <trkpt lat="43.58494" lon="3.31084">
        <ele>417.5</ele>
        <time>2015-11-22T07:54:40Z</time>
      </trkpt>
      <trkpt lat="43.58495" lon="3.31078">
        <ele>418</ele>
        <time>2015-11-22T07:54:42Z</time>
      </trkpt>
      <trkpt lat="43.58495" lon="3.31075">
        <ele>419</ele>
        <time>2015-11-22T07:54:43Z</time>
      </trkpt>
      <trkpt lat="43.58495" lon="3.31073">
        <ele>419.5</ele>
        <time>2015-11-22T07:54:44Z</time>
      </trkpt>
      <trkpt lat="43.58494" lon="3.3107">
        <ele>420</ele>
        <time>2015-11-22T07:54:45Z</time>
      </trkpt>
      <trkpt lat="43.58494" lon="3.31067">
        <ele>419.5</ele>
        <time>2015-11-22T07:54:46Z</time>
      </trkpt>
      <trkpt lat="43.58495" lon="3.31063">
        <ele>419</ele>
        <time>2015-11-22T07:54:47Z</time>
      </trkpt>
      <trkpt lat="43.58495" lon="3.31061">
        <ele>419</ele>
        <time>2015-11-22T07:54:48Z</time>
      </trkpt>
      <trkpt lat="43.58495" lon="3.3106">
        <ele>419.5</ele>
        <time>2015-11-22T07:54:49Z</time>
      </trkpt>
      <trkpt lat="43.58495" lon="3.31057">
        <ele>419.5</ele>
        <time>2015-11-22T07:54:50Z</time>
      </trkpt>
      <trkpt lat="43.58494" lon="3.31055">
        <ele>420.5</ele>
        <time>2015-11-22T07:54:51Z</time>
      </trkpt>
      <trkpt lat="43.58494" lon="3.31051">
        <ele>421</ele>
        <time>2015-11-22T07:54:52Z</time>
      </trkpt>
      <trkpt lat="43.58493" lon="3.31043">
        <ele>420.5</ele>
        <time>2015-11-22T07:54:54Z</time>
      </trkpt>
      <trkpt lat="43.58493" lon="3.31039">
        <ele>420</ele>
        <time>2015-11-22T07:54:55Z</time>
      </trkpt>
      <trkpt lat="43.58494" lon="3.31034">
        <ele>420.5</ele>
        <time>2015-11-22T07:54:56Z</time>
      </trkpt>
      <trkpt lat="43.58494" lon="3.3103">
        <ele>420.5</ele>
        <time>2015-11-22T07:54:57Z</time>
      </trkpt>
      <trkpt lat="43.58495" lon="3.31026">
        <ele>421</ele>
        <time>2015-11-22T07:54:58Z</time>
      </trkpt>
      <trkpt lat="43.58496" lon="3.31022">
        <ele>421.5</ele>
        <time>2015-11-22T07:54:59Z</time>
      </trkpt>
      <trkpt lat="43.58494" lon="3.31022">
        <ele>422</ele>
        <time>2015-11-22T07:55:00Z</time>
      </trkpt>
      <trkpt lat="43.58495" lon="3.31013">
        <ele>421.5</ele>
        <time>2015-11-22T07:55:02Z</time>
      </trkpt>
      <trkpt lat="43.58496" lon="3.31009">
        <ele>421.5</ele>
        <time>2015-11-22T07:55:03Z</time>
      </trkpt>
      <trkpt lat="43.58496" lon="3.31005">
        <ele>421</ele>
        <time>2015-11-22T07:55:04Z</time>
      </trkpt>
      <trkpt lat="43.58496" lon="3.31002">
        <ele>421</ele>
        <time>2015-11-22T07:55:05Z</time>
      </trkpt>
      <trkpt lat="43.58497" lon="3.30998">
        <ele>419.5</ele>
        <time>2015-11-22T07:55:06Z</time>
      </trkpt>
      <trkpt lat="43.58497" lon="3.30994">
        <ele>418.5</ele>
        <time>2015-11-22T07:55:07Z</time>
      </trkpt>
      <trkpt lat="43.58498" lon="3.30991">
        <ele>418</ele>
        <time>2015-11-22T07:55:08Z</time>
      </trkpt>
      <trkpt lat="43.58498" lon="3.30987">
        <ele>417.5</ele>
        <time>2015-11-22T07:55:09Z</time>
      </trkpt>
      <trkpt lat="43.58498" lon="3.30985">
        <ele>418.5</ele>
        <time>2015-11-22T07:55:10Z</time>
      </trkpt>
      <trkpt lat="43.58499" lon="3.30982">
        <ele>418.5</ele>
        <time>2015-11-22T07:55:11Z</time>
      </trkpt>
      <trkpt lat="43.58499" lon="3.30979">
        <ele>417.5</ele>
        <time>2015-11-22T07:55:12Z</time>
      </trkpt>
      <trkpt lat="43.585" lon="3.30977">
        <ele>417</ele>
        <time>2015-11-22T07:55:13Z</time>
      </trkpt>
      <trkpt lat="43.585" lon="3.30974">
        <ele>417.5</ele>
        <time>2015-11-22T07:55:14Z</time>
      </trkpt>
      <trkpt lat="43.585" lon="3.30973">
        <ele>417</ele>
        <time>2015-11-22T07:55:15Z</time>
      </trkpt>
      <trkpt lat="43.585" lon="3.30971">
        <ele>417.5</ele>
        <time>2015-11-22T07:55:15Z</time>
      </trkpt>
      <trkpt lat="43.585" lon="3.30968">
        <ele>417.5</ele>
        <time>2015-11-22T07:55:17Z</time>
      </trkpt>
      <trkpt lat="43.58499" lon="3.30965">
        <ele>418.5</ele>
        <time>2015-11-22T07:55:18Z</time>
      </trkpt>
      <trkpt lat="43.58499" lon="3.30964">
        <ele>418.5</ele>
        <time>2015-11-22T07:55:19Z</time>
      </trkpt>
      <trkpt lat="43.58499" lon="3.30962">
        <ele>418</ele>
        <time>2015-11-22T07:55:20Z</time>
      </trkpt>
      <trkpt lat="43.58498" lon="3.3096">
        <ele>418</ele>
        <time>2015-11-22T07:55:21Z</time>
      </trkpt>
      <trkpt lat="43.58497" lon="3.30959">
        <ele>420.5</ele>
        <time>2015-11-22T07:55:23Z</time>
      </trkpt>
      <trkpt lat="43.58497" lon="3.30959">
        <ele>421</ele>
        <time>2015-11-22T07:55:23Z</time>
      </trkpt>
      <trkpt lat="43.58496" lon="3.30957">
        <ele>422</ele>
        <time>2015-11-22T07:55:24Z</time>
      </trkpt>
      <trkpt lat="43.58496" lon="3.30956">
        <ele>423.5</ele>
        <time>2015-11-22T07:55:25Z</time>
      </trkpt>
      <trkpt lat="43.58495" lon="3.30954">
        <ele>424</ele>
        <time>2015-11-22T07:55:26Z</time>
      </trkpt>
      <trkpt lat="43.58495" lon="3.30952">
        <ele>423.5</ele>
        <time>2015-11-22T07:55:27Z</time>
      </trkpt>
      <trkpt lat="43.58494" lon="3.30952">
        <ele>424</ele>
        <time>2015-11-22T07:55:28Z</time>
      </trkpt>
      <trkpt lat="43.58493" lon="3.3095">
        <ele>425.5</ele>
        <time>2015-11-22T07:55:29Z</time>
      </trkpt>
      <trkpt lat="43.58493" lon="3.30949">
        <ele>426</ele>
        <time>2015-11-22T07:55:30Z</time>
      </trkpt>
      <trkpt lat="43.58492" lon="3.30947">
        <ele>426.5</ele>
        <time>2015-11-22T07:55:31Z</time>
      </trkpt>
      <trkpt lat="43.58491" lon="3.30945">
        <ele>427.5</ele>
        <time>2015-11-22T07:55:32Z</time>
      </trkpt>
      <trkpt lat="43.58491" lon="3.30943">
        <ele>428</ele>
        <time>2015-11-22T07:55:33Z</time>
      </trkpt>
      <trkpt lat="43.58491" lon="3.30942">
        <ele>429</ele>
        <time>2015-11-22T07:55:34Z</time>
      </trkpt>
      <trkpt lat="43.58491" lon="3.3094">
        <ele>429.5</ele>
        <time>2015-11-22T07:55:35Z</time>
      </trkpt>
      <trkpt lat="43.58491" lon="3.30939">
        <ele>429.5</ele>
        <time>2015-11-22T07:55:36Z</time>
      </trkpt>
      <trkpt lat="43.5849" lon="3.30937">
        <ele>429.5</ele>
        <time>2015-11-22T07:55:37Z</time>
      </trkpt>
      <trkpt lat="43.58489" lon="3.30936">
        <ele>429</ele>
        <time>2015-11-22T07:55:38Z</time>
      </trkpt>
      <trkpt lat="43.58489" lon="3.30934">
        <ele>429.5</ele>
        <time>2015-11-22T07:55:40Z</time>
      </trkpt>
      <trkpt lat="43.58489" lon="3.30932">
        <ele>428</ele>
        <time>2015-11-22T07:55:40Z</time>
      </trkpt>
      <trkpt lat="43.58488" lon="3.30931">
        <ele>429</ele>
        <time>2015-11-22T07:55:42Z</time>
      </trkpt>
      <trkpt lat="43.58488" lon="3.3093">
        <ele>429.5</ele>
        <time>2015-11-22T07:55:42Z</time>
      </trkpt>
      <trkpt lat="43.58487" lon="3.30928">
        <ele>431</ele>
        <time>2015-11-22T07:55:43Z</time>
      </trkpt>
      <trkpt lat="43.58486" lon="3.30926">
        <ele>431</ele>
        <time>2015-11-22T07:55:44Z</time>
      </trkpt>
      <trkpt lat="43.58486" lon="3.30924">
        <ele>431</ele>
        <time>2015-11-22T07:55:45Z</time>
      </trkpt>
      <trkpt lat="43.58485" lon="3.30923">
        <ele>432.5</ele>
        <time>2015-11-22T07:55:46Z</time>
      </trkpt>
      <trkpt lat="43.58484" lon="3.30922">
        <ele>433</ele>
        <time>2015-11-22T07:55:47Z</time>
      </trkpt>
      <trkpt lat="43.58485" lon="3.3092">
        <ele>433</ele>
        <time>2015-11-22T07:55:48Z</time>
      </trkpt>
      <trkpt lat="43.58484" lon="3.30919">
        <ele>433.5</ele>
        <time>2015-11-22T07:55:49Z</time>
      </trkpt>
      <trkpt lat="43.58484" lon="3.30918">
        <ele>433</ele>
        <time>2015-11-22T07:55:50Z</time>
      </trkpt>
      <trkpt lat="43.58485" lon="3.30916">
        <ele>433.5</ele>
        <time>2015-11-22T07:55:51Z</time>
      </trkpt>
      <trkpt lat="43.58485" lon="3.30915">
        <ele>433.5</ele>
        <time>2015-11-22T07:55:52Z</time>
      </trkpt>
      <trkpt lat="43.58486" lon="3.30913">
        <ele>433</ele>
        <time>2015-11-22T07:55:53Z</time>
      </trkpt>
      <trkpt lat="43.58486" lon="3.30911">
        <ele>433</ele>
        <time>2015-11-22T07:55:54Z</time>
      </trkpt>
      <trkpt lat="43.58487" lon="3.30909">
        <ele>431.5</ele>
        <time>2015-11-22T07:55:55Z</time>
      </trkpt>
      <trkpt lat="43.58488" lon="3.30907">
        <ele>430.5</ele>
        <time>2015-11-22T07:55:57Z</time>
      </trkpt>
      <trkpt lat="43.5849" lon="3.30904">
        <ele>430</ele>
        <time>2015-11-22T07:55:58Z</time>
      </trkpt>
      <trkpt lat="43.58491" lon="3.30903">
        <ele>430</ele>
        <time>2015-11-22T07:55:59Z</time>
      </trkpt>
      <trkpt lat="43.58492" lon="3.30902">
        <ele>430</ele>
        <time>2015-11-22T07:56:00Z</time>
      </trkpt>
      <trkpt lat="43.58494" lon="3.309">
        <ele>429</ele>
        <time>2015-11-22T07:56:01Z</time>
      </trkpt>
      <trkpt lat="43.58495" lon="3.30898">
        <ele>430</ele>
        <time>2015-11-22T07:56:03Z</time>
      </trkpt>
      <trkpt lat="43.58499" lon="3.30896">
        <ele>428.5</ele>
        <time>2015-11-22T07:56:04Z</time>
      </trkpt>
      <trkpt lat="43.585" lon="3.30895">
        <ele>428.5</ele>
        <time>2015-11-22T07:56:05Z</time>
      </trkpt>
      <trkpt lat="43.58502" lon="3.30893">
        <ele>428.5</ele>
        <time>2015-11-22T07:56:06Z</time>
      </trkpt>
      <trkpt lat="43.58504" lon="3.30892">
        <ele>428</ele>
        <time>2015-11-22T07:56:07Z</time>
      </trkpt>
      <trkpt lat="43.58505" lon="3.30891">
        <ele>428</ele>
        <time>2015-11-22T07:56:09Z</time>
      </trkpt>
      <trkpt lat="43.58508" lon="3.3089">
        <ele>428.5</ele>
        <time>2015-11-22T07:56:10Z</time>
      </trkpt>
      <trkpt lat="43.58509" lon="3.30888">
        <ele>428.5</ele>
        <time>2015-11-22T07:56:11Z</time>
      </trkpt>
      <trkpt lat="43.58511" lon="3.30885">
        <ele>429</ele>
        <time>2015-11-22T07:56:12Z</time>
      </trkpt>
      <trkpt lat="43.58512" lon="3.30884">
        <ele>431</ele>
        <time>2015-11-22T07:56:13Z</time>
      </trkpt>
      <trkpt lat="43.58513" lon="3.30883">
        <ele>433.5</ele>
        <time>2015-11-22T07:56:14Z</time>
      </trkpt>
      <trkpt lat="43.58514" lon="3.30881">
        <ele>436</ele>
        <time>2015-11-22T07:56:15Z</time>
      </trkpt>
      <trkpt lat="43.58516" lon="3.3088">
        <ele>437</ele>
        <time>2015-11-22T07:56:16Z</time>
      </trkpt>
      <trkpt lat="43.58516" lon="3.30878">
        <ele>438</ele>
        <time>2015-11-22T07:56:17Z</time>
      </trkpt>
      <trkpt lat="43.58516" lon="3.30877">
        <ele>438.5</ele>
        <time>2015-11-22T07:56:18Z</time>
      </trkpt>
      <trkpt lat="43.58518" lon="3.30875">
        <ele>439</ele>
        <time>2015-11-22T07:56:19Z</time>
      </trkpt>
      <trkpt lat="43.58518" lon="3.30874">
        <ele>439.5</ele>
        <time>2015-11-22T07:56:20Z</time>
      </trkpt>
      <trkpt lat="43.58518" lon="3.30872">
        <ele>438.5</ele>
        <time>2015-11-22T07:56:21Z</time>
      </trkpt>
      <trkpt lat="43.58519" lon="3.30871">
        <ele>438.5</ele>
        <time>2015-11-22T07:56:22Z</time>
      </trkpt>
      <trkpt lat="43.5852" lon="3.30869">
        <ele>438.5</ele>
        <time>2015-11-22T07:56:23Z</time>
      </trkpt>
      <trkpt lat="43.58521" lon="3.30867">
        <ele>438.5</ele>
        <time>2015-11-22T07:56:24Z</time>
      </trkpt>
      <trkpt lat="43.58522" lon="3.30865">
        <ele>438</ele>
        <time>2015-11-22T07:56:25Z</time>
      </trkpt>
      <trkpt lat="43.58524" lon="3.30865">
        <ele>438.5</ele>
        <time>2015-11-22T07:56:26Z</time>
      </trkpt>
      <trkpt lat="43.58528" lon="3.30859">
        <ele>435</ele>
        <time>2015-11-22T07:56:28Z</time>
      </trkpt>
      <trkpt lat="43.5853" lon="3.30855">
        <ele>435</ele>
        <time>2015-11-22T07:56:29Z</time>
      </trkpt>
      <trkpt lat="43.58532" lon="3.30852">
        <ele>435</ele>
        <time>2015-11-22T07:56:30Z</time>
      </trkpt>
      <trkpt lat="43.58534" lon="3.30847">
        <ele>434.5</ele>
        <time>2015-11-22T07:56:31Z</time>
      </trkpt>
      <trkpt lat="43.58537" lon="3.30843">
        <ele>432</ele>
        <time>2015-11-22T07:56:32Z</time>
      </trkpt>
      <trkpt lat="43.5854" lon="3.30838">
        <ele>432</ele>
        <time>2015-11-22T07:56:33Z</time>
      </trkpt>
      <trkpt lat="43.58543" lon="3.30835">
        <ele>432</ele>
        <time>2015-11-22T07:56:34Z</time>
      </trkpt>
      <trkpt lat="43.58545" lon="3.30831">
        <ele>431.5</ele>
        <time>2015-11-22T07:56:35Z</time>
      </trkpt>
      <trkpt lat="43.58553" lon="3.30825">
        <ele>430.5</ele>
        <time>2015-11-22T07:56:37Z</time>
      </trkpt>
      <trkpt lat="43.58556" lon="3.30821">
        <ele>430.5</ele>
        <time>2015-11-22T07:56:38Z</time>
      </trkpt>
      <trkpt lat="43.58561" lon="3.3082">
        <ele>429.5</ele>
        <time>2015-11-22T07:56:39Z</time>
      </trkpt>
      <trkpt lat="43.58565" lon="3.30823">
        <ele>428.5</ele>
        <time>2015-11-22T07:56:40Z</time>
      </trkpt>
      <trkpt lat="43.58567" lon="3.30826">
        <ele>428</ele>
        <time>2015-11-22T07:56:41Z</time>
      </trkpt>
      <trkpt lat="43.58568" lon="3.30829">
        <ele>428.5</ele>
        <time>2015-11-22T07:56:42Z</time>
      </trkpt>
      <trkpt lat="43.58568" lon="3.30832">
        <ele>429</ele>
        <time>2015-11-22T07:56:43Z</time>
      </trkpt>
      <trkpt lat="43.5857" lon="3.30837">
        <ele>429.5</ele>
        <time>2015-11-22T07:56:45Z</time>
      </trkpt>
      <trkpt lat="43.5857" lon="3.3084">
        <ele>429.5</ele>
        <time>2015-11-22T07:56:46Z</time>
      </trkpt>
      <trkpt lat="43.5857" lon="3.30843">
        <ele>429.5</ele>
        <time>2015-11-22T07:56:47Z</time>
      </trkpt>
      <trkpt lat="43.5857" lon="3.30846">
        <ele>430.5</ele>
        <time>2015-11-22T07:56:50Z</time>
      </trkpt>
      <trkpt lat="43.58571" lon="3.30849">
        <ele>430.5</ele>
        <time>2015-11-22T07:56:51Z</time>
      </trkpt>
      <trkpt lat="43.58571" lon="3.30852">
        <ele>430</ele>
        <time>2015-11-22T07:56:52Z</time>
      </trkpt>
      <trkpt lat="43.58571" lon="3.30855">
        <ele>429.5</ele>
        <time>2015-11-22T07:56:53Z</time>
      </trkpt>
      <trkpt lat="43.58573" lon="3.30858">
        <ele>429</ele>
        <time>2015-11-22T07:56:54Z</time>
      </trkpt>
      <trkpt lat="43.58573" lon="3.30861">
        <ele>429</ele>
        <time>2015-11-22T07:56:55Z</time>
      </trkpt>
      <trkpt lat="43.58573" lon="3.30867">
        <ele>428.5</ele>
        <time>2015-11-22T07:56:57Z</time>
      </trkpt>
      <trkpt lat="43.58574" lon="3.3087">
        <ele>428</ele>
        <time>2015-11-22T07:56:58Z</time>
      </trkpt>
      <trkpt lat="43.58576" lon="3.30876">
        <ele>427</ele>
        <time>2015-11-22T07:57:00Z</time>
      </trkpt>
      <trkpt lat="43.58577" lon="3.3088">
        <ele>427</ele>
        <time>2015-11-22T07:57:01Z</time>
      </trkpt>
      <trkpt lat="43.58578" lon="3.30884">
        <ele>427</ele>
        <time>2015-11-22T07:57:02Z</time>
      </trkpt>
      <trkpt lat="43.5858" lon="3.30887">
        <ele>426.5</ele>
        <time>2015-11-22T07:57:03Z</time>
      </trkpt>
      <trkpt lat="43.58581" lon="3.30891">
        <ele>426</ele>
        <time>2015-11-22T07:57:04Z</time>
      </trkpt>
      <trkpt lat="43.58584" lon="3.30898">
        <ele>426</ele>
        <time>2015-11-22T07:57:06Z</time>
      </trkpt>
      <trkpt lat="43.58586" lon="3.30901">
        <ele>426</ele>
        <time>2015-11-22T07:57:07Z</time>
      </trkpt>
      <trkpt lat="43.58588" lon="3.30904">
        <ele>426.5</ele>
        <time>2015-11-22T07:57:08Z</time>
      </trkpt>
      <trkpt lat="43.5859" lon="3.30906">
        <ele>426.5</ele>
        <time>2015-11-22T07:57:09Z</time>
      </trkpt>
      <trkpt lat="43.58593" lon="3.30909">
        <ele>426.5</ele>
        <time>2015-11-22T07:57:10Z</time>
      </trkpt>
      <trkpt lat="43.58595" lon="3.30911">
        <ele>426.5</ele>
        <time>2015-11-22T07:57:11Z</time>
      </trkpt>
      <trkpt lat="43.58597" lon="3.30913">
        <ele>427.5</ele>
        <time>2015-11-22T07:57:12Z</time>
      </trkpt>
      <trkpt lat="43.586" lon="3.30915">
        <ele>427.5</ele>
        <time>2015-11-22T07:57:13Z</time>
      </trkpt>
      <trkpt lat="43.58605" lon="3.30919">
        <ele>428.5</ele>
        <time>2015-11-22T07:57:15Z</time>
      </trkpt>
      <trkpt lat="43.58608" lon="3.30921">
        <ele>428.5</ele>
        <time>2015-11-22T07:57:16Z</time>
      </trkpt>
      <trkpt lat="43.58611" lon="3.30923">
        <ele>428.5</ele>
        <time>2015-11-22T07:57:17Z</time>
      </trkpt>
      <trkpt lat="43.58613" lon="3.30926">
        <ele>430.5</ele>
        <time>2015-11-22T07:57:18Z</time>
      </trkpt>
      <trkpt lat="43.58616" lon="3.30928">
        <ele>431</ele>
        <time>2015-11-22T07:57:19Z</time>
      </trkpt>
      <trkpt lat="43.58618" lon="3.30931">
        <ele>430.5</ele>
        <time>2015-11-22T07:57:20Z</time>
      </trkpt>
      <trkpt lat="43.58621" lon="3.30933">
        <ele>431</ele>
        <time>2015-11-22T07:57:21Z</time>
      </trkpt>
      <trkpt lat="43.58623" lon="3.30936">
        <ele>431</ele>
        <time>2015-11-22T07:57:22Z</time>
      </trkpt>
      <trkpt lat="43.58626" lon="3.30942">
        <ele>431</ele>
        <time>2015-11-22T07:57:24Z</time>
      </trkpt>
      <trkpt lat="43.58628" lon="3.30944">
        <ele>432</ele>
        <time>2015-11-22T07:57:25Z</time>
      </trkpt>
      <trkpt lat="43.5863" lon="3.30946">
        <ele>432.5</ele>
        <time>2015-11-22T07:57:26Z</time>
      </trkpt>
      <trkpt lat="43.58632" lon="3.30947">
        <ele>433</ele>
        <time>2015-11-22T07:57:27Z</time>
      </trkpt>
      <trkpt lat="43.58634" lon="3.30949">
        <ele>433.5</ele>
        <time>2015-11-22T07:57:28Z</time>
      </trkpt>
      <trkpt lat="43.58637" lon="3.3095">
        <ele>432.5</ele>
        <time>2015-11-22T07:57:29Z</time>
      </trkpt>
      <trkpt lat="43.58643" lon="3.3095">
        <ele>434</ele>
        <time>2015-11-22T07:57:31Z</time>
      </trkpt>
      <trkpt lat="43.58644" lon="3.30952">
        <ele>434.5</ele>
        <time>2015-11-22T07:57:32Z</time>
      </trkpt>
      <trkpt lat="43.58647" lon="3.30952">
        <ele>434.5</ele>
        <time>2015-11-22T07:57:33Z</time>
      </trkpt>
      <trkpt lat="43.5865" lon="3.30952">
        <ele>435</ele>
        <time>2015-11-22T07:57:34Z</time>
      </trkpt>
      <trkpt lat="43.58653" lon="3.30953">
        <ele>435</ele>
        <time>2015-11-22T07:57:35Z</time>
      </trkpt>
      <trkpt lat="43.58655" lon="3.30953">
        <ele>437</ele>
        <time>2015-11-22T07:57:36Z</time>
      </trkpt>
      <trkpt lat="43.58658" lon="3.30952">
        <ele>438</ele>
        <time>2015-11-22T07:57:37Z</time>
      </trkpt>
      <trkpt lat="43.58661" lon="3.30954">
        <ele>438</ele>
        <time>2015-11-22T07:57:38Z</time>
      </trkpt>
      <trkpt lat="43.58665" lon="3.30953">
        <ele>438</ele>
        <time>2015-11-22T07:57:40Z</time>
      </trkpt>
      <trkpt lat="43.58667" lon="3.30954">
        <ele>438.5</ele>
        <time>2015-11-22T07:57:41Z</time>
      </trkpt>
      <trkpt lat="43.5867" lon="3.30953">
        <ele>438.5</ele>
        <time>2015-11-22T07:57:42Z</time>
      </trkpt>
      <trkpt lat="43.58671" lon="3.30952">
        <ele>439</ele>
        <time>2015-11-22T07:57:43Z</time>
      </trkpt>
      <trkpt lat="43.58674" lon="3.30951">
        <ele>441</ele>
        <time>2015-11-22T07:57:44Z</time>
      </trkpt>
      <trkpt lat="43.58676" lon="3.3095">
        <ele>443</ele>
        <time>2015-11-22T07:57:45Z</time>
      </trkpt>
      <trkpt lat="43.5868" lon="3.30948">
        <ele>444.5</ele>
        <time>2015-11-22T07:57:47Z</time>
      </trkpt>
      <trkpt lat="43.58682" lon="3.30947">
        <ele>445</ele>
        <time>2015-11-22T07:57:48Z</time>
      </trkpt>
      <trkpt lat="43.58684" lon="3.30946">
        <ele>445</ele>
        <time>2015-11-22T07:57:49Z</time>
      </trkpt>
      <trkpt lat="43.58685" lon="3.30944">
        <ele>445</ele>
        <time>2015-11-22T07:57:50Z</time>
      </trkpt>
      <trkpt lat="43.5869" lon="3.30941">
        <ele>445</ele>
        <time>2015-11-22T07:57:52Z</time>
      </trkpt>
      <trkpt lat="43.58691" lon="3.3094">
        <ele>445</ele>
        <time>2015-11-22T07:57:53Z</time>
      </trkpt>
      <trkpt lat="43.58693" lon="3.30938">
        <ele>446.5</ele>
        <time>2015-11-22T07:57:54Z</time>
      </trkpt>
      <trkpt lat="43.58695" lon="3.30936">
        <ele>446.5</ele>
        <time>2015-11-22T07:57:55Z</time>
      </trkpt>
      <trkpt lat="43.58697" lon="3.30934">
        <ele>446.5</ele>
        <time>2015-11-22T07:57:56Z</time>
      </trkpt>
      <trkpt lat="43.587" lon="3.30933">
        <ele>446</ele>
        <time>2015-11-22T07:57:58Z</time>
      </trkpt>
      <trkpt lat="43.58702" lon="3.30931">
        <ele>446</ele>
        <time>2015-11-22T07:57:59Z</time>
      </trkpt>
      <trkpt lat="43.58704" lon="3.30929">
        <ele>446</ele>
        <time>2015-11-22T07:58:00Z</time>
      </trkpt>
      <trkpt lat="43.58706" lon="3.30928">
        <ele>446</ele>
        <time>2015-11-22T07:58:01Z</time>
      </trkpt>
      <trkpt lat="43.5871" lon="3.30925">
        <ele>445</ele>
        <time>2015-11-22T07:58:03Z</time>
      </trkpt>
      <trkpt lat="43.58712" lon="3.30923">
        <ele>445.5</ele>
        <time>2015-11-22T07:58:04Z</time>
      </trkpt>
      <trkpt lat="43.58714" lon="3.30923">
        <ele>445</ele>
        <time>2015-11-22T07:58:05Z</time>
      </trkpt>
      <trkpt lat="43.58715" lon="3.30921">
        <ele>446.5</ele>
        <time>2015-11-22T07:58:06Z</time>
      </trkpt>
      <trkpt lat="43.58718" lon="3.30919">
        <ele>444.5</ele>
        <time>2015-11-22T07:58:07Z</time>
      </trkpt>
      <trkpt lat="43.58721" lon="3.30917">
        <ele>444.5</ele>
        <time>2015-11-22T07:58:08Z</time>
      </trkpt>
      <trkpt lat="43.58724" lon="3.30915">
        <ele>444.5</ele>
        <time>2015-11-22T07:58:09Z</time>
      </trkpt>
      <trkpt lat="43.58726" lon="3.30914">
        <ele>446</ele>
        <time>2015-11-22T07:58:10Z</time>
      </trkpt>
      <trkpt lat="43.58729" lon="3.30912">
        <ele>447</ele>
        <time>2015-11-22T07:58:11Z</time>
      </trkpt>
      <trkpt lat="43.58732" lon="3.30911">
        <ele>447.5</ele>
        <time>2015-11-22T07:58:12Z</time>
      </trkpt>
      <trkpt lat="43.58733" lon="3.30908">
        <ele>447.5</ele>
        <time>2015-11-22T07:58:13Z</time>
      </trkpt>
      <trkpt lat="43.58735" lon="3.30906">
        <ele>448.5</ele>
        <time>2015-11-22T07:58:14Z</time>
      </trkpt>
      <trkpt lat="43.58737" lon="3.30904">
        <ele>449</ele>
        <time>2015-11-22T07:58:15Z</time>
      </trkpt>
      <trkpt lat="43.58739" lon="3.30901">
        <ele>447.5</ele>
        <time>2015-11-22T07:58:16Z</time>
      </trkpt>
      <trkpt lat="43.58741" lon="3.30898">
        <ele>446</ele>
        <time>2015-11-22T07:58:17Z</time>
      </trkpt>
      <trkpt lat="43.58744" lon="3.30895">
        <ele>444</ele>
        <time>2015-11-22T07:58:18Z</time>
      </trkpt>
      <trkpt lat="43.58747" lon="3.30891">
        <ele>445</ele>
        <time>2015-11-22T07:58:20Z</time>
      </trkpt>
      <trkpt lat="43.58748" lon="3.30888">
        <ele>445</ele>
        <time>2015-11-22T07:58:21Z</time>
      </trkpt>
      <trkpt lat="43.5875" lon="3.30885">
        <ele>445</ele>
        <time>2015-11-22T07:58:22Z</time>
      </trkpt>
      <trkpt lat="43.58751" lon="3.30883">
        <ele>445</ele>
        <time>2015-11-22T07:58:23Z</time>
      </trkpt>
      <trkpt lat="43.58753" lon="3.30882">
        <ele>445.5</ele>
        <time>2015-11-22T07:58:24Z</time>
      </trkpt>
      <trkpt lat="43.58754" lon="3.3088">
        <ele>446.5</ele>
        <time>2015-11-22T07:58:25Z</time>
      </trkpt>
      <trkpt lat="43.58755" lon="3.30878">
        <ele>449</ele>
        <time>2015-11-22T07:58:26Z</time>
      </trkpt>
      <trkpt lat="43.58756" lon="3.30876">
        <ele>450</ele>
        <time>2015-11-22T07:58:27Z</time>
      </trkpt>
      <trkpt lat="43.58758" lon="3.3087">
        <ele>451.5</ele>
        <time>2015-11-22T07:58:29Z</time>
      </trkpt>
      <trkpt lat="43.58758" lon="3.30867">
        <ele>451.5</ele>
        <time>2015-11-22T07:58:30Z</time>
      </trkpt>
      <trkpt lat="43.5876" lon="3.30864">
        <ele>449</ele>
        <time>2015-11-22T07:58:32Z</time>
      </trkpt>
      <trkpt lat="43.58761" lon="3.30862">
        <ele>449</ele>
        <time>2015-11-22T07:58:33Z</time>
      </trkpt>
      <trkpt lat="43.58763" lon="3.30859">
        <ele>448.5</ele>
        <time>2015-11-22T07:58:35Z</time>
      </trkpt>
      <trkpt lat="43.58765" lon="3.30853">
        <ele>448.5</ele>
        <time>2015-11-22T07:58:37Z</time>
      </trkpt>
      <trkpt lat="43.58767" lon="3.30852">
        <ele>448.5</ele>
        <time>2015-11-22T07:58:38Z</time>
      </trkpt>
      <trkpt lat="43.58769" lon="3.30849">
        <ele>446</ele>
        <time>2015-11-22T07:58:39Z</time>
      </trkpt>
      <trkpt lat="43.58771" lon="3.30848">
        <ele>447</ele>
        <time>2015-11-22T07:58:40Z</time>
      </trkpt>
      <trkpt lat="43.58772" lon="3.30846">
        <ele>447</ele>
        <time>2015-11-22T07:58:41Z</time>
      </trkpt>
      <trkpt lat="43.58773" lon="3.30844">
        <ele>446.5</ele>
        <time>2015-11-22T07:58:42Z</time>
      </trkpt>
      <trkpt lat="43.58774" lon="3.30841">
        <ele>447</ele>
        <time>2015-11-22T07:58:43Z</time>
      </trkpt>
      <trkpt lat="43.58776" lon="3.30839">
        <ele>447.5</ele>
        <time>2015-11-22T07:58:44Z</time>
      </trkpt>
      <trkpt lat="43.58778" lon="3.30835">
        <ele>447.5</ele>
        <time>2015-11-22T07:58:46Z</time>
      </trkpt>
      <trkpt lat="43.58779" lon="3.30832">
        <ele>446</ele>
        <time>2015-11-22T07:58:47Z</time>
      </trkpt>
      <trkpt lat="43.5878" lon="3.3083">
        <ele>446.5</ele>
        <time>2015-11-22T07:58:48Z</time>
      </trkpt>
      <trkpt lat="43.58781" lon="3.30826">
        <ele>445.5</ele>
        <time>2015-11-22T07:58:49Z</time>
      </trkpt>
      <trkpt lat="43.58783" lon="3.30821">
        <ele>446</ele>
        <time>2015-11-22T07:58:51Z</time>
      </trkpt>
      <trkpt lat="43.58784" lon="3.30819">
        <ele>445.5</ele>
        <time>2015-11-22T07:58:52Z</time>
      </trkpt>
      <trkpt lat="43.58785" lon="3.30816">
        <ele>446.5</ele>
        <time>2015-11-22T07:58:53Z</time>
      </trkpt>
      <trkpt lat="43.58789" lon="3.30809">
        <ele>445.5</ele>
        <time>2015-11-22T07:58:55Z</time>
      </trkpt>
      <trkpt lat="43.5879" lon="3.30806">
        <ele>445</ele>
        <time>2015-11-22T07:58:56Z</time>
      </trkpt>
      <trkpt lat="43.58791" lon="3.30805">
        <ele>444</ele>
        <time>2015-11-22T07:58:57Z</time>
      </trkpt>
      <trkpt lat="43.58792" lon="3.30803">
        <ele>443.5</ele>
        <time>2015-11-22T07:58:58Z</time>
      </trkpt>
      <trkpt lat="43.58792" lon="3.30801">
        <ele>443.5</ele>
        <time>2015-11-22T07:58:59Z</time>
      </trkpt>
      <trkpt lat="43.58794" lon="3.30798">
        <ele>444</ele>
        <time>2015-11-22T07:59:00Z</time>
      </trkpt>
      <trkpt lat="43.58796" lon="3.30795">
        <ele>446</ele>
        <time>2015-11-22T07:59:02Z</time>
      </trkpt>
      <trkpt lat="43.588" lon="3.3079">
        <ele>447</ele>
        <time>2015-11-22T07:59:04Z</time>
      </trkpt>
      <trkpt lat="43.58801" lon="3.30787">
        <ele>446.5</ele>
        <time>2015-11-22T07:59:05Z</time>
      </trkpt>
      <trkpt lat="43.58803" lon="3.30785">
        <ele>446.5</ele>
        <time>2015-11-22T07:59:06Z</time>
      </trkpt>
      <trkpt lat="43.58804" lon="3.30782">
        <ele>447.5</ele>
        <time>2015-11-22T07:59:07Z</time>
      </trkpt>
      <trkpt lat="43.58805" lon="3.3078">
        <ele>447.5</ele>
        <time>2015-11-22T07:59:08Z</time>
      </trkpt>
      <trkpt lat="43.58806" lon="3.30777">
        <ele>448</ele>
        <time>2015-11-22T07:59:09Z</time>
      </trkpt>
      <trkpt lat="43.58807" lon="3.30774">
        <ele>448.5</ele>
        <time>2015-11-22T07:59:10Z</time>
      </trkpt>
      <trkpt lat="43.58808" lon="3.30772">
        <ele>448.5</ele>
        <time>2015-11-22T07:59:11Z</time>
      </trkpt>
      <trkpt lat="43.58809" lon="3.30769">
        <ele>449</ele>
        <time>2015-11-22T07:59:12Z</time>
      </trkpt>
      <trkpt lat="43.58811" lon="3.30764">
        <ele>448</ele>
        <time>2015-11-22T07:59:14Z</time>
      </trkpt>
      <trkpt lat="43.58812" lon="3.30762">
        <ele>448.5</ele>
        <time>2015-11-22T07:59:15Z</time>
      </trkpt>
      <trkpt lat="43.58813" lon="3.30758">
        <ele>449.5</ele>
        <time>2015-11-22T07:59:16Z</time>
      </trkpt>
      <trkpt lat="43.58814" lon="3.30756">
        <ele>449.5</ele>
        <time>2015-11-22T07:59:17Z</time>
      </trkpt>
      <trkpt lat="43.58814" lon="3.30754">
        <ele>448.5</ele>
        <time>2015-11-22T07:59:18Z</time>
      </trkpt>
      <trkpt lat="43.58816" lon="3.30751">
        <ele>449</ele>
        <time>2015-11-22T07:59:19Z</time>
      </trkpt>
      <trkpt lat="43.58817" lon="3.30748">
        <ele>447.5</ele>
        <time>2015-11-22T07:59:20Z</time>
      </trkpt>
      <trkpt lat="43.58818" lon="3.30746">
        <ele>447</ele>
        <time>2015-11-22T07:59:21Z</time>
      </trkpt>
      <trkpt lat="43.58819" lon="3.30744">
        <ele>446.5</ele>
        <time>2015-11-22T07:59:22Z</time>
      </trkpt>
      <trkpt lat="43.58819" lon="3.30741">
        <ele>446</ele>
        <time>2015-11-22T07:59:23Z</time>
      </trkpt>
      <trkpt lat="43.5882" lon="3.30739">
        <ele>446</ele>
        <time>2015-11-22T07:59:24Z</time>
      </trkpt>
      <trkpt lat="43.58821" lon="3.30737">
        <ele>446.5</ele>
        <time>2015-11-22T07:59:25Z</time>
      </trkpt>
      <trkpt lat="43.58821" lon="3.30733">
        <ele>447</ele>
        <time>2015-11-22T07:59:26Z</time>
      </trkpt>
      <trkpt lat="43.58821" lon="3.30731">
        <ele>448.5</ele>
        <time>2015-11-22T07:59:27Z</time>
      </trkpt>
      <trkpt lat="43.58822" lon="3.30726">
        <ele>448</ele>
        <time>2015-11-22T07:59:28Z</time>
      </trkpt>
      <trkpt lat="43.58823" lon="3.30723">
        <ele>447.5</ele>
        <time>2015-11-22T07:59:29Z</time>
      </trkpt>
      <trkpt lat="43.58823" lon="3.30721">
        <ele>449.5</ele>
        <time>2015-11-22T07:59:32Z</time>
      </trkpt>
      <trkpt lat="43.58825" lon="3.30717">
        <ele>449.5</ele>
        <time>2015-11-22T07:59:33Z</time>
      </trkpt>
      <trkpt lat="43.58825" lon="3.30714">
        <ele>449.5</ele>
        <time>2015-11-22T07:59:34Z</time>
      </trkpt>
      <trkpt lat="43.58825" lon="3.30712">
        <ele>449.5</ele>
        <time>2015-11-22T07:59:36Z</time>
      </trkpt>
      <trkpt lat="43.58825" lon="3.30709">
        <ele>449</ele>
        <time>2015-11-22T07:59:36Z</time>
      </trkpt>
      <trkpt lat="43.58826" lon="3.30705">
        <ele>448.5</ele>
        <time>2015-11-22T07:59:38Z</time>
      </trkpt>
      <trkpt lat="43.58826" lon="3.30703">
        <ele>448.5</ele>
        <time>2015-11-22T07:59:38Z</time>
      </trkpt>
      <trkpt lat="43.58827" lon="3.307">
        <ele>448</ele>
        <time>2015-11-22T07:59:39Z</time>
      </trkpt>
      <trkpt lat="43.58827" lon="3.30697">
        <ele>448</ele>
        <time>2015-11-22T07:59:40Z</time>
      </trkpt>
      <trkpt lat="43.58827" lon="3.30695">
        <ele>447</ele>
        <time>2015-11-22T07:59:42Z</time>
      </trkpt>
      <trkpt lat="43.58827" lon="3.30693">
        <ele>447.5</ele>
        <time>2015-11-22T07:59:42Z</time>
      </trkpt>
      <trkpt lat="43.58827" lon="3.30691">
        <ele>448</ele>
        <time>2015-11-22T07:59:44Z</time>
      </trkpt>
      <trkpt lat="43.58827" lon="3.30688">
        <ele>447.5</ele>
        <time>2015-11-22T07:59:44Z</time>
      </trkpt>
      <trkpt lat="43.58827" lon="3.30686">
        <ele>447.5</ele>
        <time>2015-11-22T07:59:46Z</time>
      </trkpt>
      <trkpt lat="43.58828" lon="3.30683">
        <ele>447.5</ele>
        <time>2015-11-22T07:59:47Z</time>
      </trkpt>
      <trkpt lat="43.58829" lon="3.30678">
        <ele>447</ele>
        <time>2015-11-22T07:59:48Z</time>
      </trkpt>
      <trkpt lat="43.58829" lon="3.30675">
        <ele>447</ele>
        <time>2015-11-22T07:59:49Z</time>
      </trkpt>
      <trkpt lat="43.5883" lon="3.30672">
        <ele>447.5</ele>
        <time>2015-11-22T07:59:50Z</time>
      </trkpt>
      <trkpt lat="43.5883" lon="3.3067">
        <ele>447</ele>
        <time>2015-11-22T07:59:51Z</time>
      </trkpt>
      <trkpt lat="43.5883" lon="3.30667">
        <ele>447</ele>
        <time>2015-11-22T07:59:52Z</time>
      </trkpt>
      <trkpt lat="43.58831" lon="3.30664">
        <ele>447.5</ele>
        <time>2015-11-22T07:59:53Z</time>
      </trkpt>
      <trkpt lat="43.58831" lon="3.30661">
        <ele>449</ele>
        <time>2015-11-22T07:59:54Z</time>
      </trkpt>
      <trkpt lat="43.58831" lon="3.30659">
        <ele>449</ele>
        <time>2015-11-22T07:59:55Z</time>
      </trkpt>
      <trkpt lat="43.58831" lon="3.30657">
        <ele>450</ele>
        <time>2015-11-22T07:59:57Z</time>
      </trkpt>
      <trkpt lat="43.58832" lon="3.30655">
        <ele>449.5</ele>
        <time>2015-11-22T07:59:57Z</time>
      </trkpt>
      <trkpt lat="43.58832" lon="3.30652">
        <ele>448.5</ele>
        <time>2015-11-22T07:59:59Z</time>
      </trkpt>
      <trkpt lat="43.58832" lon="3.3065">
        <ele>448.5</ele>
        <time>2015-11-22T08:00:00Z</time>
      </trkpt>
      <trkpt lat="43.58832" lon="3.30645">
        <ele>448</ele>
        <time>2015-11-22T08:00:01Z</time>
      </trkpt>
      <trkpt lat="43.58832" lon="3.30642">
        <ele>448</ele>
        <time>2015-11-22T08:00:02Z</time>
      </trkpt>
      <trkpt lat="43.58833" lon="3.3064">
        <ele>448.5</ele>
        <time>2015-11-22T08:00:03Z</time>
      </trkpt>
      <trkpt lat="43.58833" lon="3.30638">
        <ele>448</ele>
        <time>2015-11-22T08:00:05Z</time>
      </trkpt>
      <trkpt lat="43.58834" lon="3.30632">
        <ele>449.5</ele>
        <time>2015-11-22T08:00:06Z</time>
      </trkpt>
      <trkpt lat="43.58834" lon="3.30629">
        <ele>449.5</ele>
        <time>2015-11-22T08:00:08Z</time>
      </trkpt>
      <trkpt lat="43.58835" lon="3.30624">
        <ele>449.5</ele>
        <time>2015-11-22T08:00:10Z</time>
      </trkpt>
      <trkpt lat="43.58836" lon="3.30619">
        <ele>447.5</ele>
        <time>2015-11-22T08:00:11Z</time>
      </trkpt>
      <trkpt lat="43.58836" lon="3.30617">
        <ele>447</ele>
        <time>2015-11-22T08:00:12Z</time>
      </trkpt>
      <trkpt lat="43.58838" lon="3.3061">
        <ele>446.5</ele>
        <time>2015-11-22T08:00:14Z</time>
      </trkpt>
      <trkpt lat="43.58838" lon="3.30608">
        <ele>446.5</ele>
        <time>2015-11-22T08:00:15Z</time>
      </trkpt>
      <trkpt lat="43.58838" lon="3.30606">
        <ele>448</ele>
        <time>2015-11-22T08:00:16Z</time>
      </trkpt>
      <trkpt lat="43.58838" lon="3.30603">
        <ele>448.5</ele>
        <time>2015-11-22T08:00:17Z</time>
      </trkpt>
      <trkpt lat="43.58839" lon="3.30601">
        <ele>449.5</ele>
        <time>2015-11-22T08:00:18Z</time>
      </trkpt>
      <trkpt lat="43.58839" lon="3.30598">
        <ele>449.5</ele>
        <time>2015-11-22T08:00:19Z</time>
      </trkpt>
      <trkpt lat="43.58839" lon="3.30595">
        <ele>450</ele>
        <time>2015-11-22T08:00:20Z</time>
      </trkpt>
      <trkpt lat="43.58839" lon="3.30594">
        <ele>449.5</ele>
        <time>2015-11-22T08:00:21Z</time>
      </trkpt>
      <trkpt lat="43.58839" lon="3.30592">
        <ele>449.5</ele>
        <time>2015-11-22T08:00:23Z</time>
      </trkpt>
      <trkpt lat="43.58839" lon="3.30586">
        <ele>450</ele>
        <time>2015-11-22T08:00:24Z</time>
      </trkpt>
      <trkpt lat="43.5884" lon="3.30583">
        <ele>451.5</ele>
        <time>2015-11-22T08:00:25Z</time>
      </trkpt>
      <trkpt lat="43.5884" lon="3.3058">
        <ele>452</ele>
        <time>2015-11-22T08:00:26Z</time>
      </trkpt>
      <trkpt lat="43.5884" lon="3.30577">
        <ele>452.5</ele>
        <time>2015-11-22T08:00:27Z</time>
      </trkpt>
      <trkpt lat="43.58841" lon="3.30574">
        <ele>453.5</ele>
        <time>2015-11-22T08:00:28Z</time>
      </trkpt>
      <trkpt lat="43.58841" lon="3.30571">
        <ele>454.5</ele>
        <time>2015-11-22T08:00:29Z</time>
      </trkpt>
      <trkpt lat="43.58842" lon="3.30567">
        <ele>456</ele>
        <time>2015-11-22T08:00:31Z</time>
      </trkpt>
      <trkpt lat="43.58842" lon="3.30561">
        <ele>456.5</ele>
        <time>2015-11-22T08:00:32Z</time>
      </trkpt>
      <trkpt lat="43.58843" lon="3.30558">
        <ele>456.5</ele>
        <time>2015-11-22T08:00:33Z</time>
      </trkpt>
      <trkpt lat="43.58843" lon="3.30555">
        <ele>457.5</ele>
        <time>2015-11-22T08:00:34Z</time>
      </trkpt>
      <trkpt lat="43.58843" lon="3.30553">
        <ele>457.5</ele>
        <time>2015-11-22T08:00:35Z</time>
      </trkpt>
      <trkpt lat="43.58843" lon="3.3055">
        <ele>457</ele>
        <time>2015-11-22T08:00:37Z</time>
      </trkpt>
      <trkpt lat="43.58843" lon="3.30545">
        <ele>457</ele>
        <time>2015-11-22T08:00:38Z</time>
      </trkpt>
      <trkpt lat="43.58843" lon="3.30543">
        <ele>456.5</ele>
        <time>2015-11-22T08:00:39Z</time>
      </trkpt>
      <trkpt lat="43.58843" lon="3.30539">
        <ele>456</ele>
        <time>2015-11-22T08:00:40Z</time>
      </trkpt>
      <trkpt lat="43.58843" lon="3.30536">
        <ele>455</ele>
        <time>2015-11-22T08:00:41Z</time>
      </trkpt>
      <trkpt lat="43.58843" lon="3.30534">
        <ele>456</ele>
        <time>2015-11-22T08:00:42Z</time>
      </trkpt>
      <trkpt lat="43.58843" lon="3.30531">
        <ele>454</ele>
        <time>2015-11-22T08:00:44Z</time>
      </trkpt>
      <trkpt lat="43.58843" lon="3.30526">
        <ele>453.5</ele>
        <time>2015-11-22T08:00:45Z</time>
      </trkpt>
      <trkpt lat="43.58843" lon="3.30524">
        <ele>453.5</ele>
        <time>2015-11-22T08:00:46Z</time>
      </trkpt>
      <trkpt lat="43.58843" lon="3.30521">
        <ele>453.5</ele>
        <time>2015-11-22T08:00:47Z</time>
      </trkpt>
      <trkpt lat="43.58843" lon="3.30515">
        <ele>452.5</ele>
        <time>2015-11-22T08:00:49Z</time>
      </trkpt>
      <trkpt lat="43.58843" lon="3.30512">
        <ele>452.5</ele>
        <time>2015-11-22T08:00:51Z</time>
      </trkpt>
      <trkpt lat="43.58844" lon="3.30506">
        <ele>452</ele>
        <time>2015-11-22T08:00:52Z</time>
      </trkpt>
      <trkpt lat="43.58845" lon="3.30502">
        <ele>452.5</ele>
        <time>2015-11-22T08:00:53Z</time>
      </trkpt>
      <trkpt lat="43.58846" lon="3.30491">
        <ele>444.5</ele>
        <time>2015-11-22T08:00:55Z</time>
      </trkpt>
      <trkpt lat="43.58847" lon="3.30489">
        <ele>444</ele>
        <time>2015-11-22T08:00:56Z</time>
      </trkpt>
      <trkpt lat="43.58847" lon="3.30487">
        <ele>444</ele>
        <time>2015-11-22T08:00:57Z</time>
      </trkpt>
      <trkpt lat="43.58847" lon="3.30484">
        <ele>444</ele>
        <time>2015-11-22T08:00:58Z</time>
      </trkpt>
      <trkpt lat="43.58847" lon="3.30481">
        <ele>444</ele>
        <time>2015-11-22T08:00:59Z</time>
      </trkpt>
      <trkpt lat="43.58848" lon="3.30477">
        <ele>443.5</ele>
        <time>2015-11-22T08:01:00Z</time>
      </trkpt>
      <trkpt lat="43.58848" lon="3.30473">
        <ele>445</ele>
        <time>2015-11-22T08:01:01Z</time>
      </trkpt>
      <trkpt lat="43.58848" lon="3.30471">
        <ele>445</ele>
        <time>2015-11-22T08:01:02Z</time>
      </trkpt>
      <trkpt lat="43.58849" lon="3.30467">
        <ele>445.5</ele>
        <time>2015-11-22T08:01:03Z</time>
      </trkpt>
      <trkpt lat="43.58849" lon="3.3046">
        <ele>445</ele>
        <time>2015-11-22T08:01:05Z</time>
      </trkpt>
      <trkpt lat="43.58848" lon="3.30457">
        <ele>445</ele>
        <time>2015-11-22T08:01:06Z</time>
      </trkpt>
      <trkpt lat="43.58848" lon="3.30454">
        <ele>445.5</ele>
        <time>2015-11-22T08:01:07Z</time>
      </trkpt>
      <trkpt lat="43.58846" lon="3.30451">
        <ele>445</ele>
        <time>2015-11-22T08:01:08Z</time>
      </trkpt>
      <trkpt lat="43.58845" lon="3.30448">
        <ele>445</ele>
        <time>2015-11-22T08:01:09Z</time>
      </trkpt>
      <trkpt lat="43.58844" lon="3.30445">
        <ele>445.5</ele>
        <time>2015-11-22T08:01:10Z</time>
      </trkpt>
      <trkpt lat="43.58842" lon="3.30443">
        <ele>446.5</ele>
        <time>2015-11-22T08:01:11Z</time>
      </trkpt>
      <trkpt lat="43.58841" lon="3.30441">
        <ele>447.5</ele>
        <time>2015-11-22T08:01:12Z</time>
      </trkpt>
      <trkpt lat="43.5884" lon="3.30438">
        <ele>448</ele>
        <time>2015-11-22T08:01:13Z</time>
      </trkpt>
      <trkpt lat="43.58837" lon="3.30433">
        <ele>448.5</ele>
        <time>2015-11-22T08:01:15Z</time>
      </trkpt>
      <trkpt lat="43.58835" lon="3.3043">
        <ele>449</ele>
        <time>2015-11-22T08:01:16Z</time>
      </trkpt>
      <trkpt lat="43.58834" lon="3.30428">
        <ele>448.5</ele>
        <time>2015-11-22T08:01:17Z</time>
      </trkpt>
      <trkpt lat="43.58832" lon="3.30425">
        <ele>449</ele>
        <time>2015-11-22T08:01:18Z</time>
      </trkpt>
      <trkpt lat="43.58829" lon="3.3042">
        <ele>449.5</ele>
        <time>2015-11-22T08:01:20Z</time>
      </trkpt>
      <trkpt lat="43.58828" lon="3.30418">
        <ele>452</ele>
        <time>2015-11-22T08:01:21Z</time>
      </trkpt>
      <trkpt lat="43.58827" lon="3.30415">
        <ele>452.5</ele>
        <time>2015-11-22T08:01:22Z</time>
      </trkpt>
      <trkpt lat="43.58826" lon="3.30412">
        <ele>454</ele>
        <time>2015-11-22T08:01:23Z</time>
      </trkpt>
      <trkpt lat="43.58824" lon="3.30408">
        <ele>454.5</ele>
        <time>2015-11-22T08:01:24Z</time>
      </trkpt>
      <trkpt lat="43.58822" lon="3.30406">
        <ele>456.5</ele>
        <time>2015-11-22T08:01:25Z</time>
      </trkpt>
      <trkpt lat="43.58818" lon="3.30399">
        <ele>458.5</ele>
        <time>2015-11-22T08:01:27Z</time>
      </trkpt>
      <trkpt lat="43.58815" lon="3.30396">
        <ele>460</ele>
        <time>2015-11-22T08:01:28Z</time>
      </trkpt>
      <trkpt lat="43.58813" lon="3.30393">
        <ele>460</ele>
        <time>2015-11-22T08:01:29Z</time>
      </trkpt>
      <trkpt lat="43.58807" lon="3.30388">
        <ele>460</ele>
        <time>2015-11-22T08:01:31Z</time>
      </trkpt>
      <trkpt lat="43.58804" lon="3.30385">
        <ele>460</ele>
        <time>2015-11-22T08:01:32Z</time>
      </trkpt>
      <trkpt lat="43.58801" lon="3.30382">
        <ele>460.5</ele>
        <time>2015-11-22T08:01:33Z</time>
      </trkpt>
      <trkpt lat="43.58796" lon="3.30376">
        <ele>460</ele>
        <time>2015-11-22T08:01:35Z</time>
      </trkpt>
      <trkpt lat="43.5879" lon="3.30371">
        <ele>460.5</ele>
        <time>2015-11-22T08:01:37Z</time>
      </trkpt>
      <trkpt lat="43.58786" lon="3.3036">
        <ele>461</ele>
        <time>2015-11-22T08:01:39Z</time>
      </trkpt>
      <trkpt lat="43.58781" lon="3.30349">
        <ele>460.5</ele>
        <time>2015-11-22T08:01:41Z</time>
      </trkpt>
      <trkpt lat="43.58779" lon="3.30344">
        <ele>460.5</ele>
        <time>2015-11-22T08:01:42Z</time>
      </trkpt>
      <trkpt lat="43.58778" lon="3.30339">
        <ele>462</ele>
        <time>2015-11-22T08:01:43Z</time>
      </trkpt>
      <trkpt lat="43.58776" lon="3.30331">
        <ele>463</ele>
        <time>2015-11-22T08:01:45Z</time>
      </trkpt>
      <trkpt lat="43.58776" lon="3.30324">
        <ele>464.5</ele>
        <time>2015-11-22T08:01:47Z</time>
      </trkpt>
      <trkpt lat="43.58775" lon="3.3032">
        <ele>464.5</ele>
        <time>2015-11-22T08:01:48Z</time>
      </trkpt>
      <trkpt lat="43.58774" lon="3.30316">
        <ele>465</ele>
        <time>2015-11-22T08:01:49Z</time>
      </trkpt>
      <trkpt lat="43.58774" lon="3.30311">
        <ele>465.5</ele>
        <time>2015-11-22T08:01:50Z</time>
      </trkpt>
      <trkpt lat="43.58773" lon="3.30306">
        <ele>466</ele>
        <time>2015-11-22T08:01:51Z</time>
      </trkpt>
      <trkpt lat="43.58773" lon="3.30302">
        <ele>467</ele>
        <time>2015-11-22T08:01:52Z</time>
      </trkpt>
      <trkpt lat="43.58771" lon="3.30299">
        <ele>468.5</ele>
        <time>2015-11-22T08:01:53Z</time>
      </trkpt>
      <trkpt lat="43.58767" lon="3.3029">
        <ele>468.5</ele>
        <time>2015-11-22T08:01:55Z</time>
      </trkpt>
      <trkpt lat="43.58765" lon="3.30285">
        <ele>469.5</ele>
        <time>2015-11-22T08:01:56Z</time>
      </trkpt>
      <trkpt lat="43.58763" lon="3.30281">
        <ele>470</ele>
        <time>2015-11-22T08:01:57Z</time>
      </trkpt>
      <trkpt lat="43.58761" lon="3.30278">
        <ele>470.5</ele>
        <time>2015-11-22T08:01:58Z</time>
      </trkpt>
      <trkpt lat="43.5876" lon="3.30275">
        <ele>471</ele>
        <time>2015-11-22T08:01:59Z</time>
      </trkpt>
      <trkpt lat="43.58759" lon="3.3027">
        <ele>471.5</ele>
        <time>2015-11-22T08:02:00Z</time>
      </trkpt>
      <trkpt lat="43.58757" lon="3.30267">
        <ele>473</ele>
        <time>2015-11-22T08:02:01Z</time>
      </trkpt>
      <trkpt lat="43.58756" lon="3.30264">
        <ele>473</ele>
        <time>2015-11-22T08:02:02Z</time>
      </trkpt>
      <trkpt lat="43.58755" lon="3.30261">
        <ele>473.5</ele>
        <time>2015-11-22T08:02:03Z</time>
      </trkpt>
      <trkpt lat="43.58753" lon="3.3025">
        <ele>472</ele>
        <time>2015-11-22T08:02:05Z</time>
      </trkpt>
      <trkpt lat="43.58751" lon="3.30246">
        <ele>471.5</ele>
        <time>2015-11-22T08:02:06Z</time>
      </trkpt>
      <trkpt lat="43.5875" lon="3.30242">
        <ele>471</ele>
        <time>2015-11-22T08:02:07Z</time>
      </trkpt>
      <trkpt lat="43.58746" lon="3.30234">
        <ele>471.5</ele>
        <time>2015-11-22T08:02:09Z</time>
      </trkpt>
      <trkpt lat="43.58745" lon="3.30231">
        <ele>472.5</ele>
        <time>2015-11-22T08:02:10Z</time>
      </trkpt>
      <trkpt lat="43.58743" lon="3.30227">
        <ele>472</ele>
        <time>2015-11-22T08:02:11Z</time>
      </trkpt>
      <trkpt lat="43.58741" lon="3.30224">
        <ele>473</ele>
        <time>2015-11-22T08:02:12Z</time>
      </trkpt>
      <trkpt lat="43.58737" lon="3.3022">
        <ele>472.5</ele>
        <time>2015-11-22T08:02:14Z</time>
      </trkpt>
      <trkpt lat="43.58735" lon="3.30218">
        <ele>472.5</ele>
        <time>2015-11-22T08:02:15Z</time>
      </trkpt>
      <trkpt lat="43.58732" lon="3.30213">
        <ele>474</ele>
        <time>2015-11-22T08:02:17Z</time>
      </trkpt>
      <trkpt lat="43.5873" lon="3.3021">
        <ele>473.5</ele>
        <time>2015-11-22T08:02:18Z</time>
      </trkpt>
      <trkpt lat="43.58728" lon="3.30208">
        <ele>473.5</ele>
        <time>2015-11-22T08:02:19Z</time>
      </trkpt>
      <trkpt lat="43.58726" lon="3.30204">
        <ele>473.5</ele>
        <time>2015-11-22T08:02:20Z</time>
      </trkpt>
      <trkpt lat="43.58724" lon="3.30201">
        <ele>474.5</ele>
        <time>2015-11-22T08:02:21Z</time>
      </trkpt>
      <trkpt lat="43.58723" lon="3.30199">
        <ele>475.5</ele>
        <time>2015-11-22T08:02:22Z</time>
      </trkpt>
      <trkpt lat="43.58721" lon="3.30194">
        <ele>476.5</ele>
        <time>2015-11-22T08:02:24Z</time>
      </trkpt>
      <trkpt lat="43.58719" lon="3.30191">
        <ele>477</ele>
        <time>2015-11-22T08:02:25Z</time>
      </trkpt>
      <trkpt lat="43.58718" lon="3.30189">
        <ele>477</ele>
        <time>2015-11-22T08:02:26Z</time>
      </trkpt>
      <trkpt lat="43.58716" lon="3.30187">
        <ele>478</ele>
        <time>2015-11-22T08:02:27Z</time>
      </trkpt>
      <trkpt lat="43.58715" lon="3.30184">
        <ele>479</ele>
        <time>2015-11-22T08:02:28Z</time>
      </trkpt>
      <trkpt lat="43.58713" lon="3.3018">
        <ele>478</ele>
        <time>2015-11-22T08:02:29Z</time>
      </trkpt>
      <trkpt lat="43.58712" lon="3.30178">
        <ele>478</ele>
        <time>2015-11-22T08:02:30Z</time>
      </trkpt>
      <trkpt lat="43.5871" lon="3.30176">
        <ele>477.5</ele>
        <time>2015-11-22T08:02:31Z</time>
      </trkpt>
      <trkpt lat="43.58708" lon="3.30174">
        <ele>477.5</ele>
        <time>2015-11-22T08:02:32Z</time>
      </trkpt>
      <trkpt lat="43.58706" lon="3.30173">
        <ele>478</ele>
        <time>2015-11-22T08:02:33Z</time>
      </trkpt>
      <trkpt lat="43.58704" lon="3.30172">
        <ele>477.5</ele>
        <time>2015-11-22T08:02:34Z</time>
      </trkpt>
      <trkpt lat="43.58702" lon="3.30171">
        <ele>477</ele>
        <time>2015-11-22T08:02:35Z</time>
      </trkpt>
      <trkpt lat="43.587" lon="3.30169">
        <ele>476</ele>
        <time>2015-11-22T08:02:36Z</time>
      </trkpt>
      <trkpt lat="43.58698" lon="3.30169">
        <ele>477</ele>
        <time>2015-11-22T08:02:37Z</time>
      </trkpt>
      <trkpt lat="43.58696" lon="3.30169">
        <ele>477.5</ele>
        <time>2015-11-22T08:02:38Z</time>
      </trkpt>
      <trkpt lat="43.58694" lon="3.30169">
        <ele>478</ele>
        <time>2015-11-22T08:02:39Z</time>
      </trkpt>
      <trkpt lat="43.58692" lon="3.30168">
        <ele>478.5</ele>
        <time>2015-11-22T08:02:40Z</time>
      </trkpt>
      <trkpt lat="43.58689" lon="3.30167">
        <ele>478.5</ele>
        <time>2015-11-22T08:02:42Z</time>
      </trkpt>
      <trkpt lat="43.58687" lon="3.30166">
        <ele>478.5</ele>
        <time>2015-11-22T08:02:43Z</time>
      </trkpt>
      <trkpt lat="43.58685" lon="3.30165">
        <ele>478.5</ele>
        <time>2015-11-22T08:02:44Z</time>
      </trkpt>
      <trkpt lat="43.58683" lon="3.30165">
        <ele>479</ele>
        <time>2015-11-22T08:02:45Z</time>
      </trkpt>
      <trkpt lat="43.58681" lon="3.30165">
        <ele>480</ele>
        <time>2015-11-22T08:02:46Z</time>
      </trkpt>
      <trkpt lat="43.58679" lon="3.30165">
        <ele>480.5</ele>
        <time>2015-11-22T08:02:47Z</time>
      </trkpt>
      <trkpt lat="43.58679" lon="3.30167">
        <ele>480.5</ele>
        <time>2015-11-22T08:02:48Z</time>
      </trkpt>
      <trkpt lat="43.58677" lon="3.30166">
        <ele>480.5</ele>
        <time>2015-11-22T08:02:49Z</time>
      </trkpt>
      <trkpt lat="43.58673" lon="3.30166">
        <ele>478</ele>
        <time>2015-11-22T08:02:51Z</time>
      </trkpt>
      <trkpt lat="43.58671" lon="3.30166">
        <ele>478.5</ele>
        <time>2015-11-22T08:02:52Z</time>
      </trkpt>
      <trkpt lat="43.58667" lon="3.30165">
        <ele>479.5</ele>
        <time>2015-11-22T08:02:54Z</time>
      </trkpt>
      <trkpt lat="43.58665" lon="3.30164">
        <ele>479.5</ele>
        <time>2015-11-22T08:02:55Z</time>
      </trkpt>
      <trkpt lat="43.58663" lon="3.30163">
        <ele>480.5</ele>
        <time>2015-11-22T08:02:56Z</time>
      </trkpt>
      <trkpt lat="43.58661" lon="3.30162">
        <ele>481.5</ele>
        <time>2015-11-22T08:02:57Z</time>
      </trkpt>
      <trkpt lat="43.58658" lon="3.30161">
        <ele>483</ele>
        <time>2015-11-22T08:02:59Z</time>
      </trkpt>
      <trkpt lat="43.58656" lon="3.3016">
        <ele>483</ele>
        <time>2015-11-22T08:03:00Z</time>
      </trkpt>
      <trkpt lat="43.58655" lon="3.30158">
        <ele>483</ele>
        <time>2015-11-22T08:03:01Z</time>
      </trkpt>
      <trkpt lat="43.58654" lon="3.30157">
        <ele>483.5</ele>
        <time>2015-11-22T08:03:02Z</time>
      </trkpt>
      <trkpt lat="43.58653" lon="3.30157">
        <ele>484</ele>
        <time>2015-11-22T08:03:03Z</time>
      </trkpt>
      <trkpt lat="43.58652" lon="3.30157">
        <ele>484</ele>
        <time>2015-11-22T08:03:04Z</time>
      </trkpt>
      <trkpt lat="43.58652" lon="3.30158">
        <ele>484.5</ele>
        <time>2015-11-22T08:03:05Z</time>
      </trkpt>
      <trkpt lat="43.58649" lon="3.30155">
        <ele>482.5</ele>
        <time>2015-11-22T08:03:18Z</time>
      </trkpt>
      <trkpt lat="43.58648" lon="3.30153">
        <ele>480.5</ele>
        <time>2015-11-22T08:03:24Z</time>
      </trkpt>
      <trkpt lat="43.58644" lon="3.30154">
        <ele>483</ele>
        <time>2015-11-22T08:03:38Z</time>
      </trkpt>
      <trkpt lat="43.58644" lon="3.30154">
        <ele>482</ele>
        <time>2015-11-22T08:03:40Z</time>
      </trkpt>
      <trkpt lat="43.58643" lon="3.30153">
        <ele>482.5</ele>
        <time>2015-11-22T08:03:41Z</time>
      </trkpt>
      <trkpt lat="43.58643" lon="3.30153">
        <ele>483.5</ele>
        <time>2015-11-22T08:03:42Z</time>
      </trkpt>
      <trkpt lat="43.58643" lon="3.30152">
        <ele>483.5</ele>
        <time>2015-11-22T08:03:44Z</time>
      </trkpt>
      <trkpt lat="43.58644" lon="3.3015">
        <ele>482.5</ele>
        <time>2015-11-22T08:03:57Z</time>
      </trkpt>
      <trkpt lat="43.58644" lon="3.30146">
        <ele>477.5</ele>
        <time>2015-11-22T08:04:06Z</time>
      </trkpt>
      <trkpt lat="43.58644" lon="3.30146">
        <ele>477</ele>
        <time>2015-11-22T08:04:08Z</time>
      </trkpt>
      <trkpt lat="43.58644" lon="3.30147">
        <ele>476.5</ele>
        <time>2015-11-22T08:04:10Z</time>
      </trkpt>
      <trkpt lat="43.58644" lon="3.30147">
        <ele>476.5</ele>
        <time>2015-11-22T08:04:13Z</time>
      </trkpt>
      <trkpt lat="43.58644" lon="3.30149">
        <ele>474.5</ele>
        <time>2015-11-22T08:04:18Z</time>
      </trkpt>
      <trkpt lat="43.58644" lon="3.30149">
        <ele>474.5</ele>
        <time>2015-11-22T08:04:21Z</time>
      </trkpt>
      <trkpt lat="43.58646" lon="3.30147">
        <ele>474.5</ele>
        <time>2015-11-22T08:04:23Z</time>
      </trkpt>
      <trkpt lat="43.58646" lon="3.30147">
        <ele>474</ele>
        <time>2015-11-22T08:04:29Z</time>
      </trkpt>
      <trkpt lat="43.58645" lon="3.30148">
        <ele>475.5</ele>
        <time>2015-11-22T08:04:34Z</time>
      </trkpt>
      <trkpt lat="43.58644" lon="3.30146">
        <ele>478.5</ele>
        <time>2015-11-22T08:04:37Z</time>
      </trkpt>
      <trkpt lat="43.58643" lon="3.30145">
        <ele>481.5</ele>
        <time>2015-11-22T08:04:39Z</time>
      </trkpt>
      <trkpt lat="43.58643" lon="3.30144">
        <ele>483</ele>
        <time>2015-11-22T08:04:40Z</time>
      </trkpt>
      <trkpt lat="43.58643" lon="3.30145">
        <ele>476.5</ele>
        <time>2015-11-22T08:04:49Z</time>
      </trkpt>
      <trkpt lat="43.58643" lon="3.30144">
        <ele>476</ele>
        <time>2015-11-22T08:04:51Z</time>
      </trkpt>
      <trkpt lat="43.58642" lon="3.30144">
        <ele>476.5</ele>
        <time>2015-11-22T08:04:52Z</time>
      </trkpt>
      <trkpt lat="43.58642" lon="3.30145">
        <ele>475</ele>
        <time>2015-11-22T08:05:00Z</time>
      </trkpt>
      <trkpt lat="43.5864" lon="3.30146">
        <ele>474.5</ele>
        <time>2015-11-22T08:05:02Z</time>
      </trkpt>
      <trkpt lat="43.5864" lon="3.30147">
        <ele>475</ele>
        <time>2015-11-22T08:05:03Z</time>
      </trkpt>
      <trkpt lat="43.58639" lon="3.3015">
        <ele>476</ele>
        <time>2015-11-22T08:05:04Z</time>
      </trkpt>
      <trkpt lat="43.58638" lon="3.30152">
        <ele>477.5</ele>
        <time>2015-11-22T08:05:05Z</time>
      </trkpt>
      <trkpt lat="43.58637" lon="3.30154">
        <ele>478.5</ele>
        <time>2015-11-22T08:05:06Z</time>
      </trkpt>
      <trkpt lat="43.58636" lon="3.30157">
        <ele>479.5</ele>
        <time>2015-11-22T08:05:07Z</time>
      </trkpt>
      <trkpt lat="43.58634" lon="3.30159">
        <ele>479.5</ele>
        <time>2015-11-22T08:05:08Z</time>
      </trkpt>
      <trkpt lat="43.58633" lon="3.30162">
        <ele>479</ele>
        <time>2015-11-22T08:05:09Z</time>
      </trkpt>
      <trkpt lat="43.58632" lon="3.30165">
        <ele>479.5</ele>
        <time>2015-11-22T08:05:10Z</time>
      </trkpt>
      <trkpt lat="43.58632" lon="3.30167">
        <ele>479.5</ele>
        <time>2015-11-22T08:05:11Z</time>
      </trkpt>
      <trkpt lat="43.58631" lon="3.3017">
        <ele>479.5</ele>
        <time>2015-11-22T08:05:12Z</time>
      </trkpt>
      <trkpt lat="43.58631" lon="3.30172">
        <ele>479.5</ele>
        <time>2015-11-22T08:05:13Z</time>
      </trkpt>
      <trkpt lat="43.5863" lon="3.30175">
        <ele>479.5</ele>
        <time>2015-11-22T08:05:13Z</time>
      </trkpt>
      <trkpt lat="43.58629" lon="3.30176">
        <ele>480</ele>
        <time>2015-11-22T08:05:15Z</time>
      </trkpt>
      <trkpt lat="43.5863" lon="3.30177">
        <ele>481.5</ele>
        <time>2015-11-22T08:05:16Z</time>
      </trkpt>
      <trkpt lat="43.5863" lon="3.30179">
        <ele>482.5</ele>
        <time>2015-11-22T08:05:17Z</time>
      </trkpt>
      <trkpt lat="43.5863" lon="3.3018">
        <ele>483.5</ele>
        <time>2015-11-22T08:05:17Z</time>
      </trkpt>
      <trkpt lat="43.58629" lon="3.30181">
        <ele>483.5</ele>
        <time>2015-11-22T08:05:18Z</time>
      </trkpt>
      <trkpt lat="43.58629" lon="3.30182">
        <ele>484</ele>
        <time>2015-11-22T08:05:19Z</time>
      </trkpt>
      <trkpt lat="43.58628" lon="3.30184">
        <ele>484</ele>
        <time>2015-11-22T08:05:20Z</time>
      </trkpt>
      <trkpt lat="43.58628" lon="3.30185">
        <ele>483.5</ele>
        <time>2015-11-22T08:05:21Z</time>
      </trkpt>
      <trkpt lat="43.58628" lon="3.30186">
        <ele>484</ele>
        <time>2015-11-22T08:05:22Z</time>
      </trkpt>
      <trkpt lat="43.58628" lon="3.30187">
        <ele>484</ele>
        <time>2015-11-22T08:05:23Z</time>
      </trkpt>
      <trkpt lat="43.58629" lon="3.30188">
        <ele>484</ele>
        <time>2015-11-22T08:05:24Z</time>
      </trkpt>
      <trkpt lat="43.58629" lon="3.30189">
        <ele>484</ele>
        <time>2015-11-22T08:05:25Z</time>
      </trkpt>
      <trkpt lat="43.58629" lon="3.30191">
        <ele>484.5</ele>
        <time>2015-11-22T08:05:27Z</time>
      </trkpt>
      <trkpt lat="43.58629" lon="3.30193">
        <ele>485.5</ele>
        <time>2015-11-22T08:05:27Z</time>
      </trkpt>
      <trkpt lat="43.58629" lon="3.30194">
        <ele>485.5</ele>
        <time>2015-11-22T08:05:28Z</time>
      </trkpt>
      <trkpt lat="43.58629" lon="3.30197">
        <ele>485</ele>
        <time>2015-11-22T08:05:30Z</time>
      </trkpt>
      <trkpt lat="43.58629" lon="3.30199">
        <ele>485</ele>
        <time>2015-11-22T08:05:30Z</time>
      </trkpt>
      <trkpt lat="43.58629" lon="3.30202">
        <ele>484</ele>
        <time>2015-11-22T08:05:32Z</time>
      </trkpt>
      <trkpt lat="43.58628" lon="3.30205">
        <ele>484</ele>
        <time>2015-11-22T08:05:33Z</time>
      </trkpt>
      <trkpt lat="43.58627" lon="3.30212">
        <ele>484</ele>
        <time>2015-11-22T08:05:34Z</time>
      </trkpt>
      <trkpt lat="43.58626" lon="3.30213">
        <ele>483</ele>
        <time>2015-11-22T08:05:36Z</time>
      </trkpt>
      <trkpt lat="43.58626" lon="3.30215">
        <ele>483</ele>
        <time>2015-11-22T08:05:36Z</time>
      </trkpt>
      <trkpt lat="43.58626" lon="3.30217">
        <ele>483.5</ele>
        <time>2015-11-22T08:05:37Z</time>
      </trkpt>
      <trkpt lat="43.58626" lon="3.30219">
        <ele>484</ele>
        <time>2015-11-22T08:05:38Z</time>
      </trkpt>
      <trkpt lat="43.58626" lon="3.30221">
        <ele>484.5</ele>
        <time>2015-11-22T08:05:40Z</time>
      </trkpt>
      <trkpt lat="43.58626" lon="3.30224">
        <ele>486</ele>
        <time>2015-11-22T08:05:40Z</time>
      </trkpt>
      <trkpt lat="43.58627" lon="3.30226">
        <ele>487.5</ele>
        <time>2015-11-22T08:05:41Z</time>
      </trkpt>
      <trkpt lat="43.58627" lon="3.30229">
        <ele>487.5</ele>
        <time>2015-11-22T08:05:43Z</time>
      </trkpt>
      <trkpt lat="43.58627" lon="3.30232">
        <ele>487.5</ele>
        <time>2015-11-22T08:05:44Z</time>
      </trkpt>
      <trkpt lat="43.58624" lon="3.30238">
        <ele>485.5</ele>
        <time>2015-11-22T08:05:45Z</time>
      </trkpt>
      <trkpt lat="43.58622" lon="3.30241">
        <ele>484</ele>
        <time>2015-11-22T08:05:47Z</time>
      </trkpt>
      <trkpt lat="43.58621" lon="3.30245">
        <ele>483.5</ele>
        <time>2015-11-22T08:05:48Z</time>
      </trkpt>
      <trkpt lat="43.58616" lon="3.30254">
        <ele>482</ele>
        <time>2015-11-22T08:05:49Z</time>
      </trkpt>
      <trkpt lat="43.58615" lon="3.30258">
        <ele>482.5</ele>
        <time>2015-11-22T08:05:51Z</time>
      </trkpt>
      <trkpt lat="43.58614" lon="3.30262">
        <ele>483.5</ele>
        <time>2015-11-22T08:05:52Z</time>
      </trkpt>
      <trkpt lat="43.58614" lon="3.30273">
        <ele>484</ele>
        <time>2015-11-22T08:05:53Z</time>
      </trkpt>
      <trkpt lat="43.58614" lon="3.30277">
        <ele>482.5</ele>
        <time>2015-11-22T08:05:55Z</time>
      </trkpt>
      <trkpt lat="43.58613" lon="3.30281">
        <ele>482.5</ele>
        <time>2015-11-22T08:05:56Z</time>
      </trkpt>
      <trkpt lat="43.58613" lon="3.30288">
        <ele>481.5</ele>
        <time>2015-11-22T08:05:57Z</time>
      </trkpt>
      <trkpt lat="43.58614" lon="3.30292">
        <ele>481</ele>
        <time>2015-11-22T08:05:58Z</time>
      </trkpt>
      <trkpt lat="43.58613" lon="3.30295">
        <ele>481</ele>
        <time>2015-11-22T08:05:59Z</time>
      </trkpt>
      <trkpt lat="43.58613" lon="3.303">
        <ele>481</ele>
        <time>2015-11-22T08:06:00Z</time>
      </trkpt>
      <trkpt lat="43.58613" lon="3.30305">
        <ele>482</ele>
        <time>2015-11-22T08:06:01Z</time>
      </trkpt>
      <trkpt lat="43.58614" lon="3.30309">
        <ele>483.5</ele>
        <time>2015-11-22T08:06:02Z</time>
      </trkpt>
      <trkpt lat="43.58614" lon="3.30314">
        <ele>483.5</ele>
        <time>2015-11-22T08:06:03Z</time>
      </trkpt>
      <trkpt lat="43.58615" lon="3.30319">
        <ele>483</ele>
        <time>2015-11-22T08:06:04Z</time>
      </trkpt>
      <trkpt lat="43.58615" lon="3.30323">
        <ele>483.5</ele>
        <time>2015-11-22T08:06:05Z</time>
      </trkpt>
      <trkpt lat="43.58616" lon="3.30328">
        <ele>483.5</ele>
        <time>2015-11-22T08:06:07Z</time>
      </trkpt>
      <trkpt lat="43.58616" lon="3.30337">
        <ele>484.5</ele>
        <time>2015-11-22T08:06:08Z</time>
      </trkpt>
      <trkpt lat="43.58617" lon="3.30341">
        <ele>485</ele>
        <time>2015-11-22T08:06:09Z</time>
      </trkpt>
      <trkpt lat="43.58617" lon="3.30345">
        <ele>485.5</ele>
        <time>2015-11-22T08:06:11Z</time>
      </trkpt>
      <trkpt lat="43.58617" lon="3.30353">
        <ele>485.5</ele>
        <time>2015-11-22T08:06:12Z</time>
      </trkpt>
      <trkpt lat="43.58617" lon="3.30356">
        <ele>486</ele>
        <time>2015-11-22T08:06:13Z</time>
      </trkpt>
      <trkpt lat="43.58616" lon="3.30359">
        <ele>486</ele>
        <time>2015-11-22T08:06:14Z</time>
      </trkpt>
      <trkpt lat="43.58615" lon="3.30362">
        <ele>487</ele>
        <time>2015-11-22T08:06:15Z</time>
      </trkpt>
      <trkpt lat="43.58613" lon="3.30363">
        <ele>487</ele>
        <time>2015-11-22T08:06:16Z</time>
      </trkpt>
      <trkpt lat="43.58613" lon="3.30367">
        <ele>487</ele>
        <time>2015-11-22T08:06:17Z</time>
      </trkpt>
      <trkpt lat="43.58613" lon="3.3037">
        <ele>487</ele>
        <time>2015-11-22T08:06:18Z</time>
      </trkpt>
      <trkpt lat="43.58612" lon="3.30372">
        <ele>487</ele>
        <time>2015-11-22T08:06:19Z</time>
      </trkpt>
      <trkpt lat="43.58612" lon="3.30375">
        <ele>487</ele>
        <time>2015-11-22T08:06:20Z</time>
      </trkpt>
      <trkpt lat="43.5861" lon="3.30375">
        <ele>486.5</ele>
        <time>2015-11-22T08:06:21Z</time>
      </trkpt>
      <trkpt lat="43.58608" lon="3.30377">
        <ele>486.5</ele>
        <time>2015-11-22T08:06:22Z</time>
      </trkpt>
      <trkpt lat="43.58607" lon="3.30378">
        <ele>485.5</ele>
        <time>2015-11-22T08:06:23Z</time>
      </trkpt>
      <trkpt lat="43.58606" lon="3.30379">
        <ele>485.5</ele>
        <time>2015-11-22T08:06:25Z</time>
      </trkpt>
      <trkpt lat="43.58603" lon="3.30382">
        <ele>485</ele>
        <time>2015-11-22T08:06:26Z</time>
      </trkpt>
      <trkpt lat="43.58602" lon="3.30385">
        <ele>485</ele>
        <time>2015-11-22T08:06:27Z</time>
      </trkpt>
      <trkpt lat="43.58602" lon="3.30386">
        <ele>485</ele>
        <time>2015-11-22T08:06:28Z</time>
      </trkpt>
      <trkpt lat="43.58597" lon="3.30391">
        <ele>484</ele>
        <time>2015-11-22T08:06:30Z</time>
      </trkpt>
      <trkpt lat="43.58599" lon="3.30394">
        <ele>484</ele>
        <time>2015-11-22T08:06:31Z</time>
      </trkpt>
      <trkpt lat="43.58601" lon="3.30396">
        <ele>484.5</ele>
        <time>2015-11-22T08:06:32Z</time>
      </trkpt>
      <trkpt lat="43.586" lon="3.30399">
        <ele>485</ele>
        <time>2015-11-22T08:06:34Z</time>
      </trkpt>
      <trkpt lat="43.58603" lon="3.30404">
        <ele>485.5</ele>
        <time>2015-11-22T08:06:35Z</time>
      </trkpt>
      <trkpt lat="43.58605" lon="3.30408">
        <ele>487</ele>
        <time>2015-11-22T08:06:36Z</time>
      </trkpt>
      <trkpt lat="43.58604" lon="3.30412">
        <ele>486</ele>
        <time>2015-11-22T08:06:38Z</time>
      </trkpt>
      <trkpt lat="43.58599" lon="3.30417">
        <ele>486</ele>
        <time>2015-11-22T08:06:40Z</time>
      </trkpt>
      <trkpt lat="43.58598" lon="3.30426">
        <ele>487</ele>
        <time>2015-11-22T08:06:41Z</time>
      </trkpt>
      <trkpt lat="43.58598" lon="3.30429">
        <ele>487.5</ele>
        <time>2015-11-22T08:06:42Z</time>
      </trkpt>
      <trkpt lat="43.58599" lon="3.30432">
        <ele>488</ele>
        <time>2015-11-22T08:06:43Z</time>
      </trkpt>
      <trkpt lat="43.586" lon="3.30434">
        <ele>488</ele>
        <time>2015-11-22T08:06:44Z</time>
      </trkpt>
      <trkpt lat="43.586" lon="3.30436">
        <ele>489</ele>
        <time>2015-11-22T08:06:45Z</time>
      </trkpt>
      <trkpt lat="43.58597" lon="3.30443">
        <ele>490.5</ele>
        <time>2015-11-22T08:06:47Z</time>
      </trkpt>
      <trkpt lat="43.58595" lon="3.30445">
        <ele>489.5</ele>
        <time>2015-11-22T08:06:48Z</time>
      </trkpt>
      <trkpt lat="43.58594" lon="3.30443">
        <ele>488</ele>
        <time>2015-11-22T08:06:49Z</time>
      </trkpt>
      <trkpt lat="43.58592" lon="3.30442">
        <ele>487</ele>
        <time>2015-11-22T08:06:50Z</time>
      </trkpt>
      <trkpt lat="43.58591" lon="3.30442">
        <ele>486</ele>
        <time>2015-11-22T08:06:51Z</time>
      </trkpt>
      <trkpt lat="43.58587" lon="3.30443">
        <ele>485.5</ele>
        <time>2015-11-22T08:06:53Z</time>
      </trkpt>
      <trkpt lat="43.58585" lon="3.30442">
        <ele>482.5</ele>
        <time>2015-11-22T08:06:54Z</time>
      </trkpt>
      <trkpt lat="43.58581" lon="3.30442">
        <ele>480.5</ele>
        <time>2015-11-22T08:06:55Z</time>
      </trkpt>
      <trkpt lat="43.58575" lon="3.30443">
        <ele>476</ele>
        <time>2015-11-22T08:06:57Z</time>
      </trkpt>
      <trkpt lat="43.58572" lon="3.30443">
        <ele>476.5</ele>
        <time>2015-11-22T08:06:58Z</time>
      </trkpt>
      <trkpt lat="43.58571" lon="3.30443">
        <ele>476.5</ele>
        <time>2015-11-22T08:06:59Z</time>
      </trkpt>
      <trkpt lat="43.5857" lon="3.30442">
        <ele>475</ele>
        <time>2015-11-22T08:07:00Z</time>
      </trkpt>
      <trkpt lat="43.58568" lon="3.30441">
        <ele>473.5</ele>
        <time>2015-11-22T08:07:01Z</time>
      </trkpt>
      <trkpt lat="43.58567" lon="3.3044">
        <ele>473.5</ele>
        <time>2015-11-22T08:07:02Z</time>
      </trkpt>
      <trkpt lat="43.58566" lon="3.30441">
        <ele>472</ele>
        <time>2015-11-22T08:07:03Z</time>
      </trkpt>
      <trkpt lat="43.58565" lon="3.30441">
        <ele>470</ele>
        <time>2015-11-22T08:07:04Z</time>
      </trkpt>
      <trkpt lat="43.58564" lon="3.30439">
        <ele>469.5</ele>
        <time>2015-11-22T08:07:05Z</time>
      </trkpt>
      <trkpt lat="43.58563" lon="3.30439">
        <ele>469.5</ele>
        <time>2015-11-22T08:07:06Z</time>
      </trkpt>
      <trkpt lat="43.58562" lon="3.30438">
        <ele>469.5</ele>
        <time>2015-11-22T08:07:07Z</time>
      </trkpt>
      <trkpt lat="43.58561" lon="3.30437">
        <ele>470</ele>
        <time>2015-11-22T08:07:08Z</time>
      </trkpt>
      <trkpt lat="43.5856" lon="3.30439">
        <ele>470</ele>
        <time>2015-11-22T08:07:12Z</time>
      </trkpt>
      <trkpt lat="43.58559" lon="3.30439">
        <ele>470</ele>
        <time>2015-11-22T08:07:14Z</time>
      </trkpt>
      <trkpt lat="43.58557" lon="3.3044">
        <ele>468.5</ele>
        <time>2015-11-22T08:07:18Z</time>
      </trkpt>
      <trkpt lat="43.58555" lon="3.30441">
        <ele>468.5</ele>
        <time>2015-11-22T08:07:20Z</time>
      </trkpt>
      <trkpt lat="43.58554" lon="3.3044">
        <ele>468</ele>
        <time>2015-11-22T08:07:27Z</time>
      </trkpt>
      <trkpt lat="43.58553" lon="3.30441">
        <ele>468.5</ele>
        <time>2015-11-22T08:07:29Z</time>
      </trkpt>
      <trkpt lat="43.58553" lon="3.30442">
        <ele>468.5</ele>
        <time>2015-11-22T08:07:30Z</time>
      </trkpt>
      <trkpt lat="43.58552" lon="3.30443">
        <ele>468.5</ele>
        <time>2015-11-22T08:07:31Z</time>
      </trkpt>
      <trkpt lat="43.58552" lon="3.30443">
        <ele>468</ele>
        <time>2015-11-22T08:07:32Z</time>
      </trkpt>
      <trkpt lat="43.58552" lon="3.30443">
        <ele>467.5</ele>
        <time>2015-11-22T08:07:35Z</time>
      </trkpt>
      <trkpt lat="43.58551" lon="3.30439">
        <ele>467</ele>
        <time>2015-11-22T08:07:39Z</time>
      </trkpt>
      <trkpt lat="43.58551" lon="3.30435">
        <ele>465.5</ele>
        <time>2015-11-22T08:07:41Z</time>
      </trkpt>
      <trkpt lat="43.58551" lon="3.30434">
        <ele>464.5</ele>
        <time>2015-11-22T08:07:42Z</time>
      </trkpt>
      <trkpt lat="43.5855" lon="3.30433">
        <ele>464.5</ele>
        <time>2015-11-22T08:07:43Z</time>
      </trkpt>
      <trkpt lat="43.5855" lon="3.30434">
        <ele>465.5</ele>
        <time>2015-11-22T08:07:44Z</time>
      </trkpt>
      <trkpt lat="43.58548" lon="3.30435">
        <ele>465.5</ele>
        <time>2015-11-22T08:07:45Z</time>
      </trkpt>
      <trkpt lat="43.58547" lon="3.30435">
        <ele>465</ele>
        <time>2015-11-22T08:07:46Z</time>
      </trkpt>
      <trkpt lat="43.58546" lon="3.30435">
        <ele>464.5</ele>
        <time>2015-11-22T08:07:47Z</time>
      </trkpt>
      <trkpt lat="43.58541" lon="3.30431">
        <ele>464.5</ele>
        <time>2015-11-22T08:07:49Z</time>
      </trkpt>
      <trkpt lat="43.5854" lon="3.30432">
        <ele>464</ele>
        <time>2015-11-22T08:07:50Z</time>
      </trkpt>
      <trkpt lat="43.58539" lon="3.30432">
        <ele>464</ele>
        <time>2015-11-22T08:07:51Z</time>
      </trkpt>
      <trkpt lat="43.58536" lon="3.30428">
        <ele>463.5</ele>
        <time>2015-11-22T08:07:53Z</time>
      </trkpt>
      <trkpt lat="43.58535" lon="3.30427">
        <ele>463</ele>
        <time>2015-11-22T08:07:54Z</time>
      </trkpt>
      <trkpt lat="43.58533" lon="3.30426">
        <ele>463</ele>
        <time>2015-11-22T08:07:55Z</time>
      </trkpt>
      <trkpt lat="43.58532" lon="3.30427">
        <ele>463</ele>
        <time>2015-11-22T08:07:56Z</time>
      </trkpt>
      <trkpt lat="43.58529" lon="3.30428">
        <ele>463</ele>
        <time>2015-11-22T08:07:57Z</time>
      </trkpt>
      <trkpt lat="43.58526" lon="3.30431">
        <ele>463</ele>
        <time>2015-11-22T08:07:58Z</time>
      </trkpt>
      <trkpt lat="43.58527" lon="3.30432">
        <ele>463</ele>
        <time>2015-11-22T08:08:00Z</time>
      </trkpt>
      <trkpt lat="43.5852" lon="3.30437">
        <ele>463.5</ele>
        <time>2015-11-22T08:08:02Z</time>
      </trkpt>
      <trkpt lat="43.58517" lon="3.3044">
        <ele>463.5</ele>
        <time>2015-11-22T08:08:03Z</time>
      </trkpt>
      <trkpt lat="43.58515" lon="3.30442">
        <ele>463.5</ele>
        <time>2015-11-22T08:08:04Z</time>
      </trkpt>
      <trkpt lat="43.58516" lon="3.30447">
        <ele>463.5</ele>
        <time>2015-11-22T08:08:05Z</time>
      </trkpt>
      <trkpt lat="43.58511" lon="3.30461">
        <ele>463.5</ele>
        <time>2015-11-22T08:08:07Z</time>
      </trkpt>
      <trkpt lat="43.5851" lon="3.30468">
        <ele>464</ele>
        <time>2015-11-22T08:08:08Z</time>
      </trkpt>
      <trkpt lat="43.58506" lon="3.30483">
        <ele>464.5</ele>
        <time>2015-11-22T08:08:10Z</time>
      </trkpt>
      <trkpt lat="43.58503" lon="3.30488">
        <ele>465</ele>
        <time>2015-11-22T08:08:11Z</time>
      </trkpt>
      <trkpt lat="43.58501" lon="3.30492">
        <ele>465</ele>
        <time>2015-11-22T08:08:12Z</time>
      </trkpt>
      <trkpt lat="43.58502" lon="3.3051">
        <ele>466</ele>
        <time>2015-11-22T08:08:14Z</time>
      </trkpt>
      <trkpt lat="43.58502" lon="3.30518">
        <ele>466</ele>
        <time>2015-11-22T08:08:15Z</time>
      </trkpt>
      <trkpt lat="43.58503" lon="3.30525">
        <ele>464.5</ele>
        <time>2015-11-22T08:08:21Z</time>
      </trkpt>
      <trkpt lat="43.58504" lon="3.30527">
        <ele>464.5</ele>
        <time>2015-11-22T08:08:22Z</time>
      </trkpt>
      <trkpt lat="43.58504" lon="3.30529">
        <ele>464.5</ele>
        <time>2015-11-22T08:08:24Z</time>
      </trkpt>
      <trkpt lat="43.58503" lon="3.30529">
        <ele>464.5</ele>
        <time>2015-11-22T08:08:25Z</time>
      </trkpt>
      <trkpt lat="43.58503" lon="3.3053">
        <ele>464.5</ele>
        <time>2015-11-22T08:08:26Z</time>
      </trkpt>
      <trkpt lat="43.58502" lon="3.3053">
        <ele>464.5</ele>
        <time>2015-11-22T08:08:27Z</time>
      </trkpt>
      <trkpt lat="43.58506" lon="3.30533">
        <ele>464.5</ele>
        <time>2015-11-22T08:08:29Z</time>
      </trkpt>
      <trkpt lat="43.58506" lon="3.30534">
        <ele>464.5</ele>
        <time>2015-11-22T08:08:31Z</time>
      </trkpt>
      <trkpt lat="43.58506" lon="3.30534">
        <ele>464.5</ele>
        <time>2015-11-22T08:08:32Z</time>
      </trkpt>
      <trkpt lat="43.58505" lon="3.30535">
        <ele>464.5</ele>
        <time>2015-11-22T08:08:33Z</time>
      </trkpt>
      <trkpt lat="43.58504" lon="3.30537">
        <ele>464.5</ele>
        <time>2015-11-22T08:08:36Z</time>
      </trkpt>
      <trkpt lat="43.58505" lon="3.30538">
        <ele>464</ele>
        <time>2015-11-22T08:08:38Z</time>
      </trkpt>
      <trkpt lat="43.58507" lon="3.3054">
        <ele>463.5</ele>
        <time>2015-11-22T08:08:39Z</time>
      </trkpt>
      <trkpt lat="43.58504" lon="3.3054">
        <ele>464</ele>
        <time>2015-11-22T08:08:41Z</time>
      </trkpt>
      <trkpt lat="43.58501" lon="3.30541">
        <ele>464</ele>
        <time>2015-11-22T08:08:43Z</time>
      </trkpt>
      <trkpt lat="43.58499" lon="3.30541">
        <ele>464</ele>
        <time>2015-11-22T08:08:44Z</time>
      </trkpt>
      <trkpt lat="43.585" lon="3.30542">
        <ele>464</ele>
        <time>2015-11-22T08:08:45Z</time>
      </trkpt>
      <trkpt lat="43.585" lon="3.30543">
        <ele>464</ele>
        <time>2015-11-22T08:08:46Z</time>
      </trkpt>
      <trkpt lat="43.585" lon="3.30544">
        <ele>464</ele>
        <time>2015-11-22T08:08:47Z</time>
      </trkpt>
      <trkpt lat="43.58499" lon="3.30544">
        <ele>464</ele>
        <time>2015-11-22T08:08:48Z</time>
      </trkpt>
      <trkpt lat="43.58499" lon="3.30544">
        <ele>464.5</ele>
        <time>2015-11-22T08:08:49Z</time>
      </trkpt>
      <trkpt lat="43.58499" lon="3.30544">
        <ele>464.5</ele>
        <time>2015-11-22T08:08:50Z</time>
      </trkpt>
      <trkpt lat="43.585" lon="3.30544">
        <ele>464.5</ele>
        <time>2015-11-22T08:08:51Z</time>
      </trkpt>
      <trkpt lat="43.58501" lon="3.30544">
        <ele>464</ele>
        <time>2015-11-22T08:08:55Z</time>
      </trkpt>
      <trkpt lat="43.58501" lon="3.30543">
        <ele>464</ele>
        <time>2015-11-22T08:08:57Z</time>
      </trkpt>
      <trkpt lat="43.58505" lon="3.30549">
        <ele>463.5</ele>
        <time>2015-11-22T08:09:08Z</time>
      </trkpt>
      <trkpt lat="43.58505" lon="3.3055">
        <ele>463.5</ele>
        <time>2015-11-22T08:09:13Z</time>
      </trkpt>
      <trkpt lat="43.58503" lon="3.30549">
        <ele>463.5</ele>
        <time>2015-11-22T08:09:15Z</time>
      </trkpt>
      <trkpt lat="43.58503" lon="3.30549">
        <ele>463.5</ele>
        <time>2015-11-22T08:09:16Z</time>
      </trkpt>
      <trkpt lat="43.58504" lon="3.30549">
        <ele>463.5</ele>
        <time>2015-11-22T08:09:17Z</time>
      </trkpt>
      <trkpt lat="43.58504" lon="3.30549">
        <ele>463.5</ele>
        <time>2015-11-22T08:09:18Z</time>
      </trkpt>
      <trkpt lat="43.58509" lon="3.30551">
        <ele>463.5</ele>
        <time>2015-11-22T08:09:20Z</time>
      </trkpt>
      <trkpt lat="43.5851" lon="3.30551">
        <ele>464</ele>
        <time>2015-11-22T08:09:21Z</time>
      </trkpt>
      <trkpt lat="43.5851" lon="3.3055">
        <ele>464</ele>
        <time>2015-11-22T08:09:24Z</time>
      </trkpt>
      <trkpt lat="43.58512" lon="3.30549">
        <ele>464</ele>
        <time>2015-11-22T08:09:27Z</time>
      </trkpt>
      <trkpt lat="43.5851" lon="3.30548">
        <ele>464</ele>
        <time>2015-11-22T08:09:30Z</time>
      </trkpt>
      <trkpt lat="43.58509" lon="3.30549">
        <ele>463.5</ele>
        <time>2015-11-22T08:09:39Z</time>
      </trkpt>
      <trkpt lat="43.5851" lon="3.30553">
        <ele>463.5</ele>
        <time>2015-11-22T08:09:41Z</time>
      </trkpt>
      <trkpt lat="43.58511" lon="3.30555">
        <ele>463.5</ele>
        <time>2015-11-22T08:09:42Z</time>
      </trkpt>
      <trkpt lat="43.58511" lon="3.30558">
        <ele>463</ele>
        <time>2015-11-22T08:09:43Z</time>
      </trkpt>
      <trkpt lat="43.58511" lon="3.3056">
        <ele>463</ele>
        <time>2015-11-22T08:09:44Z</time>
      </trkpt>
      <trkpt lat="43.58503" lon="3.30561">
        <ele>463</ele>
        <time>2015-11-22T08:09:46Z</time>
      </trkpt>
      <trkpt lat="43.58503" lon="3.30566">
        <ele>463</ele>
        <time>2015-11-22T08:09:48Z</time>
      </trkpt>
      <trkpt lat="43.58506" lon="3.30569">
        <ele>463</ele>
        <time>2015-11-22T08:09:49Z</time>
      </trkpt>
      <trkpt lat="43.58507" lon="3.30572">
        <ele>462.5</ele>
        <time>2015-11-22T08:09:50Z</time>
      </trkpt>
      <trkpt lat="43.58511" lon="3.30574">
        <ele>462.5</ele>
        <time>2015-11-22T08:09:51Z</time>
      </trkpt>
      <trkpt lat="43.58512" lon="3.30577">
        <ele>462.5</ele>
        <time>2015-11-22T08:09:52Z</time>
      </trkpt>
      <trkpt lat="43.58514" lon="3.30582">
        <ele>462.5</ele>
        <time>2015-11-22T08:09:53Z</time>
      </trkpt>
      <trkpt lat="43.58516" lon="3.30586">
        <ele>462.5</ele>
        <time>2015-11-22T08:09:54Z</time>
      </trkpt>
      <trkpt lat="43.58517" lon="3.3059">
        <ele>462.5</ele>
        <time>2015-11-22T08:09:55Z</time>
      </trkpt>
      <trkpt lat="43.58529" lon="3.30612">
        <ele>462.5</ele>
        <time>2015-11-22T08:09:58Z</time>
      </trkpt>
      <trkpt lat="43.58532" lon="3.30629">
        <ele>462.5</ele>
        <time>2015-11-22T08:10:00Z</time>
      </trkpt>
      <trkpt lat="43.58534" lon="3.30637">
        <ele>462.5</ele>
        <time>2015-11-22T08:10:01Z</time>
      </trkpt>
      <trkpt lat="43.58543" lon="3.30656">
        <ele>462.5</ele>
        <time>2015-11-22T08:10:03Z</time>
      </trkpt>
      <trkpt lat="43.58547" lon="3.30665">
        <ele>462.5</ele>
        <time>2015-11-22T08:10:04Z</time>
      </trkpt>
      <trkpt lat="43.5855" lon="3.3068">
        <ele>462.5</ele>
        <time>2015-11-22T08:10:06Z</time>
      </trkpt>
      <trkpt lat="43.58552" lon="3.30688">
        <ele>462.5</ele>
        <time>2015-11-22T08:10:07Z</time>
      </trkpt>
      <trkpt lat="43.58552" lon="3.30698">
        <ele>462.5</ele>
        <time>2015-11-22T08:10:08Z</time>
      </trkpt>
      <trkpt lat="43.58552" lon="3.30708">
        <ele>462.5</ele>
        <time>2015-11-22T08:10:09Z</time>
      </trkpt>
      <trkpt lat="43.58554" lon="3.30718">
        <ele>462.5</ele>
        <time>2015-11-22T08:10:10Z</time>
      </trkpt>
      <trkpt lat="43.58562" lon="3.30741">
        <ele>462</ele>
        <time>2015-11-22T08:10:12Z</time>
      </trkpt>
      <trkpt lat="43.58566" lon="3.30764">
        <ele>461.5</ele>
        <time>2015-11-22T08:10:14Z</time>
      </trkpt>
      <trkpt lat="43.58567" lon="3.30773">
        <ele>461</ele>
        <time>2015-11-22T08:10:15Z</time>
      </trkpt>
      <trkpt lat="43.58569" lon="3.30781">
        <ele>461</ele>
        <time>2015-11-22T08:10:16Z</time>
      </trkpt>
      <trkpt lat="43.58571" lon="3.3079">
        <ele>460.5</ele>
        <time>2015-11-22T08:10:17Z</time>
      </trkpt>
      <trkpt lat="43.58572" lon="3.30798">
        <ele>460.5</ele>
        <time>2015-11-22T08:10:18Z</time>
      </trkpt>
      <trkpt lat="43.58573" lon="3.30806">
        <ele>460.5</ele>
        <time>2015-11-22T08:10:19Z</time>
      </trkpt>
      <trkpt lat="43.58574" lon="3.30813">
        <ele>460.5</ele>
        <time>2015-11-22T08:10:20Z</time>
      </trkpt>
      <trkpt lat="43.58574" lon="3.30819">
        <ele>460</ele>
        <time>2015-11-22T08:10:21Z</time>
      </trkpt>
      <trkpt lat="43.58575" lon="3.30824">
        <ele>459.5</ele>
        <time>2015-11-22T08:10:22Z</time>
      </trkpt>
      <trkpt lat="43.58578" lon="3.30838">
        <ele>458.5</ele>
        <time>2015-11-22T08:10:24Z</time>
      </trkpt>
      <trkpt lat="43.5858" lon="3.30844">
        <ele>458</ele>
        <time>2015-11-22T08:10:25Z</time>
      </trkpt>
      <trkpt lat="43.58581" lon="3.30847">
        <ele>458</ele>
        <time>2015-11-22T08:10:26Z</time>
      </trkpt>
      <trkpt lat="43.58579" lon="3.30852">
        <ele>457.5</ele>
        <time>2015-11-22T08:10:27Z</time>
      </trkpt>
      <trkpt lat="43.5858" lon="3.30856">
        <ele>457</ele>
        <time>2015-11-22T08:10:28Z</time>
      </trkpt>
      <trkpt lat="43.58582" lon="3.30859">
        <ele>457</ele>
        <time>2015-11-22T08:10:29Z</time>
      </trkpt>
      <trkpt lat="43.58584" lon="3.30864">
        <ele>456.5</ele>
        <time>2015-11-22T08:10:30Z</time>
      </trkpt>
      <trkpt lat="43.58586" lon="3.30869">
        <ele>456.5</ele>
        <time>2015-11-22T08:10:31Z</time>
      </trkpt>
      <trkpt lat="43.58588" lon="3.30875">
        <ele>455.5</ele>
        <time>2015-11-22T08:10:32Z</time>
      </trkpt>
      <trkpt lat="43.58592" lon="3.30884">
        <ele>454.5</ele>
        <time>2015-11-22T08:10:34Z</time>
      </trkpt>
      <trkpt lat="43.58597" lon="3.30891">
        <ele>454</ele>
        <time>2015-11-22T08:10:36Z</time>
      </trkpt>
      <trkpt lat="43.58605" lon="3.30901">
        <ele>453</ele>
        <time>2015-11-22T08:10:38Z</time>
      </trkpt>
      <trkpt lat="43.58608" lon="3.30903">
        <ele>452.5</ele>
        <time>2015-11-22T08:10:39Z</time>
      </trkpt>
      <trkpt lat="43.58614" lon="3.3091">
        <ele>452.5</ele>
        <time>2015-11-22T08:10:41Z</time>
      </trkpt>
      <trkpt lat="43.58617" lon="3.30913">
        <ele>451</ele>
        <time>2015-11-22T08:10:42Z</time>
      </trkpt>
      <trkpt lat="43.58623" lon="3.3092">
        <ele>452</ele>
        <time>2015-11-22T08:10:44Z</time>
      </trkpt>
      <trkpt lat="43.58627" lon="3.30924">
        <ele>452</ele>
        <time>2015-11-22T08:10:45Z</time>
      </trkpt>
      <trkpt lat="43.58632" lon="3.30931">
        <ele>451.5</ele>
        <time>2015-11-22T08:10:47Z</time>
      </trkpt>
      <trkpt lat="43.58634" lon="3.30933">
        <ele>451.5</ele>
        <time>2015-11-22T08:10:48Z</time>
      </trkpt>
      <trkpt lat="43.58636" lon="3.30933">
        <ele>451.5</ele>
        <time>2015-11-22T08:10:49Z</time>
      </trkpt>
      <trkpt lat="43.58641" lon="3.30938">
        <ele>451</ele>
        <time>2015-11-22T08:10:51Z</time>
      </trkpt>
      <trkpt lat="43.58646" lon="3.30942">
        <ele>450.5</ele>
        <time>2015-11-22T08:10:53Z</time>
      </trkpt>
      <trkpt lat="43.58648" lon="3.30942">
        <ele>450.5</ele>
        <time>2015-11-22T08:10:54Z</time>
      </trkpt>
      <trkpt lat="43.58651" lon="3.30943">
        <ele>450.5</ele>
        <time>2015-11-22T08:10:55Z</time>
      </trkpt>
      <trkpt lat="43.5866" lon="3.30947">
        <ele>450.5</ele>
        <time>2015-11-22T08:10:57Z</time>
      </trkpt>
      <trkpt lat="43.58664" lon="3.30947">
        <ele>450.5</ele>
        <time>2015-11-22T08:10:58Z</time>
      </trkpt>
      <trkpt lat="43.58667" lon="3.30947">
        <ele>450.5</ele>
        <time>2015-11-22T08:10:59Z</time>
      </trkpt>
      <trkpt lat="43.58673" lon="3.30947">
        <ele>450.5</ele>
        <time>2015-11-22T08:11:01Z</time>
      </trkpt>
      <trkpt lat="43.58675" lon="3.30948">
        <ele>450.5</ele>
        <time>2015-11-22T08:11:02Z</time>
      </trkpt>
      <trkpt lat="43.58678" lon="3.30947">
        <ele>450.5</ele>
        <time>2015-11-22T08:11:03Z</time>
      </trkpt>
      <trkpt lat="43.58684" lon="3.30946">
        <ele>450</ele>
        <time>2015-11-22T08:11:05Z</time>
      </trkpt>
      <trkpt lat="43.58686" lon="3.30945">
        <ele>450</ele>
        <time>2015-11-22T08:11:06Z</time>
      </trkpt>
      <trkpt lat="43.58689" lon="3.30942">
        <ele>450</ele>
        <time>2015-11-22T08:11:07Z</time>
      </trkpt>
      <trkpt lat="43.58693" lon="3.30942">
        <ele>451.5</ele>
        <time>2015-11-22T08:11:09Z</time>
      </trkpt>
      <trkpt lat="43.58694" lon="3.30941">
        <ele>452</ele>
        <time>2015-11-22T08:11:10Z</time>
      </trkpt>
      <trkpt lat="43.58697" lon="3.3094">
        <ele>451.5</ele>
        <time>2015-11-22T08:11:11Z</time>
      </trkpt>
      <trkpt lat="43.58701" lon="3.3094">
        <ele>451</ele>
        <time>2015-11-22T08:11:13Z</time>
      </trkpt>
      <trkpt lat="43.58703" lon="3.3094">
        <ele>452.5</ele>
        <time>2015-11-22T08:11:14Z</time>
      </trkpt>
      <trkpt lat="43.58705" lon="3.30938">
        <ele>452.5</ele>
        <time>2015-11-22T08:11:15Z</time>
      </trkpt>
      <trkpt lat="43.58708" lon="3.30936">
        <ele>453</ele>
        <time>2015-11-22T08:11:16Z</time>
      </trkpt>
      <trkpt lat="43.58711" lon="3.30935">
        <ele>454</ele>
        <time>2015-11-22T08:11:17Z</time>
      </trkpt>
      <trkpt lat="43.58714" lon="3.30934">
        <ele>454</ele>
        <time>2015-11-22T08:11:18Z</time>
      </trkpt>
      <trkpt lat="43.58716" lon="3.30932">
        <ele>454</ele>
        <time>2015-11-22T08:11:19Z</time>
      </trkpt>
      <trkpt lat="43.58718" lon="3.3093">
        <ele>454</ele>
        <time>2015-11-22T08:11:20Z</time>
      </trkpt>
      <trkpt lat="43.5872" lon="3.30929">
        <ele>454</ele>
        <time>2015-11-22T08:11:22Z</time>
      </trkpt>
      <trkpt lat="43.58722" lon="3.30926">
        <ele>454</ele>
        <time>2015-11-22T08:11:23Z</time>
      </trkpt>
      <trkpt lat="43.58725" lon="3.30924">
        <ele>454</ele>
        <time>2015-11-22T08:11:24Z</time>
      </trkpt>
      <trkpt lat="43.58727" lon="3.30921">
        <ele>454.5</ele>
        <time>2015-11-22T08:11:25Z</time>
      </trkpt>
      <trkpt lat="43.5873" lon="3.30919">
        <ele>453</ele>
        <time>2015-11-22T08:11:26Z</time>
      </trkpt>
      <trkpt lat="43.58732" lon="3.30917">
        <ele>453</ele>
        <time>2015-11-22T08:11:27Z</time>
      </trkpt>
      <trkpt lat="43.58735" lon="3.30914">
        <ele>453</ele>
        <time>2015-11-22T08:11:28Z</time>
      </trkpt>
      <trkpt lat="43.58737" lon="3.30912">
        <ele>452.5</ele>
        <time>2015-11-22T08:11:29Z</time>
      </trkpt>
      <trkpt lat="43.58741" lon="3.30907">
        <ele>450.5</ele>
        <time>2015-11-22T08:11:31Z</time>
      </trkpt>
      <trkpt lat="43.58744" lon="3.30904">
        <ele>450.5</ele>
        <time>2015-11-22T08:11:32Z</time>
      </trkpt>
      <trkpt lat="43.58749" lon="3.30896">
        <ele>451</ele>
        <time>2015-11-22T08:11:34Z</time>
      </trkpt>
      <trkpt lat="43.58752" lon="3.30893">
        <ele>451</ele>
        <time>2015-11-22T08:11:35Z</time>
      </trkpt>
      <trkpt lat="43.58753" lon="3.30888">
        <ele>450.5</ele>
        <time>2015-11-22T08:11:36Z</time>
      </trkpt>
      <trkpt lat="43.58754" lon="3.30885">
        <ele>450</ele>
        <time>2015-11-22T08:11:37Z</time>
      </trkpt>
      <trkpt lat="43.58756" lon="3.30882">
        <ele>450.5</ele>
        <time>2015-11-22T08:11:38Z</time>
      </trkpt>
      <trkpt lat="43.58756" lon="3.30879">
        <ele>450.5</ele>
        <time>2015-11-22T08:11:39Z</time>
      </trkpt>
      <trkpt lat="43.58757" lon="3.30875">
        <ele>450.5</ele>
        <time>2015-11-22T08:11:40Z</time>
      </trkpt>
      <trkpt lat="43.58759" lon="3.30874">
        <ele>451</ele>
        <time>2015-11-22T08:11:41Z</time>
      </trkpt>
      <trkpt lat="43.5876" lon="3.30872">
        <ele>451.5</ele>
        <time>2015-11-22T08:11:42Z</time>
      </trkpt>
      <trkpt lat="43.5876" lon="3.30869">
        <ele>454</ele>
        <time>2015-11-22T08:11:43Z</time>
      </trkpt>
      <trkpt lat="43.58761" lon="3.30866">
        <ele>454.5</ele>
        <time>2015-11-22T08:11:44Z</time>
      </trkpt>
      <trkpt lat="43.58762" lon="3.30864">
        <ele>454.5</ele>
        <time>2015-11-22T08:11:45Z</time>
      </trkpt>
      <trkpt lat="43.58764" lon="3.30861">
        <ele>455</ele>
        <time>2015-11-22T08:11:46Z</time>
      </trkpt>
      <trkpt lat="43.58765" lon="3.30859">
        <ele>455</ele>
        <time>2015-11-22T08:11:47Z</time>
      </trkpt>
      <trkpt lat="43.58766" lon="3.30856">
        <ele>455</ele>
        <time>2015-11-22T08:11:48Z</time>
      </trkpt>
      <trkpt lat="43.58767" lon="3.30855">
        <ele>455</ele>
        <time>2015-11-22T08:11:49Z</time>
      </trkpt>
      <trkpt lat="43.58771" lon="3.30849">
        <ele>455</ele>
        <time>2015-11-22T08:11:51Z</time>
      </trkpt>
      <trkpt lat="43.58773" lon="3.30846">
        <ele>455</ele>
        <time>2015-11-22T08:11:52Z</time>
      </trkpt>
      <trkpt lat="43.58775" lon="3.30843">
        <ele>455</ele>
        <time>2015-11-22T08:11:53Z</time>
      </trkpt>
      <trkpt lat="43.58776" lon="3.30838">
        <ele>456</ele>
        <time>2015-11-22T08:11:54Z</time>
      </trkpt>
      <trkpt lat="43.58776" lon="3.30833">
        <ele>455.5</ele>
        <time>2015-11-22T08:11:55Z</time>
      </trkpt>
      <trkpt lat="43.58777" lon="3.30828">
        <ele>455.5</ele>
        <time>2015-11-22T08:11:56Z</time>
      </trkpt>
      <trkpt lat="43.5878" lon="3.30825">
        <ele>455.5</ele>
        <time>2015-11-22T08:11:57Z</time>
      </trkpt>
      <trkpt lat="43.58781" lon="3.30822">
        <ele>455</ele>
        <time>2015-11-22T08:11:58Z</time>
      </trkpt>
      <trkpt lat="43.58782" lon="3.30813">
        <ele>455</ele>
        <time>2015-11-22T08:12:00Z</time>
      </trkpt>
      <trkpt lat="43.58786" lon="3.3081">
        <ele>454.5</ele>
        <time>2015-11-22T08:12:01Z</time>
      </trkpt>
      <trkpt lat="43.58789" lon="3.30808">
        <ele>452.5</ele>
        <time>2015-11-22T08:12:02Z</time>
      </trkpt>
      <trkpt lat="43.58791" lon="3.30804">
        <ele>452.5</ele>
        <time>2015-11-22T08:12:03Z</time>
      </trkpt>
      <trkpt lat="43.58795" lon="3.30799">
        <ele>454</ele>
        <time>2015-11-22T08:12:05Z</time>
      </trkpt>
      <trkpt lat="43.58798" lon="3.30798">
        <ele>453.5</ele>
        <time>2015-11-22T08:12:06Z</time>
      </trkpt>
      <trkpt lat="43.58801" lon="3.30795">
        <ele>453.5</ele>
        <time>2015-11-22T08:12:07Z</time>
      </trkpt>
      <trkpt lat="43.58803" lon="3.30792">
        <ele>454</ele>
        <time>2015-11-22T08:12:08Z</time>
      </trkpt>
      <trkpt lat="43.58804" lon="3.3079">
        <ele>454</ele>
        <time>2015-11-22T08:12:09Z</time>
      </trkpt>
      <trkpt lat="43.58806" lon="3.30787">
        <ele>454</ele>
        <time>2015-11-22T08:12:10Z</time>
      </trkpt>
      <trkpt lat="43.58808" lon="3.30784">
        <ele>454</ele>
        <time>2015-11-22T08:12:11Z</time>
      </trkpt>
      <trkpt lat="43.5881" lon="3.30781">
        <ele>454</ele>
        <time>2015-11-22T08:12:12Z</time>
      </trkpt>
      <trkpt lat="43.58811" lon="3.30778">
        <ele>454</ele>
        <time>2015-11-22T08:12:13Z</time>
      </trkpt>
      <trkpt lat="43.58813" lon="3.30775">
        <ele>453.5</ele>
        <time>2015-11-22T08:12:14Z</time>
      </trkpt>
      <trkpt lat="43.58815" lon="3.30768">
        <ele>454</ele>
        <time>2015-11-22T08:12:16Z</time>
      </trkpt>
      <trkpt lat="43.58818" lon="3.30762">
        <ele>454.5</ele>
        <time>2015-11-22T08:12:18Z</time>
      </trkpt>
      <trkpt lat="43.5882" lon="3.30759">
        <ele>454.5</ele>
        <time>2015-11-22T08:12:19Z</time>
      </trkpt>
      <trkpt lat="43.58821" lon="3.30756">
        <ele>454.5</ele>
        <time>2015-11-22T08:12:20Z</time>
      </trkpt>
      <trkpt lat="43.58822" lon="3.30753">
        <ele>455</ele>
        <time>2015-11-22T08:12:21Z</time>
      </trkpt>
      <trkpt lat="43.58823" lon="3.3075">
        <ele>455</ele>
        <time>2015-11-22T08:12:22Z</time>
      </trkpt>
      <trkpt lat="43.58824" lon="3.30743">
        <ele>455</ele>
        <time>2015-11-22T08:12:24Z</time>
      </trkpt>
      <trkpt lat="43.58826" lon="3.3074">
        <ele>455</ele>
        <time>2015-11-22T08:12:25Z</time>
      </trkpt>
      <trkpt lat="43.58827" lon="3.30737">
        <ele>455</ele>
        <time>2015-11-22T08:12:26Z</time>
      </trkpt>
      <trkpt lat="43.58828" lon="3.30734">
        <ele>455.5</ele>
        <time>2015-11-22T08:12:27Z</time>
      </trkpt>
      <trkpt lat="43.58828" lon="3.3073">
        <ele>455.5</ele>
        <time>2015-11-22T08:12:28Z</time>
      </trkpt>
      <trkpt lat="43.58829" lon="3.30726">
        <ele>455.5</ele>
        <time>2015-11-22T08:12:29Z</time>
      </trkpt>
      <trkpt lat="43.5883" lon="3.30725">
        <ele>457</ele>
        <time>2015-11-22T08:12:30Z</time>
      </trkpt>
      <trkpt lat="43.58831" lon="3.30716">
        <ele>457</ele>
        <time>2015-11-22T08:12:32Z</time>
      </trkpt>
      <trkpt lat="43.58831" lon="3.30712">
        <ele>458</ele>
        <time>2015-11-22T08:12:33Z</time>
      </trkpt>
      <trkpt lat="43.58832" lon="3.30708">
        <ele>458</ele>
        <time>2015-11-22T08:12:34Z</time>
      </trkpt>
      <trkpt lat="43.58833" lon="3.30705">
        <ele>458.5</ele>
        <time>2015-11-22T08:12:35Z</time>
      </trkpt>
      <trkpt lat="43.58833" lon="3.30703">
        <ele>460.5</ele>
        <time>2015-11-22T08:12:36Z</time>
      </trkpt>
      <trkpt lat="43.58833" lon="3.30696">
        <ele>461.5</ele>
        <time>2015-11-22T08:12:38Z</time>
      </trkpt>
      <trkpt lat="43.58833" lon="3.30692">
        <ele>460.5</ele>
        <time>2015-11-22T08:12:39Z</time>
      </trkpt>
      <trkpt lat="43.58833" lon="3.30689">
        <ele>460.5</ele>
        <time>2015-11-22T08:12:40Z</time>
      </trkpt>
      <trkpt lat="43.58833" lon="3.30685">
        <ele>460.5</ele>
        <time>2015-11-22T08:12:41Z</time>
      </trkpt>
      <trkpt lat="43.58834" lon="3.30681">
        <ele>461</ele>
        <time>2015-11-22T08:12:42Z</time>
      </trkpt>
      <trkpt lat="43.58835" lon="3.30677">
        <ele>460.5</ele>
        <time>2015-11-22T08:12:43Z</time>
      </trkpt>
      <trkpt lat="43.58836" lon="3.30669">
        <ele>460.5</ele>
        <time>2015-11-22T08:12:44Z</time>
      </trkpt>
      <trkpt lat="43.58836" lon="3.30665">
        <ele>461.5</ele>
        <time>2015-11-22T08:12:46Z</time>
      </trkpt>
      <trkpt lat="43.58836" lon="3.30662">
        <ele>462</ele>
        <time>2015-11-22T08:12:47Z</time>
      </trkpt>
      <trkpt lat="43.58837" lon="3.30655">
        <ele>461</ele>
        <time>2015-11-22T08:12:49Z</time>
      </trkpt>
      <trkpt lat="43.58837" lon="3.30652">
        <ele>460.5</ele>
        <time>2015-11-22T08:12:50Z</time>
      </trkpt>
      <trkpt lat="43.58838" lon="3.30649">
        <ele>459.5</ele>
        <time>2015-11-22T08:12:50Z</time>
      </trkpt>
      <trkpt lat="43.58838" lon="3.30645">
        <ele>459.5</ele>
        <time>2015-11-22T08:12:52Z</time>
      </trkpt>
      <trkpt lat="43.58838" lon="3.30641">
        <ele>459</ele>
        <time>2015-11-22T08:12:52Z</time>
      </trkpt>
      <trkpt lat="43.58839" lon="3.30637">
        <ele>458</ele>
        <time>2015-11-22T08:12:54Z</time>
      </trkpt>
      <trkpt lat="43.5884" lon="3.30632">
        <ele>457.5</ele>
        <time>2015-11-22T08:12:54Z</time>
      </trkpt>
      <trkpt lat="43.58841" lon="3.30628">
        <ele>457</ele>
        <time>2015-11-22T08:12:56Z</time>
      </trkpt>
      <trkpt lat="43.58841" lon="3.30625">
        <ele>457</ele>
        <time>2015-11-22T08:12:56Z</time>
      </trkpt>
      <trkpt lat="43.58841" lon="3.30622">
        <ele>457</ele>
        <time>2015-11-22T08:12:57Z</time>
      </trkpt>
      <trkpt lat="43.58841" lon="3.30619">
        <ele>457.5</ele>
        <time>2015-11-22T08:12:58Z</time>
      </trkpt>
      <trkpt lat="43.58841" lon="3.30617">
        <ele>458</ele>
        <time>2015-11-22T08:12:59Z</time>
      </trkpt>
      <trkpt lat="43.58842" lon="3.30609">
        <ele>456</ele>
        <time>2015-11-22T08:13:01Z</time>
      </trkpt>
      <trkpt lat="43.58842" lon="3.30605">
        <ele>455</ele>
        <time>2015-11-22T08:13:02Z</time>
      </trkpt>
      <trkpt lat="43.58842" lon="3.30602">
        <ele>454.5</ele>
        <time>2015-11-22T08:13:03Z</time>
      </trkpt>
      <trkpt lat="43.58842" lon="3.30599">
        <ele>454</ele>
        <time>2015-11-22T08:13:05Z</time>
      </trkpt>
      <trkpt lat="43.58842" lon="3.30596">
        <ele>454</ele>
        <time>2015-11-22T08:13:05Z</time>
      </trkpt>
      <trkpt lat="43.58843" lon="3.30592">
        <ele>454</ele>
        <time>2015-11-22T08:13:07Z</time>
      </trkpt>
      <trkpt lat="43.58843" lon="3.30589">
        <ele>454.5</ele>
        <time>2015-11-22T08:13:07Z</time>
      </trkpt>
      <trkpt lat="43.58844" lon="3.30585">
        <ele>454.5</ele>
        <time>2015-11-22T08:13:08Z</time>
      </trkpt>
      <trkpt lat="43.58844" lon="3.30582">
        <ele>454.5</ele>
        <time>2015-11-22T08:13:10Z</time>
      </trkpt>
      <trkpt lat="43.58845" lon="3.30578">
        <ele>454.5</ele>
        <time>2015-11-22T08:13:10Z</time>
      </trkpt>
      <trkpt lat="43.58845" lon="3.30574">
        <ele>454.5</ele>
        <time>2015-11-22T08:13:11Z</time>
      </trkpt>
      <trkpt lat="43.58846" lon="3.30571">
        <ele>455</ele>
        <time>2015-11-22T08:13:12Z</time>
      </trkpt>
      <trkpt lat="43.58846" lon="3.30567">
        <ele>455.5</ele>
        <time>2015-11-22T08:13:14Z</time>
      </trkpt>
      <trkpt lat="43.58846" lon="3.30564">
        <ele>455.5</ele>
        <time>2015-11-22T08:13:15Z</time>
      </trkpt>
      <trkpt lat="43.58846" lon="3.30558">
        <ele>457</ele>
        <time>2015-11-22T08:13:16Z</time>
      </trkpt>
      <trkpt lat="43.58846" lon="3.30556">
        <ele>457.5</ele>
        <time>2015-11-22T08:13:18Z</time>
      </trkpt>
      <trkpt lat="43.58846" lon="3.30553">
        <ele>457.5</ele>
        <time>2015-11-22T08:13:18Z</time>
      </trkpt>
      <trkpt lat="43.58847" lon="3.30549">
        <ele>458</ele>
        <time>2015-11-22T08:13:20Z</time>
      </trkpt>
      <trkpt lat="43.58848" lon="3.30543">
        <ele>458</ele>
        <time>2015-11-22T08:13:22Z</time>
      </trkpt>
      <trkpt lat="43.58848" lon="3.30536">
        <ele>457</ele>
        <time>2015-11-22T08:13:23Z</time>
      </trkpt>
      <trkpt lat="43.58849" lon="3.30533">
        <ele>457</ele>
        <time>2015-11-22T08:13:24Z</time>
      </trkpt>
      <trkpt lat="43.58848" lon="3.3053">
        <ele>458</ele>
        <time>2015-11-22T08:13:25Z</time>
      </trkpt>
      <trkpt lat="43.58848" lon="3.30526">
        <ele>459</ele>
        <time>2015-11-22T08:13:27Z</time>
      </trkpt>
      <trkpt lat="43.58849" lon="3.30523">
        <ele>458.5</ele>
        <time>2015-11-22T08:13:27Z</time>
      </trkpt>
      <trkpt lat="43.5885" lon="3.30521">
        <ele>458</ele>
        <time>2015-11-22T08:13:28Z</time>
      </trkpt>
      <trkpt lat="43.5885" lon="3.30517">
        <ele>458</ele>
        <time>2015-11-22T08:13:29Z</time>
      </trkpt>
      <trkpt lat="43.5885" lon="3.30513">
        <ele>458</ele>
        <time>2015-11-22T08:13:31Z</time>
      </trkpt>
      <trkpt lat="43.5885" lon="3.30505">
        <ele>458</ele>
        <time>2015-11-22T08:13:32Z</time>
      </trkpt>
      <trkpt lat="43.5885" lon="3.30502">
        <ele>457.5</ele>
        <time>2015-11-22T08:13:34Z</time>
      </trkpt>
      <trkpt lat="43.5885" lon="3.30499">
        <ele>458.5</ele>
        <time>2015-11-22T08:13:34Z</time>
      </trkpt>
      <trkpt lat="43.5885" lon="3.30496">
        <ele>459.5</ele>
        <time>2015-11-22T08:13:36Z</time>
      </trkpt>
      <trkpt lat="43.58851" lon="3.30492">
        <ele>459.5</ele>
        <time>2015-11-22T08:13:36Z</time>
      </trkpt>
      <trkpt lat="43.58851" lon="3.30489">
        <ele>460</ele>
        <time>2015-11-22T08:13:37Z</time>
      </trkpt>
      <trkpt lat="43.58851" lon="3.30485">
        <ele>460.5</ele>
        <time>2015-11-22T08:13:38Z</time>
      </trkpt>
      <trkpt lat="43.58851" lon="3.30482">
        <ele>461</ele>
        <time>2015-11-22T08:13:39Z</time>
      </trkpt>
      <trkpt lat="43.58851" lon="3.30479">
        <ele>462</ele>
        <time>2015-11-22T08:13:40Z</time>
      </trkpt>
      <trkpt lat="43.58851" lon="3.30475">
        <ele>462</ele>
        <time>2015-11-22T08:13:41Z</time>
      </trkpt>
      <trkpt lat="43.58851" lon="3.30471">
        <ele>462.5</ele>
        <time>2015-11-22T08:13:42Z</time>
      </trkpt>
      <trkpt lat="43.58852" lon="3.30468">
        <ele>462.5</ele>
        <time>2015-11-22T08:13:43Z</time>
      </trkpt>
      <trkpt lat="43.58852" lon="3.30464">
        <ele>463</ele>
        <time>2015-11-22T08:13:44Z</time>
      </trkpt>
      <trkpt lat="43.58851" lon="3.3046">
        <ele>462.5</ele>
        <time>2015-11-22T08:13:46Z</time>
      </trkpt>
      <trkpt lat="43.5885" lon="3.30454">
        <ele>462.5</ele>
        <time>2015-11-22T08:13:47Z</time>
      </trkpt>
      <trkpt lat="43.58849" lon="3.30451">
        <ele>463.5</ele>
        <time>2015-11-22T08:13:48Z</time>
      </trkpt>
      <trkpt lat="43.58848" lon="3.30448">
        <ele>463.5</ele>
        <time>2015-11-22T08:13:49Z</time>
      </trkpt>
      <trkpt lat="43.58847" lon="3.30444">
        <ele>463.5</ele>
        <time>2015-11-22T08:13:50Z</time>
      </trkpt>
      <trkpt lat="43.58845" lon="3.30442">
        <ele>464.5</ele>
        <time>2015-11-22T08:13:51Z</time>
      </trkpt>
      <trkpt lat="43.58844" lon="3.30439">
        <ele>465.5</ele>
        <time>2015-11-22T08:13:52Z</time>
      </trkpt>
      <trkpt lat="43.58843" lon="3.30436">
        <ele>466.5</ele>
        <time>2015-11-22T08:13:53Z</time>
      </trkpt>
      <trkpt lat="43.58842" lon="3.30433">
        <ele>468</ele>
        <time>2015-11-22T08:13:54Z</time>
      </trkpt>
      <trkpt lat="43.58841" lon="3.30431">
        <ele>468</ele>
        <time>2015-11-22T08:13:55Z</time>
      </trkpt>
      <trkpt lat="43.5884" lon="3.30429">
        <ele>468</ele>
        <time>2015-11-22T08:13:56Z</time>
      </trkpt>
      <trkpt lat="43.58838" lon="3.30426">
        <ele>467.5</ele>
        <time>2015-11-22T08:13:57Z</time>
      </trkpt>
      <trkpt lat="43.58836" lon="3.30424">
        <ele>467.5</ele>
        <time>2015-11-22T08:13:58Z</time>
      </trkpt>
      <trkpt lat="43.58835" lon="3.30421">
        <ele>468</ele>
        <time>2015-11-22T08:13:59Z</time>
      </trkpt>
      <trkpt lat="43.58833" lon="3.30419">
        <ele>469</ele>
        <time>2015-11-22T08:14:00Z</time>
      </trkpt>
      <trkpt lat="43.58832" lon="3.30416">
        <ele>469</ele>
        <time>2015-11-22T08:14:01Z</time>
      </trkpt>
      <trkpt lat="43.5883" lon="3.30413">
        <ele>469</ele>
        <time>2015-11-22T08:14:02Z</time>
      </trkpt>
      <trkpt lat="43.58828" lon="3.3041">
        <ele>470</ele>
        <time>2015-11-22T08:14:04Z</time>
      </trkpt>
      <trkpt lat="43.58823" lon="3.30404">
        <ele>471</ele>
        <time>2015-11-22T08:14:05Z</time>
      </trkpt>
      <trkpt lat="43.58821" lon="3.30402">
        <ele>472</ele>
        <time>2015-11-22T08:14:06Z</time>
      </trkpt>
      <trkpt lat="43.58819" lon="3.30399">
        <ele>472</ele>
        <time>2015-11-22T08:14:07Z</time>
      </trkpt>
      <trkpt lat="43.58817" lon="3.30396">
        <ele>472.5</ele>
        <time>2015-11-22T08:14:08Z</time>
      </trkpt>
      <trkpt lat="43.58816" lon="3.30394">
        <ele>472.5</ele>
        <time>2015-11-22T08:14:09Z</time>
      </trkpt>
      <trkpt lat="43.58814" lon="3.30392">
        <ele>472</ele>
        <time>2015-11-22T08:14:10Z</time>
      </trkpt>
      <trkpt lat="43.58812" lon="3.3039">
        <ele>472.5</ele>
        <time>2015-11-22T08:14:11Z</time>
      </trkpt>
      <trkpt lat="43.5881" lon="3.30387">
        <ele>472</ele>
        <time>2015-11-22T08:14:12Z</time>
      </trkpt>
      <trkpt lat="43.58808" lon="3.30386">
        <ele>472</ele>
        <time>2015-11-22T08:14:13Z</time>
      </trkpt>
      <trkpt lat="43.58805" lon="3.30382">
        <ele>472</ele>
        <time>2015-11-22T08:14:14Z</time>
      </trkpt>
      <trkpt lat="43.58802" lon="3.3038">
        <ele>471.5</ele>
        <time>2015-11-22T08:14:15Z</time>
      </trkpt>
      <trkpt lat="43.588" lon="3.30378">
        <ele>471</ele>
        <time>2015-11-22T08:14:16Z</time>
      </trkpt>
      <trkpt lat="43.58799" lon="3.30377">
        <ele>471.5</ele>
        <time>2015-11-22T08:14:17Z</time>
      </trkpt>
      <trkpt lat="43.58797" lon="3.30374">
        <ele>473.5</ele>
        <time>2015-11-22T08:14:19Z</time>
      </trkpt>
      <trkpt lat="43.58793" lon="3.30369">
        <ele>472.5</ele>
        <time>2015-11-22T08:14:21Z</time>
      </trkpt>
      <trkpt lat="43.58791" lon="3.30367">
        <ele>472.5</ele>
        <time>2015-11-22T08:14:22Z</time>
      </trkpt>
      <trkpt lat="43.58789" lon="3.30365">
        <ele>472.5</ele>
        <time>2015-11-22T08:14:23Z</time>
      </trkpt>
      <trkpt lat="43.5879" lon="3.30363">
        <ele>474</ele>
        <time>2015-11-22T08:14:24Z</time>
      </trkpt>
      <trkpt lat="43.58789" lon="3.3036">
        <ele>474</ele>
        <time>2015-11-22T08:14:25Z</time>
      </trkpt>
      <trkpt lat="43.58787" lon="3.30357">
        <ele>476</ele>
        <time>2015-11-22T08:14:26Z</time>
      </trkpt>
      <trkpt lat="43.58784" lon="3.30353">
        <ele>476</ele>
        <time>2015-11-22T08:14:27Z</time>
      </trkpt>
      <trkpt lat="43.58782" lon="3.30351">
        <ele>476</ele>
        <time>2015-11-22T08:14:28Z</time>
      </trkpt>
      <trkpt lat="43.58781" lon="3.30348">
        <ele>476.5</ele>
        <time>2015-11-22T08:14:29Z</time>
      </trkpt>
      <trkpt lat="43.58779" lon="3.30345">
        <ele>477</ele>
        <time>2015-11-22T08:14:30Z</time>
      </trkpt>
      <trkpt lat="43.58778" lon="3.30342">
        <ele>477.5</ele>
        <time>2015-11-22T08:14:31Z</time>
      </trkpt>
      <trkpt lat="43.58778" lon="3.30339">
        <ele>477.5</ele>
        <time>2015-11-22T08:14:32Z</time>
      </trkpt>
      <trkpt lat="43.58778" lon="3.30336">
        <ele>478</ele>
        <time>2015-11-22T08:14:33Z</time>
      </trkpt>
      <trkpt lat="43.58778" lon="3.30333">
        <ele>478.5</ele>
        <time>2015-11-22T08:14:34Z</time>
      </trkpt>
      <trkpt lat="43.58777" lon="3.30331">
        <ele>479.5</ele>
        <time>2015-11-22T08:14:35Z</time>
      </trkpt>
      <trkpt lat="43.58777" lon="3.30328">
        <ele>479.5</ele>
        <time>2015-11-22T08:14:36Z</time>
      </trkpt>
      <trkpt lat="43.58777" lon="3.30324">
        <ele>479.5</ele>
        <time>2015-11-22T08:14:37Z</time>
      </trkpt>
      <trkpt lat="43.58776" lon="3.30317">
        <ele>480</ele>
        <time>2015-11-22T08:14:39Z</time>
      </trkpt>
      <trkpt lat="43.58776" lon="3.30313">
        <ele>480</ele>
        <time>2015-11-22T08:14:40Z</time>
      </trkpt>
      <trkpt lat="43.58775" lon="3.3031">
        <ele>479.5</ele>
        <time>2015-11-22T08:14:41Z</time>
      </trkpt>
      <trkpt lat="43.58773" lon="3.30303">
        <ele>480</ele>
        <time>2015-11-22T08:14:43Z</time>
      </trkpt>
      <trkpt lat="43.58773" lon="3.303">
        <ele>480.5</ele>
        <time>2015-11-22T08:14:44Z</time>
      </trkpt>
      <trkpt lat="43.58772" lon="3.30297">
        <ele>481</ele>
        <time>2015-11-22T08:14:45Z</time>
      </trkpt>
      <trkpt lat="43.5877" lon="3.30291">
        <ele>482</ele>
        <time>2015-11-22T08:14:47Z</time>
      </trkpt>
      <trkpt lat="43.58769" lon="3.30288">
        <ele>482.5</ele>
        <time>2015-11-22T08:14:48Z</time>
      </trkpt>
      <trkpt lat="43.58767" lon="3.30287">
        <ele>484.5</ele>
        <time>2015-11-22T08:14:49Z</time>
      </trkpt>
      <trkpt lat="43.58766" lon="3.30285">
        <ele>485</ele>
        <time>2015-11-22T08:14:50Z</time>
      </trkpt>
      <trkpt lat="43.58765" lon="3.30282">
        <ele>486</ele>
        <time>2015-11-22T08:14:51Z</time>
      </trkpt>
      <trkpt lat="43.58764" lon="3.3028">
        <ele>487</ele>
        <time>2015-11-22T08:14:52Z</time>
      </trkpt>
      <trkpt lat="43.58763" lon="3.30277">
        <ele>488</ele>
        <time>2015-11-22T08:14:53Z</time>
      </trkpt>
      <trkpt lat="43.58763" lon="3.30275">
        <ele>489.5</ele>
        <time>2015-11-22T08:14:54Z</time>
      </trkpt>
      <trkpt lat="43.58761" lon="3.30272">
        <ele>489.5</ele>
        <time>2015-11-22T08:14:55Z</time>
      </trkpt>
      <trkpt lat="43.5876" lon="3.30269">
        <ele>489</ele>
        <time>2015-11-22T08:14:56Z</time>
      </trkpt>
      <trkpt lat="43.58758" lon="3.30264">
        <ele>490</ele>
        <time>2015-11-22T08:14:58Z</time>
      </trkpt>
      <trkpt lat="43.58756" lon="3.30261">
        <ele>490</ele>
        <time>2015-11-22T08:14:59Z</time>
      </trkpt>
      <trkpt lat="43.58755" lon="3.30256">
        <ele>489.5</ele>
        <time>2015-11-22T08:15:00Z</time>
      </trkpt>
      <trkpt lat="43.58753" lon="3.30254">
        <ele>489.5</ele>
        <time>2015-11-22T08:15:01Z</time>
      </trkpt>
      <trkpt lat="43.58751" lon="3.30252">
        <ele>489.5</ele>
        <time>2015-11-22T08:15:02Z</time>
      </trkpt>
      <trkpt lat="43.58751" lon="3.30247">
        <ele>490</ele>
        <time>2015-11-22T08:15:03Z</time>
      </trkpt>
      <trkpt lat="43.58747" lon="3.30241">
        <ele>489.5</ele>
        <time>2015-11-22T08:15:05Z</time>
      </trkpt>
      <trkpt lat="43.58746" lon="3.30238">
        <ele>490</ele>
        <time>2015-11-22T08:15:06Z</time>
      </trkpt>
      <trkpt lat="43.58745" lon="3.30234">
        <ele>489.5</ele>
        <time>2015-11-22T08:15:07Z</time>
      </trkpt>
      <trkpt lat="43.58743" lon="3.3023">
        <ele>489</ele>
        <time>2015-11-22T08:15:08Z</time>
      </trkpt>
      <trkpt lat="43.58742" lon="3.30227">
        <ele>488.5</ele>
        <time>2015-11-22T08:15:09Z</time>
      </trkpt>
      <trkpt lat="43.5874" lon="3.30226">
        <ele>490</ele>
        <time>2015-11-22T08:15:10Z</time>
      </trkpt>
      <trkpt lat="43.58738" lon="3.30223">
        <ele>490</ele>
        <time>2015-11-22T08:15:11Z</time>
      </trkpt>
      <trkpt lat="43.58735" lon="3.30218">
        <ele>490</ele>
        <time>2015-11-22T08:15:13Z</time>
      </trkpt>
      <trkpt lat="43.58733" lon="3.30216">
        <ele>490</ele>
        <time>2015-11-22T08:15:14Z</time>
      </trkpt>
      <trkpt lat="43.5873" lon="3.30211">
        <ele>491</ele>
        <time>2015-11-22T08:15:16Z</time>
      </trkpt>
      <trkpt lat="43.58729" lon="3.30208">
        <ele>491</ele>
        <time>2015-11-22T08:15:17Z</time>
      </trkpt>
      <trkpt lat="43.58727" lon="3.30205">
        <ele>490</ele>
        <time>2015-11-22T08:15:18Z</time>
      </trkpt>
      <trkpt lat="43.58725" lon="3.30202">
        <ele>490</ele>
        <time>2015-11-22T08:15:19Z</time>
      </trkpt>
      <trkpt lat="43.58724" lon="3.30199">
        <ele>490.5</ele>
        <time>2015-11-22T08:15:20Z</time>
      </trkpt>
      <trkpt lat="43.58722" lon="3.30194">
        <ele>492</ele>
        <time>2015-11-22T08:15:22Z</time>
      </trkpt>
      <trkpt lat="43.5872" lon="3.30191">
        <ele>492</ele>
        <time>2015-11-22T08:15:23Z</time>
      </trkpt>
      <trkpt lat="43.58718" lon="3.30188">
        <ele>491</ele>
        <time>2015-11-22T08:15:24Z</time>
      </trkpt>
      <trkpt lat="43.58717" lon="3.30185">
        <ele>490.5</ele>
        <time>2015-11-22T08:15:25Z</time>
      </trkpt>
      <trkpt lat="43.58715" lon="3.30183">
        <ele>491</ele>
        <time>2015-11-22T08:15:26Z</time>
      </trkpt>
      <trkpt lat="43.58713" lon="3.30181">
        <ele>490.5</ele>
        <time>2015-11-22T08:15:27Z</time>
      </trkpt>
      <trkpt lat="43.58711" lon="3.30179">
        <ele>490</ele>
        <time>2015-11-22T08:15:28Z</time>
      </trkpt>
      <trkpt lat="43.58709" lon="3.30178">
        <ele>489.5</ele>
        <time>2015-11-22T08:15:29Z</time>
      </trkpt>
      <trkpt lat="43.58704" lon="3.30175">
        <ele>489</ele>
        <time>2015-11-22T08:15:31Z</time>
      </trkpt>
      <trkpt lat="43.58702" lon="3.30174">
        <ele>489</ele>
        <time>2015-11-22T08:15:32Z</time>
      </trkpt>
      <trkpt lat="43.587" lon="3.30173">
        <ele>489</ele>
        <time>2015-11-22T08:15:33Z</time>
      </trkpt>
      <trkpt lat="43.58698" lon="3.30172">
        <ele>489.5</ele>
        <time>2015-11-22T08:15:34Z</time>
      </trkpt>
      <trkpt lat="43.58696" lon="3.30171">
        <ele>490</ele>
        <time>2015-11-22T08:15:35Z</time>
      </trkpt>
      <trkpt lat="43.58693" lon="3.30171">
        <ele>491</ele>
        <time>2015-11-22T08:15:36Z</time>
      </trkpt>
      <trkpt lat="43.58691" lon="3.3017">
        <ele>491</ele>
        <time>2015-11-22T08:15:37Z</time>
      </trkpt>
      <trkpt lat="43.58689" lon="3.3017">
        <ele>491</ele>
        <time>2015-11-22T08:15:38Z</time>
      </trkpt>
      <trkpt lat="43.58686" lon="3.30169">
        <ele>490</ele>
        <time>2015-11-22T08:15:39Z</time>
      </trkpt>
      <trkpt lat="43.58684" lon="3.30168">
        <ele>490</ele>
        <time>2015-11-22T08:15:40Z</time>
      </trkpt>
      <trkpt lat="43.58683" lon="3.30167">
        <ele>489.5</ele>
        <time>2015-11-22T08:15:41Z</time>
      </trkpt>
      <trkpt lat="43.5868" lon="3.30167">
        <ele>488.5</ele>
        <time>2015-11-22T08:15:42Z</time>
      </trkpt>
      <trkpt lat="43.58677" lon="3.30166">
        <ele>487.5</ele>
        <time>2015-11-22T08:15:43Z</time>
      </trkpt>
      <trkpt lat="43.5867" lon="3.30163">
        <ele>486</ele>
        <time>2015-11-22T08:15:45Z</time>
      </trkpt>
      <trkpt lat="43.58667" lon="3.30162">
        <ele>486</ele>
        <time>2015-11-22T08:15:46Z</time>
      </trkpt>
      <trkpt lat="43.58664" lon="3.30161">
        <ele>486.5</ele>
        <time>2015-11-22T08:15:47Z</time>
      </trkpt>
      <trkpt lat="43.58662" lon="3.30159">
        <ele>486</ele>
        <time>2015-11-22T08:15:48Z</time>
      </trkpt>
      <trkpt lat="43.58659" lon="3.30158">
        <ele>486.5</ele>
        <time>2015-11-22T08:15:49Z</time>
      </trkpt>
      <trkpt lat="43.58657" lon="3.30156">
        <ele>486.5</ele>
        <time>2015-11-22T08:15:50Z</time>
      </trkpt>
      <trkpt lat="43.58655" lon="3.30153">
        <ele>486.5</ele>
        <time>2015-11-22T08:15:51Z</time>
      </trkpt>
      <trkpt lat="43.58653" lon="3.3015">
        <ele>485.5</ele>
        <time>2015-11-22T08:15:52Z</time>
      </trkpt>
      <trkpt lat="43.5865" lon="3.30144">
        <ele>486</ele>
        <time>2015-11-22T08:15:54Z</time>
      </trkpt>
      <trkpt lat="43.5865" lon="3.3014">
        <ele>486</ele>
        <time>2015-11-22T08:15:55Z</time>
      </trkpt>
      <trkpt lat="43.5865" lon="3.30136">
        <ele>486</ele>
        <time>2015-11-22T08:15:56Z</time>
      </trkpt>
      <trkpt lat="43.58649" lon="3.30132">
        <ele>486</ele>
        <time>2015-11-22T08:15:57Z</time>
      </trkpt>
      <trkpt lat="43.58649" lon="3.30129">
        <ele>486</ele>
        <time>2015-11-22T08:15:58Z</time>
      </trkpt>
      <trkpt lat="43.58649" lon="3.30125">
        <ele>485.5</ele>
        <time>2015-11-22T08:15:59Z</time>
      </trkpt>
      <trkpt lat="43.5865" lon="3.30122">
        <ele>483.5</ele>
        <time>2015-11-22T08:16:00Z</time>
      </trkpt>
      <trkpt lat="43.58651" lon="3.30115">
        <ele>483</ele>
        <time>2015-11-22T08:16:02Z</time>
      </trkpt>
      <trkpt lat="43.58651" lon="3.30114">
        <ele>483</ele>
        <time>2015-11-22T08:16:04Z</time>
      </trkpt>
      <trkpt lat="43.58651" lon="3.30114">
        <ele>483</ele>
        <time>2015-11-22T08:16:05Z</time>
      </trkpt>
      <trkpt lat="43.58653" lon="3.30108">
        <ele>482.5</ele>
        <time>2015-11-22T08:16:07Z</time>
      </trkpt>
      <trkpt lat="43.58653" lon="3.30104">
        <ele>482.5</ele>
        <time>2015-11-22T08:16:08Z</time>
      </trkpt>
      <trkpt lat="43.58655" lon="3.30102">
        <ele>482.5</ele>
        <time>2015-11-22T08:16:09Z</time>
      </trkpt>
      <trkpt lat="43.58656" lon="3.30098">
        <ele>483.5</ele>
        <time>2015-11-22T08:16:10Z</time>
      </trkpt>
      <trkpt lat="43.58656" lon="3.30095">
        <ele>483.5</ele>
        <time>2015-11-22T08:16:11Z</time>
      </trkpt>
      <trkpt lat="43.58655" lon="3.30091">
        <ele>483</ele>
        <time>2015-11-22T08:16:12Z</time>
      </trkpt>
      <trkpt lat="43.58655" lon="3.30087">
        <ele>483</ele>
        <time>2015-11-22T08:16:13Z</time>
      </trkpt>
      <trkpt lat="43.58656" lon="3.30085">
        <ele>483.5</ele>
        <time>2015-11-22T08:16:14Z</time>
      </trkpt>
      <trkpt lat="43.58662" lon="3.30083">
        <ele>483.5</ele>
        <time>2015-11-22T08:16:16Z</time>
      </trkpt>
      <trkpt lat="43.58664" lon="3.30081">
        <ele>483.5</ele>
        <time>2015-11-22T08:16:17Z</time>
      </trkpt>
      <trkpt lat="43.58666" lon="3.30079">
        <ele>483.5</ele>
        <time>2015-11-22T08:16:18Z</time>
      </trkpt>
      <trkpt lat="43.58667" lon="3.30077">
        <ele>483.5</ele>
        <time>2015-11-22T08:16:19Z</time>
      </trkpt>
      <trkpt lat="43.58669" lon="3.30074">
        <ele>483.5</ele>
        <time>2015-11-22T08:16:20Z</time>
      </trkpt>
      <trkpt lat="43.58671" lon="3.30072">
        <ele>483.5</ele>
        <time>2015-11-22T08:16:21Z</time>
      </trkpt>
      <trkpt lat="43.58672" lon="3.30066">
        <ele>484</ele>
        <time>2015-11-22T08:16:23Z</time>
      </trkpt>
      <trkpt lat="43.58675" lon="3.30064">
        <ele>484</ele>
        <time>2015-11-22T08:16:24Z</time>
      </trkpt>
      <trkpt lat="43.58677" lon="3.30063">
        <ele>484</ele>
        <time>2015-11-22T08:16:25Z</time>
      </trkpt>
      <trkpt lat="43.58679" lon="3.30061">
        <ele>484.5</ele>
        <time>2015-11-22T08:16:26Z</time>
      </trkpt>
      <trkpt lat="43.58679" lon="3.30059">
        <ele>485</ele>
        <time>2015-11-22T08:16:27Z</time>
      </trkpt>
      <trkpt lat="43.5868" lon="3.30057">
        <ele>485.5</ele>
        <time>2015-11-22T08:16:28Z</time>
      </trkpt>
      <trkpt lat="43.58683" lon="3.30056">
        <ele>486</ele>
        <time>2015-11-22T08:16:29Z</time>
      </trkpt>
      <trkpt lat="43.58685" lon="3.30055">
        <ele>487</ele>
        <time>2015-11-22T08:16:30Z</time>
      </trkpt>
      <trkpt lat="43.58687" lon="3.30054">
        <ele>489</ele>
        <time>2015-11-22T08:16:31Z</time>
      </trkpt>
      <trkpt lat="43.5869" lon="3.3005">
        <ele>493</ele>
        <time>2015-11-22T08:16:33Z</time>
      </trkpt>
      <trkpt lat="43.58691" lon="3.30048">
        <ele>493.5</ele>
        <time>2015-11-22T08:16:34Z</time>
      </trkpt>
      <trkpt lat="43.58694" lon="3.30047">
        <ele>493.5</ele>
        <time>2015-11-22T08:16:35Z</time>
      </trkpt>
      <trkpt lat="43.58695" lon="3.30047">
        <ele>493.5</ele>
        <time>2015-11-22T08:16:36Z</time>
      </trkpt>
      <trkpt lat="43.58699" lon="3.30045">
        <ele>493.5</ele>
        <time>2015-11-22T08:16:38Z</time>
      </trkpt>
      <trkpt lat="43.58701" lon="3.30044">
        <ele>494.5</ele>
        <time>2015-11-22T08:16:39Z</time>
      </trkpt>
      <trkpt lat="43.58702" lon="3.30042">
        <ele>494.5</ele>
        <time>2015-11-22T08:16:40Z</time>
      </trkpt>
      <trkpt lat="43.58703" lon="3.30038">
        <ele>495.5</ele>
        <time>2015-11-22T08:16:41Z</time>
      </trkpt>
      <trkpt lat="43.58704" lon="3.30037">
        <ele>496.5</ele>
        <time>2015-11-22T08:16:42Z</time>
      </trkpt>
      <trkpt lat="43.58706" lon="3.30036">
        <ele>496.5</ele>
        <time>2015-11-22T08:16:43Z</time>
      </trkpt>
      <trkpt lat="43.58711" lon="3.30034">
        <ele>499</ele>
        <time>2015-11-22T08:16:45Z</time>
      </trkpt>
      <trkpt lat="43.58713" lon="3.30033">
        <ele>499.5</ele>
        <time>2015-11-22T08:16:46Z</time>
      </trkpt>
      <trkpt lat="43.58716" lon="3.30032">
        <ele>500</ele>
        <time>2015-11-22T08:16:47Z</time>
      </trkpt>
      <trkpt lat="43.58719" lon="3.30032">
        <ele>500</ele>
        <time>2015-11-22T08:16:48Z</time>
      </trkpt>
      <trkpt lat="43.58722" lon="3.30031">
        <ele>500.5</ele>
        <time>2015-11-22T08:16:49Z</time>
      </trkpt>
      <trkpt lat="43.58725" lon="3.3003">
        <ele>500.5</ele>
        <time>2015-11-22T08:16:50Z</time>
      </trkpt>
      <trkpt lat="43.58727" lon="3.30028">
        <ele>501.5</ele>
        <time>2015-11-22T08:16:50Z</time>
      </trkpt>
      <trkpt lat="43.5873" lon="3.30027">
        <ele>502</ele>
        <time>2015-11-22T08:16:51Z</time>
      </trkpt>
      <trkpt lat="43.58732" lon="3.30024">
        <ele>502</ele>
        <time>2015-11-22T08:16:53Z</time>
      </trkpt>
      <trkpt lat="43.58734" lon="3.30021">
        <ele>502</ele>
        <time>2015-11-22T08:16:54Z</time>
      </trkpt>
      <trkpt lat="43.58737" lon="3.30018">
        <ele>502</ele>
        <time>2015-11-22T08:16:56Z</time>
      </trkpt>
      <trkpt lat="43.5874" lon="3.30016">
        <ele>502</ele>
        <time>2015-11-22T08:16:56Z</time>
      </trkpt>
      <trkpt lat="43.58743" lon="3.30014">
        <ele>502</ele>
        <time>2015-11-22T08:16:57Z</time>
      </trkpt>
      <trkpt lat="43.58744" lon="3.30011">
        <ele>503</ele>
        <time>2015-11-22T08:16:58Z</time>
      </trkpt>
      <trkpt lat="43.58746" lon="3.30009">
        <ele>504.5</ele>
        <time>2015-11-22T08:17:00Z</time>
      </trkpt>
      <trkpt lat="43.58748" lon="3.30007">
        <ele>504.5</ele>
        <time>2015-11-22T08:17:01Z</time>
      </trkpt>
      <trkpt lat="43.58752" lon="3.30002">
        <ele>506</ele>
        <time>2015-11-22T08:17:02Z</time>
      </trkpt>
      <trkpt lat="43.58753" lon="3.3">
        <ele>506</ele>
        <time>2015-11-22T08:17:03Z</time>
      </trkpt>
      <trkpt lat="43.58757" lon="3.29998">
        <ele>505.5</ele>
        <time>2015-11-22T08:17:04Z</time>
      </trkpt>
      <trkpt lat="43.58758" lon="3.29996">
        <ele>505.5</ele>
        <time>2015-11-22T08:17:06Z</time>
      </trkpt>
      <trkpt lat="43.58759" lon="3.29993">
        <ele>506</ele>
        <time>2015-11-22T08:17:06Z</time>
      </trkpt>
      <trkpt lat="43.5876" lon="3.2999">
        <ele>507</ele>
        <time>2015-11-22T08:17:07Z</time>
      </trkpt>
      <trkpt lat="43.58762" lon="3.29986">
        <ele>507</ele>
        <time>2015-11-22T08:17:08Z</time>
      </trkpt>
      <trkpt lat="43.58764" lon="3.29983">
        <ele>507</ele>
        <time>2015-11-22T08:17:09Z</time>
      </trkpt>
      <trkpt lat="43.58766" lon="3.2998">
        <ele>505.5</ele>
        <time>2015-11-22T08:17:11Z</time>
      </trkpt>
      <trkpt lat="43.58766" lon="3.29976">
        <ele>506</ele>
        <time>2015-11-22T08:17:12Z</time>
      </trkpt>
      <trkpt lat="43.58767" lon="3.29968">
        <ele>506.5</ele>
        <time>2015-11-22T08:17:13Z</time>
      </trkpt>
      <trkpt lat="43.58768" lon="3.29964">
        <ele>506.5</ele>
        <time>2015-11-22T08:17:14Z</time>
      </trkpt>
      <trkpt lat="43.58768" lon="3.29959">
        <ele>506</ele>
        <time>2015-11-22T08:17:16Z</time>
      </trkpt>
      <trkpt lat="43.58769" lon="3.29952">
        <ele>507</ele>
        <time>2015-11-22T08:17:17Z</time>
      </trkpt>
      <trkpt lat="43.58769" lon="3.29948">
        <ele>508</ele>
        <time>2015-11-22T08:17:19Z</time>
      </trkpt>
      <trkpt lat="43.58769" lon="3.29942">
        <ele>508.5</ele>
        <time>2015-11-22T08:17:19Z</time>
      </trkpt>
      <trkpt lat="43.5877" lon="3.29936">
        <ele>505.5</ele>
        <time>2015-11-22T08:17:20Z</time>
      </trkpt>
      <trkpt lat="43.5877" lon="3.2993">
        <ele>502.5</ele>
        <time>2015-11-22T08:17:22Z</time>
      </trkpt>
      <trkpt lat="43.58771" lon="3.29927">
        <ele>501.5</ele>
        <time>2015-11-22T08:17:22Z</time>
      </trkpt>
      <trkpt lat="43.58772" lon="3.29924">
        <ele>501.5</ele>
        <time>2015-11-22T08:17:23Z</time>
      </trkpt>
      <trkpt lat="43.58772" lon="3.29921">
        <ele>501</ele>
        <time>2015-11-22T08:17:24Z</time>
      </trkpt>
      <trkpt lat="43.58772" lon="3.29918">
        <ele>501.5</ele>
        <time>2015-11-22T08:17:25Z</time>
      </trkpt>
      <trkpt lat="43.58772" lon="3.29915">
        <ele>501.5</ele>
        <time>2015-11-22T08:17:27Z</time>
      </trkpt>
      <trkpt lat="43.58771" lon="3.29912">
        <ele>502.5</ele>
        <time>2015-11-22T08:17:27Z</time>
      </trkpt>
      <trkpt lat="43.58771" lon="3.29909">
        <ele>502.5</ele>
        <time>2015-11-22T08:17:28Z</time>
      </trkpt>
      <trkpt lat="43.58771" lon="3.29907">
        <ele>502.5</ele>
        <time>2015-11-22T08:17:30Z</time>
      </trkpt>
      <trkpt lat="43.5877" lon="3.29904">
        <ele>501.5</ele>
        <time>2015-11-22T08:17:30Z</time>
      </trkpt>
      <trkpt lat="43.58769" lon="3.299">
        <ele>501</ele>
        <time>2015-11-22T08:17:31Z</time>
      </trkpt>
      <trkpt lat="43.58768" lon="3.29897">
        <ele>501</ele>
        <time>2015-11-22T08:17:33Z</time>
      </trkpt>
      <trkpt lat="43.58766" lon="3.29895">
        <ele>501</ele>
        <time>2015-11-22T08:17:33Z</time>
      </trkpt>
      <trkpt lat="43.58764" lon="3.29893">
        <ele>500.5</ele>
        <time>2015-11-22T08:17:34Z</time>
      </trkpt>
      <trkpt lat="43.58763" lon="3.29892">
        <ele>501</ele>
        <time>2015-11-22T08:17:35Z</time>
      </trkpt>
      <trkpt lat="43.58761" lon="3.29891">
        <ele>501</ele>
        <time>2015-11-22T08:17:36Z</time>
      </trkpt>
      <trkpt lat="43.58759" lon="3.29891">
        <ele>500.5</ele>
        <time>2015-11-22T08:17:38Z</time>
      </trkpt>
      <trkpt lat="43.58755" lon="3.2989">
        <ele>500.5</ele>
        <time>2015-11-22T08:17:39Z</time>
      </trkpt>
      <trkpt lat="43.58753" lon="3.2989">
        <ele>500</ele>
        <time>2015-11-22T08:17:40Z</time>
      </trkpt>
      <trkpt lat="43.58751" lon="3.2989">
        <ele>500</ele>
        <time>2015-11-22T08:17:41Z</time>
      </trkpt>
      <trkpt lat="43.58749" lon="3.2989">
        <ele>500.5</ele>
        <time>2015-11-22T08:17:42Z</time>
      </trkpt>
      <trkpt lat="43.58747" lon="3.29891">
        <ele>501</ele>
        <time>2015-11-22T08:17:43Z</time>
      </trkpt>
      <trkpt lat="43.58745" lon="3.29891">
        <ele>501</ele>
        <time>2015-11-22T08:17:44Z</time>
      </trkpt>
      <trkpt lat="43.58744" lon="3.29891">
        <ele>501.5</ele>
        <time>2015-11-22T08:17:45Z</time>
      </trkpt>
      <trkpt lat="43.58743" lon="3.29891">
        <ele>501</ele>
        <time>2015-11-22T08:17:47Z</time>
      </trkpt>
      <trkpt lat="43.58739" lon="3.29891">
        <ele>501</ele>
        <time>2015-11-22T08:17:48Z</time>
      </trkpt>
      <trkpt lat="43.58737" lon="3.29891">
        <ele>501</ele>
        <time>2015-11-22T08:17:49Z</time>
      </trkpt>
      <trkpt lat="43.58738" lon="3.29894">
        <ele>500.5</ele>
        <time>2015-11-22T08:17:50Z</time>
      </trkpt>
      <trkpt lat="43.58735" lon="3.29894">
        <ele>500.5</ele>
        <time>2015-11-22T08:17:51Z</time>
      </trkpt>
      <trkpt lat="43.58733" lon="3.29893">
        <ele>499</ele>
        <time>2015-11-22T08:17:52Z</time>
      </trkpt>
      <trkpt lat="43.5873" lon="3.29893">
        <ele>498.5</ele>
        <time>2015-11-22T08:17:53Z</time>
      </trkpt>
      <trkpt lat="43.58727" lon="3.29893">
        <ele>499</ele>
        <time>2015-11-22T08:17:54Z</time>
      </trkpt>
      <trkpt lat="43.58724" lon="3.29893">
        <ele>499</ele>
        <time>2015-11-22T08:17:55Z</time>
      </trkpt>
      <trkpt lat="43.5872" lon="3.29892">
        <ele>497</ele>
        <time>2015-11-22T08:17:56Z</time>
      </trkpt>
      <trkpt lat="43.58716" lon="3.29893">
        <ele>496</ele>
        <time>2015-11-22T08:17:58Z</time>
      </trkpt>
      <trkpt lat="43.58714" lon="3.29893">
        <ele>496.5</ele>
        <time>2015-11-22T08:17:59Z</time>
      </trkpt>
      <trkpt lat="43.58712" lon="3.29893">
        <ele>496</ele>
        <time>2015-11-22T08:18:00Z</time>
      </trkpt>
      <trkpt lat="43.5871" lon="3.29893">
        <ele>496</ele>
        <time>2015-11-22T08:18:01Z</time>
      </trkpt>
      <trkpt lat="43.58707" lon="3.29893">
        <ele>496.5</ele>
        <time>2015-11-22T08:18:02Z</time>
      </trkpt>
      <trkpt lat="43.58704" lon="3.29892">
        <ele>496.5</ele>
        <time>2015-11-22T08:18:03Z</time>
      </trkpt>
      <trkpt lat="43.58702" lon="3.29893">
        <ele>496.5</ele>
        <time>2015-11-22T08:18:04Z</time>
      </trkpt>
      <trkpt lat="43.58699" lon="3.29893">
        <ele>496.5</ele>
        <time>2015-11-22T08:18:06Z</time>
      </trkpt>
      <trkpt lat="43.58693" lon="3.29893">
        <ele>497</ele>
        <time>2015-11-22T08:18:07Z</time>
      </trkpt>
      <trkpt lat="43.58691" lon="3.29893">
        <ele>498.5</ele>
        <time>2015-11-22T08:18:08Z</time>
      </trkpt>
      <trkpt lat="43.58689" lon="3.29893">
        <ele>498.5</ele>
        <time>2015-11-22T08:18:09Z</time>
      </trkpt>
      <trkpt lat="43.58687" lon="3.29891">
        <ele>498</ele>
        <time>2015-11-22T08:18:10Z</time>
      </trkpt>
      <trkpt lat="43.58685" lon="3.29891">
        <ele>497.5</ele>
        <time>2015-11-22T08:18:11Z</time>
      </trkpt>
      <trkpt lat="43.58682" lon="3.2989">
        <ele>497.5</ele>
        <time>2015-11-22T08:18:12Z</time>
      </trkpt>
      <trkpt lat="43.58679" lon="3.29891">
        <ele>497</ele>
        <time>2015-11-22T08:18:14Z</time>
      </trkpt>
      <trkpt lat="43.58674" lon="3.29892">
        <ele>495.5</ele>
        <time>2015-11-22T08:18:15Z</time>
      </trkpt>
      <trkpt lat="43.58672" lon="3.29892">
        <ele>495.5</ele>
        <time>2015-11-22T08:18:17Z</time>
      </trkpt>
      <trkpt lat="43.58667" lon="3.29892">
        <ele>495.5</ele>
        <time>2015-11-22T08:18:18Z</time>
      </trkpt>
      <trkpt lat="43.58664" lon="3.29892">
        <ele>497.5</ele>
        <time>2015-11-22T08:18:20Z</time>
      </trkpt>
      <trkpt lat="43.58662" lon="3.29893">
        <ele>498</ele>
        <time>2015-11-22T08:18:21Z</time>
      </trkpt>
      <trkpt lat="43.58659" lon="3.29893">
        <ele>499</ele>
        <time>2015-11-22T08:18:22Z</time>
      </trkpt>
      <trkpt lat="43.58656" lon="3.29893">
        <ele>499.5</ele>
        <time>2015-11-22T08:18:23Z</time>
      </trkpt>
      <trkpt lat="43.58651" lon="3.29892">
        <ele>500</ele>
        <time>2015-11-22T08:18:25Z</time>
      </trkpt>
      <trkpt lat="43.58647" lon="3.29892">
        <ele>500.5</ele>
        <time>2015-11-22T08:18:26Z</time>
      </trkpt>
      <trkpt lat="43.58644" lon="3.29893">
        <ele>500.5</ele>
        <time>2015-11-22T08:18:27Z</time>
      </trkpt>
      <trkpt lat="43.58641" lon="3.29893">
        <ele>500</ele>
        <time>2015-11-22T08:18:28Z</time>
      </trkpt>
      <trkpt lat="43.58638" lon="3.29894">
        <ele>500.5</ele>
        <time>2015-11-22T08:18:29Z</time>
      </trkpt>
      <trkpt lat="43.58635" lon="3.29894">
        <ele>500.5</ele>
        <time>2015-11-22T08:18:30Z</time>
      </trkpt>
      <trkpt lat="43.58631" lon="3.29894">
        <ele>501.5</ele>
        <time>2015-11-22T08:18:32Z</time>
      </trkpt>
      <trkpt lat="43.58629" lon="3.29895">
        <ele>502</ele>
        <time>2015-11-22T08:18:33Z</time>
      </trkpt>
      <trkpt lat="43.58627" lon="3.29896">
        <ele>502</ele>
        <time>2015-11-22T08:18:34Z</time>
      </trkpt>
      <trkpt lat="43.58626" lon="3.29897">
        <ele>501.5</ele>
        <time>2015-11-22T08:18:35Z</time>
      </trkpt>
      <trkpt lat="43.58627" lon="3.29901">
        <ele>501.5</ele>
        <time>2015-11-22T08:18:36Z</time>
      </trkpt>
      <trkpt lat="43.58628" lon="3.29904">
        <ele>502</ele>
        <time>2015-11-22T08:18:37Z</time>
      </trkpt>
      <trkpt lat="43.5863" lon="3.29908">
        <ele>502</ele>
        <time>2015-11-22T08:18:38Z</time>
      </trkpt>
      <trkpt lat="43.58631" lon="3.29911">
        <ele>502</ele>
        <time>2015-11-22T08:18:39Z</time>
      </trkpt>
      <trkpt lat="43.58631" lon="3.29914">
        <ele>502.5</ele>
        <time>2015-11-22T08:18:40Z</time>
      </trkpt>
      <trkpt lat="43.58631" lon="3.29918">
        <ele>503</ele>
        <time>2015-11-22T08:18:41Z</time>
      </trkpt>
      <trkpt lat="43.5863" lon="3.29922">
        <ele>503</ele>
        <time>2015-11-22T08:18:42Z</time>
      </trkpt>
      <trkpt lat="43.58629" lon="3.29926">
        <ele>503</ele>
        <time>2015-11-22T08:18:43Z</time>
      </trkpt>
      <trkpt lat="43.58628" lon="3.29929">
        <ele>503.5</ele>
        <time>2015-11-22T08:18:44Z</time>
      </trkpt>
      <trkpt lat="43.5862" lon="3.2993">
        <ele>503.5</ele>
        <time>2015-11-22T08:18:46Z</time>
      </trkpt>
      <trkpt lat="43.58617" lon="3.29929">
        <ele>503.5</ele>
        <time>2015-11-22T08:18:47Z</time>
      </trkpt>
      <trkpt lat="43.58615" lon="3.29928">
        <ele>503.5</ele>
        <time>2015-11-22T08:18:48Z</time>
      </trkpt>
      <trkpt lat="43.58613" lon="3.29928">
        <ele>503</ele>
        <time>2015-11-22T08:18:49Z</time>
      </trkpt>
      <trkpt lat="43.5861" lon="3.29927">
        <ele>503</ele>
        <time>2015-11-22T08:18:50Z</time>
      </trkpt>
      <trkpt lat="43.58607" lon="3.29926">
        <ele>503</ele>
        <time>2015-11-22T08:18:51Z</time>
      </trkpt>
      <trkpt lat="43.58605" lon="3.29926">
        <ele>503</ele>
        <time>2015-11-22T08:18:52Z</time>
      </trkpt>
      <trkpt lat="43.58603" lon="3.29928">
        <ele>503</ele>
        <time>2015-11-22T08:18:53Z</time>
      </trkpt>
      <trkpt lat="43.58601" lon="3.2993">
        <ele>503</ele>
        <time>2015-11-22T08:18:54Z</time>
      </trkpt>
      <trkpt lat="43.58599" lon="3.29932">
        <ele>502.5</ele>
        <time>2015-11-22T08:18:55Z</time>
      </trkpt>
      <trkpt lat="43.586" lon="3.29934">
        <ele>502.5</ele>
        <time>2015-11-22T08:18:56Z</time>
      </trkpt>
      <trkpt lat="43.58596" lon="3.29942">
        <ele>503.5</ele>
        <time>2015-11-22T08:18:58Z</time>
      </trkpt>
      <trkpt lat="43.58595" lon="3.29946">
        <ele>504.5</ele>
        <time>2015-11-22T08:18:59Z</time>
      </trkpt>
      <trkpt lat="43.58594" lon="3.29951">
        <ele>504.5</ele>
        <time>2015-11-22T08:19:00Z</time>
      </trkpt>
      <trkpt lat="43.58592" lon="3.29956">
        <ele>505</ele>
        <time>2015-11-22T08:19:01Z</time>
      </trkpt>
      <trkpt lat="43.58593" lon="3.2996">
        <ele>506</ele>
        <time>2015-11-22T08:19:02Z</time>
      </trkpt>
      <trkpt lat="43.58594" lon="3.29964">
        <ele>506</ele>
        <time>2015-11-22T08:19:03Z</time>
      </trkpt>
      <trkpt lat="43.58594" lon="3.29969">
        <ele>507</ele>
        <time>2015-11-22T08:19:04Z</time>
      </trkpt>
      <trkpt lat="43.58593" lon="3.29973">
        <ele>507</ele>
        <time>2015-11-22T08:19:05Z</time>
      </trkpt>
      <trkpt lat="43.58589" lon="3.29978">
        <ele>507</ele>
        <time>2015-11-22T08:19:06Z</time>
      </trkpt>
      <trkpt lat="43.58587" lon="3.29982">
        <ele>506.5</ele>
        <time>2015-11-22T08:19:07Z</time>
      </trkpt>
      <trkpt lat="43.58585" lon="3.29986">
        <ele>506.5</ele>
        <time>2015-11-22T08:19:08Z</time>
      </trkpt>
      <trkpt lat="43.5858" lon="3.29989">
        <ele>506.5</ele>
        <time>2015-11-22T08:19:09Z</time>
      </trkpt>
      <trkpt lat="43.5858" lon="3.29994">
        <ele>506</ele>
        <time>2015-11-22T08:19:10Z</time>
      </trkpt>
      <trkpt lat="43.5858" lon="3.29999">
        <ele>507.5</ele>
        <time>2015-11-22T08:19:11Z</time>
      </trkpt>
      <trkpt lat="43.58577" lon="3.30003">
        <ele>508</ele>
        <time>2015-11-22T08:19:12Z</time>
      </trkpt>
      <trkpt lat="43.58574" lon="3.30007">
        <ele>508</ele>
        <time>2015-11-22T08:19:13Z</time>
      </trkpt>
      <trkpt lat="43.58573" lon="3.30012">
        <ele>508</ele>
        <time>2015-11-22T08:19:14Z</time>
      </trkpt>
      <trkpt lat="43.58571" lon="3.30017">
        <ele>507.5</ele>
        <time>2015-11-22T08:19:15Z</time>
      </trkpt>
      <trkpt lat="43.58571" lon="3.30024">
        <ele>507.5</ele>
        <time>2015-11-22T08:19:16Z</time>
      </trkpt>
      <trkpt lat="43.58569" lon="3.30029">
        <ele>507.5</ele>
        <time>2015-11-22T08:19:17Z</time>
      </trkpt>
      <trkpt lat="43.58566" lon="3.30036">
        <ele>507.5</ele>
        <time>2015-11-22T08:19:18Z</time>
      </trkpt>
      <trkpt lat="43.58563" lon="3.30042">
        <ele>507.5</ele>
        <time>2015-11-22T08:19:19Z</time>
      </trkpt>
      <trkpt lat="43.58563" lon="3.30047">
        <ele>507</ele>
        <time>2015-11-22T08:19:20Z</time>
      </trkpt>
      <trkpt lat="43.5856" lon="3.30047">
        <ele>507</ele>
        <time>2015-11-22T08:19:21Z</time>
      </trkpt>
      <trkpt lat="43.58552" lon="3.30059">
        <ele>507</ele>
        <time>2015-11-22T08:19:23Z</time>
      </trkpt>
      <trkpt lat="43.58549" lon="3.30065">
        <ele>507</ele>
        <time>2015-11-22T08:19:24Z</time>
      </trkpt>
      <trkpt lat="43.58547" lon="3.3007">
        <ele>506.5</ele>
        <time>2015-11-22T08:19:25Z</time>
      </trkpt>
      <trkpt lat="43.58545" lon="3.30074">
        <ele>506.5</ele>
        <time>2015-11-22T08:19:26Z</time>
      </trkpt>
      <trkpt lat="43.58544" lon="3.30079">
        <ele>507</ele>
        <time>2015-11-22T08:19:27Z</time>
      </trkpt>
      <trkpt lat="43.58543" lon="3.30086">
        <ele>508.5</ele>
        <time>2015-11-22T08:19:28Z</time>
      </trkpt>
      <trkpt lat="43.5854" lon="3.30092">
        <ele>508.5</ele>
        <time>2015-11-22T08:19:29Z</time>
      </trkpt>
      <trkpt lat="43.58536" lon="3.30098">
        <ele>508.5</ele>
        <time>2015-11-22T08:19:30Z</time>
      </trkpt>
      <trkpt lat="43.58532" lon="3.30104">
        <ele>508.5</ele>
        <time>2015-11-22T08:19:31Z</time>
      </trkpt>
      <trkpt lat="43.58529" lon="3.3011">
        <ele>510.5</ele>
        <time>2015-11-22T08:19:32Z</time>
      </trkpt>
      <trkpt lat="43.58526" lon="3.30116">
        <ele>511</ele>
        <time>2015-11-22T08:19:33Z</time>
      </trkpt>
      <trkpt lat="43.58523" lon="3.30121">
        <ele>511</ele>
        <time>2015-11-22T08:19:34Z</time>
      </trkpt>
      <trkpt lat="43.5852" lon="3.30125">
        <ele>511</ele>
        <time>2015-11-22T08:19:35Z</time>
      </trkpt>
      <trkpt lat="43.58517" lon="3.30129">
        <ele>512</ele>
        <time>2015-11-22T08:19:36Z</time>
      </trkpt>
      <trkpt lat="43.58515" lon="3.30132">
        <ele>512</ele>
        <time>2015-11-22T08:19:37Z</time>
      </trkpt>
      <trkpt lat="43.58513" lon="3.30136">
        <ele>512</ele>
        <time>2015-11-22T08:19:38Z</time>
      </trkpt>
      <trkpt lat="43.5851" lon="3.3014">
        <ele>512</ele>
        <time>2015-11-22T08:19:39Z</time>
      </trkpt>
      <trkpt lat="43.58507" lon="3.30145">
        <ele>512</ele>
        <time>2015-11-22T08:19:40Z</time>
      </trkpt>
      <trkpt lat="43.58504" lon="3.30149">
        <ele>512</ele>
        <time>2015-11-22T08:19:41Z</time>
      </trkpt>
      <trkpt lat="43.58501" lon="3.30155">
        <ele>512.5</ele>
        <time>2015-11-22T08:19:42Z</time>
      </trkpt>
      <trkpt lat="43.58499" lon="3.30161">
        <ele>512.5</ele>
        <time>2015-11-22T08:19:43Z</time>
      </trkpt>
      <trkpt lat="43.58495" lon="3.30168">
        <ele>512.5</ele>
        <time>2015-11-22T08:19:44Z</time>
      </trkpt>
      <trkpt lat="43.58491" lon="3.30175">
        <ele>513</ele>
        <time>2015-11-22T08:19:45Z</time>
      </trkpt>
      <trkpt lat="43.58487" lon="3.30181">
        <ele>513</ele>
        <time>2015-11-22T08:19:46Z</time>
      </trkpt>
      <trkpt lat="43.58482" lon="3.30188">
        <ele>513</ele>
        <time>2015-11-22T08:19:47Z</time>
      </trkpt>
      <trkpt lat="43.58477" lon="3.30194">
        <ele>513</ele>
        <time>2015-11-22T08:19:48Z</time>
      </trkpt>
      <trkpt lat="43.58472" lon="3.30199">
        <ele>513.5</ele>
        <time>2015-11-22T08:19:49Z</time>
      </trkpt>
      <trkpt lat="43.58466" lon="3.30203">
        <ele>513.5</ele>
        <time>2015-11-22T08:19:50Z</time>
      </trkpt>
      <trkpt lat="43.58461" lon="3.30207">
        <ele>513.5</ele>
        <time>2015-11-22T08:19:51Z</time>
      </trkpt>
      <trkpt lat="43.58455" lon="3.30209">
        <ele>514</ele>
        <time>2015-11-22T08:19:52Z</time>
      </trkpt>
      <trkpt lat="43.58449" lon="3.30212">
        <ele>514</ele>
        <time>2015-11-22T08:19:53Z</time>
      </trkpt>
      <trkpt lat="43.58443" lon="3.30214">
        <ele>514.5</ele>
        <time>2015-11-22T08:19:54Z</time>
      </trkpt>
      <trkpt lat="43.58438" lon="3.30217">
        <ele>515</ele>
        <time>2015-11-22T08:19:55Z</time>
      </trkpt>
      <trkpt lat="43.58432" lon="3.3022">
        <ele>515.5</ele>
        <time>2015-11-22T08:19:56Z</time>
      </trkpt>
      <trkpt lat="43.58427" lon="3.30223">
        <ele>516</ele>
        <time>2015-11-22T08:19:57Z</time>
      </trkpt>
      <trkpt lat="43.58421" lon="3.30226">
        <ele>515.5</ele>
        <time>2015-11-22T08:19:58Z</time>
      </trkpt>
      <trkpt lat="43.58416" lon="3.30226">
        <ele>515</ele>
        <time>2015-11-22T08:19:59Z</time>
      </trkpt>
      <trkpt lat="43.58413" lon="3.30226">
        <ele>515</ele>
        <time>2015-11-22T08:20:00Z</time>
      </trkpt>
      <trkpt lat="43.58404" lon="3.30231">
        <ele>513.5</ele>
        <time>2015-11-22T08:20:02Z</time>
      </trkpt>
      <trkpt lat="43.58398" lon="3.30231">
        <ele>513.5</ele>
        <time>2015-11-22T08:20:03Z</time>
      </trkpt>
      <trkpt lat="43.5839" lon="3.30233">
        <ele>511</ele>
        <time>2015-11-22T08:20:04Z</time>
      </trkpt>
      <trkpt lat="43.58384" lon="3.30235">
        <ele>510</ele>
        <time>2015-11-22T08:20:05Z</time>
      </trkpt>
      <trkpt lat="43.58378" lon="3.30238">
        <ele>509.5</ele>
        <time>2015-11-22T08:20:06Z</time>
      </trkpt>
      <trkpt lat="43.58371" lon="3.30241">
        <ele>509</ele>
        <time>2015-11-22T08:20:07Z</time>
      </trkpt>
      <trkpt lat="43.58363" lon="3.30245">
        <ele>508</ele>
        <time>2015-11-22T08:20:08Z</time>
      </trkpt>
      <trkpt lat="43.58355" lon="3.30248">
        <ele>508</ele>
        <time>2015-11-22T08:20:09Z</time>
      </trkpt>
      <trkpt lat="43.58343" lon="3.30257">
        <ele>509</ele>
        <time>2015-11-22T08:20:11Z</time>
      </trkpt>
      <trkpt lat="43.58339" lon="3.30262">
        <ele>510.5</ele>
        <time>2015-11-22T08:20:12Z</time>
      </trkpt>
      <trkpt lat="43.58335" lon="3.30266">
        <ele>510.5</ele>
        <time>2015-11-22T08:20:13Z</time>
      </trkpt>
      <trkpt lat="43.58333" lon="3.30274">
        <ele>511</ele>
        <time>2015-11-22T08:20:14Z</time>
      </trkpt>
      <trkpt lat="43.58332" lon="3.30282">
        <ele>511</ele>
        <time>2015-11-22T08:20:15Z</time>
      </trkpt>
      <trkpt lat="43.58327" lon="3.30294">
        <ele>511</ele>
        <time>2015-11-22T08:20:17Z</time>
      </trkpt>
      <trkpt lat="43.58324" lon="3.303">
        <ele>511</ele>
        <time>2015-11-22T08:20:18Z</time>
      </trkpt>
      <trkpt lat="43.5832" lon="3.30306">
        <ele>510</ele>
        <time>2015-11-22T08:20:19Z</time>
      </trkpt>
      <trkpt lat="43.58319" lon="3.30314">
        <ele>509</ele>
        <time>2015-11-22T08:20:20Z</time>
      </trkpt>
      <trkpt lat="43.5832" lon="3.30323">
        <ele>508</ele>
        <time>2015-11-22T08:20:21Z</time>
      </trkpt>
      <trkpt lat="43.5832" lon="3.30332">
        <ele>507.5</ele>
        <time>2015-11-22T08:20:22Z</time>
      </trkpt>
      <trkpt lat="43.58321" lon="3.30342">
        <ele>507</ele>
        <time>2015-11-22T08:20:23Z</time>
      </trkpt>
      <trkpt lat="43.58319" lon="3.30353">
        <ele>506.5</ele>
        <time>2015-11-22T08:20:24Z</time>
      </trkpt>
      <trkpt lat="43.58314" lon="3.30362">
        <ele>505.5</ele>
        <time>2015-11-22T08:20:25Z</time>
      </trkpt>
      <trkpt lat="43.58314" lon="3.30372">
        <ele>505</ele>
        <time>2015-11-22T08:20:26Z</time>
      </trkpt>
      <trkpt lat="43.58314" lon="3.30383">
        <ele>505.5</ele>
        <time>2015-11-22T08:20:27Z</time>
      </trkpt>
      <trkpt lat="43.58312" lon="3.30394">
        <ele>505</ele>
        <time>2015-11-22T08:20:28Z</time>
      </trkpt>
      <trkpt lat="43.58313" lon="3.30405">
        <ele>504.5</ele>
        <time>2015-11-22T08:20:29Z</time>
      </trkpt>
      <trkpt lat="43.58314" lon="3.30415">
        <ele>504.5</ele>
        <time>2015-11-22T08:20:30Z</time>
      </trkpt>
      <trkpt lat="43.58313" lon="3.30427">
        <ele>505.5</ele>
        <time>2015-11-22T08:20:31Z</time>
      </trkpt>
      <trkpt lat="43.58312" lon="3.30437">
        <ele>505</ele>
        <time>2015-11-22T08:20:32Z</time>
      </trkpt>
      <trkpt lat="43.58311" lon="3.30449">
        <ele>505</ele>
        <time>2015-11-22T08:20:33Z</time>
      </trkpt>
      <trkpt lat="43.58311" lon="3.30459">
        <ele>504.5</ele>
        <time>2015-11-22T08:20:34Z</time>
      </trkpt>
      <trkpt lat="43.5831" lon="3.30467">
        <ele>505</ele>
        <time>2015-11-22T08:20:35Z</time>
      </trkpt>
      <trkpt lat="43.58312" lon="3.30476">
        <ele>505</ele>
        <time>2015-11-22T08:20:36Z</time>
      </trkpt>
      <trkpt lat="43.58312" lon="3.30486">
        <ele>504.5</ele>
        <time>2015-11-22T08:20:37Z</time>
      </trkpt>
      <trkpt lat="43.58311" lon="3.30495">
        <ele>504.5</ele>
        <time>2015-11-22T08:20:38Z</time>
      </trkpt>
      <trkpt lat="43.58311" lon="3.30507">
        <ele>504.5</ele>
        <time>2015-11-22T08:20:40Z</time>
      </trkpt>
      <trkpt lat="43.58309" lon="3.30513">
        <ele>504.5</ele>
        <time>2015-11-22T08:20:41Z</time>
      </trkpt>
      <trkpt lat="43.58304" lon="3.30517">
        <ele>504</ele>
        <time>2015-11-22T08:20:42Z</time>
      </trkpt>
      <trkpt lat="43.58301" lon="3.30521">
        <ele>504</ele>
        <time>2015-11-22T08:20:43Z</time>
      </trkpt>
      <trkpt lat="43.583" lon="3.30527">
        <ele>503.5</ele>
        <time>2015-11-22T08:20:44Z</time>
      </trkpt>
      <trkpt lat="43.583" lon="3.30533">
        <ele>503</ele>
        <time>2015-11-22T08:20:45Z</time>
      </trkpt>
      <trkpt lat="43.58302" lon="3.30549">
        <ele>505</ele>
        <time>2015-11-22T08:20:47Z</time>
      </trkpt>
      <trkpt lat="43.58301" lon="3.30556">
        <ele>505</ele>
        <time>2015-11-22T08:20:47Z</time>
      </trkpt>
      <trkpt lat="43.583" lon="3.30564">
        <ele>505</ele>
        <time>2015-11-22T08:20:48Z</time>
      </trkpt>
      <trkpt lat="43.58299" lon="3.30573">
        <ele>505</ele>
        <time>2015-11-22T08:20:49Z</time>
      </trkpt>
      <trkpt lat="43.58296" lon="3.30578">
        <ele>505.5</ele>
        <time>2015-11-22T08:20:50Z</time>
      </trkpt>
      <trkpt lat="43.58293" lon="3.30585">
        <ele>505</ele>
        <time>2015-11-22T08:20:51Z</time>
      </trkpt>
      <trkpt lat="43.58291" lon="3.30592">
        <ele>505.5</ele>
        <time>2015-11-22T08:20:52Z</time>
      </trkpt>
      <trkpt lat="43.58288" lon="3.30599">
        <ele>505.5</ele>
        <time>2015-11-22T08:20:53Z</time>
      </trkpt>
      <trkpt lat="43.58286" lon="3.30606">
        <ele>505.5</ele>
        <time>2015-11-22T08:20:54Z</time>
      </trkpt>
      <trkpt lat="43.58285" lon="3.30613">
        <ele>505.5</ele>
        <time>2015-11-22T08:20:55Z</time>
      </trkpt>
      <trkpt lat="43.58283" lon="3.30621">
        <ele>507.5</ele>
        <time>2015-11-22T08:20:56Z</time>
      </trkpt>
      <trkpt lat="43.58284" lon="3.30631">
        <ele>508</ele>
        <time>2015-11-22T08:20:57Z</time>
      </trkpt>
      <trkpt lat="43.58281" lon="3.3064">
        <ele>509.5</ele>
        <time>2015-11-22T08:20:58Z</time>
      </trkpt>
      <trkpt lat="43.58277" lon="3.3065">
        <ele>509.5</ele>
        <time>2015-11-22T08:20:59Z</time>
      </trkpt>
      <trkpt lat="43.58273" lon="3.3066">
        <ele>509</ele>
        <time>2015-11-22T08:21:00Z</time>
      </trkpt>
      <trkpt lat="43.5827" lon="3.30671">
        <ele>509</ele>
        <time>2015-11-22T08:21:01Z</time>
      </trkpt>
      <trkpt lat="43.58266" lon="3.30681">
        <ele>507.5</ele>
        <time>2015-11-22T08:21:02Z</time>
      </trkpt>
      <trkpt lat="43.58263" lon="3.30692">
        <ele>507.5</ele>
        <time>2015-11-22T08:21:03Z</time>
      </trkpt>
      <trkpt lat="43.58258" lon="3.30703">
        <ele>506</ele>
        <time>2015-11-22T08:21:04Z</time>
      </trkpt>
      <trkpt lat="43.58253" lon="3.30713">
        <ele>507</ele>
        <time>2015-11-22T08:21:05Z</time>
      </trkpt>
      <trkpt lat="43.5825" lon="3.30721">
        <ele>507</ele>
        <time>2015-11-22T08:21:06Z</time>
      </trkpt>
      <trkpt lat="43.58243" lon="3.30729">
        <ele>507</ele>
        <time>2015-11-22T08:21:07Z</time>
      </trkpt>
      <trkpt lat="43.58236" lon="3.30738">
        <ele>507</ele>
        <time>2015-11-22T08:21:08Z</time>
      </trkpt>
      <trkpt lat="43.58224" lon="3.30751">
        <ele>506.5</ele>
        <time>2015-11-22T08:21:10Z</time>
      </trkpt>
      <trkpt lat="43.58216" lon="3.30755">
        <ele>506</ele>
        <time>2015-11-22T08:21:11Z</time>
      </trkpt>
      <trkpt lat="43.58199" lon="3.30762">
        <ele>502</ele>
        <time>2015-11-22T08:21:13Z</time>
      </trkpt>
      <trkpt lat="43.58192" lon="3.30765">
        <ele>501.5</ele>
        <time>2015-11-22T08:21:14Z</time>
      </trkpt>
      <trkpt lat="43.58187" lon="3.30772">
        <ele>501</ele>
        <time>2015-11-22T08:21:15Z</time>
      </trkpt>
      <trkpt lat="43.58172" lon="3.30782">
        <ele>500.5</ele>
        <time>2015-11-22T08:21:17Z</time>
      </trkpt>
      <trkpt lat="43.58166" lon="3.30788">
        <ele>500</ele>
        <time>2015-11-22T08:21:18Z</time>
      </trkpt>
      <trkpt lat="43.5816" lon="3.30792">
        <ele>499.5</ele>
        <time>2015-11-22T08:21:19Z</time>
      </trkpt>
      <trkpt lat="43.58151" lon="3.30792">
        <ele>497</ele>
        <time>2015-11-22T08:21:21Z</time>
      </trkpt>
      <trkpt lat="43.58149" lon="3.3079">
        <ele>498</ele>
        <time>2015-11-22T08:21:22Z</time>
      </trkpt>
      <trkpt lat="43.58147" lon="3.30789">
        <ele>497</ele>
        <time>2015-11-22T08:21:23Z</time>
      </trkpt>
      <trkpt lat="43.58138" lon="3.30772">
        <ele>489</ele>
        <time>2015-11-22T08:21:29Z</time>
      </trkpt>
      <trkpt lat="43.58118" lon="3.30777">
        <ele>482.5</ele>
        <time>2015-11-22T08:21:32Z</time>
      </trkpt>
      <trkpt lat="43.58079" lon="3.30773">
        <ele>479</ele>
        <time>2015-11-22T08:21:36Z</time>
      </trkpt>
      <trkpt lat="43.58071" lon="3.30776">
        <ele>478.5</ele>
        <time>2015-11-22T08:21:37Z</time>
      </trkpt>
      <trkpt lat="43.58064" lon="3.3078">
        <ele>478.5</ele>
        <time>2015-11-22T08:21:38Z</time>
      </trkpt>
      <trkpt lat="43.58057" lon="3.30784">
        <ele>478</ele>
        <time>2015-11-22T08:21:39Z</time>
      </trkpt>
      <trkpt lat="43.58051" lon="3.3079">
        <ele>477</ele>
        <time>2015-11-22T08:21:40Z</time>
      </trkpt>
      <trkpt lat="43.58047" lon="3.30796">
        <ele>476</ele>
        <time>2015-11-22T08:21:41Z</time>
      </trkpt>
      <trkpt lat="43.58043" lon="3.30802">
        <ele>476</ele>
        <time>2015-11-22T08:21:42Z</time>
      </trkpt>
      <trkpt lat="43.58041" lon="3.3081">
        <ele>475.5</ele>
        <time>2015-11-22T08:21:43Z</time>
      </trkpt>
      <trkpt lat="43.58038" lon="3.30817">
        <ele>475.5</ele>
        <time>2015-11-22T08:21:44Z</time>
      </trkpt>
      <trkpt lat="43.58035" lon="3.30823">
        <ele>473.5</ele>
        <time>2015-11-22T08:21:45Z</time>
      </trkpt>
      <trkpt lat="43.5803" lon="3.30828">
        <ele>472.5</ele>
        <time>2015-11-22T08:21:46Z</time>
      </trkpt>
      <trkpt lat="43.58023" lon="3.30839">
        <ele>472</ele>
        <time>2015-11-22T08:21:48Z</time>
      </trkpt>
      <trkpt lat="43.58019" lon="3.30845">
        <ele>470.5</ele>
        <time>2015-11-22T08:21:49Z</time>
      </trkpt>
      <trkpt lat="43.58015" lon="3.30852">
        <ele>470</ele>
        <time>2015-11-22T08:21:50Z</time>
      </trkpt>
      <trkpt lat="43.58011" lon="3.30858">
        <ele>469.5</ele>
        <time>2015-11-22T08:21:51Z</time>
      </trkpt>
      <trkpt lat="43.58007" lon="3.30864">
        <ele>470</ele>
        <time>2015-11-22T08:21:52Z</time>
      </trkpt>
      <trkpt lat="43.58002" lon="3.3087">
        <ele>469</ele>
        <time>2015-11-22T08:21:53Z</time>
      </trkpt>
      <trkpt lat="43.57998" lon="3.30877">
        <ele>468</ele>
        <time>2015-11-22T08:21:54Z</time>
      </trkpt>
      <trkpt lat="43.57998" lon="3.30886">
        <ele>467.5</ele>
        <time>2015-11-22T08:21:55Z</time>
      </trkpt>
      <trkpt lat="43.57998" lon="3.30896">
        <ele>468.5</ele>
        <time>2015-11-22T08:21:56Z</time>
      </trkpt>
      <trkpt lat="43.57997" lon="3.30905">
        <ele>468.5</ele>
        <time>2015-11-22T08:21:57Z</time>
      </trkpt>
      <trkpt lat="43.57992" lon="3.30912">
        <ele>468</ele>
        <time>2015-11-22T08:21:58Z</time>
      </trkpt>
      <trkpt lat="43.57988" lon="3.3092">
        <ele>467</ele>
        <time>2015-11-22T08:21:59Z</time>
      </trkpt>
      <trkpt lat="43.57983" lon="3.30927">
        <ele>464.5</ele>
        <time>2015-11-22T08:22:00Z</time>
      </trkpt>
      <trkpt lat="43.57978" lon="3.30933">
        <ele>464</ele>
        <time>2015-11-22T08:22:01Z</time>
      </trkpt>
      <trkpt lat="43.57974" lon="3.30939">
        <ele>463.5</ele>
        <time>2015-11-22T08:22:02Z</time>
      </trkpt>
      <trkpt lat="43.57969" lon="3.30945">
        <ele>463</ele>
        <time>2015-11-22T08:22:03Z</time>
      </trkpt>
      <trkpt lat="43.57965" lon="3.3095">
        <ele>462.5</ele>
        <time>2015-11-22T08:22:04Z</time>
      </trkpt>
      <trkpt lat="43.57961" lon="3.30956">
        <ele>462</ele>
        <time>2015-11-22T08:22:05Z</time>
      </trkpt>
      <trkpt lat="43.57958" lon="3.30962">
        <ele>463</ele>
        <time>2015-11-22T08:22:06Z</time>
      </trkpt>
      <trkpt lat="43.57958" lon="3.30967">
        <ele>462.5</ele>
        <time>2015-11-22T08:22:07Z</time>
      </trkpt>
      <trkpt lat="43.57956" lon="3.30973">
        <ele>463</ele>
        <time>2015-11-22T08:22:08Z</time>
      </trkpt>
      <trkpt lat="43.57955" lon="3.3098">
        <ele>462.5</ele>
        <time>2015-11-22T08:22:09Z</time>
      </trkpt>
      <trkpt lat="43.57954" lon="3.30986">
        <ele>463</ele>
        <time>2015-11-22T08:22:10Z</time>
      </trkpt>
      <trkpt lat="43.57955" lon="3.30993">
        <ele>462.5</ele>
        <time>2015-11-22T08:22:11Z</time>
      </trkpt>
      <trkpt lat="43.57955" lon="3.30998">
        <ele>462</ele>
        <time>2015-11-22T08:22:12Z</time>
      </trkpt>
      <trkpt lat="43.57953" lon="3.31004">
        <ele>461.5</ele>
        <time>2015-11-22T08:22:13Z</time>
      </trkpt>
      <trkpt lat="43.57952" lon="3.31009">
        <ele>461.5</ele>
        <time>2015-11-22T08:22:14Z</time>
      </trkpt>
      <trkpt lat="43.57948" lon="3.31016">
        <ele>461</ele>
        <time>2015-11-22T08:22:15Z</time>
      </trkpt>
      <trkpt lat="43.57946" lon="3.31022">
        <ele>460.5</ele>
        <time>2015-11-22T08:22:16Z</time>
      </trkpt>
      <trkpt lat="43.57944" lon="3.3103">
        <ele>460.5</ele>
        <time>2015-11-22T08:22:17Z</time>
      </trkpt>
      <trkpt lat="43.5794" lon="3.31036">
        <ele>460.5</ele>
        <time>2015-11-22T08:22:18Z</time>
      </trkpt>
      <trkpt lat="43.57936" lon="3.31042">
        <ele>459.5</ele>
        <time>2015-11-22T08:22:19Z</time>
      </trkpt>
      <trkpt lat="43.57932" lon="3.31048">
        <ele>458.5</ele>
        <time>2015-11-22T08:22:20Z</time>
      </trkpt>
      <trkpt lat="43.57931" lon="3.31057">
        <ele>458.5</ele>
        <time>2015-11-22T08:22:21Z</time>
      </trkpt>
      <trkpt lat="43.57929" lon="3.31063">
        <ele>458</ele>
        <time>2015-11-22T08:22:22Z</time>
      </trkpt>
      <trkpt lat="43.57927" lon="3.31071">
        <ele>456.5</ele>
        <time>2015-11-22T08:22:23Z</time>
      </trkpt>
      <trkpt lat="43.57927" lon="3.31078">
        <ele>455</ele>
        <time>2015-11-22T08:22:24Z</time>
      </trkpt>
      <trkpt lat="43.57926" lon="3.31085">
        <ele>454</ele>
        <time>2015-11-22T08:22:25Z</time>
      </trkpt>
      <trkpt lat="43.57928" lon="3.31091">
        <ele>455</ele>
        <time>2015-11-22T08:22:26Z</time>
      </trkpt>
      <trkpt lat="43.57928" lon="3.31096">
        <ele>454.5</ele>
        <time>2015-11-22T08:22:27Z</time>
      </trkpt>
      <trkpt lat="43.57927" lon="3.31098">
        <ele>454</ele>
        <time>2015-11-22T08:22:28Z</time>
      </trkpt>
      <trkpt lat="43.57927" lon="3.31103">
        <ele>453.5</ele>
        <time>2015-11-22T08:22:29Z</time>
      </trkpt>
      <trkpt lat="43.57926" lon="3.31107">
        <ele>453.5</ele>
        <time>2015-11-22T08:22:30Z</time>
      </trkpt>
      <trkpt lat="43.57924" lon="3.3111">
        <ele>453.5</ele>
        <time>2015-11-22T08:22:31Z</time>
      </trkpt>
      <trkpt lat="43.57921" lon="3.31113">
        <ele>453.5</ele>
        <time>2015-11-22T08:22:32Z</time>
      </trkpt>
      <trkpt lat="43.57918" lon="3.31116">
        <ele>454</ele>
        <time>2015-11-22T08:22:33Z</time>
      </trkpt>
      <trkpt lat="43.57911" lon="3.3113">
        <ele>454</ele>
        <time>2015-11-22T08:22:35Z</time>
      </trkpt>
      <trkpt lat="43.57914" lon="3.3114">
        <ele>454.5</ele>
        <time>2015-11-22T08:22:36Z</time>
      </trkpt>
      <trkpt lat="43.57911" lon="3.31156">
        <ele>451.5</ele>
        <time>2015-11-22T08:22:38Z</time>
      </trkpt>
      <trkpt lat="43.5791" lon="3.31165">
        <ele>450.5</ele>
        <time>2015-11-22T08:22:39Z</time>
      </trkpt>
      <trkpt lat="43.57911" lon="3.31182">
        <ele>448</ele>
        <time>2015-11-22T08:22:41Z</time>
      </trkpt>
      <trkpt lat="43.57909" lon="3.3119">
        <ele>448</ele>
        <time>2015-11-22T08:22:42Z</time>
      </trkpt>
      <trkpt lat="43.57906" lon="3.31197">
        <ele>448</ele>
        <time>2015-11-22T08:22:43Z</time>
      </trkpt>
      <trkpt lat="43.57896" lon="3.31209">
        <ele>447</ele>
        <time>2015-11-22T08:22:45Z</time>
      </trkpt>
      <trkpt lat="43.57892" lon="3.31215">
        <ele>447.5</ele>
        <time>2015-11-22T08:22:46Z</time>
      </trkpt>
      <trkpt lat="43.57889" lon="3.31222">
        <ele>449.5</ele>
        <time>2015-11-22T08:22:47Z</time>
      </trkpt>
      <trkpt lat="43.57885" lon="3.31227">
        <ele>449.5</ele>
        <time>2015-11-22T08:22:48Z</time>
      </trkpt>
      <trkpt lat="43.57882" lon="3.31234">
        <ele>449</ele>
        <time>2015-11-22T08:22:49Z</time>
      </trkpt>
      <trkpt lat="43.57878" lon="3.3124">
        <ele>449.5</ele>
        <time>2015-11-22T08:22:50Z</time>
      </trkpt>
      <trkpt lat="43.57874" lon="3.31247">
        <ele>449.5</ele>
        <time>2015-11-22T08:22:51Z</time>
      </trkpt>
      <trkpt lat="43.57872" lon="3.31252">
        <ele>450</ele>
        <time>2015-11-22T08:22:52Z</time>
      </trkpt>
      <trkpt lat="43.57872" lon="3.31254">
        <ele>450</ele>
        <time>2015-11-22T08:22:53Z</time>
      </trkpt>
      <trkpt lat="43.5787" lon="3.31258">
        <ele>449.5</ele>
        <time>2015-11-22T08:22:54Z</time>
      </trkpt>
      <trkpt lat="43.5787" lon="3.31261">
        <ele>451.5</ele>
        <time>2015-11-22T08:22:55Z</time>
      </trkpt>
      <trkpt lat="43.57868" lon="3.31264">
        <ele>451</ele>
        <time>2015-11-22T08:22:56Z</time>
      </trkpt>
      <trkpt lat="43.57865" lon="3.31268">
        <ele>450.5</ele>
        <time>2015-11-22T08:22:57Z</time>
      </trkpt>
      <trkpt lat="43.57862" lon="3.31274">
        <ele>450.5</ele>
        <time>2015-11-22T08:22:58Z</time>
      </trkpt>
      <trkpt lat="43.57858" lon="3.31279">
        <ele>449.5</ele>
        <time>2015-11-22T08:22:59Z</time>
      </trkpt>
      <trkpt lat="43.57854" lon="3.31285">
        <ele>449</ele>
        <time>2015-11-22T08:23:00Z</time>
      </trkpt>
      <trkpt lat="43.57841" lon="3.31297">
        <ele>448.5</ele>
        <time>2015-11-22T08:23:02Z</time>
      </trkpt>
      <trkpt lat="43.57837" lon="3.31312">
        <ele>449</ele>
        <time>2015-11-22T08:23:04Z</time>
      </trkpt>
      <trkpt lat="43.57834" lon="3.31319">
        <ele>449</ele>
        <time>2015-11-22T08:23:05Z</time>
      </trkpt>
      <trkpt lat="43.5783" lon="3.31327">
        <ele>449</ele>
        <time>2015-11-22T08:23:06Z</time>
      </trkpt>
      <trkpt lat="43.57827" lon="3.31335">
        <ele>449</ele>
        <time>2015-11-22T08:23:07Z</time>
      </trkpt>
      <trkpt lat="43.57824" lon="3.31344">
        <ele>448</ele>
        <time>2015-11-22T08:23:08Z</time>
      </trkpt>
      <trkpt lat="43.57819" lon="3.31351">
        <ele>448.5</ele>
        <time>2015-11-22T08:23:09Z</time>
      </trkpt>
      <trkpt lat="43.57814" lon="3.31359">
        <ele>448</ele>
        <time>2015-11-22T08:23:10Z</time>
      </trkpt>
      <trkpt lat="43.57807" lon="3.31369">
        <ele>447.5</ele>
        <time>2015-11-22T08:23:12Z</time>
      </trkpt>
      <trkpt lat="43.57801" lon="3.31374">
        <ele>448</ele>
        <time>2015-11-22T08:23:13Z</time>
      </trkpt>
      <trkpt lat="43.57796" lon="3.31378">
        <ele>447.5</ele>
        <time>2015-11-22T08:23:14Z</time>
      </trkpt>
      <trkpt lat="43.57793" lon="3.31381">
        <ele>448.5</ele>
        <time>2015-11-22T08:23:15Z</time>
      </trkpt>
      <trkpt lat="43.57791" lon="3.31382">
        <ele>447</ele>
        <time>2015-11-22T08:23:17Z</time>
      </trkpt>
      <trkpt lat="43.5779" lon="3.31382">
        <ele>447.5</ele>
        <time>2015-11-22T08:23:18Z</time>
      </trkpt>
      <trkpt lat="43.57791" lon="3.31384">
        <ele>448.5</ele>
        <time>2015-11-22T08:23:19Z</time>
      </trkpt>
      <trkpt lat="43.5779" lon="3.31384">
        <ele>448.5</ele>
        <time>2015-11-22T08:23:20Z</time>
      </trkpt>
      <trkpt lat="43.5779" lon="3.31386">
        <ele>448.5</ele>
        <time>2015-11-22T08:23:21Z</time>
      </trkpt>
      <trkpt lat="43.57789" lon="3.31388">
        <ele>448.5</ele>
        <time>2015-11-22T08:23:22Z</time>
      </trkpt>
      <trkpt lat="43.57788" lon="3.31391">
        <ele>450.5</ele>
        <time>2015-11-22T08:23:23Z</time>
      </trkpt>
      <trkpt lat="43.57786" lon="3.31394">
        <ele>450</ele>
        <time>2015-11-22T08:23:24Z</time>
      </trkpt>
      <trkpt lat="43.57783" lon="3.31397">
        <ele>450</ele>
        <time>2015-11-22T08:23:25Z</time>
      </trkpt>
      <trkpt lat="43.57784" lon="3.31401">
        <ele>452</ele>
        <time>2015-11-22T08:23:26Z</time>
      </trkpt>
      <trkpt lat="43.57771" lon="3.31414">
        <ele>449</ele>
        <time>2015-11-22T08:23:29Z</time>
      </trkpt>
      <trkpt lat="43.57767" lon="3.31418">
        <ele>448.5</ele>
        <time>2015-11-22T08:23:30Z</time>
      </trkpt>
      <trkpt lat="43.57765" lon="3.31423">
        <ele>448.5</ele>
        <time>2015-11-22T08:23:31Z</time>
      </trkpt>
      <trkpt lat="43.57763" lon="3.31429">
        <ele>448.5</ele>
        <time>2015-11-22T08:23:32Z</time>
      </trkpt>
      <trkpt lat="43.5776" lon="3.31434">
        <ele>448.5</ele>
        <time>2015-11-22T08:23:33Z</time>
      </trkpt>
      <trkpt lat="43.57757" lon="3.3144">
        <ele>448</ele>
        <time>2015-11-22T08:23:34Z</time>
      </trkpt>
      <trkpt lat="43.57753" lon="3.31446">
        <ele>448</ele>
        <time>2015-11-22T08:23:35Z</time>
      </trkpt>
      <trkpt lat="43.57749" lon="3.31451">
        <ele>448</ele>
        <time>2015-11-22T08:23:36Z</time>
      </trkpt>
      <trkpt lat="43.57744" lon="3.31456">
        <ele>447.5</ele>
        <time>2015-11-22T08:23:37Z</time>
      </trkpt>
      <trkpt lat="43.5774" lon="3.31459">
        <ele>448</ele>
        <time>2015-11-22T08:23:38Z</time>
      </trkpt>
      <trkpt lat="43.57736" lon="3.31459">
        <ele>447.5</ele>
        <time>2015-11-22T08:23:39Z</time>
      </trkpt>
      <trkpt lat="43.57731" lon="3.3146">
        <ele>447.5</ele>
        <time>2015-11-22T08:23:40Z</time>
      </trkpt>
      <trkpt lat="43.57726" lon="3.31462">
        <ele>447.5</ele>
        <time>2015-11-22T08:23:41Z</time>
      </trkpt>
      <trkpt lat="43.57725" lon="3.31468">
        <ele>447</ele>
        <time>2015-11-22T08:23:42Z</time>
      </trkpt>
      <trkpt lat="43.57723" lon="3.31473">
        <ele>448.5</ele>
        <time>2015-11-22T08:23:43Z</time>
      </trkpt>
      <trkpt lat="43.5772" lon="3.31476">
        <ele>448.5</ele>
        <time>2015-11-22T08:23:44Z</time>
      </trkpt>
      <trkpt lat="43.57714" lon="3.31483">
        <ele>447</ele>
        <time>2015-11-22T08:23:46Z</time>
      </trkpt>
      <trkpt lat="43.57705" lon="3.31489">
        <ele>443.5</ele>
        <time>2015-11-22T08:23:48Z</time>
      </trkpt>
      <trkpt lat="43.57702" lon="3.31493">
        <ele>443</ele>
        <time>2015-11-22T08:23:49Z</time>
      </trkpt>
      <trkpt lat="43.57701" lon="3.31496">
        <ele>445</ele>
        <time>2015-11-22T08:23:50Z</time>
      </trkpt>
      <trkpt lat="43.57699" lon="3.31498">
        <ele>445</ele>
        <time>2015-11-22T08:23:51Z</time>
      </trkpt>
      <trkpt lat="43.57698" lon="3.315">
        <ele>446.5</ele>
        <time>2015-11-22T08:23:52Z</time>
      </trkpt>
      <trkpt lat="43.57696" lon="3.31502">
        <ele>446.5</ele>
        <time>2015-11-22T08:23:53Z</time>
      </trkpt>
      <trkpt lat="43.57694" lon="3.31503">
        <ele>446</ele>
        <time>2015-11-22T08:23:54Z</time>
      </trkpt>
      <trkpt lat="43.57692" lon="3.31503">
        <ele>445.5</ele>
        <time>2015-11-22T08:23:55Z</time>
      </trkpt>
      <trkpt lat="43.57691" lon="3.31504">
        <ele>445</ele>
        <time>2015-11-22T08:23:56Z</time>
      </trkpt>
      <trkpt lat="43.57686" lon="3.31504">
        <ele>442.5</ele>
        <time>2015-11-22T08:24:00Z</time>
      </trkpt>
      <trkpt lat="43.57685" lon="3.31505">
        <ele>442</ele>
        <time>2015-11-22T08:24:01Z</time>
      </trkpt>
      <trkpt lat="43.57683" lon="3.31506">
        <ele>441.5</ele>
        <time>2015-11-22T08:24:02Z</time>
      </trkpt>
      <trkpt lat="43.5768" lon="3.31505">
        <ele>440</ele>
        <time>2015-11-22T08:24:03Z</time>
      </trkpt>
      <trkpt lat="43.57679" lon="3.31501">
        <ele>438.5</ele>
        <time>2015-11-22T08:24:04Z</time>
      </trkpt>
      <trkpt lat="43.57669" lon="3.31493">
        <ele>428.5</ele>
        <time>2015-11-22T08:24:06Z</time>
      </trkpt>
      <trkpt lat="43.5766" lon="3.31487">
        <ele>420.5</ele>
        <time>2015-11-22T08:24:08Z</time>
      </trkpt>
      <trkpt lat="43.57657" lon="3.31485">
        <ele>419</ele>
        <time>2015-11-22T08:24:09Z</time>
      </trkpt>
      <trkpt lat="43.57654" lon="3.31484">
        <ele>418</ele>
        <time>2015-11-22T08:24:10Z</time>
      </trkpt>
      <trkpt lat="43.57651" lon="3.31483">
        <ele>418</ele>
        <time>2015-11-22T08:24:11Z</time>
      </trkpt>
      <trkpt lat="43.57648" lon="3.31481">
        <ele>418</ele>
        <time>2015-11-22T08:24:12Z</time>
      </trkpt>
      <trkpt lat="43.57646" lon="3.3148">
        <ele>417.5</ele>
        <time>2015-11-22T08:24:13Z</time>
      </trkpt>
      <trkpt lat="43.57643" lon="3.3148">
        <ele>419</ele>
        <time>2015-11-22T08:24:14Z</time>
      </trkpt>
      <trkpt lat="43.57643" lon="3.31481">
        <ele>419</ele>
        <time>2015-11-22T08:24:15Z</time>
      </trkpt>
      <trkpt lat="43.57631" lon="3.3149">
        <ele>419.5</ele>
        <time>2015-11-22T08:24:18Z</time>
      </trkpt>
      <trkpt lat="43.57622" lon="3.31495">
        <ele>420.5</ele>
        <time>2015-11-22T08:24:20Z</time>
      </trkpt>
      <trkpt lat="43.57619" lon="3.31495">
        <ele>420.5</ele>
        <time>2015-11-22T08:24:21Z</time>
      </trkpt>
      <trkpt lat="43.57616" lon="3.31496">
        <ele>420.5</ele>
        <time>2015-11-22T08:24:22Z</time>
      </trkpt>
      <trkpt lat="43.57613" lon="3.31497">
        <ele>420</ele>
        <time>2015-11-22T08:24:23Z</time>
      </trkpt>
      <trkpt lat="43.57611" lon="3.31498">
        <ele>420</ele>
        <time>2015-11-22T08:24:24Z</time>
      </trkpt>
      <trkpt lat="43.57604" lon="3.31504">
        <ele>419</ele>
        <time>2015-11-22T08:24:26Z</time>
      </trkpt>
      <trkpt lat="43.57598" lon="3.31518">
        <ele>420</ele>
        <time>2015-11-22T08:24:28Z</time>
      </trkpt>
      <trkpt lat="43.57589" lon="3.31532">
        <ele>420</ele>
        <time>2015-11-22T08:24:30Z</time>
      </trkpt>
      <trkpt lat="43.57583" lon="3.31543">
        <ele>421</ele>
        <time>2015-11-22T08:24:32Z</time>
      </trkpt>
      <trkpt lat="43.57576" lon="3.31555">
        <ele>423</ele>
        <time>2015-11-22T08:24:34Z</time>
      </trkpt>
      <trkpt lat="43.57572" lon="3.31561">
        <ele>423</ele>
        <time>2015-11-22T08:24:35Z</time>
      </trkpt>
      <trkpt lat="43.57568" lon="3.31568">
        <ele>423</ele>
        <time>2015-11-22T08:24:36Z</time>
      </trkpt>
      <trkpt lat="43.57564" lon="3.31575">
        <ele>423.5</ele>
        <time>2015-11-22T08:24:37Z</time>
      </trkpt>
      <trkpt lat="43.57562" lon="3.31582">
        <ele>423.5</ele>
        <time>2015-11-22T08:24:38Z</time>
      </trkpt>
      <trkpt lat="43.5756" lon="3.31588">
        <ele>424</ele>
        <time>2015-11-22T08:24:39Z</time>
      </trkpt>
      <trkpt lat="43.57558" lon="3.31596">
        <ele>424</ele>
        <time>2015-11-22T08:24:40Z</time>
      </trkpt>
      <trkpt lat="43.57555" lon="3.31604">
        <ele>424</ele>
        <time>2015-11-22T08:24:41Z</time>
      </trkpt>
      <trkpt lat="43.57548" lon="3.31621">
        <ele>423</ele>
        <time>2015-11-22T08:24:43Z</time>
      </trkpt>
      <trkpt lat="43.57548" lon="3.31643">
        <ele>423</ele>
        <time>2015-11-22T08:24:45Z</time>
      </trkpt>
      <trkpt lat="43.5754" lon="3.31666">
        <ele>424.5</ele>
        <time>2015-11-22T08:24:47Z</time>
      </trkpt>
      <trkpt lat="43.57534" lon="3.31674">
        <ele>424</ele>
        <time>2015-11-22T08:24:48Z</time>
      </trkpt>
      <trkpt lat="43.5753" lon="3.31686">
        <ele>423.5</ele>
        <time>2015-11-22T08:24:49Z</time>
      </trkpt>
      <trkpt lat="43.57526" lon="3.31697">
        <ele>422</ele>
        <time>2015-11-22T08:24:50Z</time>
      </trkpt>
      <trkpt lat="43.57522" lon="3.31709">
        <ele>422.5</ele>
        <time>2015-11-22T08:24:51Z</time>
      </trkpt>
      <trkpt lat="43.5752" lon="3.3172">
        <ele>424</ele>
        <time>2015-11-22T08:24:52Z</time>
      </trkpt>
      <trkpt lat="43.57513" lon="3.31746">
        <ele>425.5</ele>
        <time>2015-11-22T08:24:54Z</time>
      </trkpt>
      <trkpt lat="43.5751" lon="3.31758">
        <ele>425.5</ele>
        <time>2015-11-22T08:24:55Z</time>
      </trkpt>
      <trkpt lat="43.57504" lon="3.31769">
        <ele>426.5</ele>
        <time>2015-11-22T08:24:56Z</time>
      </trkpt>
      <trkpt lat="43.575" lon="3.31781">
        <ele>427</ele>
        <time>2015-11-22T08:24:57Z</time>
      </trkpt>
      <trkpt lat="43.57498" lon="3.31791">
        <ele>427</ele>
        <time>2015-11-22T08:24:58Z</time>
      </trkpt>
      <trkpt lat="43.57484" lon="3.31809">
        <ele>424.5</ele>
        <time>2015-11-22T08:25:00Z</time>
      </trkpt>
      <trkpt lat="43.57478" lon="3.31815">
        <ele>424.5</ele>
        <time>2015-11-22T08:25:01Z</time>
      </trkpt>
      <trkpt lat="43.57473" lon="3.31822">
        <ele>425</ele>
        <time>2015-11-22T08:25:02Z</time>
      </trkpt>
      <trkpt lat="43.5747" lon="3.31829">
        <ele>426</ele>
        <time>2015-11-22T08:25:03Z</time>
      </trkpt>
      <trkpt lat="43.57457" lon="3.31831">
        <ele>425.5</ele>
        <time>2015-11-22T08:25:05Z</time>
      </trkpt>
      <trkpt lat="43.57453" lon="3.31829">
        <ele>425.5</ele>
        <time>2015-11-22T08:25:06Z</time>
      </trkpt>
      <trkpt lat="43.57446" lon="3.31825">
        <ele>422</ele>
        <time>2015-11-22T08:25:08Z</time>
      </trkpt>
      <trkpt lat="43.57444" lon="3.31822">
        <ele>421.5</ele>
        <time>2015-11-22T08:25:09Z</time>
      </trkpt>
      <trkpt lat="43.57438" lon="3.31817">
        <ele>416.5</ele>
        <time>2015-11-22T08:25:11Z</time>
      </trkpt>
      <trkpt lat="43.57437" lon="3.31816">
        <ele>417</ele>
        <time>2015-11-22T08:25:12Z</time>
      </trkpt>
      <trkpt lat="43.5743" lon="3.31809">
        <ele>411</ele>
        <time>2015-11-22T08:25:14Z</time>
      </trkpt>
      <trkpt lat="43.57428" lon="3.31806">
        <ele>410</ele>
        <time>2015-11-22T08:25:15Z</time>
      </trkpt>
      <trkpt lat="43.57427" lon="3.31804">
        <ele>409.5</ele>
        <time>2015-11-22T08:25:16Z</time>
      </trkpt>
      <trkpt lat="43.57426" lon="3.31802">
        <ele>409.5</ele>
        <time>2015-11-22T08:25:17Z</time>
      </trkpt>
      <trkpt lat="43.57424" lon="3.31799">
        <ele>409</ele>
        <time>2015-11-22T08:25:18Z</time>
      </trkpt>
      <trkpt lat="43.57423" lon="3.31797">
        <ele>408.5</ele>
        <time>2015-11-22T08:25:19Z</time>
      </trkpt>
      <trkpt lat="43.57422" lon="3.31795">
        <ele>408</ele>
        <time>2015-11-22T08:25:20Z</time>
      </trkpt>
      <trkpt lat="43.57421" lon="3.31793">
        <ele>408</ele>
        <time>2015-11-22T08:25:21Z</time>
      </trkpt>
      <trkpt lat="43.5742" lon="3.31791">
        <ele>407.5</ele>
        <time>2015-11-22T08:25:22Z</time>
      </trkpt>
      <trkpt lat="43.57418" lon="3.31789">
        <ele>406</ele>
        <time>2015-11-22T08:25:23Z</time>
      </trkpt>
      <trkpt lat="43.57417" lon="3.31788">
        <ele>405</ele>
        <time>2015-11-22T08:25:24Z</time>
      </trkpt>
      <trkpt lat="43.57416" lon="3.31786">
        <ele>405</ele>
        <time>2015-11-22T08:25:25Z</time>
      </trkpt>
      <trkpt lat="43.57415" lon="3.31784">
        <ele>405</ele>
        <time>2015-11-22T08:25:26Z</time>
      </trkpt>
      <trkpt lat="43.57414" lon="3.31782">
        <ele>405.5</ele>
        <time>2015-11-22T08:25:27Z</time>
      </trkpt>
      <trkpt lat="43.57413" lon="3.31781">
        <ele>404</ele>
        <time>2015-11-22T08:25:28Z</time>
      </trkpt>
      <trkpt lat="43.57412" lon="3.31779">
        <ele>403.5</ele>
        <time>2015-11-22T08:25:29Z</time>
      </trkpt>
      <trkpt lat="43.57411" lon="3.31777">
        <ele>403.5</ele>
        <time>2015-11-22T08:25:30Z</time>
      </trkpt>
      <trkpt lat="43.57409" lon="3.31775">
        <ele>403.5</ele>
        <time>2015-11-22T08:25:31Z</time>
      </trkpt>
      <trkpt lat="43.57408" lon="3.31773">
        <ele>403</ele>
        <time>2015-11-22T08:25:32Z</time>
      </trkpt>
      <trkpt lat="43.57407" lon="3.31771">
        <ele>403</ele>
        <time>2015-11-22T08:25:33Z</time>
      </trkpt>
      <trkpt lat="43.57406" lon="3.31769">
        <ele>402.5</ele>
        <time>2015-11-22T08:25:34Z</time>
      </trkpt>
      <trkpt lat="43.57405" lon="3.31768">
        <ele>401.5</ele>
        <time>2015-11-22T08:25:35Z</time>
      </trkpt>
      <trkpt lat="43.57403" lon="3.31767">
        <ele>401</ele>
        <time>2015-11-22T08:25:36Z</time>
      </trkpt>
      <trkpt lat="43.57403" lon="3.31765">
        <ele>401</ele>
        <time>2015-11-22T08:25:37Z</time>
      </trkpt>
      <trkpt lat="43.57402" lon="3.31763">
        <ele>401</ele>
        <time>2015-11-22T08:25:38Z</time>
      </trkpt>
      <trkpt lat="43.57401" lon="3.31762">
        <ele>401</ele>
        <time>2015-11-22T08:25:39Z</time>
      </trkpt>
      <trkpt lat="43.574" lon="3.3176">
        <ele>401</ele>
        <time>2015-11-22T08:25:40Z</time>
      </trkpt>
      <trkpt lat="43.57399" lon="3.3176">
        <ele>401</ele>
        <time>2015-11-22T08:25:41Z</time>
      </trkpt>
      <trkpt lat="43.57398" lon="3.31759">
        <ele>400.5</ele>
        <time>2015-11-22T08:25:43Z</time>
      </trkpt>
      <trkpt lat="43.57397" lon="3.31758">
        <ele>401.5</ele>
        <time>2015-11-22T08:25:44Z</time>
      </trkpt>
      <trkpt lat="43.57396" lon="3.31757">
        <ele>401</ele>
        <time>2015-11-22T08:25:45Z</time>
      </trkpt>
      <trkpt lat="43.57396" lon="3.31757">
        <ele>401</ele>
        <time>2015-11-22T08:25:46Z</time>
      </trkpt>
      <trkpt lat="43.57396" lon="3.31757">
        <ele>400.5</ele>
        <time>2015-11-22T08:25:47Z</time>
      </trkpt>
      <trkpt lat="43.57394" lon="3.31759">
        <ele>401.5</ele>
        <time>2015-11-22T08:25:50Z</time>
      </trkpt>
      <trkpt lat="43.57394" lon="3.31758">
        <ele>402</ele>
        <time>2015-11-22T08:25:51Z</time>
      </trkpt>
      <trkpt lat="43.57395" lon="3.31757">
        <ele>401.5</ele>
        <time>2015-11-22T08:25:52Z</time>
      </trkpt>
      <trkpt lat="43.57395" lon="3.31757">
        <ele>401.5</ele>
        <time>2015-11-22T08:25:53Z</time>
      </trkpt>
      <trkpt lat="43.57395" lon="3.31756">
        <ele>401</ele>
        <time>2015-11-22T08:25:54Z</time>
      </trkpt>
      <trkpt lat="43.57393" lon="3.3176">
        <ele>402.5</ele>
        <time>2015-11-22T08:25:59Z</time>
      </trkpt>
      <trkpt lat="43.57393" lon="3.31761">
        <ele>403</ele>
        <time>2015-11-22T08:26:01Z</time>
      </trkpt>
      <trkpt lat="43.57393" lon="3.31758">
        <ele>403</ele>
        <time>2015-11-22T08:26:02Z</time>
      </trkpt>
      <trkpt lat="43.57393" lon="3.31758">
        <ele>402.5</ele>
        <time>2015-11-22T08:26:06Z</time>
      </trkpt>
      <trkpt lat="43.57393" lon="3.3176">
        <ele>402.5</ele>
        <time>2015-11-22T08:26:07Z</time>
      </trkpt>
      <trkpt lat="43.57393" lon="3.31762">
        <ele>403</ele>
        <time>2015-11-22T08:26:09Z</time>
      </trkpt>
      <trkpt lat="43.57393" lon="3.31762">
        <ele>402.5</ele>
        <time>2015-11-22T08:26:15Z</time>
      </trkpt>
      <trkpt lat="43.57394" lon="3.31762">
        <ele>402</ele>
        <time>2015-11-22T08:26:16Z</time>
      </trkpt>
      <trkpt lat="43.57394" lon="3.31762">
        <ele>402</ele>
        <time>2015-11-22T08:26:17Z</time>
      </trkpt>
      <trkpt lat="43.57394" lon="3.31763">
        <ele>402</ele>
        <time>2015-11-22T08:26:18Z</time>
      </trkpt>
      <trkpt lat="43.57394" lon="3.31763">
        <ele>402.5</ele>
        <time>2015-11-22T08:26:19Z</time>
      </trkpt>
      <trkpt lat="43.57394" lon="3.31764">
        <ele>402</ele>
        <time>2015-11-22T08:26:20Z</time>
      </trkpt>
      <trkpt lat="43.57395" lon="3.31764">
        <ele>402</ele>
        <time>2015-11-22T08:26:22Z</time>
      </trkpt>
      <trkpt lat="43.57395" lon="3.31765">
        <ele>402.5</ele>
        <time>2015-11-22T08:26:23Z</time>
      </trkpt>
      <trkpt lat="43.57395" lon="3.31766">
        <ele>403</ele>
        <time>2015-11-22T08:26:24Z</time>
      </trkpt>
      <trkpt lat="43.57395" lon="3.31767">
        <ele>403</ele>
        <time>2015-11-22T08:26:25Z</time>
      </trkpt>
      <trkpt lat="43.57395" lon="3.31766">
        <ele>403.5</ele>
        <time>2015-11-22T08:26:26Z</time>
      </trkpt>
      <trkpt lat="43.57395" lon="3.31765">
        <ele>403.5</ele>
        <time>2015-11-22T08:26:27Z</time>
      </trkpt>
      <trkpt lat="43.57396" lon="3.31765">
        <ele>404</ele>
        <time>2015-11-22T08:26:28Z</time>
      </trkpt>
      <trkpt lat="43.57396" lon="3.31765">
        <ele>404</ele>
        <time>2015-11-22T08:26:29Z</time>
      </trkpt>
      <trkpt lat="43.57395" lon="3.31764">
        <ele>404</ele>
        <time>2015-11-22T08:26:35Z</time>
      </trkpt>
      <trkpt lat="43.57395" lon="3.31764">
        <ele>404</ele>
        <time>2015-11-22T08:26:36Z</time>
      </trkpt>
      <trkpt lat="43.57395" lon="3.31763">
        <ele>403.5</ele>
        <time>2015-11-22T08:26:39Z</time>
      </trkpt>
      <trkpt lat="43.57394" lon="3.31763">
        <ele>404</ele>
        <time>2015-11-22T08:26:40Z</time>
      </trkpt>
      <trkpt lat="43.57394" lon="3.31763">
        <ele>404.5</ele>
        <time>2015-11-22T08:26:41Z</time>
      </trkpt>
      <trkpt lat="43.57393" lon="3.31764">
        <ele>404</ele>
        <time>2015-11-22T08:26:44Z</time>
      </trkpt>
      <trkpt lat="43.57393" lon="3.31764">
        <ele>403.5</ele>
        <time>2015-11-22T08:26:46Z</time>
      </trkpt>
      <trkpt lat="43.57392" lon="3.31765">
        <ele>403.5</ele>
        <time>2015-11-22T08:26:47Z</time>
      </trkpt>
      <trkpt lat="43.57391" lon="3.31765">
        <ele>403.5</ele>
        <time>2015-11-22T08:26:48Z</time>
      </trkpt>
      <trkpt lat="43.57391" lon="3.31764">
        <ele>402.5</ele>
        <time>2015-11-22T08:26:49Z</time>
      </trkpt>
      <trkpt lat="43.57391" lon="3.31764">
        <ele>403</ele>
        <time>2015-11-22T08:26:50Z</time>
      </trkpt>
      <trkpt lat="43.5739" lon="3.31769">
        <ele>403</ele>
        <time>2015-11-22T08:26:52Z</time>
      </trkpt>
      <trkpt lat="43.5739" lon="3.31769">
        <ele>402</ele>
        <time>2015-11-22T08:26:53Z</time>
      </trkpt>
      <trkpt lat="43.57389" lon="3.31769">
        <ele>401.5</ele>
        <time>2015-11-22T08:26:54Z</time>
      </trkpt>
      <trkpt lat="43.57389" lon="3.31769">
        <ele>401</ele>
        <time>2015-11-22T08:26:55Z</time>
      </trkpt>
      <trkpt lat="43.57388" lon="3.31769">
        <ele>401</ele>
        <time>2015-11-22T08:26:56Z</time>
      </trkpt>
      <trkpt lat="43.57387" lon="3.31768">
        <ele>400.5</ele>
        <time>2015-11-22T08:26:57Z</time>
      </trkpt>
      <trkpt lat="43.57386" lon="3.31767">
        <ele>401</ele>
        <time>2015-11-22T08:26:58Z</time>
      </trkpt>
      <trkpt lat="43.57386" lon="3.31765">
        <ele>400.5</ele>
        <time>2015-11-22T08:26:59Z</time>
      </trkpt>
      <trkpt lat="43.57385" lon="3.31765">
        <ele>400.5</ele>
        <time>2015-11-22T08:27:00Z</time>
      </trkpt>
      <trkpt lat="43.57385" lon="3.31765">
        <ele>400.5</ele>
        <time>2015-11-22T08:27:01Z</time>
      </trkpt>
      <trkpt lat="43.57385" lon="3.31763">
        <ele>399</ele>
        <time>2015-11-22T08:27:07Z</time>
      </trkpt>
      <trkpt lat="43.57386" lon="3.31762">
        <ele>399</ele>
        <time>2015-11-22T08:27:08Z</time>
      </trkpt>
      <trkpt lat="43.57387" lon="3.31762">
        <ele>398</ele>
        <time>2015-11-22T08:27:09Z</time>
      </trkpt>
      <trkpt lat="43.57388" lon="3.31763">
        <ele>398.5</ele>
        <time>2015-11-22T08:27:10Z</time>
      </trkpt>
      <trkpt lat="43.57389" lon="3.31764">
        <ele>398</ele>
        <time>2015-11-22T08:27:11Z</time>
      </trkpt>
      <trkpt lat="43.57389" lon="3.31764">
        <ele>398</ele>
        <time>2015-11-22T08:27:12Z</time>
      </trkpt>
      <trkpt lat="43.5739" lon="3.31765">
        <ele>398.5</ele>
        <time>2015-11-22T08:27:12Z</time>
      </trkpt>
      <trkpt lat="43.5739" lon="3.31765">
        <ele>398.5</ele>
        <time>2015-11-22T08:27:13Z</time>
      </trkpt>
      <trkpt lat="43.57391" lon="3.31766">
        <ele>398.5</ele>
        <time>2015-11-22T08:27:14Z</time>
      </trkpt>
      <trkpt lat="43.57391" lon="3.31766">
        <ele>398.5</ele>
        <time>2015-11-22T08:27:16Z</time>
      </trkpt>
      <trkpt lat="43.57391" lon="3.31766">
        <ele>398</ele>
        <time>2015-11-22T08:27:19Z</time>
      </trkpt>
      <trkpt lat="43.57392" lon="3.31765">
        <ele>397</ele>
        <time>2015-11-22T08:27:23Z</time>
      </trkpt>
      <trkpt lat="43.57393" lon="3.31764">
        <ele>397.5</ele>
        <time>2015-11-22T08:27:26Z</time>
      </trkpt>
      <trkpt lat="43.57393" lon="3.31765">
        <ele>397.5</ele>
        <time>2015-11-22T08:27:27Z</time>
      </trkpt>
      <trkpt lat="43.57394" lon="3.31764">
        <ele>395.5</ele>
        <time>2015-11-22T08:27:29Z</time>
      </trkpt>
      <trkpt lat="43.57394" lon="3.31765">
        <ele>397</ele>
        <time>2015-11-22T08:27:30Z</time>
      </trkpt>
      <trkpt lat="43.57395" lon="3.31766">
        <ele>397.5</ele>
        <time>2015-11-22T08:27:31Z</time>
      </trkpt>
      <trkpt lat="43.57395" lon="3.31766">
        <ele>400</ele>
        <time>2015-11-22T08:27:40Z</time>
      </trkpt>
      <trkpt lat="43.57395" lon="3.31765">
        <ele>400</ele>
        <time>2015-11-22T08:27:42Z</time>
      </trkpt>
      <trkpt lat="43.57395" lon="3.31766">
        <ele>400</ele>
        <time>2015-11-22T08:27:43Z</time>
      </trkpt>
      <trkpt lat="43.57395" lon="3.31766">
        <ele>400</ele>
        <time>2015-11-22T08:27:44Z</time>
      </trkpt>
      <trkpt lat="43.57394" lon="3.31766">
        <ele>400</ele>
        <time>2015-11-22T08:27:45Z</time>
      </trkpt>
      <trkpt lat="43.57394" lon="3.31766">
        <ele>400</ele>
        <time>2015-11-22T08:27:46Z</time>
      </trkpt>
      <trkpt lat="43.57394" lon="3.31765">
        <ele>400</ele>
        <time>2015-11-22T08:27:47Z</time>
      </trkpt>
      <trkpt lat="43.57394" lon="3.31766">
        <ele>400.5</ele>
        <time>2015-11-22T08:27:48Z</time>
      </trkpt>
      <trkpt lat="43.57395" lon="3.31768">
        <ele>398.5</ele>
        <time>2015-11-22T08:27:49Z</time>
      </trkpt>
      <trkpt lat="43.57395" lon="3.31768">
        <ele>398</ele>
        <time>2015-11-22T08:27:50Z</time>
      </trkpt>
      <trkpt lat="43.57395" lon="3.31767">
        <ele>398.5</ele>
        <time>2015-11-22T08:27:54Z</time>
      </trkpt>
      <trkpt lat="43.57396" lon="3.31766">
        <ele>399</ele>
        <time>2015-11-22T08:27:55Z</time>
      </trkpt>
      <trkpt lat="43.57397" lon="3.31767">
        <ele>398.5</ele>
        <time>2015-11-22T08:27:56Z</time>
      </trkpt>
      <trkpt lat="43.57397" lon="3.31766">
        <ele>398.5</ele>
        <time>2015-11-22T08:27:57Z</time>
      </trkpt>
      <trkpt lat="43.57397" lon="3.31766">
        <ele>398</ele>
        <time>2015-11-22T08:27:58Z</time>
      </trkpt>
      <trkpt lat="43.57396" lon="3.31768">
        <ele>400</ele>
        <time>2015-11-22T08:28:12Z</time>
      </trkpt>
      <trkpt lat="43.57395" lon="3.31768">
        <ele>400</ele>
        <time>2015-11-22T08:28:13Z</time>
      </trkpt>
      <trkpt lat="43.57395" lon="3.31769">
        <ele>400.5</ele>
        <time>2015-11-22T08:28:18Z</time>
      </trkpt>
      <trkpt lat="43.57396" lon="3.3177">
        <ele>399.5</ele>
        <time>2015-11-22T08:28:21Z</time>
      </trkpt>
      <trkpt lat="43.57395" lon="3.3177">
        <ele>399.5</ele>
        <time>2015-11-22T08:28:25Z</time>
      </trkpt>
      <trkpt lat="43.57395" lon="3.3177">
        <ele>399.5</ele>
        <time>2015-11-22T08:28:26Z</time>
      </trkpt>
      <trkpt lat="43.57394" lon="3.31769">
        <ele>399.5</ele>
        <time>2015-11-22T08:28:27Z</time>
      </trkpt>
      <trkpt lat="43.57394" lon="3.31768">
        <ele>399.5</ele>
        <time>2015-11-22T08:28:28Z</time>
      </trkpt>
      <trkpt lat="43.57394" lon="3.31768">
        <ele>399</ele>
        <time>2015-11-22T08:28:29Z</time>
      </trkpt>
      <trkpt lat="43.57393" lon="3.31766">
        <ele>400</ele>
        <time>2015-11-22T08:28:30Z</time>
      </trkpt>
      <trkpt lat="43.57393" lon="3.31765">
        <ele>401</ele>
        <time>2015-11-22T08:28:31Z</time>
      </trkpt>
      <trkpt lat="43.57393" lon="3.31764">
        <ele>401</ele>
        <time>2015-11-22T08:28:32Z</time>
      </trkpt>
      <trkpt lat="43.57391" lon="3.31765">
        <ele>401</ele>
        <time>2015-11-22T08:28:33Z</time>
      </trkpt>
      <trkpt lat="43.57392" lon="3.31762">
        <ele>401.5</ele>
        <time>2015-11-22T08:28:34Z</time>
      </trkpt>
      <trkpt lat="43.57392" lon="3.31761">
        <ele>401.5</ele>
        <time>2015-11-22T08:28:36Z</time>
      </trkpt>
      <trkpt lat="43.57392" lon="3.3176">
        <ele>401</ele>
        <time>2015-11-22T08:28:37Z</time>
      </trkpt>
      <trkpt lat="43.57393" lon="3.31761">
        <ele>401.5</ele>
        <time>2015-11-22T08:28:38Z</time>
      </trkpt>
      <trkpt lat="43.57393" lon="3.31761">
        <ele>401</ele>
        <time>2015-11-22T08:28:39Z</time>
      </trkpt>
      <trkpt lat="43.57394" lon="3.31763">
        <ele>401</ele>
        <time>2015-11-22T08:28:41Z</time>
      </trkpt>
      <trkpt lat="43.57394" lon="3.31763">
        <ele>400.5</ele>
        <time>2015-11-22T08:28:42Z</time>
      </trkpt>
      <trkpt lat="43.57394" lon="3.31763">
        <ele>400</ele>
        <time>2015-11-22T08:28:43Z</time>
      </trkpt>
      <trkpt lat="43.57394" lon="3.31761">
        <ele>400</ele>
        <time>2015-11-22T08:28:44Z</time>
      </trkpt>
      <trkpt lat="43.57393" lon="3.31763">
        <ele>399</ele>
        <time>2015-11-22T08:28:50Z</time>
      </trkpt>
      <trkpt lat="43.57392" lon="3.31763">
        <ele>399</ele>
        <time>2015-11-22T08:28:51Z</time>
      </trkpt>
      <trkpt lat="43.57391" lon="3.31764">
        <ele>400.5</ele>
        <time>2015-11-22T08:28:53Z</time>
      </trkpt>
      <trkpt lat="43.57392" lon="3.31764">
        <ele>401.5</ele>
        <time>2015-11-22T08:28:58Z</time>
      </trkpt>
      <trkpt lat="43.57392" lon="3.31765">
        <ele>401.5</ele>
        <time>2015-11-22T08:29:00Z</time>
      </trkpt>
      <trkpt lat="43.57393" lon="3.31763">
        <ele>401</ele>
        <time>2015-11-22T08:29:03Z</time>
      </trkpt>
      <trkpt lat="43.57392" lon="3.31761">
        <ele>401</ele>
        <time>2015-11-22T08:29:06Z</time>
      </trkpt>
      <trkpt lat="43.57392" lon="3.3176">
        <ele>401</ele>
        <time>2015-11-22T08:29:07Z</time>
      </trkpt>
      <trkpt lat="43.57392" lon="3.3176">
        <ele>401</ele>
        <time>2015-11-22T08:29:08Z</time>
      </trkpt>
      <trkpt lat="43.57392" lon="3.31759">
        <ele>400.5</ele>
        <time>2015-11-22T08:29:10Z</time>
      </trkpt>
      <trkpt lat="43.57392" lon="3.31758">
        <ele>401.5</ele>
        <time>2015-11-22T08:29:13Z</time>
      </trkpt>
      <trkpt lat="43.57393" lon="3.3176">
        <ele>401.5</ele>
        <time>2015-11-22T08:29:15Z</time>
      </trkpt>
      <trkpt lat="43.57393" lon="3.31759">
        <ele>401.5</ele>
        <time>2015-11-22T08:29:17Z</time>
      </trkpt>
      <trkpt lat="43.57392" lon="3.31763">
        <ele>401</ele>
        <time>2015-11-22T08:29:20Z</time>
      </trkpt>
      <trkpt lat="43.57392" lon="3.31764">
        <ele>401</ele>
        <time>2015-11-22T08:29:21Z</time>
      </trkpt>
      <trkpt lat="43.57393" lon="3.31766">
        <ele>400.5</ele>
        <time>2015-11-22T08:29:23Z</time>
      </trkpt>
      <trkpt lat="43.57395" lon="3.31766">
        <ele>399.5</ele>
        <time>2015-11-22T08:29:25Z</time>
      </trkpt>
      <trkpt lat="43.57395" lon="3.31769">
        <ele>398</ele>
        <time>2015-11-22T08:29:27Z</time>
      </trkpt>
      <trkpt lat="43.57395" lon="3.31775">
        <ele>396</ele>
        <time>2015-11-22T08:29:35Z</time>
      </trkpt>
      <trkpt lat="43.57395" lon="3.31775">
        <ele>396.5</ele>
        <time>2015-11-22T08:29:36Z</time>
      </trkpt>
      <trkpt lat="43.57395" lon="3.31776">
        <ele>396.5</ele>
        <time>2015-11-22T08:29:37Z</time>
      </trkpt>
      <trkpt lat="43.57395" lon="3.31775">
        <ele>397</ele>
        <time>2015-11-22T08:29:39Z</time>
      </trkpt>
      <trkpt lat="43.57395" lon="3.31775">
        <ele>397</ele>
        <time>2015-11-22T08:29:40Z</time>
      </trkpt>
      <trkpt lat="43.57394" lon="3.31774">
        <ele>397</ele>
        <time>2015-11-22T08:29:43Z</time>
      </trkpt>
      <trkpt lat="43.57394" lon="3.31772">
        <ele>397</ele>
        <time>2015-11-22T08:29:44Z</time>
      </trkpt>
      <trkpt lat="43.57394" lon="3.31771">
        <ele>396.5</ele>
        <time>2015-11-22T08:29:45Z</time>
      </trkpt>
      <trkpt lat="43.57394" lon="3.3177">
        <ele>397</ele>
        <time>2015-11-22T08:29:56Z</time>
      </trkpt>
      <trkpt lat="43.57395" lon="3.31769">
        <ele>399</ele>
        <time>2015-11-22T08:30:11Z</time>
      </trkpt>
      <trkpt lat="43.57394" lon="3.3177">
        <ele>398</ele>
        <time>2015-11-22T08:30:32Z</time>
      </trkpt>
      <trkpt lat="43.57395" lon="3.31769">
        <ele>398</ele>
        <time>2015-11-22T08:30:33Z</time>
      </trkpt>
      <trkpt lat="43.57395" lon="3.31769">
        <ele>398</ele>
        <time>2015-11-22T08:30:34Z</time>
      </trkpt>
      <trkpt lat="43.57395" lon="3.31769">
        <ele>397.5</ele>
        <time>2015-11-22T08:30:36Z</time>
      </trkpt>
      <trkpt lat="43.57394" lon="3.3177">
        <ele>397.5</ele>
        <time>2015-11-22T08:30:37Z</time>
      </trkpt>
      <trkpt lat="43.57395" lon="3.31769">
        <ele>396</ele>
        <time>2015-11-22T08:30:42Z</time>
      </trkpt>
      <trkpt lat="43.57395" lon="3.31768">
        <ele>396</ele>
        <time>2015-11-22T08:30:44Z</time>
      </trkpt>
      <trkpt lat="43.57396" lon="3.31765">
        <ele>394.5</ele>
        <time>2015-11-22T08:31:07Z</time>
      </trkpt>
      <trkpt lat="43.57397" lon="3.31765">
        <ele>394</ele>
        <time>2015-11-22T08:31:08Z</time>
      </trkpt>
      <trkpt lat="43.57397" lon="3.31764">
        <ele>394</ele>
        <time>2015-11-22T08:31:09Z</time>
      </trkpt>
      <trkpt lat="43.57397" lon="3.31763">
        <ele>394</ele>
        <time>2015-11-22T08:31:10Z</time>
      </trkpt>
      <trkpt lat="43.57397" lon="3.31764">
        <ele>394</ele>
        <time>2015-11-22T08:31:18Z</time>
      </trkpt>
      <trkpt lat="43.57397" lon="3.31764">
        <ele>394</ele>
        <time>2015-11-22T08:31:19Z</time>
      </trkpt>
      <trkpt lat="43.57396" lon="3.31765">
        <ele>395.5</ele>
        <time>2015-11-22T08:31:25Z</time>
      </trkpt>
      <trkpt lat="43.57396" lon="3.31765">
        <ele>396</ele>
        <time>2015-11-22T08:31:26Z</time>
      </trkpt>
      <trkpt lat="43.57396" lon="3.31763">
        <ele>396</ele>
        <time>2015-11-22T08:31:27Z</time>
      </trkpt>
      <trkpt lat="43.57397" lon="3.31762">
        <ele>396</ele>
        <time>2015-11-22T08:31:28Z</time>
      </trkpt>
      <trkpt lat="43.57396" lon="3.31762">
        <ele>396.5</ele>
        <time>2015-11-22T08:31:29Z</time>
      </trkpt>
      <trkpt lat="43.57397" lon="3.31761">
        <ele>396.5</ele>
        <time>2015-11-22T08:31:31Z</time>
      </trkpt>
      <trkpt lat="43.57398" lon="3.31761">
        <ele>397.5</ele>
        <time>2015-11-22T08:31:34Z</time>
      </trkpt>
      <trkpt lat="43.57397" lon="3.31761">
        <ele>397.5</ele>
        <time>2015-11-22T08:31:35Z</time>
      </trkpt>
      <trkpt lat="43.57397" lon="3.31761">
        <ele>397.5</ele>
        <time>2015-11-22T08:31:41Z</time>
      </trkpt>
      <trkpt lat="43.57396" lon="3.31761">
        <ele>398</ele>
        <time>2015-11-22T08:31:44Z</time>
      </trkpt>
      <trkpt lat="43.57395" lon="3.31763">
        <ele>399.5</ele>
        <time>2015-11-22T08:31:49Z</time>
      </trkpt>
      <trkpt lat="43.57397" lon="3.31761">
        <ele>399.5</ele>
        <time>2015-11-22T08:31:51Z</time>
      </trkpt>
      <trkpt lat="43.57397" lon="3.3176">
        <ele>400</ele>
        <time>2015-11-22T08:31:53Z</time>
      </trkpt>
      <trkpt lat="43.57398" lon="3.31759">
        <ele>400</ele>
        <time>2015-11-22T08:31:55Z</time>
      </trkpt>
      <trkpt lat="43.57398" lon="3.31758">
        <ele>399.5</ele>
        <time>2015-11-22T08:31:56Z</time>
      </trkpt>
      <trkpt lat="43.57399" lon="3.31758">
        <ele>399.5</ele>
        <time>2015-11-22T08:31:57Z</time>
      </trkpt>
      <trkpt lat="43.57395" lon="3.31763">
        <ele>400</ele>
        <time>2015-11-22T08:32:03Z</time>
      </trkpt>
      <trkpt lat="43.57395" lon="3.31764">
        <ele>399.5</ele>
        <time>2015-11-22T08:32:04Z</time>
      </trkpt>
      <trkpt lat="43.57394" lon="3.31763">
        <ele>399.5</ele>
        <time>2015-11-22T08:32:06Z</time>
      </trkpt>
      <trkpt lat="43.57395" lon="3.31763">
        <ele>399</ele>
        <time>2015-11-22T08:32:08Z</time>
      </trkpt>
      <trkpt lat="43.57394" lon="3.31765">
        <ele>399.5</ele>
        <time>2015-11-22T08:32:18Z</time>
      </trkpt>
      <trkpt lat="43.57394" lon="3.31766">
        <ele>399.5</ele>
        <time>2015-11-22T08:32:22Z</time>
      </trkpt>
      <trkpt lat="43.57394" lon="3.31766">
        <ele>399</ele>
        <time>2015-11-22T08:32:24Z</time>
      </trkpt>
      <trkpt lat="43.57394" lon="3.31765">
        <ele>399</ele>
        <time>2015-11-22T08:32:25Z</time>
      </trkpt>
      <trkpt lat="43.57395" lon="3.31765">
        <ele>399</ele>
        <time>2015-11-22T08:32:26Z</time>
      </trkpt>
      <trkpt lat="43.57396" lon="3.31764">
        <ele>397.5</ele>
        <time>2015-11-22T08:32:28Z</time>
      </trkpt>
      <trkpt lat="43.57395" lon="3.31763">
        <ele>397</ele>
        <time>2015-11-22T08:32:31Z</time>
      </trkpt>
      <trkpt lat="43.57395" lon="3.31763">
        <ele>398</ele>
        <time>2015-11-22T08:32:32Z</time>
      </trkpt>
      <trkpt lat="43.57396" lon="3.31763">
        <ele>397.5</ele>
        <time>2015-11-22T08:32:33Z</time>
      </trkpt>
      <trkpt lat="43.57396" lon="3.31762">
        <ele>398</ele>
        <time>2015-11-22T08:32:35Z</time>
      </trkpt>
      <trkpt lat="43.57396" lon="3.31762">
        <ele>398.5</ele>
        <time>2015-11-22T08:32:36Z</time>
      </trkpt>
      <trkpt lat="43.57395" lon="3.31762">
        <ele>399</ele>
        <time>2015-11-22T08:32:37Z</time>
      </trkpt>
      <trkpt lat="43.57396" lon="3.31761">
        <ele>398</ele>
        <time>2015-11-22T08:32:39Z</time>
      </trkpt>
      <trkpt lat="43.57395" lon="3.31762">
        <ele>398.5</ele>
        <time>2015-11-22T08:32:41Z</time>
      </trkpt>
      <trkpt lat="43.57394" lon="3.31762">
        <ele>399.5</ele>
        <time>2015-11-22T08:32:43Z</time>
      </trkpt>
      <trkpt lat="43.57394" lon="3.31762">
        <ele>399.5</ele>
        <time>2015-11-22T08:32:44Z</time>
      </trkpt>
      <trkpt lat="43.57394" lon="3.31764">
        <ele>400.5</ele>
        <time>2015-11-22T08:32:45Z</time>
      </trkpt>
      <trkpt lat="43.57393" lon="3.31764">
        <ele>400</ele>
        <time>2015-11-22T08:32:46Z</time>
      </trkpt>
      <trkpt lat="43.57395" lon="3.31766">
        <ele>401.5</ele>
        <time>2015-11-22T08:32:47Z</time>
      </trkpt>
      <trkpt lat="43.57396" lon="3.31767">
        <ele>402.5</ele>
        <time>2015-11-22T08:32:48Z</time>
      </trkpt>
      <trkpt lat="43.57397" lon="3.31769">
        <ele>402.5</ele>
        <time>2015-11-22T08:32:49Z</time>
      </trkpt>
      <trkpt lat="43.57397" lon="3.3177">
        <ele>402</ele>
        <time>2015-11-22T08:32:50Z</time>
      </trkpt>
      <trkpt lat="43.57397" lon="3.3177">
        <ele>402</ele>
        <time>2015-11-22T08:32:52Z</time>
      </trkpt>
      <trkpt lat="43.57396" lon="3.31771">
        <ele>402.5</ele>
        <time>2015-11-22T08:32:53Z</time>
      </trkpt>
      <trkpt lat="43.57395" lon="3.31771">
        <ele>403</ele>
        <time>2015-11-22T08:32:54Z</time>
      </trkpt>
      <trkpt lat="43.57394" lon="3.3177">
        <ele>402.5</ele>
        <time>2015-11-22T08:32:55Z</time>
      </trkpt>
      <trkpt lat="43.57394" lon="3.3177">
        <ele>402.5</ele>
        <time>2015-11-22T08:32:56Z</time>
      </trkpt>
      <trkpt lat="43.57393" lon="3.31771">
        <ele>404</ele>
        <time>2015-11-22T08:32:57Z</time>
      </trkpt>
      <trkpt lat="43.57392" lon="3.31772">
        <ele>404.5</ele>
        <time>2015-11-22T08:33:05Z</time>
      </trkpt>
      <trkpt lat="43.57392" lon="3.31771">
        <ele>404</ele>
        <time>2015-11-22T08:33:06Z</time>
      </trkpt>
      <trkpt lat="43.57392" lon="3.3177">
        <ele>404.5</ele>
        <time>2015-11-22T08:33:07Z</time>
      </trkpt>
      <trkpt lat="43.57391" lon="3.31771">
        <ele>405.5</ele>
        <time>2015-11-22T08:33:11Z</time>
      </trkpt>
      <trkpt lat="43.5739" lon="3.3177">
        <ele>405.5</ele>
        <time>2015-11-22T08:33:12Z</time>
      </trkpt>
      <trkpt lat="43.5739" lon="3.31769">
        <ele>405</ele>
        <time>2015-11-22T08:33:16Z</time>
      </trkpt>
      <trkpt lat="43.5739" lon="3.3177">
        <ele>405</ele>
        <time>2015-11-22T08:33:17Z</time>
      </trkpt>
      <trkpt lat="43.57389" lon="3.31769">
        <ele>404</ele>
        <time>2015-11-22T08:33:19Z</time>
      </trkpt>
      <trkpt lat="43.57389" lon="3.31769">
        <ele>404.5</ele>
        <time>2015-11-22T08:33:20Z</time>
      </trkpt>
      <trkpt lat="43.57389" lon="3.31768">
        <ele>404</ele>
        <time>2015-11-22T08:33:21Z</time>
      </trkpt>
      <trkpt lat="43.57388" lon="3.31766">
        <ele>403.5</ele>
        <time>2015-11-22T08:33:22Z</time>
      </trkpt>
      <trkpt lat="43.57388" lon="3.31766">
        <ele>402</ele>
        <time>2015-11-22T08:33:23Z</time>
      </trkpt>
      <trkpt lat="43.57387" lon="3.31765">
        <ele>402</ele>
        <time>2015-11-22T08:33:24Z</time>
      </trkpt>
      <trkpt lat="43.57387" lon="3.31764">
        <ele>401.5</ele>
        <time>2015-11-22T08:33:25Z</time>
      </trkpt>
      <trkpt lat="43.57387" lon="3.31764">
        <ele>400.5</ele>
        <time>2015-11-22T08:33:26Z</time>
      </trkpt>
      <trkpt lat="43.57387" lon="3.31763">
        <ele>400.5</ele>
        <time>2015-11-22T08:33:27Z</time>
      </trkpt>
      <trkpt lat="43.57387" lon="3.31763">
        <ele>399.5</ele>
        <time>2015-11-22T08:33:31Z</time>
      </trkpt>
      <trkpt lat="43.57386" lon="3.31763">
        <ele>399.5</ele>
        <time>2015-11-22T08:33:34Z</time>
      </trkpt>
      <trkpt lat="43.57385" lon="3.31762">
        <ele>399</ele>
        <time>2015-11-22T08:33:51Z</time>
      </trkpt>
      <trkpt lat="43.57385" lon="3.3176">
        <ele>399.5</ele>
        <time>2015-11-22T08:33:52Z</time>
      </trkpt>
      <trkpt lat="43.57384" lon="3.31757">
        <ele>400</ele>
        <time>2015-11-22T08:33:53Z</time>
      </trkpt>
      <trkpt lat="43.57384" lon="3.31754">
        <ele>400</ele>
        <time>2015-11-22T08:33:54Z</time>
      </trkpt>
      <trkpt lat="43.57383" lon="3.3175">
        <ele>400</ele>
        <time>2015-11-22T08:33:55Z</time>
      </trkpt>
      <trkpt lat="43.57381" lon="3.31746">
        <ele>400.5</ele>
        <time>2015-11-22T08:33:56Z</time>
      </trkpt>
      <trkpt lat="43.5738" lon="3.31742">
        <ele>401</ele>
        <time>2015-11-22T08:33:57Z</time>
      </trkpt>
      <trkpt lat="43.5738" lon="3.31738">
        <ele>401.5</ele>
        <time>2015-11-22T08:33:58Z</time>
      </trkpt>
      <trkpt lat="43.5738" lon="3.31734">
        <ele>402</ele>
        <time>2015-11-22T08:33:59Z</time>
      </trkpt>
      <trkpt lat="43.57379" lon="3.3173">
        <ele>403</ele>
        <time>2015-11-22T08:34:00Z</time>
      </trkpt>
      <trkpt lat="43.57379" lon="3.31726">
        <ele>403</ele>
        <time>2015-11-22T08:34:01Z</time>
      </trkpt>
      <trkpt lat="43.57379" lon="3.31722">
        <ele>403.5</ele>
        <time>2015-11-22T08:34:02Z</time>
      </trkpt>
      <trkpt lat="43.57379" lon="3.31719">
        <ele>403.5</ele>
        <time>2015-11-22T08:34:03Z</time>
      </trkpt>
      <trkpt lat="43.57379" lon="3.31715">
        <ele>404</ele>
        <time>2015-11-22T08:34:04Z</time>
      </trkpt>
      <trkpt lat="43.5738" lon="3.31712">
        <ele>403</ele>
        <time>2015-11-22T08:34:05Z</time>
      </trkpt>
      <trkpt lat="43.5738" lon="3.31708">
        <ele>404</ele>
        <time>2015-11-22T08:34:06Z</time>
      </trkpt>
      <trkpt lat="43.5738" lon="3.31704">
        <ele>404</ele>
        <time>2015-11-22T08:34:07Z</time>
      </trkpt>
      <trkpt lat="43.5738" lon="3.317">
        <ele>404</ele>
        <time>2015-11-22T08:34:08Z</time>
      </trkpt>
      <trkpt lat="43.5738" lon="3.31696">
        <ele>404</ele>
        <time>2015-11-22T08:34:09Z</time>
      </trkpt>
      <trkpt lat="43.5738" lon="3.31693">
        <ele>404</ele>
        <time>2015-11-22T08:34:10Z</time>
      </trkpt>
      <trkpt lat="43.5738" lon="3.31689">
        <ele>404.5</ele>
        <time>2015-11-22T08:34:11Z</time>
      </trkpt>
      <trkpt lat="43.5738" lon="3.31685">
        <ele>404.5</ele>
        <time>2015-11-22T08:34:12Z</time>
      </trkpt>
      <trkpt lat="43.5738" lon="3.3168">
        <ele>404.5</ele>
        <time>2015-11-22T08:34:13Z</time>
      </trkpt>
      <trkpt lat="43.5738" lon="3.31676">
        <ele>404.5</ele>
        <time>2015-11-22T08:34:14Z</time>
      </trkpt>
      <trkpt lat="43.57379" lon="3.3167">
        <ele>403.5</ele>
        <time>2015-11-22T08:34:15Z</time>
      </trkpt>
      <trkpt lat="43.57378" lon="3.31664">
        <ele>403</ele>
        <time>2015-11-22T08:34:16Z</time>
      </trkpt>
      <trkpt lat="43.57376" lon="3.31658">
        <ele>402.5</ele>
        <time>2015-11-22T08:34:17Z</time>
      </trkpt>
      <trkpt lat="43.57374" lon="3.31653">
        <ele>402</ele>
        <time>2015-11-22T08:34:18Z</time>
      </trkpt>
      <trkpt lat="43.57372" lon="3.31647">
        <ele>401.5</ele>
        <time>2015-11-22T08:34:19Z</time>
      </trkpt>
      <trkpt lat="43.57369" lon="3.31641">
        <ele>401</ele>
        <time>2015-11-22T08:34:20Z</time>
      </trkpt>
      <trkpt lat="43.57367" lon="3.31635">
        <ele>401</ele>
        <time>2015-11-22T08:34:21Z</time>
      </trkpt>
      <trkpt lat="43.57365" lon="3.31628">
        <ele>400</ele>
        <time>2015-11-22T08:34:22Z</time>
      </trkpt>
      <trkpt lat="43.57363" lon="3.31622">
        <ele>400.5</ele>
        <time>2015-11-22T08:34:23Z</time>
      </trkpt>
      <trkpt lat="43.57361" lon="3.31615">
        <ele>400.5</ele>
        <time>2015-11-22T08:34:24Z</time>
      </trkpt>
      <trkpt lat="43.57361" lon="3.31609">
        <ele>400.5</ele>
        <time>2015-11-22T08:34:25Z</time>
      </trkpt>
      <trkpt lat="43.57361" lon="3.31604">
        <ele>402</ele>
        <time>2015-11-22T08:34:26Z</time>
      </trkpt>
      <trkpt lat="43.57363" lon="3.31597">
        <ele>401.5</ele>
        <time>2015-11-22T08:34:27Z</time>
      </trkpt>
      <trkpt lat="43.57365" lon="3.3159">
        <ele>401</ele>
        <time>2015-11-22T08:34:28Z</time>
      </trkpt>
      <trkpt lat="43.57368" lon="3.31584">
        <ele>399.5</ele>
        <time>2015-11-22T08:34:29Z</time>
      </trkpt>
      <trkpt lat="43.57371" lon="3.31577">
        <ele>399</ele>
        <time>2015-11-22T08:34:30Z</time>
      </trkpt>
      <trkpt lat="43.57374" lon="3.3157">
        <ele>399</ele>
        <time>2015-11-22T08:34:31Z</time>
      </trkpt>
      <trkpt lat="43.57376" lon="3.31562">
        <ele>399</ele>
        <time>2015-11-22T08:34:32Z</time>
      </trkpt>
      <trkpt lat="43.57379" lon="3.31555">
        <ele>399</ele>
        <time>2015-11-22T08:34:33Z</time>
      </trkpt>
      <trkpt lat="43.57382" lon="3.31547">
        <ele>399.5</ele>
        <time>2015-11-22T08:34:34Z</time>
      </trkpt>
      <trkpt lat="43.57385" lon="3.31539">
        <ele>399.5</ele>
        <time>2015-11-22T08:34:35Z</time>
      </trkpt>
      <trkpt lat="43.57388" lon="3.31531">
        <ele>399</ele>
        <time>2015-11-22T08:34:36Z</time>
      </trkpt>
      <trkpt lat="43.57391" lon="3.31523">
        <ele>398</ele>
        <time>2015-11-22T08:34:37Z</time>
      </trkpt>
      <trkpt lat="43.5739" lon="3.31515">
        <ele>398</ele>
        <time>2015-11-22T08:34:38Z</time>
      </trkpt>
      <trkpt lat="43.57387" lon="3.31508">
        <ele>399.5</ele>
        <time>2015-11-22T08:34:39Z</time>
      </trkpt>
      <trkpt lat="43.57386" lon="3.31498">
        <ele>399</ele>
        <time>2015-11-22T08:34:40Z</time>
      </trkpt>
      <trkpt lat="43.57385" lon="3.31489">
        <ele>398</ele>
        <time>2015-11-22T08:34:41Z</time>
      </trkpt>
      <trkpt lat="43.57383" lon="3.31481">
        <ele>399.5</ele>
        <time>2015-11-22T08:34:42Z</time>
      </trkpt>
      <trkpt lat="43.57382" lon="3.31474">
        <ele>399</ele>
        <time>2015-11-22T08:34:43Z</time>
      </trkpt>
      <trkpt lat="43.5738" lon="3.31467">
        <ele>398</ele>
        <time>2015-11-22T08:34:44Z</time>
      </trkpt>
      <trkpt lat="43.57378" lon="3.31459">
        <ele>398</ele>
        <time>2015-11-22T08:34:45Z</time>
      </trkpt>
      <trkpt lat="43.57375" lon="3.31452">
        <ele>398</ele>
        <time>2015-11-22T08:34:46Z</time>
      </trkpt>
      <trkpt lat="43.57373" lon="3.31446">
        <ele>398</ele>
        <time>2015-11-22T08:34:47Z</time>
      </trkpt>
      <trkpt lat="43.5737" lon="3.3144">
        <ele>398</ele>
        <time>2015-11-22T08:34:48Z</time>
      </trkpt>
      <trkpt lat="43.57365" lon="3.31436">
        <ele>398.5</ele>
        <time>2015-11-22T08:34:49Z</time>
      </trkpt>
      <trkpt lat="43.57363" lon="3.31428">
        <ele>398.5</ele>
        <time>2015-11-22T08:34:50Z</time>
      </trkpt>
      <trkpt lat="43.57361" lon="3.31421">
        <ele>397</ele>
        <time>2015-11-22T08:34:51Z</time>
      </trkpt>
      <trkpt lat="43.5736" lon="3.31415">
        <ele>397</ele>
        <time>2015-11-22T08:34:52Z</time>
      </trkpt>
      <trkpt lat="43.57356" lon="3.31412">
        <ele>397</ele>
        <time>2015-11-22T08:34:53Z</time>
      </trkpt>
      <trkpt lat="43.57353" lon="3.3141">
        <ele>394.5</ele>
        <time>2015-11-22T08:34:54Z</time>
      </trkpt>
      <trkpt lat="43.57348" lon="3.3141">
        <ele>394.5</ele>
        <time>2015-11-22T08:34:55Z</time>
      </trkpt>
      <trkpt lat="43.57344" lon="3.31408">
        <ele>394.5</ele>
        <time>2015-11-22T08:34:56Z</time>
      </trkpt>
      <trkpt lat="43.57339" lon="3.31407">
        <ele>394.5</ele>
        <time>2015-11-22T08:34:57Z</time>
      </trkpt>
      <trkpt lat="43.57334" lon="3.31406">
        <ele>394.5</ele>
        <time>2015-11-22T08:34:58Z</time>
      </trkpt>
      <trkpt lat="43.5733" lon="3.31406">
        <ele>394.5</ele>
        <time>2015-11-22T08:34:59Z</time>
      </trkpt>
      <trkpt lat="43.5732" lon="3.31407">
        <ele>391.5</ele>
        <time>2015-11-22T08:35:01Z</time>
      </trkpt>
      <trkpt lat="43.57314" lon="3.31408">
        <ele>390</ele>
        <time>2015-11-22T08:35:03Z</time>
      </trkpt>
      <trkpt lat="43.57312" lon="3.31407">
        <ele>388.5</ele>
        <time>2015-11-22T08:35:04Z</time>
      </trkpt>
      <trkpt lat="43.57309" lon="3.31406">
        <ele>388</ele>
        <time>2015-11-22T08:35:05Z</time>
      </trkpt>
      <trkpt lat="43.57306" lon="3.31406">
        <ele>387.5</ele>
        <time>2015-11-22T08:35:06Z</time>
      </trkpt>
      <trkpt lat="43.57302" lon="3.31405">
        <ele>386.5</ele>
        <time>2015-11-22T08:35:07Z</time>
      </trkpt>
      <trkpt lat="43.57299" lon="3.31406">
        <ele>386</ele>
        <time>2015-11-22T08:35:08Z</time>
      </trkpt>
      <trkpt lat="43.57294" lon="3.31405">
        <ele>385.5</ele>
        <time>2015-11-22T08:35:09Z</time>
      </trkpt>
      <trkpt lat="43.5729" lon="3.31407">
        <ele>387</ele>
        <time>2015-11-22T08:35:10Z</time>
      </trkpt>
      <trkpt lat="43.57287" lon="3.31409">
        <ele>388</ele>
        <time>2015-11-22T08:35:11Z</time>
      </trkpt>
      <trkpt lat="43.57282" lon="3.31411">
        <ele>388</ele>
        <time>2015-11-22T08:35:12Z</time>
      </trkpt>
      <trkpt lat="43.57278" lon="3.31412">
        <ele>389</ele>
        <time>2015-11-22T08:35:12Z</time>
      </trkpt>
      <trkpt lat="43.57273" lon="3.31412">
        <ele>388.5</ele>
        <time>2015-11-22T08:35:13Z</time>
      </trkpt>
      <trkpt lat="43.57268" lon="3.3141">
        <ele>388</ele>
        <time>2015-11-22T08:35:14Z</time>
      </trkpt>
      <trkpt lat="43.57263" lon="3.31409">
        <ele>387.5</ele>
        <time>2015-11-22T08:35:15Z</time>
      </trkpt>
      <trkpt lat="43.57257" lon="3.31408">
        <ele>387.5</ele>
        <time>2015-11-22T08:35:16Z</time>
      </trkpt>
      <trkpt lat="43.57252" lon="3.31408">
        <ele>387</ele>
        <time>2015-11-22T08:35:17Z</time>
      </trkpt>
      <trkpt lat="43.57247" lon="3.31407">
        <ele>386.5</ele>
        <time>2015-11-22T08:35:18Z</time>
      </trkpt>
      <trkpt lat="43.57241" lon="3.31406">
        <ele>387</ele>
        <time>2015-11-22T08:35:19Z</time>
      </trkpt>
      <trkpt lat="43.57235" lon="3.31405">
        <ele>386.5</ele>
        <time>2015-11-22T08:35:20Z</time>
      </trkpt>
      <trkpt lat="43.57229" lon="3.31405">
        <ele>386</ele>
        <time>2015-11-22T08:35:21Z</time>
      </trkpt>
      <trkpt lat="43.57224" lon="3.31406">
        <ele>386.5</ele>
        <time>2015-11-22T08:35:22Z</time>
      </trkpt>
      <trkpt lat="43.57219" lon="3.31407">
        <ele>386.5</ele>
        <time>2015-11-22T08:35:23Z</time>
      </trkpt>
      <trkpt lat="43.57214" lon="3.31407">
        <ele>386</ele>
        <time>2015-11-22T08:35:24Z</time>
      </trkpt>
      <trkpt lat="43.57211" lon="3.31402">
        <ele>384.5</ele>
        <time>2015-11-22T08:35:25Z</time>
      </trkpt>
      <trkpt lat="43.57207" lon="3.314">
        <ele>385</ele>
        <time>2015-11-22T08:35:26Z</time>
      </trkpt>
      <trkpt lat="43.57202" lon="3.31398">
        <ele>385.5</ele>
        <time>2015-11-22T08:35:27Z</time>
      </trkpt>
      <trkpt lat="43.57197" lon="3.31396">
        <ele>384.5</ele>
        <time>2015-11-22T08:35:28Z</time>
      </trkpt>
      <trkpt lat="43.57192" lon="3.31394">
        <ele>383.5</ele>
        <time>2015-11-22T08:35:29Z</time>
      </trkpt>
      <trkpt lat="43.57185" lon="3.3139">
        <ele>384</ele>
        <time>2015-11-22T08:35:30Z</time>
      </trkpt>
      <trkpt lat="43.57178" lon="3.31392">
        <ele>383.5</ele>
        <time>2015-11-22T08:35:31Z</time>
      </trkpt>
      <trkpt lat="43.5717" lon="3.31384">
        <ele>383.5</ele>
        <time>2015-11-22T08:35:33Z</time>
      </trkpt>
      <trkpt lat="43.57166" lon="3.31381">
        <ele>381.5</ele>
        <time>2015-11-22T08:35:34Z</time>
      </trkpt>
      <trkpt lat="43.57163" lon="3.31378">
        <ele>383</ele>
        <time>2015-11-22T08:35:35Z</time>
      </trkpt>
      <trkpt lat="43.57158" lon="3.31376">
        <ele>384</ele>
        <time>2015-11-22T08:35:36Z</time>
      </trkpt>
      <trkpt lat="43.57153" lon="3.31374">
        <ele>383.5</ele>
        <time>2015-11-22T08:35:37Z</time>
      </trkpt>
      <trkpt lat="43.57151" lon="3.31369">
        <ele>381</ele>
        <time>2015-11-22T08:35:38Z</time>
      </trkpt>
      <trkpt lat="43.57148" lon="3.31364">
        <ele>378</ele>
        <time>2015-11-22T08:35:39Z</time>
      </trkpt>
      <trkpt lat="43.57146" lon="3.31361">
        <ele>378</ele>
        <time>2015-11-22T08:35:40Z</time>
      </trkpt>
      <trkpt lat="43.57144" lon="3.31357">
        <ele>377</ele>
        <time>2015-11-22T08:35:41Z</time>
      </trkpt>
      <trkpt lat="43.57142" lon="3.31354">
        <ele>376.5</ele>
        <time>2015-11-22T08:35:42Z</time>
      </trkpt>
      <trkpt lat="43.57139" lon="3.31352">
        <ele>377</ele>
        <time>2015-11-22T08:35:43Z</time>
      </trkpt>
      <trkpt lat="43.57137" lon="3.31349">
        <ele>375.5</ele>
        <time>2015-11-22T08:35:44Z</time>
      </trkpt>
      <trkpt lat="43.57131" lon="3.31343">
        <ele>374.5</ele>
        <time>2015-11-22T08:35:46Z</time>
      </trkpt>
      <trkpt lat="43.57122" lon="3.31335">
        <ele>374.5</ele>
        <time>2015-11-22T08:35:48Z</time>
      </trkpt>
      <trkpt lat="43.57118" lon="3.31331">
        <ele>373.5</ele>
        <time>2015-11-22T08:35:49Z</time>
      </trkpt>
      <trkpt lat="43.57114" lon="3.31324">
        <ele>373</ele>
        <time>2015-11-22T08:35:51Z</time>
      </trkpt>
      <trkpt lat="43.57112" lon="3.31321">
        <ele>373</ele>
        <time>2015-11-22T08:35:52Z</time>
      </trkpt>
      <trkpt lat="43.57108" lon="3.31317">
        <ele>373</ele>
        <time>2015-11-22T08:35:53Z</time>
      </trkpt>
      <trkpt lat="43.57105" lon="3.31313">
        <ele>372</ele>
        <time>2015-11-22T08:35:54Z</time>
      </trkpt>
      <trkpt lat="43.57104" lon="3.31308">
        <ele>372.5</ele>
        <time>2015-11-22T08:35:55Z</time>
      </trkpt>
      <trkpt lat="43.57101" lon="3.31301">
        <ele>371.5</ele>
        <time>2015-11-22T08:35:56Z</time>
      </trkpt>
      <trkpt lat="43.57098" lon="3.31296">
        <ele>371</ele>
        <time>2015-11-22T08:35:57Z</time>
      </trkpt>
      <trkpt lat="43.57093" lon="3.313">
        <ele>371</ele>
        <time>2015-11-22T08:35:59Z</time>
      </trkpt>
      <trkpt lat="43.57083" lon="3.31304">
        <ele>371.5</ele>
        <time>2015-11-22T08:36:01Z</time>
      </trkpt>
      <trkpt lat="43.57078" lon="3.31305">
        <ele>370.5</ele>
        <time>2015-11-22T08:36:02Z</time>
      </trkpt>
      <trkpt lat="43.57066" lon="3.31309">
        <ele>370</ele>
        <time>2015-11-22T08:36:04Z</time>
      </trkpt>
      <trkpt lat="43.57059" lon="3.31311">
        <ele>370</ele>
        <time>2015-11-22T08:36:05Z</time>
      </trkpt>
      <trkpt lat="43.57042" lon="3.31309">
        <ele>369</ele>
        <time>2015-11-22T08:36:07Z</time>
      </trkpt>
      <trkpt lat="43.57036" lon="3.31308">
        <ele>368.5</ele>
        <time>2015-11-22T08:36:08Z</time>
      </trkpt>
      <trkpt lat="43.57031" lon="3.3131">
        <ele>368.5</ele>
        <time>2015-11-22T08:36:09Z</time>
      </trkpt>
      <trkpt lat="43.57026" lon="3.31312">
        <ele>368.5</ele>
        <time>2015-11-22T08:36:10Z</time>
      </trkpt>
      <trkpt lat="43.57021" lon="3.31315">
        <ele>368</ele>
        <time>2015-11-22T08:36:11Z</time>
      </trkpt>
      <trkpt lat="43.57015" lon="3.31316">
        <ele>368</ele>
        <time>2015-11-22T08:36:12Z</time>
      </trkpt>
      <trkpt lat="43.57012" lon="3.3132">
        <ele>368</ele>
        <time>2015-11-22T08:36:13Z</time>
      </trkpt>
      <trkpt lat="43.57007" lon="3.31324">
        <ele>368</ele>
        <time>2015-11-22T08:36:14Z</time>
      </trkpt>
      <trkpt lat="43.57003" lon="3.31327">
        <ele>368</ele>
        <time>2015-11-22T08:36:15Z</time>
      </trkpt>
      <trkpt lat="43.56978" lon="3.31334">
        <ele>367.5</ele>
        <time>2015-11-22T08:36:20Z</time>
      </trkpt>
      <trkpt lat="43.56973" lon="3.31337">
        <ele>367.5</ele>
        <time>2015-11-22T08:36:21Z</time>
      </trkpt>
      <trkpt lat="43.56967" lon="3.31341">
        <ele>367</ele>
        <time>2015-11-22T08:36:22Z</time>
      </trkpt>
      <trkpt lat="43.56962" lon="3.31345">
        <ele>368</ele>
        <time>2015-11-22T08:36:23Z</time>
      </trkpt>
      <trkpt lat="43.56956" lon="3.31348">
        <ele>368</ele>
        <time>2015-11-22T08:36:24Z</time>
      </trkpt>
      <trkpt lat="43.56951" lon="3.31351">
        <ele>368</ele>
        <time>2015-11-22T08:36:25Z</time>
      </trkpt>
      <trkpt lat="43.56948" lon="3.31356">
        <ele>367.5</ele>
        <time>2015-11-22T08:36:26Z</time>
      </trkpt>
      <trkpt lat="43.56944" lon="3.3136">
        <ele>367.5</ele>
        <time>2015-11-22T08:36:27Z</time>
      </trkpt>
      <trkpt lat="43.56932" lon="3.31364">
        <ele>367</ele>
        <time>2015-11-22T08:36:29Z</time>
      </trkpt>
      <trkpt lat="43.56928" lon="3.31367">
        <ele>366.5</ele>
        <time>2015-11-22T08:36:30Z</time>
      </trkpt>
      <trkpt lat="43.56924" lon="3.31368">
        <ele>366</ele>
        <time>2015-11-22T08:36:31Z</time>
      </trkpt>
      <trkpt lat="43.56921" lon="3.31369">
        <ele>366</ele>
        <time>2015-11-22T08:36:32Z</time>
      </trkpt>
      <trkpt lat="43.56917" lon="3.31371">
        <ele>366</ele>
        <time>2015-11-22T08:36:33Z</time>
      </trkpt>
      <trkpt lat="43.56912" lon="3.31372">
        <ele>366</ele>
        <time>2015-11-22T08:36:34Z</time>
      </trkpt>
      <trkpt lat="43.56906" lon="3.31369">
        <ele>366</ele>
        <time>2015-11-22T08:36:36Z</time>
      </trkpt>
      <trkpt lat="43.56901" lon="3.3137">
        <ele>366</ele>
        <time>2015-11-22T08:36:37Z</time>
      </trkpt>
      <trkpt lat="43.56898" lon="3.3137">
        <ele>366</ele>
        <time>2015-11-22T08:36:38Z</time>
      </trkpt>
      <trkpt lat="43.56892" lon="3.31369">
        <ele>365.5</ele>
        <time>2015-11-22T08:36:39Z</time>
      </trkpt>
      <trkpt lat="43.56889" lon="3.31369">
        <ele>365.5</ele>
        <time>2015-11-22T08:36:40Z</time>
      </trkpt>
      <trkpt lat="43.56885" lon="3.3137">
        <ele>365.5</ele>
        <time>2015-11-22T08:36:41Z</time>
      </trkpt>
      <trkpt lat="43.56881" lon="3.31371">
        <ele>365.5</ele>
        <time>2015-11-22T08:36:42Z</time>
      </trkpt>
      <trkpt lat="43.56876" lon="3.31372">
        <ele>365</ele>
        <time>2015-11-22T08:36:43Z</time>
      </trkpt>
      <trkpt lat="43.56874" lon="3.31374">
        <ele>365</ele>
        <time>2015-11-22T08:36:44Z</time>
      </trkpt>
      <trkpt lat="43.56866" lon="3.31377">
        <ele>365</ele>
        <time>2015-11-22T08:36:46Z</time>
      </trkpt>
      <trkpt lat="43.56863" lon="3.31378">
        <ele>366.5</ele>
        <time>2015-11-22T08:36:47Z</time>
      </trkpt>
      <trkpt lat="43.56854" lon="3.31378">
        <ele>366</ele>
        <time>2015-11-22T08:36:49Z</time>
      </trkpt>
      <trkpt lat="43.56842" lon="3.31378">
        <ele>365</ele>
        <time>2015-11-22T08:36:51Z</time>
      </trkpt>
      <trkpt lat="43.56837" lon="3.31377">
        <ele>365</ele>
        <time>2015-11-22T08:36:53Z</time>
      </trkpt>
      <trkpt lat="43.56832" lon="3.3138">
        <ele>365.5</ele>
        <time>2015-11-22T08:36:54Z</time>
      </trkpt>
      <trkpt lat="43.56829" lon="3.31384">
        <ele>365.5</ele>
        <time>2015-11-22T08:36:55Z</time>
      </trkpt>
      <trkpt lat="43.56818" lon="3.31388">
        <ele>366</ele>
        <time>2015-11-22T08:36:57Z</time>
      </trkpt>
      <trkpt lat="43.56804" lon="3.31394">
        <ele>366</ele>
        <time>2015-11-22T08:36:59Z</time>
      </trkpt>
      <trkpt lat="43.56798" lon="3.31397">
        <ele>366</ele>
        <time>2015-11-22T08:37:00Z</time>
      </trkpt>
      <trkpt lat="43.56794" lon="3.31401">
        <ele>366.5</ele>
        <time>2015-11-22T08:37:01Z</time>
      </trkpt>
      <trkpt lat="43.56789" lon="3.31405">
        <ele>366.5</ele>
        <time>2015-11-22T08:37:02Z</time>
      </trkpt>
      <trkpt lat="43.56784" lon="3.31407">
        <ele>364</ele>
        <time>2015-11-22T08:37:03Z</time>
      </trkpt>
      <trkpt lat="43.56779" lon="3.31408">
        <ele>364</ele>
        <time>2015-11-22T08:37:04Z</time>
      </trkpt>
      <trkpt lat="43.56775" lon="3.31408">
        <ele>364</ele>
        <time>2015-11-22T08:37:05Z</time>
      </trkpt>
      <trkpt lat="43.56772" lon="3.31408">
        <ele>363.5</ele>
        <time>2015-11-22T08:37:06Z</time>
      </trkpt>
      <trkpt lat="43.56763" lon="3.31406">
        <ele>363</ele>
        <time>2015-11-22T08:37:08Z</time>
      </trkpt>
      <trkpt lat="43.56759" lon="3.31401">
        <ele>363</ele>
        <time>2015-11-22T08:37:10Z</time>
      </trkpt>
      <trkpt lat="43.5675" lon="3.31404">
        <ele>362.5</ele>
        <time>2015-11-22T08:37:12Z</time>
      </trkpt>
      <trkpt lat="43.5673" lon="3.31403">
        <ele>360.5</ele>
        <time>2015-11-22T08:37:15Z</time>
      </trkpt>
      <trkpt lat="43.56718" lon="3.31405">
        <ele>360</ele>
        <time>2015-11-22T08:37:17Z</time>
      </trkpt>
      <trkpt lat="43.56713" lon="3.31406">
        <ele>360</ele>
        <time>2015-11-22T08:37:18Z</time>
      </trkpt>
      <trkpt lat="43.56708" lon="3.31405">
        <ele>359.5</ele>
        <time>2015-11-22T08:37:19Z</time>
      </trkpt>
      <trkpt lat="43.56694" lon="3.31404">
        <ele>358.5</ele>
        <time>2015-11-22T08:37:21Z</time>
      </trkpt>
      <trkpt lat="43.56686" lon="3.31407">
        <ele>358.5</ele>
        <time>2015-11-22T08:37:23Z</time>
      </trkpt>
      <trkpt lat="43.56682" lon="3.3141">
        <ele>357.5</ele>
        <time>2015-11-22T08:37:24Z</time>
      </trkpt>
      <trkpt lat="43.56677" lon="3.31414">
        <ele>357.5</ele>
        <time>2015-11-22T08:37:25Z</time>
      </trkpt>
      <trkpt lat="43.56672" lon="3.31418">
        <ele>358</ele>
        <time>2015-11-22T08:37:26Z</time>
      </trkpt>
      <trkpt lat="43.56667" lon="3.31422">
        <ele>358</ele>
        <time>2015-11-22T08:37:27Z</time>
      </trkpt>
      <trkpt lat="43.56663" lon="3.31419">
        <ele>357.5</ele>
        <time>2015-11-22T08:37:28Z</time>
      </trkpt>
      <trkpt lat="43.56657" lon="3.31416">
        <ele>358</ele>
        <time>2015-11-22T08:37:30Z</time>
      </trkpt>
      <trkpt lat="43.56654" lon="3.31415">
        <ele>356.5</ele>
        <time>2015-11-22T08:37:31Z</time>
      </trkpt>
      <trkpt lat="43.56652" lon="3.31413">
        <ele>355.5</ele>
        <time>2015-11-22T08:37:32Z</time>
      </trkpt>
      <trkpt lat="43.56652" lon="3.3141">
        <ele>355.5</ele>
        <time>2015-11-22T08:37:33Z</time>
      </trkpt>
      <trkpt lat="43.56636" lon="3.31404">
        <ele>354</ele>
        <time>2015-11-22T08:37:36Z</time>
      </trkpt>
      <trkpt lat="43.5663" lon="3.31405">
        <ele>354</ele>
        <time>2015-11-22T08:37:37Z</time>
      </trkpt>
      <trkpt lat="43.56626" lon="3.31403">
        <ele>353.5</ele>
        <time>2015-11-22T08:37:38Z</time>
      </trkpt>
      <trkpt lat="43.5662" lon="3.31402">
        <ele>352.5</ele>
        <time>2015-11-22T08:37:39Z</time>
      </trkpt>
      <trkpt lat="43.56608" lon="3.31403">
        <ele>351.5</ele>
        <time>2015-11-22T08:37:42Z</time>
      </trkpt>
      <trkpt lat="43.56606" lon="3.31403">
        <ele>351.5</ele>
        <time>2015-11-22T08:37:43Z</time>
      </trkpt>
      <trkpt lat="43.56605" lon="3.31403">
        <ele>351</ele>
        <time>2015-11-22T08:37:44Z</time>
      </trkpt>
      <trkpt lat="43.56604" lon="3.31401">
        <ele>351</ele>
        <time>2015-11-22T08:37:45Z</time>
      </trkpt>
      <trkpt lat="43.56602" lon="3.314">
        <ele>350.5</ele>
        <time>2015-11-22T08:37:46Z</time>
      </trkpt>
      <trkpt lat="43.566" lon="3.31399">
        <ele>351</ele>
        <time>2015-11-22T08:37:47Z</time>
      </trkpt>
      <trkpt lat="43.56598" lon="3.31399">
        <ele>351</ele>
        <time>2015-11-22T08:37:48Z</time>
      </trkpt>
      <trkpt lat="43.56591" lon="3.31398">
        <ele>352.5</ele>
        <time>2015-11-22T08:37:50Z</time>
      </trkpt>
      <trkpt lat="43.56581" lon="3.31394">
        <ele>350.5</ele>
        <time>2015-11-22T08:37:52Z</time>
      </trkpt>
      <trkpt lat="43.56577" lon="3.31394">
        <ele>350.5</ele>
        <time>2015-11-22T08:37:53Z</time>
      </trkpt>
      <trkpt lat="43.56573" lon="3.31393">
        <ele>350.5</ele>
        <time>2015-11-22T08:37:54Z</time>
      </trkpt>
      <trkpt lat="43.56571" lon="3.31388">
        <ele>350</ele>
        <time>2015-11-22T08:37:55Z</time>
      </trkpt>
      <trkpt lat="43.56566" lon="3.31387">
        <ele>350</ele>
        <time>2015-11-22T08:37:56Z</time>
      </trkpt>
      <trkpt lat="43.56562" lon="3.31386">
        <ele>351.5</ele>
        <time>2015-11-22T08:37:57Z</time>
      </trkpt>
      <trkpt lat="43.56553" lon="3.31385">
        <ele>353.5</ele>
        <time>2015-11-22T08:37:59Z</time>
      </trkpt>
      <trkpt lat="43.56548" lon="3.31386">
        <ele>353.5</ele>
        <time>2015-11-22T08:38:00Z</time>
      </trkpt>
      <trkpt lat="43.56534" lon="3.31382">
        <ele>350</ele>
        <time>2015-11-22T08:38:02Z</time>
      </trkpt>
      <trkpt lat="43.5652" lon="3.31383">
        <ele>349</ele>
        <time>2015-11-22T08:38:04Z</time>
      </trkpt>
      <trkpt lat="43.56516" lon="3.3138">
        <ele>349</ele>
        <time>2015-11-22T08:38:05Z</time>
      </trkpt>
      <trkpt lat="43.56503" lon="3.31374">
        <ele>349</ele>
        <time>2015-11-22T08:38:07Z</time>
      </trkpt>
      <trkpt lat="43.56499" lon="3.31373">
        <ele>350</ele>
        <time>2015-11-22T08:38:08Z</time>
      </trkpt>
      <trkpt lat="43.56489" lon="3.31372">
        <ele>350.5</ele>
        <time>2015-11-22T08:38:10Z</time>
      </trkpt>
      <trkpt lat="43.56485" lon="3.31372">
        <ele>352.5</ele>
        <time>2015-11-22T08:38:11Z</time>
      </trkpt>
      <trkpt lat="43.56481" lon="3.31371">
        <ele>353.5</ele>
        <time>2015-11-22T08:38:12Z</time>
      </trkpt>
      <trkpt lat="43.56476" lon="3.31372">
        <ele>354.5</ele>
        <time>2015-11-22T08:38:13Z</time>
      </trkpt>
      <trkpt lat="43.56471" lon="3.31372">
        <ele>354.5</ele>
        <time>2015-11-22T08:38:15Z</time>
      </trkpt>
      <trkpt lat="43.56467" lon="3.31372">
        <ele>355.5</ele>
        <time>2015-11-22T08:38:16Z</time>
      </trkpt>
      <trkpt lat="43.56461" lon="3.31373">
        <ele>354</ele>
        <time>2015-11-22T08:38:18Z</time>
      </trkpt>
      <trkpt lat="43.56452" lon="3.31369">
        <ele>351.5</ele>
        <time>2015-11-22T08:38:20Z</time>
      </trkpt>
      <trkpt lat="43.56444" lon="3.31367">
        <ele>350.5</ele>
        <time>2015-11-22T08:38:22Z</time>
      </trkpt>
      <trkpt lat="43.56439" lon="3.31365">
        <ele>349.5</ele>
        <time>2015-11-22T08:38:23Z</time>
      </trkpt>
      <trkpt lat="43.56436" lon="3.31365">
        <ele>349.5</ele>
        <time>2015-11-22T08:38:24Z</time>
      </trkpt>
      <trkpt lat="43.56432" lon="3.31365">
        <ele>349.5</ele>
        <time>2015-11-22T08:38:25Z</time>
      </trkpt>
      <trkpt lat="43.5643" lon="3.31364">
        <ele>350</ele>
        <time>2015-11-22T08:38:26Z</time>
      </trkpt>
      <trkpt lat="43.56428" lon="3.31363">
        <ele>350.5</ele>
        <time>2015-11-22T08:38:27Z</time>
      </trkpt>
      <trkpt lat="43.56427" lon="3.31361">
        <ele>351</ele>
        <time>2015-11-22T08:38:28Z</time>
      </trkpt>
      <trkpt lat="43.56426" lon="3.3136">
        <ele>349.5</ele>
        <time>2015-11-22T08:38:29Z</time>
      </trkpt>
      <trkpt lat="43.5642" lon="3.31357">
        <ele>350</ele>
        <time>2015-11-22T08:38:31Z</time>
      </trkpt>
      <trkpt lat="43.56418" lon="3.31356">
        <ele>350</ele>
        <time>2015-11-22T08:38:32Z</time>
      </trkpt>
      <trkpt lat="43.56415" lon="3.31355">
        <ele>350</ele>
        <time>2015-11-22T08:38:33Z</time>
      </trkpt>
      <trkpt lat="43.56413" lon="3.31348">
        <ele>349</ele>
        <time>2015-11-22T08:38:35Z</time>
      </trkpt>
      <trkpt lat="43.5641" lon="3.31347">
        <ele>348.5</ele>
        <time>2015-11-22T08:38:36Z</time>
      </trkpt>
      <trkpt lat="43.56406" lon="3.31346">
        <ele>349</ele>
        <time>2015-11-22T08:38:38Z</time>
      </trkpt>
      <trkpt lat="43.56404" lon="3.31346">
        <ele>348.5</ele>
        <time>2015-11-22T08:38:39Z</time>
      </trkpt>
      <trkpt lat="43.56402" lon="3.31346">
        <ele>348.5</ele>
        <time>2015-11-22T08:38:40Z</time>
      </trkpt>
      <trkpt lat="43.56401" lon="3.31346">
        <ele>349</ele>
        <time>2015-11-22T08:38:41Z</time>
      </trkpt>
      <trkpt lat="43.56396" lon="3.31344">
        <ele>348</ele>
        <time>2015-11-22T08:38:43Z</time>
      </trkpt>
      <trkpt lat="43.56395" lon="3.31344">
        <ele>349</ele>
        <time>2015-11-22T08:38:44Z</time>
      </trkpt>
      <trkpt lat="43.56394" lon="3.31343">
        <ele>350</ele>
        <time>2015-11-22T08:38:45Z</time>
      </trkpt>
      <trkpt lat="43.56393" lon="3.31342">
        <ele>350.5</ele>
        <time>2015-11-22T08:38:46Z</time>
      </trkpt>
      <trkpt lat="43.56391" lon="3.31342">
        <ele>350.5</ele>
        <time>2015-11-22T08:38:47Z</time>
      </trkpt>
      <trkpt lat="43.5639" lon="3.31342">
        <ele>351.5</ele>
        <time>2015-11-22T08:38:48Z</time>
      </trkpt>
      <trkpt lat="43.56389" lon="3.31341">
        <ele>351</ele>
        <time>2015-11-22T08:38:49Z</time>
      </trkpt>
      <trkpt lat="43.56388" lon="3.31339">
        <ele>351.5</ele>
        <time>2015-11-22T08:38:50Z</time>
      </trkpt>
      <trkpt lat="43.56387" lon="3.31338">
        <ele>352</ele>
        <time>2015-11-22T08:38:51Z</time>
      </trkpt>
      <trkpt lat="43.56386" lon="3.31337">
        <ele>352.5</ele>
        <time>2015-11-22T08:38:52Z</time>
      </trkpt>
      <trkpt lat="43.5638" lon="3.31333">
        <ele>354</ele>
        <time>2015-11-22T08:38:54Z</time>
      </trkpt>
      <trkpt lat="43.56378" lon="3.31331">
        <ele>354</ele>
        <time>2015-11-22T08:38:55Z</time>
      </trkpt>
      <trkpt lat="43.56376" lon="3.31329">
        <ele>354</ele>
        <time>2015-11-22T08:38:56Z</time>
      </trkpt>
      <trkpt lat="43.56364" lon="3.31323">
        <ele>348.5</ele>
        <time>2015-11-22T08:38:59Z</time>
      </trkpt>
      <trkpt lat="43.56363" lon="3.31321">
        <ele>349.5</ele>
        <time>2015-11-22T08:39:00Z</time>
      </trkpt>
      <trkpt lat="43.5636" lon="3.31319">
        <ele>350.5</ele>
        <time>2015-11-22T08:39:01Z</time>
      </trkpt>
      <trkpt lat="43.56355" lon="3.31315">
        <ele>352</ele>
        <time>2015-11-22T08:39:03Z</time>
      </trkpt>
      <trkpt lat="43.5635" lon="3.31311">
        <ele>348</ele>
        <time>2015-11-22T08:39:05Z</time>
      </trkpt>
      <trkpt lat="43.56349" lon="3.3131">
        <ele>348.5</ele>
        <time>2015-11-22T08:39:06Z</time>
      </trkpt>
      <trkpt lat="43.56346" lon="3.31308">
        <ele>349</ele>
        <time>2015-11-22T08:39:07Z</time>
      </trkpt>
      <trkpt lat="43.56344" lon="3.31306">
        <ele>348</ele>
        <time>2015-11-22T08:39:08Z</time>
      </trkpt>
      <trkpt lat="43.56343" lon="3.31305">
        <ele>348</ele>
        <time>2015-11-22T08:39:09Z</time>
      </trkpt>
      <trkpt lat="43.56341" lon="3.31304">
        <ele>348</ele>
        <time>2015-11-22T08:39:10Z</time>
      </trkpt>
      <trkpt lat="43.5634" lon="3.31303">
        <ele>348</ele>
        <time>2015-11-22T08:39:11Z</time>
      </trkpt>
      <trkpt lat="43.56339" lon="3.313">
        <ele>347.5</ele>
        <time>2015-11-22T08:39:12Z</time>
      </trkpt>
      <trkpt lat="43.56337" lon="3.31299">
        <ele>346</ele>
        <time>2015-11-22T08:39:13Z</time>
      </trkpt>
      <trkpt lat="43.56336" lon="3.31298">
        <ele>346.5</ele>
        <time>2015-11-22T08:39:14Z</time>
      </trkpt>
      <trkpt lat="43.56335" lon="3.31297">
        <ele>346.5</ele>
        <time>2015-11-22T08:39:15Z</time>
      </trkpt>
      <trkpt lat="43.56334" lon="3.31296">
        <ele>346.5</ele>
        <time>2015-11-22T08:39:16Z</time>
      </trkpt>
      <trkpt lat="43.56333" lon="3.31295">
        <ele>347</ele>
        <time>2015-11-22T08:39:17Z</time>
      </trkpt>
      <trkpt lat="43.56328" lon="3.31294">
        <ele>344</ele>
        <time>2015-11-22T08:39:19Z</time>
      </trkpt>
      <trkpt lat="43.56325" lon="3.31294">
        <ele>343</ele>
        <time>2015-11-22T08:39:20Z</time>
      </trkpt>
      <trkpt lat="43.56323" lon="3.31294">
        <ele>343</ele>
        <time>2015-11-22T08:39:21Z</time>
      </trkpt>
      <trkpt lat="43.56321" lon="3.31293">
        <ele>343</ele>
        <time>2015-11-22T08:39:22Z</time>
      </trkpt>
      <trkpt lat="43.56309" lon="3.31286">
        <ele>343</ele>
        <time>2015-11-22T08:39:25Z</time>
      </trkpt>
      <trkpt lat="43.56306" lon="3.31285">
        <ele>343.5</ele>
        <time>2015-11-22T08:39:26Z</time>
      </trkpt>
      <trkpt lat="43.56302" lon="3.31284">
        <ele>344</ele>
        <time>2015-11-22T08:39:27Z</time>
      </trkpt>
      <trkpt lat="43.56298" lon="3.31281">
        <ele>344</ele>
        <time>2015-11-22T08:39:28Z</time>
      </trkpt>
      <trkpt lat="43.56294" lon="3.31278">
        <ele>343</ele>
        <time>2015-11-22T08:39:29Z</time>
      </trkpt>
      <trkpt lat="43.56285" lon="3.3127">
        <ele>339</ele>
        <time>2015-11-22T08:39:31Z</time>
      </trkpt>
      <trkpt lat="43.56282" lon="3.31266">
        <ele>339</ele>
        <time>2015-11-22T08:39:32Z</time>
      </trkpt>
      <trkpt lat="43.56278" lon="3.31264">
        <ele>338</ele>
        <time>2015-11-22T08:39:33Z</time>
      </trkpt>
      <trkpt lat="43.56276" lon="3.31259">
        <ele>335.5</ele>
        <time>2015-11-22T08:39:35Z</time>
      </trkpt>
      <trkpt lat="43.56274" lon="3.31257">
        <ele>334</ele>
        <time>2015-11-22T08:39:36Z</time>
      </trkpt>
      <trkpt lat="43.56271" lon="3.31254">
        <ele>334</ele>
        <time>2015-11-22T08:39:37Z</time>
      </trkpt>
      <trkpt lat="43.56269" lon="3.31252">
        <ele>333.5</ele>
        <time>2015-11-22T08:39:38Z</time>
      </trkpt>
      <trkpt lat="43.56268" lon="3.3125">
        <ele>332</ele>
        <time>2015-11-22T08:39:39Z</time>
      </trkpt>
      <trkpt lat="43.56266" lon="3.31247">
        <ele>331</ele>
        <time>2015-11-22T08:39:40Z</time>
      </trkpt>
      <trkpt lat="43.56263" lon="3.31244">
        <ele>330</ele>
        <time>2015-11-22T08:39:41Z</time>
      </trkpt>
      <trkpt lat="43.56261" lon="3.3124">
        <ele>330</ele>
        <time>2015-11-22T08:39:42Z</time>
      </trkpt>
      <trkpt lat="43.56253" lon="3.31229">
        <ele>329</ele>
        <time>2015-11-22T08:39:44Z</time>
      </trkpt>
      <trkpt lat="43.56249" lon="3.31224">
        <ele>329</ele>
        <time>2015-11-22T08:39:45Z</time>
      </trkpt>
      <trkpt lat="43.56246" lon="3.3122">
        <ele>329</ele>
        <time>2015-11-22T08:39:46Z</time>
      </trkpt>
      <trkpt lat="43.56243" lon="3.31215">
        <ele>329.5</ele>
        <time>2015-11-22T08:39:48Z</time>
      </trkpt>
      <trkpt lat="43.56242" lon="3.3121">
        <ele>328.5</ele>
        <time>2015-11-22T08:39:49Z</time>
      </trkpt>
      <trkpt lat="43.5624" lon="3.31205">
        <ele>330</ele>
        <time>2015-11-22T08:39:50Z</time>
      </trkpt>
      <trkpt lat="43.56237" lon="3.312">
        <ele>331</ele>
        <time>2015-11-22T08:39:51Z</time>
      </trkpt>
      <trkpt lat="43.56236" lon="3.31192">
        <ele>330</ele>
        <time>2015-11-22T08:39:52Z</time>
      </trkpt>
      <trkpt lat="43.56231" lon="3.3118">
        <ele>330</ele>
        <time>2015-11-22T08:39:54Z</time>
      </trkpt>
      <trkpt lat="43.56221" lon="3.31163">
        <ele>329</ele>
        <time>2015-11-22T08:39:56Z</time>
      </trkpt>
      <trkpt lat="43.56219" lon="3.31158">
        <ele>329.5</ele>
        <time>2015-11-22T08:39:57Z</time>
      </trkpt>
      <trkpt lat="43.56213" lon="3.31145">
        <ele>328</ele>
        <time>2015-11-22T08:39:59Z</time>
      </trkpt>
      <trkpt lat="43.56211" lon="3.31137">
        <ele>328</ele>
        <time>2015-11-22T08:40:00Z</time>
      </trkpt>
      <trkpt lat="43.56209" lon="3.31129">
        <ele>328</ele>
        <time>2015-11-22T08:40:01Z</time>
      </trkpt>
      <trkpt lat="43.56204" lon="3.31125">
        <ele>328</ele>
        <time>2015-11-22T08:40:02Z</time>
      </trkpt>
      <trkpt lat="43.562" lon="3.3112">
        <ele>329</ele>
        <time>2015-11-22T08:40:03Z</time>
      </trkpt>
      <trkpt lat="43.56199" lon="3.31116">
        <ele>328.5</ele>
        <time>2015-11-22T08:40:04Z</time>
      </trkpt>
      <trkpt lat="43.56195" lon="3.31102">
        <ele>326.5</ele>
        <time>2015-11-22T08:40:06Z</time>
      </trkpt>
      <trkpt lat="43.56192" lon="3.31098">
        <ele>326.5</ele>
        <time>2015-11-22T08:40:07Z</time>
      </trkpt>
      <trkpt lat="43.5619" lon="3.31093">
        <ele>326</ele>
        <time>2015-11-22T08:40:08Z</time>
      </trkpt>
      <trkpt lat="43.56188" lon="3.31087">
        <ele>326</ele>
        <time>2015-11-22T08:40:09Z</time>
      </trkpt>
      <trkpt lat="43.56186" lon="3.31081">
        <ele>326</ele>
        <time>2015-11-22T08:40:10Z</time>
      </trkpt>
      <trkpt lat="43.5618" lon="3.31067">
        <ele>325</ele>
        <time>2015-11-22T08:40:12Z</time>
      </trkpt>
      <trkpt lat="43.56177" lon="3.31062">
        <ele>325</ele>
        <time>2015-11-22T08:40:13Z</time>
      </trkpt>
      <trkpt lat="43.56167" lon="3.3106">
        <ele>323</ele>
        <time>2015-11-22T08:40:15Z</time>
      </trkpt>
      <trkpt lat="43.5616" lon="3.3106">
        <ele>323</ele>
        <time>2015-11-22T08:40:17Z</time>
      </trkpt>
      <trkpt lat="43.5615" lon="3.31056">
        <ele>326.5</ele>
        <time>2015-11-22T08:40:19Z</time>
      </trkpt>
      <trkpt lat="43.5614" lon="3.31054">
        <ele>328.5</ele>
        <time>2015-11-22T08:40:21Z</time>
      </trkpt>
      <trkpt lat="43.56135" lon="3.31052">
        <ele>328.5</ele>
        <time>2015-11-22T08:40:22Z</time>
      </trkpt>
      <trkpt lat="43.5613" lon="3.31051">
        <ele>329</ele>
        <time>2015-11-22T08:40:23Z</time>
      </trkpt>
      <trkpt lat="43.5612" lon="3.3105">
        <ele>332.5</ele>
        <time>2015-11-22T08:40:25Z</time>
      </trkpt>
      <trkpt lat="43.56116" lon="3.3105">
        <ele>336</ele>
        <time>2015-11-22T08:40:26Z</time>
      </trkpt>
      <trkpt lat="43.56109" lon="3.31048">
        <ele>337.5</ele>
        <time>2015-11-22T08:40:28Z</time>
      </trkpt>
      <trkpt lat="43.56105" lon="3.31048">
        <ele>338</ele>
        <time>2015-11-22T08:40:29Z</time>
      </trkpt>
      <trkpt lat="43.56101" lon="3.31048">
        <ele>338</ele>
        <time>2015-11-22T08:40:30Z</time>
      </trkpt>
      <trkpt lat="43.561" lon="3.3105">
        <ele>339</ele>
        <time>2015-11-22T08:40:31Z</time>
      </trkpt>
      <trkpt lat="43.56097" lon="3.3105">
        <ele>340</ele>
        <time>2015-11-22T08:40:32Z</time>
      </trkpt>
      <trkpt lat="43.56096" lon="3.3105">
        <ele>341</ele>
        <time>2015-11-22T08:40:33Z</time>
      </trkpt>
      <trkpt lat="43.56093" lon="3.31049">
        <ele>339.5</ele>
        <time>2015-11-22T08:40:34Z</time>
      </trkpt>
      <trkpt lat="43.56084" lon="3.31047">
        <ele>331.5</ele>
        <time>2015-11-22T08:40:39Z</time>
      </trkpt>
      <trkpt lat="43.56083" lon="3.31047">
        <ele>332.5</ele>
        <time>2015-11-22T08:40:40Z</time>
      </trkpt>
      <trkpt lat="43.56081" lon="3.31048">
        <ele>332.5</ele>
        <time>2015-11-22T08:40:41Z</time>
      </trkpt>
      <trkpt lat="43.56079" lon="3.31048">
        <ele>331.5</ele>
        <time>2015-11-22T08:40:42Z</time>
      </trkpt>
      <trkpt lat="43.56077" lon="3.31049">
        <ele>332.5</ele>
        <time>2015-11-22T08:40:43Z</time>
      </trkpt>
      <trkpt lat="43.56076" lon="3.31049">
        <ele>333</ele>
        <time>2015-11-22T08:40:44Z</time>
      </trkpt>
      <trkpt lat="43.56075" lon="3.31048">
        <ele>332</ele>
        <time>2015-11-22T08:40:45Z</time>
      </trkpt>
      <trkpt lat="43.56073" lon="3.31047">
        <ele>331.5</ele>
        <time>2015-11-22T08:40:46Z</time>
      </trkpt>
      <trkpt lat="43.56072" lon="3.31047">
        <ele>330.5</ele>
        <time>2015-11-22T08:40:47Z</time>
      </trkpt>
      <trkpt lat="43.56067" lon="3.31047">
        <ele>329</ele>
        <time>2015-11-22T08:40:52Z</time>
      </trkpt>
      <trkpt lat="43.56066" lon="3.31047">
        <ele>328.5</ele>
        <time>2015-11-22T08:40:53Z</time>
      </trkpt>
      <trkpt lat="43.56064" lon="3.31047">
        <ele>329.5</ele>
        <time>2015-11-22T08:40:54Z</time>
      </trkpt>
      <trkpt lat="43.56062" lon="3.31047">
        <ele>330</ele>
        <time>2015-11-22T08:40:55Z</time>
      </trkpt>
      <trkpt lat="43.5606" lon="3.31047">
        <ele>330.5</ele>
        <time>2015-11-22T08:40:56Z</time>
      </trkpt>
      <trkpt lat="43.56058" lon="3.31048">
        <ele>330</ele>
        <time>2015-11-22T08:40:57Z</time>
      </trkpt>
      <trkpt lat="43.56056" lon="3.31048">
        <ele>330</ele>
        <time>2015-11-22T08:40:58Z</time>
      </trkpt>
      <trkpt lat="43.56053" lon="3.31048">
        <ele>329.5</ele>
        <time>2015-11-22T08:40:59Z</time>
      </trkpt>
      <trkpt lat="43.5605" lon="3.31048">
        <ele>329</ele>
        <time>2015-11-22T08:41:00Z</time>
      </trkpt>
      <trkpt lat="43.56047" lon="3.31049">
        <ele>329</ele>
        <time>2015-11-22T08:41:01Z</time>
      </trkpt>
      <trkpt lat="43.56044" lon="3.31048">
        <ele>328.5</ele>
        <time>2015-11-22T08:41:02Z</time>
      </trkpt>
      <trkpt lat="43.56042" lon="3.31047">
        <ele>328</ele>
        <time>2015-11-22T08:41:03Z</time>
      </trkpt>
      <trkpt lat="43.56034" lon="3.31048">
        <ele>328</ele>
        <time>2015-11-22T08:41:05Z</time>
      </trkpt>
      <trkpt lat="43.56032" lon="3.31047">
        <ele>327.5</ele>
        <time>2015-11-22T08:41:06Z</time>
      </trkpt>
      <trkpt lat="43.56029" lon="3.31047">
        <ele>329.5</ele>
        <time>2015-11-22T08:41:07Z</time>
      </trkpt>
      <trkpt lat="43.56023" lon="3.31042">
        <ele>328</ele>
        <time>2015-11-22T08:41:09Z</time>
      </trkpt>
      <trkpt lat="43.56019" lon="3.3104">
        <ele>328</ele>
        <time>2015-11-22T08:41:10Z</time>
      </trkpt>
      <trkpt lat="43.56017" lon="3.3104">
        <ele>328</ele>
        <time>2015-11-22T08:41:11Z</time>
      </trkpt>
      <trkpt lat="43.56014" lon="3.3104">
        <ele>328</ele>
        <time>2015-11-22T08:41:12Z</time>
      </trkpt>
      <trkpt lat="43.56011" lon="3.31041">
        <ele>328.5</ele>
        <time>2015-11-22T08:41:13Z</time>
      </trkpt>
      <trkpt lat="43.56009" lon="3.31041">
        <ele>329</ele>
        <time>2015-11-22T08:41:14Z</time>
      </trkpt>
      <trkpt lat="43.56008" lon="3.31041">
        <ele>329</ele>
        <time>2015-11-22T08:41:15Z</time>
      </trkpt>
      <trkpt lat="43.56008" lon="3.31041">
        <ele>329.5</ele>
        <time>2015-11-22T08:41:16Z</time>
      </trkpt>
      <trkpt lat="43.56007" lon="3.31041">
        <ele>329.5</ele>
        <time>2015-11-22T08:41:18Z</time>
      </trkpt>
      <trkpt lat="43.56007" lon="3.31041">
        <ele>329.5</ele>
        <time>2015-11-22T08:41:19Z</time>
      </trkpt>
      <trkpt lat="43.56006" lon="3.31042">
        <ele>329.5</ele>
        <time>2015-11-22T08:41:20Z</time>
      </trkpt>
      <trkpt lat="43.56005" lon="3.31042">
        <ele>329.5</ele>
        <time>2015-11-22T08:41:23Z</time>
      </trkpt>
      <trkpt lat="43.56005" lon="3.31043">
        <ele>330</ele>
        <time>2015-11-22T08:41:25Z</time>
      </trkpt>
      <trkpt lat="43.56003" lon="3.31044">
        <ele>330</ele>
        <time>2015-11-22T08:41:29Z</time>
      </trkpt>
      <trkpt lat="43.56003" lon="3.31044">
        <ele>329.5</ele>
        <time>2015-11-22T08:41:31Z</time>
      </trkpt>
      <trkpt lat="43.56002" lon="3.31043">
        <ele>329.5</ele>
        <time>2015-11-22T08:41:32Z</time>
      </trkpt>
      <trkpt lat="43.56002" lon="3.31043">
        <ele>329</ele>
        <time>2015-11-22T08:41:35Z</time>
      </trkpt>
      <trkpt lat="43.56001" lon="3.31043">
        <ele>329.5</ele>
        <time>2015-11-22T08:41:39Z</time>
      </trkpt>
      <trkpt lat="43.56" lon="3.31044">
        <ele>329.5</ele>
        <time>2015-11-22T08:41:42Z</time>
      </trkpt>
      <trkpt lat="43.55999" lon="3.31045">
        <ele>329</ele>
        <time>2015-11-22T08:41:43Z</time>
      </trkpt>
      <trkpt lat="43.55999" lon="3.31047">
        <ele>327.5</ele>
        <time>2015-11-22T08:41:44Z</time>
      </trkpt>
      <trkpt lat="43.55998" lon="3.31049">
        <ele>327.5</ele>
        <time>2015-11-22T08:41:45Z</time>
      </trkpt>
      <trkpt lat="43.55999" lon="3.3105">
        <ele>327</ele>
        <time>2015-11-22T08:41:46Z</time>
      </trkpt>
      <trkpt lat="43.56" lon="3.31053">
        <ele>327</ele>
        <time>2015-11-22T08:41:47Z</time>
      </trkpt>
      <trkpt lat="43.55999" lon="3.31057">
        <ele>326</ele>
        <time>2015-11-22T08:41:48Z</time>
      </trkpt>
      <trkpt lat="43.55999" lon="3.31062">
        <ele>326</ele>
        <time>2015-11-22T08:41:49Z</time>
      </trkpt>
      <trkpt lat="43.56" lon="3.31068">
        <ele>326</ele>
        <time>2015-11-22T08:41:50Z</time>
      </trkpt>
      <trkpt lat="43.55999" lon="3.31072">
        <ele>326</ele>
        <time>2015-11-22T08:41:51Z</time>
      </trkpt>
      <trkpt lat="43.55999" lon="3.31076">
        <ele>325.5</ele>
        <time>2015-11-22T08:41:52Z</time>
      </trkpt>
      <trkpt lat="43.55999" lon="3.31079">
        <ele>325.5</ele>
        <time>2015-11-22T08:41:53Z</time>
      </trkpt>
      <trkpt lat="43.55997" lon="3.3109">
        <ele>325</ele>
        <time>2015-11-22T08:41:55Z</time>
      </trkpt>
      <trkpt lat="43.55996" lon="3.31095">
        <ele>324</ele>
        <time>2015-11-22T08:41:56Z</time>
      </trkpt>
      <trkpt lat="43.55991" lon="3.31098">
        <ele>324</ele>
        <time>2015-11-22T08:41:57Z</time>
      </trkpt>
      <trkpt lat="43.55988" lon="3.311">
        <ele>324</ele>
        <time>2015-11-22T08:41:58Z</time>
      </trkpt>
      <trkpt lat="43.55986" lon="3.31103">
        <ele>324</ele>
        <time>2015-11-22T08:41:59Z</time>
      </trkpt>
      <trkpt lat="43.55985" lon="3.31106">
        <ele>323.5</ele>
        <time>2015-11-22T08:42:00Z</time>
      </trkpt>
      <trkpt lat="43.55985" lon="3.31111">
        <ele>323.5</ele>
        <time>2015-11-22T08:42:01Z</time>
      </trkpt>
      <trkpt lat="43.55982" lon="3.31112">
        <ele>324</ele>
        <time>2015-11-22T08:42:02Z</time>
      </trkpt>
      <trkpt lat="43.55983" lon="3.31116">
        <ele>324</ele>
        <time>2015-11-22T08:42:03Z</time>
      </trkpt>
      <trkpt lat="43.55982" lon="3.31117">
        <ele>324</ele>
        <time>2015-11-22T08:42:04Z</time>
      </trkpt>
      <trkpt lat="43.55982" lon="3.3112">
        <ele>324</ele>
        <time>2015-11-22T08:42:05Z</time>
      </trkpt>
      <trkpt lat="43.55979" lon="3.3113">
        <ele>323.5</ele>
        <time>2015-11-22T08:42:07Z</time>
      </trkpt>
      <trkpt lat="43.55979" lon="3.31134">
        <ele>323</ele>
        <time>2015-11-22T08:42:08Z</time>
      </trkpt>
      <trkpt lat="43.5598" lon="3.31139">
        <ele>323</ele>
        <time>2015-11-22T08:42:09Z</time>
      </trkpt>
      <trkpt lat="43.55985" lon="3.3115">
        <ele>319</ele>
        <time>2015-11-22T08:42:11Z</time>
      </trkpt>
      <trkpt lat="43.56002" lon="3.31167">
        <ele>314</ele>
        <time>2015-11-22T08:42:14Z</time>
      </trkpt>
      <trkpt lat="43.56007" lon="3.31188">
        <ele>320</ele>
        <time>2015-11-22T08:42:17Z</time>
      </trkpt>
      <trkpt lat="43.56014" lon="3.31207">
        <ele>328</ele>
        <time>2015-11-22T08:42:19Z</time>
      </trkpt>
      <trkpt lat="43.56015" lon="3.31215">
        <ele>329.5</ele>
        <time>2015-11-22T08:42:21Z</time>
      </trkpt>
      <trkpt lat="43.56015" lon="3.31228">
        <ele>330</ele>
        <time>2015-11-22T08:42:23Z</time>
      </trkpt>
      <trkpt lat="43.56015" lon="3.31235">
        <ele>330</ele>
        <time>2015-11-22T08:42:24Z</time>
      </trkpt>
      <trkpt lat="43.56014" lon="3.31244">
        <ele>330</ele>
        <time>2015-11-22T08:42:26Z</time>
      </trkpt>
      <trkpt lat="43.56014" lon="3.31248">
        <ele>330.5</ele>
        <time>2015-11-22T08:42:27Z</time>
      </trkpt>
      <trkpt lat="43.56015" lon="3.31252">
        <ele>331</ele>
        <time>2015-11-22T08:42:28Z</time>
      </trkpt>
      <trkpt lat="43.56016" lon="3.31262">
        <ele>331</ele>
        <time>2015-11-22T08:42:30Z</time>
      </trkpt>
      <trkpt lat="43.56015" lon="3.31268">
        <ele>331.5</ele>
        <time>2015-11-22T08:42:31Z</time>
      </trkpt>
      <trkpt lat="43.56018" lon="3.31285">
        <ele>330.5</ele>
        <time>2015-11-22T08:42:33Z</time>
      </trkpt>
      <trkpt lat="43.56021" lon="3.3129">
        <ele>330.5</ele>
        <time>2015-11-22T08:42:34Z</time>
      </trkpt>
      <trkpt lat="43.56024" lon="3.31297">
        <ele>330.5</ele>
        <time>2015-11-22T08:42:35Z</time>
      </trkpt>
      <trkpt lat="43.56026" lon="3.31304">
        <ele>331</ele>
        <time>2015-11-22T08:42:36Z</time>
      </trkpt>
      <trkpt lat="43.56034" lon="3.31321">
        <ele>331.5</ele>
        <time>2015-11-22T08:42:38Z</time>
      </trkpt>
      <trkpt lat="43.56036" lon="3.31328">
        <ele>332</ele>
        <time>2015-11-22T08:42:39Z</time>
      </trkpt>
      <trkpt lat="43.56042" lon="3.31356">
        <ele>327.5</ele>
        <time>2015-11-22T08:42:42Z</time>
      </trkpt>
      <trkpt lat="43.56039" lon="3.31363">
        <ele>327.5</ele>
        <time>2015-11-22T08:42:43Z</time>
      </trkpt>
      <trkpt lat="43.56041" lon="3.31372">
        <ele>325.5</ele>
        <time>2015-11-22T08:42:44Z</time>
      </trkpt>
      <trkpt lat="43.56038" lon="3.31379">
        <ele>326</ele>
        <time>2015-11-22T08:42:45Z</time>
      </trkpt>
      <trkpt lat="43.56035" lon="3.31387">
        <ele>326.5</ele>
        <time>2015-11-22T08:42:46Z</time>
      </trkpt>
      <trkpt lat="43.56035" lon="3.31394">
        <ele>325.5</ele>
        <time>2015-11-22T08:42:47Z</time>
      </trkpt>
      <trkpt lat="43.56036" lon="3.31402">
        <ele>325.5</ele>
        <time>2015-11-22T08:42:48Z</time>
      </trkpt>
      <trkpt lat="43.56042" lon="3.31419">
        <ele>320</ele>
        <time>2015-11-22T08:42:50Z</time>
      </trkpt>
      <trkpt lat="43.56043" lon="3.3144">
        <ele>316.5</ele>
        <time>2015-11-22T08:42:52Z</time>
      </trkpt>
      <trkpt lat="43.5604" lon="3.31448">
        <ele>316.5</ele>
        <time>2015-11-22T08:42:53Z</time>
      </trkpt>
      <trkpt lat="43.56037" lon="3.31456">
        <ele>315</ele>
        <time>2015-11-22T08:42:54Z</time>
      </trkpt>
      <trkpt lat="43.56031" lon="3.31475">
        <ele>314</ele>
        <time>2015-11-22T08:42:56Z</time>
      </trkpt>
      <trkpt lat="43.56031" lon="3.31483">
        <ele>313.5</ele>
        <time>2015-11-22T08:42:57Z</time>
      </trkpt>
      <trkpt lat="43.5603" lon="3.31491">
        <ele>312.5</ele>
        <time>2015-11-22T08:42:58Z</time>
      </trkpt>
      <trkpt lat="43.56031" lon="3.31497">
        <ele>311</ele>
        <time>2015-11-22T08:42:59Z</time>
      </trkpt>
      <trkpt lat="43.56031" lon="3.31504">
        <ele>309.5</ele>
        <time>2015-11-22T08:43:00Z</time>
      </trkpt>
      <trkpt lat="43.56026" lon="3.31524">
        <ele>309</ele>
        <time>2015-11-22T08:43:02Z</time>
      </trkpt>
      <trkpt lat="43.56022" lon="3.31532">
        <ele>308.5</ele>
        <time>2015-11-22T08:43:03Z</time>
      </trkpt>
      <trkpt lat="43.56017" lon="3.31541">
        <ele>308.5</ele>
        <time>2015-11-22T08:43:04Z</time>
      </trkpt>
      <trkpt lat="43.56014" lon="3.31552">
        <ele>307</ele>
        <time>2015-11-22T08:43:05Z</time>
      </trkpt>
      <trkpt lat="43.56009" lon="3.31561">
        <ele>306.5</ele>
        <time>2015-11-22T08:43:06Z</time>
      </trkpt>
      <trkpt lat="43.56002" lon="3.31568">
        <ele>306.5</ele>
        <time>2015-11-22T08:43:07Z</time>
      </trkpt>
      <trkpt lat="43.55997" lon="3.31573">
        <ele>306</ele>
        <time>2015-11-22T08:43:08Z</time>
      </trkpt>
      <trkpt lat="43.55997" lon="3.31586">
        <ele>305.5</ele>
        <time>2015-11-22T08:43:12Z</time>
      </trkpt>
      <trkpt lat="43.55998" lon="3.31592">
        <ele>305</ele>
        <time>2015-11-22T08:43:13Z</time>
      </trkpt>
      <trkpt lat="43.55995" lon="3.31596">
        <ele>305</ele>
        <time>2015-11-22T08:43:14Z</time>
      </trkpt>
      <trkpt lat="43.55994" lon="3.31601">
        <ele>305</ele>
        <time>2015-11-22T08:43:15Z</time>
      </trkpt>
      <trkpt lat="43.55993" lon="3.31614">
        <ele>304</ele>
        <time>2015-11-22T08:43:17Z</time>
      </trkpt>
      <trkpt lat="43.55993" lon="3.31619">
        <ele>304</ele>
        <time>2015-11-22T08:43:18Z</time>
      </trkpt>
      <trkpt lat="43.55992" lon="3.31626">
        <ele>303.5</ele>
        <time>2015-11-22T08:43:20Z</time>
      </trkpt>
      <trkpt lat="43.55992" lon="3.31627">
        <ele>303</ele>
        <time>2015-11-22T08:43:21Z</time>
      </trkpt>
      <trkpt lat="43.55993" lon="3.31629">
        <ele>302</ele>
        <time>2015-11-22T08:43:22Z</time>
      </trkpt>
      <trkpt lat="43.55993" lon="3.31631">
        <ele>301.5</ele>
        <time>2015-11-22T08:43:23Z</time>
      </trkpt>
      <trkpt lat="43.55996" lon="3.31637">
        <ele>301</ele>
        <time>2015-11-22T08:43:25Z</time>
      </trkpt>
      <trkpt lat="43.55998" lon="3.31641">
        <ele>302</ele>
        <time>2015-11-22T08:43:27Z</time>
      </trkpt>
      <trkpt lat="43.56002" lon="3.31649">
        <ele>302</ele>
        <time>2015-11-22T08:43:29Z</time>
      </trkpt>
      <trkpt lat="43.56009" lon="3.31658">
        <ele>302</ele>
        <time>2015-11-22T08:43:31Z</time>
      </trkpt>
      <trkpt lat="43.56011" lon="3.31661">
        <ele>302</ele>
        <time>2015-11-22T08:43:32Z</time>
      </trkpt>
      <trkpt lat="43.56012" lon="3.31663">
        <ele>302.5</ele>
        <time>2015-11-22T08:43:33Z</time>
      </trkpt>
      <trkpt lat="43.56017" lon="3.31676">
        <ele>304</ele>
        <time>2015-11-22T08:43:35Z</time>
      </trkpt>
      <trkpt lat="43.56017" lon="3.3168">
        <ele>304.5</ele>
        <time>2015-11-22T08:43:36Z</time>
      </trkpt>
      <trkpt lat="43.56018" lon="3.31686">
        <ele>304.5</ele>
        <time>2015-11-22T08:43:37Z</time>
      </trkpt>
      <trkpt lat="43.56017" lon="3.3169">
        <ele>305</ele>
        <time>2015-11-22T08:43:38Z</time>
      </trkpt>
      <trkpt lat="43.56014" lon="3.31692">
        <ele>305</ele>
        <time>2015-11-22T08:43:39Z</time>
      </trkpt>
      <trkpt lat="43.56028" lon="3.31706">
        <ele>305.5</ele>
        <time>2015-11-22T08:43:42Z</time>
      </trkpt>
      <trkpt lat="43.56033" lon="3.31709">
        <ele>308</ele>
        <time>2015-11-22T08:43:45Z</time>
      </trkpt>
      <trkpt lat="43.56037" lon="3.31712">
        <ele>309</ele>
        <time>2015-11-22T08:43:46Z</time>
      </trkpt>
      <trkpt lat="43.56041" lon="3.31715">
        <ele>309.5</ele>
        <time>2015-11-22T08:43:47Z</time>
      </trkpt>
      <trkpt lat="43.56044" lon="3.31719">
        <ele>310</ele>
        <time>2015-11-22T08:43:48Z</time>
      </trkpt>
      <trkpt lat="43.56047" lon="3.31725">
        <ele>310</ele>
        <time>2015-11-22T08:43:49Z</time>
      </trkpt>
      <trkpt lat="43.56051" lon="3.31725">
        <ele>310.5</ele>
        <time>2015-11-22T08:43:50Z</time>
      </trkpt>
      <trkpt lat="43.56055" lon="3.31728">
        <ele>311</ele>
        <time>2015-11-22T08:43:51Z</time>
      </trkpt>
      <trkpt lat="43.56059" lon="3.31733">
        <ele>312</ele>
        <time>2015-11-22T08:43:52Z</time>
      </trkpt>
      <trkpt lat="43.56061" lon="3.31737">
        <ele>312.5</ele>
        <time>2015-11-22T08:43:53Z</time>
      </trkpt>
      <trkpt lat="43.56062" lon="3.31754">
        <ele>312</ele>
        <time>2015-11-22T08:43:55Z</time>
      </trkpt>
      <trkpt lat="43.56062" lon="3.3177">
        <ele>312</ele>
        <time>2015-11-22T08:43:57Z</time>
      </trkpt>
      <trkpt lat="43.56069" lon="3.31786">
        <ele>312</ele>
        <time>2015-11-22T08:43:59Z</time>
      </trkpt>
      <trkpt lat="43.56073" lon="3.31791">
        <ele>312</ele>
        <time>2015-11-22T08:44:00Z</time>
      </trkpt>
      <trkpt lat="43.56078" lon="3.31796">
        <ele>312</ele>
        <time>2015-11-22T08:44:01Z</time>
      </trkpt>
      <trkpt lat="43.5609" lon="3.31805">
        <ele>312.5</ele>
        <time>2015-11-22T08:44:03Z</time>
      </trkpt>
      <trkpt lat="43.56094" lon="3.31809">
        <ele>312.5</ele>
        <time>2015-11-22T08:44:04Z</time>
      </trkpt>
      <trkpt lat="43.56097" lon="3.31814">
        <ele>312.5</ele>
        <time>2015-11-22T08:44:05Z</time>
      </trkpt>
      <trkpt lat="43.56104" lon="3.31831">
        <ele>313</ele>
        <time>2015-11-22T08:44:07Z</time>
      </trkpt>
      <trkpt lat="43.56114" lon="3.3184">
        <ele>313</ele>
        <time>2015-11-22T08:44:09Z</time>
      </trkpt>
      <trkpt lat="43.56116" lon="3.31845">
        <ele>313</ele>
        <time>2015-11-22T08:44:10Z</time>
      </trkpt>
      <trkpt lat="43.56124" lon="3.31861">
        <ele>311.5</ele>
        <time>2015-11-22T08:44:12Z</time>
      </trkpt>
      <trkpt lat="43.56128" lon="3.31867">
        <ele>311</ele>
        <time>2015-11-22T08:44:13Z</time>
      </trkpt>
      <trkpt lat="43.56131" lon="3.31872">
        <ele>311</ele>
        <time>2015-11-22T08:44:14Z</time>
      </trkpt>
      <trkpt lat="43.56135" lon="3.31878">
        <ele>311</ele>
        <time>2015-11-22T08:44:15Z</time>
      </trkpt>
      <trkpt lat="43.56134" lon="3.31883">
        <ele>311</ele>
        <time>2015-11-22T08:44:16Z</time>
      </trkpt>
      <trkpt lat="43.56136" lon="3.31889">
        <ele>311</ele>
        <time>2015-11-22T08:44:17Z</time>
      </trkpt>
      <trkpt lat="43.56141" lon="3.31892">
        <ele>310.5</ele>
        <time>2015-11-22T08:44:19Z</time>
      </trkpt>
      <trkpt lat="43.56143" lon="3.31892">
        <ele>310</ele>
        <time>2015-11-22T08:44:20Z</time>
      </trkpt>
      <trkpt lat="43.56145" lon="3.31894">
        <ele>310</ele>
        <time>2015-11-22T08:44:21Z</time>
      </trkpt>
      <trkpt lat="43.56148" lon="3.319">
        <ele>310</ele>
        <time>2015-11-22T08:44:23Z</time>
      </trkpt>
      <trkpt lat="43.56156" lon="3.31915">
        <ele>307.5</ele>
        <time>2015-11-22T08:44:25Z</time>
      </trkpt>
      <trkpt lat="43.56158" lon="3.31917">
        <ele>307.5</ele>
        <time>2015-11-22T08:44:26Z</time>
      </trkpt>
      <trkpt lat="43.56159" lon="3.3192">
        <ele>307.5</ele>
        <time>2015-11-22T08:44:27Z</time>
      </trkpt>
      <trkpt lat="43.56161" lon="3.31923">
        <ele>307.5</ele>
        <time>2015-11-22T08:44:28Z</time>
      </trkpt>
      <trkpt lat="43.56164" lon="3.31927">
        <ele>307.5</ele>
        <time>2015-11-22T08:44:29Z</time>
      </trkpt>
      <trkpt lat="43.56166" lon="3.31931">
        <ele>307.5</ele>
        <time>2015-11-22T08:44:30Z</time>
      </trkpt>
      <trkpt lat="43.56168" lon="3.31938">
        <ele>307.5</ele>
        <time>2015-11-22T08:44:31Z</time>
      </trkpt>
      <trkpt lat="43.56177" lon="3.31951">
        <ele>306</ele>
        <time>2015-11-22T08:44:33Z</time>
      </trkpt>
      <trkpt lat="43.56179" lon="3.31962">
        <ele>306</ele>
        <time>2015-11-22T08:44:35Z</time>
      </trkpt>
      <trkpt lat="43.56182" lon="3.3197">
        <ele>306</ele>
        <time>2015-11-22T08:44:37Z</time>
      </trkpt>
      <trkpt lat="43.56179" lon="3.31978">
        <ele>306</ele>
        <time>2015-11-22T08:44:39Z</time>
      </trkpt>
      <trkpt lat="43.56181" lon="3.31989">
        <ele>304.5</ele>
        <time>2015-11-22T08:44:41Z</time>
      </trkpt>
      <trkpt lat="43.56189" lon="3.31999">
        <ele>301</ele>
        <time>2015-11-22T08:44:43Z</time>
      </trkpt>
      <trkpt lat="43.56191" lon="3.32003">
        <ele>301</ele>
        <time>2015-11-22T08:44:45Z</time>
      </trkpt>
      <trkpt lat="43.56193" lon="3.32008">
        <ele>300.5</ele>
        <time>2015-11-22T08:44:47Z</time>
      </trkpt>
      <trkpt lat="43.56198" lon="3.32017">
        <ele>300</ele>
        <time>2015-11-22T08:44:49Z</time>
      </trkpt>
      <trkpt lat="43.56204" lon="3.32024">
        <ele>300</ele>
        <time>2015-11-22T08:44:52Z</time>
      </trkpt>
      <trkpt lat="43.56205" lon="3.32026">
        <ele>300</ele>
        <time>2015-11-22T08:44:54Z</time>
      </trkpt>
      <trkpt lat="43.56212" lon="3.32033">
        <ele>299.5</ele>
        <time>2015-11-22T08:44:56Z</time>
      </trkpt>
      <trkpt lat="43.56242" lon="3.32064">
        <ele>296.5</ele>
        <time>2015-11-22T08:45:00Z</time>
      </trkpt>
      <trkpt lat="43.56249" lon="3.32081">
        <ele>294.5</ele>
        <time>2015-11-22T08:45:02Z</time>
      </trkpt>
      <trkpt lat="43.56249" lon="3.32096">
        <ele>294.5</ele>
        <time>2015-11-22T08:45:04Z</time>
      </trkpt>
      <trkpt lat="43.56255" lon="3.32115">
        <ele>292.5</ele>
        <time>2015-11-22T08:45:06Z</time>
      </trkpt>
      <trkpt lat="43.56253" lon="3.32129">
        <ele>292</ele>
        <time>2015-11-22T08:45:08Z</time>
      </trkpt>
      <trkpt lat="43.56278" lon="3.32154">
        <ele>289</ele>
        <time>2015-11-22T08:45:12Z</time>
      </trkpt>
      <trkpt lat="43.56293" lon="3.32175">
        <ele>287.5</ele>
        <time>2015-11-22T08:45:14Z</time>
      </trkpt>
      <trkpt lat="43.56301" lon="3.32185">
        <ele>287</ele>
        <time>2015-11-22T08:45:16Z</time>
      </trkpt>
      <trkpt lat="43.56302" lon="3.32196">
        <ele>287</ele>
        <time>2015-11-22T08:45:19Z</time>
      </trkpt>
      <trkpt lat="43.56304" lon="3.32203">
        <ele>286.5</ele>
        <time>2015-11-22T08:45:21Z</time>
      </trkpt>
      <trkpt lat="43.5631" lon="3.32223">
        <ele>266</ele>
        <time>2015-11-22T08:45:36Z</time>
      </trkpt>
      <trkpt lat="43.56315" lon="3.32225">
        <ele>259</ele>
        <time>2015-11-22T08:45:42Z</time>
      </trkpt>
      <trkpt lat="43.56314" lon="3.32226">
        <ele>260.5</ele>
        <time>2015-11-22T08:45:45Z</time>
      </trkpt>
      <trkpt lat="43.56309" lon="3.32231">
        <ele>263.5</ele>
        <time>2015-11-22T08:45:49Z</time>
      </trkpt>
      <trkpt lat="43.56307" lon="3.3224">
        <ele>262</ele>
        <time>2015-11-22T08:46:05Z</time>
      </trkpt>
      <trkpt lat="43.56312" lon="3.32246">
        <ele>255.5</ele>
        <time>2015-11-22T08:46:14Z</time>
      </trkpt>
      <trkpt lat="43.56312" lon="3.32246">
        <ele>253</ele>
        <time>2015-11-22T08:46:24Z</time>
      </trkpt>
      <trkpt lat="43.56311" lon="3.32249">
        <ele>248.5</ele>
        <time>2015-11-22T08:46:27Z</time>
      </trkpt>
      <trkpt lat="43.5631" lon="3.32252">
        <ele>241</ele>
        <time>2015-11-22T08:46:33Z</time>
      </trkpt>
      <trkpt lat="43.56308" lon="3.32256">
        <ele>237.5</ele>
        <time>2015-11-22T08:46:36Z</time>
      </trkpt>
      <trkpt lat="43.56309" lon="3.32258">
        <ele>237</ele>
        <time>2015-11-22T08:46:38Z</time>
      </trkpt>
      <trkpt lat="43.5631" lon="3.32261">
        <ele>234.5</ele>
        <time>2015-11-22T08:46:49Z</time>
      </trkpt>
      <trkpt lat="43.56312" lon="3.32256">
        <ele>233</ele>
        <time>2015-11-22T08:47:03Z</time>
      </trkpt>
      <trkpt lat="43.56312" lon="3.32253">
        <ele>231.5</ele>
        <time>2015-11-22T08:47:34Z</time>
      </trkpt>
      <trkpt lat="43.56313" lon="3.32251">
        <ele>231</ele>
        <time>2015-11-22T08:47:56Z</time>
      </trkpt>
      <trkpt lat="43.56312" lon="3.32251">
        <ele>230.5</ele>
        <time>2015-11-22T08:48:03Z</time>
      </trkpt>
      <trkpt lat="43.56312" lon="3.32251">
        <ele>230.5</ele>
        <time>2015-11-22T08:48:06Z</time>
      </trkpt>
      <trkpt lat="43.56311" lon="3.32251">
        <ele>230.5</ele>
        <time>2015-11-22T08:48:10Z</time>
      </trkpt>
      <trkpt lat="43.56313" lon="3.3225">
        <ele>230.5</ele>
        <time>2015-11-22T08:48:13Z</time>
      </trkpt>
      <trkpt lat="43.56313" lon="3.32251">
        <ele>228</ele>
        <time>2015-11-22T08:48:34Z</time>
      </trkpt>
      <trkpt lat="43.56314" lon="3.32251">
        <ele>227.5</ele>
        <time>2015-11-22T08:48:52Z</time>
      </trkpt>
      <trkpt lat="43.56312" lon="3.32256">
        <ele>227.5</ele>
        <time>2015-11-22T08:48:55Z</time>
      </trkpt>
      <trkpt lat="43.56311" lon="3.32261">
        <ele>228.5</ele>
        <time>2015-11-22T08:48:58Z</time>
      </trkpt>
      <trkpt lat="43.56307" lon="3.32263">
        <ele>226.5</ele>
        <time>2015-11-22T08:49:00Z</time>
      </trkpt>
      <trkpt lat="43.56305" lon="3.32267">
        <ele>227</ele>
        <time>2015-11-22T08:49:01Z</time>
      </trkpt>
      <trkpt lat="43.56304" lon="3.32271">
        <ele>228</ele>
        <time>2015-11-22T08:49:03Z</time>
      </trkpt>
      <trkpt lat="43.56303" lon="3.32275">
        <ele>227.5</ele>
        <time>2015-11-22T08:49:05Z</time>
      </trkpt>
      <trkpt lat="43.56302" lon="3.32281">
        <ele>228.5</ele>
        <time>2015-11-22T08:49:07Z</time>
      </trkpt>
      <trkpt lat="43.56299" lon="3.32287">
        <ele>229</ele>
        <time>2015-11-22T08:49:09Z</time>
      </trkpt>
      <trkpt lat="43.56298" lon="3.32293">
        <ele>230</ele>
        <time>2015-11-22T08:49:11Z</time>
      </trkpt>
      <trkpt lat="43.56297" lon="3.32298">
        <ele>229.5</ele>
        <time>2015-11-22T08:49:13Z</time>
      </trkpt>
      <trkpt lat="43.56296" lon="3.32304">
        <ele>230.5</ele>
        <time>2015-11-22T08:49:15Z</time>
      </trkpt>
      <trkpt lat="43.56295" lon="3.32308">
        <ele>231.5</ele>
        <time>2015-11-22T08:49:17Z</time>
      </trkpt>
      <trkpt lat="43.56294" lon="3.32313">
        <ele>233</ele>
        <time>2015-11-22T08:49:20Z</time>
      </trkpt>
      <trkpt lat="43.56292" lon="3.32318">
        <ele>233.5</ele>
        <time>2015-11-22T08:49:21Z</time>
      </trkpt>
      <trkpt lat="43.5629" lon="3.32322">
        <ele>233.5</ele>
        <time>2015-11-22T08:49:24Z</time>
      </trkpt>
      <trkpt lat="43.56288" lon="3.32327">
        <ele>233.5</ele>
        <time>2015-11-22T08:49:26Z</time>
      </trkpt>
      <trkpt lat="43.56286" lon="3.32333">
        <ele>233.5</ele>
        <time>2015-11-22T08:49:27Z</time>
      </trkpt>
      <trkpt lat="43.56285" lon="3.32338">
        <ele>233</ele>
        <time>2015-11-22T08:49:29Z</time>
      </trkpt>
      <trkpt lat="43.56283" lon="3.32343">
        <ele>233</ele>
        <time>2015-11-22T08:49:31Z</time>
      </trkpt>
      <trkpt lat="43.56283" lon="3.32349">
        <ele>234.5</ele>
        <time>2015-11-22T08:49:33Z</time>
      </trkpt>
      <trkpt lat="43.56283" lon="3.32356">
        <ele>235.5</ele>
        <time>2015-11-22T08:49:35Z</time>
      </trkpt>
      <trkpt lat="43.56283" lon="3.32366">
        <ele>236.5</ele>
        <time>2015-11-22T08:49:37Z</time>
      </trkpt>
      <trkpt lat="43.56283" lon="3.32376">
        <ele>237</ele>
        <time>2015-11-22T08:49:39Z</time>
      </trkpt>
      <trkpt lat="43.56282" lon="3.32388">
        <ele>237</ele>
        <time>2015-11-22T08:49:41Z</time>
      </trkpt>
      <trkpt lat="43.56277" lon="3.324">
        <ele>238</ele>
        <time>2015-11-22T08:49:43Z</time>
      </trkpt>
      <trkpt lat="43.56275" lon="3.32412">
        <ele>238</ele>
        <time>2015-11-22T08:49:45Z</time>
      </trkpt>
      <trkpt lat="43.56273" lon="3.32424">
        <ele>238.5</ele>
        <time>2015-11-22T08:49:47Z</time>
      </trkpt>
      <trkpt lat="43.56273" lon="3.32435">
        <ele>238.5</ele>
        <time>2015-11-22T08:49:49Z</time>
      </trkpt>
      <trkpt lat="43.56272" lon="3.32447">
        <ele>236.5</ele>
        <time>2015-11-22T08:49:51Z</time>
      </trkpt>
      <trkpt lat="43.56272" lon="3.32458">
        <ele>236.5</ele>
        <time>2015-11-22T08:49:53Z</time>
      </trkpt>
      <trkpt lat="43.5627" lon="3.32471">
        <ele>235</ele>
        <time>2015-11-22T08:49:56Z</time>
      </trkpt>
      <trkpt lat="43.5627" lon="3.32485">
        <ele>235</ele>
        <time>2015-11-22T08:49:57Z</time>
      </trkpt>
      <trkpt lat="43.56269" lon="3.32499">
        <ele>234</ele>
        <time>2015-11-22T08:49:59Z</time>
      </trkpt>
      <trkpt lat="43.56267" lon="3.32513">
        <ele>232</ele>
        <time>2015-11-22T08:50:01Z</time>
      </trkpt>
      <trkpt lat="43.56266" lon="3.32524">
        <ele>231.5</ele>
        <time>2015-11-22T08:50:04Z</time>
      </trkpt>
      <trkpt lat="43.56265" lon="3.32536">
        <ele>231.5</ele>
        <time>2015-11-22T08:50:06Z</time>
      </trkpt>
      <trkpt lat="43.56266" lon="3.32555">
        <ele>232</ele>
        <time>2015-11-22T08:50:08Z</time>
      </trkpt>
      <trkpt lat="43.56269" lon="3.32566">
        <ele>232</ele>
        <time>2015-11-22T08:50:10Z</time>
      </trkpt>
      <trkpt lat="43.56271" lon="3.32579">
        <ele>232</ele>
        <time>2015-11-22T08:50:12Z</time>
      </trkpt>
      <trkpt lat="43.56272" lon="3.32593">
        <ele>231.5</ele>
        <time>2015-11-22T08:50:14Z</time>
      </trkpt>
      <trkpt lat="43.56273" lon="3.32608">
        <ele>231</ele>
        <time>2015-11-22T08:50:16Z</time>
      </trkpt>
      <trkpt lat="43.56275" lon="3.32624">
        <ele>231</ele>
        <time>2015-11-22T08:50:18Z</time>
      </trkpt>
      <trkpt lat="43.56276" lon="3.32642">
        <ele>230</ele>
        <time>2015-11-22T08:50:20Z</time>
      </trkpt>
      <trkpt lat="43.56277" lon="3.3266">
        <ele>230</ele>
        <time>2015-11-22T08:50:22Z</time>
      </trkpt>
      <trkpt lat="43.56278" lon="3.32679">
        <ele>229</ele>
        <time>2015-11-22T08:50:24Z</time>
      </trkpt>
      <trkpt lat="43.56283" lon="3.32697">
        <ele>228.5</ele>
        <time>2015-11-22T08:50:26Z</time>
      </trkpt>
      <trkpt lat="43.56284" lon="3.32717">
        <ele>227.5</ele>
        <time>2015-11-22T08:50:28Z</time>
      </trkpt>
      <trkpt lat="43.56286" lon="3.32737">
        <ele>226</ele>
        <time>2015-11-22T08:50:30Z</time>
      </trkpt>
      <trkpt lat="43.56282" lon="3.32757">
        <ele>226</ele>
        <time>2015-11-22T08:50:32Z</time>
      </trkpt>
      <trkpt lat="43.56276" lon="3.32773">
        <ele>225.5</ele>
        <time>2015-11-22T08:50:34Z</time>
      </trkpt>
      <trkpt lat="43.56268" lon="3.32789">
        <ele>225.5</ele>
        <time>2015-11-22T08:50:36Z</time>
      </trkpt>
      <trkpt lat="43.56268" lon="3.32808">
        <ele>225.5</ele>
        <time>2015-11-22T08:50:38Z</time>
      </trkpt>
      <trkpt lat="43.56269" lon="3.32828">
        <ele>225</ele>
        <time>2015-11-22T08:50:40Z</time>
      </trkpt>
      <trkpt lat="43.56269" lon="3.32847">
        <ele>225</ele>
        <time>2015-11-22T08:50:42Z</time>
      </trkpt>
      <trkpt lat="43.5627" lon="3.32866">
        <ele>224.5</ele>
        <time>2015-11-22T08:50:44Z</time>
      </trkpt>
      <trkpt lat="43.56273" lon="3.32887">
        <ele>224</ele>
        <time>2015-11-22T08:50:47Z</time>
      </trkpt>
      <trkpt lat="43.5628" lon="3.32919">
        <ele>224</ele>
        <time>2015-11-22T08:50:49Z</time>
      </trkpt>
      <trkpt lat="43.5628" lon="3.32938">
        <ele>224.5</ele>
        <time>2015-11-22T08:50:51Z</time>
      </trkpt>
      <trkpt lat="43.56252" lon="3.32961">
        <ele>224</ele>
        <time>2015-11-22T08:50:56Z</time>
      </trkpt>
      <trkpt lat="43.56286" lon="3.32974">
        <ele>227.5</ele>
        <time>2015-11-22T08:51:01Z</time>
      </trkpt>
      <trkpt lat="43.56293" lon="3.32979">
        <ele>229.5</ele>
        <time>2015-11-22T08:51:03Z</time>
      </trkpt>
      <trkpt lat="43.56296" lon="3.32974">
        <ele>229</ele>
        <time>2015-11-22T08:51:05Z</time>
      </trkpt>
      <trkpt lat="43.56308" lon="3.3296">
        <ele>227</ele>
        <time>2015-11-22T08:51:07Z</time>
      </trkpt>
      <trkpt lat="43.56317" lon="3.32952">
        <ele>227</ele>
        <time>2015-11-22T08:51:09Z</time>
      </trkpt>
      <trkpt lat="43.56324" lon="3.32943">
        <ele>227</ele>
        <time>2015-11-22T08:51:12Z</time>
      </trkpt>
      <trkpt lat="43.56331" lon="3.32936">
        <ele>226.5</ele>
        <time>2015-11-22T08:51:14Z</time>
      </trkpt>
      <trkpt lat="43.56336" lon="3.32929">
        <ele>227</ele>
        <time>2015-11-22T08:51:16Z</time>
      </trkpt>
      <trkpt lat="43.56341" lon="3.32924">
        <ele>226</ele>
        <time>2015-11-22T08:51:18Z</time>
      </trkpt>
      <trkpt lat="43.56345" lon="3.3292">
        <ele>227</ele>
        <time>2015-11-22T08:51:20Z</time>
      </trkpt>
      <trkpt lat="43.5635" lon="3.32915">
        <ele>226</ele>
        <time>2015-11-22T08:51:22Z</time>
      </trkpt>
      <trkpt lat="43.56354" lon="3.3291">
        <ele>224.5</ele>
        <time>2015-11-22T08:51:24Z</time>
      </trkpt>
      <trkpt lat="43.56358" lon="3.32905">
        <ele>224</ele>
        <time>2015-11-22T08:51:26Z</time>
      </trkpt>
      <trkpt lat="43.56362" lon="3.329">
        <ele>223.5</ele>
        <time>2015-11-22T08:51:28Z</time>
      </trkpt>
      <trkpt lat="43.56365" lon="3.32896">
        <ele>222</ele>
        <time>2015-11-22T08:51:30Z</time>
      </trkpt>
      <trkpt lat="43.56369" lon="3.32892">
        <ele>219.5</ele>
        <time>2015-11-22T08:51:32Z</time>
      </trkpt>
      <trkpt lat="43.56372" lon="3.32886">
        <ele>218</ele>
        <time>2015-11-22T08:51:34Z</time>
      </trkpt>
      <trkpt lat="43.56374" lon="3.3288">
        <ele>217.5</ele>
        <time>2015-11-22T08:51:36Z</time>
      </trkpt>
      <trkpt lat="43.56376" lon="3.32874">
        <ele>217</ele>
        <time>2015-11-22T08:51:38Z</time>
      </trkpt>
      <trkpt lat="43.5638" lon="3.32872">
        <ele>217.5</ele>
        <time>2015-11-22T08:51:41Z</time>
      </trkpt>
      <trkpt lat="43.56383" lon="3.32868">
        <ele>216</ele>
        <time>2015-11-22T08:51:42Z</time>
      </trkpt>
      <trkpt lat="43.56387" lon="3.32864">
        <ele>216</ele>
        <time>2015-11-22T08:51:45Z</time>
      </trkpt>
      <trkpt lat="43.56391" lon="3.32862">
        <ele>218.5</ele>
        <time>2015-11-22T08:51:47Z</time>
      </trkpt>
      <trkpt lat="43.56395" lon="3.32859">
        <ele>218.5</ele>
        <time>2015-11-22T08:51:49Z</time>
      </trkpt>
      <trkpt lat="43.56399" lon="3.32857">
        <ele>218.5</ele>
        <time>2015-11-22T08:51:51Z</time>
      </trkpt>
      <trkpt lat="43.56404" lon="3.32855">
        <ele>216.5</ele>
        <time>2015-11-22T08:51:54Z</time>
      </trkpt>
      <trkpt lat="43.5641" lon="3.32852">
        <ele>217</ele>
        <time>2015-11-22T08:51:56Z</time>
      </trkpt>
      <trkpt lat="43.56416" lon="3.32848">
        <ele>219</ele>
        <time>2015-11-22T08:51:58Z</time>
      </trkpt>
      <trkpt lat="43.5642" lon="3.32845">
        <ele>221</ele>
        <time>2015-11-22T08:52:00Z</time>
      </trkpt>
      <trkpt lat="43.56425" lon="3.32844">
        <ele>221.5</ele>
        <time>2015-11-22T08:52:02Z</time>
      </trkpt>
      <trkpt lat="43.56429" lon="3.32845">
        <ele>224</ele>
        <time>2015-11-22T08:52:05Z</time>
      </trkpt>
      <trkpt lat="43.56431" lon="3.32849">
        <ele>224.5</ele>
        <time>2015-11-22T08:52:07Z</time>
      </trkpt>
      <trkpt lat="43.56436" lon="3.32851">
        <ele>227</ele>
        <time>2015-11-22T08:52:09Z</time>
      </trkpt>
      <trkpt lat="43.5644" lon="3.32846">
        <ele>229.5</ele>
        <time>2015-11-22T08:52:11Z</time>
      </trkpt>
      <trkpt lat="43.56444" lon="3.32842">
        <ele>230</ele>
        <time>2015-11-22T08:52:13Z</time>
      </trkpt>
      <trkpt lat="43.56448" lon="3.32838">
        <ele>230</ele>
        <time>2015-11-22T08:52:15Z</time>
      </trkpt>
      <trkpt lat="43.56451" lon="3.32836">
        <ele>230</ele>
        <time>2015-11-22T08:52:17Z</time>
      </trkpt>
      <trkpt lat="43.56453" lon="3.32832">
        <ele>233</ele>
        <time>2015-11-22T08:52:19Z</time>
      </trkpt>
      <trkpt lat="43.56455" lon="3.32828">
        <ele>236</ele>
        <time>2015-11-22T08:52:22Z</time>
      </trkpt>
      <trkpt lat="43.56457" lon="3.32825">
        <ele>238</ele>
        <time>2015-11-22T08:52:24Z</time>
      </trkpt>
      <trkpt lat="43.56465" lon="3.32823">
        <ele>238.5</ele>
        <time>2015-11-22T08:52:26Z</time>
      </trkpt>
      <trkpt lat="43.56469" lon="3.3282">
        <ele>239.5</ele>
        <time>2015-11-22T08:52:28Z</time>
      </trkpt>
      <trkpt lat="43.56474" lon="3.32817">
        <ele>240</ele>
        <time>2015-11-22T08:52:30Z</time>
      </trkpt>
      <trkpt lat="43.56478" lon="3.32814">
        <ele>241</ele>
        <time>2015-11-22T08:52:33Z</time>
      </trkpt>
      <trkpt lat="43.56486" lon="3.32813">
        <ele>237.5</ele>
        <time>2015-11-22T08:52:35Z</time>
      </trkpt>
      <trkpt lat="43.56489" lon="3.32807">
        <ele>241</ele>
        <time>2015-11-22T08:52:37Z</time>
      </trkpt>
      <trkpt lat="43.56494" lon="3.32805">
        <ele>242</ele>
        <time>2015-11-22T08:52:39Z</time>
      </trkpt>
      <trkpt lat="43.56497" lon="3.32803">
        <ele>242</ele>
        <time>2015-11-22T08:52:41Z</time>
      </trkpt>
      <trkpt lat="43.56501" lon="3.328">
        <ele>241</ele>
        <time>2015-11-22T08:52:43Z</time>
      </trkpt>
      <trkpt lat="43.56507" lon="3.32797">
        <ele>239.5</ele>
        <time>2015-11-22T08:52:45Z</time>
      </trkpt>
      <trkpt lat="43.56513" lon="3.32794">
        <ele>239.5</ele>
        <time>2015-11-22T08:52:48Z</time>
      </trkpt>
      <trkpt lat="43.5652" lon="3.32792">
        <ele>237.5</ele>
        <time>2015-11-22T08:52:50Z</time>
      </trkpt>
      <trkpt lat="43.56531" lon="3.32786">
        <ele>236</ele>
        <time>2015-11-22T08:52:52Z</time>
      </trkpt>
      <trkpt lat="43.56536" lon="3.32782">
        <ele>236</ele>
        <time>2015-11-22T08:52:54Z</time>
      </trkpt>
      <trkpt lat="43.56542" lon="3.32777">
        <ele>237</ele>
        <time>2015-11-22T08:52:56Z</time>
      </trkpt>
      <trkpt lat="43.5655" lon="3.32773">
        <ele>237</ele>
        <time>2015-11-22T08:52:58Z</time>
      </trkpt>
      <trkpt lat="43.56556" lon="3.32768">
        <ele>237.5</ele>
        <time>2015-11-22T08:53:01Z</time>
      </trkpt>
      <trkpt lat="43.56563" lon="3.32764">
        <ele>237</ele>
        <time>2015-11-22T08:53:03Z</time>
      </trkpt>
      <trkpt lat="43.56571" lon="3.32758">
        <ele>238</ele>
        <time>2015-11-22T08:53:05Z</time>
      </trkpt>
      <trkpt lat="43.56573" lon="3.32749">
        <ele>245</ele>
        <time>2015-11-22T08:53:07Z</time>
      </trkpt>
      <trkpt lat="43.56579" lon="3.32746">
        <ele>244.5</ele>
        <time>2015-11-22T08:53:09Z</time>
      </trkpt>
      <trkpt lat="43.56584" lon="3.32742">
        <ele>245.5</ele>
        <time>2015-11-22T08:53:11Z</time>
      </trkpt>
      <trkpt lat="43.56589" lon="3.32739">
        <ele>245</ele>
        <time>2015-11-22T08:53:14Z</time>
      </trkpt>
      <trkpt lat="43.56594" lon="3.32735">
        <ele>246</ele>
        <time>2015-11-22T08:53:16Z</time>
      </trkpt>
      <trkpt lat="43.56602" lon="3.3273">
        <ele>244.5</ele>
        <time>2015-11-22T08:53:18Z</time>
      </trkpt>
      <trkpt lat="43.56606" lon="3.32724">
        <ele>245.5</ele>
        <time>2015-11-22T08:53:21Z</time>
      </trkpt>
      <trkpt lat="43.56611" lon="3.32722">
        <ele>244.5</ele>
        <time>2015-11-22T08:53:22Z</time>
      </trkpt>
      <trkpt lat="43.56615" lon="3.32718">
        <ele>245.5</ele>
        <time>2015-11-22T08:53:24Z</time>
      </trkpt>
      <trkpt lat="43.56618" lon="3.32713">
        <ele>248</ele>
        <time>2015-11-22T08:53:26Z</time>
      </trkpt>
      <trkpt lat="43.5662" lon="3.32707">
        <ele>251</ele>
        <time>2015-11-22T08:53:28Z</time>
      </trkpt>
      <trkpt lat="43.56623" lon="3.32702">
        <ele>253.5</ele>
        <time>2015-11-22T08:53:30Z</time>
      </trkpt>
      <trkpt lat="43.56623" lon="3.32693">
        <ele>262</ele>
        <time>2015-11-22T08:53:32Z</time>
      </trkpt>
      <trkpt lat="43.56627" lon="3.32689">
        <ele>263</ele>
        <time>2015-11-22T08:53:34Z</time>
      </trkpt>
      <trkpt lat="43.5663" lon="3.32684">
        <ele>265.5</ele>
        <time>2015-11-22T08:53:37Z</time>
      </trkpt>
      <trkpt lat="43.56635" lon="3.32675">
        <ele>268.5</ele>
        <time>2015-11-22T08:53:39Z</time>
      </trkpt>
      <trkpt lat="43.5664" lon="3.32672">
        <ele>268</ele>
        <time>2015-11-22T08:53:41Z</time>
      </trkpt>
      <trkpt lat="43.56646" lon="3.32667">
        <ele>268.5</ele>
        <time>2015-11-22T08:53:43Z</time>
      </trkpt>
      <trkpt lat="43.56651" lon="3.32663">
        <ele>267</ele>
        <time>2015-11-22T08:53:45Z</time>
      </trkpt>
      <trkpt lat="43.56655" lon="3.32657">
        <ele>269.5</ele>
        <time>2015-11-22T08:53:47Z</time>
      </trkpt>
      <trkpt lat="43.56661" lon="3.32653">
        <ele>270</ele>
        <time>2015-11-22T08:53:49Z</time>
      </trkpt>
      <trkpt lat="43.56666" lon="3.32648">
        <ele>270.5</ele>
        <time>2015-11-22T08:53:51Z</time>
      </trkpt>
      <trkpt lat="43.56669" lon="3.32643">
        <ele>273.5</ele>
        <time>2015-11-22T08:53:54Z</time>
      </trkpt>
      <trkpt lat="43.56676" lon="3.32637">
        <ele>272.5</ele>
        <time>2015-11-22T08:53:56Z</time>
      </trkpt>
      <trkpt lat="43.56681" lon="3.32634">
        <ele>272.5</ele>
        <time>2015-11-22T08:53:59Z</time>
      </trkpt>
      <trkpt lat="43.56685" lon="3.3263">
        <ele>274</ele>
        <time>2015-11-22T08:54:01Z</time>
      </trkpt>
      <trkpt lat="43.56688" lon="3.32627">
        <ele>273.5</ele>
        <time>2015-11-22T08:54:03Z</time>
      </trkpt>
      <trkpt lat="43.56691" lon="3.32622">
        <ele>271.5</ele>
        <time>2015-11-22T08:54:05Z</time>
      </trkpt>
      <trkpt lat="43.56696" lon="3.32619">
        <ele>271</ele>
        <time>2015-11-22T08:54:07Z</time>
      </trkpt>
      <trkpt lat="43.56703" lon="3.32617">
        <ele>270</ele>
        <time>2015-11-22T08:54:09Z</time>
      </trkpt>
      <trkpt lat="43.56712" lon="3.32619">
        <ele>263</ele>
        <time>2015-11-22T08:54:12Z</time>
      </trkpt>
      <trkpt lat="43.56719" lon="3.32618">
        <ele>260</ele>
        <time>2015-11-22T08:54:14Z</time>
      </trkpt>
      <trkpt lat="43.56724" lon="3.32616">
        <ele>260.5</ele>
        <time>2015-11-22T08:54:16Z</time>
      </trkpt>
      <trkpt lat="43.5673" lon="3.32612">
        <ele>261</ele>
        <time>2015-11-22T08:54:18Z</time>
      </trkpt>
      <trkpt lat="43.56733" lon="3.32609">
        <ele>262</ele>
        <time>2015-11-22T08:54:21Z</time>
      </trkpt>
      <trkpt lat="43.56735" lon="3.32604">
        <ele>264.5</ele>
        <time>2015-11-22T08:54:23Z</time>
      </trkpt>
      <trkpt lat="43.56741" lon="3.326">
        <ele>267.5</ele>
        <time>2015-11-22T08:54:25Z</time>
      </trkpt>
      <trkpt lat="43.56745" lon="3.32597">
        <ele>269</ele>
        <time>2015-11-22T08:54:27Z</time>
      </trkpt>
      <trkpt lat="43.56752" lon="3.32595">
        <ele>266</ele>
        <time>2015-11-22T08:54:29Z</time>
      </trkpt>
      <trkpt lat="43.56756" lon="3.32595">
        <ele>264.5</ele>
        <time>2015-11-22T08:54:32Z</time>
      </trkpt>
      <trkpt lat="43.5676" lon="3.32593">
        <ele>264</ele>
        <time>2015-11-22T08:54:33Z</time>
      </trkpt>
      <trkpt lat="43.56764" lon="3.32592">
        <ele>264.5</ele>
        <time>2015-11-22T08:54:35Z</time>
      </trkpt>
      <trkpt lat="43.5677" lon="3.32591">
        <ele>264</ele>
        <time>2015-11-22T08:54:37Z</time>
      </trkpt>
      <trkpt lat="43.56775" lon="3.32588">
        <ele>265.5</ele>
        <time>2015-11-22T08:54:40Z</time>
      </trkpt>
      <trkpt lat="43.56781" lon="3.32581">
        <ele>273</ele>
        <time>2015-11-22T08:54:42Z</time>
      </trkpt>
      <trkpt lat="43.56797" lon="3.32575">
        <ele>276</ele>
        <time>2015-11-22T08:54:45Z</time>
      </trkpt>
      <trkpt lat="43.56807" lon="3.3257">
        <ele>277</ele>
        <time>2015-11-22T08:54:47Z</time>
      </trkpt>
      <trkpt lat="43.56811" lon="3.32568">
        <ele>277</ele>
        <time>2015-11-22T08:54:49Z</time>
      </trkpt>
      <trkpt lat="43.56815" lon="3.32565">
        <ele>278.5</ele>
        <time>2015-11-22T08:54:52Z</time>
      </trkpt>
      <trkpt lat="43.56819" lon="3.32563">
        <ele>279</ele>
        <time>2015-11-22T08:54:53Z</time>
      </trkpt>
      <trkpt lat="43.56821" lon="3.32558">
        <ele>284</ele>
        <time>2015-11-22T08:54:56Z</time>
      </trkpt>
      <trkpt lat="43.56826" lon="3.32558">
        <ele>285</ele>
        <time>2015-11-22T08:54:59Z</time>
      </trkpt>
      <trkpt lat="43.56829" lon="3.32557">
        <ele>287.5</ele>
        <time>2015-11-22T08:55:00Z</time>
      </trkpt>
      <trkpt lat="43.56835" lon="3.32558">
        <ele>288.5</ele>
        <time>2015-11-22T08:55:02Z</time>
      </trkpt>
      <trkpt lat="43.5684" lon="3.32558">
        <ele>288.5</ele>
        <time>2015-11-22T08:55:04Z</time>
      </trkpt>
      <trkpt lat="43.56844" lon="3.3256">
        <ele>288</ele>
        <time>2015-11-22T08:55:07Z</time>
      </trkpt>
      <trkpt lat="43.56849" lon="3.3256">
        <ele>289</ele>
        <time>2015-11-22T08:55:09Z</time>
      </trkpt>
      <trkpt lat="43.56855" lon="3.3256">
        <ele>290</ele>
        <time>2015-11-22T08:55:11Z</time>
      </trkpt>
      <trkpt lat="43.56859" lon="3.3256">
        <ele>290.5</ele>
        <time>2015-11-22T08:55:13Z</time>
      </trkpt>
      <trkpt lat="43.56863" lon="3.32559">
        <ele>291.5</ele>
        <time>2015-11-22T08:55:15Z</time>
      </trkpt>
      <trkpt lat="43.56866" lon="3.32559">
        <ele>292</ele>
        <time>2015-11-22T08:55:17Z</time>
      </trkpt>
      <trkpt lat="43.56871" lon="3.32558">
        <ele>292</ele>
        <time>2015-11-22T08:55:19Z</time>
      </trkpt>
      <trkpt lat="43.56874" lon="3.32556">
        <ele>294</ele>
        <time>2015-11-22T08:55:21Z</time>
      </trkpt>
      <trkpt lat="43.56878" lon="3.32556">
        <ele>295</ele>
        <time>2015-11-22T08:55:23Z</time>
      </trkpt>
      <trkpt lat="43.56881" lon="3.32554">
        <ele>296.5</ele>
        <time>2015-11-22T08:55:25Z</time>
      </trkpt>
      <trkpt lat="43.56885" lon="3.32554">
        <ele>296</ele>
        <time>2015-11-22T08:55:27Z</time>
      </trkpt>
      <trkpt lat="43.56888" lon="3.32554">
        <ele>296</ele>
        <time>2015-11-22T08:55:29Z</time>
      </trkpt>
      <trkpt lat="43.56892" lon="3.32553">
        <ele>296.5</ele>
        <time>2015-11-22T08:55:31Z</time>
      </trkpt>
      <trkpt lat="43.56895" lon="3.32553">
        <ele>297.5</ele>
        <time>2015-11-22T08:55:33Z</time>
      </trkpt>
      <trkpt lat="43.569" lon="3.32553">
        <ele>297</ele>
        <time>2015-11-22T08:55:35Z</time>
      </trkpt>
      <trkpt lat="43.56903" lon="3.32552">
        <ele>299.5</ele>
        <time>2015-11-22T08:55:37Z</time>
      </trkpt>
      <trkpt lat="43.56907" lon="3.32551">
        <ele>300.5</ele>
        <time>2015-11-22T08:55:39Z</time>
      </trkpt>
      <trkpt lat="43.5691" lon="3.32549">
        <ele>303</ele>
        <time>2015-11-22T08:55:41Z</time>
      </trkpt>
      <trkpt lat="43.56914" lon="3.32549">
        <ele>304</ele>
        <time>2015-11-22T08:55:43Z</time>
      </trkpt>
      <trkpt lat="43.56918" lon="3.32549">
        <ele>304.5</ele>
        <time>2015-11-22T08:55:45Z</time>
      </trkpt>
      <trkpt lat="43.56921" lon="3.32548">
        <ele>305</ele>
        <time>2015-11-22T08:55:47Z</time>
      </trkpt>
      <trkpt lat="43.56922" lon="3.32544">
        <ele>312.5</ele>
        <time>2015-11-22T08:55:49Z</time>
      </trkpt>
      <trkpt lat="43.56926" lon="3.32545">
        <ele>312.5</ele>
        <time>2015-11-22T08:55:51Z</time>
      </trkpt>
      <trkpt lat="43.56931" lon="3.32546">
        <ele>310.5</ele>
        <time>2015-11-22T08:55:53Z</time>
      </trkpt>
      <trkpt lat="43.56936" lon="3.32547">
        <ele>308</ele>
        <time>2015-11-22T08:55:55Z</time>
      </trkpt>
      <trkpt lat="43.5694" lon="3.32546">
        <ele>307</ele>
        <time>2015-11-22T08:55:57Z</time>
      </trkpt>
      <trkpt lat="43.56947" lon="3.32547">
        <ele>305</ele>
        <time>2015-11-22T08:55:59Z</time>
      </trkpt>
      <trkpt lat="43.56951" lon="3.32546">
        <ele>305</ele>
        <time>2015-11-22T08:56:01Z</time>
      </trkpt>
      <trkpt lat="43.56956" lon="3.32547">
        <ele>303</ele>
        <time>2015-11-22T08:56:04Z</time>
      </trkpt>
      <trkpt lat="43.56959" lon="3.32546">
        <ele>303.5</ele>
        <time>2015-11-22T08:56:06Z</time>
      </trkpt>
      <trkpt lat="43.56965" lon="3.32547">
        <ele>303</ele>
        <time>2015-11-22T08:56:08Z</time>
      </trkpt>
      <trkpt lat="43.5697" lon="3.32548">
        <ele>301.5</ele>
        <time>2015-11-22T08:56:10Z</time>
      </trkpt>
      <trkpt lat="43.56974" lon="3.32549">
        <ele>301.5</ele>
        <time>2015-11-22T08:56:12Z</time>
      </trkpt>
      <trkpt lat="43.56977" lon="3.32551">
        <ele>300</ele>
        <time>2015-11-22T08:56:15Z</time>
      </trkpt>
      <trkpt lat="43.5698" lon="3.32552">
        <ele>300.5</ele>
        <time>2015-11-22T08:56:17Z</time>
      </trkpt>
      <trkpt lat="43.56985" lon="3.32556">
        <ele>299.5</ele>
        <time>2015-11-22T08:56:19Z</time>
      </trkpt>
      <trkpt lat="43.56989" lon="3.32559">
        <ele>298.5</ele>
        <time>2015-11-22T08:56:21Z</time>
      </trkpt>
      <trkpt lat="43.56993" lon="3.32561">
        <ele>298</ele>
        <time>2015-11-22T08:56:23Z</time>
      </trkpt>
      <trkpt lat="43.56997" lon="3.32563">
        <ele>297.5</ele>
        <time>2015-11-22T08:56:26Z</time>
      </trkpt>
      <trkpt lat="43.57" lon="3.32566">
        <ele>297</ele>
        <time>2015-11-22T08:56:28Z</time>
      </trkpt>
      <trkpt lat="43.57005" lon="3.32572">
        <ele>296</ele>
        <time>2015-11-22T08:56:30Z</time>
      </trkpt>
      <trkpt lat="43.57007" lon="3.32574">
        <ele>295.5</ele>
        <time>2015-11-22T08:56:32Z</time>
      </trkpt>
      <trkpt lat="43.5701" lon="3.32577">
        <ele>296.5</ele>
        <time>2015-11-22T08:56:34Z</time>
      </trkpt>
      <trkpt lat="43.57014" lon="3.32579">
        <ele>296.5</ele>
        <time>2015-11-22T08:56:36Z</time>
      </trkpt>
      <trkpt lat="43.57016" lon="3.32581">
        <ele>298.5</ele>
        <time>2015-11-22T08:56:38Z</time>
      </trkpt>
      <trkpt lat="43.57019" lon="3.32583">
        <ele>299</ele>
        <time>2015-11-22T08:56:40Z</time>
      </trkpt>
      <trkpt lat="43.57021" lon="3.32583">
        <ele>302</ele>
        <time>2015-11-22T08:56:42Z</time>
      </trkpt>
      <trkpt lat="43.57024" lon="3.32581">
        <ele>301.5</ele>
        <time>2015-11-22T08:56:45Z</time>
      </trkpt>
      <trkpt lat="43.57026" lon="3.32577">
        <ele>302</ele>
        <time>2015-11-22T08:56:47Z</time>
      </trkpt>
      <trkpt lat="43.57029" lon="3.32572">
        <ele>301</ele>
        <time>2015-11-22T08:56:49Z</time>
      </trkpt>
      <trkpt lat="43.57031" lon="3.3257">
        <ele>298.5</ele>
        <time>2015-11-22T08:56:51Z</time>
      </trkpt>
      <trkpt lat="43.57035" lon="3.3257">
        <ele>294</ele>
        <time>2015-11-22T08:56:53Z</time>
      </trkpt>
      <trkpt lat="43.57039" lon="3.3257">
        <ele>289</ele>
        <time>2015-11-22T08:56:55Z</time>
      </trkpt>
      <trkpt lat="43.5704" lon="3.32567">
        <ele>287</ele>
        <time>2015-11-22T08:56:58Z</time>
      </trkpt>
      <trkpt lat="43.57043" lon="3.32563">
        <ele>287.5</ele>
        <time>2015-11-22T08:56:59Z</time>
      </trkpt>
      <trkpt lat="43.57046" lon="3.32559">
        <ele>287</ele>
        <time>2015-11-22T08:57:01Z</time>
      </trkpt>
      <trkpt lat="43.5705" lon="3.32558">
        <ele>286</ele>
        <time>2015-11-22T08:57:03Z</time>
      </trkpt>
      <trkpt lat="43.57053" lon="3.32555">
        <ele>287</ele>
        <time>2015-11-22T08:57:05Z</time>
      </trkpt>
      <trkpt lat="43.57056" lon="3.32554">
        <ele>287</ele>
        <time>2015-11-22T08:57:07Z</time>
      </trkpt>
      <trkpt lat="43.5706" lon="3.32553">
        <ele>286.5</ele>
        <time>2015-11-22T08:57:09Z</time>
      </trkpt>
      <trkpt lat="43.57064" lon="3.32552">
        <ele>285</ele>
        <time>2015-11-22T08:57:11Z</time>
      </trkpt>
      <trkpt lat="43.57068" lon="3.32551">
        <ele>284</ele>
        <time>2015-11-22T08:57:13Z</time>
      </trkpt>
      <trkpt lat="43.57071" lon="3.32549">
        <ele>284.5</ele>
        <time>2015-11-22T08:57:16Z</time>
      </trkpt>
      <trkpt lat="43.57074" lon="3.32547">
        <ele>285</ele>
        <time>2015-11-22T08:57:18Z</time>
      </trkpt>
      <trkpt lat="43.57077" lon="3.32545">
        <ele>286</ele>
        <time>2015-11-22T08:57:20Z</time>
      </trkpt>
      <trkpt lat="43.57083" lon="3.32545">
        <ele>284</ele>
        <time>2015-11-22T08:57:22Z</time>
      </trkpt>
      <trkpt lat="43.57087" lon="3.32544">
        <ele>283.5</ele>
        <time>2015-11-22T08:57:25Z</time>
      </trkpt>
      <trkpt lat="43.57091" lon="3.32541">
        <ele>283.5</ele>
        <time>2015-11-22T08:57:27Z</time>
      </trkpt>
      <trkpt lat="43.5709" lon="3.32534">
        <ele>292</ele>
        <time>2015-11-22T08:57:29Z</time>
      </trkpt>
      <trkpt lat="43.57091" lon="3.32526">
        <ele>300.5</ele>
        <time>2015-11-22T08:57:31Z</time>
      </trkpt>
      <trkpt lat="43.57093" lon="3.32522">
        <ele>303</ele>
        <time>2015-11-22T08:57:33Z</time>
      </trkpt>
      <trkpt lat="43.57095" lon="3.32519">
        <ele>305.5</ele>
        <time>2015-11-22T08:57:36Z</time>
      </trkpt>
      <trkpt lat="43.57098" lon="3.32517">
        <ele>306.5</ele>
        <time>2015-11-22T08:57:38Z</time>
      </trkpt>
      <trkpt lat="43.57101" lon="3.32514">
        <ele>308.5</ele>
        <time>2015-11-22T08:57:40Z</time>
      </trkpt>
      <trkpt lat="43.57105" lon="3.32513">
        <ele>308.5</ele>
        <time>2015-11-22T08:57:42Z</time>
      </trkpt>
      <trkpt lat="43.57108" lon="3.32511">
        <ele>309.5</ele>
        <time>2015-11-22T08:57:44Z</time>
      </trkpt>
      <trkpt lat="43.57111" lon="3.3251">
        <ele>309.5</ele>
        <time>2015-11-22T08:57:46Z</time>
      </trkpt>
      <trkpt lat="43.57114" lon="3.32509">
        <ele>310.5</ele>
        <time>2015-11-22T08:57:48Z</time>
      </trkpt>
      <trkpt lat="43.57115" lon="3.32506">
        <ele>312</ele>
        <time>2015-11-22T08:57:50Z</time>
      </trkpt>
      <trkpt lat="43.57119" lon="3.32505">
        <ele>312</ele>
        <time>2015-11-22T08:57:52Z</time>
      </trkpt>
      <trkpt lat="43.5712" lon="3.32501">
        <ele>316</ele>
        <time>2015-11-22T08:57:54Z</time>
      </trkpt>
      <trkpt lat="43.57123" lon="3.32498">
        <ele>318</ele>
        <time>2015-11-22T08:57:56Z</time>
      </trkpt>
      <trkpt lat="43.57127" lon="3.32496">
        <ele>319.5</ele>
        <time>2015-11-22T08:57:58Z</time>
      </trkpt>
      <trkpt lat="43.57129" lon="3.32493">
        <ele>323.5</ele>
        <time>2015-11-22T08:58:00Z</time>
      </trkpt>
      <trkpt lat="43.57132" lon="3.32492">
        <ele>325.5</ele>
        <time>2015-11-22T08:58:02Z</time>
      </trkpt>
      <trkpt lat="43.57134" lon="3.32493">
        <ele>325.5</ele>
        <time>2015-11-22T08:58:04Z</time>
      </trkpt>
      <trkpt lat="43.57134" lon="3.32497">
        <ele>323.5</ele>
        <time>2015-11-22T08:58:07Z</time>
      </trkpt>
      <trkpt lat="43.57133" lon="3.32501">
        <ele>320.5</ele>
        <time>2015-11-22T08:58:09Z</time>
      </trkpt>
      <trkpt lat="43.5713" lon="3.32504">
        <ele>318.5</ele>
        <time>2015-11-22T08:58:11Z</time>
      </trkpt>
      <trkpt lat="43.57129" lon="3.3251">
        <ele>311.5</ele>
        <time>2015-11-22T08:58:13Z</time>
      </trkpt>
      <trkpt lat="43.57129" lon="3.32518">
        <ele>301.5</ele>
        <time>2015-11-22T08:58:15Z</time>
      </trkpt>
      <trkpt lat="43.5713" lon="3.32525">
        <ele>297</ele>
        <time>2015-11-22T08:58:17Z</time>
      </trkpt>
      <trkpt lat="43.57127" lon="3.3253">
        <ele>296.5</ele>
        <time>2015-11-22T08:58:19Z</time>
      </trkpt>
      <trkpt lat="43.57126" lon="3.32535">
        <ele>292.5</ele>
        <time>2015-11-22T08:58:22Z</time>
      </trkpt>
      <trkpt lat="43.57123" lon="3.3254">
        <ele>292</ele>
        <time>2015-11-22T08:58:24Z</time>
      </trkpt>
      <trkpt lat="43.57124" lon="3.32545">
        <ele>291.5</ele>
        <time>2015-11-22T08:58:26Z</time>
      </trkpt>
      <trkpt lat="43.57123" lon="3.32548">
        <ele>291</ele>
        <time>2015-11-22T08:58:28Z</time>
      </trkpt>
      <trkpt lat="43.57121" lon="3.32551">
        <ele>290</ele>
        <time>2015-11-22T08:58:30Z</time>
      </trkpt>
      <trkpt lat="43.57118" lon="3.32555">
        <ele>289.5</ele>
        <time>2015-11-22T08:58:32Z</time>
      </trkpt>
      <trkpt lat="43.57116" lon="3.32559">
        <ele>288</ele>
        <time>2015-11-22T08:58:34Z</time>
      </trkpt>
      <trkpt lat="43.57114" lon="3.32562">
        <ele>287</ele>
        <time>2015-11-22T08:58:36Z</time>
      </trkpt>
      <trkpt lat="43.57113" lon="3.32566">
        <ele>285.5</ele>
        <time>2015-11-22T08:58:38Z</time>
      </trkpt>
      <trkpt lat="43.5711" lon="3.32572">
        <ele>283</ele>
        <time>2015-11-22T08:58:41Z</time>
      </trkpt>
      <trkpt lat="43.57108" lon="3.32575">
        <ele>281.5</ele>
        <time>2015-11-22T08:58:44Z</time>
      </trkpt>
      <trkpt lat="43.57109" lon="3.3258">
        <ele>280.5</ele>
        <time>2015-11-22T08:58:45Z</time>
      </trkpt>
      <trkpt lat="43.57107" lon="3.32584">
        <ele>280.5</ele>
        <time>2015-11-22T08:58:47Z</time>
      </trkpt>
      <trkpt lat="43.57106" lon="3.32589">
        <ele>279</ele>
        <time>2015-11-22T08:58:49Z</time>
      </trkpt>
      <trkpt lat="43.57105" lon="3.32593">
        <ele>280</ele>
        <time>2015-11-22T08:58:52Z</time>
      </trkpt>
      <trkpt lat="43.571" lon="3.32599">
        <ele>280.5</ele>
        <time>2015-11-22T08:58:54Z</time>
      </trkpt>
      <trkpt lat="43.57099" lon="3.32605">
        <ele>279</ele>
        <time>2015-11-22T08:58:56Z</time>
      </trkpt>
      <trkpt lat="43.57094" lon="3.3261">
        <ele>277.5</ele>
        <time>2015-11-22T08:58:58Z</time>
      </trkpt>
      <trkpt lat="43.57095" lon="3.32615">
        <ele>278</ele>
        <time>2015-11-22T08:59:00Z</time>
      </trkpt>
      <trkpt lat="43.57095" lon="3.3262">
        <ele>278.5</ele>
        <time>2015-11-22T08:59:02Z</time>
      </trkpt>
      <trkpt lat="43.57103" lon="3.32627">
        <ele>278.5</ele>
        <time>2015-11-22T08:59:04Z</time>
      </trkpt>
      <trkpt lat="43.57101" lon="3.3263">
        <ele>281</ele>
        <time>2015-11-22T08:59:06Z</time>
      </trkpt>
      <trkpt lat="43.571" lon="3.32633">
        <ele>283</ele>
        <time>2015-11-22T08:59:08Z</time>
      </trkpt>
      <trkpt lat="43.57101" lon="3.32638">
        <ele>284.5</ele>
        <time>2015-11-22T08:59:10Z</time>
      </trkpt>
      <trkpt lat="43.57104" lon="3.32642">
        <ele>285</ele>
        <time>2015-11-22T08:59:12Z</time>
      </trkpt>
      <trkpt lat="43.57105" lon="3.32647">
        <ele>286</ele>
        <time>2015-11-22T08:59:14Z</time>
      </trkpt>
      <trkpt lat="43.57106" lon="3.32652">
        <ele>286</ele>
        <time>2015-11-22T08:59:17Z</time>
      </trkpt>
      <trkpt lat="43.57106" lon="3.32656">
        <ele>287.5</ele>
        <time>2015-11-22T08:59:18Z</time>
      </trkpt>
      <trkpt lat="43.57105" lon="3.32657">
        <ele>286.5</ele>
        <time>2015-11-22T08:59:20Z</time>
      </trkpt>
      <trkpt lat="43.57111" lon="3.32668">
        <ele>284</ele>
        <time>2015-11-22T08:59:22Z</time>
      </trkpt>
      <trkpt lat="43.57114" lon="3.32675">
        <ele>285</ele>
        <time>2015-11-22T08:59:24Z</time>
      </trkpt>
      <trkpt lat="43.57115" lon="3.3268">
        <ele>286</ele>
        <time>2015-11-22T08:59:26Z</time>
      </trkpt>
      <trkpt lat="43.57115" lon="3.32684">
        <ele>285</ele>
        <time>2015-11-22T08:59:28Z</time>
      </trkpt>
      <trkpt lat="43.57115" lon="3.32689">
        <ele>285.5</ele>
        <time>2015-11-22T08:59:31Z</time>
      </trkpt>
      <trkpt lat="43.57116" lon="3.32695">
        <ele>284.5</ele>
        <time>2015-11-22T08:59:33Z</time>
      </trkpt>
      <trkpt lat="43.57115" lon="3.32702">
        <ele>286</ele>
        <time>2015-11-22T08:59:35Z</time>
      </trkpt>
      <trkpt lat="43.57115" lon="3.32708">
        <ele>285.5</ele>
        <time>2015-11-22T08:59:38Z</time>
      </trkpt>
      <trkpt lat="43.57115" lon="3.32715">
        <ele>284</ele>
        <time>2015-11-22T08:59:39Z</time>
      </trkpt>
      <trkpt lat="43.57115" lon="3.32722">
        <ele>285.5</ele>
        <time>2015-11-22T08:59:41Z</time>
      </trkpt>
      <trkpt lat="43.57114" lon="3.32728">
        <ele>286</ele>
        <time>2015-11-22T08:59:43Z</time>
      </trkpt>
      <trkpt lat="43.57114" lon="3.32734">
        <ele>284.5</ele>
        <time>2015-11-22T08:59:46Z</time>
      </trkpt>
      <trkpt lat="43.57113" lon="3.32742">
        <ele>285.5</ele>
        <time>2015-11-22T08:59:47Z</time>
      </trkpt>
      <trkpt lat="43.57109" lon="3.32748">
        <ele>289.5</ele>
        <time>2015-11-22T08:59:49Z</time>
      </trkpt>
      <trkpt lat="43.57108" lon="3.32756">
        <ele>290</ele>
        <time>2015-11-22T08:59:51Z</time>
      </trkpt>
      <trkpt lat="43.57107" lon="3.32763">
        <ele>288.5</ele>
        <time>2015-11-22T08:59:54Z</time>
      </trkpt>
      <trkpt lat="43.57107" lon="3.32769">
        <ele>289</ele>
        <time>2015-11-22T08:59:55Z</time>
      </trkpt>
      <trkpt lat="43.57106" lon="3.32776">
        <ele>287</ele>
        <time>2015-11-22T08:59:57Z</time>
      </trkpt>
      <trkpt lat="43.57103" lon="3.32782">
        <ele>286.5</ele>
        <time>2015-11-22T09:00:00Z</time>
      </trkpt>
      <trkpt lat="43.57099" lon="3.32787">
        <ele>288</ele>
        <time>2015-11-22T09:00:02Z</time>
      </trkpt>
      <trkpt lat="43.57099" lon="3.32797">
        <ele>287</ele>
        <time>2015-11-22T09:00:04Z</time>
      </trkpt>
      <trkpt lat="43.57099" lon="3.32802">
        <ele>288</ele>
        <time>2015-11-22T09:00:07Z</time>
      </trkpt>
      <trkpt lat="43.57098" lon="3.32808">
        <ele>288</ele>
        <time>2015-11-22T09:00:08Z</time>
      </trkpt>
      <trkpt lat="43.57098" lon="3.32814">
        <ele>289.5</ele>
        <time>2015-11-22T09:00:10Z</time>
      </trkpt>
      <trkpt lat="43.57098" lon="3.32819">
        <ele>289.5</ele>
        <time>2015-11-22T09:00:13Z</time>
      </trkpt>
      <trkpt lat="43.57097" lon="3.32825">
        <ele>290</ele>
        <time>2015-11-22T09:00:15Z</time>
      </trkpt>
      <trkpt lat="43.57097" lon="3.32831">
        <ele>289</ele>
        <time>2015-11-22T09:00:17Z</time>
      </trkpt>
      <trkpt lat="43.57097" lon="3.32839">
        <ele>290</ele>
        <time>2015-11-22T09:00:19Z</time>
      </trkpt>
      <trkpt lat="43.571" lon="3.32845">
        <ele>288.5</ele>
        <time>2015-11-22T09:00:21Z</time>
      </trkpt>
      <trkpt lat="43.57098" lon="3.3285">
        <ele>290</ele>
        <time>2015-11-22T09:00:23Z</time>
      </trkpt>
      <trkpt lat="43.57098" lon="3.32855">
        <ele>291.5</ele>
        <time>2015-11-22T09:00:26Z</time>
      </trkpt>
      <trkpt lat="43.57097" lon="3.3286">
        <ele>292</ele>
        <time>2015-11-22T09:00:27Z</time>
      </trkpt>
      <trkpt lat="43.57096" lon="3.32866">
        <ele>292</ele>
        <time>2015-11-22T09:00:29Z</time>
      </trkpt>
      <trkpt lat="43.57096" lon="3.32871">
        <ele>294</ele>
        <time>2015-11-22T09:00:31Z</time>
      </trkpt>
      <trkpt lat="43.57098" lon="3.32875">
        <ele>294.5</ele>
        <time>2015-11-22T09:00:34Z</time>
      </trkpt>
      <trkpt lat="43.571" lon="3.32876">
        <ele>295.5</ele>
        <time>2015-11-22T09:00:35Z</time>
      </trkpt>
      <trkpt lat="43.57102" lon="3.32874">
        <ele>296.5</ele>
        <time>2015-11-22T09:00:38Z</time>
      </trkpt>
      <trkpt lat="43.57105" lon="3.3287">
        <ele>297</ele>
        <time>2015-11-22T09:00:40Z</time>
      </trkpt>
      <trkpt lat="43.57108" lon="3.32868">
        <ele>295.5</ele>
        <time>2015-11-22T09:00:42Z</time>
      </trkpt>
      <trkpt lat="43.57109" lon="3.32864">
        <ele>297</ele>
        <time>2015-11-22T09:00:44Z</time>
      </trkpt>
      <trkpt lat="43.57111" lon="3.3286">
        <ele>297.5</ele>
        <time>2015-11-22T09:00:46Z</time>
      </trkpt>
      <trkpt lat="43.57111" lon="3.32857">
        <ele>299.5</ele>
        <time>2015-11-22T09:00:49Z</time>
      </trkpt>
      <trkpt lat="43.57113" lon="3.32853">
        <ele>299</ele>
        <time>2015-11-22T09:00:50Z</time>
      </trkpt>
      <trkpt lat="43.57114" lon="3.32849">
        <ele>299.5</ele>
        <time>2015-11-22T09:00:52Z</time>
      </trkpt>
      <trkpt lat="43.57114" lon="3.32845">
        <ele>299.5</ele>
        <time>2015-11-22T09:00:54Z</time>
      </trkpt>
      <trkpt lat="43.57115" lon="3.32841">
        <ele>300.5</ele>
        <time>2015-11-22T09:00:56Z</time>
      </trkpt>
      <trkpt lat="43.57116" lon="3.32836">
        <ele>301</ele>
        <time>2015-11-22T09:00:58Z</time>
      </trkpt>
      <trkpt lat="43.57117" lon="3.32833">
        <ele>300.5</ele>
        <time>2015-11-22T09:01:00Z</time>
      </trkpt>
      <trkpt lat="43.57118" lon="3.32829">
        <ele>300.5</ele>
        <time>2015-11-22T09:01:02Z</time>
      </trkpt>
      <trkpt lat="43.57119" lon="3.32825">
        <ele>300</ele>
        <time>2015-11-22T09:01:04Z</time>
      </trkpt>
      <trkpt lat="43.57121" lon="3.32821">
        <ele>300</ele>
        <time>2015-11-22T09:01:06Z</time>
      </trkpt>
      <trkpt lat="43.57124" lon="3.32817">
        <ele>299.5</ele>
        <time>2015-11-22T09:01:09Z</time>
      </trkpt>
      <trkpt lat="43.57126" lon="3.32813">
        <ele>298.5</ele>
        <time>2015-11-22T09:01:10Z</time>
      </trkpt>
      <trkpt lat="43.57128" lon="3.32809">
        <ele>299.5</ele>
        <time>2015-11-22T09:01:12Z</time>
      </trkpt>
      <trkpt lat="43.5713" lon="3.32806">
        <ele>299</ele>
        <time>2015-11-22T09:01:14Z</time>
      </trkpt>
      <trkpt lat="43.57132" lon="3.32801">
        <ele>298.5</ele>
        <time>2015-11-22T09:01:16Z</time>
      </trkpt>
      <trkpt lat="43.57134" lon="3.32797">
        <ele>299.5</ele>
        <time>2015-11-22T09:01:18Z</time>
      </trkpt>
      <trkpt lat="43.57136" lon="3.32792">
        <ele>299.5</ele>
        <time>2015-11-22T09:01:20Z</time>
      </trkpt>
      <trkpt lat="43.57137" lon="3.32788">
        <ele>300.5</ele>
        <time>2015-11-22T09:01:23Z</time>
      </trkpt>
      <trkpt lat="43.57138" lon="3.32783">
        <ele>300.5</ele>
        <time>2015-11-22T09:01:24Z</time>
      </trkpt>
      <trkpt lat="43.5714" lon="3.32777">
        <ele>300</ele>
        <time>2015-11-22T09:01:26Z</time>
      </trkpt>
      <trkpt lat="43.57139" lon="3.32771">
        <ele>301</ele>
        <time>2015-11-22T09:01:28Z</time>
      </trkpt>
      <trkpt lat="43.5714" lon="3.32764">
        <ele>301</ele>
        <time>2015-11-22T09:01:30Z</time>
      </trkpt>
      <trkpt lat="43.5714" lon="3.32757">
        <ele>301.5</ele>
        <time>2015-11-22T09:01:32Z</time>
      </trkpt>
      <trkpt lat="43.5714" lon="3.32751">
        <ele>301.5</ele>
        <time>2015-11-22T09:01:34Z</time>
      </trkpt>
      <trkpt lat="43.5714" lon="3.32743">
        <ele>302</ele>
        <time>2015-11-22T09:01:36Z</time>
      </trkpt>
      <trkpt lat="43.5714" lon="3.32736">
        <ele>303</ele>
        <time>2015-11-22T09:01:38Z</time>
      </trkpt>
      <trkpt lat="43.5714" lon="3.32729">
        <ele>304</ele>
        <time>2015-11-22T09:01:40Z</time>
      </trkpt>
      <trkpt lat="43.57141" lon="3.32722">
        <ele>303</ele>
        <time>2015-11-22T09:01:43Z</time>
      </trkpt>
      <trkpt lat="43.57144" lon="3.32716">
        <ele>300.5</ele>
        <time>2015-11-22T09:01:45Z</time>
      </trkpt>
      <trkpt lat="43.57147" lon="3.32706">
        <ele>299.5</ele>
        <time>2015-11-22T09:01:47Z</time>
      </trkpt>
      <trkpt lat="43.57149" lon="3.32699">
        <ele>298.5</ele>
        <time>2015-11-22T09:01:49Z</time>
      </trkpt>
      <trkpt lat="43.57151" lon="3.32693">
        <ele>298</ele>
        <time>2015-11-22T09:01:52Z</time>
      </trkpt>
      <trkpt lat="43.57154" lon="3.32686">
        <ele>298.5</ele>
        <time>2015-11-22T09:01:54Z</time>
      </trkpt>
      <trkpt lat="43.57157" lon="3.32676">
        <ele>300.5</ele>
        <time>2015-11-22T09:01:56Z</time>
      </trkpt>
      <trkpt lat="43.57161" lon="3.3267">
        <ele>300</ele>
        <time>2015-11-22T09:01:59Z</time>
      </trkpt>
      <trkpt lat="43.57164" lon="3.32663">
        <ele>301</ele>
        <time>2015-11-22T09:02:01Z</time>
      </trkpt>
      <trkpt lat="43.5717" lon="3.32656">
        <ele>302</ele>
        <time>2015-11-22T09:02:03Z</time>
      </trkpt>
      <trkpt lat="43.57172" lon="3.3265">
        <ele>304</ele>
        <time>2015-11-22T09:02:05Z</time>
      </trkpt>
      <trkpt lat="43.57175" lon="3.32646">
        <ele>305</ele>
        <time>2015-11-22T09:02:07Z</time>
      </trkpt>
      <trkpt lat="43.57179" lon="3.32643">
        <ele>305</ele>
        <time>2015-11-22T09:02:10Z</time>
      </trkpt>
      <trkpt lat="43.57183" lon="3.32639">
        <ele>306.5</ele>
        <time>2015-11-22T09:02:12Z</time>
      </trkpt>
      <trkpt lat="43.57185" lon="3.3263">
        <ele>312.5</ele>
        <time>2015-11-22T09:02:14Z</time>
      </trkpt>
      <trkpt lat="43.57185" lon="3.32624">
        <ele>316</ele>
        <time>2015-11-22T09:02:16Z</time>
      </trkpt>
      <trkpt lat="43.57186" lon="3.32617">
        <ele>322</ele>
        <time>2015-11-22T09:02:19Z</time>
      </trkpt>
      <trkpt lat="43.57188" lon="3.32611">
        <ele>326</ele>
        <time>2015-11-22T09:02:21Z</time>
      </trkpt>
      <trkpt lat="43.57197" lon="3.32607">
        <ele>326.5</ele>
        <time>2015-11-22T09:02:23Z</time>
      </trkpt>
      <trkpt lat="43.57201" lon="3.32604">
        <ele>328.5</ele>
        <time>2015-11-22T09:02:25Z</time>
      </trkpt>
      <trkpt lat="43.57204" lon="3.326">
        <ele>331.5</ele>
        <time>2015-11-22T09:02:28Z</time>
      </trkpt>
      <trkpt lat="43.57208" lon="3.32596">
        <ele>334</ele>
        <time>2015-11-22T09:02:30Z</time>
      </trkpt>
      <trkpt lat="43.57216" lon="3.32588">
        <ele>334</ele>
        <time>2015-11-22T09:02:32Z</time>
      </trkpt>
      <trkpt lat="43.57224" lon="3.32583">
        <ele>335</ele>
        <time>2015-11-22T09:02:34Z</time>
      </trkpt>
      <trkpt lat="43.57231" lon="3.32578">
        <ele>335</ele>
        <time>2015-11-22T09:02:36Z</time>
      </trkpt>
      <trkpt lat="43.57239" lon="3.32574">
        <ele>334.5</ele>
        <time>2015-11-22T09:02:38Z</time>
      </trkpt>
      <trkpt lat="43.57244" lon="3.32569">
        <ele>334.5</ele>
        <time>2015-11-22T09:02:40Z</time>
      </trkpt>
      <trkpt lat="43.5725" lon="3.32563">
        <ele>336</ele>
        <time>2015-11-22T09:02:43Z</time>
      </trkpt>
      <trkpt lat="43.57261" lon="3.32555">
        <ele>339</ele>
        <time>2015-11-22T09:02:45Z</time>
      </trkpt>
      <trkpt lat="43.5727" lon="3.32551">
        <ele>342</ele>
        <time>2015-11-22T09:02:47Z</time>
      </trkpt>
      <trkpt lat="43.57278" lon="3.32548">
        <ele>343.5</ele>
        <time>2015-11-22T09:02:49Z</time>
      </trkpt>
      <trkpt lat="43.57287" lon="3.32546">
        <ele>342</ele>
        <time>2015-11-22T09:02:51Z</time>
      </trkpt>
      <trkpt lat="43.57298" lon="3.32543">
        <ele>339.5</ele>
        <time>2015-11-22T09:02:54Z</time>
      </trkpt>
      <trkpt lat="43.57307" lon="3.32536">
        <ele>339</ele>
        <time>2015-11-22T09:02:56Z</time>
      </trkpt>
      <trkpt lat="43.57316" lon="3.32528">
        <ele>338</ele>
        <time>2015-11-22T09:02:57Z</time>
      </trkpt>
      <trkpt lat="43.57325" lon="3.32522">
        <ele>337</ele>
        <time>2015-11-22T09:02:59Z</time>
      </trkpt>
      <trkpt lat="43.57335" lon="3.32518">
        <ele>334</ele>
        <time>2015-11-22T09:03:02Z</time>
      </trkpt>
      <trkpt lat="43.57342" lon="3.32513">
        <ele>335</ele>
        <time>2015-11-22T09:03:03Z</time>
      </trkpt>
      <trkpt lat="43.57351" lon="3.3251">
        <ele>333.5</ele>
        <time>2015-11-22T09:03:05Z</time>
      </trkpt>
      <trkpt lat="43.57359" lon="3.32505">
        <ele>334.5</ele>
        <time>2015-11-22T09:03:08Z</time>
      </trkpt>
      <trkpt lat="43.57367" lon="3.32498">
        <ele>338</ele>
        <time>2015-11-22T09:03:10Z</time>
      </trkpt>
      <trkpt lat="43.57376" lon="3.32492">
        <ele>338.5</ele>
        <time>2015-11-22T09:03:11Z</time>
      </trkpt>
      <trkpt lat="43.57386" lon="3.32486">
        <ele>338.5</ele>
        <time>2015-11-22T09:03:13Z</time>
      </trkpt>
      <trkpt lat="43.57394" lon="3.32479">
        <ele>340.5</ele>
        <time>2015-11-22T09:03:15Z</time>
      </trkpt>
      <trkpt lat="43.57402" lon="3.3247">
        <ele>343</ele>
        <time>2015-11-22T09:03:18Z</time>
      </trkpt>
      <trkpt lat="43.57412" lon="3.32463">
        <ele>344</ele>
        <time>2015-11-22T09:03:19Z</time>
      </trkpt>
      <trkpt lat="43.57423" lon="3.32456">
        <ele>342.5</ele>
        <time>2015-11-22T09:03:21Z</time>
      </trkpt>
      <trkpt lat="43.57434" lon="3.32449">
        <ele>343</ele>
        <time>2015-11-22T09:03:23Z</time>
      </trkpt>
      <trkpt lat="43.57444" lon="3.32442">
        <ele>343</ele>
        <time>2015-11-22T09:03:25Z</time>
      </trkpt>
      <trkpt lat="43.57455" lon="3.32435">
        <ele>341.5</ele>
        <time>2015-11-22T09:03:27Z</time>
      </trkpt>
      <trkpt lat="43.57466" lon="3.32427">
        <ele>339.5</ele>
        <time>2015-11-22T09:03:29Z</time>
      </trkpt>
      <trkpt lat="43.57476" lon="3.32417">
        <ele>340</ele>
        <time>2015-11-22T09:03:31Z</time>
      </trkpt>
      <trkpt lat="43.57488" lon="3.32409">
        <ele>339</ele>
        <time>2015-11-22T09:03:33Z</time>
      </trkpt>
      <trkpt lat="43.57497" lon="3.32401">
        <ele>339</ele>
        <time>2015-11-22T09:03:35Z</time>
      </trkpt>
      <trkpt lat="43.57508" lon="3.32394">
        <ele>337</ele>
        <time>2015-11-22T09:03:37Z</time>
      </trkpt>
      <trkpt lat="43.57517" lon="3.32387">
        <ele>336.5</ele>
        <time>2015-11-22T09:03:39Z</time>
      </trkpt>
      <trkpt lat="43.57526" lon="3.32379">
        <ele>336.5</ele>
        <time>2015-11-22T09:03:41Z</time>
      </trkpt>
      <trkpt lat="43.57536" lon="3.32372">
        <ele>334</ele>
        <time>2015-11-22T09:03:43Z</time>
      </trkpt>
      <trkpt lat="43.57545" lon="3.32364">
        <ele>334.5</ele>
        <time>2015-11-22T09:03:45Z</time>
      </trkpt>
      <trkpt lat="43.57554" lon="3.32357">
        <ele>333.5</ele>
        <time>2015-11-22T09:03:47Z</time>
      </trkpt>
      <trkpt lat="43.57562" lon="3.32349">
        <ele>333.5</ele>
        <time>2015-11-22T09:03:49Z</time>
      </trkpt>
      <trkpt lat="43.5757" lon="3.32342">
        <ele>333.5</ele>
        <time>2015-11-22T09:03:52Z</time>
      </trkpt>
      <trkpt lat="43.57576" lon="3.32335">
        <ele>334.5</ele>
        <time>2015-11-22T09:03:54Z</time>
      </trkpt>
      <trkpt lat="43.57585" lon="3.32327">
        <ele>333.5</ele>
        <time>2015-11-22T09:03:56Z</time>
      </trkpt>
      <trkpt lat="43.57593" lon="3.3233">
        <ele>334</ele>
        <time>2015-11-22T09:03:58Z</time>
      </trkpt>
      <trkpt lat="43.5759" lon="3.32336">
        <ele>335</ele>
        <time>2015-11-22T09:04:00Z</time>
      </trkpt>
      <trkpt lat="43.57587" lon="3.3234">
        <ele>334.5</ele>
        <time>2015-11-22T09:04:02Z</time>
      </trkpt>
      <trkpt lat="43.57584" lon="3.32344">
        <ele>336</ele>
        <time>2015-11-22T09:04:04Z</time>
      </trkpt>
      <trkpt lat="43.5758" lon="3.32348">
        <ele>334.5</ele>
        <time>2015-11-22T09:04:06Z</time>
      </trkpt>
      <trkpt lat="43.57577" lon="3.32352">
        <ele>332.5</ele>
        <time>2015-11-22T09:04:09Z</time>
      </trkpt>
      <trkpt lat="43.57575" lon="3.32358">
        <ele>330</ele>
        <time>2015-11-22T09:04:10Z</time>
      </trkpt>
      <trkpt lat="43.57572" lon="3.32364">
        <ele>328</ele>
        <time>2015-11-22T09:04:12Z</time>
      </trkpt>
      <trkpt lat="43.57568" lon="3.32369">
        <ele>327.5</ele>
        <time>2015-11-22T09:04:15Z</time>
      </trkpt>
      <trkpt lat="43.57564" lon="3.32377">
        <ele>326.5</ele>
        <time>2015-11-22T09:04:17Z</time>
      </trkpt>
      <trkpt lat="43.57561" lon="3.32382">
        <ele>326.5</ele>
        <time>2015-11-22T09:04:19Z</time>
      </trkpt>
      <trkpt lat="43.57559" lon="3.32386">
        <ele>326</ele>
        <time>2015-11-22T09:04:21Z</time>
      </trkpt>
      <trkpt lat="43.57559" lon="3.3239">
        <ele>325.5</ele>
        <time>2015-11-22T09:04:23Z</time>
      </trkpt>
      <trkpt lat="43.57555" lon="3.32395">
        <ele>326</ele>
        <time>2015-11-22T09:04:25Z</time>
      </trkpt>
      <trkpt lat="43.57551" lon="3.324">
        <ele>326</ele>
        <time>2015-11-22T09:04:27Z</time>
      </trkpt>
      <trkpt lat="43.5755" lon="3.32403">
        <ele>326</ele>
        <time>2015-11-22T09:04:29Z</time>
      </trkpt>
      <trkpt lat="43.57547" lon="3.32407">
        <ele>326</ele>
        <time>2015-11-22T09:04:31Z</time>
      </trkpt>
      <trkpt lat="43.57545" lon="3.32409">
        <ele>327</ele>
        <time>2015-11-22T09:04:33Z</time>
      </trkpt>
      <trkpt lat="43.57543" lon="3.32413">
        <ele>327</ele>
        <time>2015-11-22T09:04:35Z</time>
      </trkpt>
      <trkpt lat="43.57541" lon="3.32417">
        <ele>326.5</ele>
        <time>2015-11-22T09:04:38Z</time>
      </trkpt>
      <trkpt lat="43.57537" lon="3.3242">
        <ele>325.5</ele>
        <time>2015-11-22T09:04:40Z</time>
      </trkpt>
      <trkpt lat="43.57533" lon="3.32424">
        <ele>325</ele>
        <time>2015-11-22T09:04:42Z</time>
      </trkpt>
      <trkpt lat="43.5753" lon="3.32429">
        <ele>324</ele>
        <time>2015-11-22T09:04:44Z</time>
      </trkpt>
      <trkpt lat="43.57528" lon="3.32432">
        <ele>323</ele>
        <time>2015-11-22T09:04:46Z</time>
      </trkpt>
      <trkpt lat="43.57526" lon="3.32435">
        <ele>322.5</ele>
        <time>2015-11-22T09:04:48Z</time>
      </trkpt>
      <trkpt lat="43.57523" lon="3.32439">
        <ele>321.5</ele>
        <time>2015-11-22T09:04:51Z</time>
      </trkpt>
      <trkpt lat="43.57519" lon="3.32443">
        <ele>319.5</ele>
        <time>2015-11-22T09:04:52Z</time>
      </trkpt>
      <trkpt lat="43.57517" lon="3.32446">
        <ele>319.5</ele>
        <time>2015-11-22T09:04:54Z</time>
      </trkpt>
      <trkpt lat="43.57514" lon="3.32449">
        <ele>320</ele>
        <time>2015-11-22T09:04:56Z</time>
      </trkpt>
      <trkpt lat="43.57511" lon="3.32452">
        <ele>320.5</ele>
        <time>2015-11-22T09:04:59Z</time>
      </trkpt>
      <trkpt lat="43.57509" lon="3.32455">
        <ele>320.5</ele>
        <time>2015-11-22T09:05:00Z</time>
      </trkpt>
      <trkpt lat="43.57506" lon="3.32457">
        <ele>321.5</ele>
        <time>2015-11-22T09:05:02Z</time>
      </trkpt>
      <trkpt lat="43.57502" lon="3.32461">
        <ele>322</ele>
        <time>2015-11-22T09:05:04Z</time>
      </trkpt>
      <trkpt lat="43.575" lon="3.32464">
        <ele>323</ele>
        <time>2015-11-22T09:05:07Z</time>
      </trkpt>
      <trkpt lat="43.57497" lon="3.32466">
        <ele>323.5</ele>
        <time>2015-11-22T09:05:08Z</time>
      </trkpt>
      <trkpt lat="43.57493" lon="3.32469">
        <ele>325</ele>
        <time>2015-11-22T09:05:10Z</time>
      </trkpt>
      <trkpt lat="43.5749" lon="3.32472">
        <ele>325</ele>
        <time>2015-11-22T09:05:12Z</time>
      </trkpt>
      <trkpt lat="43.57487" lon="3.32474">
        <ele>325.5</ele>
        <time>2015-11-22T09:05:14Z</time>
      </trkpt>
      <trkpt lat="43.57483" lon="3.32475">
        <ele>325.5</ele>
        <time>2015-11-22T09:05:16Z</time>
      </trkpt>
      <trkpt lat="43.57482" lon="3.32479">
        <ele>326</ele>
        <time>2015-11-22T09:05:18Z</time>
      </trkpt>
      <trkpt lat="43.57481" lon="3.32483">
        <ele>324.5</ele>
        <time>2015-11-22T09:05:21Z</time>
      </trkpt>
      <trkpt lat="43.57485" lon="3.32485">
        <ele>324</ele>
        <time>2015-11-22T09:05:23Z</time>
      </trkpt>
      <trkpt lat="43.57487" lon="3.32483">
        <ele>324</ele>
        <time>2015-11-22T09:05:25Z</time>
      </trkpt>
      <trkpt lat="43.5749" lon="3.32481">
        <ele>323.5</ele>
        <time>2015-11-22T09:05:28Z</time>
      </trkpt>
      <trkpt lat="43.57492" lon="3.32479">
        <ele>323</ele>
        <time>2015-11-22T09:05:29Z</time>
      </trkpt>
      <trkpt lat="43.57495" lon="3.32478">
        <ele>322.5</ele>
        <time>2015-11-22T09:05:31Z</time>
      </trkpt>
      <trkpt lat="43.57497" lon="3.32476">
        <ele>323</ele>
        <time>2015-11-22T09:05:34Z</time>
      </trkpt>
      <trkpt lat="43.57498" lon="3.32472">
        <ele>325.5</ele>
        <time>2015-11-22T09:05:36Z</time>
      </trkpt>
      <trkpt lat="43.57499" lon="3.3247">
        <ele>326</ele>
        <time>2015-11-22T09:05:37Z</time>
      </trkpt>
      <trkpt lat="43.57502" lon="3.32468">
        <ele>326</ele>
        <time>2015-11-22T09:05:39Z</time>
      </trkpt>
      <trkpt lat="43.57505" lon="3.32466">
        <ele>327</ele>
        <time>2015-11-22T09:05:41Z</time>
      </trkpt>
      <trkpt lat="43.57506" lon="3.32462">
        <ele>330</ele>
        <time>2015-11-22T09:05:43Z</time>
      </trkpt>
      <trkpt lat="43.5751" lon="3.32459">
        <ele>331</ele>
        <time>2015-11-22T09:05:45Z</time>
      </trkpt>
      <trkpt lat="43.57512" lon="3.32457">
        <ele>333</ele>
        <time>2015-11-22T09:05:48Z</time>
      </trkpt>
      <trkpt lat="43.57515" lon="3.32454">
        <ele>334.5</ele>
        <time>2015-11-22T09:05:50Z</time>
      </trkpt>
      <trkpt lat="43.57521" lon="3.32452">
        <ele>335</ele>
        <time>2015-11-22T09:05:52Z</time>
      </trkpt>
      <trkpt lat="43.57525" lon="3.32452">
        <ele>335</ele>
        <time>2015-11-22T09:05:54Z</time>
      </trkpt>
      <trkpt lat="43.57528" lon="3.32451">
        <ele>337</ele>
        <time>2015-11-22T09:05:56Z</time>
      </trkpt>
      <trkpt lat="43.57531" lon="3.3245">
        <ele>338</ele>
        <time>2015-11-22T09:05:59Z</time>
      </trkpt>
      <trkpt lat="43.57535" lon="3.32449">
        <ele>338</ele>
        <time>2015-11-22T09:06:01Z</time>
      </trkpt>
      <trkpt lat="43.57541" lon="3.32447">
        <ele>338</ele>
        <time>2015-11-22T09:06:03Z</time>
      </trkpt>
      <trkpt lat="43.57545" lon="3.32446">
        <ele>338</ele>
        <time>2015-11-22T09:06:05Z</time>
      </trkpt>
      <trkpt lat="43.57548" lon="3.32445">
        <ele>339.5</ele>
        <time>2015-11-22T09:06:07Z</time>
      </trkpt>
      <trkpt lat="43.5755" lon="3.32442">
        <ele>341.5</ele>
        <time>2015-11-22T09:06:09Z</time>
      </trkpt>
      <trkpt lat="43.57552" lon="3.32439">
        <ele>344</ele>
        <time>2015-11-22T09:06:11Z</time>
      </trkpt>
      <trkpt lat="43.57555" lon="3.32436">
        <ele>345.5</ele>
        <time>2015-11-22T09:06:13Z</time>
      </trkpt>
      <trkpt lat="43.57558" lon="3.32434">
        <ele>347.5</ele>
        <time>2015-11-22T09:06:15Z</time>
      </trkpt>
      <trkpt lat="43.57561" lon="3.32431">
        <ele>349</ele>
        <time>2015-11-22T09:06:17Z</time>
      </trkpt>
      <trkpt lat="43.57564" lon="3.32429">
        <ele>350.5</ele>
        <time>2015-11-22T09:06:19Z</time>
      </trkpt>
      <trkpt lat="43.57566" lon="3.32426">
        <ele>352.5</ele>
        <time>2015-11-22T09:06:21Z</time>
      </trkpt>
      <trkpt lat="43.57569" lon="3.32424">
        <ele>354.5</ele>
        <time>2015-11-22T09:06:23Z</time>
      </trkpt>
      <trkpt lat="43.57571" lon="3.32422">
        <ele>357</ele>
        <time>2015-11-22T09:06:26Z</time>
      </trkpt>
      <trkpt lat="43.57573" lon="3.3242">
        <ele>360</ele>
        <time>2015-11-22T09:06:28Z</time>
      </trkpt>
      <trkpt lat="43.57576" lon="3.32418">
        <ele>362.5</ele>
        <time>2015-11-22T09:06:30Z</time>
      </trkpt>
      <trkpt lat="43.57578" lon="3.32417">
        <ele>364.5</ele>
        <time>2015-11-22T09:06:32Z</time>
      </trkpt>
      <trkpt lat="43.57581" lon="3.32415">
        <ele>367.5</ele>
        <time>2015-11-22T09:06:34Z</time>
      </trkpt>
      <trkpt lat="43.57585" lon="3.32413">
        <ele>370</ele>
        <time>2015-11-22T09:06:36Z</time>
      </trkpt>
      <trkpt lat="43.57588" lon="3.32413">
        <ele>372</ele>
        <time>2015-11-22T09:06:39Z</time>
      </trkpt>
      <trkpt lat="43.57592" lon="3.32416">
        <ele>372</ele>
        <time>2015-11-22T09:06:41Z</time>
      </trkpt>
      <trkpt lat="43.57598" lon="3.3242">
        <ele>371.5</ele>
        <time>2015-11-22T09:06:44Z</time>
      </trkpt>
      <trkpt lat="43.57607" lon="3.32421">
        <ele>369</ele>
        <time>2015-11-22T09:06:46Z</time>
      </trkpt>
      <trkpt lat="43.57611" lon="3.32419">
        <ele>368</ele>
        <time>2015-11-22T09:06:48Z</time>
      </trkpt>
      <trkpt lat="43.57613" lon="3.32414">
        <ele>367</ele>
        <time>2015-11-22T09:06:51Z</time>
      </trkpt>
      <trkpt lat="43.57613" lon="3.32408">
        <ele>366</ele>
        <time>2015-11-22T09:06:53Z</time>
      </trkpt>
      <trkpt lat="43.5762" lon="3.32406">
        <ele>364</ele>
        <time>2015-11-22T09:06:54Z</time>
      </trkpt>
      <trkpt lat="43.57624" lon="3.32402">
        <ele>363.5</ele>
        <time>2015-11-22T09:06:56Z</time>
      </trkpt>
      <trkpt lat="43.5763" lon="3.324">
        <ele>360.5</ele>
        <time>2015-11-22T09:06:58Z</time>
      </trkpt>
      <trkpt lat="43.57637" lon="3.32399">
        <ele>358.5</ele>
        <time>2015-11-22T09:07:00Z</time>
      </trkpt>
      <trkpt lat="43.57643" lon="3.32396">
        <ele>358.5</ele>
        <time>2015-11-22T09:07:02Z</time>
      </trkpt>
      <trkpt lat="43.57647" lon="3.32392">
        <ele>359.5</ele>
        <time>2015-11-22T09:07:04Z</time>
      </trkpt>
      <trkpt lat="43.5765" lon="3.32389">
        <ele>360</ele>
        <time>2015-11-22T09:07:06Z</time>
      </trkpt>
      <trkpt lat="43.57655" lon="3.32387">
        <ele>357.5</ele>
        <time>2015-11-22T09:07:08Z</time>
      </trkpt>
      <trkpt lat="43.57658" lon="3.32384">
        <ele>355</ele>
        <time>2015-11-22T09:07:10Z</time>
      </trkpt>
      <trkpt lat="43.57665" lon="3.32384">
        <ele>350.5</ele>
        <time>2015-11-22T09:07:13Z</time>
      </trkpt>
      <trkpt lat="43.57669" lon="3.3238">
        <ele>350</ele>
        <time>2015-11-22T09:07:15Z</time>
      </trkpt>
      <trkpt lat="43.57672" lon="3.32377">
        <ele>349.5</ele>
        <time>2015-11-22T09:07:17Z</time>
      </trkpt>
      <trkpt lat="43.57675" lon="3.32375">
        <ele>348.5</ele>
        <time>2015-11-22T09:07:19Z</time>
      </trkpt>
      <trkpt lat="43.57677" lon="3.32372">
        <ele>347.5</ele>
        <time>2015-11-22T09:07:21Z</time>
      </trkpt>
      <trkpt lat="43.57679" lon="3.32368">
        <ele>349</ele>
        <time>2015-11-22T09:07:24Z</time>
      </trkpt>
      <trkpt lat="43.5768" lon="3.32364">
        <ele>350.5</ele>
        <time>2015-11-22T09:07:26Z</time>
      </trkpt>
      <trkpt lat="43.57682" lon="3.32361">
        <ele>351</ele>
        <time>2015-11-22T09:07:28Z</time>
      </trkpt>
      <trkpt lat="43.57689" lon="3.32359">
        <ele>350</ele>
        <time>2015-11-22T09:07:30Z</time>
      </trkpt>
      <trkpt lat="43.57693" lon="3.32358">
        <ele>350</ele>
        <time>2015-11-22T09:07:32Z</time>
      </trkpt>
      <trkpt lat="43.57697" lon="3.32356">
        <ele>351</ele>
        <time>2015-11-22T09:07:34Z</time>
      </trkpt>
      <trkpt lat="43.577" lon="3.32352">
        <ele>351.5</ele>
        <time>2015-11-22T09:07:36Z</time>
      </trkpt>
      <trkpt lat="43.57704" lon="3.3235">
        <ele>351</ele>
        <time>2015-11-22T09:07:38Z</time>
      </trkpt>
      <trkpt lat="43.57707" lon="3.32348">
        <ele>351.5</ele>
        <time>2015-11-22T09:07:40Z</time>
      </trkpt>
      <trkpt lat="43.57711" lon="3.32346">
        <ele>350</ele>
        <time>2015-11-22T09:07:42Z</time>
      </trkpt>
      <trkpt lat="43.57715" lon="3.32344">
        <ele>350</ele>
        <time>2015-11-22T09:07:44Z</time>
      </trkpt>
      <trkpt lat="43.57719" lon="3.32343">
        <ele>348</ele>
        <time>2015-11-22T09:07:46Z</time>
      </trkpt>
      <trkpt lat="43.57722" lon="3.32341">
        <ele>348.5</ele>
        <time>2015-11-22T09:07:48Z</time>
      </trkpt>
      <trkpt lat="43.57726" lon="3.32338">
        <ele>349.5</ele>
        <time>2015-11-22T09:07:50Z</time>
      </trkpt>
      <trkpt lat="43.57727" lon="3.32334">
        <ele>352</ele>
        <time>2015-11-22T09:07:52Z</time>
      </trkpt>
      <trkpt lat="43.57729" lon="3.3233">
        <ele>353.5</ele>
        <time>2015-11-22T09:07:54Z</time>
      </trkpt>
      <trkpt lat="43.57733" lon="3.32327">
        <ele>355.5</ele>
        <time>2015-11-22T09:07:57Z</time>
      </trkpt>
      <trkpt lat="43.57736" lon="3.32323">
        <ele>358</ele>
        <time>2015-11-22T09:07:59Z</time>
      </trkpt>
      <trkpt lat="43.57738" lon="3.32319">
        <ele>361</ele>
        <time>2015-11-22T09:08:01Z</time>
      </trkpt>
      <trkpt lat="43.57743" lon="3.32316">
        <ele>360</ele>
        <time>2015-11-22T09:08:04Z</time>
      </trkpt>
      <trkpt lat="43.57747" lon="3.32315">
        <ele>359.5</ele>
        <time>2015-11-22T09:08:06Z</time>
      </trkpt>
      <trkpt lat="43.57752" lon="3.32313">
        <ele>357.5</ele>
        <time>2015-11-22T09:08:08Z</time>
      </trkpt>
      <trkpt lat="43.57758" lon="3.32309">
        <ele>357</ele>
        <time>2015-11-22T09:08:10Z</time>
      </trkpt>
      <trkpt lat="43.57762" lon="3.32309">
        <ele>356</ele>
        <time>2015-11-22T09:08:12Z</time>
      </trkpt>
      <trkpt lat="43.57766" lon="3.32308">
        <ele>356</ele>
        <time>2015-11-22T09:08:14Z</time>
      </trkpt>
      <trkpt lat="43.5777" lon="3.32307">
        <ele>357.5</ele>
        <time>2015-11-22T09:08:16Z</time>
      </trkpt>
      <trkpt lat="43.57773" lon="3.32306">
        <ele>357.5</ele>
        <time>2015-11-22T09:08:18Z</time>
      </trkpt>
      <trkpt lat="43.57775" lon="3.32305">
        <ele>359</ele>
        <time>2015-11-22T09:08:20Z</time>
      </trkpt>
      <trkpt lat="43.57779" lon="3.32305">
        <ele>359.5</ele>
        <time>2015-11-22T09:08:22Z</time>
      </trkpt>
      <trkpt lat="43.57782" lon="3.32306">
        <ele>359</ele>
        <time>2015-11-22T09:08:24Z</time>
      </trkpt>
      <trkpt lat="43.57786" lon="3.32307">
        <ele>358.5</ele>
        <time>2015-11-22T09:08:26Z</time>
      </trkpt>
      <trkpt lat="43.57791" lon="3.32308">
        <ele>358.5</ele>
        <time>2015-11-22T09:08:28Z</time>
      </trkpt>
      <trkpt lat="43.57794" lon="3.32309">
        <ele>358.5</ele>
        <time>2015-11-22T09:08:31Z</time>
      </trkpt>
      <trkpt lat="43.57798" lon="3.32309">
        <ele>360.5</ele>
        <time>2015-11-22T09:08:33Z</time>
      </trkpt>
      <trkpt lat="43.57801" lon="3.32312">
        <ele>359.5</ele>
        <time>2015-11-22T09:08:36Z</time>
      </trkpt>
      <trkpt lat="43.57803" lon="3.32314">
        <ele>360</ele>
        <time>2015-11-22T09:08:38Z</time>
      </trkpt>
      <trkpt lat="43.57804" lon="3.32316">
        <ele>361.5</ele>
        <time>2015-11-22T09:08:39Z</time>
      </trkpt>
      <trkpt lat="43.57806" lon="3.32318">
        <ele>361.5</ele>
        <time>2015-11-22T09:08:42Z</time>
      </trkpt>
      <trkpt lat="43.57809" lon="3.3232">
        <ele>362</ele>
        <time>2015-11-22T09:08:44Z</time>
      </trkpt>
      <trkpt lat="43.57812" lon="3.32322">
        <ele>362</ele>
        <time>2015-11-22T09:08:46Z</time>
      </trkpt>
      <trkpt lat="43.57815" lon="3.32324">
        <ele>364</ele>
        <time>2015-11-22T09:08:49Z</time>
      </trkpt>
      <trkpt lat="43.57818" lon="3.32327">
        <ele>364.5</ele>
        <time>2015-11-22T09:08:51Z</time>
      </trkpt>
      <trkpt lat="43.57821" lon="3.3233">
        <ele>365.5</ele>
        <time>2015-11-22T09:08:53Z</time>
      </trkpt>
      <trkpt lat="43.57823" lon="3.32331">
        <ele>367</ele>
        <time>2015-11-22T09:08:55Z</time>
      </trkpt>
      <trkpt lat="43.57827" lon="3.32334">
        <ele>367</ele>
        <time>2015-11-22T09:08:57Z</time>
      </trkpt>
      <trkpt lat="43.57831" lon="3.32336">
        <ele>367</ele>
        <time>2015-11-22T09:08:59Z</time>
      </trkpt>
      <trkpt lat="43.57834" lon="3.32337">
        <ele>367</ele>
        <time>2015-11-22T09:09:01Z</time>
      </trkpt>
      <trkpt lat="43.57839" lon="3.32337">
        <ele>367</ele>
        <time>2015-11-22T09:09:04Z</time>
      </trkpt>
      <trkpt lat="43.57844" lon="3.32334">
        <ele>367</ele>
        <time>2015-11-22T09:09:06Z</time>
      </trkpt>
      <trkpt lat="43.57851" lon="3.32331">
        <ele>367</ele>
        <time>2015-11-22T09:09:08Z</time>
      </trkpt>
      <trkpt lat="43.57856" lon="3.32328">
        <ele>367.5</ele>
        <time>2015-11-22T09:09:10Z</time>
      </trkpt>
      <trkpt lat="43.57861" lon="3.32324">
        <ele>366.5</ele>
        <time>2015-11-22T09:09:12Z</time>
      </trkpt>
      <trkpt lat="43.57864" lon="3.3232">
        <ele>367</ele>
        <time>2015-11-22T09:09:14Z</time>
      </trkpt>
      <trkpt lat="43.57865" lon="3.32316">
        <ele>369</ele>
        <time>2015-11-22T09:09:16Z</time>
      </trkpt>
      <trkpt lat="43.57864" lon="3.3231">
        <ele>369</ele>
        <time>2015-11-22T09:09:18Z</time>
      </trkpt>
      <trkpt lat="43.57863" lon="3.32305">
        <ele>369</ele>
        <time>2015-11-22T09:09:20Z</time>
      </trkpt>
      <trkpt lat="43.57863" lon="3.32299">
        <ele>370</ele>
        <time>2015-11-22T09:09:22Z</time>
      </trkpt>
      <trkpt lat="43.57865" lon="3.32292">
        <ele>368</ele>
        <time>2015-11-22T09:09:24Z</time>
      </trkpt>
      <trkpt lat="43.57868" lon="3.32285">
        <ele>367</ele>
        <time>2015-11-22T09:09:26Z</time>
      </trkpt>
      <trkpt lat="43.57873" lon="3.32278">
        <ele>366</ele>
        <time>2015-11-22T09:09:28Z</time>
      </trkpt>
      <trkpt lat="43.57874" lon="3.3227">
        <ele>367</ele>
        <time>2015-11-22T09:09:31Z</time>
      </trkpt>
      <trkpt lat="43.57878" lon="3.32263">
        <ele>367.5</ele>
        <time>2015-11-22T09:09:33Z</time>
      </trkpt>
      <trkpt lat="43.57885" lon="3.32253">
        <ele>368.5</ele>
        <time>2015-11-22T09:09:36Z</time>
      </trkpt>
      <trkpt lat="43.57889" lon="3.32246">
        <ele>368.5</ele>
        <time>2015-11-22T09:09:38Z</time>
      </trkpt>
      <trkpt lat="43.57896" lon="3.32239">
        <ele>367.5</ele>
        <time>2015-11-22T09:09:40Z</time>
      </trkpt>
      <trkpt lat="43.57902" lon="3.32229">
        <ele>367</ele>
        <time>2015-11-22T09:09:42Z</time>
      </trkpt>
      <trkpt lat="43.57905" lon="3.32224">
        <ele>367</ele>
        <time>2015-11-22T09:09:44Z</time>
      </trkpt>
      <trkpt lat="43.57905" lon="3.32217">
        <ele>368</ele>
        <time>2015-11-22T09:09:47Z</time>
      </trkpt>
      <trkpt lat="43.57904" lon="3.3221">
        <ele>368.5</ele>
        <time>2015-11-22T09:09:49Z</time>
      </trkpt>
      <trkpt lat="43.57901" lon="3.32205">
        <ele>369.5</ele>
        <time>2015-11-22T09:09:51Z</time>
      </trkpt>
      <trkpt lat="43.57898" lon="3.32196">
        <ele>369.5</ele>
        <time>2015-11-22T09:09:53Z</time>
      </trkpt>
      <trkpt lat="43.57897" lon="3.32192">
        <ele>370.5</ele>
        <time>2015-11-22T09:09:55Z</time>
      </trkpt>
      <trkpt lat="43.57896" lon="3.32185">
        <ele>370.5</ele>
        <time>2015-11-22T09:09:57Z</time>
      </trkpt>
      <trkpt lat="43.57897" lon="3.32178">
        <ele>370</ele>
        <time>2015-11-22T09:09:59Z</time>
      </trkpt>
      <trkpt lat="43.57897" lon="3.32171">
        <ele>370.5</ele>
        <time>2015-11-22T09:10:01Z</time>
      </trkpt>
      <trkpt lat="43.57899" lon="3.32164">
        <ele>371.5</ele>
        <time>2015-11-22T09:10:03Z</time>
      </trkpt>
      <trkpt lat="43.57903" lon="3.32161">
        <ele>371</ele>
        <time>2015-11-22T09:10:05Z</time>
      </trkpt>
      <trkpt lat="43.57905" lon="3.32155">
        <ele>370</ele>
        <time>2015-11-22T09:10:07Z</time>
      </trkpt>
      <trkpt lat="43.57908" lon="3.3215">
        <ele>369.5</ele>
        <time>2015-11-22T09:10:09Z</time>
      </trkpt>
      <trkpt lat="43.57911" lon="3.32147">
        <ele>370</ele>
        <time>2015-11-22T09:10:11Z</time>
      </trkpt>
      <trkpt lat="43.57913" lon="3.32145">
        <ele>370.5</ele>
        <time>2015-11-22T09:10:13Z</time>
      </trkpt>
      <trkpt lat="43.57916" lon="3.32142">
        <ele>370.5</ele>
        <time>2015-11-22T09:10:16Z</time>
      </trkpt>
      <trkpt lat="43.57918" lon="3.32139">
        <ele>370.5</ele>
        <time>2015-11-22T09:10:18Z</time>
      </trkpt>
      <trkpt lat="43.57922" lon="3.32134">
        <ele>369</ele>
        <time>2015-11-22T09:10:20Z</time>
      </trkpt>
      <trkpt lat="43.57925" lon="3.32131">
        <ele>368.5</ele>
        <time>2015-11-22T09:10:23Z</time>
      </trkpt>
      <trkpt lat="43.57928" lon="3.32129">
        <ele>368</ele>
        <time>2015-11-22T09:10:24Z</time>
      </trkpt>
      <trkpt lat="43.57932" lon="3.32125">
        <ele>367</ele>
        <time>2015-11-22T09:10:26Z</time>
      </trkpt>
      <trkpt lat="43.57933" lon="3.3212">
        <ele>370.5</ele>
        <time>2015-11-22T09:10:28Z</time>
      </trkpt>
      <trkpt lat="43.57936" lon="3.32115">
        <ele>370.5</ele>
        <time>2015-11-22T09:10:31Z</time>
      </trkpt>
      <trkpt lat="43.57938" lon="3.3211">
        <ele>372.5</ele>
        <time>2015-11-22T09:10:32Z</time>
      </trkpt>
      <trkpt lat="43.57941" lon="3.32106">
        <ele>372.5</ele>
        <time>2015-11-22T09:10:34Z</time>
      </trkpt>
      <trkpt lat="43.57945" lon="3.32103">
        <ele>371.5</ele>
        <time>2015-11-22T09:10:37Z</time>
      </trkpt>
      <trkpt lat="43.57948" lon="3.321">
        <ele>370.5</ele>
        <time>2015-11-22T09:10:39Z</time>
      </trkpt>
      <trkpt lat="43.57954" lon="3.32094">
        <ele>370</ele>
        <time>2015-11-22T09:10:41Z</time>
      </trkpt>
      <trkpt lat="43.57958" lon="3.32089">
        <ele>370</ele>
        <time>2015-11-22T09:10:43Z</time>
      </trkpt>
      <trkpt lat="43.57961" lon="3.32085">
        <ele>370</ele>
        <time>2015-11-22T09:10:46Z</time>
      </trkpt>
      <trkpt lat="43.57963" lon="3.32081">
        <ele>371</ele>
        <time>2015-11-22T09:10:47Z</time>
      </trkpt>
      <trkpt lat="43.57965" lon="3.32078">
        <ele>373</ele>
        <time>2015-11-22T09:10:49Z</time>
      </trkpt>
      <trkpt lat="43.57968" lon="3.32075">
        <ele>374.5</ele>
        <time>2015-11-22T09:10:51Z</time>
      </trkpt>
      <trkpt lat="43.57971" lon="3.32074">
        <ele>374.5</ele>
        <time>2015-11-22T09:10:53Z</time>
      </trkpt>
      <trkpt lat="43.57973" lon="3.3207">
        <ele>376</ele>
        <time>2015-11-22T09:10:55Z</time>
      </trkpt>
      <trkpt lat="43.57977" lon="3.32067">
        <ele>375</ele>
        <time>2015-11-22T09:10:57Z</time>
      </trkpt>
      <trkpt lat="43.5798" lon="3.32063">
        <ele>373.5</ele>
        <time>2015-11-22T09:10:59Z</time>
      </trkpt>
      <trkpt lat="43.57986" lon="3.3206">
        <ele>371.5</ele>
        <time>2015-11-22T09:11:01Z</time>
      </trkpt>
      <trkpt lat="43.57993" lon="3.32056">
        <ele>370.5</ele>
        <time>2015-11-22T09:11:03Z</time>
      </trkpt>
      <trkpt lat="43.57995" lon="3.32053">
        <ele>371</ele>
        <time>2015-11-22T09:11:05Z</time>
      </trkpt>
      <trkpt lat="43.57997" lon="3.3205">
        <ele>372.5</ele>
        <time>2015-11-22T09:11:07Z</time>
      </trkpt>
      <trkpt lat="43.58001" lon="3.32046">
        <ele>370.5</ele>
        <time>2015-11-22T09:11:09Z</time>
      </trkpt>
      <trkpt lat="43.58003" lon="3.32041">
        <ele>372</ele>
        <time>2015-11-22T09:11:11Z</time>
      </trkpt>
      <trkpt lat="43.58006" lon="3.32036">
        <ele>371.5</ele>
        <time>2015-11-22T09:11:13Z</time>
      </trkpt>
      <trkpt lat="43.58008" lon="3.32033">
        <ele>372.5</ele>
        <time>2015-11-22T09:11:16Z</time>
      </trkpt>
      <trkpt lat="43.5801" lon="3.32029">
        <ele>374.5</ele>
        <time>2015-11-22T09:11:17Z</time>
      </trkpt>
      <trkpt lat="43.58012" lon="3.32023">
        <ele>375</ele>
        <time>2015-11-22T09:11:19Z</time>
      </trkpt>
      <trkpt lat="43.58013" lon="3.32018">
        <ele>377.5</ele>
        <time>2015-11-22T09:11:21Z</time>
      </trkpt>
      <trkpt lat="43.58016" lon="3.32016">
        <ele>377</ele>
        <time>2015-11-22T09:11:23Z</time>
      </trkpt>
      <trkpt lat="43.58019" lon="3.32012">
        <ele>378</ele>
        <time>2015-11-22T09:11:25Z</time>
      </trkpt>
      <trkpt lat="43.58024" lon="3.32009">
        <ele>377</ele>
        <time>2015-11-22T09:11:27Z</time>
      </trkpt>
      <trkpt lat="43.58027" lon="3.32006">
        <ele>379</ele>
        <time>2015-11-22T09:11:29Z</time>
      </trkpt>
      <trkpt lat="43.58031" lon="3.32004">
        <ele>380</ele>
        <time>2015-11-22T09:11:31Z</time>
      </trkpt>
      <trkpt lat="43.58034" lon="3.32004">
        <ele>380.5</ele>
        <time>2015-11-22T09:11:33Z</time>
      </trkpt>
      <trkpt lat="43.58037" lon="3.32004">
        <ele>381.5</ele>
        <time>2015-11-22T09:11:35Z</time>
      </trkpt>
      <trkpt lat="43.5804" lon="3.32004">
        <ele>383</ele>
        <time>2015-11-22T09:11:37Z</time>
      </trkpt>
      <trkpt lat="43.58043" lon="3.32005">
        <ele>384</ele>
        <time>2015-11-22T09:11:39Z</time>
      </trkpt>
      <trkpt lat="43.58046" lon="3.32006">
        <ele>385</ele>
        <time>2015-11-22T09:11:42Z</time>
      </trkpt>
      <trkpt lat="43.58048" lon="3.32006">
        <ele>387.5</ele>
        <time>2015-11-22T09:11:43Z</time>
      </trkpt>
      <trkpt lat="43.58049" lon="3.32005">
        <ele>391</ele>
        <time>2015-11-22T09:11:45Z</time>
      </trkpt>
      <trkpt lat="43.58051" lon="3.32004">
        <ele>393.5</ele>
        <time>2015-11-22T09:11:48Z</time>
      </trkpt>
      <trkpt lat="43.58056" lon="3.32006">
        <ele>395</ele>
        <time>2015-11-22T09:11:50Z</time>
      </trkpt>
      <trkpt lat="43.5806" lon="3.32007">
        <ele>395</ele>
        <time>2015-11-22T09:11:52Z</time>
      </trkpt>
      <trkpt lat="43.58063" lon="3.32008">
        <ele>394</ele>
        <time>2015-11-22T09:11:54Z</time>
      </trkpt>
      <trkpt lat="43.58067" lon="3.32009">
        <ele>393</ele>
        <time>2015-11-22T09:11:57Z</time>
      </trkpt>
      <trkpt lat="43.5807" lon="3.32009">
        <ele>393.5</ele>
        <time>2015-11-22T09:11:59Z</time>
      </trkpt>
      <trkpt lat="43.5807" lon="3.32008">
        <ele>397</ele>
        <time>2015-11-22T09:12:00Z</time>
      </trkpt>
      <trkpt lat="43.58073" lon="3.32008">
        <ele>397.5</ele>
        <time>2015-11-22T09:12:02Z</time>
      </trkpt>
      <trkpt lat="43.58076" lon="3.32008">
        <ele>397.5</ele>
        <time>2015-11-22T09:12:04Z</time>
      </trkpt>
      <trkpt lat="43.5808" lon="3.32009">
        <ele>397.5</ele>
        <time>2015-11-22T09:12:07Z</time>
      </trkpt>
      <trkpt lat="43.58084" lon="3.32008">
        <ele>398</ele>
        <time>2015-11-22T09:12:09Z</time>
      </trkpt>
      <trkpt lat="43.58087" lon="3.32007">
        <ele>397</ele>
        <time>2015-11-22T09:12:11Z</time>
      </trkpt>
      <trkpt lat="43.5809" lon="3.32005">
        <ele>398.5</ele>
        <time>2015-11-22T09:12:13Z</time>
      </trkpt>
      <trkpt lat="43.58094" lon="3.32004">
        <ele>399</ele>
        <time>2015-11-22T09:12:16Z</time>
      </trkpt>
      <trkpt lat="43.58099" lon="3.32005">
        <ele>397.5</ele>
        <time>2015-11-22T09:12:18Z</time>
      </trkpt>
      <trkpt lat="43.581" lon="3.32003">
        <ele>399.5</ele>
        <time>2015-11-22T09:12:19Z</time>
      </trkpt>
      <trkpt lat="43.58104" lon="3.32003">
        <ele>400.5</ele>
        <time>2015-11-22T09:12:21Z</time>
      </trkpt>
      <trkpt lat="43.58108" lon="3.32002">
        <ele>399.5</ele>
        <time>2015-11-22T09:12:23Z</time>
      </trkpt>
      <trkpt lat="43.58112" lon="3.32">
        <ele>400</ele>
        <time>2015-11-22T09:12:25Z</time>
      </trkpt>
      <trkpt lat="43.58115" lon="3.31998">
        <ele>400.5</ele>
        <time>2015-11-22T09:12:28Z</time>
      </trkpt>
      <trkpt lat="43.58119" lon="3.31998">
        <ele>399.5</ele>
        <time>2015-11-22T09:12:30Z</time>
      </trkpt>
      <trkpt lat="43.58122" lon="3.32005">
        <ele>399</ele>
        <time>2015-11-22T09:12:32Z</time>
      </trkpt>
      <trkpt lat="43.58121" lon="3.32009">
        <ele>397.5</ele>
        <time>2015-11-22T09:12:35Z</time>
      </trkpt>
      <trkpt lat="43.58117" lon="3.32014">
        <ele>397</ele>
        <time>2015-11-22T09:12:37Z</time>
      </trkpt>
      <trkpt lat="43.58114" lon="3.32015">
        <ele>397.5</ele>
        <time>2015-11-22T09:12:39Z</time>
      </trkpt>
      <trkpt lat="43.58111" lon="3.32017">
        <ele>397</ele>
        <time>2015-11-22T09:12:42Z</time>
      </trkpt>
      <trkpt lat="43.58109" lon="3.32019">
        <ele>396.5</ele>
        <time>2015-11-22T09:12:43Z</time>
      </trkpt>
      <trkpt lat="43.58106" lon="3.32021">
        <ele>396.5</ele>
        <time>2015-11-22T09:12:45Z</time>
      </trkpt>
      <trkpt lat="43.58103" lon="3.32023">
        <ele>396.5</ele>
        <time>2015-11-22T09:12:48Z</time>
      </trkpt>
      <trkpt lat="43.58101" lon="3.32027">
        <ele>397.5</ele>
        <time>2015-11-22T09:12:50Z</time>
      </trkpt>
      <trkpt lat="43.58098" lon="3.3203">
        <ele>397.5</ele>
        <time>2015-11-22T09:12:52Z</time>
      </trkpt>
      <trkpt lat="43.58095" lon="3.32032">
        <ele>397.5</ele>
        <time>2015-11-22T09:12:54Z</time>
      </trkpt>
      <trkpt lat="43.58093" lon="3.32034">
        <ele>396.5</ele>
        <time>2015-11-22T09:12:56Z</time>
      </trkpt>
      <trkpt lat="43.58089" lon="3.32037">
        <ele>395.5</ele>
        <time>2015-11-22T09:12:58Z</time>
      </trkpt>
      <trkpt lat="43.58086" lon="3.32039">
        <ele>394</ele>
        <time>2015-11-22T09:13:00Z</time>
      </trkpt>
      <trkpt lat="43.58083" lon="3.32041">
        <ele>393</ele>
        <time>2015-11-22T09:13:02Z</time>
      </trkpt>
      <trkpt lat="43.5808" lon="3.32043">
        <ele>393.5</ele>
        <time>2015-11-22T09:13:04Z</time>
      </trkpt>
      <trkpt lat="43.58076" lon="3.32045">
        <ele>393</ele>
        <time>2015-11-22T09:13:06Z</time>
      </trkpt>
      <trkpt lat="43.58072" lon="3.32047">
        <ele>391.5</ele>
        <time>2015-11-22T09:13:08Z</time>
      </trkpt>
      <trkpt lat="43.58068" lon="3.3205">
        <ele>390.5</ele>
        <time>2015-11-22T09:13:10Z</time>
      </trkpt>
      <trkpt lat="43.58064" lon="3.32053">
        <ele>389.5</ele>
        <time>2015-11-22T09:13:12Z</time>
      </trkpt>
      <trkpt lat="43.58058" lon="3.32058">
        <ele>390</ele>
        <time>2015-11-22T09:13:15Z</time>
      </trkpt>
      <trkpt lat="43.58054" lon="3.32063">
        <ele>390</ele>
        <time>2015-11-22T09:13:18Z</time>
      </trkpt>
      <trkpt lat="43.58051" lon="3.32067">
        <ele>390</ele>
        <time>2015-11-22T09:13:19Z</time>
      </trkpt>
      <trkpt lat="43.58047" lon="3.32072">
        <ele>390</ele>
        <time>2015-11-22T09:13:22Z</time>
      </trkpt>
      <trkpt lat="43.58044" lon="3.32077">
        <ele>390.5</ele>
        <time>2015-11-22T09:13:23Z</time>
      </trkpt>
      <trkpt lat="43.58041" lon="3.32081">
        <ele>390.5</ele>
        <time>2015-11-22T09:13:25Z</time>
      </trkpt>
      <trkpt lat="43.58039" lon="3.32087">
        <ele>391.5</ele>
        <time>2015-11-22T09:13:28Z</time>
      </trkpt>
      <trkpt lat="43.58036" lon="3.32092">
        <ele>391.5</ele>
        <time>2015-11-22T09:13:30Z</time>
      </trkpt>
      <trkpt lat="43.58033" lon="3.32098">
        <ele>391.5</ele>
        <time>2015-11-22T09:13:31Z</time>
      </trkpt>
      <trkpt lat="43.58031" lon="3.32104">
        <ele>391.5</ele>
        <time>2015-11-22T09:13:34Z</time>
      </trkpt>
      <trkpt lat="43.58029" lon="3.32109">
        <ele>391.5</ele>
        <time>2015-11-22T09:13:35Z</time>
      </trkpt>
      <trkpt lat="43.58026" lon="3.32115">
        <ele>391.5</ele>
        <time>2015-11-22T09:13:38Z</time>
      </trkpt>
      <trkpt lat="43.58023" lon="3.32124">
        <ele>392</ele>
        <time>2015-11-22T09:13:40Z</time>
      </trkpt>
      <trkpt lat="43.58021" lon="3.3213">
        <ele>393</ele>
        <time>2015-11-22T09:13:43Z</time>
      </trkpt>
      <trkpt lat="43.5802" lon="3.32136">
        <ele>392.5</ele>
        <time>2015-11-22T09:13:44Z</time>
      </trkpt>
      <trkpt lat="43.58018" lon="3.32143">
        <ele>393</ele>
        <time>2015-11-22T09:13:46Z</time>
      </trkpt>
      <trkpt lat="43.58016" lon="3.32149">
        <ele>394</ele>
        <time>2015-11-22T09:13:49Z</time>
      </trkpt>
      <trkpt lat="43.58014" lon="3.32155">
        <ele>394.5</ele>
        <time>2015-11-22T09:13:51Z</time>
      </trkpt>
      <trkpt lat="43.58013" lon="3.32161">
        <ele>394.5</ele>
        <time>2015-11-22T09:13:53Z</time>
      </trkpt>
      <trkpt lat="43.5801" lon="3.32171">
        <ele>394.5</ele>
        <time>2015-11-22T09:13:55Z</time>
      </trkpt>
      <trkpt lat="43.58011" lon="3.32177">
        <ele>393</ele>
        <time>2015-11-22T09:13:58Z</time>
      </trkpt>
      <trkpt lat="43.5801" lon="3.32183">
        <ele>392.5</ele>
        <time>2015-11-22T09:14:00Z</time>
      </trkpt>
      <trkpt lat="43.5801" lon="3.32189">
        <ele>394</ele>
        <time>2015-11-22T09:14:02Z</time>
      </trkpt>
      <trkpt lat="43.58007" lon="3.32199">
        <ele>396</ele>
        <time>2015-11-22T09:14:04Z</time>
      </trkpt>
      <trkpt lat="43.58006" lon="3.32207">
        <ele>395.5</ele>
        <time>2015-11-22T09:14:06Z</time>
      </trkpt>
      <trkpt lat="43.58004" lon="3.32214">
        <ele>396.5</ele>
        <time>2015-11-22T09:14:09Z</time>
      </trkpt>
      <trkpt lat="43.58003" lon="3.32221">
        <ele>395.5</ele>
        <time>2015-11-22T09:14:11Z</time>
      </trkpt>
      <trkpt lat="43.58002" lon="3.32231">
        <ele>394</ele>
        <time>2015-11-22T09:14:13Z</time>
      </trkpt>
      <trkpt lat="43.58001" lon="3.32237">
        <ele>394.5</ele>
        <time>2015-11-22T09:14:15Z</time>
      </trkpt>
      <trkpt lat="43.57999" lon="3.32243">
        <ele>395</ele>
        <time>2015-11-22T09:14:17Z</time>
      </trkpt>
      <trkpt lat="43.57999" lon="3.32249">
        <ele>395.5</ele>
        <time>2015-11-22T09:14:20Z</time>
      </trkpt>
      <trkpt lat="43.57997" lon="3.32256">
        <ele>394</ele>
        <time>2015-11-22T09:14:21Z</time>
      </trkpt>
      <trkpt lat="43.57997" lon="3.32262">
        <ele>393.5</ele>
        <time>2015-11-22T09:14:23Z</time>
      </trkpt>
      <trkpt lat="43.57997" lon="3.32267">
        <ele>394</ele>
        <time>2015-11-22T09:14:25Z</time>
      </trkpt>
      <trkpt lat="43.57995" lon="3.32273">
        <ele>394.5</ele>
        <time>2015-11-22T09:14:28Z</time>
      </trkpt>
      <trkpt lat="43.57994" lon="3.32278">
        <ele>395</ele>
        <time>2015-11-22T09:14:29Z</time>
      </trkpt>
      <trkpt lat="43.57993" lon="3.32284">
        <ele>395</ele>
        <time>2015-11-22T09:14:31Z</time>
      </trkpt>
      <trkpt lat="43.57992" lon="3.32289">
        <ele>395</ele>
        <time>2015-11-22T09:14:33Z</time>
      </trkpt>
      <trkpt lat="43.57991" lon="3.32294">
        <ele>396</ele>
        <time>2015-11-22T09:14:35Z</time>
      </trkpt>
      <trkpt lat="43.57989" lon="3.32299">
        <ele>396.5</ele>
        <time>2015-11-22T09:14:37Z</time>
      </trkpt>
      <trkpt lat="43.57986" lon="3.32303">
        <ele>398</ele>
        <time>2015-11-22T09:14:40Z</time>
      </trkpt>
      <trkpt lat="43.57986" lon="3.32311">
        <ele>398.5</ele>
        <time>2015-11-22T09:14:43Z</time>
      </trkpt>
      <trkpt lat="43.57984" lon="3.32319">
        <ele>400</ele>
        <time>2015-11-22T09:14:45Z</time>
      </trkpt>
      <trkpt lat="43.57984" lon="3.32325">
        <ele>398</ele>
        <time>2015-11-22T09:14:47Z</time>
      </trkpt>
      <trkpt lat="43.57984" lon="3.32332">
        <ele>394</ele>
        <time>2015-11-22T09:14:49Z</time>
      </trkpt>
      <trkpt lat="43.57984" lon="3.32336">
        <ele>394.5</ele>
        <time>2015-11-22T09:14:52Z</time>
      </trkpt>
      <trkpt lat="43.57985" lon="3.32342">
        <ele>394.5</ele>
        <time>2015-11-22T09:14:54Z</time>
      </trkpt>
      <trkpt lat="43.57988" lon="3.32351">
        <ele>394.5</ele>
        <time>2015-11-22T09:14:55Z</time>
      </trkpt>
      <trkpt lat="43.57987" lon="3.32357">
        <ele>394</ele>
        <time>2015-11-22T09:14:57Z</time>
      </trkpt>
      <trkpt lat="43.57986" lon="3.32363">
        <ele>394.5</ele>
        <time>2015-11-22T09:15:00Z</time>
      </trkpt>
      <trkpt lat="43.57986" lon="3.32367">
        <ele>394.5</ele>
        <time>2015-11-22T09:15:01Z</time>
      </trkpt>
      <trkpt lat="43.57987" lon="3.32375">
        <ele>395</ele>
        <time>2015-11-22T09:15:03Z</time>
      </trkpt>
      <trkpt lat="43.57985" lon="3.32381">
        <ele>395.5</ele>
        <time>2015-11-22T09:15:05Z</time>
      </trkpt>
      <trkpt lat="43.57987" lon="3.32388">
        <ele>395</ele>
        <time>2015-11-22T09:15:07Z</time>
      </trkpt>
      <trkpt lat="43.57985" lon="3.32393">
        <ele>395.5</ele>
        <time>2015-11-22T09:15:09Z</time>
      </trkpt>
      <trkpt lat="43.57984" lon="3.32399">
        <ele>395.5</ele>
        <time>2015-11-22T09:15:12Z</time>
      </trkpt>
      <trkpt lat="43.57982" lon="3.32405">
        <ele>396</ele>
        <time>2015-11-22T09:15:14Z</time>
      </trkpt>
      <trkpt lat="43.57979" lon="3.32409">
        <ele>396.5</ele>
        <time>2015-11-22T09:15:15Z</time>
      </trkpt>
      <trkpt lat="43.57976" lon="3.32413">
        <ele>398</ele>
        <time>2015-11-22T09:15:17Z</time>
      </trkpt>
      <trkpt lat="43.57974" lon="3.32417">
        <ele>399</ele>
        <time>2015-11-22T09:15:19Z</time>
      </trkpt>
      <trkpt lat="43.57971" lon="3.32421">
        <ele>399</ele>
        <time>2015-11-22T09:15:21Z</time>
      </trkpt>
      <trkpt lat="43.5797" lon="3.32426">
        <ele>400.5</ele>
        <time>2015-11-22T09:15:23Z</time>
      </trkpt>
      <trkpt lat="43.57971" lon="3.32431">
        <ele>402.5</ele>
        <time>2015-11-22T09:15:25Z</time>
      </trkpt>
      <trkpt lat="43.5797" lon="3.32436">
        <ele>402.5</ele>
        <time>2015-11-22T09:15:28Z</time>
      </trkpt>
      <trkpt lat="43.57969" lon="3.3244">
        <ele>402.5</ele>
        <time>2015-11-22T09:15:29Z</time>
      </trkpt>
      <trkpt lat="43.57969" lon="3.32443">
        <ele>403</ele>
        <time>2015-11-22T09:15:31Z</time>
      </trkpt>
      <trkpt lat="43.5797" lon="3.32445">
        <ele>403.5</ele>
        <time>2015-11-22T09:15:33Z</time>
      </trkpt>
      <trkpt lat="43.57971" lon="3.32447">
        <ele>404</ele>
        <time>2015-11-22T09:15:35Z</time>
      </trkpt>
      <trkpt lat="43.57973" lon="3.3245">
        <ele>403.5</ele>
        <time>2015-11-22T09:15:37Z</time>
      </trkpt>
      <trkpt lat="43.57973" lon="3.3245">
        <ele>406</ele>
        <time>2015-11-22T09:15:39Z</time>
      </trkpt>
      <trkpt lat="43.57973" lon="3.3245">
        <ele>405.5</ele>
        <time>2015-11-22T09:15:41Z</time>
      </trkpt>
      <trkpt lat="43.57972" lon="3.3245">
        <ele>407.5</ele>
        <time>2015-11-22T09:15:46Z</time>
      </trkpt>
      <trkpt lat="43.57971" lon="3.32453">
        <ele>407</ele>
        <time>2015-11-22T09:16:01Z</time>
      </trkpt>
      <trkpt lat="43.5797" lon="3.32454">
        <ele>407.5</ele>
        <time>2015-11-22T09:16:20Z</time>
      </trkpt>
      <trkpt lat="43.57971" lon="3.32454">
        <ele>412</ele>
        <time>2015-11-22T09:16:33Z</time>
      </trkpt>
      <trkpt lat="43.5797" lon="3.32456">
        <ele>410</ele>
        <time>2015-11-22T09:17:08Z</time>
      </trkpt>
      <trkpt lat="43.5797" lon="3.32456">
        <ele>408.5</ele>
        <time>2015-11-22T09:17:24Z</time>
      </trkpt>
      <trkpt lat="43.57969" lon="3.32456">
        <ele>408.5</ele>
        <time>2015-11-22T09:17:31Z</time>
      </trkpt>
      <trkpt lat="43.57968" lon="3.32455">
        <ele>408</ele>
        <time>2015-11-22T09:17:35Z</time>
      </trkpt>
      <trkpt lat="43.57967" lon="3.32454">
        <ele>408</ele>
        <time>2015-11-22T09:17:40Z</time>
      </trkpt>
      <trkpt lat="43.57966" lon="3.32449">
        <ele>407.5</ele>
        <time>2015-11-22T09:17:43Z</time>
      </trkpt>
      <trkpt lat="43.57963" lon="3.3245">
        <ele>407</ele>
        <time>2015-11-22T09:17:45Z</time>
      </trkpt>
      <trkpt lat="43.5796" lon="3.32453">
        <ele>406.5</ele>
        <time>2015-11-22T09:17:47Z</time>
      </trkpt>
      <trkpt lat="43.57957" lon="3.32456">
        <ele>406.5</ele>
        <time>2015-11-22T09:17:49Z</time>
      </trkpt>
      <trkpt lat="43.57955" lon="3.3246">
        <ele>406.5</ele>
        <time>2015-11-22T09:17:51Z</time>
      </trkpt>
      <trkpt lat="43.57953" lon="3.32464">
        <ele>406</ele>
        <time>2015-11-22T09:17:53Z</time>
      </trkpt>
      <trkpt lat="43.57951" lon="3.32469">
        <ele>406</ele>
        <time>2015-11-22T09:17:55Z</time>
      </trkpt>
      <trkpt lat="43.57948" lon="3.32473">
        <ele>406</ele>
        <time>2015-11-22T09:17:57Z</time>
      </trkpt>
      <trkpt lat="43.57945" lon="3.32477">
        <ele>406</ele>
        <time>2015-11-22T09:18:00Z</time>
      </trkpt>
      <trkpt lat="43.5794" lon="3.32482">
        <ele>405.5</ele>
        <time>2015-11-22T09:18:01Z</time>
      </trkpt>
      <trkpt lat="43.57935" lon="3.32487">
        <ele>406</ele>
        <time>2015-11-22T09:18:03Z</time>
      </trkpt>
      <trkpt lat="43.5793" lon="3.32492">
        <ele>405.5</ele>
        <time>2015-11-22T09:18:05Z</time>
      </trkpt>
      <trkpt lat="43.57925" lon="3.32496">
        <ele>405.5</ele>
        <time>2015-11-22T09:18:07Z</time>
      </trkpt>
      <trkpt lat="43.57919" lon="3.325">
        <ele>405</ele>
        <time>2015-11-22T09:18:09Z</time>
      </trkpt>
      <trkpt lat="43.57914" lon="3.32504">
        <ele>405.5</ele>
        <time>2015-11-22T09:18:11Z</time>
      </trkpt>
      <trkpt lat="43.57908" lon="3.32507">
        <ele>405</ele>
        <time>2015-11-22T09:18:13Z</time>
      </trkpt>
      <trkpt lat="43.57903" lon="3.32511">
        <ele>405</ele>
        <time>2015-11-22T09:18:15Z</time>
      </trkpt>
      <trkpt lat="43.57898" lon="3.32513">
        <ele>405</ele>
        <time>2015-11-22T09:18:17Z</time>
      </trkpt>
      <trkpt lat="43.57893" lon="3.32513">
        <ele>403.5</ele>
        <time>2015-11-22T09:18:19Z</time>
      </trkpt>
      <trkpt lat="43.57889" lon="3.32514">
        <ele>402.5</ele>
        <time>2015-11-22T09:18:21Z</time>
      </trkpt>
      <trkpt lat="43.57886" lon="3.32515">
        <ele>402.5</ele>
        <time>2015-11-22T09:18:24Z</time>
      </trkpt>
      <trkpt lat="43.57881" lon="3.32515">
        <ele>403</ele>
        <time>2015-11-22T09:18:26Z</time>
      </trkpt>
      <trkpt lat="43.57876" lon="3.32517">
        <ele>403</ele>
        <time>2015-11-22T09:18:28Z</time>
      </trkpt>
      <trkpt lat="43.57872" lon="3.32519">
        <ele>404</ele>
        <time>2015-11-22T09:18:31Z</time>
      </trkpt>
      <trkpt lat="43.57871" lon="3.32521">
        <ele>404</ele>
        <time>2015-11-22T09:18:33Z</time>
      </trkpt>
      <trkpt lat="43.57865" lon="3.32524">
        <ele>405</ele>
        <time>2015-11-22T09:18:35Z</time>
      </trkpt>
      <trkpt lat="43.57861" lon="3.32526">
        <ele>405.5</ele>
        <time>2015-11-22T09:18:38Z</time>
      </trkpt>
      <trkpt lat="43.57858" lon="3.32528">
        <ele>406.5</ele>
        <time>2015-11-22T09:18:40Z</time>
      </trkpt>
      <trkpt lat="43.57852" lon="3.32528">
        <ele>407</ele>
        <time>2015-11-22T09:18:42Z</time>
      </trkpt>
      <trkpt lat="43.57843" lon="3.32531">
        <ele>407</ele>
        <time>2015-11-22T09:18:44Z</time>
      </trkpt>
      <trkpt lat="43.57839" lon="3.32533">
        <ele>407</ele>
        <time>2015-11-22T09:18:46Z</time>
      </trkpt>
      <trkpt lat="43.57835" lon="3.32536">
        <ele>407</ele>
        <time>2015-11-22T09:18:49Z</time>
      </trkpt>
      <trkpt lat="43.5783" lon="3.32538">
        <ele>408.5</ele>
        <time>2015-11-22T09:18:51Z</time>
      </trkpt>
      <trkpt lat="43.57823" lon="3.32542">
        <ele>409</ele>
        <time>2015-11-22T09:18:53Z</time>
      </trkpt>
      <trkpt lat="43.57821" lon="3.32544">
        <ele>409.5</ele>
        <time>2015-11-22T09:18:55Z</time>
      </trkpt>
      <trkpt lat="43.57821" lon="3.32544">
        <ele>409.5</ele>
        <time>2015-11-22T09:18:57Z</time>
      </trkpt>
      <trkpt lat="43.57817" lon="3.32547">
        <ele>407.5</ele>
        <time>2015-11-22T09:19:10Z</time>
      </trkpt>
      <trkpt lat="43.57816" lon="3.32548">
        <ele>407.5</ele>
        <time>2015-11-22T09:19:26Z</time>
      </trkpt>
      <trkpt lat="43.57815" lon="3.3255">
        <ele>408</ele>
        <time>2015-11-22T09:19:45Z</time>
      </trkpt>
      <trkpt lat="43.57815" lon="3.32551">
        <ele>408</ele>
        <time>2015-11-22T09:19:48Z</time>
      </trkpt>
      <trkpt lat="43.57813" lon="3.32553">
        <ele>409</ele>
        <time>2015-11-22T09:20:07Z</time>
      </trkpt>
      <trkpt lat="43.57813" lon="3.32553">
        <ele>409.5</ele>
        <time>2015-11-22T09:20:10Z</time>
      </trkpt>
      <trkpt lat="43.57812" lon="3.32553">
        <ele>409.5</ele>
        <time>2015-11-22T09:20:29Z</time>
      </trkpt>
      <trkpt lat="43.57806" lon="3.32558">
        <ele>409</ele>
        <time>2015-11-22T09:20:32Z</time>
      </trkpt>
      <trkpt lat="43.57798" lon="3.32565">
        <ele>409</ele>
        <time>2015-11-22T09:20:35Z</time>
      </trkpt>
      <trkpt lat="43.57794" lon="3.32573">
        <ele>410</ele>
        <time>2015-11-22T09:20:37Z</time>
      </trkpt>
      <trkpt lat="43.57784" lon="3.32583">
        <ele>410</ele>
        <time>2015-11-22T09:20:39Z</time>
      </trkpt>
      <trkpt lat="43.57779" lon="3.3259">
        <ele>411</ele>
        <time>2015-11-22T09:20:41Z</time>
      </trkpt>
      <trkpt lat="43.57774" lon="3.32599">
        <ele>410</ele>
        <time>2015-11-22T09:20:43Z</time>
      </trkpt>
      <trkpt lat="43.57774" lon="3.32605">
        <ele>411.5</ele>
        <time>2015-11-22T09:20:46Z</time>
      </trkpt>
      <trkpt lat="43.57768" lon="3.32618">
        <ele>411</ele>
        <time>2015-11-22T09:20:48Z</time>
      </trkpt>
      <trkpt lat="43.57763" lon="3.32626">
        <ele>411</ele>
        <time>2015-11-22T09:20:51Z</time>
      </trkpt>
      <trkpt lat="43.57761" lon="3.32636">
        <ele>411.5</ele>
        <time>2015-11-22T09:20:53Z</time>
      </trkpt>
      <trkpt lat="43.57753" lon="3.32643">
        <ele>411</ele>
        <time>2015-11-22T09:20:55Z</time>
      </trkpt>
      <trkpt lat="43.57748" lon="3.32658">
        <ele>411</ele>
        <time>2015-11-22T09:20:57Z</time>
      </trkpt>
      <trkpt lat="43.57739" lon="3.32664">
        <ele>410.5</ele>
        <time>2015-11-22T09:20:59Z</time>
      </trkpt>
      <trkpt lat="43.57732" lon="3.32672">
        <ele>408.5</ele>
        <time>2015-11-22T09:21:01Z</time>
      </trkpt>
      <trkpt lat="43.57726" lon="3.32675">
        <ele>407</ele>
        <time>2015-11-22T09:21:03Z</time>
      </trkpt>
      <trkpt lat="43.57722" lon="3.32676">
        <ele>405.5</ele>
        <time>2015-11-22T09:21:05Z</time>
      </trkpt>
      <trkpt lat="43.57716" lon="3.32678">
        <ele>403.5</ele>
        <time>2015-11-22T09:21:07Z</time>
      </trkpt>
      <trkpt lat="43.57709" lon="3.3268">
        <ele>403.5</ele>
        <time>2015-11-22T09:21:09Z</time>
      </trkpt>
      <trkpt lat="43.57698" lon="3.32685">
        <ele>403.5</ele>
        <time>2015-11-22T09:21:12Z</time>
      </trkpt>
      <trkpt lat="43.57689" lon="3.32691">
        <ele>403.5</ele>
        <time>2015-11-22T09:21:14Z</time>
      </trkpt>
      <trkpt lat="43.57671" lon="3.32701">
        <ele>403</ele>
        <time>2015-11-22T09:21:16Z</time>
      </trkpt>
      <trkpt lat="43.57659" lon="3.3271">
        <ele>403</ele>
        <time>2015-11-22T09:21:18Z</time>
      </trkpt>
      <trkpt lat="43.57651" lon="3.32717">
        <ele>403.5</ele>
        <time>2015-11-22T09:21:20Z</time>
      </trkpt>
      <trkpt lat="43.57642" lon="3.32723">
        <ele>401.5</ele>
        <time>2015-11-22T09:21:23Z</time>
      </trkpt>
      <trkpt lat="43.57634" lon="3.32725">
        <ele>401.5</ele>
        <time>2015-11-22T09:21:25Z</time>
      </trkpt>
      <trkpt lat="43.57623" lon="3.32716">
        <ele>402</ele>
        <time>2015-11-22T09:21:27Z</time>
      </trkpt>
      <trkpt lat="43.57618" lon="3.32706">
        <ele>402.5</ele>
        <time>2015-11-22T09:21:30Z</time>
      </trkpt>
      <trkpt lat="43.57611" lon="3.32703">
        <ele>402.5</ele>
        <time>2015-11-22T09:21:32Z</time>
      </trkpt>
      <trkpt lat="43.57608" lon="3.32703">
        <ele>402</ele>
        <time>2015-11-22T09:21:34Z</time>
      </trkpt>
      <trkpt lat="43.57606" lon="3.32702">
        <ele>401.5</ele>
        <time>2015-11-22T09:21:38Z</time>
      </trkpt>
      <trkpt lat="43.57605" lon="3.32702">
        <ele>402</ele>
        <time>2015-11-22T09:21:41Z</time>
      </trkpt>
      <trkpt lat="43.57603" lon="3.32701">
        <ele>402</ele>
        <time>2015-11-22T09:21:43Z</time>
      </trkpt>
      <trkpt lat="43.57602" lon="3.327">
        <ele>402</ele>
        <time>2015-11-22T09:21:45Z</time>
      </trkpt>
      <trkpt lat="43.57596" lon="3.32706">
        <ele>398</ele>
        <time>2015-11-22T09:22:05Z</time>
      </trkpt>
      <trkpt lat="43.57595" lon="3.32707">
        <ele>398.5</ele>
        <time>2015-11-22T09:22:08Z</time>
      </trkpt>
      <trkpt lat="43.57594" lon="3.32709">
        <ele>398</ele>
        <time>2015-11-22T09:22:10Z</time>
      </trkpt>
      <trkpt lat="43.57593" lon="3.32709">
        <ele>398</ele>
        <time>2015-11-22T09:22:12Z</time>
      </trkpt>
      <trkpt lat="43.57591" lon="3.32708">
        <ele>398</ele>
        <time>2015-11-22T09:22:14Z</time>
      </trkpt>
      <trkpt lat="43.57591" lon="3.32708">
        <ele>398.5</ele>
        <time>2015-11-22T09:22:16Z</time>
      </trkpt>
      <trkpt lat="43.57589" lon="3.32708">
        <ele>398.5</ele>
        <time>2015-11-22T09:22:18Z</time>
      </trkpt>
      <trkpt lat="43.57587" lon="3.32715">
        <ele>398</ele>
        <time>2015-11-22T09:22:21Z</time>
      </trkpt>
      <trkpt lat="43.57582" lon="3.32722">
        <ele>398</ele>
        <time>2015-11-22T09:22:23Z</time>
      </trkpt>
      <trkpt lat="43.57576" lon="3.32733">
        <ele>398.5</ele>
        <time>2015-11-22T09:22:25Z</time>
      </trkpt>
      <trkpt lat="43.57574" lon="3.32744">
        <ele>400</ele>
        <time>2015-11-22T09:22:28Z</time>
      </trkpt>
      <trkpt lat="43.57572" lon="3.32751">
        <ele>398.5</ele>
        <time>2015-11-22T09:22:29Z</time>
      </trkpt>
      <trkpt lat="43.57563" lon="3.32761">
        <ele>397.5</ele>
        <time>2015-11-22T09:22:31Z</time>
      </trkpt>
      <trkpt lat="43.5756" lon="3.32767">
        <ele>398</ele>
        <time>2015-11-22T09:22:33Z</time>
      </trkpt>
      <trkpt lat="43.57561" lon="3.32768">
        <ele>398.5</ele>
        <time>2015-11-22T09:22:36Z</time>
      </trkpt>
      <trkpt lat="43.57563" lon="3.3277">
        <ele>398</ele>
        <time>2015-11-22T09:22:46Z</time>
      </trkpt>
      <trkpt lat="43.57562" lon="3.32772">
        <ele>398</ele>
        <time>2015-11-22T09:22:52Z</time>
      </trkpt>
      <trkpt lat="43.57561" lon="3.3278">
        <ele>397.5</ele>
        <time>2015-11-22T09:22:57Z</time>
      </trkpt>
      <trkpt lat="43.57561" lon="3.32783">
        <ele>397</ele>
        <time>2015-11-22T09:23:00Z</time>
      </trkpt>
      <trkpt lat="43.57561" lon="3.32784">
        <ele>397</ele>
        <time>2015-11-22T09:23:02Z</time>
      </trkpt>
      <trkpt lat="43.57561" lon="3.32784">
        <ele>396</ele>
        <time>2015-11-22T09:23:04Z</time>
      </trkpt>
      <trkpt lat="43.5756" lon="3.32787">
        <ele>396</ele>
        <time>2015-11-22T09:23:08Z</time>
      </trkpt>
      <trkpt lat="43.57558" lon="3.32787">
        <ele>396</ele>
        <time>2015-11-22T09:23:11Z</time>
      </trkpt>
      <trkpt lat="43.57555" lon="3.32792">
        <ele>396</ele>
        <time>2015-11-22T09:23:13Z</time>
      </trkpt>
      <trkpt lat="43.57554" lon="3.32796">
        <ele>395.5</ele>
        <time>2015-11-22T09:23:16Z</time>
      </trkpt>
      <trkpt lat="43.57548" lon="3.32801">
        <ele>396</ele>
        <time>2015-11-22T09:23:18Z</time>
      </trkpt>
      <trkpt lat="43.57537" lon="3.3281">
        <ele>395.5</ele>
        <time>2015-11-22T09:23:20Z</time>
      </trkpt>
      <trkpt lat="43.57523" lon="3.32827">
        <ele>394</ele>
        <time>2015-11-22T09:23:22Z</time>
      </trkpt>
      <trkpt lat="43.57512" lon="3.32838">
        <ele>392.5</ele>
        <time>2015-11-22T09:23:25Z</time>
      </trkpt>
      <trkpt lat="43.57502" lon="3.3285">
        <ele>392</ele>
        <time>2015-11-22T09:23:26Z</time>
      </trkpt>
      <trkpt lat="43.5749" lon="3.32864">
        <ele>392</ele>
        <time>2015-11-22T09:23:29Z</time>
      </trkpt>
      <trkpt lat="43.57484" lon="3.32874">
        <ele>391.5</ele>
        <time>2015-11-22T09:23:31Z</time>
      </trkpt>
      <trkpt lat="43.57472" lon="3.32888">
        <ele>389.5</ele>
        <time>2015-11-22T09:23:33Z</time>
      </trkpt>
      <trkpt lat="43.57459" lon="3.32897">
        <ele>389.5</ele>
        <time>2015-11-22T09:23:35Z</time>
      </trkpt>
      <trkpt lat="43.57451" lon="3.32908">
        <ele>389.5</ele>
        <time>2015-11-22T09:23:37Z</time>
      </trkpt>
      <trkpt lat="43.5745" lon="3.32918">
        <ele>388.5</ele>
        <time>2015-11-22T09:23:39Z</time>
      </trkpt>
      <trkpt lat="43.5745" lon="3.32932">
        <ele>388</ele>
        <time>2015-11-22T09:23:41Z</time>
      </trkpt>
      <trkpt lat="43.57445" lon="3.32943">
        <ele>388.5</ele>
        <time>2015-11-22T09:23:44Z</time>
      </trkpt>
      <trkpt lat="43.57442" lon="3.32956">
        <ele>388</ele>
        <time>2015-11-22T09:23:46Z</time>
      </trkpt>
      <trkpt lat="43.5744" lon="3.32962">
        <ele>387</ele>
        <time>2015-11-22T09:23:48Z</time>
      </trkpt>
      <trkpt lat="43.57437" lon="3.32971">
        <ele>386.5</ele>
        <time>2015-11-22T09:23:51Z</time>
      </trkpt>
      <trkpt lat="43.57433" lon="3.32979">
        <ele>384</ele>
        <time>2015-11-22T09:23:53Z</time>
      </trkpt>
      <trkpt lat="43.57431" lon="3.32989">
        <ele>384</ele>
        <time>2015-11-22T09:23:55Z</time>
      </trkpt>
      <trkpt lat="43.57429" lon="3.32997">
        <ele>384</ele>
        <time>2015-11-22T09:23:57Z</time>
      </trkpt>
      <trkpt lat="43.57427" lon="3.33002">
        <ele>382.5</ele>
        <time>2015-11-22T09:24:00Z</time>
      </trkpt>
      <trkpt lat="43.57422" lon="3.3301">
        <ele>382</ele>
        <time>2015-11-22T09:24:02Z</time>
      </trkpt>
      <trkpt lat="43.57414" lon="3.33023">
        <ele>379.5</ele>
        <time>2015-11-22T09:24:04Z</time>
      </trkpt>
      <trkpt lat="43.57409" lon="3.3303">
        <ele>376</ele>
        <time>2015-11-22T09:24:06Z</time>
      </trkpt>
      <trkpt lat="43.57408" lon="3.33038">
        <ele>374</ele>
        <time>2015-11-22T09:24:09Z</time>
      </trkpt>
      <trkpt lat="43.57403" lon="3.33047">
        <ele>372</ele>
        <time>2015-11-22T09:24:11Z</time>
      </trkpt>
      <trkpt lat="43.57401" lon="3.33058">
        <ele>370.5</ele>
        <time>2015-11-22T09:24:13Z</time>
      </trkpt>
      <trkpt lat="43.57399" lon="3.33058">
        <ele>370.5</ele>
        <time>2015-11-22T09:24:15Z</time>
      </trkpt>
      <trkpt lat="43.57395" lon="3.33057">
        <ele>365.5</ele>
        <time>2015-11-22T09:24:17Z</time>
      </trkpt>
      <trkpt lat="43.57392" lon="3.33058">
        <ele>364</ele>
        <time>2015-11-22T09:24:19Z</time>
      </trkpt>
      <trkpt lat="43.57389" lon="3.33061">
        <ele>362.5</ele>
        <time>2015-11-22T09:24:21Z</time>
      </trkpt>
      <trkpt lat="43.5739" lon="3.33064">
        <ele>363</ele>
        <time>2015-11-22T09:24:23Z</time>
      </trkpt>
      <trkpt lat="43.57388" lon="3.33069">
        <ele>363.5</ele>
        <time>2015-11-22T09:24:25Z</time>
      </trkpt>
      <trkpt lat="43.57386" lon="3.33076">
        <ele>362</ele>
        <time>2015-11-22T09:24:27Z</time>
      </trkpt>
      <trkpt lat="43.57383" lon="3.33087">
        <ele>362</ele>
        <time>2015-11-22T09:24:29Z</time>
      </trkpt>
      <trkpt lat="43.57385" lon="3.33094">
        <ele>363.5</ele>
        <time>2015-11-22T09:24:31Z</time>
      </trkpt>
      <trkpt lat="43.57388" lon="3.33099">
        <ele>363</ele>
        <time>2015-11-22T09:24:33Z</time>
      </trkpt>
      <trkpt lat="43.57389" lon="3.33108">
        <ele>362</ele>
        <time>2015-11-22T09:24:35Z</time>
      </trkpt>
      <trkpt lat="43.57388" lon="3.33111">
        <ele>362.5</ele>
        <time>2015-11-22T09:24:37Z</time>
      </trkpt>
      <trkpt lat="43.57388" lon="3.33112">
        <ele>361.5</ele>
        <time>2015-11-22T09:24:39Z</time>
      </trkpt>
      <trkpt lat="43.57384" lon="3.33113">
        <ele>361</ele>
        <time>2015-11-22T09:24:41Z</time>
      </trkpt>
      <trkpt lat="43.57378" lon="3.33117">
        <ele>355.5</ele>
        <time>2015-11-22T09:24:46Z</time>
      </trkpt>
      <trkpt lat="43.57374" lon="3.33132">
        <ele>348</ele>
        <time>2015-11-22T09:24:54Z</time>
      </trkpt>
      <trkpt lat="43.57377" lon="3.33133">
        <ele>348.5</ele>
        <time>2015-11-22T09:24:57Z</time>
      </trkpt>
      <trkpt lat="43.57361" lon="3.33158">
        <ele>347.5</ele>
        <time>2015-11-22T09:25:00Z</time>
      </trkpt>
      <trkpt lat="43.57349" lon="3.33173">
        <ele>348.5</ele>
        <time>2015-11-22T09:25:02Z</time>
      </trkpt>
      <trkpt lat="43.57337" lon="3.33187">
        <ele>348</ele>
        <time>2015-11-22T09:25:04Z</time>
      </trkpt>
      <trkpt lat="43.57327" lon="3.33201">
        <ele>347.5</ele>
        <time>2015-11-22T09:25:07Z</time>
      </trkpt>
      <trkpt lat="43.5732" lon="3.33216">
        <ele>347.5</ele>
        <time>2015-11-22T09:25:08Z</time>
      </trkpt>
      <trkpt lat="43.57315" lon="3.33228">
        <ele>347</ele>
        <time>2015-11-22T09:25:10Z</time>
      </trkpt>
      <trkpt lat="43.57316" lon="3.33237">
        <ele>347</ele>
        <time>2015-11-22T09:25:13Z</time>
      </trkpt>
      <trkpt lat="43.57317" lon="3.33246">
        <ele>347</ele>
        <time>2015-11-22T09:25:14Z</time>
      </trkpt>
      <trkpt lat="43.57321" lon="3.33262">
        <ele>348.5</ele>
        <time>2015-11-22T09:25:16Z</time>
      </trkpt>
      <trkpt lat="43.57315" lon="3.33274">
        <ele>347</ele>
        <time>2015-11-22T09:25:19Z</time>
      </trkpt>
      <trkpt lat="43.57307" lon="3.33282">
        <ele>346</ele>
        <time>2015-11-22T09:25:23Z</time>
      </trkpt>
      <trkpt lat="43.57294" lon="3.33278">
        <ele>336.5</ele>
        <time>2015-11-22T09:25:25Z</time>
      </trkpt>
      <trkpt lat="43.57289" lon="3.33275">
        <ele>334.5</ele>
        <time>2015-11-22T09:25:30Z</time>
      </trkpt>
      <trkpt lat="43.57286" lon="3.33279">
        <ele>334.5</ele>
        <time>2015-11-22T09:25:33Z</time>
      </trkpt>
      <trkpt lat="43.57286" lon="3.33283">
        <ele>333</ele>
        <time>2015-11-22T09:25:35Z</time>
      </trkpt>
      <trkpt lat="43.57285" lon="3.33288">
        <ele>332</ele>
        <time>2015-11-22T09:25:38Z</time>
      </trkpt>
      <trkpt lat="43.57268" lon="3.33324">
        <ele>331</ele>
        <time>2015-11-22T09:25:41Z</time>
      </trkpt>
      <trkpt lat="43.57254" lon="3.33344">
        <ele>328.5</ele>
        <time>2015-11-22T09:25:45Z</time>
      </trkpt>
      <trkpt lat="43.57246" lon="3.33373">
        <ele>326</ele>
        <time>2015-11-22T09:25:47Z</time>
      </trkpt>
      <trkpt lat="43.57242" lon="3.33397">
        <ele>326</ele>
        <time>2015-11-22T09:25:49Z</time>
      </trkpt>
      <trkpt lat="43.57239" lon="3.33422">
        <ele>324</ele>
        <time>2015-11-22T09:25:51Z</time>
      </trkpt>
      <trkpt lat="43.57237" lon="3.33446">
        <ele>323</ele>
        <time>2015-11-22T09:25:53Z</time>
      </trkpt>
      <trkpt lat="43.57231" lon="3.33463">
        <ele>320</ele>
        <time>2015-11-22T09:25:55Z</time>
      </trkpt>
      <trkpt lat="43.5723" lon="3.33474">
        <ele>320</ele>
        <time>2015-11-22T09:25:57Z</time>
      </trkpt>
      <trkpt lat="43.5723" lon="3.33478">
        <ele>318.5</ele>
        <time>2015-11-22T09:26:01Z</time>
      </trkpt>
      <trkpt lat="43.5723" lon="3.33481">
        <ele>317.5</ele>
        <time>2015-11-22T09:26:04Z</time>
      </trkpt>
      <trkpt lat="43.5723" lon="3.33483">
        <ele>317</ele>
        <time>2015-11-22T09:26:06Z</time>
      </trkpt>
      <trkpt lat="43.57229" lon="3.33485">
        <ele>315.5</ele>
        <time>2015-11-22T09:26:08Z</time>
      </trkpt>
      <trkpt lat="43.57231" lon="3.33486">
        <ele>314.5</ele>
        <time>2015-11-22T09:26:10Z</time>
      </trkpt>
      <trkpt lat="43.57229" lon="3.33488">
        <ele>311.5</ele>
        <time>2015-11-22T09:26:17Z</time>
      </trkpt>
      <trkpt lat="43.57228" lon="3.33491">
        <ele>311</ele>
        <time>2015-11-22T09:26:20Z</time>
      </trkpt>
      <trkpt lat="43.57227" lon="3.33492">
        <ele>310</ele>
        <time>2015-11-22T09:26:22Z</time>
      </trkpt>
      <trkpt lat="43.57225" lon="3.33494">
        <ele>309</ele>
        <time>2015-11-22T09:26:24Z</time>
      </trkpt>
      <trkpt lat="43.57226" lon="3.33495">
        <ele>308</ele>
        <time>2015-11-22T09:26:26Z</time>
      </trkpt>
      <trkpt lat="43.57225" lon="3.33495">
        <ele>305</ele>
        <time>2015-11-22T09:26:28Z</time>
      </trkpt>
      <trkpt lat="43.57221" lon="3.33493">
        <ele>304.5</ele>
        <time>2015-11-22T09:26:36Z</time>
      </trkpt>
      <trkpt lat="43.57221" lon="3.33492">
        <ele>303</ele>
        <time>2015-11-22T09:26:39Z</time>
      </trkpt>
      <trkpt lat="43.57222" lon="3.33493">
        <ele>302</ele>
        <time>2015-11-22T09:26:42Z</time>
      </trkpt>
      <trkpt lat="43.57222" lon="3.33495">
        <ele>299.5</ele>
        <time>2015-11-22T09:26:52Z</time>
      </trkpt>
      <trkpt lat="43.57224" lon="3.33492">
        <ele>299.5</ele>
        <time>2015-11-22T09:26:55Z</time>
      </trkpt>
      <trkpt lat="43.57223" lon="3.33491">
        <ele>299</ele>
        <time>2015-11-22T09:26:57Z</time>
      </trkpt>
      <trkpt lat="43.57223" lon="3.33489">
        <ele>296.5</ele>
        <time>2015-11-22T09:27:00Z</time>
      </trkpt>
      <trkpt lat="43.57223" lon="3.33489">
        <ele>296.5</ele>
        <time>2015-11-22T09:27:02Z</time>
      </trkpt>
      <trkpt lat="43.57223" lon="3.33488">
        <ele>295.5</ele>
        <time>2015-11-22T09:27:09Z</time>
      </trkpt>
      <trkpt lat="43.57221" lon="3.3349">
        <ele>294.5</ele>
        <time>2015-11-22T09:27:13Z</time>
      </trkpt>
      <trkpt lat="43.57221" lon="3.33491">
        <ele>294</ele>
        <time>2015-11-22T09:27:16Z</time>
      </trkpt>
      <trkpt lat="43.57223" lon="3.33491">
        <ele>292.5</ele>
        <time>2015-11-22T09:27:20Z</time>
      </trkpt>
      <trkpt lat="43.57221" lon="3.33491">
        <ele>292</ele>
        <time>2015-11-22T09:27:26Z</time>
      </trkpt>
      <trkpt lat="43.57222" lon="3.33492">
        <ele>292</ele>
        <time>2015-11-22T09:27:31Z</time>
      </trkpt>
      <trkpt lat="43.57221" lon="3.33489">
        <ele>292</ele>
        <time>2015-11-22T09:27:34Z</time>
      </trkpt>
      <trkpt lat="43.57219" lon="3.33488">
        <ele>292</ele>
        <time>2015-11-22T09:27:36Z</time>
      </trkpt>
      <trkpt lat="43.57215" lon="3.33487">
        <ele>292</ele>
        <time>2015-11-22T09:27:38Z</time>
      </trkpt>
      <trkpt lat="43.57214" lon="3.33487">
        <ele>292.5</ele>
        <time>2015-11-22T09:27:42Z</time>
      </trkpt>
      <trkpt lat="43.57215" lon="3.33487">
        <ele>292.5</ele>
        <time>2015-11-22T09:27:45Z</time>
      </trkpt>
      <trkpt lat="43.57215" lon="3.33486">
        <ele>292</ele>
        <time>2015-11-22T09:27:47Z</time>
      </trkpt>
      <trkpt lat="43.57216" lon="3.33485">
        <ele>291.5</ele>
        <time>2015-11-22T09:27:54Z</time>
      </trkpt>
      <trkpt lat="43.57218" lon="3.33487">
        <ele>291</ele>
        <time>2015-11-22T09:28:04Z</time>
      </trkpt>
      <trkpt lat="43.57218" lon="3.33488">
        <ele>290.5</ele>
        <time>2015-11-22T09:28:11Z</time>
      </trkpt>
      <trkpt lat="43.57219" lon="3.3349">
        <ele>290</ele>
        <time>2015-11-22T09:28:14Z</time>
      </trkpt>
      <trkpt lat="43.5722" lon="3.33493">
        <ele>289.5</ele>
        <time>2015-11-22T09:28:16Z</time>
      </trkpt>
      <trkpt lat="43.57223" lon="3.33494">
        <ele>290</ele>
        <time>2015-11-22T09:28:18Z</time>
      </trkpt>
      <trkpt lat="43.57219" lon="3.33494">
        <ele>289.5</ele>
        <time>2015-11-22T09:28:26Z</time>
      </trkpt>
      <trkpt lat="43.57219" lon="3.33495">
        <ele>289</ele>
        <time>2015-11-22T09:28:33Z</time>
      </trkpt>
      <trkpt lat="43.5722" lon="3.33498">
        <ele>291.5</ele>
        <time>2015-11-22T09:28:40Z</time>
      </trkpt>
      <trkpt lat="43.5722" lon="3.33497">
        <ele>289.5</ele>
        <time>2015-11-22T09:28:54Z</time>
      </trkpt>
      <trkpt lat="43.57221" lon="3.33496">
        <ele>290</ele>
        <time>2015-11-22T09:29:04Z</time>
      </trkpt>
      <trkpt lat="43.57221" lon="3.33496">
        <ele>289.5</ele>
        <time>2015-11-22T09:29:14Z</time>
      </trkpt>
      <trkpt lat="43.5722" lon="3.33496">
        <ele>288.5</ele>
        <time>2015-11-22T09:29:20Z</time>
      </trkpt>
      <trkpt lat="43.57215" lon="3.33499">
        <ele>287.5</ele>
        <time>2015-11-22T09:29:27Z</time>
      </trkpt>
      <trkpt lat="43.57215" lon="3.33498">
        <ele>288</ele>
        <time>2015-11-22T09:29:30Z</time>
      </trkpt>
      <trkpt lat="43.57215" lon="3.33497">
        <ele>288</ele>
        <time>2015-11-22T09:29:32Z</time>
      </trkpt>
      <trkpt lat="43.57216" lon="3.33496">
        <ele>288</ele>
        <time>2015-11-22T09:29:39Z</time>
      </trkpt>
      <trkpt lat="43.57217" lon="3.33495">
        <ele>286</ele>
        <time>2015-11-22T09:29:49Z</time>
      </trkpt>
      <trkpt lat="43.57218" lon="3.33492">
        <ele>286</ele>
        <time>2015-11-22T09:29:52Z</time>
      </trkpt>
      <trkpt lat="43.57219" lon="3.33491">
        <ele>288</ele>
        <time>2015-11-22T09:29:55Z</time>
      </trkpt>
      <trkpt lat="43.57219" lon="3.33491">
        <ele>288</ele>
        <time>2015-11-22T09:29:56Z</time>
      </trkpt>
      <trkpt lat="43.5722" lon="3.3349">
        <ele>288.5</ele>
        <time>2015-11-22T09:29:58Z</time>
      </trkpt>
      <trkpt lat="43.57225" lon="3.33489">
        <ele>288</ele>
        <time>2015-11-22T09:30:00Z</time>
      </trkpt>
      <trkpt lat="43.57229" lon="3.33493">
        <ele>288</ele>
        <time>2015-11-22T09:30:03Z</time>
      </trkpt>
      <trkpt lat="43.57228" lon="3.33492">
        <ele>289</ele>
        <time>2015-11-22T09:30:05Z</time>
      </trkpt>
      <trkpt lat="43.57226" lon="3.33491">
        <ele>289.5</ele>
        <time>2015-11-22T09:30:09Z</time>
      </trkpt>
      <trkpt lat="43.57223" lon="3.33491">
        <ele>290</ele>
        <time>2015-11-22T09:30:12Z</time>
      </trkpt>
      <trkpt lat="43.57224" lon="3.33491">
        <ele>289.5</ele>
        <time>2015-11-22T09:30:14Z</time>
      </trkpt>
      <trkpt lat="43.57222" lon="3.33493">
        <ele>290.5</ele>
        <time>2015-11-22T09:30:17Z</time>
      </trkpt>
      <trkpt lat="43.57222" lon="3.33494">
        <ele>290</ele>
        <time>2015-11-22T09:30:18Z</time>
      </trkpt>
      <trkpt lat="43.5722" lon="3.33493">
        <ele>289</ele>
        <time>2015-11-22T09:30:20Z</time>
      </trkpt>
      <trkpt lat="43.5722" lon="3.33494">
        <ele>289</ele>
        <time>2015-11-22T09:30:22Z</time>
      </trkpt>
      <trkpt lat="43.57219" lon="3.33496">
        <ele>288.5</ele>
        <time>2015-11-22T09:30:26Z</time>
      </trkpt>
      <trkpt lat="43.57218" lon="3.33497">
        <ele>289</ele>
        <time>2015-11-22T09:30:32Z</time>
      </trkpt>
      <trkpt lat="43.57219" lon="3.33496">
        <ele>288.5</ele>
        <time>2015-11-22T09:30:35Z</time>
      </trkpt>
      <trkpt lat="43.57218" lon="3.33496">
        <ele>289</ele>
        <time>2015-11-22T09:30:43Z</time>
      </trkpt>
      <trkpt lat="43.57219" lon="3.33494">
        <ele>290</ele>
        <time>2015-11-22T09:30:48Z</time>
      </trkpt>
      <trkpt lat="43.57218" lon="3.33493">
        <ele>291.5</ele>
        <time>2015-11-22T09:30:51Z</time>
      </trkpt>
      <trkpt lat="43.57218" lon="3.33494">
        <ele>292.5</ele>
        <time>2015-11-22T09:30:53Z</time>
      </trkpt>
      <trkpt lat="43.57217" lon="3.33493">
        <ele>293.5</ele>
        <time>2015-11-22T09:30:56Z</time>
      </trkpt>
      <trkpt lat="43.57217" lon="3.33493">
        <ele>294.5</ele>
        <time>2015-11-22T09:31:00Z</time>
      </trkpt>
      <trkpt lat="43.57218" lon="3.33495">
        <ele>294.5</ele>
        <time>2015-11-22T09:31:06Z</time>
      </trkpt>
      <trkpt lat="43.57216" lon="3.33495">
        <ele>295</ele>
        <time>2015-11-22T09:31:09Z</time>
      </trkpt>
      <trkpt lat="43.57217" lon="3.33497">
        <ele>295</ele>
        <time>2015-11-22T09:31:13Z</time>
      </trkpt>
      <trkpt lat="43.57217" lon="3.33502">
        <ele>304</ele>
        <time>2015-11-22T09:31:19Z</time>
      </trkpt>
      <trkpt lat="43.57226" lon="3.33508">
        <ele>300</ele>
        <time>2015-11-22T09:31:27Z</time>
      </trkpt>
      <trkpt lat="43.57226" lon="3.33506">
        <ele>289.5</ele>
        <time>2015-11-22T09:31:40Z</time>
      </trkpt>
      <trkpt lat="43.57214" lon="3.33496">
        <ele>288.5</ele>
        <time>2015-11-22T09:31:43Z</time>
      </trkpt>
      <trkpt lat="43.57214" lon="3.33496">
        <ele>287.5</ele>
        <time>2015-11-22T09:31:45Z</time>
      </trkpt>
      <trkpt lat="43.57216" lon="3.33496">
        <ele>289.5</ele>
        <time>2015-11-22T09:31:55Z</time>
      </trkpt>
      <trkpt lat="43.57216" lon="3.33493">
        <ele>290.5</ele>
        <time>2015-11-22T09:31:58Z</time>
      </trkpt>
      <trkpt lat="43.57215" lon="3.33491">
        <ele>291.5</ele>
        <time>2015-11-22T09:32:01Z</time>
      </trkpt>
      <trkpt lat="43.57214" lon="3.3349">
        <ele>292.5</ele>
        <time>2015-11-22T09:32:02Z</time>
      </trkpt>
      <trkpt lat="43.57213" lon="3.33489">
        <ele>291.5</ele>
        <time>2015-11-22T09:32:06Z</time>
      </trkpt>
      <trkpt lat="43.57214" lon="3.33492">
        <ele>291</ele>
        <time>2015-11-22T09:32:09Z</time>
      </trkpt>
      <trkpt lat="43.57215" lon="3.33492">
        <ele>291</ele>
        <time>2015-11-22T09:32:12Z</time>
      </trkpt>
      <trkpt lat="43.57215" lon="3.33493">
        <ele>291</ele>
        <time>2015-11-22T09:32:16Z</time>
      </trkpt>
      <trkpt lat="43.57216" lon="3.33495">
        <ele>292</ele>
        <time>2015-11-22T09:32:20Z</time>
      </trkpt>
      <trkpt lat="43.57216" lon="3.33495">
        <ele>292.5</ele>
        <time>2015-11-22T09:32:23Z</time>
      </trkpt>
      <trkpt lat="43.57216" lon="3.33496">
        <ele>292.5</ele>
        <time>2015-11-22T09:32:26Z</time>
      </trkpt>
      <trkpt lat="43.57216" lon="3.33497">
        <ele>292.5</ele>
        <time>2015-11-22T09:32:28Z</time>
      </trkpt>
      <trkpt lat="43.57216" lon="3.33497">
        <ele>292</ele>
        <time>2015-11-22T09:32:32Z</time>
      </trkpt>
      <trkpt lat="43.57215" lon="3.33496">
        <ele>293</ele>
        <time>2015-11-22T09:32:35Z</time>
      </trkpt>
      <trkpt lat="43.57214" lon="3.33498">
        <ele>294.5</ele>
        <time>2015-11-22T09:32:44Z</time>
      </trkpt>
      <trkpt lat="43.57213" lon="3.33498">
        <ele>296.5</ele>
        <time>2015-11-22T09:32:58Z</time>
      </trkpt>
      <trkpt lat="43.57212" lon="3.33498">
        <ele>295.5</ele>
        <time>2015-11-22T09:33:03Z</time>
      </trkpt>
      <trkpt lat="43.57212" lon="3.33497">
        <ele>295.5</ele>
        <time>2015-11-22T09:33:06Z</time>
      </trkpt>
      <trkpt lat="43.57211" lon="3.33497">
        <ele>295.5</ele>
        <time>2015-11-22T09:33:10Z</time>
      </trkpt>
      <trkpt lat="43.57212" lon="3.33498">
        <ele>295</ele>
        <time>2015-11-22T09:33:15Z</time>
      </trkpt>
      <trkpt lat="43.57215" lon="3.335">
        <ele>293.5</ele>
        <time>2015-11-22T09:33:20Z</time>
      </trkpt>
      <trkpt lat="43.57215" lon="3.33501">
        <ele>293</ele>
        <time>2015-11-22T09:33:23Z</time>
      </trkpt>
      <trkpt lat="43.57214" lon="3.335">
        <ele>292.5</ele>
        <time>2015-11-22T09:33:31Z</time>
      </trkpt>
      <trkpt lat="43.5721" lon="3.33502">
        <ele>293</ele>
        <time>2015-11-22T09:33:34Z</time>
      </trkpt>
      <trkpt lat="43.57206" lon="3.3351">
        <ele>291</ele>
        <time>2015-11-22T09:33:37Z</time>
      </trkpt>
      <trkpt lat="43.57199" lon="3.33518">
        <ele>290.5</ele>
        <time>2015-11-22T09:33:39Z</time>
      </trkpt>
      <trkpt lat="43.57189" lon="3.33536">
        <ele>289.5</ele>
        <time>2015-11-22T09:33:41Z</time>
      </trkpt>
      <trkpt lat="43.57182" lon="3.33552">
        <ele>290.5</ele>
        <time>2015-11-22T09:33:43Z</time>
      </trkpt>
      <trkpt lat="43.57177" lon="3.3357">
        <ele>289</ele>
        <time>2015-11-22T09:33:45Z</time>
      </trkpt>
      <trkpt lat="43.57177" lon="3.33591">
        <ele>289</ele>
        <time>2015-11-22T09:33:47Z</time>
      </trkpt>
      <trkpt lat="43.5718" lon="3.33613">
        <ele>288</ele>
        <time>2015-11-22T09:33:49Z</time>
      </trkpt>
      <trkpt lat="43.57185" lon="3.33635">
        <ele>287</ele>
        <time>2015-11-22T09:33:51Z</time>
      </trkpt>
      <trkpt lat="43.57191" lon="3.33658">
        <ele>286.5</ele>
        <time>2015-11-22T09:33:53Z</time>
      </trkpt>
      <trkpt lat="43.57196" lon="3.33683">
        <ele>286</ele>
        <time>2015-11-22T09:33:55Z</time>
      </trkpt>
      <trkpt lat="43.57202" lon="3.33704">
        <ele>285.5</ele>
        <time>2015-11-22T09:33:57Z</time>
      </trkpt>
      <trkpt lat="43.57212" lon="3.33726">
        <ele>285</ele>
        <time>2015-11-22T09:33:59Z</time>
      </trkpt>
      <trkpt lat="43.57223" lon="3.33747">
        <ele>284.5</ele>
        <time>2015-11-22T09:34:01Z</time>
      </trkpt>
      <trkpt lat="43.57233" lon="3.33771">
        <ele>282.5</ele>
        <time>2015-11-22T09:34:03Z</time>
      </trkpt>
      <trkpt lat="43.57243" lon="3.33794">
        <ele>281.5</ele>
        <time>2015-11-22T09:34:05Z</time>
      </trkpt>
      <trkpt lat="43.57254" lon="3.33818">
        <ele>280</ele>
        <time>2015-11-22T09:34:07Z</time>
      </trkpt>
      <trkpt lat="43.57263" lon="3.33844">
        <ele>279.5</ele>
        <time>2015-11-22T09:34:09Z</time>
      </trkpt>
      <trkpt lat="43.57261" lon="3.33871">
        <ele>278.5</ele>
        <time>2015-11-22T09:34:11Z</time>
      </trkpt>
      <trkpt lat="43.57248" lon="3.33887">
        <ele>277</ele>
        <time>2015-11-22T09:34:13Z</time>
      </trkpt>
      <trkpt lat="43.57237" lon="3.33893">
        <ele>275</ele>
        <time>2015-11-22T09:34:15Z</time>
      </trkpt>
      <trkpt lat="43.57225" lon="3.33898">
        <ele>275</ele>
        <time>2015-11-22T09:34:17Z</time>
      </trkpt>
      <trkpt lat="43.57212" lon="3.33908">
        <ele>274</ele>
        <time>2015-11-22T09:34:20Z</time>
      </trkpt>
      <trkpt lat="43.572" lon="3.3391">
        <ele>273</ele>
        <time>2015-11-22T09:34:21Z</time>
      </trkpt>
      <trkpt lat="43.57189" lon="3.33912">
        <ele>272</ele>
        <time>2015-11-22T09:34:23Z</time>
      </trkpt>
      <trkpt lat="43.5718" lon="3.33915">
        <ele>269.5</ele>
        <time>2015-11-22T09:34:26Z</time>
      </trkpt>
      <trkpt lat="43.57172" lon="3.33919">
        <ele>268</ele>
        <time>2015-11-22T09:34:28Z</time>
      </trkpt>
      <trkpt lat="43.5716" lon="3.3393">
        <ele>267</ele>
        <time>2015-11-22T09:34:30Z</time>
      </trkpt>
      <trkpt lat="43.57151" lon="3.33933">
        <ele>266.5</ele>
        <time>2015-11-22T09:34:32Z</time>
      </trkpt>
      <trkpt lat="43.57141" lon="3.33933">
        <ele>266.5</ele>
        <time>2015-11-22T09:34:35Z</time>
      </trkpt>
      <trkpt lat="43.57133" lon="3.3393">
        <ele>266.5</ele>
        <time>2015-11-22T09:34:37Z</time>
      </trkpt>
      <trkpt lat="43.57121" lon="3.33927">
        <ele>266</ele>
        <time>2015-11-22T09:34:40Z</time>
      </trkpt>
      <trkpt lat="43.57113" lon="3.33927">
        <ele>265.5</ele>
        <time>2015-11-22T09:34:42Z</time>
      </trkpt>
      <trkpt lat="43.57106" lon="3.33929">
        <ele>265.5</ele>
        <time>2015-11-22T09:34:43Z</time>
      </trkpt>
      <trkpt lat="43.57098" lon="3.33936">
        <ele>265.5</ele>
        <time>2015-11-22T09:34:45Z</time>
      </trkpt>
      <trkpt lat="43.5709" lon="3.33941">
        <ele>266</ele>
        <time>2015-11-22T09:34:47Z</time>
      </trkpt>
      <trkpt lat="43.57082" lon="3.33947">
        <ele>266.5</ele>
        <time>2015-11-22T09:34:50Z</time>
      </trkpt>
      <trkpt lat="43.57075" lon="3.33951">
        <ele>266.5</ele>
        <time>2015-11-22T09:34:52Z</time>
      </trkpt>
      <trkpt lat="43.57065" lon="3.33956">
        <ele>265.5</ele>
        <time>2015-11-22T09:34:54Z</time>
      </trkpt>
      <trkpt lat="43.57061" lon="3.33959">
        <ele>265.5</ele>
        <time>2015-11-22T09:34:56Z</time>
      </trkpt>
      <trkpt lat="43.57056" lon="3.33963">
        <ele>264</ele>
        <time>2015-11-22T09:34:58Z</time>
      </trkpt>
      <trkpt lat="43.57052" lon="3.33967">
        <ele>261.5</ele>
        <time>2015-11-22T09:35:00Z</time>
      </trkpt>
      <trkpt lat="43.57048" lon="3.33971">
        <ele>260</ele>
        <time>2015-11-22T09:35:02Z</time>
      </trkpt>
      <trkpt lat="43.57043" lon="3.33976">
        <ele>258</ele>
        <time>2015-11-22T09:35:04Z</time>
      </trkpt>
      <trkpt lat="43.57035" lon="3.33982">
        <ele>256</ele>
        <time>2015-11-22T09:35:06Z</time>
      </trkpt>
      <trkpt lat="43.57026" lon="3.3399">
        <ele>256</ele>
        <time>2015-11-22T09:35:09Z</time>
      </trkpt>
      <trkpt lat="43.5702" lon="3.34001">
        <ele>256.5</ele>
        <time>2015-11-22T09:35:10Z</time>
      </trkpt>
      <trkpt lat="43.57016" lon="3.34013">
        <ele>257</ele>
        <time>2015-11-22T09:35:12Z</time>
      </trkpt>
      <trkpt lat="43.57012" lon="3.34024">
        <ele>258.5</ele>
        <time>2015-11-22T09:35:14Z</time>
      </trkpt>
      <trkpt lat="43.57008" lon="3.34033">
        <ele>259.5</ele>
        <time>2015-11-22T09:35:17Z</time>
      </trkpt>
      <trkpt lat="43.57005" lon="3.34041">
        <ele>261.5</ele>
        <time>2015-11-22T09:35:19Z</time>
      </trkpt>
      <trkpt lat="43.57002" lon="3.34053">
        <ele>262.5</ele>
        <time>2015-11-22T09:35:21Z</time>
      </trkpt>
      <trkpt lat="43.57001" lon="3.3406">
        <ele>263.5</ele>
        <time>2015-11-22T09:35:23Z</time>
      </trkpt>
      <trkpt lat="43.57" lon="3.34068">
        <ele>264</ele>
        <time>2015-11-22T09:35:26Z</time>
      </trkpt>
      <trkpt lat="43.57" lon="3.34076">
        <ele>265</ele>
        <time>2015-11-22T09:35:27Z</time>
      </trkpt>
      <trkpt lat="43.57" lon="3.34084">
        <ele>265.5</ele>
        <time>2015-11-22T09:35:29Z</time>
      </trkpt>
      <trkpt lat="43.57001" lon="3.3409">
        <ele>267</ele>
        <time>2015-11-22T09:35:31Z</time>
      </trkpt>
      <trkpt lat="43.56998" lon="3.34098">
        <ele>267.5</ele>
        <time>2015-11-22T09:35:33Z</time>
      </trkpt>
      <trkpt lat="43.56996" lon="3.34111">
        <ele>267.5</ele>
        <time>2015-11-22T09:35:37Z</time>
      </trkpt>
      <trkpt lat="43.56994" lon="3.3412">
        <ele>267.5</ele>
        <time>2015-11-22T09:35:38Z</time>
      </trkpt>
      <trkpt lat="43.56994" lon="3.34129">
        <ele>267.5</ele>
        <time>2015-11-22T09:35:40Z</time>
      </trkpt>
      <trkpt lat="43.56994" lon="3.34139">
        <ele>267.5</ele>
        <time>2015-11-22T09:35:42Z</time>
      </trkpt>
      <trkpt lat="43.56994" lon="3.34147">
        <ele>268.5</ele>
        <time>2015-11-22T09:35:44Z</time>
      </trkpt>
      <trkpt lat="43.56993" lon="3.34157">
        <ele>270</ele>
        <time>2015-11-22T09:35:47Z</time>
      </trkpt>
      <trkpt lat="43.56994" lon="3.34169">
        <ele>269.5</ele>
        <time>2015-11-22T09:35:49Z</time>
      </trkpt>
      <trkpt lat="43.56988" lon="3.34191">
        <ele>269.5</ele>
        <time>2015-11-22T09:35:51Z</time>
      </trkpt>
      <trkpt lat="43.56983" lon="3.34206">
        <ele>269.5</ele>
        <time>2015-11-22T09:35:53Z</time>
      </trkpt>
      <trkpt lat="43.56982" lon="3.3422">
        <ele>270</ele>
        <time>2015-11-22T09:35:55Z</time>
      </trkpt>
      <trkpt lat="43.56982" lon="3.34233">
        <ele>270.5</ele>
        <time>2015-11-22T09:35:57Z</time>
      </trkpt>
      <trkpt lat="43.56981" lon="3.34248">
        <ele>271</ele>
        <time>2015-11-22T09:35:59Z</time>
      </trkpt>
      <trkpt lat="43.56981" lon="3.34265">
        <ele>271.5</ele>
        <time>2015-11-22T09:36:01Z</time>
      </trkpt>
      <trkpt lat="43.56975" lon="3.34284">
        <ele>271</ele>
        <time>2015-11-22T09:36:03Z</time>
      </trkpt>
      <trkpt lat="43.56977" lon="3.343">
        <ele>270.5</ele>
        <time>2015-11-22T09:36:05Z</time>
      </trkpt>
      <trkpt lat="43.56982" lon="3.34312">
        <ele>270.5</ele>
        <time>2015-11-22T09:36:07Z</time>
      </trkpt>
      <trkpt lat="43.56986" lon="3.34319">
        <ele>270</ele>
        <time>2015-11-22T09:36:09Z</time>
      </trkpt>
      <trkpt lat="43.56987" lon="3.34323">
        <ele>270</ele>
        <time>2015-11-22T09:36:12Z</time>
      </trkpt>
      <trkpt lat="43.56989" lon="3.34329">
        <ele>271.5</ele>
        <time>2015-11-22T09:36:13Z</time>
      </trkpt>
      <trkpt lat="43.56991" lon="3.34335">
        <ele>274</ele>
        <time>2015-11-22T09:36:15Z</time>
      </trkpt>
      <trkpt lat="43.56991" lon="3.34341">
        <ele>272</ele>
        <time>2015-11-22T09:36:18Z</time>
      </trkpt>
      <trkpt lat="43.56991" lon="3.34348">
        <ele>274</ele>
        <time>2015-11-22T09:36:20Z</time>
      </trkpt>
      <trkpt lat="43.56991" lon="3.34359">
        <ele>276</ele>
        <time>2015-11-22T09:36:22Z</time>
      </trkpt>
      <trkpt lat="43.5699" lon="3.34365">
        <ele>277</ele>
        <time>2015-11-22T09:36:24Z</time>
      </trkpt>
      <trkpt lat="43.56992" lon="3.34372">
        <ele>279.5</ele>
        <time>2015-11-22T09:36:26Z</time>
      </trkpt>
      <trkpt lat="43.56991" lon="3.34378">
        <ele>280</ele>
        <time>2015-11-22T09:36:29Z</time>
      </trkpt>
      <trkpt lat="43.5699" lon="3.34384">
        <ele>280</ele>
        <time>2015-11-22T09:36:30Z</time>
      </trkpt>
      <trkpt lat="43.5699" lon="3.3439">
        <ele>281.5</ele>
        <time>2015-11-22T09:36:32Z</time>
      </trkpt>
      <trkpt lat="43.5699" lon="3.34395">
        <ele>282.5</ele>
        <time>2015-11-22T09:36:34Z</time>
      </trkpt>
      <trkpt lat="43.56988" lon="3.344">
        <ele>283</ele>
        <time>2015-11-22T09:36:36Z</time>
      </trkpt>
      <trkpt lat="43.56983" lon="3.34405">
        <ele>281</ele>
        <time>2015-11-22T09:36:38Z</time>
      </trkpt>
      <trkpt lat="43.56979" lon="3.34408">
        <ele>279.5</ele>
        <time>2015-11-22T09:36:41Z</time>
      </trkpt>
      <trkpt lat="43.56975" lon="3.3441">
        <ele>278</ele>
        <time>2015-11-22T09:36:43Z</time>
      </trkpt>
      <trkpt lat="43.56969" lon="3.34411">
        <ele>277</ele>
        <time>2015-11-22T09:36:45Z</time>
      </trkpt>
      <trkpt lat="43.56965" lon="3.34412">
        <ele>277</ele>
        <time>2015-11-22T09:36:47Z</time>
      </trkpt>
      <trkpt lat="43.56961" lon="3.34413">
        <ele>276.5</ele>
        <time>2015-11-22T09:36:49Z</time>
      </trkpt>
      <trkpt lat="43.56957" lon="3.34413">
        <ele>275</ele>
        <time>2015-11-22T09:36:51Z</time>
      </trkpt>
      <trkpt lat="43.56953" lon="3.34415">
        <ele>274.5</ele>
        <time>2015-11-22T09:36:53Z</time>
      </trkpt>
      <trkpt lat="43.56949" lon="3.34419">
        <ele>274</ele>
        <time>2015-11-22T09:36:55Z</time>
      </trkpt>
      <trkpt lat="43.56948" lon="3.34426">
        <ele>276.5</ele>
        <time>2015-11-22T09:36:57Z</time>
      </trkpt>
      <trkpt lat="43.56947" lon="3.3443">
        <ele>277.5</ele>
        <time>2015-11-22T09:36:59Z</time>
      </trkpt>
      <trkpt lat="43.56946" lon="3.34435">
        <ele>278.5</ele>
        <time>2015-11-22T09:37:02Z</time>
      </trkpt>
      <trkpt lat="43.56946" lon="3.34444">
        <ele>278.5</ele>
        <time>2015-11-22T09:37:04Z</time>
      </trkpt>
      <trkpt lat="43.56945" lon="3.3445">
        <ele>279.5</ele>
        <time>2015-11-22T09:37:06Z</time>
      </trkpt>
      <trkpt lat="43.56945" lon="3.34456">
        <ele>280</ele>
        <time>2015-11-22T09:37:08Z</time>
      </trkpt>
      <trkpt lat="43.56944" lon="3.34462">
        <ele>280.5</ele>
        <time>2015-11-22T09:37:10Z</time>
      </trkpt>
      <trkpt lat="43.56944" lon="3.34469">
        <ele>280.5</ele>
        <time>2015-11-22T09:37:13Z</time>
      </trkpt>
      <trkpt lat="43.56937" lon="3.34479">
        <ele>280.5</ele>
        <time>2015-11-22T09:37:15Z</time>
      </trkpt>
      <trkpt lat="43.56934" lon="3.34485">
        <ele>281.5</ele>
        <time>2015-11-22T09:37:17Z</time>
      </trkpt>
      <trkpt lat="43.56931" lon="3.34491">
        <ele>281</ele>
        <time>2015-11-22T09:37:19Z</time>
      </trkpt>
      <trkpt lat="43.56929" lon="3.34498">
        <ele>280.5</ele>
        <time>2015-11-22T09:37:22Z</time>
      </trkpt>
      <trkpt lat="43.56928" lon="3.34508">
        <ele>280.5</ele>
        <time>2015-11-22T09:37:24Z</time>
      </trkpt>
      <trkpt lat="43.56926" lon="3.34515">
        <ele>280</ele>
        <time>2015-11-22T09:37:26Z</time>
      </trkpt>
      <trkpt lat="43.56926" lon="3.34521">
        <ele>279.5</ele>
        <time>2015-11-22T09:37:28Z</time>
      </trkpt>
      <trkpt lat="43.56925" lon="3.34526">
        <ele>280</ele>
        <time>2015-11-22T09:37:30Z</time>
      </trkpt>
      <trkpt lat="43.56924" lon="3.34532">
        <ele>279.5</ele>
        <time>2015-11-22T09:37:32Z</time>
      </trkpt>
      <trkpt lat="43.56924" lon="3.34538">
        <ele>279</ele>
        <time>2015-11-22T09:37:34Z</time>
      </trkpt>
      <trkpt lat="43.56923" lon="3.34543">
        <ele>279.5</ele>
        <time>2015-11-22T09:37:36Z</time>
      </trkpt>
      <trkpt lat="43.56922" lon="3.34549">
        <ele>279</ele>
        <time>2015-11-22T09:37:38Z</time>
      </trkpt>
      <trkpt lat="43.56921" lon="3.34554">
        <ele>278</ele>
        <time>2015-11-22T09:37:40Z</time>
      </trkpt>
      <trkpt lat="43.5692" lon="3.3456">
        <ele>277.5</ele>
        <time>2015-11-22T09:37:42Z</time>
      </trkpt>
      <trkpt lat="43.56917" lon="3.34564">
        <ele>277.5</ele>
        <time>2015-11-22T09:37:44Z</time>
      </trkpt>
      <trkpt lat="43.56915" lon="3.34567">
        <ele>277</ele>
        <time>2015-11-22T09:37:46Z</time>
      </trkpt>
      <trkpt lat="43.56914" lon="3.3457">
        <ele>276.5</ele>
        <time>2015-11-22T09:37:49Z</time>
      </trkpt>
      <trkpt lat="43.56913" lon="3.34576">
        <ele>275.5</ele>
        <time>2015-11-22T09:37:51Z</time>
      </trkpt>
      <trkpt lat="43.56914" lon="3.34579">
        <ele>277</ele>
        <time>2015-11-22T09:37:53Z</time>
      </trkpt>
      <trkpt lat="43.56913" lon="3.34582">
        <ele>277</ele>
        <time>2015-11-22T09:37:55Z</time>
      </trkpt>
      <trkpt lat="43.56913" lon="3.34585">
        <ele>279</ele>
        <time>2015-11-22T09:37:57Z</time>
      </trkpt>
      <trkpt lat="43.56913" lon="3.34589">
        <ele>280</ele>
        <time>2015-11-22T09:37:59Z</time>
      </trkpt>
      <trkpt lat="43.56911" lon="3.34591">
        <ele>280.5</ele>
        <time>2015-11-22T09:38:01Z</time>
      </trkpt>
      <trkpt lat="43.56911" lon="3.34595">
        <ele>282.5</ele>
        <time>2015-11-22T09:38:04Z</time>
      </trkpt>
      <trkpt lat="43.56911" lon="3.34604">
        <ele>283</ele>
        <time>2015-11-22T09:38:06Z</time>
      </trkpt>
      <trkpt lat="43.5691" lon="3.34609">
        <ele>282.5</ele>
        <time>2015-11-22T09:38:08Z</time>
      </trkpt>
      <trkpt lat="43.56911" lon="3.34614">
        <ele>284</ele>
        <time>2015-11-22T09:38:10Z</time>
      </trkpt>
      <trkpt lat="43.56913" lon="3.34619">
        <ele>285</ele>
        <time>2015-11-22T09:38:12Z</time>
      </trkpt>
      <trkpt lat="43.56914" lon="3.34624">
        <ele>286</ele>
        <time>2015-11-22T09:38:14Z</time>
      </trkpt>
      <trkpt lat="43.56915" lon="3.34629">
        <ele>286.5</ele>
        <time>2015-11-22T09:38:16Z</time>
      </trkpt>
      <trkpt lat="43.56915" lon="3.34633">
        <ele>286.5</ele>
        <time>2015-11-22T09:38:18Z</time>
      </trkpt>
      <trkpt lat="43.56915" lon="3.34636">
        <ele>288.5</ele>
        <time>2015-11-22T09:38:20Z</time>
      </trkpt>
      <trkpt lat="43.56916" lon="3.3464">
        <ele>289.5</ele>
        <time>2015-11-22T09:38:22Z</time>
      </trkpt>
      <trkpt lat="43.56918" lon="3.34643">
        <ele>291</ele>
        <time>2015-11-22T09:38:24Z</time>
      </trkpt>
      <trkpt lat="43.56917" lon="3.34646">
        <ele>291.5</ele>
        <time>2015-11-22T09:38:27Z</time>
      </trkpt>
      <trkpt lat="43.56918" lon="3.34651">
        <ele>292</ele>
        <time>2015-11-22T09:38:29Z</time>
      </trkpt>
      <trkpt lat="43.56918" lon="3.34654">
        <ele>292.5</ele>
        <time>2015-11-22T09:38:31Z</time>
      </trkpt>
      <trkpt lat="43.56919" lon="3.34657">
        <ele>293.5</ele>
        <time>2015-11-22T09:38:33Z</time>
      </trkpt>
      <trkpt lat="43.5692" lon="3.3466">
        <ele>293</ele>
        <time>2015-11-22T09:38:35Z</time>
      </trkpt>
      <trkpt lat="43.56921" lon="3.34663">
        <ele>292.5</ele>
        <time>2015-11-22T09:38:37Z</time>
      </trkpt>
      <trkpt lat="43.56921" lon="3.34665">
        <ele>292.5</ele>
        <time>2015-11-22T09:38:39Z</time>
      </trkpt>
      <trkpt lat="43.56922" lon="3.34668">
        <ele>292.5</ele>
        <time>2015-11-22T09:38:41Z</time>
      </trkpt>
      <trkpt lat="43.56922" lon="3.3467">
        <ele>292.5</ele>
        <time>2015-11-22T09:38:43Z</time>
      </trkpt>
      <trkpt lat="43.56922" lon="3.34673">
        <ele>292.5</ele>
        <time>2015-11-22T09:38:45Z</time>
      </trkpt>
      <trkpt lat="43.5692" lon="3.34676">
        <ele>292</ele>
        <time>2015-11-22T09:38:47Z</time>
      </trkpt>
      <trkpt lat="43.56921" lon="3.3468">
        <ele>294</ele>
        <time>2015-11-22T09:38:49Z</time>
      </trkpt>
      <trkpt lat="43.56928" lon="3.34685">
        <ele>295.5</ele>
        <time>2015-11-22T09:38:56Z</time>
      </trkpt>
      <trkpt lat="43.56931" lon="3.34684">
        <ele>296</ele>
        <time>2015-11-22T09:38:59Z</time>
      </trkpt>
      <trkpt lat="43.56932" lon="3.34684">
        <ele>296</ele>
        <time>2015-11-22T09:39:01Z</time>
      </trkpt>
      <trkpt lat="43.56932" lon="3.34688">
        <ele>297.5</ele>
        <time>2015-11-22T09:39:03Z</time>
      </trkpt>
      <trkpt lat="43.56932" lon="3.34689">
        <ele>296.5</ele>
        <time>2015-11-22T09:39:05Z</time>
      </trkpt>
      <trkpt lat="43.56932" lon="3.34694">
        <ele>296.5</ele>
        <time>2015-11-22T09:39:07Z</time>
      </trkpt>
      <trkpt lat="43.56932" lon="3.34695">
        <ele>296</ele>
        <time>2015-11-22T09:39:10Z</time>
      </trkpt>
      <trkpt lat="43.56929" lon="3.34699">
        <ele>292</ele>
        <time>2015-11-22T09:39:12Z</time>
      </trkpt>
      <trkpt lat="43.56927" lon="3.34703">
        <ele>290.5</ele>
        <time>2015-11-22T09:39:14Z</time>
      </trkpt>
      <trkpt lat="43.56927" lon="3.34705">
        <ele>291</ele>
        <time>2015-11-22T09:39:16Z</time>
      </trkpt>
      <trkpt lat="43.56927" lon="3.34706">
        <ele>291</ele>
        <time>2015-11-22T09:39:18Z</time>
      </trkpt>
      <trkpt lat="43.56928" lon="3.34706">
        <ele>291.5</ele>
        <time>2015-11-22T09:39:20Z</time>
      </trkpt>
      <trkpt lat="43.56928" lon="3.34707">
        <ele>289</ele>
        <time>2015-11-22T09:39:22Z</time>
      </trkpt>
      <trkpt lat="43.56927" lon="3.34707">
        <ele>288</ele>
        <time>2015-11-22T09:39:29Z</time>
      </trkpt>
      <trkpt lat="43.56923" lon="3.34711">
        <ele>287</ele>
        <time>2015-11-22T09:39:39Z</time>
      </trkpt>
      <trkpt lat="43.56925" lon="3.34711">
        <ele>286.5</ele>
        <time>2015-11-22T09:39:46Z</time>
      </trkpt>
      <trkpt lat="43.56925" lon="3.34714">
        <ele>286.5</ele>
        <time>2015-11-22T09:39:49Z</time>
      </trkpt>
      <trkpt lat="43.56925" lon="3.34714">
        <ele>286.5</ele>
        <time>2015-11-22T09:39:52Z</time>
      </trkpt>
      <trkpt lat="43.56924" lon="3.34715">
        <ele>284.5</ele>
        <time>2015-11-22T09:39:54Z</time>
      </trkpt>
      <trkpt lat="43.56926" lon="3.34716">
        <ele>284.5</ele>
        <time>2015-11-22T09:39:58Z</time>
      </trkpt>
      <trkpt lat="43.56925" lon="3.34718">
        <ele>284.5</ele>
        <time>2015-11-22T09:40:01Z</time>
      </trkpt>
      <trkpt lat="43.56925" lon="3.34719">
        <ele>284.5</ele>
        <time>2015-11-22T09:40:03Z</time>
      </trkpt>
      <trkpt lat="43.56925" lon="3.3472">
        <ele>285</ele>
        <time>2015-11-22T09:40:08Z</time>
      </trkpt>
      <trkpt lat="43.56925" lon="3.34722">
        <ele>284.5</ele>
        <time>2015-11-22T09:40:11Z</time>
      </trkpt>
      <trkpt lat="43.56926" lon="3.34721">
        <ele>284.5</ele>
        <time>2015-11-22T09:40:26Z</time>
      </trkpt>
      <trkpt lat="43.56924" lon="3.34721">
        <ele>284</ele>
        <time>2015-11-22T09:40:29Z</time>
      </trkpt>
      <trkpt lat="43.56923" lon="3.34722">
        <ele>284.5</ele>
        <time>2015-11-22T09:40:31Z</time>
      </trkpt>
      <trkpt lat="43.56922" lon="3.34723">
        <ele>284.5</ele>
        <time>2015-11-22T09:40:36Z</time>
      </trkpt>
      <trkpt lat="43.56923" lon="3.34721">
        <ele>284.5</ele>
        <time>2015-11-22T09:40:39Z</time>
      </trkpt>
      <trkpt lat="43.56924" lon="3.3472">
        <ele>284.5</ele>
        <time>2015-11-22T09:40:41Z</time>
      </trkpt>
      <trkpt lat="43.56923" lon="3.34722">
        <ele>284.5</ele>
        <time>2015-11-22T09:40:43Z</time>
      </trkpt>
      <trkpt lat="43.56924" lon="3.34725">
        <ele>286.5</ele>
        <time>2015-11-22T09:40:45Z</time>
      </trkpt>
      <trkpt lat="43.56924" lon="3.34725">
        <ele>287</ele>
        <time>2015-11-22T09:40:47Z</time>
      </trkpt>
      <trkpt lat="43.56927" lon="3.34722">
        <ele>288.5</ele>
        <time>2015-11-22T09:40:52Z</time>
      </trkpt>
      <trkpt lat="43.56927" lon="3.34719">
        <ele>289</ele>
        <time>2015-11-22T09:41:01Z</time>
      </trkpt>
      <trkpt lat="43.56926" lon="3.3472">
        <ele>287.5</ele>
        <time>2015-11-22T09:41:06Z</time>
      </trkpt>
      <trkpt lat="43.56926" lon="3.3472">
        <ele>286</ele>
        <time>2015-11-22T09:41:13Z</time>
      </trkpt>
      <trkpt lat="43.56928" lon="3.34722">
        <ele>287</ele>
        <time>2015-11-22T09:41:18Z</time>
      </trkpt>
      <trkpt lat="43.56935" lon="3.34718">
        <ele>289.5</ele>
        <time>2015-11-22T09:41:45Z</time>
      </trkpt>
      <trkpt lat="43.56935" lon="3.34714">
        <ele>289.5</ele>
        <time>2015-11-22T09:41:48Z</time>
      </trkpt>
      <trkpt lat="43.56933" lon="3.34713">
        <ele>289.5</ele>
        <time>2015-11-22T09:41:51Z</time>
      </trkpt>
      <trkpt lat="43.56932" lon="3.34714">
        <ele>289</ele>
        <time>2015-11-22T09:41:55Z</time>
      </trkpt>
      <trkpt lat="43.56934" lon="3.34714">
        <ele>289.5</ele>
        <time>2015-11-22T09:41:58Z</time>
      </trkpt>
      <trkpt lat="43.56936" lon="3.34714">
        <ele>291.5</ele>
        <time>2015-11-22T09:42:07Z</time>
      </trkpt>
      <trkpt lat="43.56933" lon="3.34716">
        <ele>290</ele>
        <time>2015-11-22T09:42:10Z</time>
      </trkpt>
      <trkpt lat="43.56929" lon="3.34718">
        <ele>289.5</ele>
        <time>2015-11-22T09:42:14Z</time>
      </trkpt>
      <trkpt lat="43.56929" lon="3.3472">
        <ele>290</ele>
        <time>2015-11-22T09:42:17Z</time>
      </trkpt>
      <trkpt lat="43.56926" lon="3.34722">
        <ele>289.5</ele>
        <time>2015-11-22T09:42:20Z</time>
      </trkpt>
      <trkpt lat="43.56925" lon="3.34724">
        <ele>289.5</ele>
        <time>2015-11-22T09:42:22Z</time>
      </trkpt>
      <trkpt lat="43.56924" lon="3.34727">
        <ele>290.5</ele>
        <time>2015-11-22T09:42:24Z</time>
      </trkpt>
      <trkpt lat="43.56922" lon="3.34728">
        <ele>290.5</ele>
        <time>2015-11-22T09:42:27Z</time>
      </trkpt>
      <trkpt lat="43.56922" lon="3.3473">
        <ele>291.5</ele>
        <time>2015-11-22T09:42:29Z</time>
      </trkpt>
      <trkpt lat="43.56921" lon="3.34731">
        <ele>291.5</ele>
        <time>2015-11-22T09:42:31Z</time>
      </trkpt>
      <trkpt lat="43.56919" lon="3.34733">
        <ele>292</ele>
        <time>2015-11-22T09:42:33Z</time>
      </trkpt>
      <trkpt lat="43.56919" lon="3.34734">
        <ele>293</ele>
        <time>2015-11-22T09:42:36Z</time>
      </trkpt>
      <trkpt lat="43.5692" lon="3.34737">
        <ele>294</ele>
        <time>2015-11-22T09:42:38Z</time>
      </trkpt>
      <trkpt lat="43.56918" lon="3.34739">
        <ele>293.5</ele>
        <time>2015-11-22T09:42:40Z</time>
      </trkpt>
      <trkpt lat="43.56917" lon="3.3474">
        <ele>292.5</ele>
        <time>2015-11-22T09:42:42Z</time>
      </trkpt>
      <trkpt lat="43.56916" lon="3.34742">
        <ele>292.5</ele>
        <time>2015-11-22T09:42:45Z</time>
      </trkpt>
      <trkpt lat="43.56915" lon="3.34745">
        <ele>291.5</ele>
        <time>2015-11-22T09:42:47Z</time>
      </trkpt>
      <trkpt lat="43.56913" lon="3.34748">
        <ele>288.5</ele>
        <time>2015-11-22T09:42:49Z</time>
      </trkpt>
      <trkpt lat="43.56913" lon="3.3475">
        <ele>287</ele>
        <time>2015-11-22T09:42:51Z</time>
      </trkpt>
      <trkpt lat="43.56912" lon="3.34752">
        <ele>286</ele>
        <time>2015-11-22T09:42:54Z</time>
      </trkpt>
      <trkpt lat="43.56912" lon="3.34753">
        <ele>286</ele>
        <time>2015-11-22T09:42:56Z</time>
      </trkpt>
      <trkpt lat="43.56913" lon="3.34756">
        <ele>287</ele>
        <time>2015-11-22T09:42:58Z</time>
      </trkpt>
      <trkpt lat="43.56912" lon="3.3476">
        <ele>288</ele>
        <time>2015-11-22T09:43:01Z</time>
      </trkpt>
      <trkpt lat="43.56912" lon="3.34762">
        <ele>288.5</ele>
        <time>2015-11-22T09:43:03Z</time>
      </trkpt>
      <trkpt lat="43.56911" lon="3.34769">
        <ele>290.5</ele>
        <time>2015-11-22T09:43:05Z</time>
      </trkpt>
      <trkpt lat="43.56911" lon="3.34773">
        <ele>293</ele>
        <time>2015-11-22T09:43:07Z</time>
      </trkpt>
      <trkpt lat="43.56911" lon="3.34777">
        <ele>293.5</ele>
        <time>2015-11-22T09:43:10Z</time>
      </trkpt>
      <trkpt lat="43.5691" lon="3.34781">
        <ele>294.5</ele>
        <time>2015-11-22T09:43:11Z</time>
      </trkpt>
      <trkpt lat="43.56911" lon="3.34783">
        <ele>298</ele>
        <time>2015-11-22T09:43:16Z</time>
      </trkpt>
      <trkpt lat="43.56912" lon="3.34786">
        <ele>301.5</ele>
        <time>2015-11-22T09:43:22Z</time>
      </trkpt>
      <trkpt lat="43.56911" lon="3.34787">
        <ele>303</ele>
        <time>2015-11-22T09:43:29Z</time>
      </trkpt>
      <trkpt lat="43.56911" lon="3.34789">
        <ele>303.5</ele>
        <time>2015-11-22T09:43:32Z</time>
      </trkpt>
      <trkpt lat="43.56911" lon="3.3479">
        <ele>303.5</ele>
        <time>2015-11-22T09:43:38Z</time>
      </trkpt>
      <trkpt lat="43.56911" lon="3.34792">
        <ele>302.5</ele>
        <time>2015-11-22T09:43:48Z</time>
      </trkpt>
      <trkpt lat="43.5691" lon="3.34793">
        <ele>302.5</ele>
        <time>2015-11-22T09:43:51Z</time>
      </trkpt>
      <trkpt lat="43.56909" lon="3.34793">
        <ele>302.5</ele>
        <time>2015-11-22T09:43:53Z</time>
      </trkpt>
      <trkpt lat="43.56909" lon="3.34793">
        <ele>302.5</ele>
        <time>2015-11-22T09:44:04Z</time>
      </trkpt>
      <trkpt lat="43.56909" lon="3.34792">
        <ele>304</ele>
        <time>2015-11-22T09:44:42Z</time>
      </trkpt>
      <trkpt lat="43.56907" lon="3.34789">
        <ele>302</ele>
        <time>2015-11-22T09:46:04Z</time>
      </trkpt>
      <trkpt lat="43.56907" lon="3.34789">
        <ele>300</ele>
        <time>2015-11-22T09:46:32Z</time>
      </trkpt>
      <trkpt lat="43.5691" lon="3.3479">
        <ele>299.5</ele>
        <time>2015-11-22T09:46:35Z</time>
      </trkpt>
      <trkpt lat="43.56912" lon="3.34792">
        <ele>297</ele>
        <time>2015-11-22T09:46:38Z</time>
      </trkpt>
      <trkpt lat="43.56914" lon="3.34793">
        <ele>297.5</ele>
        <time>2015-11-22T09:46:40Z</time>
      </trkpt>
      <trkpt lat="43.56913" lon="3.34793">
        <ele>297.5</ele>
        <time>2015-11-22T09:46:44Z</time>
      </trkpt>
      <trkpt lat="43.56915" lon="3.34793">
        <ele>296.5</ele>
        <time>2015-11-22T09:46:51Z</time>
      </trkpt>
      <trkpt lat="43.56918" lon="3.34796">
        <ele>295</ele>
        <time>2015-11-22T09:46:54Z</time>
      </trkpt>
      <trkpt lat="43.56921" lon="3.34796">
        <ele>294.5</ele>
        <time>2015-11-22T09:46:33Z</time>
      </trkpt>
      <trkpt lat="43.56922" lon="3.34801">
        <ele>292</ele>
        <time>2015-11-22T09:47:41Z</time>
      </trkpt>
      <trkpt lat="43.56925" lon="3.34805">
        <ele>291.5</ele>
        <time>2015-11-22T09:47:44Z</time>
      </trkpt>
      <trkpt lat="43.56926" lon="3.34811">
        <ele>291</ele>
        <time>2015-11-22T09:47:45Z</time>
      </trkpt>
      <trkpt lat="43.56928" lon="3.34817">
        <ele>292.5</ele>
        <time>2015-11-22T09:47:47Z</time>
      </trkpt>
      <trkpt lat="43.5693" lon="3.34823">
        <ele>292</ele>
        <time>2015-11-22T09:47:49Z</time>
      </trkpt>
      <trkpt lat="43.56928" lon="3.34827">
        <ele>290.5</ele>
        <time>2015-11-22T09:47:51Z</time>
      </trkpt>
      <trkpt lat="43.5693" lon="3.34835">
        <ele>291</ele>
        <time>2015-11-22T09:47:53Z</time>
      </trkpt>
      <trkpt lat="43.56933" lon="3.34846">
        <ele>293</ele>
        <time>2015-11-22T09:47:56Z</time>
      </trkpt>
      <trkpt lat="43.56933" lon="3.34856">
        <ele>292</ele>
        <time>2015-11-22T09:47:58Z</time>
      </trkpt>
      <trkpt lat="43.56938" lon="3.34859">
        <ele>289</ele>
        <time>2015-11-22T09:48:01Z</time>
      </trkpt>
      <trkpt lat="43.56945" lon="3.34864">
        <ele>287</ele>
        <time>2015-11-22T09:48:03Z</time>
      </trkpt>
      <trkpt lat="43.56949" lon="3.34881">
        <ele>283.5</ele>
        <time>2015-11-22T09:48:05Z</time>
      </trkpt>
      <trkpt lat="43.5695" lon="3.34891">
        <ele>283.5</ele>
        <time>2015-11-22T09:48:07Z</time>
      </trkpt>
      <trkpt lat="43.56951" lon="3.34906">
        <ele>282.5</ele>
        <time>2015-11-22T09:48:10Z</time>
      </trkpt>
      <trkpt lat="43.56956" lon="3.34923">
        <ele>282.5</ele>
        <time>2015-11-22T09:48:11Z</time>
      </trkpt>
      <trkpt lat="43.56961" lon="3.34944">
        <ele>282</ele>
        <time>2015-11-22T09:48:13Z</time>
      </trkpt>
      <trkpt lat="43.56964" lon="3.34962">
        <ele>282.5</ele>
        <time>2015-11-22T09:48:15Z</time>
      </trkpt>
      <trkpt lat="43.56963" lon="3.34978">
        <ele>281.5</ele>
        <time>2015-11-22T09:48:17Z</time>
      </trkpt>
      <trkpt lat="43.56962" lon="3.34994">
        <ele>279</ele>
        <time>2015-11-22T09:48:19Z</time>
      </trkpt>
      <trkpt lat="43.56958" lon="3.35011">
        <ele>276.5</ele>
        <time>2015-11-22T09:48:21Z</time>
      </trkpt>
      <trkpt lat="43.56954" lon="3.3503">
        <ele>275</ele>
        <time>2015-11-22T09:48:24Z</time>
      </trkpt>
      <trkpt lat="43.56954" lon="3.35052">
        <ele>270.5</ele>
        <time>2015-11-22T09:48:26Z</time>
      </trkpt>
      <trkpt lat="43.56952" lon="3.35064">
        <ele>266.5</ele>
        <time>2015-11-22T09:48:29Z</time>
      </trkpt>
      <trkpt lat="43.56953" lon="3.35071">
        <ele>265</ele>
        <time>2015-11-22T09:48:30Z</time>
      </trkpt>
      <trkpt lat="43.56956" lon="3.35081">
        <ele>262</ele>
        <time>2015-11-22T09:48:32Z</time>
      </trkpt>
      <trkpt lat="43.56963" lon="3.35083">
        <ele>262</ele>
        <time>2015-11-22T09:48:34Z</time>
      </trkpt>
      <trkpt lat="43.56972" lon="3.35086">
        <ele>260.5</ele>
        <time>2015-11-22T09:48:37Z</time>
      </trkpt>
      <trkpt lat="43.56981" lon="3.35086">
        <ele>264</ele>
        <time>2015-11-22T09:48:39Z</time>
      </trkpt>
      <trkpt lat="43.56993" lon="3.35095">
        <ele>264</ele>
        <time>2015-11-22T09:48:41Z</time>
      </trkpt>
      <trkpt lat="43.57" lon="3.35107">
        <ele>263.5</ele>
        <time>2015-11-22T09:48:44Z</time>
      </trkpt>
      <trkpt lat="43.57008" lon="3.35122">
        <ele>263</ele>
        <time>2015-11-22T09:48:46Z</time>
      </trkpt>
      <trkpt lat="43.5702" lon="3.3514">
        <ele>259</ele>
        <time>2015-11-22T09:48:48Z</time>
      </trkpt>
      <trkpt lat="43.57032" lon="3.35151">
        <ele>258</ele>
        <time>2015-11-22T09:48:50Z</time>
      </trkpt>
      <trkpt lat="43.57044" lon="3.35161">
        <ele>258</ele>
        <time>2015-11-22T09:48:53Z</time>
      </trkpt>
      <trkpt lat="43.57057" lon="3.35166">
        <ele>254</ele>
        <time>2015-11-22T09:48:55Z</time>
      </trkpt>
      <trkpt lat="43.5707" lon="3.35174">
        <ele>252.5</ele>
        <time>2015-11-22T09:48:58Z</time>
      </trkpt>
      <trkpt lat="43.57085" lon="3.35186">
        <ele>250.5</ele>
        <time>2015-11-22T09:49:00Z</time>
      </trkpt>
      <trkpt lat="43.57105" lon="3.35207">
        <ele>246.5</ele>
        <time>2015-11-22T09:49:02Z</time>
      </trkpt>
      <trkpt lat="43.57118" lon="3.35219">
        <ele>244.5</ele>
        <time>2015-11-22T09:49:04Z</time>
      </trkpt>
      <trkpt lat="43.57129" lon="3.35225">
        <ele>246.5</ele>
        <time>2015-11-22T09:49:06Z</time>
      </trkpt>
      <trkpt lat="43.57134" lon="3.35237">
        <ele>245.5</ele>
        <time>2015-11-22T09:49:08Z</time>
      </trkpt>
      <trkpt lat="43.57144" lon="3.35251">
        <ele>242.5</ele>
        <time>2015-11-22T09:49:11Z</time>
      </trkpt>
      <trkpt lat="43.57152" lon="3.35264">
        <ele>239.5</ele>
        <time>2015-11-22T09:49:13Z</time>
      </trkpt>
      <trkpt lat="43.57159" lon="3.35285">
        <ele>234.5</ele>
        <time>2015-11-22T09:49:15Z</time>
      </trkpt>
      <trkpt lat="43.57163" lon="3.35297">
        <ele>232.5</ele>
        <time>2015-11-22T09:49:17Z</time>
      </trkpt>
      <trkpt lat="43.57167" lon="3.35307">
        <ele>233.5</ele>
        <time>2015-11-22T09:49:20Z</time>
      </trkpt>
      <trkpt lat="43.57171" lon="3.35312">
        <ele>232.5</ele>
        <time>2015-11-22T09:49:23Z</time>
      </trkpt>
      <trkpt lat="43.57175" lon="3.35319">
        <ele>230</ele>
        <time>2015-11-22T09:49:33Z</time>
      </trkpt>
      <trkpt lat="43.57173" lon="3.35319">
        <ele>229.5</ele>
        <time>2015-11-22T09:49:36Z</time>
      </trkpt>
      <trkpt lat="43.57171" lon="3.35319">
        <ele>229</ele>
        <time>2015-11-22T09:49:39Z</time>
      </trkpt>
      <trkpt lat="43.5717" lon="3.3532">
        <ele>229.5</ele>
        <time>2015-11-22T09:49:41Z</time>
      </trkpt>
      <trkpt lat="43.57171" lon="3.35322">
        <ele>226.5</ele>
        <time>2015-11-22T09:49:47Z</time>
      </trkpt>
      <trkpt lat="43.57172" lon="3.35329">
        <ele>225.5</ele>
        <time>2015-11-22T09:49:50Z</time>
      </trkpt>
      <trkpt lat="43.57172" lon="3.35335">
        <ele>223</ele>
        <time>2015-11-22T09:49:53Z</time>
      </trkpt>
      <trkpt lat="43.57177" lon="3.35342">
        <ele>221.5</ele>
        <time>2015-11-22T09:49:55Z</time>
      </trkpt>
      <trkpt lat="43.57182" lon="3.35348">
        <ele>219.5</ele>
        <time>2015-11-22T09:49:58Z</time>
      </trkpt>
      <trkpt lat="43.5719" lon="3.35355">
        <ele>218.5</ele>
        <time>2015-11-22T09:50:00Z</time>
      </trkpt>
      <trkpt lat="43.57195" lon="3.35363">
        <ele>217.5</ele>
        <time>2015-11-22T09:50:02Z</time>
      </trkpt>
      <trkpt lat="43.57198" lon="3.35369">
        <ele>217</ele>
        <time>2015-11-22T09:50:04Z</time>
      </trkpt>
      <trkpt lat="43.57202" lon="3.35375">
        <ele>216.5</ele>
        <time>2015-11-22T09:50:06Z</time>
      </trkpt>
      <trkpt lat="43.57204" lon="3.35383">
        <ele>215.5</ele>
        <time>2015-11-22T09:50:08Z</time>
      </trkpt>
      <trkpt lat="43.57206" lon="3.35392">
        <ele>214.5</ele>
        <time>2015-11-22T09:50:11Z</time>
      </trkpt>
      <trkpt lat="43.57209" lon="3.35399">
        <ele>214.5</ele>
        <time>2015-11-22T09:50:12Z</time>
      </trkpt>
      <trkpt lat="43.57213" lon="3.35404">
        <ele>214.5</ele>
        <time>2015-11-22T09:50:14Z</time>
      </trkpt>
      <trkpt lat="43.57221" lon="3.35406">
        <ele>216</ele>
        <time>2015-11-22T09:50:17Z</time>
      </trkpt>
      <trkpt lat="43.57232" lon="3.35416">
        <ele>215</ele>
        <time>2015-11-22T09:50:19Z</time>
      </trkpt>
      <trkpt lat="43.57251" lon="3.35431">
        <ele>214.5</ele>
        <time>2015-11-22T09:50:22Z</time>
      </trkpt>
      <trkpt lat="43.57264" lon="3.3544">
        <ele>212.5</ele>
        <time>2015-11-22T09:50:24Z</time>
      </trkpt>
      <trkpt lat="43.57285" lon="3.35446">
        <ele>210.5</ele>
        <time>2015-11-22T09:50:26Z</time>
      </trkpt>
      <trkpt lat="43.57298" lon="3.35447">
        <ele>211</ele>
        <time>2015-11-22T09:50:28Z</time>
      </trkpt>
      <trkpt lat="43.57312" lon="3.35452">
        <ele>210</ele>
        <time>2015-11-22T09:50:31Z</time>
      </trkpt>
      <trkpt lat="43.57325" lon="3.35454">
        <ele>208</ele>
        <time>2015-11-22T09:50:32Z</time>
      </trkpt>
      <trkpt lat="43.5734" lon="3.35455">
        <ele>205.5</ele>
        <time>2015-11-22T09:50:34Z</time>
      </trkpt>
      <trkpt lat="43.57354" lon="3.35457">
        <ele>208</ele>
        <time>2015-11-22T09:50:36Z</time>
      </trkpt>
      <trkpt lat="43.57367" lon="3.35458">
        <ele>206.5</ele>
        <time>2015-11-22T09:50:38Z</time>
      </trkpt>
      <trkpt lat="43.57381" lon="3.3546">
        <ele>204</ele>
        <time>2015-11-22T09:50:40Z</time>
      </trkpt>
      <trkpt lat="43.57394" lon="3.35467">
        <ele>201.5</ele>
        <time>2015-11-22T09:50:43Z</time>
      </trkpt>
      <trkpt lat="43.57414" lon="3.35481">
        <ele>198</ele>
        <time>2015-11-22T09:50:45Z</time>
      </trkpt>
      <trkpt lat="43.57426" lon="3.35489">
        <ele>195.5</ele>
        <time>2015-11-22T09:50:47Z</time>
      </trkpt>
      <trkpt lat="43.57435" lon="3.35499">
        <ele>198</ele>
        <time>2015-11-22T09:50:50Z</time>
      </trkpt>
      <trkpt lat="43.57443" lon="3.3551">
        <ele>195</ele>
        <time>2015-11-22T09:50:52Z</time>
      </trkpt>
      <trkpt lat="43.57456" lon="3.3553">
        <ele>193</ele>
        <time>2015-11-22T09:50:54Z</time>
      </trkpt>
      <trkpt lat="43.57469" lon="3.35544">
        <ele>190.5</ele>
        <time>2015-11-22T09:50:57Z</time>
      </trkpt>
      <trkpt lat="43.57474" lon="3.35552">
        <ele>191</ele>
        <time>2015-11-22T09:51:00Z</time>
      </trkpt>
      <trkpt lat="43.57482" lon="3.35547">
        <ele>189</ele>
        <time>2015-11-22T09:51:01Z</time>
      </trkpt>
      <trkpt lat="43.57488" lon="3.35547">
        <ele>188</ele>
        <time>2015-11-22T09:51:03Z</time>
      </trkpt>
      <trkpt lat="43.57488" lon="3.35549">
        <ele>187.5</ele>
        <time>2015-11-22T09:51:14Z</time>
      </trkpt>
      <trkpt lat="43.57488" lon="3.35552">
        <ele>183.5</ele>
        <time>2015-11-22T09:51:27Z</time>
      </trkpt>
      <trkpt lat="43.57487" lon="3.35555">
        <ele>178.5</ele>
        <time>2015-11-22T09:51:37Z</time>
      </trkpt>
      <trkpt lat="43.57487" lon="3.35555">
        <ele>178</ele>
        <time>2015-11-22T09:51:40Z</time>
      </trkpt>
      <trkpt lat="43.57487" lon="3.35557">
        <ele>176.5</ele>
        <time>2015-11-22T09:51:48Z</time>
      </trkpt>
      <trkpt lat="43.57492" lon="3.3557">
        <ele>172.5</ele>
        <time>2015-11-22T09:51:51Z</time>
      </trkpt>
      <trkpt lat="43.57497" lon="3.35584">
        <ele>170.5</ele>
        <time>2015-11-22T09:51:54Z</time>
      </trkpt>
      <trkpt lat="43.57499" lon="3.35597">
        <ele>169.5</ele>
        <time>2015-11-22T09:51:56Z</time>
      </trkpt>
      <trkpt lat="43.57498" lon="3.35605">
        <ele>170.5</ele>
        <time>2015-11-22T09:51:58Z</time>
      </trkpt>
      <trkpt lat="43.57497" lon="3.35609">
        <ele>170</ele>
        <time>2015-11-22T09:52:00Z</time>
      </trkpt>
      <trkpt lat="43.57498" lon="3.35616">
        <ele>169</ele>
        <time>2015-11-22T09:52:02Z</time>
      </trkpt>
      <trkpt lat="43.57501" lon="3.3562">
        <ele>171</ele>
        <time>2015-11-22T09:52:05Z</time>
      </trkpt>
      <trkpt lat="43.57504" lon="3.35626">
        <ele>172</ele>
        <time>2015-11-22T09:52:07Z</time>
      </trkpt>
      <trkpt lat="43.5751" lon="3.35637">
        <ele>173</ele>
        <time>2015-11-22T09:52:09Z</time>
      </trkpt>
      <trkpt lat="43.57515" lon="3.35644">
        <ele>174</ele>
        <time>2015-11-22T09:52:12Z</time>
      </trkpt>
      <trkpt lat="43.57521" lon="3.35651">
        <ele>174</ele>
        <time>2015-11-22T09:52:13Z</time>
      </trkpt>
      <trkpt lat="43.57529" lon="3.35658">
        <ele>174</ele>
        <time>2015-11-22T09:52:15Z</time>
      </trkpt>
      <trkpt lat="43.57539" lon="3.35665">
        <ele>174</ele>
        <time>2015-11-22T09:52:18Z</time>
      </trkpt>
      <trkpt lat="43.57549" lon="3.35674">
        <ele>175.5</ele>
        <time>2015-11-22T09:52:20Z</time>
      </trkpt>
      <trkpt lat="43.57556" lon="3.35694">
        <ele>176</ele>
        <time>2015-11-22T09:52:22Z</time>
      </trkpt>
      <trkpt lat="43.57558" lon="3.35704">
        <ele>176.5</ele>
        <time>2015-11-22T09:52:25Z</time>
      </trkpt>
      <trkpt lat="43.57562" lon="3.3571">
        <ele>177.5</ele>
        <time>2015-11-22T09:52:26Z</time>
      </trkpt>
      <trkpt lat="43.57566" lon="3.35717">
        <ele>177.5</ele>
        <time>2015-11-22T09:52:28Z</time>
      </trkpt>
      <trkpt lat="43.5757" lon="3.35724">
        <ele>178</ele>
        <time>2015-11-22T09:52:31Z</time>
      </trkpt>
      <trkpt lat="43.57572" lon="3.3573">
        <ele>178</ele>
        <time>2015-11-22T09:52:33Z</time>
      </trkpt>
      <trkpt lat="43.57578" lon="3.35742">
        <ele>179</ele>
        <time>2015-11-22T09:52:35Z</time>
      </trkpt>
      <trkpt lat="43.5758" lon="3.35749">
        <ele>179</ele>
        <time>2015-11-22T09:52:38Z</time>
      </trkpt>
      <trkpt lat="43.57581" lon="3.35751">
        <ele>180.5</ele>
        <time>2015-11-22T09:52:39Z</time>
      </trkpt>
      <trkpt lat="43.57583" lon="3.35755">
        <ele>181.5</ele>
        <time>2015-11-22T09:52:41Z</time>
      </trkpt>
      <trkpt lat="43.57584" lon="3.35757">
        <ele>181.5</ele>
        <time>2015-11-22T09:52:43Z</time>
      </trkpt>
      <trkpt lat="43.57585" lon="3.35759">
        <ele>181.5</ele>
        <time>2015-11-22T09:52:45Z</time>
      </trkpt>
      <trkpt lat="43.57585" lon="3.35761">
        <ele>181.5</ele>
        <time>2015-11-22T09:52:47Z</time>
      </trkpt>
      <trkpt lat="43.57585" lon="3.35763">
        <ele>181</ele>
        <time>2015-11-22T09:52:49Z</time>
      </trkpt>
      <trkpt lat="43.57586" lon="3.35766">
        <ele>180.5</ele>
        <time>2015-11-22T09:52:58Z</time>
      </trkpt>
      <trkpt lat="43.57587" lon="3.35772">
        <ele>181</ele>
        <time>2015-11-22T09:53:01Z</time>
      </trkpt>
      <trkpt lat="43.5759" lon="3.3578">
        <ele>180</ele>
        <time>2015-11-22T09:53:03Z</time>
      </trkpt>
      <trkpt lat="43.57593" lon="3.3579">
        <ele>179.5</ele>
        <time>2015-11-22T09:53:06Z</time>
      </trkpt>
      <trkpt lat="43.57595" lon="3.35805">
        <ele>178.5</ele>
        <time>2015-11-22T09:53:08Z</time>
      </trkpt>
      <trkpt lat="43.57597" lon="3.35816">
        <ele>178</ele>
        <time>2015-11-22T09:53:11Z</time>
      </trkpt>
      <trkpt lat="43.57597" lon="3.35827">
        <ele>177.5</ele>
        <time>2015-11-22T09:53:12Z</time>
      </trkpt>
      <trkpt lat="43.57596" lon="3.35839">
        <ele>176.5</ele>
        <time>2015-11-22T09:53:14Z</time>
      </trkpt>
      <trkpt lat="43.57597" lon="3.35852">
        <ele>176.5</ele>
        <time>2015-11-22T09:53:17Z</time>
      </trkpt>
      <trkpt lat="43.57598" lon="3.35871">
        <ele>175.5</ele>
        <time>2015-11-22T09:53:19Z</time>
      </trkpt>
      <trkpt lat="43.576" lon="3.35883">
        <ele>175.5</ele>
        <time>2015-11-22T09:53:21Z</time>
      </trkpt>
      <trkpt lat="43.57602" lon="3.35895">
        <ele>175.5</ele>
        <time>2015-11-22T09:53:23Z</time>
      </trkpt>
      <trkpt lat="43.57604" lon="3.35907">
        <ele>175.5</ele>
        <time>2015-11-22T09:53:25Z</time>
      </trkpt>
      <trkpt lat="43.57606" lon="3.35919">
        <ele>175.5</ele>
        <time>2015-11-22T09:53:27Z</time>
      </trkpt>
      <trkpt lat="43.57607" lon="3.35929">
        <ele>175</ele>
        <time>2015-11-22T09:53:29Z</time>
      </trkpt>
      <trkpt lat="43.57607" lon="3.35938">
        <ele>174.5</ele>
        <time>2015-11-22T09:53:31Z</time>
      </trkpt>
      <trkpt lat="43.57608" lon="3.35946">
        <ele>174.5</ele>
        <time>2015-11-22T09:53:34Z</time>
      </trkpt>
      <trkpt lat="43.57608" lon="3.35954">
        <ele>174</ele>
        <time>2015-11-22T09:53:35Z</time>
      </trkpt>
      <trkpt lat="43.5761" lon="3.35962">
        <ele>173</ele>
        <time>2015-11-22T09:53:37Z</time>
      </trkpt>
      <trkpt lat="43.57614" lon="3.35971">
        <ele>172.5</ele>
        <time>2015-11-22T09:53:39Z</time>
      </trkpt>
      <trkpt lat="43.57617" lon="3.3598">
        <ele>170.5</ele>
        <time>2015-11-22T09:53:41Z</time>
      </trkpt>
      <trkpt lat="43.5762" lon="3.35988">
        <ele>170.5</ele>
        <time>2015-11-22T09:53:44Z</time>
      </trkpt>
      <trkpt lat="43.57625" lon="3.36002">
        <ele>170.5</ele>
        <time>2015-11-22T09:53:46Z</time>
      </trkpt>
      <trkpt lat="43.57628" lon="3.3601">
        <ele>170.5</ele>
        <time>2015-11-22T09:53:49Z</time>
      </trkpt>
      <trkpt lat="43.57631" lon="3.36019">
        <ele>170.5</ele>
        <time>2015-11-22T09:53:51Z</time>
      </trkpt>
      <trkpt lat="43.57637" lon="3.36033">
        <ele>170</ele>
        <time>2015-11-22T09:53:53Z</time>
      </trkpt>
      <trkpt lat="43.5764" lon="3.36041">
        <ele>170</ele>
        <time>2015-11-22T09:53:55Z</time>
      </trkpt>
      <trkpt lat="43.57643" lon="3.3605">
        <ele>170</ele>
        <time>2015-11-22T09:53:58Z</time>
      </trkpt>
      <trkpt lat="43.57646" lon="3.36059">
        <ele>170</ele>
        <time>2015-11-22T09:54:00Z</time>
      </trkpt>
      <trkpt lat="43.57651" lon="3.36075">
        <ele>170</ele>
        <time>2015-11-22T09:54:02Z</time>
      </trkpt>
      <trkpt lat="43.57653" lon="3.36085">
        <ele>169</ele>
        <time>2015-11-22T09:54:05Z</time>
      </trkpt>
      <trkpt lat="43.57656" lon="3.36102">
        <ele>168.5</ele>
        <time>2015-11-22T09:54:07Z</time>
      </trkpt>
      <trkpt lat="43.57657" lon="3.36114">
        <ele>168</ele>
        <time>2015-11-22T09:54:10Z</time>
      </trkpt>
      <trkpt lat="43.5766" lon="3.36125">
        <ele>168</ele>
        <time>2015-11-22T09:54:12Z</time>
      </trkpt>
      <trkpt lat="43.57663" lon="3.36142">
        <ele>168</ele>
        <time>2015-11-22T09:54:14Z</time>
      </trkpt>
      <trkpt lat="43.57663" lon="3.36152">
        <ele>168.5</ele>
        <time>2015-11-22T09:54:17Z</time>
      </trkpt>
      <trkpt lat="43.57664" lon="3.36162">
        <ele>169</ele>
        <time>2015-11-22T09:54:18Z</time>
      </trkpt>
      <trkpt lat="43.57656" lon="3.3616">
        <ele>168.5</ele>
        <time>2015-11-22T09:54:20Z</time>
      </trkpt>
      <trkpt lat="43.57657" lon="3.36171">
        <ele>169</ele>
        <time>2015-11-22T09:54:22Z</time>
      </trkpt>
      <trkpt lat="43.57656" lon="3.36179">
        <ele>171.5</ele>
        <time>2015-11-22T09:54:24Z</time>
      </trkpt>
      <trkpt lat="43.57652" lon="3.36183">
        <ele>170</ele>
        <time>2015-11-22T09:54:26Z</time>
      </trkpt>
      <trkpt lat="43.5765" lon="3.36184">
        <ele>170</ele>
        <time>2015-11-22T09:54:28Z</time>
      </trkpt>
      <trkpt lat="43.57645" lon="3.36191">
        <ele>171.5</ele>
        <time>2015-11-22T09:54:30Z</time>
      </trkpt>
      <trkpt lat="43.57637" lon="3.36198">
        <ele>171</ele>
        <time>2015-11-22T09:54:32Z</time>
      </trkpt>
      <trkpt lat="43.57634" lon="3.36208">
        <ele>172.5</ele>
        <time>2015-11-22T09:54:34Z</time>
      </trkpt>
      <trkpt lat="43.57628" lon="3.36219">
        <ele>173</ele>
        <time>2015-11-22T09:54:37Z</time>
      </trkpt>
      <trkpt lat="43.57621" lon="3.3623">
        <ele>172.5</ele>
        <time>2015-11-22T09:54:38Z</time>
      </trkpt>
      <trkpt lat="43.57613" lon="3.36238">
        <ele>173</ele>
        <time>2015-11-22T09:54:40Z</time>
      </trkpt>
      <trkpt lat="43.57601" lon="3.36245">
        <ele>171</ele>
        <time>2015-11-22T09:54:42Z</time>
      </trkpt>
      <trkpt lat="43.57593" lon="3.36259">
        <ele>171.5</ele>
        <time>2015-11-22T09:54:44Z</time>
      </trkpt>
      <trkpt lat="43.57585" lon="3.36274">
        <ele>170.5</ele>
        <time>2015-11-22T09:54:46Z</time>
      </trkpt>
      <trkpt lat="43.57583" lon="3.36295">
        <ele>171</ele>
        <time>2015-11-22T09:54:48Z</time>
      </trkpt>
      <trkpt lat="43.57582" lon="3.36318">
        <ele>169.5</ele>
        <time>2015-11-22T09:54:50Z</time>
      </trkpt>
      <trkpt lat="43.57581" lon="3.36341">
        <ele>167</ele>
        <time>2015-11-22T09:54:52Z</time>
      </trkpt>
      <trkpt lat="43.57576" lon="3.36358">
        <ele>165.5</ele>
        <time>2015-11-22T09:54:54Z</time>
      </trkpt>
      <trkpt lat="43.57567" lon="3.36362">
        <ele>165.5</ele>
        <time>2015-11-22T09:54:56Z</time>
      </trkpt>
      <trkpt lat="43.57556" lon="3.36362">
        <ele>165</ele>
        <time>2015-11-22T09:54:58Z</time>
      </trkpt>
      <trkpt lat="43.57544" lon="3.3636">
        <ele>161</ele>
        <time>2015-11-22T09:55:00Z</time>
      </trkpt>
      <trkpt lat="43.57533" lon="3.36359">
        <ele>160.5</ele>
        <time>2015-11-22T09:55:02Z</time>
      </trkpt>
      <trkpt lat="43.5752" lon="3.36356">
        <ele>158.5</ele>
        <time>2015-11-22T09:55:05Z</time>
      </trkpt>
      <trkpt lat="43.57507" lon="3.36353">
        <ele>156</ele>
        <time>2015-11-22T09:55:06Z</time>
      </trkpt>
      <trkpt lat="43.57493" lon="3.3635">
        <ele>154</ele>
        <time>2015-11-22T09:55:08Z</time>
      </trkpt>
      <trkpt lat="43.5748" lon="3.3635">
        <ele>154</ele>
        <time>2015-11-22T09:55:10Z</time>
      </trkpt>
      <trkpt lat="43.57468" lon="3.36348">
        <ele>153.5</ele>
        <time>2015-11-22T09:55:12Z</time>
      </trkpt>
      <trkpt lat="43.57456" lon="3.36346">
        <ele>152.5</ele>
        <time>2015-11-22T09:55:14Z</time>
      </trkpt>
      <trkpt lat="43.57444" lon="3.36344">
        <ele>152.5</ele>
        <time>2015-11-22T09:55:16Z</time>
      </trkpt>
      <trkpt lat="43.57432" lon="3.36344">
        <ele>151</ele>
        <time>2015-11-22T09:55:19Z</time>
      </trkpt>
      <trkpt lat="43.57419" lon="3.36346">
        <ele>153</ele>
        <time>2015-11-22T09:55:21Z</time>
      </trkpt>
      <trkpt lat="43.57404" lon="3.3635">
        <ele>152</ele>
        <time>2015-11-22T09:55:23Z</time>
      </trkpt>
      <trkpt lat="43.57392" lon="3.36354">
        <ele>151.5</ele>
        <time>2015-11-22T09:55:25Z</time>
      </trkpt>
      <trkpt lat="43.57379" lon="3.36359">
        <ele>151</ele>
        <time>2015-11-22T09:55:27Z</time>
      </trkpt>
      <trkpt lat="43.57366" lon="3.36363">
        <ele>150.5</ele>
        <time>2015-11-22T09:55:29Z</time>
      </trkpt>
      <trkpt lat="43.57354" lon="3.36363">
        <ele>151.5</ele>
        <time>2015-11-22T09:55:31Z</time>
      </trkpt>
      <trkpt lat="43.57343" lon="3.3636">
        <ele>151.5</ele>
        <time>2015-11-22T09:55:33Z</time>
      </trkpt>
      <trkpt lat="43.57332" lon="3.36357">
        <ele>153</ele>
        <time>2015-11-22T09:55:35Z</time>
      </trkpt>
      <trkpt lat="43.57322" lon="3.36353">
        <ele>154</ele>
        <time>2015-11-22T09:55:37Z</time>
      </trkpt>
      <trkpt lat="43.57313" lon="3.36351">
        <ele>155</ele>
        <time>2015-11-22T09:55:39Z</time>
      </trkpt>
      <trkpt lat="43.57305" lon="3.3635">
        <ele>153.5</ele>
        <time>2015-11-22T09:55:41Z</time>
      </trkpt>
      <trkpt lat="43.57301" lon="3.3635">
        <ele>153.5</ele>
        <time>2015-11-22T09:55:43Z</time>
      </trkpt>
      <trkpt lat="43.57301" lon="3.36348">
        <ele>153.5</ele>
        <time>2015-11-22T09:55:45Z</time>
      </trkpt>
      <trkpt lat="43.57302" lon="3.36348">
        <ele>155</ele>
        <time>2015-11-22T09:55:48Z</time>
      </trkpt>
      <trkpt lat="43.57304" lon="3.36348">
        <ele>157</ele>
        <time>2015-11-22T09:55:50Z</time>
      </trkpt>
      <trkpt lat="43.57307" lon="3.36347">
        <ele>157</ele>
        <time>2015-11-22T09:55:52Z</time>
      </trkpt>
      <trkpt lat="43.57311" lon="3.36345">
        <ele>157</ele>
        <time>2015-11-22T09:55:54Z</time>
      </trkpt>
      <trkpt lat="43.57314" lon="3.36343">
        <ele>157</ele>
        <time>2015-11-22T09:55:56Z</time>
      </trkpt>
      <trkpt lat="43.57317" lon="3.3634">
        <ele>156</ele>
        <time>2015-11-22T09:55:58Z</time>
      </trkpt>
      <trkpt lat="43.5732" lon="3.36337">
        <ele>155.5</ele>
        <time>2015-11-22T09:56:00Z</time>
      </trkpt>
      <trkpt lat="43.57322" lon="3.36334">
        <ele>154.5</ele>
        <time>2015-11-22T09:56:02Z</time>
      </trkpt>
      <trkpt lat="43.57324" lon="3.36332">
        <ele>153.5</ele>
        <time>2015-11-22T09:56:04Z</time>
      </trkpt>
      <trkpt lat="43.57325" lon="3.36331">
        <ele>153</ele>
        <time>2015-11-22T09:56:06Z</time>
      </trkpt>
      <trkpt lat="43.57326" lon="3.36329">
        <ele>152.5</ele>
        <time>2015-11-22T09:56:08Z</time>
      </trkpt>
      <trkpt lat="43.57327" lon="3.36328">
        <ele>152.5</ele>
        <time>2015-11-22T09:56:10Z</time>
      </trkpt>
      <trkpt lat="43.57328" lon="3.36327">
        <ele>151.5</ele>
        <time>2015-11-22T09:56:12Z</time>
      </trkpt>
      <trkpt lat="43.57329" lon="3.36325">
        <ele>152</ele>
        <time>2015-11-22T09:56:14Z</time>
      </trkpt>
      <trkpt lat="43.57329" lon="3.36325">
        <ele>152</ele>
        <time>2015-11-22T09:56:16Z</time>
      </trkpt>
      <trkpt lat="43.57329" lon="3.36324">
        <ele>153</ele>
        <time>2015-11-22T09:56:20Z</time>
      </trkpt>
      <trkpt lat="43.57327" lon="3.36324">
        <ele>153</ele>
        <time>2015-11-22T09:56:26Z</time>
      </trkpt>
      <trkpt lat="43.57327" lon="3.36325">
        <ele>155</ele>
        <time>2015-11-22T09:56:33Z</time>
      </trkpt>
      <trkpt lat="43.57327" lon="3.36325">
        <ele>155</ele>
        <time>2015-11-22T09:56:36Z</time>
      </trkpt>
      <trkpt lat="43.57327" lon="3.36326">
        <ele>155</ele>
        <time>2015-11-22T09:56:38Z</time>
      </trkpt>
      <trkpt lat="43.57328" lon="3.36324">
        <ele>152</ele>
        <time>2015-11-22T09:56:50Z</time>
      </trkpt>
      <trkpt lat="43.57328" lon="3.36324">
        <ele>151.5</ele>
        <time>2015-11-22T09:56:55Z</time>
      </trkpt>
      <trkpt lat="43.57328" lon="3.36324">
        <ele>153</ele>
        <time>2015-11-22T09:56:58Z</time>
      </trkpt>
    </trkseg>
  </trk>
</gpx>